<?xml version="1.0" encoding="UTF-8" standalone="no" ?>
<gpx xmlns="http://www.topografix.com/GPX/1/1" xmlns:xsi="http://www.w3.org/2001/XMLSchema-instance" xsi:schemaLocation="http://www.topografix.com/GPX/1/1 http://www.topografix.com/GPX/1/1/gpx.xsd" version="1.1" creator="VisuGPX - https://www.visugpx.com">
  <metadata>
    <name>2018-04-05 Bike ride-Amberieux en Dombes O via Monthieux 46k</name>
    <desc><![CDATA[2018-04-05 Bike ride-Amberieux en Dombes O via Monthieux 46k]]></desc>
  </metadata>
  <wpt lat="45.92454" lon="4.73725">
    <ele>174</ele>
    <name><![CDATA[2018-04-05 10:36 (Start)]]></name>
  </wpt>
  <wpt lat="45.92458" lon="4.73708">
    <ele>174</ele>
    <name><![CDATA[2018-04-05 10:36 (End)]]></name>
  </wpt>
  <trk>
    <name><![CDATA[2018-04-05 10:36]]></name>
    <trkseg>
      <trkpt lat="45.92454" lon="4.73725">
        <ele>174</ele>
        <time>2018-04-05T08:36:44.263Z</time>
      </trkpt>
      <trkpt lat="45.92453" lon="4.73713">
        <ele>174</ele>
        <time>2018-04-05T08:36:53Z</time>
      </trkpt>
      <trkpt lat="45.92454" lon="4.73711">
        <ele>174</ele>
        <time>2018-04-05T08:36:54Z</time>
      </trkpt>
      <trkpt lat="45.92462" lon="4.73707">
        <ele>174</ele>
        <time>2018-04-05T08:37:04Z</time>
      </trkpt>
      <trkpt lat="45.92463" lon="4.73706">
        <ele>174</ele>
        <time>2018-04-05T08:37:05Z</time>
      </trkpt>
      <trkpt lat="45.92465" lon="4.73695">
        <ele>174</ele>
        <time>2018-04-05T08:37:11Z</time>
      </trkpt>
      <trkpt lat="45.92465" lon="4.73692">
        <ele>174</ele>
        <time>2018-04-05T08:37:12Z</time>
      </trkpt>
      <trkpt lat="45.92466" lon="4.73682">
        <ele>174</ele>
        <time>2018-04-05T08:37:15Z</time>
      </trkpt>
      <trkpt lat="45.92467" lon="4.73678">
        <ele>174</ele>
        <time>2018-04-05T08:37:16Z</time>
      </trkpt>
      <trkpt lat="45.92468" lon="4.73669">
        <ele>174</ele>
        <time>2018-04-05T08:37:18Z</time>
      </trkpt>
      <trkpt lat="45.92469" lon="4.73665">
        <ele>174</ele>
        <time>2018-04-05T08:37:19Z</time>
      </trkpt>
      <trkpt lat="45.9247" lon="4.73656">
        <ele>174</ele>
        <time>2018-04-05T08:37:21Z</time>
      </trkpt>
      <trkpt lat="45.9247" lon="4.73651">
        <ele>174</ele>
        <time>2018-04-05T08:37:22Z</time>
      </trkpt>
      <trkpt lat="45.92471" lon="4.73637">
        <ele>174</ele>
        <time>2018-04-05T08:37:23Z</time>
      </trkpt>
      <trkpt lat="45.92471" lon="4.73626">
        <ele>174</ele>
        <time>2018-04-05T08:37:25Z</time>
      </trkpt>
      <trkpt lat="45.9247" lon="4.7362">
        <ele>174</ele>
        <time>2018-04-05T08:37:26Z</time>
      </trkpt>
      <trkpt lat="45.92469" lon="4.73609">
        <ele>174</ele>
        <time>2018-04-05T08:37:28Z</time>
      </trkpt>
      <trkpt lat="45.92469" lon="4.73603">
        <ele>174</ele>
        <time>2018-04-05T08:37:29Z</time>
      </trkpt>
      <trkpt lat="45.92467" lon="4.73592">
        <ele>174</ele>
        <time>2018-04-05T08:37:31Z</time>
      </trkpt>
      <trkpt lat="45.92466" lon="4.73587">
        <ele>174</ele>
        <time>2018-04-05T08:37:32Z</time>
      </trkpt>
      <trkpt lat="45.92465" lon="4.73579">
        <ele>173</ele>
        <time>2018-04-05T08:37:34Z</time>
      </trkpt>
      <trkpt lat="45.92465" lon="4.73572">
        <ele>173</ele>
        <time>2018-04-05T08:37:35Z</time>
      </trkpt>
      <trkpt lat="45.92465" lon="4.73562">
        <ele>173</ele>
        <time>2018-04-05T08:37:38Z</time>
      </trkpt>
      <trkpt lat="45.92465" lon="4.73559">
        <ele>173</ele>
        <time>2018-04-05T08:37:39Z</time>
      </trkpt>
      <trkpt lat="45.92466" lon="4.73547">
        <ele>173</ele>
        <time>2018-04-05T08:37:42Z</time>
      </trkpt>
      <trkpt lat="45.92466" lon="4.73543">
        <ele>173</ele>
        <time>2018-04-05T08:37:43Z</time>
      </trkpt>
      <trkpt lat="45.92466" lon="4.73538">
        <ele>174</ele>
        <time>2018-04-05T08:37:44Z</time>
      </trkpt>
      <trkpt lat="45.92467" lon="4.73525">
        <ele>174</ele>
        <time>2018-04-05T08:37:45Z</time>
      </trkpt>
      <trkpt lat="45.92467" lon="4.73513">
        <ele>174</ele>
        <time>2018-04-05T08:37:47Z</time>
      </trkpt>
      <trkpt lat="45.92468" lon="4.73505">
        <ele>174</ele>
        <time>2018-04-05T08:37:48Z</time>
      </trkpt>
      <trkpt lat="45.92468" lon="4.73499">
        <ele>173</ele>
        <time>2018-04-05T08:37:49Z</time>
      </trkpt>
      <trkpt lat="45.92468" lon="4.73491">
        <ele>173</ele>
        <time>2018-04-05T08:37:50Z</time>
      </trkpt>
      <trkpt lat="45.92467" lon="4.73485">
        <ele>173</ele>
        <time>2018-04-05T08:37:51Z</time>
      </trkpt>
      <trkpt lat="45.92467" lon="4.73478">
        <ele>173</ele>
        <time>2018-04-05T08:37:52Z</time>
      </trkpt>
      <trkpt lat="45.92467" lon="4.73471">
        <ele>173</ele>
        <time>2018-04-05T08:37:53Z</time>
      </trkpt>
      <trkpt lat="45.92466" lon="4.73464">
        <ele>173</ele>
        <time>2018-04-05T08:37:54Z</time>
      </trkpt>
      <trkpt lat="45.92466" lon="4.73456">
        <ele>173</ele>
        <time>2018-04-05T08:37:55Z</time>
      </trkpt>
      <trkpt lat="45.92465" lon="4.73448">
        <ele>173</ele>
        <time>2018-04-05T08:37:56Z</time>
      </trkpt>
      <trkpt lat="45.92462" lon="4.73442">
        <ele>173</ele>
        <time>2018-04-05T08:37:57Z</time>
      </trkpt>
      <trkpt lat="45.92459" lon="4.73436">
        <ele>173</ele>
        <time>2018-04-05T08:37:58Z</time>
      </trkpt>
      <trkpt lat="45.92456" lon="4.73429">
        <ele>173</ele>
        <time>2018-04-05T08:37:59Z</time>
      </trkpt>
      <trkpt lat="45.92452" lon="4.73425">
        <ele>173</ele>
        <time>2018-04-05T08:38:00Z</time>
      </trkpt>
      <trkpt lat="45.92447" lon="4.73422">
        <ele>173</ele>
        <time>2018-04-05T08:38:01Z</time>
      </trkpt>
      <trkpt lat="45.92442" lon="4.73419">
        <ele>173</ele>
        <time>2018-04-05T08:38:02Z</time>
      </trkpt>
      <trkpt lat="45.92438" lon="4.73416">
        <ele>172</ele>
        <time>2018-04-05T08:38:03Z</time>
      </trkpt>
      <trkpt lat="45.92433" lon="4.73412">
        <ele>172</ele>
        <time>2018-04-05T08:38:04Z</time>
      </trkpt>
      <trkpt lat="45.92429" lon="4.73406">
        <ele>172</ele>
        <time>2018-04-05T08:38:05Z</time>
      </trkpt>
      <trkpt lat="45.92425" lon="4.73399">
        <ele>172</ele>
        <time>2018-04-05T08:38:06Z</time>
      </trkpt>
      <trkpt lat="45.92423" lon="4.73391">
        <ele>172</ele>
        <time>2018-04-05T08:38:07Z</time>
      </trkpt>
      <trkpt lat="45.92422" lon="4.73384">
        <ele>172</ele>
        <time>2018-04-05T08:38:08Z</time>
      </trkpt>
      <trkpt lat="45.92421" lon="4.73377">
        <ele>172</ele>
        <time>2018-04-05T08:38:09Z</time>
      </trkpt>
      <trkpt lat="45.92419" lon="4.73371">
        <ele>172</ele>
        <time>2018-04-05T08:38:10Z</time>
      </trkpt>
      <trkpt lat="45.92419" lon="4.73364">
        <ele>172</ele>
        <time>2018-04-05T08:38:11Z</time>
      </trkpt>
      <trkpt lat="45.92419" lon="4.73357">
        <ele>171</ele>
        <time>2018-04-05T08:38:12Z</time>
      </trkpt>
      <trkpt lat="45.92417" lon="4.73344">
        <ele>171</ele>
        <time>2018-04-05T08:38:14Z</time>
      </trkpt>
      <trkpt lat="45.92415" lon="4.73338">
        <ele>171</ele>
        <time>2018-04-05T08:38:15Z</time>
      </trkpt>
      <trkpt lat="45.92412" lon="4.73326">
        <ele>171</ele>
        <time>2018-04-05T08:38:17Z</time>
      </trkpt>
      <trkpt lat="45.92412" lon="4.7332">
        <ele>171</ele>
        <time>2018-04-05T08:38:18Z</time>
      </trkpt>
      <trkpt lat="45.92412" lon="4.73314">
        <ele>171</ele>
        <time>2018-04-05T08:38:19Z</time>
      </trkpt>
      <trkpt lat="45.92412" lon="4.73306">
        <ele>171</ele>
        <time>2018-04-05T08:38:20Z</time>
      </trkpt>
      <trkpt lat="45.92411" lon="4.73299">
        <ele>171</ele>
        <time>2018-04-05T08:38:21Z</time>
      </trkpt>
      <trkpt lat="45.92411" lon="4.73293">
        <ele>171</ele>
        <time>2018-04-05T08:38:22Z</time>
      </trkpt>
      <trkpt lat="45.92411" lon="4.73285">
        <ele>171</ele>
        <time>2018-04-05T08:38:23Z</time>
      </trkpt>
      <trkpt lat="45.92411" lon="4.73277">
        <ele>171</ele>
        <time>2018-04-05T08:38:24Z</time>
      </trkpt>
      <trkpt lat="45.9241" lon="4.7327">
        <ele>171</ele>
        <time>2018-04-05T08:38:25Z</time>
      </trkpt>
      <trkpt lat="45.92408" lon="4.73263">
        <ele>171</ele>
        <time>2018-04-05T08:38:26Z</time>
      </trkpt>
      <trkpt lat="45.92408" lon="4.73255">
        <ele>171</ele>
        <time>2018-04-05T08:38:27Z</time>
      </trkpt>
      <trkpt lat="45.92408" lon="4.73247">
        <ele>171</ele>
        <time>2018-04-05T08:38:28Z</time>
      </trkpt>
      <trkpt lat="45.92408" lon="4.7324">
        <ele>171</ele>
        <time>2018-04-05T08:38:29Z</time>
      </trkpt>
      <trkpt lat="45.92408" lon="4.73231">
        <ele>171</ele>
        <time>2018-04-05T08:38:30Z</time>
      </trkpt>
      <trkpt lat="45.92406" lon="4.73224">
        <ele>171</ele>
        <time>2018-04-05T08:38:31Z</time>
      </trkpt>
      <trkpt lat="45.92406" lon="4.73217">
        <ele>171</ele>
        <time>2018-04-05T08:38:32Z</time>
      </trkpt>
      <trkpt lat="45.92406" lon="4.73208">
        <ele>171</ele>
        <time>2018-04-05T08:38:33Z</time>
      </trkpt>
      <trkpt lat="45.92406" lon="4.73199">
        <ele>171</ele>
        <time>2018-04-05T08:38:34Z</time>
      </trkpt>
      <trkpt lat="45.92406" lon="4.73191">
        <ele>171</ele>
        <time>2018-04-05T08:38:35Z</time>
      </trkpt>
      <trkpt lat="45.92406" lon="4.73183">
        <ele>171</ele>
        <time>2018-04-05T08:38:36Z</time>
      </trkpt>
      <trkpt lat="45.92404" lon="4.73176">
        <ele>171</ele>
        <time>2018-04-05T08:38:37Z</time>
      </trkpt>
      <trkpt lat="45.92406" lon="4.73168">
        <ele>170</ele>
        <time>2018-04-05T08:38:38Z</time>
      </trkpt>
      <trkpt lat="45.92406" lon="4.73161">
        <ele>170</ele>
        <time>2018-04-05T08:38:39Z</time>
      </trkpt>
      <trkpt lat="45.92406" lon="4.73154">
        <ele>171</ele>
        <time>2018-04-05T08:38:40Z</time>
      </trkpt>
      <trkpt lat="45.92405" lon="4.73148">
        <ele>171</ele>
        <time>2018-04-05T08:38:41Z</time>
      </trkpt>
      <trkpt lat="45.92405" lon="4.7314">
        <ele>171</ele>
        <time>2018-04-05T08:38:42Z</time>
      </trkpt>
      <trkpt lat="45.92406" lon="4.73133">
        <ele>171</ele>
        <time>2018-04-05T08:38:43Z</time>
      </trkpt>
      <trkpt lat="45.92407" lon="4.73126">
        <ele>171</ele>
        <time>2018-04-05T08:38:44Z</time>
      </trkpt>
      <trkpt lat="45.92411" lon="4.73115">
        <ele>171</ele>
        <time>2018-04-05T08:38:46Z</time>
      </trkpt>
      <trkpt lat="45.92416" lon="4.7311">
        <ele>171</ele>
        <time>2018-04-05T08:38:47Z</time>
      </trkpt>
      <trkpt lat="45.9242" lon="4.73106">
        <ele>171</ele>
        <time>2018-04-05T08:38:48Z</time>
      </trkpt>
      <trkpt lat="45.92424" lon="4.73102">
        <ele>171</ele>
        <time>2018-04-05T08:38:49Z</time>
      </trkpt>
      <trkpt lat="45.92428" lon="4.73099">
        <ele>171</ele>
        <time>2018-04-05T08:38:50Z</time>
      </trkpt>
      <trkpt lat="45.92432" lon="4.73096">
        <ele>171</ele>
        <time>2018-04-05T08:38:51Z</time>
      </trkpt>
      <trkpt lat="45.92437" lon="4.73093">
        <ele>171</ele>
        <time>2018-04-05T08:38:52Z</time>
      </trkpt>
      <trkpt lat="45.92441" lon="4.73089">
        <ele>171</ele>
        <time>2018-04-05T08:38:53Z</time>
      </trkpt>
      <trkpt lat="45.92445" lon="4.73085">
        <ele>170</ele>
        <time>2018-04-05T08:38:54Z</time>
      </trkpt>
      <trkpt lat="45.92449" lon="4.73082">
        <ele>170</ele>
        <time>2018-04-05T08:38:55Z</time>
      </trkpt>
      <trkpt lat="45.92454" lon="4.73078">
        <ele>170</ele>
        <time>2018-04-05T08:38:56Z</time>
      </trkpt>
      <trkpt lat="45.92458" lon="4.73075">
        <ele>170</ele>
        <time>2018-04-05T08:38:57Z</time>
      </trkpt>
      <trkpt lat="45.92462" lon="4.73071">
        <ele>170</ele>
        <time>2018-04-05T08:38:58Z</time>
      </trkpt>
      <trkpt lat="45.92467" lon="4.73068">
        <ele>170</ele>
        <time>2018-04-05T08:38:59Z</time>
      </trkpt>
      <trkpt lat="45.92471" lon="4.73064">
        <ele>170</ele>
        <time>2018-04-05T08:39:00Z</time>
      </trkpt>
      <trkpt lat="45.92476" lon="4.73059">
        <ele>170</ele>
        <time>2018-04-05T08:39:01Z</time>
      </trkpt>
      <trkpt lat="45.9248" lon="4.73056">
        <ele>170</ele>
        <time>2018-04-05T08:39:02Z</time>
      </trkpt>
      <trkpt lat="45.92484" lon="4.73052">
        <ele>170</ele>
        <time>2018-04-05T08:39:03Z</time>
      </trkpt>
      <trkpt lat="45.92489" lon="4.73049">
        <ele>170</ele>
        <time>2018-04-05T08:39:04Z</time>
      </trkpt>
      <trkpt lat="45.92494" lon="4.73045">
        <ele>170</ele>
        <time>2018-04-05T08:39:05Z</time>
      </trkpt>
      <trkpt lat="45.92499" lon="4.73042">
        <ele>170</ele>
        <time>2018-04-05T08:39:06Z</time>
      </trkpt>
      <trkpt lat="45.92503" lon="4.73039">
        <ele>169</ele>
        <time>2018-04-05T08:39:07Z</time>
      </trkpt>
      <trkpt lat="45.92508" lon="4.73034">
        <ele>169</ele>
        <time>2018-04-05T08:39:08Z</time>
      </trkpt>
      <trkpt lat="45.92512" lon="4.7303">
        <ele>169</ele>
        <time>2018-04-05T08:39:09Z</time>
      </trkpt>
      <trkpt lat="45.92517" lon="4.73026">
        <ele>169</ele>
        <time>2018-04-05T08:39:10Z</time>
      </trkpt>
      <trkpt lat="45.92522" lon="4.73022">
        <ele>169</ele>
        <time>2018-04-05T08:39:11Z</time>
      </trkpt>
      <trkpt lat="45.92527" lon="4.73017">
        <ele>169</ele>
        <time>2018-04-05T08:39:12Z</time>
      </trkpt>
      <trkpt lat="45.92532" lon="4.73013">
        <ele>169</ele>
        <time>2018-04-05T08:39:13Z</time>
      </trkpt>
      <trkpt lat="45.92537" lon="4.73009">
        <ele>169</ele>
        <time>2018-04-05T08:39:14Z</time>
      </trkpt>
      <trkpt lat="45.92542" lon="4.73004">
        <ele>169</ele>
        <time>2018-04-05T08:39:15Z</time>
      </trkpt>
      <trkpt lat="45.92547" lon="4.72998">
        <ele>169</ele>
        <time>2018-04-05T08:39:16Z</time>
      </trkpt>
      <trkpt lat="45.92552" lon="4.72994">
        <ele>169</ele>
        <time>2018-04-05T08:39:17Z</time>
      </trkpt>
      <trkpt lat="45.92556" lon="4.7299">
        <ele>169</ele>
        <time>2018-04-05T08:39:18Z</time>
      </trkpt>
      <trkpt lat="45.9256" lon="4.72986">
        <ele>169</ele>
        <time>2018-04-05T08:39:19Z</time>
      </trkpt>
      <trkpt lat="45.92565" lon="4.72981">
        <ele>169</ele>
        <time>2018-04-05T08:39:20Z</time>
      </trkpt>
      <trkpt lat="45.92569" lon="4.72977">
        <ele>169</ele>
        <time>2018-04-05T08:39:21Z</time>
      </trkpt>
      <trkpt lat="45.92573" lon="4.72973">
        <ele>169</ele>
        <time>2018-04-05T08:39:22Z</time>
      </trkpt>
      <trkpt lat="45.92578" lon="4.72968">
        <ele>169</ele>
        <time>2018-04-05T08:39:23Z</time>
      </trkpt>
      <trkpt lat="45.92582" lon="4.72962">
        <ele>169</ele>
        <time>2018-04-05T08:39:24Z</time>
      </trkpt>
      <trkpt lat="45.92586" lon="4.72957">
        <ele>169</ele>
        <time>2018-04-05T08:39:25Z</time>
      </trkpt>
      <trkpt lat="45.92591" lon="4.72952">
        <ele>169</ele>
        <time>2018-04-05T08:39:26Z</time>
      </trkpt>
      <trkpt lat="45.92596" lon="4.72947">
        <ele>169</ele>
        <time>2018-04-05T08:39:27Z</time>
      </trkpt>
      <trkpt lat="45.926" lon="4.72942">
        <ele>169</ele>
        <time>2018-04-05T08:39:28Z</time>
      </trkpt>
      <trkpt lat="45.92605" lon="4.72937">
        <ele>169</ele>
        <time>2018-04-05T08:39:29Z</time>
      </trkpt>
      <trkpt lat="45.9261" lon="4.72932">
        <ele>169</ele>
        <time>2018-04-05T08:39:30Z</time>
      </trkpt>
      <trkpt lat="45.92615" lon="4.72928">
        <ele>169</ele>
        <time>2018-04-05T08:39:31Z</time>
      </trkpt>
      <trkpt lat="45.92619" lon="4.72923">
        <ele>169</ele>
        <time>2018-04-05T08:39:32Z</time>
      </trkpt>
      <trkpt lat="45.92625" lon="4.72919">
        <ele>169</ele>
        <time>2018-04-05T08:39:33Z</time>
      </trkpt>
      <trkpt lat="45.9263" lon="4.72915">
        <ele>169</ele>
        <time>2018-04-05T08:39:34Z</time>
      </trkpt>
      <trkpt lat="45.92634" lon="4.72911">
        <ele>169</ele>
        <time>2018-04-05T08:39:35Z</time>
      </trkpt>
      <trkpt lat="45.9264" lon="4.72907">
        <ele>169</ele>
        <time>2018-04-05T08:39:36Z</time>
      </trkpt>
      <trkpt lat="45.92645" lon="4.72903">
        <ele>169</ele>
        <time>2018-04-05T08:39:37Z</time>
      </trkpt>
      <trkpt lat="45.9265" lon="4.729">
        <ele>170</ele>
        <time>2018-04-05T08:39:38Z</time>
      </trkpt>
      <trkpt lat="45.92655" lon="4.72895">
        <ele>170</ele>
        <time>2018-04-05T08:39:39Z</time>
      </trkpt>
      <trkpt lat="45.92659" lon="4.7289">
        <ele>169</ele>
        <time>2018-04-05T08:39:40Z</time>
      </trkpt>
      <trkpt lat="45.92664" lon="4.72886">
        <ele>169</ele>
        <time>2018-04-05T08:39:41Z</time>
      </trkpt>
      <trkpt lat="45.92669" lon="4.72881">
        <ele>170</ele>
        <time>2018-04-05T08:39:42Z</time>
      </trkpt>
      <trkpt lat="45.92674" lon="4.72878">
        <ele>170</ele>
        <time>2018-04-05T08:39:43Z</time>
      </trkpt>
      <trkpt lat="45.92679" lon="4.72874">
        <ele>169</ele>
        <time>2018-04-05T08:39:44Z</time>
      </trkpt>
      <trkpt lat="45.92684" lon="4.72871">
        <ele>169</ele>
        <time>2018-04-05T08:39:45Z</time>
      </trkpt>
      <trkpt lat="45.92689" lon="4.72867">
        <ele>169</ele>
        <time>2018-04-05T08:39:46Z</time>
      </trkpt>
      <trkpt lat="45.92694" lon="4.72863">
        <ele>169</ele>
        <time>2018-04-05T08:39:47Z</time>
      </trkpt>
      <trkpt lat="45.92699" lon="4.72858">
        <ele>169</ele>
        <time>2018-04-05T08:39:48Z</time>
      </trkpt>
      <trkpt lat="45.92704" lon="4.72854">
        <ele>169</ele>
        <time>2018-04-05T08:39:49Z</time>
      </trkpt>
      <trkpt lat="45.92709" lon="4.72849">
        <ele>169</ele>
        <time>2018-04-05T08:39:50Z</time>
      </trkpt>
      <trkpt lat="45.92715" lon="4.72846">
        <ele>169</ele>
        <time>2018-04-05T08:39:51Z</time>
      </trkpt>
      <trkpt lat="45.9272" lon="4.72842">
        <ele>169</ele>
        <time>2018-04-05T08:39:52Z</time>
      </trkpt>
      <trkpt lat="45.92725" lon="4.72838">
        <ele>169</ele>
        <time>2018-04-05T08:39:53Z</time>
      </trkpt>
      <trkpt lat="45.9273" lon="4.72834">
        <ele>169</ele>
        <time>2018-04-05T08:39:54Z</time>
      </trkpt>
      <trkpt lat="45.92736" lon="4.7283">
        <ele>169</ele>
        <time>2018-04-05T08:39:55Z</time>
      </trkpt>
      <trkpt lat="45.92741" lon="4.72826">
        <ele>169</ele>
        <time>2018-04-05T08:39:56Z</time>
      </trkpt>
      <trkpt lat="45.92746" lon="4.72822">
        <ele>169</ele>
        <time>2018-04-05T08:39:57Z</time>
      </trkpt>
      <trkpt lat="45.92752" lon="4.72818">
        <ele>170</ele>
        <time>2018-04-05T08:39:58Z</time>
      </trkpt>
      <trkpt lat="45.92758" lon="4.72814">
        <ele>170</ele>
        <time>2018-04-05T08:39:59Z</time>
      </trkpt>
      <trkpt lat="45.92763" lon="4.7281">
        <ele>170</ele>
        <time>2018-04-05T08:40:00Z</time>
      </trkpt>
      <trkpt lat="45.92768" lon="4.72806">
        <ele>170</ele>
        <time>2018-04-05T08:40:01Z</time>
      </trkpt>
      <trkpt lat="45.92774" lon="4.72801">
        <ele>170</ele>
        <time>2018-04-05T08:40:02Z</time>
      </trkpt>
      <trkpt lat="45.92779" lon="4.72798">
        <ele>170</ele>
        <time>2018-04-05T08:40:03Z</time>
      </trkpt>
      <trkpt lat="45.92785" lon="4.72794">
        <ele>170</ele>
        <time>2018-04-05T08:40:04Z</time>
      </trkpt>
      <trkpt lat="45.9279" lon="4.72791">
        <ele>170</ele>
        <time>2018-04-05T08:40:05Z</time>
      </trkpt>
      <trkpt lat="45.92798" lon="4.72789">
        <ele>171</ele>
        <time>2018-04-05T08:40:07Z</time>
      </trkpt>
      <trkpt lat="45.92802" lon="4.72791">
        <ele>171</ele>
        <time>2018-04-05T08:40:08Z</time>
      </trkpt>
      <trkpt lat="45.92805" lon="4.72803">
        <ele>171</ele>
        <time>2018-04-05T08:40:10Z</time>
      </trkpt>
      <trkpt lat="45.92806" lon="4.72809">
        <ele>171</ele>
        <time>2018-04-05T08:40:11Z</time>
      </trkpt>
      <trkpt lat="45.92808" lon="4.72821">
        <ele>171</ele>
        <time>2018-04-05T08:40:13Z</time>
      </trkpt>
      <trkpt lat="45.92809" lon="4.72828">
        <ele>171</ele>
        <time>2018-04-05T08:40:14Z</time>
      </trkpt>
      <trkpt lat="45.92809" lon="4.72836">
        <ele>170</ele>
        <time>2018-04-05T08:40:15Z</time>
      </trkpt>
      <trkpt lat="45.92811" lon="4.72844">
        <ele>170</ele>
        <time>2018-04-05T08:40:16Z</time>
      </trkpt>
      <trkpt lat="45.92812" lon="4.72852">
        <ele>170</ele>
        <time>2018-04-05T08:40:17Z</time>
      </trkpt>
      <trkpt lat="45.92814" lon="4.72859">
        <ele>170</ele>
        <time>2018-04-05T08:40:18Z</time>
      </trkpt>
      <trkpt lat="45.92816" lon="4.72866">
        <ele>170</ele>
        <time>2018-04-05T08:40:19Z</time>
      </trkpt>
      <trkpt lat="45.92818" lon="4.72874">
        <ele>170</ele>
        <time>2018-04-05T08:40:20Z</time>
      </trkpt>
      <trkpt lat="45.9282" lon="4.72881">
        <ele>170</ele>
        <time>2018-04-05T08:40:21Z</time>
      </trkpt>
      <trkpt lat="45.92821" lon="4.72888">
        <ele>170</ele>
        <time>2018-04-05T08:40:22Z</time>
      </trkpt>
      <trkpt lat="45.92823" lon="4.72896">
        <ele>170</ele>
        <time>2018-04-05T08:40:23Z</time>
      </trkpt>
      <trkpt lat="45.92824" lon="4.72905">
        <ele>170</ele>
        <time>2018-04-05T08:40:24Z</time>
      </trkpt>
      <trkpt lat="45.92826" lon="4.72914">
        <ele>170</ele>
        <time>2018-04-05T08:40:25Z</time>
      </trkpt>
      <trkpt lat="45.92827" lon="4.72922">
        <ele>170</ele>
        <time>2018-04-05T08:40:26Z</time>
      </trkpt>
      <trkpt lat="45.92828" lon="4.72931">
        <ele>170</ele>
        <time>2018-04-05T08:40:27Z</time>
      </trkpt>
      <trkpt lat="45.92828" lon="4.7294">
        <ele>170</ele>
        <time>2018-04-05T08:40:28Z</time>
      </trkpt>
      <trkpt lat="45.9283" lon="4.72947">
        <ele>170</ele>
        <time>2018-04-05T08:40:29Z</time>
      </trkpt>
      <trkpt lat="45.92831" lon="4.72955">
        <ele>170</ele>
        <time>2018-04-05T08:40:30Z</time>
      </trkpt>
      <trkpt lat="45.92831" lon="4.72963">
        <ele>170</ele>
        <time>2018-04-05T08:40:31Z</time>
      </trkpt>
      <trkpt lat="45.92831" lon="4.7297">
        <ele>170</ele>
        <time>2018-04-05T08:40:32Z</time>
      </trkpt>
      <trkpt lat="45.92832" lon="4.7298">
        <ele>170</ele>
        <time>2018-04-05T08:40:33Z</time>
      </trkpt>
      <trkpt lat="45.92832" lon="4.72989">
        <ele>170</ele>
        <time>2018-04-05T08:40:34Z</time>
      </trkpt>
      <trkpt lat="45.92833" lon="4.72997">
        <ele>170</ele>
        <time>2018-04-05T08:40:35Z</time>
      </trkpt>
      <trkpt lat="45.92835" lon="4.73005">
        <ele>170</ele>
        <time>2018-04-05T08:40:36Z</time>
      </trkpt>
      <trkpt lat="45.92836" lon="4.73013">
        <ele>171</ele>
        <time>2018-04-05T08:40:37Z</time>
      </trkpt>
      <trkpt lat="45.92836" lon="4.73022">
        <ele>171</ele>
        <time>2018-04-05T08:40:38Z</time>
      </trkpt>
      <trkpt lat="45.92838" lon="4.73031">
        <ele>171</ele>
        <time>2018-04-05T08:40:39Z</time>
      </trkpt>
      <trkpt lat="45.9284" lon="4.73038">
        <ele>171</ele>
        <time>2018-04-05T08:40:40Z</time>
      </trkpt>
      <trkpt lat="45.92841" lon="4.73046">
        <ele>171</ele>
        <time>2018-04-05T08:40:41Z</time>
      </trkpt>
      <trkpt lat="45.92843" lon="4.73054">
        <ele>171</ele>
        <time>2018-04-05T08:40:42Z</time>
      </trkpt>
      <trkpt lat="45.92843" lon="4.73062">
        <ele>171</ele>
        <time>2018-04-05T08:40:43Z</time>
      </trkpt>
      <trkpt lat="45.92844" lon="4.73069">
        <ele>171</ele>
        <time>2018-04-05T08:40:44Z</time>
      </trkpt>
      <trkpt lat="45.92845" lon="4.73076">
        <ele>171</ele>
        <time>2018-04-05T08:40:45Z</time>
      </trkpt>
      <trkpt lat="45.92847" lon="4.73083">
        <ele>171</ele>
        <time>2018-04-05T08:40:46Z</time>
      </trkpt>
      <trkpt lat="45.92848" lon="4.7309">
        <ele>171</ele>
        <time>2018-04-05T08:40:47Z</time>
      </trkpt>
      <trkpt lat="45.92849" lon="4.73097">
        <ele>171</ele>
        <time>2018-04-05T08:40:48Z</time>
      </trkpt>
      <trkpt lat="45.92854" lon="4.73103">
        <ele>171</ele>
        <time>2018-04-05T08:40:50Z</time>
      </trkpt>
      <trkpt lat="45.92858" lon="4.73103">
        <ele>171</ele>
        <time>2018-04-05T08:40:51Z</time>
      </trkpt>
      <trkpt lat="45.92864" lon="4.73096">
        <ele>171</ele>
        <time>2018-04-05T08:40:53Z</time>
      </trkpt>
      <trkpt lat="45.92866" lon="4.73093">
        <ele>172</ele>
        <time>2018-04-05T08:40:54Z</time>
      </trkpt>
      <trkpt lat="45.92872" lon="4.73086">
        <ele>172</ele>
        <time>2018-04-05T08:40:57Z</time>
      </trkpt>
      <trkpt lat="45.92875" lon="4.73085">
        <ele>172</ele>
        <time>2018-04-05T08:40:58Z</time>
      </trkpt>
      <trkpt lat="45.92882" lon="4.73081">
        <ele>172</ele>
        <time>2018-04-05T08:40:59Z</time>
      </trkpt>
      <trkpt lat="45.92886" lon="4.73078">
        <ele>172</ele>
        <time>2018-04-05T08:41:00Z</time>
      </trkpt>
      <trkpt lat="45.92889" lon="4.73074">
        <ele>172</ele>
        <time>2018-04-05T08:41:01Z</time>
      </trkpt>
      <trkpt lat="45.92893" lon="4.73069">
        <ele>172</ele>
        <time>2018-04-05T08:41:02Z</time>
      </trkpt>
      <trkpt lat="45.92898" lon="4.73059">
        <ele>172</ele>
        <time>2018-04-05T08:41:04Z</time>
      </trkpt>
      <trkpt lat="45.92902" lon="4.73053">
        <ele>172</ele>
        <time>2018-04-05T08:41:05Z</time>
      </trkpt>
      <trkpt lat="45.92906" lon="4.73048">
        <ele>172</ele>
        <time>2018-04-05T08:41:06Z</time>
      </trkpt>
      <trkpt lat="45.92909" lon="4.73042">
        <ele>172</ele>
        <time>2018-04-05T08:41:07Z</time>
      </trkpt>
      <trkpt lat="45.92912" lon="4.73037">
        <ele>172</ele>
        <time>2018-04-05T08:41:08Z</time>
      </trkpt>
      <trkpt lat="45.92916" lon="4.73032">
        <ele>172</ele>
        <time>2018-04-05T08:41:09Z</time>
      </trkpt>
      <trkpt lat="45.9292" lon="4.73027">
        <ele>172</ele>
        <time>2018-04-05T08:41:10Z</time>
      </trkpt>
      <trkpt lat="45.92923" lon="4.73022">
        <ele>171</ele>
        <time>2018-04-05T08:41:11Z</time>
      </trkpt>
      <trkpt lat="45.92927" lon="4.73018">
        <ele>171</ele>
        <time>2018-04-05T08:41:12Z</time>
      </trkpt>
      <trkpt lat="45.92932" lon="4.73012">
        <ele>171</ele>
        <time>2018-04-05T08:41:13Z</time>
      </trkpt>
      <trkpt lat="45.92936" lon="4.73008">
        <ele>171</ele>
        <time>2018-04-05T08:41:14Z</time>
      </trkpt>
      <trkpt lat="45.92941" lon="4.73002">
        <ele>171</ele>
        <time>2018-04-05T08:41:15Z</time>
      </trkpt>
      <trkpt lat="45.92945" lon="4.72997">
        <ele>171</ele>
        <time>2018-04-05T08:41:16Z</time>
      </trkpt>
      <trkpt lat="45.9295" lon="4.72992">
        <ele>171</ele>
        <time>2018-04-05T08:41:17Z</time>
      </trkpt>
      <trkpt lat="45.92954" lon="4.72987">
        <ele>171</ele>
        <time>2018-04-05T08:41:18Z</time>
      </trkpt>
      <trkpt lat="45.92959" lon="4.72982">
        <ele>171</ele>
        <time>2018-04-05T08:41:19Z</time>
      </trkpt>
      <trkpt lat="45.92964" lon="4.72975">
        <ele>171</ele>
        <time>2018-04-05T08:41:20Z</time>
      </trkpt>
      <trkpt lat="45.92967" lon="4.7297">
        <ele>171</ele>
        <time>2018-04-05T08:41:21Z</time>
      </trkpt>
      <trkpt lat="45.92972" lon="4.72964">
        <ele>171</ele>
        <time>2018-04-05T08:41:22Z</time>
      </trkpt>
      <trkpt lat="45.92977" lon="4.72959">
        <ele>171</ele>
        <time>2018-04-05T08:41:23Z</time>
      </trkpt>
      <trkpt lat="45.92982" lon="4.72953">
        <ele>171</ele>
        <time>2018-04-05T08:41:24Z</time>
      </trkpt>
      <trkpt lat="45.92987" lon="4.72947">
        <ele>171</ele>
        <time>2018-04-05T08:41:25Z</time>
      </trkpt>
      <trkpt lat="45.92992" lon="4.72942">
        <ele>171</ele>
        <time>2018-04-05T08:41:26Z</time>
      </trkpt>
      <trkpt lat="45.92997" lon="4.72937">
        <ele>171</ele>
        <time>2018-04-05T08:41:27Z</time>
      </trkpt>
      <trkpt lat="45.93002" lon="4.72931">
        <ele>170</ele>
        <time>2018-04-05T08:41:28Z</time>
      </trkpt>
      <trkpt lat="45.93007" lon="4.72925">
        <ele>170</ele>
        <time>2018-04-05T08:41:29Z</time>
      </trkpt>
      <trkpt lat="45.93012" lon="4.72919">
        <ele>170</ele>
        <time>2018-04-05T08:41:30Z</time>
      </trkpt>
      <trkpt lat="45.93017" lon="4.72914">
        <ele>171</ele>
        <time>2018-04-05T08:41:31Z</time>
      </trkpt>
      <trkpt lat="45.93021" lon="4.72909">
        <ele>172</ele>
        <time>2018-04-05T08:41:32Z</time>
      </trkpt>
      <trkpt lat="45.93025" lon="4.72904">
        <ele>172</ele>
        <time>2018-04-05T08:41:33Z</time>
      </trkpt>
      <trkpt lat="45.93029" lon="4.72899">
        <ele>172</ele>
        <time>2018-04-05T08:41:34Z</time>
      </trkpt>
      <trkpt lat="45.93032" lon="4.72894">
        <ele>172</ele>
        <time>2018-04-05T08:41:35Z</time>
      </trkpt>
      <trkpt lat="45.93037" lon="4.72888">
        <ele>172</ele>
        <time>2018-04-05T08:41:36Z</time>
      </trkpt>
      <trkpt lat="45.93042" lon="4.72883">
        <ele>172</ele>
        <time>2018-04-05T08:41:37Z</time>
      </trkpt>
      <trkpt lat="45.93046" lon="4.72878">
        <ele>172</ele>
        <time>2018-04-05T08:41:38Z</time>
      </trkpt>
      <trkpt lat="45.9305" lon="4.72873">
        <ele>172</ele>
        <time>2018-04-05T08:41:39Z</time>
      </trkpt>
      <trkpt lat="45.93055" lon="4.72867">
        <ele>172</ele>
        <time>2018-04-05T08:41:40Z</time>
      </trkpt>
      <trkpt lat="45.93059" lon="4.72862">
        <ele>172</ele>
        <time>2018-04-05T08:41:41Z</time>
      </trkpt>
      <trkpt lat="45.93064" lon="4.72856">
        <ele>172</ele>
        <time>2018-04-05T08:41:42Z</time>
      </trkpt>
      <trkpt lat="45.93073" lon="4.72845">
        <ele>173</ele>
        <time>2018-04-05T08:41:44Z</time>
      </trkpt>
      <trkpt lat="45.93097" lon="4.72815">
        <ele>172</ele>
        <time>2018-04-05T08:41:50Z</time>
      </trkpt>
      <trkpt lat="45.93102" lon="4.7281">
        <ele>172</ele>
        <time>2018-04-05T08:41:51Z</time>
      </trkpt>
      <trkpt lat="45.93107" lon="4.72807">
        <ele>171</ele>
        <time>2018-04-05T08:41:52Z</time>
      </trkpt>
      <trkpt lat="45.93112" lon="4.72802">
        <ele>171</ele>
        <time>2018-04-05T08:41:53Z</time>
      </trkpt>
      <trkpt lat="45.93117" lon="4.72798">
        <ele>171</ele>
        <time>2018-04-05T08:41:54Z</time>
      </trkpt>
      <trkpt lat="45.93121" lon="4.72793">
        <ele>171</ele>
        <time>2018-04-05T08:41:55Z</time>
      </trkpt>
      <trkpt lat="45.93126" lon="4.72787">
        <ele>171</ele>
        <time>2018-04-05T08:41:56Z</time>
      </trkpt>
      <trkpt lat="45.9313" lon="4.72781">
        <ele>171</ele>
        <time>2018-04-05T08:41:57Z</time>
      </trkpt>
      <trkpt lat="45.93135" lon="4.72775">
        <ele>171</ele>
        <time>2018-04-05T08:41:58Z</time>
      </trkpt>
      <trkpt lat="45.9314" lon="4.7277">
        <ele>171</ele>
        <time>2018-04-05T08:41:59Z</time>
      </trkpt>
      <trkpt lat="45.93145" lon="4.72764">
        <ele>171</ele>
        <time>2018-04-05T08:42:00Z</time>
      </trkpt>
      <trkpt lat="45.9315" lon="4.72757">
        <ele>170</ele>
        <time>2018-04-05T08:42:01Z</time>
      </trkpt>
      <trkpt lat="45.93155" lon="4.7275">
        <ele>170</ele>
        <time>2018-04-05T08:42:02Z</time>
      </trkpt>
      <trkpt lat="45.9316" lon="4.72743">
        <ele>170</ele>
        <time>2018-04-05T08:42:03Z</time>
      </trkpt>
      <trkpt lat="45.93165" lon="4.72737">
        <ele>170</ele>
        <time>2018-04-05T08:42:04Z</time>
      </trkpt>
      <trkpt lat="45.9317" lon="4.72731">
        <ele>170</ele>
        <time>2018-04-05T08:42:05Z</time>
      </trkpt>
      <trkpt lat="45.93175" lon="4.72725">
        <ele>170</ele>
        <time>2018-04-05T08:42:06Z</time>
      </trkpt>
      <trkpt lat="45.93179" lon="4.7272">
        <ele>169</ele>
        <time>2018-04-05T08:42:07Z</time>
      </trkpt>
      <trkpt lat="45.93184" lon="4.72714">
        <ele>169</ele>
        <time>2018-04-05T08:42:08Z</time>
      </trkpt>
      <trkpt lat="45.93189" lon="4.72709">
        <ele>169</ele>
        <time>2018-04-05T08:42:09Z</time>
      </trkpt>
      <trkpt lat="45.93194" lon="4.72702">
        <ele>169</ele>
        <time>2018-04-05T08:42:10Z</time>
      </trkpt>
      <trkpt lat="45.93199" lon="4.72697">
        <ele>169</ele>
        <time>2018-04-05T08:42:11Z</time>
      </trkpt>
      <trkpt lat="45.93203" lon="4.72691">
        <ele>169</ele>
        <time>2018-04-05T08:42:12Z</time>
      </trkpt>
      <trkpt lat="45.93208" lon="4.72685">
        <ele>169</ele>
        <time>2018-04-05T08:42:13Z</time>
      </trkpt>
      <trkpt lat="45.93213" lon="4.72677">
        <ele>169</ele>
        <time>2018-04-05T08:42:14Z</time>
      </trkpt>
      <trkpt lat="45.93217" lon="4.72673">
        <ele>169</ele>
        <time>2018-04-05T08:42:15Z</time>
      </trkpt>
      <trkpt lat="45.93221" lon="4.72668">
        <ele>169</ele>
        <time>2018-04-05T08:42:16Z</time>
      </trkpt>
      <trkpt lat="45.93225" lon="4.72661">
        <ele>170</ele>
        <time>2018-04-05T08:42:17Z</time>
      </trkpt>
      <trkpt lat="45.9323" lon="4.72655">
        <ele>170</ele>
        <time>2018-04-05T08:42:18Z</time>
      </trkpt>
      <trkpt lat="45.93236" lon="4.72649">
        <ele>170</ele>
        <time>2018-04-05T08:42:19Z</time>
      </trkpt>
      <trkpt lat="45.93241" lon="4.72643">
        <ele>170</ele>
        <time>2018-04-05T08:42:20Z</time>
      </trkpt>
      <trkpt lat="45.93246" lon="4.72638">
        <ele>170</ele>
        <time>2018-04-05T08:42:21Z</time>
      </trkpt>
      <trkpt lat="45.9325" lon="4.72633">
        <ele>170</ele>
        <time>2018-04-05T08:42:22Z</time>
      </trkpt>
      <trkpt lat="45.93255" lon="4.72628">
        <ele>170</ele>
        <time>2018-04-05T08:42:23Z</time>
      </trkpt>
      <trkpt lat="45.9326" lon="4.72623">
        <ele>170</ele>
        <time>2018-04-05T08:42:24Z</time>
      </trkpt>
      <trkpt lat="45.93264" lon="4.72617">
        <ele>170</ele>
        <time>2018-04-05T08:42:25Z</time>
      </trkpt>
      <trkpt lat="45.93269" lon="4.72612">
        <ele>170</ele>
        <time>2018-04-05T08:42:26Z</time>
      </trkpt>
      <trkpt lat="45.93273" lon="4.72606">
        <ele>170</ele>
        <time>2018-04-05T08:42:27Z</time>
      </trkpt>
      <trkpt lat="45.93278" lon="4.726">
        <ele>170</ele>
        <time>2018-04-05T08:42:28Z</time>
      </trkpt>
      <trkpt lat="45.93283" lon="4.72595">
        <ele>170</ele>
        <time>2018-04-05T08:42:29Z</time>
      </trkpt>
      <trkpt lat="45.93287" lon="4.7259">
        <ele>170</ele>
        <time>2018-04-05T08:42:30Z</time>
      </trkpt>
      <trkpt lat="45.93292" lon="4.72585">
        <ele>170</ele>
        <time>2018-04-05T08:42:31Z</time>
      </trkpt>
      <trkpt lat="45.93297" lon="4.72581">
        <ele>171</ele>
        <time>2018-04-05T08:42:32Z</time>
      </trkpt>
      <trkpt lat="45.933" lon="4.72576">
        <ele>171</ele>
        <time>2018-04-05T08:42:33Z</time>
      </trkpt>
      <trkpt lat="45.93305" lon="4.72572">
        <ele>171</ele>
        <time>2018-04-05T08:42:34Z</time>
      </trkpt>
      <trkpt lat="45.9331" lon="4.72566">
        <ele>171</ele>
        <time>2018-04-05T08:42:35Z</time>
      </trkpt>
      <trkpt lat="45.93314" lon="4.7256">
        <ele>171</ele>
        <time>2018-04-05T08:42:36Z</time>
      </trkpt>
      <trkpt lat="45.93318" lon="4.72555">
        <ele>172</ele>
        <time>2018-04-05T08:42:37Z</time>
      </trkpt>
      <trkpt lat="45.93323" lon="4.7255">
        <ele>172</ele>
        <time>2018-04-05T08:42:38Z</time>
      </trkpt>
      <trkpt lat="45.93327" lon="4.72546">
        <ele>172</ele>
        <time>2018-04-05T08:42:39Z</time>
      </trkpt>
      <trkpt lat="45.93332" lon="4.72541">
        <ele>172</ele>
        <time>2018-04-05T08:42:40Z</time>
      </trkpt>
      <trkpt lat="45.93336" lon="4.72535">
        <ele>172</ele>
        <time>2018-04-05T08:42:41Z</time>
      </trkpt>
      <trkpt lat="45.9334" lon="4.72529">
        <ele>172</ele>
        <time>2018-04-05T08:42:42Z</time>
      </trkpt>
      <trkpt lat="45.93344" lon="4.72524">
        <ele>172</ele>
        <time>2018-04-05T08:42:43Z</time>
      </trkpt>
      <trkpt lat="45.93348" lon="4.72518">
        <ele>172</ele>
        <time>2018-04-05T08:42:44Z</time>
      </trkpt>
      <trkpt lat="45.93354" lon="4.72513">
        <ele>172</ele>
        <time>2018-04-05T08:42:45Z</time>
      </trkpt>
      <trkpt lat="45.93358" lon="4.72507">
        <ele>172</ele>
        <time>2018-04-05T08:42:46Z</time>
      </trkpt>
      <trkpt lat="45.93362" lon="4.72502">
        <ele>172</ele>
        <time>2018-04-05T08:42:47Z</time>
      </trkpt>
      <trkpt lat="45.93366" lon="4.72497">
        <ele>173</ele>
        <time>2018-04-05T08:42:48Z</time>
      </trkpt>
      <trkpt lat="45.93371" lon="4.72491">
        <ele>173</ele>
        <time>2018-04-05T08:42:49Z</time>
      </trkpt>
      <trkpt lat="45.93375" lon="4.72487">
        <ele>173</ele>
        <time>2018-04-05T08:42:50Z</time>
      </trkpt>
      <trkpt lat="45.9338" lon="4.72483">
        <ele>173</ele>
        <time>2018-04-05T08:42:51Z</time>
      </trkpt>
      <trkpt lat="45.93384" lon="4.72479">
        <ele>173</ele>
        <time>2018-04-05T08:42:52Z</time>
      </trkpt>
      <trkpt lat="45.93387" lon="4.72475">
        <ele>173</ele>
        <time>2018-04-05T08:42:53Z</time>
      </trkpt>
      <trkpt lat="45.93391" lon="4.72469">
        <ele>173</ele>
        <time>2018-04-05T08:42:54Z</time>
      </trkpt>
      <trkpt lat="45.93394" lon="4.72463">
        <ele>173</ele>
        <time>2018-04-05T08:42:55Z</time>
      </trkpt>
      <trkpt lat="45.93396" lon="4.72456">
        <ele>173</ele>
        <time>2018-04-05T08:42:56Z</time>
      </trkpt>
      <trkpt lat="45.93398" lon="4.72449">
        <ele>173</ele>
        <time>2018-04-05T08:42:57Z</time>
      </trkpt>
      <trkpt lat="45.934" lon="4.72443">
        <ele>173</ele>
        <time>2018-04-05T08:42:58Z</time>
      </trkpt>
      <trkpt lat="45.93402" lon="4.72437">
        <ele>173</ele>
        <time>2018-04-05T08:42:59Z</time>
      </trkpt>
      <trkpt lat="45.93405" lon="4.72432">
        <ele>173</ele>
        <time>2018-04-05T08:43:00Z</time>
      </trkpt>
      <trkpt lat="45.93408" lon="4.72427">
        <ele>174</ele>
        <time>2018-04-05T08:43:01Z</time>
      </trkpt>
      <trkpt lat="45.93411" lon="4.72421">
        <ele>174</ele>
        <time>2018-04-05T08:43:02Z</time>
      </trkpt>
      <trkpt lat="45.93415" lon="4.72417">
        <ele>174</ele>
        <time>2018-04-05T08:43:03Z</time>
      </trkpt>
      <trkpt lat="45.9342" lon="4.72415">
        <ele>174</ele>
        <time>2018-04-05T08:43:04Z</time>
      </trkpt>
      <trkpt lat="45.93424" lon="4.72413">
        <ele>174</ele>
        <time>2018-04-05T08:43:05Z</time>
      </trkpt>
      <trkpt lat="45.93429" lon="4.7241">
        <ele>174</ele>
        <time>2018-04-05T08:43:06Z</time>
      </trkpt>
      <trkpt lat="45.93433" lon="4.72408">
        <ele>174</ele>
        <time>2018-04-05T08:43:07Z</time>
      </trkpt>
      <trkpt lat="45.93438" lon="4.72406">
        <ele>174</ele>
        <time>2018-04-05T08:43:08Z</time>
      </trkpt>
      <trkpt lat="45.93442" lon="4.72402">
        <ele>173</ele>
        <time>2018-04-05T08:43:09Z</time>
      </trkpt>
      <trkpt lat="45.93447" lon="4.72399">
        <ele>173</ele>
        <time>2018-04-05T08:43:10Z</time>
      </trkpt>
      <trkpt lat="45.93452" lon="4.72396">
        <ele>173</ele>
        <time>2018-04-05T08:43:11Z</time>
      </trkpt>
      <trkpt lat="45.93457" lon="4.72391">
        <ele>173</ele>
        <time>2018-04-05T08:43:12Z</time>
      </trkpt>
      <trkpt lat="45.93462" lon="4.72386">
        <ele>173</ele>
        <time>2018-04-05T08:43:13Z</time>
      </trkpt>
      <trkpt lat="45.93466" lon="4.7238">
        <ele>173</ele>
        <time>2018-04-05T08:43:14Z</time>
      </trkpt>
      <trkpt lat="45.93471" lon="4.72374">
        <ele>173</ele>
        <time>2018-04-05T08:43:15Z</time>
      </trkpt>
      <trkpt lat="45.93477" lon="4.72368">
        <ele>173</ele>
        <time>2018-04-05T08:43:16Z</time>
      </trkpt>
      <trkpt lat="45.93482" lon="4.72363">
        <ele>173</ele>
        <time>2018-04-05T08:43:17Z</time>
      </trkpt>
      <trkpt lat="45.93486" lon="4.72357">
        <ele>173</ele>
        <time>2018-04-05T08:43:18Z</time>
      </trkpt>
      <trkpt lat="45.9349" lon="4.72351">
        <ele>173</ele>
        <time>2018-04-05T08:43:19Z</time>
      </trkpt>
      <trkpt lat="45.93493" lon="4.72344">
        <ele>173</ele>
        <time>2018-04-05T08:43:20Z</time>
      </trkpt>
      <trkpt lat="45.93498" lon="4.72338">
        <ele>173</ele>
        <time>2018-04-05T08:43:21Z</time>
      </trkpt>
      <trkpt lat="45.93502" lon="4.72331">
        <ele>173</ele>
        <time>2018-04-05T08:43:22Z</time>
      </trkpt>
      <trkpt lat="45.93505" lon="4.72326">
        <ele>173</ele>
        <time>2018-04-05T08:43:23Z</time>
      </trkpt>
      <trkpt lat="45.9351" lon="4.72319">
        <ele>173</ele>
        <time>2018-04-05T08:43:24Z</time>
      </trkpt>
      <trkpt lat="45.93514" lon="4.72313">
        <ele>173</ele>
        <time>2018-04-05T08:43:25Z</time>
      </trkpt>
      <trkpt lat="45.93517" lon="4.72307">
        <ele>173</ele>
        <time>2018-04-05T08:43:26Z</time>
      </trkpt>
      <trkpt lat="45.9352" lon="4.72302">
        <ele>172</ele>
        <time>2018-04-05T08:43:27Z</time>
      </trkpt>
      <trkpt lat="45.93523" lon="4.72297">
        <ele>172</ele>
        <time>2018-04-05T08:43:28Z</time>
      </trkpt>
      <trkpt lat="45.93526" lon="4.7229">
        <ele>172</ele>
        <time>2018-04-05T08:43:29Z</time>
      </trkpt>
      <trkpt lat="45.93528" lon="4.72284">
        <ele>172</ele>
        <time>2018-04-05T08:43:30Z</time>
      </trkpt>
      <trkpt lat="45.9353" lon="4.72276">
        <ele>172</ele>
        <time>2018-04-05T08:43:31Z</time>
      </trkpt>
      <trkpt lat="45.93533" lon="4.72269">
        <ele>172</ele>
        <time>2018-04-05T08:43:32Z</time>
      </trkpt>
      <trkpt lat="45.93536" lon="4.72263">
        <ele>172</ele>
        <time>2018-04-05T08:43:33Z</time>
      </trkpt>
      <trkpt lat="45.93539" lon="4.72257">
        <ele>172</ele>
        <time>2018-04-05T08:43:34Z</time>
      </trkpt>
      <trkpt lat="45.93542" lon="4.72251">
        <ele>172</ele>
        <time>2018-04-05T08:43:35Z</time>
      </trkpt>
      <trkpt lat="45.93545" lon="4.72243">
        <ele>172</ele>
        <time>2018-04-05T08:43:36Z</time>
      </trkpt>
      <trkpt lat="45.93547" lon="4.72237">
        <ele>172</ele>
        <time>2018-04-05T08:43:37Z</time>
      </trkpt>
      <trkpt lat="45.93551" lon="4.72231">
        <ele>172</ele>
        <time>2018-04-05T08:43:38Z</time>
      </trkpt>
      <trkpt lat="45.93556" lon="4.72226">
        <ele>173</ele>
        <time>2018-04-05T08:43:39Z</time>
      </trkpt>
      <trkpt lat="45.93561" lon="4.72224">
        <ele>173</ele>
        <time>2018-04-05T08:43:40Z</time>
      </trkpt>
      <trkpt lat="45.93566" lon="4.72226">
        <ele>173</ele>
        <time>2018-04-05T08:43:41Z</time>
      </trkpt>
      <trkpt lat="45.93571" lon="4.72231">
        <ele>173</ele>
        <time>2018-04-05T08:43:42Z</time>
      </trkpt>
      <trkpt lat="45.93576" lon="4.72235">
        <ele>173</ele>
        <time>2018-04-05T08:43:43Z</time>
      </trkpt>
      <trkpt lat="45.9358" lon="4.72241">
        <ele>173</ele>
        <time>2018-04-05T08:43:44Z</time>
      </trkpt>
      <trkpt lat="45.93584" lon="4.72247">
        <ele>173</ele>
        <time>2018-04-05T08:43:45Z</time>
      </trkpt>
      <trkpt lat="45.93589" lon="4.72252">
        <ele>173</ele>
        <time>2018-04-05T08:43:46Z</time>
      </trkpt>
      <trkpt lat="45.93593" lon="4.72257">
        <ele>173</ele>
        <time>2018-04-05T08:43:47Z</time>
      </trkpt>
      <trkpt lat="45.93598" lon="4.72262">
        <ele>173</ele>
        <time>2018-04-05T08:43:48Z</time>
      </trkpt>
      <trkpt lat="45.93603" lon="4.72268">
        <ele>173</ele>
        <time>2018-04-05T08:43:49Z</time>
      </trkpt>
      <trkpt lat="45.93608" lon="4.72273">
        <ele>172</ele>
        <time>2018-04-05T08:43:50Z</time>
      </trkpt>
      <trkpt lat="45.93613" lon="4.72278">
        <ele>172</ele>
        <time>2018-04-05T08:43:51Z</time>
      </trkpt>
      <trkpt lat="45.93617" lon="4.72284">
        <ele>172</ele>
        <time>2018-04-05T08:43:52Z</time>
      </trkpt>
      <trkpt lat="45.93622" lon="4.72289">
        <ele>172</ele>
        <time>2018-04-05T08:43:53Z</time>
      </trkpt>
      <trkpt lat="45.93627" lon="4.72294">
        <ele>172</ele>
        <time>2018-04-05T08:43:54Z</time>
      </trkpt>
      <trkpt lat="45.93632" lon="4.72298">
        <ele>172</ele>
        <time>2018-04-05T08:43:55Z</time>
      </trkpt>
      <trkpt lat="45.93637" lon="4.72303">
        <ele>172</ele>
        <time>2018-04-05T08:43:56Z</time>
      </trkpt>
      <trkpt lat="45.93643" lon="4.72308">
        <ele>172</ele>
        <time>2018-04-05T08:43:57Z</time>
      </trkpt>
      <trkpt lat="45.93648" lon="4.72311">
        <ele>172</ele>
        <time>2018-04-05T08:43:58Z</time>
      </trkpt>
      <trkpt lat="45.93652" lon="4.72316">
        <ele>172</ele>
        <time>2018-04-05T08:43:59Z</time>
      </trkpt>
      <trkpt lat="45.93657" lon="4.72321">
        <ele>172</ele>
        <time>2018-04-05T08:44:00Z</time>
      </trkpt>
      <trkpt lat="45.93663" lon="4.72325">
        <ele>171</ele>
        <time>2018-04-05T08:44:01Z</time>
      </trkpt>
      <trkpt lat="45.93668" lon="4.72329">
        <ele>171</ele>
        <time>2018-04-05T08:44:02Z</time>
      </trkpt>
      <trkpt lat="45.93672" lon="4.72334">
        <ele>171</ele>
        <time>2018-04-05T08:44:03Z</time>
      </trkpt>
      <trkpt lat="45.93676" lon="4.7234">
        <ele>171</ele>
        <time>2018-04-05T08:44:04Z</time>
      </trkpt>
      <trkpt lat="45.9368" lon="4.72344">
        <ele>171</ele>
        <time>2018-04-05T08:44:05Z</time>
      </trkpt>
      <trkpt lat="45.93685" lon="4.72349">
        <ele>171</ele>
        <time>2018-04-05T08:44:06Z</time>
      </trkpt>
      <trkpt lat="45.9369" lon="4.72353">
        <ele>171</ele>
        <time>2018-04-05T08:44:07Z</time>
      </trkpt>
      <trkpt lat="45.93705" lon="4.72368">
        <ele>171</ele>
        <time>2018-04-05T08:44:10Z</time>
      </trkpt>
      <trkpt lat="45.93711" lon="4.72373">
        <ele>172</ele>
        <time>2018-04-05T08:44:11Z</time>
      </trkpt>
      <trkpt lat="45.93716" lon="4.72377">
        <ele>171</ele>
        <time>2018-04-05T08:44:12Z</time>
      </trkpt>
      <trkpt lat="45.93721" lon="4.72382">
        <ele>171</ele>
        <time>2018-04-05T08:44:13Z</time>
      </trkpt>
      <trkpt lat="45.93726" lon="4.72386">
        <ele>171</ele>
        <time>2018-04-05T08:44:14Z</time>
      </trkpt>
      <trkpt lat="45.93731" lon="4.72391">
        <ele>171</ele>
        <time>2018-04-05T08:44:15Z</time>
      </trkpt>
      <trkpt lat="45.93736" lon="4.72395">
        <ele>171</ele>
        <time>2018-04-05T08:44:16Z</time>
      </trkpt>
      <trkpt lat="45.93741" lon="4.724">
        <ele>171</ele>
        <time>2018-04-05T08:44:17Z</time>
      </trkpt>
      <trkpt lat="45.93747" lon="4.72405">
        <ele>171</ele>
        <time>2018-04-05T08:44:18Z</time>
      </trkpt>
      <trkpt lat="45.93752" lon="4.7241">
        <ele>171</ele>
        <time>2018-04-05T08:44:19Z</time>
      </trkpt>
      <trkpt lat="45.93757" lon="4.72414">
        <ele>171</ele>
        <time>2018-04-05T08:44:20Z</time>
      </trkpt>
      <trkpt lat="45.93763" lon="4.7242">
        <ele>171</ele>
        <time>2018-04-05T08:44:21Z</time>
      </trkpt>
      <trkpt lat="45.93767" lon="4.72424">
        <ele>171</ele>
        <time>2018-04-05T08:44:22Z</time>
      </trkpt>
      <trkpt lat="45.93773" lon="4.7243">
        <ele>171</ele>
        <time>2018-04-05T08:44:23Z</time>
      </trkpt>
      <trkpt lat="45.93779" lon="4.72436">
        <ele>172</ele>
        <time>2018-04-05T08:44:24Z</time>
      </trkpt>
      <trkpt lat="45.93784" lon="4.72441">
        <ele>172</ele>
        <time>2018-04-05T08:44:25Z</time>
      </trkpt>
      <trkpt lat="45.93789" lon="4.72447">
        <ele>172</ele>
        <time>2018-04-05T08:44:26Z</time>
      </trkpt>
      <trkpt lat="45.93793" lon="4.72452">
        <ele>172</ele>
        <time>2018-04-05T08:44:27Z</time>
      </trkpt>
      <trkpt lat="45.93799" lon="4.72457">
        <ele>172</ele>
        <time>2018-04-05T08:44:28Z</time>
      </trkpt>
      <trkpt lat="45.93805" lon="4.72463">
        <ele>172</ele>
        <time>2018-04-05T08:44:29Z</time>
      </trkpt>
      <trkpt lat="45.93812" lon="4.72468">
        <ele>172</ele>
        <time>2018-04-05T08:44:30Z</time>
      </trkpt>
      <trkpt lat="45.93818" lon="4.72474">
        <ele>172</ele>
        <time>2018-04-05T08:44:31Z</time>
      </trkpt>
      <trkpt lat="45.93823" lon="4.7248">
        <ele>173</ele>
        <time>2018-04-05T08:44:32Z</time>
      </trkpt>
      <trkpt lat="45.93829" lon="4.72485">
        <ele>173</ele>
        <time>2018-04-05T08:44:33Z</time>
      </trkpt>
      <trkpt lat="45.93859" lon="4.72523">
        <ele>173</ele>
        <time>2018-04-05T08:44:39Z</time>
      </trkpt>
      <trkpt lat="45.93868" lon="4.72521">
        <ele>173</ele>
        <time>2018-04-05T08:44:40Z</time>
      </trkpt>
      <trkpt lat="45.93874" lon="4.7252">
        <ele>173</ele>
        <time>2018-04-05T08:44:41Z</time>
      </trkpt>
      <trkpt lat="45.93879" lon="4.72518">
        <ele>173</ele>
        <time>2018-04-05T08:44:42Z</time>
      </trkpt>
      <trkpt lat="45.93885" lon="4.72512">
        <ele>173</ele>
        <time>2018-04-05T08:44:43Z</time>
      </trkpt>
      <trkpt lat="45.93889" lon="4.72506">
        <ele>173</ele>
        <time>2018-04-05T08:44:44Z</time>
      </trkpt>
      <trkpt lat="45.93893" lon="4.72502">
        <ele>172</ele>
        <time>2018-04-05T08:44:45Z</time>
      </trkpt>
      <trkpt lat="45.93897" lon="4.72496">
        <ele>172</ele>
        <time>2018-04-05T08:44:46Z</time>
      </trkpt>
      <trkpt lat="45.93902" lon="4.72491">
        <ele>172</ele>
        <time>2018-04-05T08:44:47Z</time>
      </trkpt>
      <trkpt lat="45.93906" lon="4.72485">
        <ele>172</ele>
        <time>2018-04-05T08:44:48Z</time>
      </trkpt>
      <trkpt lat="45.93911" lon="4.7248">
        <ele>172</ele>
        <time>2018-04-05T08:44:49Z</time>
      </trkpt>
      <trkpt lat="45.93915" lon="4.72474">
        <ele>172</ele>
        <time>2018-04-05T08:44:50Z</time>
      </trkpt>
      <trkpt lat="45.9392" lon="4.72468">
        <ele>171</ele>
        <time>2018-04-05T08:44:51Z</time>
      </trkpt>
      <trkpt lat="45.93924" lon="4.72463">
        <ele>171</ele>
        <time>2018-04-05T08:44:52Z</time>
      </trkpt>
      <trkpt lat="45.93929" lon="4.72457">
        <ele>171</ele>
        <time>2018-04-05T08:44:53Z</time>
      </trkpt>
      <trkpt lat="45.93934" lon="4.72451">
        <ele>171</ele>
        <time>2018-04-05T08:44:54Z</time>
      </trkpt>
      <trkpt lat="45.93939" lon="4.72445">
        <ele>171</ele>
        <time>2018-04-05T08:44:55Z</time>
      </trkpt>
      <trkpt lat="45.93944" lon="4.72439">
        <ele>171</ele>
        <time>2018-04-05T08:44:56Z</time>
      </trkpt>
      <trkpt lat="45.93948" lon="4.72433">
        <ele>171</ele>
        <time>2018-04-05T08:44:57Z</time>
      </trkpt>
      <trkpt lat="45.93953" lon="4.72426">
        <ele>171</ele>
        <time>2018-04-05T08:44:58Z</time>
      </trkpt>
      <trkpt lat="45.93957" lon="4.7242">
        <ele>171</ele>
        <time>2018-04-05T08:44:59Z</time>
      </trkpt>
      <trkpt lat="45.93963" lon="4.72413">
        <ele>171</ele>
        <time>2018-04-05T08:45:00Z</time>
      </trkpt>
      <trkpt lat="45.93968" lon="4.72408">
        <ele>171</ele>
        <time>2018-04-05T08:45:01Z</time>
      </trkpt>
      <trkpt lat="45.93973" lon="4.72402">
        <ele>171</ele>
        <time>2018-04-05T08:45:02Z</time>
      </trkpt>
      <trkpt lat="45.93978" lon="4.72396">
        <ele>171</ele>
        <time>2018-04-05T08:45:03Z</time>
      </trkpt>
      <trkpt lat="45.93983" lon="4.72389">
        <ele>171</ele>
        <time>2018-04-05T08:45:04Z</time>
      </trkpt>
      <trkpt lat="45.93988" lon="4.72383">
        <ele>171</ele>
        <time>2018-04-05T08:45:05Z</time>
      </trkpt>
      <trkpt lat="45.93993" lon="4.72376">
        <ele>171</ele>
        <time>2018-04-05T08:45:06Z</time>
      </trkpt>
      <trkpt lat="45.93998" lon="4.7237">
        <ele>171</ele>
        <time>2018-04-05T08:45:07Z</time>
      </trkpt>
      <trkpt lat="45.94003" lon="4.72363">
        <ele>171</ele>
        <time>2018-04-05T08:45:08Z</time>
      </trkpt>
      <trkpt lat="45.94008" lon="4.72358">
        <ele>171</ele>
        <time>2018-04-05T08:45:09Z</time>
      </trkpt>
      <trkpt lat="45.94012" lon="4.72353">
        <ele>171</ele>
        <time>2018-04-05T08:45:10Z</time>
      </trkpt>
      <trkpt lat="45.94017" lon="4.72347">
        <ele>171</ele>
        <time>2018-04-05T08:45:11Z</time>
      </trkpt>
      <trkpt lat="45.94022" lon="4.72341">
        <ele>171</ele>
        <time>2018-04-05T08:45:12Z</time>
      </trkpt>
      <trkpt lat="45.94027" lon="4.72334">
        <ele>171</ele>
        <time>2018-04-05T08:45:13Z</time>
      </trkpt>
      <trkpt lat="45.94031" lon="4.72328">
        <ele>171</ele>
        <time>2018-04-05T08:45:14Z</time>
      </trkpt>
      <trkpt lat="45.94036" lon="4.72322">
        <ele>171</ele>
        <time>2018-04-05T08:45:15Z</time>
      </trkpt>
      <trkpt lat="45.94041" lon="4.72317">
        <ele>171</ele>
        <time>2018-04-05T08:45:16Z</time>
      </trkpt>
      <trkpt lat="45.94046" lon="4.72312">
        <ele>171</ele>
        <time>2018-04-05T08:45:17Z</time>
      </trkpt>
      <trkpt lat="45.9405" lon="4.72307">
        <ele>171</ele>
        <time>2018-04-05T08:45:18Z</time>
      </trkpt>
      <trkpt lat="45.94054" lon="4.72302">
        <ele>171</ele>
        <time>2018-04-05T08:45:19Z</time>
      </trkpt>
      <trkpt lat="45.94058" lon="4.72296">
        <ele>171</ele>
        <time>2018-04-05T08:45:20Z</time>
      </trkpt>
      <trkpt lat="45.94062" lon="4.7229">
        <ele>171</ele>
        <time>2018-04-05T08:45:21Z</time>
      </trkpt>
      <trkpt lat="45.94067" lon="4.72285">
        <ele>171</ele>
        <time>2018-04-05T08:45:22Z</time>
      </trkpt>
      <trkpt lat="45.94072" lon="4.72281">
        <ele>171</ele>
        <time>2018-04-05T08:45:23Z</time>
      </trkpt>
      <trkpt lat="45.94077" lon="4.72276">
        <ele>171</ele>
        <time>2018-04-05T08:45:24Z</time>
      </trkpt>
      <trkpt lat="45.94081" lon="4.72273">
        <ele>171</ele>
        <time>2018-04-05T08:45:25Z</time>
      </trkpt>
      <trkpt lat="45.94085" lon="4.7227">
        <ele>171</ele>
        <time>2018-04-05T08:45:26Z</time>
      </trkpt>
      <trkpt lat="45.94091" lon="4.72268">
        <ele>171</ele>
        <time>2018-04-05T08:45:27Z</time>
      </trkpt>
      <trkpt lat="45.94097" lon="4.72267">
        <ele>171</ele>
        <time>2018-04-05T08:45:28Z</time>
      </trkpt>
      <trkpt lat="45.94105" lon="4.72269">
        <ele>171</ele>
        <time>2018-04-05T08:45:30Z</time>
      </trkpt>
      <trkpt lat="45.94111" lon="4.72269">
        <ele>171</ele>
        <time>2018-04-05T08:45:31Z</time>
      </trkpt>
      <trkpt lat="45.94117" lon="4.72271">
        <ele>171</ele>
        <time>2018-04-05T08:45:32Z</time>
      </trkpt>
      <trkpt lat="45.94122" lon="4.72273">
        <ele>171</ele>
        <time>2018-04-05T08:45:33Z</time>
      </trkpt>
      <trkpt lat="45.94128" lon="4.72275">
        <ele>171</ele>
        <time>2018-04-05T08:45:34Z</time>
      </trkpt>
      <trkpt lat="45.94133" lon="4.72279">
        <ele>171</ele>
        <time>2018-04-05T08:45:35Z</time>
      </trkpt>
      <trkpt lat="45.94138" lon="4.72282">
        <ele>171</ele>
        <time>2018-04-05T08:45:36Z</time>
      </trkpt>
      <trkpt lat="45.94144" lon="4.72285">
        <ele>171</ele>
        <time>2018-04-05T08:45:37Z</time>
      </trkpt>
      <trkpt lat="45.94149" lon="4.72287">
        <ele>171</ele>
        <time>2018-04-05T08:45:38Z</time>
      </trkpt>
      <trkpt lat="45.94155" lon="4.72288">
        <ele>171</ele>
        <time>2018-04-05T08:45:39Z</time>
      </trkpt>
      <trkpt lat="45.94161" lon="4.72289">
        <ele>171</ele>
        <time>2018-04-05T08:45:40Z</time>
      </trkpt>
      <trkpt lat="45.94167" lon="4.7229">
        <ele>171</ele>
        <time>2018-04-05T08:45:41Z</time>
      </trkpt>
      <trkpt lat="45.94173" lon="4.72291">
        <ele>171</ele>
        <time>2018-04-05T08:45:42Z</time>
      </trkpt>
      <trkpt lat="45.94179" lon="4.7229">
        <ele>171</ele>
        <time>2018-04-05T08:45:43Z</time>
      </trkpt>
      <trkpt lat="45.94185" lon="4.7229">
        <ele>171</ele>
        <time>2018-04-05T08:45:44Z</time>
      </trkpt>
      <trkpt lat="45.9419" lon="4.72291">
        <ele>171</ele>
        <time>2018-04-05T08:45:45Z</time>
      </trkpt>
      <trkpt lat="45.94196" lon="4.72291">
        <ele>171</ele>
        <time>2018-04-05T08:45:46Z</time>
      </trkpt>
      <trkpt lat="45.94201" lon="4.7229">
        <ele>171</ele>
        <time>2018-04-05T08:45:47Z</time>
      </trkpt>
      <trkpt lat="45.94207" lon="4.72289">
        <ele>171</ele>
        <time>2018-04-05T08:45:48Z</time>
      </trkpt>
      <trkpt lat="45.94212" lon="4.7229">
        <ele>171</ele>
        <time>2018-04-05T08:45:49Z</time>
      </trkpt>
      <trkpt lat="45.94217" lon="4.72289">
        <ele>171</ele>
        <time>2018-04-05T08:45:50Z</time>
      </trkpt>
      <trkpt lat="45.94223" lon="4.72288">
        <ele>171</ele>
        <time>2018-04-05T08:45:51Z</time>
      </trkpt>
      <trkpt lat="45.94229" lon="4.72286">
        <ele>171</ele>
        <time>2018-04-05T08:45:52Z</time>
      </trkpt>
      <trkpt lat="45.94234" lon="4.72285">
        <ele>171</ele>
        <time>2018-04-05T08:45:53Z</time>
      </trkpt>
      <trkpt lat="45.94239" lon="4.72284">
        <ele>171</ele>
        <time>2018-04-05T08:45:54Z</time>
      </trkpt>
      <trkpt lat="45.94244" lon="4.72281">
        <ele>171</ele>
        <time>2018-04-05T08:45:55Z</time>
      </trkpt>
      <trkpt lat="45.94249" lon="4.7228">
        <ele>171</ele>
        <time>2018-04-05T08:45:56Z</time>
      </trkpt>
      <trkpt lat="45.94253" lon="4.72279">
        <ele>171</ele>
        <time>2018-04-05T08:45:57Z</time>
      </trkpt>
      <trkpt lat="45.94258" lon="4.72277">
        <ele>171</ele>
        <time>2018-04-05T08:45:58Z</time>
      </trkpt>
      <trkpt lat="45.94263" lon="4.72274">
        <ele>171</ele>
        <time>2018-04-05T08:45:59Z</time>
      </trkpt>
      <trkpt lat="45.94271" lon="4.72273">
        <ele>171</ele>
        <time>2018-04-05T08:46:03Z</time>
      </trkpt>
      <trkpt lat="45.94272" lon="4.72273">
        <ele>171</ele>
        <time>2018-04-05T08:46:04Z</time>
      </trkpt>
      <trkpt lat="45.94278" lon="4.72278">
        <ele>171</ele>
        <time>2018-04-05T08:46:07Z</time>
      </trkpt>
      <trkpt lat="45.94283" lon="4.72287">
        <ele>171</ele>
        <time>2018-04-05T08:46:08Z</time>
      </trkpt>
      <trkpt lat="45.94286" lon="4.72296">
        <ele>171</ele>
        <time>2018-04-05T08:46:10Z</time>
      </trkpt>
      <trkpt lat="45.94289" lon="4.72302">
        <ele>171</ele>
        <time>2018-04-05T08:46:11Z</time>
      </trkpt>
      <trkpt lat="45.94293" lon="4.72312">
        <ele>171</ele>
        <time>2018-04-05T08:46:13Z</time>
      </trkpt>
      <trkpt lat="45.94295" lon="4.72317">
        <ele>171</ele>
        <time>2018-04-05T08:46:14Z</time>
      </trkpt>
      <trkpt lat="45.94297" lon="4.72323">
        <ele>171</ele>
        <time>2018-04-05T08:46:15Z</time>
      </trkpt>
      <trkpt lat="45.94299" lon="4.72329">
        <ele>171</ele>
        <time>2018-04-05T08:46:16Z</time>
      </trkpt>
      <trkpt lat="45.94302" lon="4.72335">
        <ele>172</ele>
        <time>2018-04-05T08:46:17Z</time>
      </trkpt>
      <trkpt lat="45.94305" lon="4.7234">
        <ele>172</ele>
        <time>2018-04-05T08:46:18Z</time>
      </trkpt>
      <trkpt lat="45.94307" lon="4.72346">
        <ele>172</ele>
        <time>2018-04-05T08:46:19Z</time>
      </trkpt>
      <trkpt lat="45.9431" lon="4.72351">
        <ele>172</ele>
        <time>2018-04-05T08:46:20Z</time>
      </trkpt>
      <trkpt lat="45.94313" lon="4.72358">
        <ele>172</ele>
        <time>2018-04-05T08:46:21Z</time>
      </trkpt>
      <trkpt lat="45.94316" lon="4.72364">
        <ele>172</ele>
        <time>2018-04-05T08:46:22Z</time>
      </trkpt>
      <trkpt lat="45.94319" lon="4.72371">
        <ele>172</ele>
        <time>2018-04-05T08:46:23Z</time>
      </trkpt>
      <trkpt lat="45.94321" lon="4.72377">
        <ele>172</ele>
        <time>2018-04-05T08:46:24Z</time>
      </trkpt>
      <trkpt lat="45.94324" lon="4.72385">
        <ele>172</ele>
        <time>2018-04-05T08:46:25Z</time>
      </trkpt>
      <trkpt lat="45.94327" lon="4.72391">
        <ele>172</ele>
        <time>2018-04-05T08:46:26Z</time>
      </trkpt>
      <trkpt lat="45.9433" lon="4.72398">
        <ele>172</ele>
        <time>2018-04-05T08:46:27Z</time>
      </trkpt>
      <trkpt lat="45.94333" lon="4.72405">
        <ele>173</ele>
        <time>2018-04-05T08:46:28Z</time>
      </trkpt>
      <trkpt lat="45.94336" lon="4.72412">
        <ele>173</ele>
        <time>2018-04-05T08:46:29Z</time>
      </trkpt>
      <trkpt lat="45.94339" lon="4.72419">
        <ele>173</ele>
        <time>2018-04-05T08:46:30Z</time>
      </trkpt>
      <trkpt lat="45.94342" lon="4.72426">
        <ele>173</ele>
        <time>2018-04-05T08:46:31Z</time>
      </trkpt>
      <trkpt lat="45.94346" lon="4.72432">
        <ele>173</ele>
        <time>2018-04-05T08:46:32Z</time>
      </trkpt>
      <trkpt lat="45.94349" lon="4.7244">
        <ele>173</ele>
        <time>2018-04-05T08:46:33Z</time>
      </trkpt>
      <trkpt lat="45.94352" lon="4.72446">
        <ele>173</ele>
        <time>2018-04-05T08:46:34Z</time>
      </trkpt>
      <trkpt lat="45.94354" lon="4.72454">
        <ele>173</ele>
        <time>2018-04-05T08:46:35Z</time>
      </trkpt>
      <trkpt lat="45.94357" lon="4.72461">
        <ele>173</ele>
        <time>2018-04-05T08:46:36Z</time>
      </trkpt>
      <trkpt lat="45.9436" lon="4.72468">
        <ele>173</ele>
        <time>2018-04-05T08:46:37Z</time>
      </trkpt>
      <trkpt lat="45.94363" lon="4.72476">
        <ele>173</ele>
        <time>2018-04-05T08:46:38Z</time>
      </trkpt>
      <trkpt lat="45.94365" lon="4.72483">
        <ele>173</ele>
        <time>2018-04-05T08:46:39Z</time>
      </trkpt>
      <trkpt lat="45.94367" lon="4.72491">
        <ele>173</ele>
        <time>2018-04-05T08:46:40Z</time>
      </trkpt>
      <trkpt lat="45.9437" lon="4.72499">
        <ele>173</ele>
        <time>2018-04-05T08:46:41Z</time>
      </trkpt>
      <trkpt lat="45.94372" lon="4.72505">
        <ele>173</ele>
        <time>2018-04-05T08:46:42Z</time>
      </trkpt>
      <trkpt lat="45.94375" lon="4.72514">
        <ele>174</ele>
        <time>2018-04-05T08:46:43Z</time>
      </trkpt>
      <trkpt lat="45.94378" lon="4.72521">
        <ele>174</ele>
        <time>2018-04-05T08:46:44Z</time>
      </trkpt>
      <trkpt lat="45.9438" lon="4.72528">
        <ele>174</ele>
        <time>2018-04-05T08:46:45Z</time>
      </trkpt>
      <trkpt lat="45.94383" lon="4.72535">
        <ele>174</ele>
        <time>2018-04-05T08:46:46Z</time>
      </trkpt>
      <trkpt lat="45.94384" lon="4.72543">
        <ele>173</ele>
        <time>2018-04-05T08:46:47Z</time>
      </trkpt>
      <trkpt lat="45.94386" lon="4.72551">
        <ele>173</ele>
        <time>2018-04-05T08:46:48Z</time>
      </trkpt>
      <trkpt lat="45.94387" lon="4.72559">
        <ele>173</ele>
        <time>2018-04-05T08:46:49Z</time>
      </trkpt>
      <trkpt lat="45.9439" lon="4.72568">
        <ele>173</ele>
        <time>2018-04-05T08:46:50Z</time>
      </trkpt>
      <trkpt lat="45.94391" lon="4.72576">
        <ele>173</ele>
        <time>2018-04-05T08:46:51Z</time>
      </trkpt>
      <trkpt lat="45.94393" lon="4.72585">
        <ele>173</ele>
        <time>2018-04-05T08:46:52Z</time>
      </trkpt>
      <trkpt lat="45.94393" lon="4.72594">
        <ele>173</ele>
        <time>2018-04-05T08:46:53Z</time>
      </trkpt>
      <trkpt lat="45.94395" lon="4.72603">
        <ele>173</ele>
        <time>2018-04-05T08:46:54Z</time>
      </trkpt>
      <trkpt lat="45.94397" lon="4.72612">
        <ele>173</ele>
        <time>2018-04-05T08:46:55Z</time>
      </trkpt>
      <trkpt lat="45.94398" lon="4.72621">
        <ele>173</ele>
        <time>2018-04-05T08:46:56Z</time>
      </trkpt>
      <trkpt lat="45.94399" lon="4.72629">
        <ele>174</ele>
        <time>2018-04-05T08:46:57Z</time>
      </trkpt>
      <trkpt lat="45.944" lon="4.72637">
        <ele>174</ele>
        <time>2018-04-05T08:46:58Z</time>
      </trkpt>
      <trkpt lat="45.94402" lon="4.72645">
        <ele>174</ele>
        <time>2018-04-05T08:46:59Z</time>
      </trkpt>
      <trkpt lat="45.94403" lon="4.72654">
        <ele>174</ele>
        <time>2018-04-05T08:47:00Z</time>
      </trkpt>
      <trkpt lat="45.94404" lon="4.72663">
        <ele>174</ele>
        <time>2018-04-05T08:47:01Z</time>
      </trkpt>
      <trkpt lat="45.94405" lon="4.72671">
        <ele>173</ele>
        <time>2018-04-05T08:47:02Z</time>
      </trkpt>
      <trkpt lat="45.94406" lon="4.72679">
        <ele>173</ele>
        <time>2018-04-05T08:47:03Z</time>
      </trkpt>
      <trkpt lat="45.94406" lon="4.72687">
        <ele>173</ele>
        <time>2018-04-05T08:47:04Z</time>
      </trkpt>
      <trkpt lat="45.94408" lon="4.72696">
        <ele>173</ele>
        <time>2018-04-05T08:47:05Z</time>
      </trkpt>
      <trkpt lat="45.94409" lon="4.72705">
        <ele>172</ele>
        <time>2018-04-05T08:47:06Z</time>
      </trkpt>
      <trkpt lat="45.9441" lon="4.72712">
        <ele>172</ele>
        <time>2018-04-05T08:47:07Z</time>
      </trkpt>
      <trkpt lat="45.94411" lon="4.72721">
        <ele>172</ele>
        <time>2018-04-05T08:47:08Z</time>
      </trkpt>
      <trkpt lat="45.94412" lon="4.72729">
        <ele>172</ele>
        <time>2018-04-05T08:47:09Z</time>
      </trkpt>
      <trkpt lat="45.94414" lon="4.72737">
        <ele>171</ele>
        <time>2018-04-05T08:47:10Z</time>
      </trkpt>
      <trkpt lat="45.94415" lon="4.72745">
        <ele>171</ele>
        <time>2018-04-05T08:47:11Z</time>
      </trkpt>
      <trkpt lat="45.94416" lon="4.72754">
        <ele>171</ele>
        <time>2018-04-05T08:47:12Z</time>
      </trkpt>
      <trkpt lat="45.94417" lon="4.72761">
        <ele>170</ele>
        <time>2018-04-05T08:47:13Z</time>
      </trkpt>
      <trkpt lat="45.94418" lon="4.72769">
        <ele>169</ele>
        <time>2018-04-05T08:47:14Z</time>
      </trkpt>
      <trkpt lat="45.9442" lon="4.72777">
        <ele>168</ele>
        <time>2018-04-05T08:47:15Z</time>
      </trkpt>
      <trkpt lat="45.9442" lon="4.72784">
        <ele>168</ele>
        <time>2018-04-05T08:47:16Z</time>
      </trkpt>
      <trkpt lat="45.94422" lon="4.72791">
        <ele>168</ele>
        <time>2018-04-05T08:47:17Z</time>
      </trkpt>
      <trkpt lat="45.94424" lon="4.728">
        <ele>167</ele>
        <time>2018-04-05T08:47:18Z</time>
      </trkpt>
      <trkpt lat="45.94425" lon="4.72808">
        <ele>167</ele>
        <time>2018-04-05T08:47:19Z</time>
      </trkpt>
      <trkpt lat="45.94426" lon="4.72815">
        <ele>167</ele>
        <time>2018-04-05T08:47:20Z</time>
      </trkpt>
      <trkpt lat="45.94426" lon="4.72823">
        <ele>167</ele>
        <time>2018-04-05T08:47:21Z</time>
      </trkpt>
      <trkpt lat="45.94427" lon="4.72829">
        <ele>167</ele>
        <time>2018-04-05T08:47:22Z</time>
      </trkpt>
      <trkpt lat="45.94428" lon="4.72836">
        <ele>166</ele>
        <time>2018-04-05T08:47:23Z</time>
      </trkpt>
      <trkpt lat="45.94428" lon="4.72842">
        <ele>166</ele>
        <time>2018-04-05T08:47:24Z</time>
      </trkpt>
      <trkpt lat="45.9443" lon="4.72854">
        <ele>166</ele>
        <time>2018-04-05T08:47:26Z</time>
      </trkpt>
      <trkpt lat="45.94431" lon="4.72861">
        <ele>166</ele>
        <time>2018-04-05T08:47:27Z</time>
      </trkpt>
      <trkpt lat="45.94433" lon="4.72873">
        <ele>166</ele>
        <time>2018-04-05T08:47:29Z</time>
      </trkpt>
      <trkpt lat="45.94434" lon="4.72879">
        <ele>166</ele>
        <time>2018-04-05T08:47:30Z</time>
      </trkpt>
      <trkpt lat="45.94435" lon="4.72885">
        <ele>166</ele>
        <time>2018-04-05T08:47:31Z</time>
      </trkpt>
      <trkpt lat="45.94436" lon="4.72892">
        <ele>166</ele>
        <time>2018-04-05T08:47:32Z</time>
      </trkpt>
      <trkpt lat="45.94437" lon="4.72898">
        <ele>166</ele>
        <time>2018-04-05T08:47:33Z</time>
      </trkpt>
      <trkpt lat="45.94438" lon="4.72906">
        <ele>166</ele>
        <time>2018-04-05T08:47:34Z</time>
      </trkpt>
      <trkpt lat="45.94439" lon="4.72913">
        <ele>166</ele>
        <time>2018-04-05T08:47:35Z</time>
      </trkpt>
      <trkpt lat="45.9444" lon="4.7292">
        <ele>167</ele>
        <time>2018-04-05T08:47:36Z</time>
      </trkpt>
      <trkpt lat="45.94442" lon="4.72929">
        <ele>167</ele>
        <time>2018-04-05T08:47:37Z</time>
      </trkpt>
      <trkpt lat="45.94444" lon="4.72936">
        <ele>167</ele>
        <time>2018-04-05T08:47:38Z</time>
      </trkpt>
      <trkpt lat="45.94445" lon="4.72944">
        <ele>167</ele>
        <time>2018-04-05T08:47:39Z</time>
      </trkpt>
      <trkpt lat="45.94446" lon="4.72953">
        <ele>167</ele>
        <time>2018-04-05T08:47:40Z</time>
      </trkpt>
      <trkpt lat="45.94447" lon="4.72963">
        <ele>167</ele>
        <time>2018-04-05T08:47:41Z</time>
      </trkpt>
      <trkpt lat="45.94447" lon="4.72973">
        <ele>167</ele>
        <time>2018-04-05T08:47:42Z</time>
      </trkpt>
      <trkpt lat="45.94448" lon="4.72983">
        <ele>167</ele>
        <time>2018-04-05T08:47:43Z</time>
      </trkpt>
      <trkpt lat="45.9445" lon="4.72993">
        <ele>167</ele>
        <time>2018-04-05T08:47:44Z</time>
      </trkpt>
      <trkpt lat="45.94451" lon="4.73004">
        <ele>169</ele>
        <time>2018-04-05T08:47:45Z</time>
      </trkpt>
      <trkpt lat="45.94452" lon="4.73015">
        <ele>169</ele>
        <time>2018-04-05T08:47:46Z</time>
      </trkpt>
      <trkpt lat="45.94453" lon="4.73025">
        <ele>169</ele>
        <time>2018-04-05T08:47:47Z</time>
      </trkpt>
      <trkpt lat="45.94454" lon="4.73037">
        <ele>169</ele>
        <time>2018-04-05T08:47:48Z</time>
      </trkpt>
      <trkpt lat="45.94456" lon="4.73048">
        <ele>170</ele>
        <time>2018-04-05T08:47:49Z</time>
      </trkpt>
      <trkpt lat="45.94457" lon="4.73059">
        <ele>170</ele>
        <time>2018-04-05T08:47:50Z</time>
      </trkpt>
      <trkpt lat="45.94459" lon="4.7307">
        <ele>170</ele>
        <time>2018-04-05T08:47:51Z</time>
      </trkpt>
      <trkpt lat="45.9446" lon="4.73081">
        <ele>170</ele>
        <time>2018-04-05T08:47:52Z</time>
      </trkpt>
      <trkpt lat="45.94461" lon="4.73094">
        <ele>171</ele>
        <time>2018-04-05T08:47:53Z</time>
      </trkpt>
      <trkpt lat="45.94462" lon="4.73104">
        <ele>172</ele>
        <time>2018-04-05T08:47:54Z</time>
      </trkpt>
      <trkpt lat="45.94463" lon="4.73115">
        <ele>172</ele>
        <time>2018-04-05T08:47:55Z</time>
      </trkpt>
      <trkpt lat="45.94464" lon="4.73126">
        <ele>172</ele>
        <time>2018-04-05T08:47:56Z</time>
      </trkpt>
      <trkpt lat="45.94466" lon="4.73136">
        <ele>172</ele>
        <time>2018-04-05T08:47:57Z</time>
      </trkpt>
      <trkpt lat="45.94467" lon="4.73145">
        <ele>172</ele>
        <time>2018-04-05T08:47:58Z</time>
      </trkpt>
      <trkpt lat="45.94469" lon="4.73154">
        <ele>172</ele>
        <time>2018-04-05T08:47:59Z</time>
      </trkpt>
      <trkpt lat="45.9447" lon="4.73162">
        <ele>172</ele>
        <time>2018-04-05T08:48:00Z</time>
      </trkpt>
      <trkpt lat="45.94471" lon="4.7317">
        <ele>174</ele>
        <time>2018-04-05T08:48:01Z</time>
      </trkpt>
      <trkpt lat="45.94472" lon="4.73179">
        <ele>174</ele>
        <time>2018-04-05T08:48:02Z</time>
      </trkpt>
      <trkpt lat="45.94474" lon="4.73187">
        <ele>174</ele>
        <time>2018-04-05T08:48:03Z</time>
      </trkpt>
      <trkpt lat="45.94475" lon="4.73195">
        <ele>174</ele>
        <time>2018-04-05T08:48:04Z</time>
      </trkpt>
      <trkpt lat="45.94476" lon="4.73203">
        <ele>175</ele>
        <time>2018-04-05T08:48:05Z</time>
      </trkpt>
      <trkpt lat="45.94478" lon="4.73211">
        <ele>175</ele>
        <time>2018-04-05T08:48:06Z</time>
      </trkpt>
      <trkpt lat="45.94478" lon="4.73218">
        <ele>175</ele>
        <time>2018-04-05T08:48:07Z</time>
      </trkpt>
      <trkpt lat="45.94479" lon="4.73225">
        <ele>175</ele>
        <time>2018-04-05T08:48:08Z</time>
      </trkpt>
      <trkpt lat="45.94481" lon="4.73232">
        <ele>175</ele>
        <time>2018-04-05T08:48:09Z</time>
      </trkpt>
      <trkpt lat="45.94481" lon="4.73239">
        <ele>175</ele>
        <time>2018-04-05T08:48:10Z</time>
      </trkpt>
      <trkpt lat="45.94482" lon="4.73247">
        <ele>175</ele>
        <time>2018-04-05T08:48:12Z</time>
      </trkpt>
      <trkpt lat="45.94482" lon="4.73256">
        <ele>176</ele>
        <time>2018-04-05T08:48:13Z</time>
      </trkpt>
      <trkpt lat="45.94483" lon="4.73264">
        <ele>177</ele>
        <time>2018-04-05T08:48:14Z</time>
      </trkpt>
      <trkpt lat="45.94483" lon="4.73271">
        <ele>177</ele>
        <time>2018-04-05T08:48:15Z</time>
      </trkpt>
      <trkpt lat="45.94485" lon="4.73284">
        <ele>177</ele>
        <time>2018-04-05T08:48:17Z</time>
      </trkpt>
      <trkpt lat="45.94487" lon="4.7329">
        <ele>177</ele>
        <time>2018-04-05T08:48:18Z</time>
      </trkpt>
      <trkpt lat="45.94487" lon="4.73302">
        <ele>177</ele>
        <time>2018-04-05T08:48:20Z</time>
      </trkpt>
      <trkpt lat="45.94489" lon="4.73309">
        <ele>177</ele>
        <time>2018-04-05T08:48:21Z</time>
      </trkpt>
      <trkpt lat="45.9449" lon="4.7332">
        <ele>177</ele>
        <time>2018-04-05T08:48:23Z</time>
      </trkpt>
      <trkpt lat="45.94491" lon="4.73325">
        <ele>177</ele>
        <time>2018-04-05T08:48:24Z</time>
      </trkpt>
      <trkpt lat="45.94491" lon="4.73337">
        <ele>178</ele>
        <time>2018-04-05T08:48:26Z</time>
      </trkpt>
      <trkpt lat="45.94492" lon="4.73343">
        <ele>178</ele>
        <time>2018-04-05T08:48:27Z</time>
      </trkpt>
      <trkpt lat="45.94494" lon="4.73354">
        <ele>178</ele>
        <time>2018-04-05T08:48:29Z</time>
      </trkpt>
      <trkpt lat="45.94494" lon="4.73362">
        <ele>179</ele>
        <time>2018-04-05T08:48:30Z</time>
      </trkpt>
      <trkpt lat="45.94495" lon="4.73372">
        <ele>179</ele>
        <time>2018-04-05T08:48:32Z</time>
      </trkpt>
      <trkpt lat="45.94496" lon="4.73378">
        <ele>179</ele>
        <time>2018-04-05T08:48:33Z</time>
      </trkpt>
      <trkpt lat="45.94497" lon="4.73389">
        <ele>179</ele>
        <time>2018-04-05T08:48:35Z</time>
      </trkpt>
      <trkpt lat="45.94497" lon="4.73395">
        <ele>179</ele>
        <time>2018-04-05T08:48:36Z</time>
      </trkpt>
      <trkpt lat="45.94498" lon="4.73406">
        <ele>180</ele>
        <time>2018-04-05T08:48:38Z</time>
      </trkpt>
      <trkpt lat="45.94498" lon="4.73411">
        <ele>180</ele>
        <time>2018-04-05T08:48:39Z</time>
      </trkpt>
      <trkpt lat="45.94498" lon="4.73422">
        <ele>180</ele>
        <time>2018-04-05T08:48:41Z</time>
      </trkpt>
      <trkpt lat="45.94498" lon="4.73427">
        <ele>181</ele>
        <time>2018-04-05T08:48:42Z</time>
      </trkpt>
      <trkpt lat="45.94499" lon="4.73438">
        <ele>181</ele>
        <time>2018-04-05T08:48:44Z</time>
      </trkpt>
      <trkpt lat="45.94499" lon="4.73444">
        <ele>181</ele>
        <time>2018-04-05T08:48:45Z</time>
      </trkpt>
      <trkpt lat="45.94499" lon="4.73455">
        <ele>182</ele>
        <time>2018-04-05T08:48:47Z</time>
      </trkpt>
      <trkpt lat="45.94499" lon="4.7346">
        <ele>182</ele>
        <time>2018-04-05T08:48:48Z</time>
      </trkpt>
      <trkpt lat="45.94499" lon="4.73471">
        <ele>182</ele>
        <time>2018-04-05T08:48:50Z</time>
      </trkpt>
      <trkpt lat="45.945" lon="4.73477">
        <ele>182</ele>
        <time>2018-04-05T08:48:51Z</time>
      </trkpt>
      <trkpt lat="45.945" lon="4.73488">
        <ele>183</ele>
        <time>2018-04-05T08:48:53Z</time>
      </trkpt>
      <trkpt lat="45.94499" lon="4.73494">
        <ele>183</ele>
        <time>2018-04-05T08:48:54Z</time>
      </trkpt>
      <trkpt lat="45.94499" lon="4.73506">
        <ele>183</ele>
        <time>2018-04-05T08:48:56Z</time>
      </trkpt>
      <trkpt lat="45.94499" lon="4.73512">
        <ele>184</ele>
        <time>2018-04-05T08:48:57Z</time>
      </trkpt>
      <trkpt lat="45.94498" lon="4.73519">
        <ele>184</ele>
        <time>2018-04-05T08:48:58Z</time>
      </trkpt>
      <trkpt lat="45.94498" lon="4.73525">
        <ele>184</ele>
        <time>2018-04-05T08:48:59Z</time>
      </trkpt>
      <trkpt lat="45.94498" lon="4.73538">
        <ele>184</ele>
        <time>2018-04-05T08:49:01Z</time>
      </trkpt>
      <trkpt lat="45.94498" lon="4.73541">
        <ele>184</ele>
        <time>2018-04-05T08:49:02Z</time>
      </trkpt>
      <trkpt lat="45.94497" lon="4.73549">
        <ele>185</ele>
        <time>2018-04-05T08:49:03Z</time>
      </trkpt>
      <trkpt lat="45.94497" lon="4.73555">
        <ele>185</ele>
        <time>2018-04-05T08:49:04Z</time>
      </trkpt>
      <trkpt lat="45.94497" lon="4.73563">
        <ele>185</ele>
        <time>2018-04-05T08:49:05Z</time>
      </trkpt>
      <trkpt lat="45.94496" lon="4.7357">
        <ele>185</ele>
        <time>2018-04-05T08:49:06Z</time>
      </trkpt>
      <trkpt lat="45.94495" lon="4.73581">
        <ele>185</ele>
        <time>2018-04-05T08:49:08Z</time>
      </trkpt>
      <trkpt lat="45.94494" lon="4.73587">
        <ele>185</ele>
        <time>2018-04-05T08:49:09Z</time>
      </trkpt>
      <trkpt lat="45.94494" lon="4.73599">
        <ele>185</ele>
        <time>2018-04-05T08:49:11Z</time>
      </trkpt>
      <trkpt lat="45.94494" lon="4.73607">
        <ele>186</ele>
        <time>2018-04-05T08:49:12Z</time>
      </trkpt>
      <trkpt lat="45.94494" lon="4.73618">
        <ele>186</ele>
        <time>2018-04-05T08:49:14Z</time>
      </trkpt>
      <trkpt lat="45.94494" lon="4.73625">
        <ele>186</ele>
        <time>2018-04-05T08:49:15Z</time>
      </trkpt>
      <trkpt lat="45.94493" lon="4.73631">
        <ele>186</ele>
        <time>2018-04-05T08:49:16Z</time>
      </trkpt>
      <trkpt lat="45.94492" lon="4.73639">
        <ele>186</ele>
        <time>2018-04-05T08:49:17Z</time>
      </trkpt>
      <trkpt lat="45.9449" lon="4.73644">
        <ele>186</ele>
        <time>2018-04-05T08:49:18Z</time>
      </trkpt>
      <trkpt lat="45.94488" lon="4.73651">
        <ele>186</ele>
        <time>2018-04-05T08:49:19Z</time>
      </trkpt>
      <trkpt lat="45.94487" lon="4.73657">
        <ele>185</ele>
        <time>2018-04-05T08:49:20Z</time>
      </trkpt>
      <trkpt lat="45.94486" lon="4.73665">
        <ele>185</ele>
        <time>2018-04-05T08:49:21Z</time>
      </trkpt>
      <trkpt lat="45.94485" lon="4.73674">
        <ele>186</ele>
        <time>2018-04-05T08:49:22Z</time>
      </trkpt>
      <trkpt lat="45.94484" lon="4.73682">
        <ele>186</ele>
        <time>2018-04-05T08:49:23Z</time>
      </trkpt>
      <trkpt lat="45.94483" lon="4.7369">
        <ele>186</ele>
        <time>2018-04-05T08:49:24Z</time>
      </trkpt>
      <trkpt lat="45.94482" lon="4.73697">
        <ele>186</ele>
        <time>2018-04-05T08:49:25Z</time>
      </trkpt>
      <trkpt lat="45.94484" lon="4.73703">
        <ele>186</ele>
        <time>2018-04-05T08:49:26Z</time>
      </trkpt>
      <trkpt lat="45.94483" lon="4.7371">
        <ele>186</ele>
        <time>2018-04-05T08:49:27Z</time>
      </trkpt>
      <trkpt lat="45.94482" lon="4.7372">
        <ele>186</ele>
        <time>2018-04-05T08:49:28Z</time>
      </trkpt>
      <trkpt lat="45.94482" lon="4.73725">
        <ele>186</ele>
        <time>2018-04-05T08:49:29Z</time>
      </trkpt>
      <trkpt lat="45.94481" lon="4.73733">
        <ele>186</ele>
        <time>2018-04-05T08:49:30Z</time>
      </trkpt>
      <trkpt lat="45.94481" lon="4.73741">
        <ele>186</ele>
        <time>2018-04-05T08:49:31Z</time>
      </trkpt>
      <trkpt lat="45.9448" lon="4.73749">
        <ele>186</ele>
        <time>2018-04-05T08:49:32Z</time>
      </trkpt>
      <trkpt lat="45.94479" lon="4.73755">
        <ele>186</ele>
        <time>2018-04-05T08:49:33Z</time>
      </trkpt>
      <trkpt lat="45.9448" lon="4.73765">
        <ele>186</ele>
        <time>2018-04-05T08:49:34Z</time>
      </trkpt>
      <trkpt lat="45.94481" lon="4.73771">
        <ele>186</ele>
        <time>2018-04-05T08:49:35Z</time>
      </trkpt>
      <trkpt lat="45.94486" lon="4.73776">
        <ele>186</ele>
        <time>2018-04-05T08:49:36Z</time>
      </trkpt>
      <trkpt lat="45.9449" lon="4.73779">
        <ele>186</ele>
        <time>2018-04-05T08:49:37Z</time>
      </trkpt>
      <trkpt lat="45.94494" lon="4.73782">
        <ele>186</ele>
        <time>2018-04-05T08:49:38Z</time>
      </trkpt>
      <trkpt lat="45.94499" lon="4.73786">
        <ele>186</ele>
        <time>2018-04-05T08:49:39Z</time>
      </trkpt>
      <trkpt lat="45.94502" lon="4.73791">
        <ele>186</ele>
        <time>2018-04-05T08:49:40Z</time>
      </trkpt>
      <trkpt lat="45.94507" lon="4.73795">
        <ele>186</ele>
        <time>2018-04-05T08:49:41Z</time>
      </trkpt>
      <trkpt lat="45.94511" lon="4.73798">
        <ele>186</ele>
        <time>2018-04-05T08:49:42Z</time>
      </trkpt>
      <trkpt lat="45.94515" lon="4.73803">
        <ele>186</ele>
        <time>2018-04-05T08:49:43Z</time>
      </trkpt>
      <trkpt lat="45.94519" lon="4.73808">
        <ele>186</ele>
        <time>2018-04-05T08:49:44Z</time>
      </trkpt>
      <trkpt lat="45.94523" lon="4.73812">
        <ele>186</ele>
        <time>2018-04-05T08:49:45Z</time>
      </trkpt>
      <trkpt lat="45.94527" lon="4.73816">
        <ele>186</ele>
        <time>2018-04-05T08:49:46Z</time>
      </trkpt>
      <trkpt lat="45.94531" lon="4.73819">
        <ele>186</ele>
        <time>2018-04-05T08:49:47Z</time>
      </trkpt>
      <trkpt lat="45.94538" lon="4.73825">
        <ele>186</ele>
        <time>2018-04-05T08:49:49Z</time>
      </trkpt>
      <trkpt lat="45.94542" lon="4.73828">
        <ele>186</ele>
        <time>2018-04-05T08:49:50Z</time>
      </trkpt>
      <trkpt lat="45.94546" lon="4.73831">
        <ele>186</ele>
        <time>2018-04-05T08:49:51Z</time>
      </trkpt>
      <trkpt lat="45.9455" lon="4.73835">
        <ele>186</ele>
        <time>2018-04-05T08:49:52Z</time>
      </trkpt>
      <trkpt lat="45.94553" lon="4.73839">
        <ele>186</ele>
        <time>2018-04-05T08:49:53Z</time>
      </trkpt>
      <trkpt lat="45.94557" lon="4.73842">
        <ele>186</ele>
        <time>2018-04-05T08:49:54Z</time>
      </trkpt>
      <trkpt lat="45.94561" lon="4.73847">
        <ele>186</ele>
        <time>2018-04-05T08:49:55Z</time>
      </trkpt>
      <trkpt lat="45.94565" lon="4.73851">
        <ele>186</ele>
        <time>2018-04-05T08:49:56Z</time>
      </trkpt>
      <trkpt lat="45.94569" lon="4.73855">
        <ele>186</ele>
        <time>2018-04-05T08:49:57Z</time>
      </trkpt>
      <trkpt lat="45.94573" lon="4.73858">
        <ele>186</ele>
        <time>2018-04-05T08:49:58Z</time>
      </trkpt>
      <trkpt lat="45.94579" lon="4.73867">
        <ele>186</ele>
        <time>2018-04-05T08:50:00Z</time>
      </trkpt>
      <trkpt lat="45.94583" lon="4.73871">
        <ele>186</ele>
        <time>2018-04-05T08:50:01Z</time>
      </trkpt>
      <trkpt lat="45.94587" lon="4.73875">
        <ele>187</ele>
        <time>2018-04-05T08:50:02Z</time>
      </trkpt>
      <trkpt lat="45.94591" lon="4.73879">
        <ele>187</ele>
        <time>2018-04-05T08:50:03Z</time>
      </trkpt>
      <trkpt lat="45.94594" lon="4.73884">
        <ele>187</ele>
        <time>2018-04-05T08:50:04Z</time>
      </trkpt>
      <trkpt lat="45.94597" lon="4.73888">
        <ele>187</ele>
        <time>2018-04-05T08:50:05Z</time>
      </trkpt>
      <trkpt lat="45.94601" lon="4.73892">
        <ele>187</ele>
        <time>2018-04-05T08:50:06Z</time>
      </trkpt>
      <trkpt lat="45.94604" lon="4.73896">
        <ele>187</ele>
        <time>2018-04-05T08:50:07Z</time>
      </trkpt>
      <trkpt lat="45.94609" lon="4.739">
        <ele>187</ele>
        <time>2018-04-05T08:50:08Z</time>
      </trkpt>
      <trkpt lat="45.94612" lon="4.73905">
        <ele>187</ele>
        <time>2018-04-05T08:50:09Z</time>
      </trkpt>
      <trkpt lat="45.94616" lon="4.73909">
        <ele>187</ele>
        <time>2018-04-05T08:50:10Z</time>
      </trkpt>
      <trkpt lat="45.9462" lon="4.73913">
        <ele>187</ele>
        <time>2018-04-05T08:50:11Z</time>
      </trkpt>
      <trkpt lat="45.94623" lon="4.73917">
        <ele>187</ele>
        <time>2018-04-05T08:50:12Z</time>
      </trkpt>
      <trkpt lat="45.94626" lon="4.73922">
        <ele>187</ele>
        <time>2018-04-05T08:50:13Z</time>
      </trkpt>
      <trkpt lat="45.9463" lon="4.73928">
        <ele>187</ele>
        <time>2018-04-05T08:50:14Z</time>
      </trkpt>
      <trkpt lat="45.94634" lon="4.73934">
        <ele>187</ele>
        <time>2018-04-05T08:50:15Z</time>
      </trkpt>
      <trkpt lat="45.94637" lon="4.73938">
        <ele>187</ele>
        <time>2018-04-05T08:50:16Z</time>
      </trkpt>
      <trkpt lat="45.94641" lon="4.73941">
        <ele>187</ele>
        <time>2018-04-05T08:50:17Z</time>
      </trkpt>
      <trkpt lat="45.94644" lon="4.73946">
        <ele>187</ele>
        <time>2018-04-05T08:50:18Z</time>
      </trkpt>
      <trkpt lat="45.94647" lon="4.73951">
        <ele>187</ele>
        <time>2018-04-05T08:50:19Z</time>
      </trkpt>
      <trkpt lat="45.94651" lon="4.73955">
        <ele>187</ele>
        <time>2018-04-05T08:50:20Z</time>
      </trkpt>
      <trkpt lat="45.94655" lon="4.7396">
        <ele>187</ele>
        <time>2018-04-05T08:50:21Z</time>
      </trkpt>
      <trkpt lat="45.94658" lon="4.73965">
        <ele>187</ele>
        <time>2018-04-05T08:50:22Z</time>
      </trkpt>
      <trkpt lat="45.94661" lon="4.7397">
        <ele>187</ele>
        <time>2018-04-05T08:50:23Z</time>
      </trkpt>
      <trkpt lat="45.94665" lon="4.73975">
        <ele>187</ele>
        <time>2018-04-05T08:50:24Z</time>
      </trkpt>
      <trkpt lat="45.94669" lon="4.73982">
        <ele>187</ele>
        <time>2018-04-05T08:50:25Z</time>
      </trkpt>
      <trkpt lat="45.94676" lon="4.7399">
        <ele>187</ele>
        <time>2018-04-05T08:50:27Z</time>
      </trkpt>
      <trkpt lat="45.9468" lon="4.73995">
        <ele>187</ele>
        <time>2018-04-05T08:50:28Z</time>
      </trkpt>
      <trkpt lat="45.94683" lon="4.74">
        <ele>187</ele>
        <time>2018-04-05T08:50:29Z</time>
      </trkpt>
      <trkpt lat="45.94686" lon="4.74005">
        <ele>187</ele>
        <time>2018-04-05T08:50:30Z</time>
      </trkpt>
      <trkpt lat="45.94691" lon="4.7401">
        <ele>187</ele>
        <time>2018-04-05T08:50:31Z</time>
      </trkpt>
      <trkpt lat="45.94694" lon="4.74015">
        <ele>187</ele>
        <time>2018-04-05T08:50:32Z</time>
      </trkpt>
      <trkpt lat="45.94697" lon="4.7402">
        <ele>187</ele>
        <time>2018-04-05T08:50:33Z</time>
      </trkpt>
      <trkpt lat="45.94702" lon="4.74025">
        <ele>187</ele>
        <time>2018-04-05T08:50:34Z</time>
      </trkpt>
      <trkpt lat="45.94706" lon="4.7403">
        <ele>187</ele>
        <time>2018-04-05T08:50:35Z</time>
      </trkpt>
      <trkpt lat="45.9471" lon="4.74034">
        <ele>187</ele>
        <time>2018-04-05T08:50:36Z</time>
      </trkpt>
      <trkpt lat="45.94713" lon="4.74037">
        <ele>187</ele>
        <time>2018-04-05T08:50:37Z</time>
      </trkpt>
      <trkpt lat="45.94717" lon="4.74042">
        <ele>187</ele>
        <time>2018-04-05T08:50:38Z</time>
      </trkpt>
      <trkpt lat="45.9472" lon="4.74047">
        <ele>187</ele>
        <time>2018-04-05T08:50:39Z</time>
      </trkpt>
      <trkpt lat="45.94724" lon="4.74052">
        <ele>188</ele>
        <time>2018-04-05T08:50:40Z</time>
      </trkpt>
      <trkpt lat="45.94727" lon="4.74056">
        <ele>188</ele>
        <time>2018-04-05T08:50:41Z</time>
      </trkpt>
      <trkpt lat="45.94731" lon="4.74061">
        <ele>188</ele>
        <time>2018-04-05T08:50:42Z</time>
      </trkpt>
      <trkpt lat="45.94735" lon="4.74067">
        <ele>188</ele>
        <time>2018-04-05T08:50:43Z</time>
      </trkpt>
      <trkpt lat="45.94738" lon="4.74072">
        <ele>188</ele>
        <time>2018-04-05T08:50:44Z</time>
      </trkpt>
      <trkpt lat="45.94741" lon="4.74076">
        <ele>188</ele>
        <time>2018-04-05T08:50:45Z</time>
      </trkpt>
      <trkpt lat="45.94745" lon="4.74081">
        <ele>189</ele>
        <time>2018-04-05T08:50:46Z</time>
      </trkpt>
      <trkpt lat="45.94748" lon="4.74086">
        <ele>189</ele>
        <time>2018-04-05T08:50:47Z</time>
      </trkpt>
      <trkpt lat="45.94752" lon="4.74091">
        <ele>189</ele>
        <time>2018-04-05T08:50:48Z</time>
      </trkpt>
      <trkpt lat="45.94756" lon="4.74096">
        <ele>189</ele>
        <time>2018-04-05T08:50:49Z</time>
      </trkpt>
      <trkpt lat="45.9476" lon="4.74101">
        <ele>189</ele>
        <time>2018-04-05T08:50:50Z</time>
      </trkpt>
      <trkpt lat="45.94763" lon="4.74106">
        <ele>189</ele>
        <time>2018-04-05T08:50:51Z</time>
      </trkpt>
      <trkpt lat="45.94767" lon="4.7411">
        <ele>189</ele>
        <time>2018-04-05T08:50:52Z</time>
      </trkpt>
      <trkpt lat="45.9477" lon="4.74116">
        <ele>189</ele>
        <time>2018-04-05T08:50:53Z</time>
      </trkpt>
      <trkpt lat="45.94773" lon="4.74122">
        <ele>189</ele>
        <time>2018-04-05T08:50:54Z</time>
      </trkpt>
      <trkpt lat="45.94777" lon="4.74127">
        <ele>189</ele>
        <time>2018-04-05T08:50:55Z</time>
      </trkpt>
      <trkpt lat="45.94781" lon="4.74132">
        <ele>189</ele>
        <time>2018-04-05T08:50:56Z</time>
      </trkpt>
      <trkpt lat="45.94784" lon="4.74137">
        <ele>189</ele>
        <time>2018-04-05T08:50:57Z</time>
      </trkpt>
      <trkpt lat="45.94787" lon="4.74142">
        <ele>189</ele>
        <time>2018-04-05T08:50:58Z</time>
      </trkpt>
      <trkpt lat="45.94791" lon="4.74147">
        <ele>189</ele>
        <time>2018-04-05T08:50:59Z</time>
      </trkpt>
      <trkpt lat="45.94793" lon="4.74152">
        <ele>189</ele>
        <time>2018-04-05T08:51:00Z</time>
      </trkpt>
      <trkpt lat="45.948" lon="4.7416">
        <ele>189</ele>
        <time>2018-04-05T08:51:02Z</time>
      </trkpt>
      <trkpt lat="45.94803" lon="4.74166">
        <ele>189</ele>
        <time>2018-04-05T08:51:03Z</time>
      </trkpt>
      <trkpt lat="45.94807" lon="4.74172">
        <ele>189</ele>
        <time>2018-04-05T08:51:04Z</time>
      </trkpt>
      <trkpt lat="45.9481" lon="4.74178">
        <ele>189</ele>
        <time>2018-04-05T08:51:05Z</time>
      </trkpt>
      <trkpt lat="45.94813" lon="4.74184">
        <ele>189</ele>
        <time>2018-04-05T08:51:06Z</time>
      </trkpt>
      <trkpt lat="45.94817" lon="4.74189">
        <ele>189</ele>
        <time>2018-04-05T08:51:07Z</time>
      </trkpt>
      <trkpt lat="45.9482" lon="4.74194">
        <ele>189</ele>
        <time>2018-04-05T08:51:08Z</time>
      </trkpt>
      <trkpt lat="45.94823" lon="4.74199">
        <ele>189</ele>
        <time>2018-04-05T08:51:09Z</time>
      </trkpt>
      <trkpt lat="45.94827" lon="4.74205">
        <ele>189</ele>
        <time>2018-04-05T08:51:10Z</time>
      </trkpt>
      <trkpt lat="45.9483" lon="4.74211">
        <ele>189</ele>
        <time>2018-04-05T08:51:11Z</time>
      </trkpt>
      <trkpt lat="45.94833" lon="4.74218">
        <ele>189</ele>
        <time>2018-04-05T08:51:12Z</time>
      </trkpt>
      <trkpt lat="45.94836" lon="4.74225">
        <ele>190</ele>
        <time>2018-04-05T08:51:13Z</time>
      </trkpt>
      <trkpt lat="45.94839" lon="4.74231">
        <ele>190</ele>
        <time>2018-04-05T08:51:14Z</time>
      </trkpt>
      <trkpt lat="45.94841" lon="4.74238">
        <ele>190</ele>
        <time>2018-04-05T08:51:15Z</time>
      </trkpt>
      <trkpt lat="45.94845" lon="4.74244">
        <ele>190</ele>
        <time>2018-04-05T08:51:16Z</time>
      </trkpt>
      <trkpt lat="45.94848" lon="4.74251">
        <ele>190</ele>
        <time>2018-04-05T08:51:17Z</time>
      </trkpt>
      <trkpt lat="45.94851" lon="4.74258">
        <ele>190</ele>
        <time>2018-04-05T08:51:18Z</time>
      </trkpt>
      <trkpt lat="45.94855" lon="4.74265">
        <ele>190</ele>
        <time>2018-04-05T08:51:19Z</time>
      </trkpt>
      <trkpt lat="45.94859" lon="4.74271">
        <ele>190</ele>
        <time>2018-04-05T08:51:20Z</time>
      </trkpt>
      <trkpt lat="45.94862" lon="4.74278">
        <ele>190</ele>
        <time>2018-04-05T08:51:21Z</time>
      </trkpt>
      <trkpt lat="45.94865" lon="4.74283">
        <ele>191</ele>
        <time>2018-04-05T08:51:22Z</time>
      </trkpt>
      <trkpt lat="45.94868" lon="4.7429">
        <ele>191</ele>
        <time>2018-04-05T08:51:23Z</time>
      </trkpt>
      <trkpt lat="45.94871" lon="4.74297">
        <ele>191</ele>
        <time>2018-04-05T08:51:24Z</time>
      </trkpt>
      <trkpt lat="45.94874" lon="4.74303">
        <ele>191</ele>
        <time>2018-04-05T08:51:25Z</time>
      </trkpt>
      <trkpt lat="45.94877" lon="4.74308">
        <ele>191</ele>
        <time>2018-04-05T08:51:26Z</time>
      </trkpt>
      <trkpt lat="45.9488" lon="4.74314">
        <ele>191</ele>
        <time>2018-04-05T08:51:27Z</time>
      </trkpt>
      <trkpt lat="45.94883" lon="4.7432">
        <ele>191</ele>
        <time>2018-04-05T08:51:28Z</time>
      </trkpt>
      <trkpt lat="45.94885" lon="4.74325">
        <ele>191</ele>
        <time>2018-04-05T08:51:29Z</time>
      </trkpt>
      <trkpt lat="45.94888" lon="4.74331">
        <ele>191</ele>
        <time>2018-04-05T08:51:30Z</time>
      </trkpt>
      <trkpt lat="45.94891" lon="4.74336">
        <ele>191</ele>
        <time>2018-04-05T08:51:31Z</time>
      </trkpt>
      <trkpt lat="45.94894" lon="4.74342">
        <ele>191</ele>
        <time>2018-04-05T08:51:32Z</time>
      </trkpt>
      <trkpt lat="45.94897" lon="4.74347">
        <ele>191</ele>
        <time>2018-04-05T08:51:33Z</time>
      </trkpt>
      <trkpt lat="45.949" lon="4.74352">
        <ele>191</ele>
        <time>2018-04-05T08:51:34Z</time>
      </trkpt>
      <trkpt lat="45.94904" lon="4.74357">
        <ele>191</ele>
        <time>2018-04-05T08:51:35Z</time>
      </trkpt>
      <trkpt lat="45.94907" lon="4.74363">
        <ele>191</ele>
        <time>2018-04-05T08:51:36Z</time>
      </trkpt>
      <trkpt lat="45.9491" lon="4.7437">
        <ele>191</ele>
        <time>2018-04-05T08:51:37Z</time>
      </trkpt>
      <trkpt lat="45.94913" lon="4.74376">
        <ele>191</ele>
        <time>2018-04-05T08:51:38Z</time>
      </trkpt>
      <trkpt lat="45.94916" lon="4.74382">
        <ele>191</ele>
        <time>2018-04-05T08:51:39Z</time>
      </trkpt>
      <trkpt lat="45.94919" lon="4.74389">
        <ele>192</ele>
        <time>2018-04-05T08:51:40Z</time>
      </trkpt>
      <trkpt lat="45.94923" lon="4.74395">
        <ele>192</ele>
        <time>2018-04-05T08:51:41Z</time>
      </trkpt>
      <trkpt lat="45.94926" lon="4.74402">
        <ele>192</ele>
        <time>2018-04-05T08:51:42Z</time>
      </trkpt>
      <trkpt lat="45.94929" lon="4.74408">
        <ele>192</ele>
        <time>2018-04-05T08:51:43Z</time>
      </trkpt>
      <trkpt lat="45.94933" lon="4.74416">
        <ele>192</ele>
        <time>2018-04-05T08:51:44Z</time>
      </trkpt>
      <trkpt lat="45.94937" lon="4.74423">
        <ele>192</ele>
        <time>2018-04-05T08:51:45Z</time>
      </trkpt>
      <trkpt lat="45.9494" lon="4.7443">
        <ele>192</ele>
        <time>2018-04-05T08:51:46Z</time>
      </trkpt>
      <trkpt lat="45.94943" lon="4.74437">
        <ele>192</ele>
        <time>2018-04-05T08:51:47Z</time>
      </trkpt>
      <trkpt lat="45.94946" lon="4.74444">
        <ele>192</ele>
        <time>2018-04-05T08:51:48Z</time>
      </trkpt>
      <trkpt lat="45.94949" lon="4.74452">
        <ele>192</ele>
        <time>2018-04-05T08:51:49Z</time>
      </trkpt>
      <trkpt lat="45.94952" lon="4.74457">
        <ele>192</ele>
        <time>2018-04-05T08:51:50Z</time>
      </trkpt>
      <trkpt lat="45.94955" lon="4.74464">
        <ele>193</ele>
        <time>2018-04-05T08:51:51Z</time>
      </trkpt>
      <trkpt lat="45.94958" lon="4.74469">
        <ele>193</ele>
        <time>2018-04-05T08:51:52Z</time>
      </trkpt>
      <trkpt lat="45.94961" lon="4.74475">
        <ele>193</ele>
        <time>2018-04-05T08:51:53Z</time>
      </trkpt>
      <trkpt lat="45.94964" lon="4.7448">
        <ele>193</ele>
        <time>2018-04-05T08:51:54Z</time>
      </trkpt>
      <trkpt lat="45.94967" lon="4.74485">
        <ele>193</ele>
        <time>2018-04-05T08:51:55Z</time>
      </trkpt>
      <trkpt lat="45.9497" lon="4.74492">
        <ele>193</ele>
        <time>2018-04-05T08:51:56Z</time>
      </trkpt>
      <trkpt lat="45.94973" lon="4.74497">
        <ele>193</ele>
        <time>2018-04-05T08:51:57Z</time>
      </trkpt>
      <trkpt lat="45.94977" lon="4.74502">
        <ele>193</ele>
        <time>2018-04-05T08:51:58Z</time>
      </trkpt>
      <trkpt lat="45.9498" lon="4.74508">
        <ele>193</ele>
        <time>2018-04-05T08:51:59Z</time>
      </trkpt>
      <trkpt lat="45.94983" lon="4.74514">
        <ele>193</ele>
        <time>2018-04-05T08:52:00Z</time>
      </trkpt>
      <trkpt lat="45.94987" lon="4.7452">
        <ele>193</ele>
        <time>2018-04-05T08:52:01Z</time>
      </trkpt>
      <trkpt lat="45.9499" lon="4.74526">
        <ele>193</ele>
        <time>2018-04-05T08:52:02Z</time>
      </trkpt>
      <trkpt lat="45.94993" lon="4.74533">
        <ele>193</ele>
        <time>2018-04-05T08:52:03Z</time>
      </trkpt>
      <trkpt lat="45.94996" lon="4.74539">
        <ele>193</ele>
        <time>2018-04-05T08:52:04Z</time>
      </trkpt>
      <trkpt lat="45.94999" lon="4.74546">
        <ele>193</ele>
        <time>2018-04-05T08:52:05Z</time>
      </trkpt>
      <trkpt lat="45.95003" lon="4.74553">
        <ele>194</ele>
        <time>2018-04-05T08:52:06Z</time>
      </trkpt>
      <trkpt lat="45.95006" lon="4.74559">
        <ele>194</ele>
        <time>2018-04-05T08:52:07Z</time>
      </trkpt>
      <trkpt lat="45.9501" lon="4.74566">
        <ele>194</ele>
        <time>2018-04-05T08:52:08Z</time>
      </trkpt>
      <trkpt lat="45.95013" lon="4.74574">
        <ele>194</ele>
        <time>2018-04-05T08:52:09Z</time>
      </trkpt>
      <trkpt lat="45.95017" lon="4.74581">
        <ele>194</ele>
        <time>2018-04-05T08:52:10Z</time>
      </trkpt>
      <trkpt lat="45.95021" lon="4.74588">
        <ele>194</ele>
        <time>2018-04-05T08:52:11Z</time>
      </trkpt>
      <trkpt lat="45.95025" lon="4.74595">
        <ele>194</ele>
        <time>2018-04-05T08:52:12Z</time>
      </trkpt>
      <trkpt lat="45.95028" lon="4.74602">
        <ele>194</ele>
        <time>2018-04-05T08:52:13Z</time>
      </trkpt>
      <trkpt lat="45.95032" lon="4.74609">
        <ele>194</ele>
        <time>2018-04-05T08:52:14Z</time>
      </trkpt>
      <trkpt lat="45.95035" lon="4.74616">
        <ele>194</ele>
        <time>2018-04-05T08:52:15Z</time>
      </trkpt>
      <trkpt lat="45.95039" lon="4.74623">
        <ele>194</ele>
        <time>2018-04-05T08:52:16Z</time>
      </trkpt>
      <trkpt lat="45.95043" lon="4.74633">
        <ele>194</ele>
        <time>2018-04-05T08:52:17Z</time>
      </trkpt>
      <trkpt lat="45.95047" lon="4.74639">
        <ele>194</ele>
        <time>2018-04-05T08:52:18Z</time>
      </trkpt>
      <trkpt lat="45.95051" lon="4.74646">
        <ele>194</ele>
        <time>2018-04-05T08:52:19Z</time>
      </trkpt>
      <trkpt lat="45.95055" lon="4.74653">
        <ele>194</ele>
        <time>2018-04-05T08:52:20Z</time>
      </trkpt>
      <trkpt lat="45.95058" lon="4.74659">
        <ele>194</ele>
        <time>2018-04-05T08:52:21Z</time>
      </trkpt>
      <trkpt lat="45.95062" lon="4.74666">
        <ele>195</ele>
        <time>2018-04-05T08:52:22Z</time>
      </trkpt>
      <trkpt lat="45.95065" lon="4.74672">
        <ele>194</ele>
        <time>2018-04-05T08:52:23Z</time>
      </trkpt>
      <trkpt lat="45.95069" lon="4.74678">
        <ele>194</ele>
        <time>2018-04-05T08:52:24Z</time>
      </trkpt>
      <trkpt lat="45.95072" lon="4.74684">
        <ele>194</ele>
        <time>2018-04-05T08:52:25Z</time>
      </trkpt>
      <trkpt lat="45.95076" lon="4.7469">
        <ele>194</ele>
        <time>2018-04-05T08:52:26Z</time>
      </trkpt>
      <trkpt lat="45.95079" lon="4.74697">
        <ele>194</ele>
        <time>2018-04-05T08:52:27Z</time>
      </trkpt>
      <trkpt lat="45.95083" lon="4.74703">
        <ele>194</ele>
        <time>2018-04-05T08:52:28Z</time>
      </trkpt>
      <trkpt lat="45.95086" lon="4.7471">
        <ele>194</ele>
        <time>2018-04-05T08:52:29Z</time>
      </trkpt>
      <trkpt lat="45.95091" lon="4.74715">
        <ele>194</ele>
        <time>2018-04-05T08:52:30Z</time>
      </trkpt>
      <trkpt lat="45.95095" lon="4.74721">
        <ele>194</ele>
        <time>2018-04-05T08:52:31Z</time>
      </trkpt>
      <trkpt lat="45.95099" lon="4.74728">
        <ele>194</ele>
        <time>2018-04-05T08:52:32Z</time>
      </trkpt>
      <trkpt lat="45.95103" lon="4.74733">
        <ele>194</ele>
        <time>2018-04-05T08:52:33Z</time>
      </trkpt>
      <trkpt lat="45.95107" lon="4.74739">
        <ele>194</ele>
        <time>2018-04-05T08:52:34Z</time>
      </trkpt>
      <trkpt lat="45.95109" lon="4.74744">
        <ele>194</ele>
        <time>2018-04-05T08:52:35Z</time>
      </trkpt>
      <trkpt lat="45.95113" lon="4.74751">
        <ele>194</ele>
        <time>2018-04-05T08:52:36Z</time>
      </trkpt>
      <trkpt lat="45.95116" lon="4.74756">
        <ele>194</ele>
        <time>2018-04-05T08:52:37Z</time>
      </trkpt>
      <trkpt lat="45.9512" lon="4.74762">
        <ele>194</ele>
        <time>2018-04-05T08:52:38Z</time>
      </trkpt>
      <trkpt lat="45.95123" lon="4.74766">
        <ele>194</ele>
        <time>2018-04-05T08:52:39Z</time>
      </trkpt>
      <trkpt lat="45.95126" lon="4.74772">
        <ele>194</ele>
        <time>2018-04-05T08:52:40Z</time>
      </trkpt>
      <trkpt lat="45.9513" lon="4.74778">
        <ele>194</ele>
        <time>2018-04-05T08:52:41Z</time>
      </trkpt>
      <trkpt lat="45.95133" lon="4.74784">
        <ele>194</ele>
        <time>2018-04-05T08:52:42Z</time>
      </trkpt>
      <trkpt lat="45.95137" lon="4.74789">
        <ele>194</ele>
        <time>2018-04-05T08:52:43Z</time>
      </trkpt>
      <trkpt lat="45.9514" lon="4.74794">
        <ele>194</ele>
        <time>2018-04-05T08:52:44Z</time>
      </trkpt>
      <trkpt lat="45.95144" lon="4.748">
        <ele>194</ele>
        <time>2018-04-05T08:52:45Z</time>
      </trkpt>
      <trkpt lat="45.95147" lon="4.74806">
        <ele>194</ele>
        <time>2018-04-05T08:52:46Z</time>
      </trkpt>
      <trkpt lat="45.95151" lon="4.74811">
        <ele>194</ele>
        <time>2018-04-05T08:52:47Z</time>
      </trkpt>
      <trkpt lat="45.95155" lon="4.74817">
        <ele>194</ele>
        <time>2018-04-05T08:52:48Z</time>
      </trkpt>
      <trkpt lat="45.95159" lon="4.74822">
        <ele>194</ele>
        <time>2018-04-05T08:52:49Z</time>
      </trkpt>
      <trkpt lat="45.95162" lon="4.74827">
        <ele>194</ele>
        <time>2018-04-05T08:52:50Z</time>
      </trkpt>
      <trkpt lat="45.95166" lon="4.74834">
        <ele>194</ele>
        <time>2018-04-05T08:52:51Z</time>
      </trkpt>
      <trkpt lat="45.95169" lon="4.74839">
        <ele>194</ele>
        <time>2018-04-05T08:52:52Z</time>
      </trkpt>
      <trkpt lat="45.95173" lon="4.74845">
        <ele>194</ele>
        <time>2018-04-05T08:52:53Z</time>
      </trkpt>
      <trkpt lat="45.95178" lon="4.7485">
        <ele>194</ele>
        <time>2018-04-05T08:52:54Z</time>
      </trkpt>
      <trkpt lat="45.95181" lon="4.74856">
        <ele>194</ele>
        <time>2018-04-05T08:52:55Z</time>
      </trkpt>
      <trkpt lat="45.95185" lon="4.74862">
        <ele>194</ele>
        <time>2018-04-05T08:52:56Z</time>
      </trkpt>
      <trkpt lat="45.95189" lon="4.74868">
        <ele>194</ele>
        <time>2018-04-05T08:52:57Z</time>
      </trkpt>
      <trkpt lat="45.95192" lon="4.74875">
        <ele>194</ele>
        <time>2018-04-05T08:52:58Z</time>
      </trkpt>
      <trkpt lat="45.95196" lon="4.74881">
        <ele>194</ele>
        <time>2018-04-05T08:52:59Z</time>
      </trkpt>
      <trkpt lat="45.952" lon="4.74888">
        <ele>194</ele>
        <time>2018-04-05T08:53:00Z</time>
      </trkpt>
      <trkpt lat="45.95204" lon="4.74895">
        <ele>194</ele>
        <time>2018-04-05T08:53:01Z</time>
      </trkpt>
      <trkpt lat="45.95208" lon="4.74902">
        <ele>194</ele>
        <time>2018-04-05T08:53:02Z</time>
      </trkpt>
      <trkpt lat="45.95212" lon="4.74906">
        <ele>193</ele>
        <time>2018-04-05T08:53:03Z</time>
      </trkpt>
      <trkpt lat="45.95216" lon="4.74913">
        <ele>193</ele>
        <time>2018-04-05T08:53:04Z</time>
      </trkpt>
      <trkpt lat="45.9522" lon="4.74919">
        <ele>192</ele>
        <time>2018-04-05T08:53:05Z</time>
      </trkpt>
      <trkpt lat="45.95225" lon="4.74925">
        <ele>192</ele>
        <time>2018-04-05T08:53:06Z</time>
      </trkpt>
      <trkpt lat="45.95229" lon="4.74933">
        <ele>192</ele>
        <time>2018-04-05T08:53:07Z</time>
      </trkpt>
      <trkpt lat="45.95234" lon="4.7494">
        <ele>192</ele>
        <time>2018-04-05T08:53:08Z</time>
      </trkpt>
      <trkpt lat="45.95238" lon="4.74946">
        <ele>192</ele>
        <time>2018-04-05T08:53:09Z</time>
      </trkpt>
      <trkpt lat="45.95243" lon="4.74952">
        <ele>192</ele>
        <time>2018-04-05T08:53:10Z</time>
      </trkpt>
      <trkpt lat="45.95247" lon="4.74958">
        <ele>192</ele>
        <time>2018-04-05T08:53:11Z</time>
      </trkpt>
      <trkpt lat="45.95251" lon="4.74965">
        <ele>192</ele>
        <time>2018-04-05T08:53:12Z</time>
      </trkpt>
      <trkpt lat="45.95255" lon="4.74972">
        <ele>192</ele>
        <time>2018-04-05T08:53:13Z</time>
      </trkpt>
      <trkpt lat="45.95259" lon="4.74978">
        <ele>192</ele>
        <time>2018-04-05T08:53:14Z</time>
      </trkpt>
      <trkpt lat="45.95263" lon="4.74984">
        <ele>192</ele>
        <time>2018-04-05T08:53:15Z</time>
      </trkpt>
      <trkpt lat="45.95266" lon="4.7499">
        <ele>192</ele>
        <time>2018-04-05T08:53:16Z</time>
      </trkpt>
      <trkpt lat="45.9527" lon="4.74997">
        <ele>192</ele>
        <time>2018-04-05T08:53:17Z</time>
      </trkpt>
      <trkpt lat="45.95274" lon="4.75004">
        <ele>191</ele>
        <time>2018-04-05T08:53:18Z</time>
      </trkpt>
      <trkpt lat="45.95278" lon="4.75011">
        <ele>191</ele>
        <time>2018-04-05T08:53:19Z</time>
      </trkpt>
      <trkpt lat="45.95282" lon="4.75017">
        <ele>191</ele>
        <time>2018-04-05T08:53:20Z</time>
      </trkpt>
      <trkpt lat="45.95286" lon="4.75024">
        <ele>191</ele>
        <time>2018-04-05T08:53:21Z</time>
      </trkpt>
      <trkpt lat="45.9529" lon="4.75031">
        <ele>191</ele>
        <time>2018-04-05T08:53:22Z</time>
      </trkpt>
      <trkpt lat="45.95294" lon="4.75037">
        <ele>191</ele>
        <time>2018-04-05T08:53:23Z</time>
      </trkpt>
      <trkpt lat="45.95298" lon="4.75043">
        <ele>191</ele>
        <time>2018-04-05T08:53:24Z</time>
      </trkpt>
      <trkpt lat="45.95302" lon="4.75049">
        <ele>191</ele>
        <time>2018-04-05T08:53:25Z</time>
      </trkpt>
      <trkpt lat="45.95306" lon="4.75055">
        <ele>192</ele>
        <time>2018-04-05T08:53:26Z</time>
      </trkpt>
      <trkpt lat="45.9531" lon="4.75061">
        <ele>192</ele>
        <time>2018-04-05T08:53:27Z</time>
      </trkpt>
      <trkpt lat="45.95314" lon="4.75068">
        <ele>192</ele>
        <time>2018-04-05T08:53:28Z</time>
      </trkpt>
      <trkpt lat="45.95318" lon="4.75074">
        <ele>192</ele>
        <time>2018-04-05T08:53:29Z</time>
      </trkpt>
      <trkpt lat="45.95322" lon="4.75081">
        <ele>192</ele>
        <time>2018-04-05T08:53:30Z</time>
      </trkpt>
      <trkpt lat="45.95326" lon="4.75087">
        <ele>192</ele>
        <time>2018-04-05T08:53:31Z</time>
      </trkpt>
      <trkpt lat="45.95331" lon="4.75094">
        <ele>191</ele>
        <time>2018-04-05T08:53:32Z</time>
      </trkpt>
      <trkpt lat="45.95334" lon="4.751">
        <ele>192</ele>
        <time>2018-04-05T08:53:33Z</time>
      </trkpt>
      <trkpt lat="45.95338" lon="4.75106">
        <ele>192</ele>
        <time>2018-04-05T08:53:34Z</time>
      </trkpt>
      <trkpt lat="45.95342" lon="4.75111">
        <ele>192</ele>
        <time>2018-04-05T08:53:35Z</time>
      </trkpt>
      <trkpt lat="45.95346" lon="4.75118">
        <ele>191</ele>
        <time>2018-04-05T08:53:36Z</time>
      </trkpt>
      <trkpt lat="45.9535" lon="4.75125">
        <ele>191</ele>
        <time>2018-04-05T08:53:37Z</time>
      </trkpt>
      <trkpt lat="45.95354" lon="4.75131">
        <ele>191</ele>
        <time>2018-04-05T08:53:38Z</time>
      </trkpt>
      <trkpt lat="45.95357" lon="4.75138">
        <ele>191</ele>
        <time>2018-04-05T08:53:39Z</time>
      </trkpt>
      <trkpt lat="45.95361" lon="4.75144">
        <ele>191</ele>
        <time>2018-04-05T08:53:40Z</time>
      </trkpt>
      <trkpt lat="45.95365" lon="4.7515">
        <ele>191</ele>
        <time>2018-04-05T08:53:41Z</time>
      </trkpt>
      <trkpt lat="45.95369" lon="4.75156">
        <ele>191</ele>
        <time>2018-04-05T08:53:42Z</time>
      </trkpt>
      <trkpt lat="45.95374" lon="4.75163">
        <ele>191</ele>
        <time>2018-04-05T08:53:43Z</time>
      </trkpt>
      <trkpt lat="45.95378" lon="4.75169">
        <ele>189</ele>
        <time>2018-04-05T08:53:44Z</time>
      </trkpt>
      <trkpt lat="45.95382" lon="4.75176">
        <ele>189</ele>
        <time>2018-04-05T08:53:45Z</time>
      </trkpt>
      <trkpt lat="45.95386" lon="4.75183">
        <ele>189</ele>
        <time>2018-04-05T08:53:46Z</time>
      </trkpt>
      <trkpt lat="45.9539" lon="4.75189">
        <ele>189</ele>
        <time>2018-04-05T08:53:47Z</time>
      </trkpt>
      <trkpt lat="45.95394" lon="4.75196">
        <ele>189</ele>
        <time>2018-04-05T08:53:48Z</time>
      </trkpt>
      <trkpt lat="45.95398" lon="4.75203">
        <ele>189</ele>
        <time>2018-04-05T08:53:49Z</time>
      </trkpt>
      <trkpt lat="45.95402" lon="4.7521">
        <ele>189</ele>
        <time>2018-04-05T08:53:50Z</time>
      </trkpt>
      <trkpt lat="45.95407" lon="4.75217">
        <ele>189</ele>
        <time>2018-04-05T08:53:51Z</time>
      </trkpt>
      <trkpt lat="45.95411" lon="4.75225">
        <ele>189</ele>
        <time>2018-04-05T08:53:52Z</time>
      </trkpt>
      <trkpt lat="45.95415" lon="4.75232">
        <ele>189</ele>
        <time>2018-04-05T08:53:53Z</time>
      </trkpt>
      <trkpt lat="45.95418" lon="4.75239">
        <ele>190</ele>
        <time>2018-04-05T08:53:54Z</time>
      </trkpt>
      <trkpt lat="45.95422" lon="4.75247">
        <ele>190</ele>
        <time>2018-04-05T08:53:55Z</time>
      </trkpt>
      <trkpt lat="45.95425" lon="4.75254">
        <ele>189</ele>
        <time>2018-04-05T08:53:56Z</time>
      </trkpt>
      <trkpt lat="45.95429" lon="4.75261">
        <ele>189</ele>
        <time>2018-04-05T08:53:57Z</time>
      </trkpt>
      <trkpt lat="45.95433" lon="4.75269">
        <ele>189</ele>
        <time>2018-04-05T08:53:58Z</time>
      </trkpt>
      <trkpt lat="45.95437" lon="4.75276">
        <ele>188</ele>
        <time>2018-04-05T08:53:59Z</time>
      </trkpt>
      <trkpt lat="45.95441" lon="4.75283">
        <ele>188</ele>
        <time>2018-04-05T08:54:00Z</time>
      </trkpt>
      <trkpt lat="45.95445" lon="4.7529">
        <ele>188</ele>
        <time>2018-04-05T08:54:01Z</time>
      </trkpt>
      <trkpt lat="45.95449" lon="4.75297">
        <ele>188</ele>
        <time>2018-04-05T08:54:02Z</time>
      </trkpt>
      <trkpt lat="45.95452" lon="4.75304">
        <ele>188</ele>
        <time>2018-04-05T08:54:03Z</time>
      </trkpt>
      <trkpt lat="45.95456" lon="4.75312">
        <ele>188</ele>
        <time>2018-04-05T08:54:04Z</time>
      </trkpt>
      <trkpt lat="45.9546" lon="4.75319">
        <ele>188</ele>
        <time>2018-04-05T08:54:05Z</time>
      </trkpt>
      <trkpt lat="45.95463" lon="4.75326">
        <ele>188</ele>
        <time>2018-04-05T08:54:06Z</time>
      </trkpt>
      <trkpt lat="45.95467" lon="4.75333">
        <ele>188</ele>
        <time>2018-04-05T08:54:07Z</time>
      </trkpt>
      <trkpt lat="45.95471" lon="4.7534">
        <ele>186</ele>
        <time>2018-04-05T08:54:08Z</time>
      </trkpt>
      <trkpt lat="45.95475" lon="4.75347">
        <ele>186</ele>
        <time>2018-04-05T08:54:09Z</time>
      </trkpt>
      <trkpt lat="45.95479" lon="4.75355">
        <ele>186</ele>
        <time>2018-04-05T08:54:10Z</time>
      </trkpt>
      <trkpt lat="45.95483" lon="4.75362">
        <ele>186</ele>
        <time>2018-04-05T08:54:11Z</time>
      </trkpt>
      <trkpt lat="45.95487" lon="4.7537">
        <ele>185</ele>
        <time>2018-04-05T08:54:12Z</time>
      </trkpt>
      <trkpt lat="45.9549" lon="4.75377">
        <ele>185</ele>
        <time>2018-04-05T08:54:13Z</time>
      </trkpt>
      <trkpt lat="45.95493" lon="4.75385">
        <ele>185</ele>
        <time>2018-04-05T08:54:14Z</time>
      </trkpt>
      <trkpt lat="45.95497" lon="4.75393">
        <ele>185</ele>
        <time>2018-04-05T08:54:15Z</time>
      </trkpt>
      <trkpt lat="45.955" lon="4.75403">
        <ele>187</ele>
        <time>2018-04-05T08:54:16Z</time>
      </trkpt>
      <trkpt lat="45.95503" lon="4.75412">
        <ele>186</ele>
        <time>2018-04-05T08:54:17Z</time>
      </trkpt>
      <trkpt lat="45.95505" lon="4.75421">
        <ele>186</ele>
        <time>2018-04-05T08:54:18Z</time>
      </trkpt>
      <trkpt lat="45.95506" lon="4.7543">
        <ele>186</ele>
        <time>2018-04-05T08:54:19Z</time>
      </trkpt>
      <trkpt lat="45.95508" lon="4.75438">
        <ele>186</ele>
        <time>2018-04-05T08:54:20Z</time>
      </trkpt>
      <trkpt lat="45.95508" lon="4.75444">
        <ele>186</ele>
        <time>2018-04-05T08:54:21Z</time>
      </trkpt>
      <trkpt lat="45.95507" lon="4.75456">
        <ele>186</ele>
        <time>2018-04-05T08:54:27Z</time>
      </trkpt>
      <trkpt lat="45.95506" lon="4.75458">
        <ele>186</ele>
        <time>2018-04-05T08:54:28Z</time>
      </trkpt>
      <trkpt lat="45.95506" lon="4.75462">
        <ele>186</ele>
        <time>2018-04-05T08:54:29Z</time>
      </trkpt>
      <trkpt lat="45.95506" lon="4.75475">
        <ele>186</ele>
        <time>2018-04-05T08:54:30Z</time>
      </trkpt>
      <trkpt lat="45.95509" lon="4.75485">
        <ele>186</ele>
        <time>2018-04-05T08:54:32Z</time>
      </trkpt>
      <trkpt lat="45.95511" lon="4.75491">
        <ele>186</ele>
        <time>2018-04-05T08:54:33Z</time>
      </trkpt>
      <trkpt lat="45.95517" lon="4.755">
        <ele>185</ele>
        <time>2018-04-05T08:54:35Z</time>
      </trkpt>
      <trkpt lat="45.95521" lon="4.75503">
        <ele>185</ele>
        <time>2018-04-05T08:54:36Z</time>
      </trkpt>
      <trkpt lat="45.95525" lon="4.75506">
        <ele>185</ele>
        <time>2018-04-05T08:54:37Z</time>
      </trkpt>
      <trkpt lat="45.9553" lon="4.75507">
        <ele>185</ele>
        <time>2018-04-05T08:54:38Z</time>
      </trkpt>
      <trkpt lat="45.95535" lon="4.75511">
        <ele>186</ele>
        <time>2018-04-05T08:54:39Z</time>
      </trkpt>
      <trkpt lat="45.95538" lon="4.75515">
        <ele>186</ele>
        <time>2018-04-05T08:54:40Z</time>
      </trkpt>
      <trkpt lat="45.95542" lon="4.75519">
        <ele>186</ele>
        <time>2018-04-05T08:54:41Z</time>
      </trkpt>
      <trkpt lat="45.95546" lon="4.75523">
        <ele>186</ele>
        <time>2018-04-05T08:54:42Z</time>
      </trkpt>
      <trkpt lat="45.9555" lon="4.75527">
        <ele>186</ele>
        <time>2018-04-05T08:54:43Z</time>
      </trkpt>
      <trkpt lat="45.95555" lon="4.75531">
        <ele>186</ele>
        <time>2018-04-05T08:54:44Z</time>
      </trkpt>
      <trkpt lat="45.95559" lon="4.75535">
        <ele>186</ele>
        <time>2018-04-05T08:54:45Z</time>
      </trkpt>
      <trkpt lat="45.95564" lon="4.75539">
        <ele>186</ele>
        <time>2018-04-05T08:54:46Z</time>
      </trkpt>
      <trkpt lat="45.95569" lon="4.75543">
        <ele>186</ele>
        <time>2018-04-05T08:54:47Z</time>
      </trkpt>
      <trkpt lat="45.95573" lon="4.75547">
        <ele>186</ele>
        <time>2018-04-05T08:54:48Z</time>
      </trkpt>
      <trkpt lat="45.95577" lon="4.75552">
        <ele>186</ele>
        <time>2018-04-05T08:54:49Z</time>
      </trkpt>
      <trkpt lat="45.95581" lon="4.75558">
        <ele>186</ele>
        <time>2018-04-05T08:54:50Z</time>
      </trkpt>
      <trkpt lat="45.95585" lon="4.75563">
        <ele>188</ele>
        <time>2018-04-05T08:54:51Z</time>
      </trkpt>
      <trkpt lat="45.95588" lon="4.75567">
        <ele>188</ele>
        <time>2018-04-05T08:54:52Z</time>
      </trkpt>
      <trkpt lat="45.95591" lon="4.75573">
        <ele>187</ele>
        <time>2018-04-05T08:54:53Z</time>
      </trkpt>
      <trkpt lat="45.95594" lon="4.75578">
        <ele>187</ele>
        <time>2018-04-05T08:54:54Z</time>
      </trkpt>
      <trkpt lat="45.95597" lon="4.75584">
        <ele>187</ele>
        <time>2018-04-05T08:54:55Z</time>
      </trkpt>
      <trkpt lat="45.95599" lon="4.7559">
        <ele>187</ele>
        <time>2018-04-05T08:54:56Z</time>
      </trkpt>
      <trkpt lat="45.95602" lon="4.75595">
        <ele>187</ele>
        <time>2018-04-05T08:54:57Z</time>
      </trkpt>
      <trkpt lat="45.95604" lon="4.75602">
        <ele>187</ele>
        <time>2018-04-05T08:54:58Z</time>
      </trkpt>
      <trkpt lat="45.95606" lon="4.75608">
        <ele>187</ele>
        <time>2018-04-05T08:54:59Z</time>
      </trkpt>
      <trkpt lat="45.95608" lon="4.75615">
        <ele>188</ele>
        <time>2018-04-05T08:55:00Z</time>
      </trkpt>
      <trkpt lat="45.9561" lon="4.75622">
        <ele>188</ele>
        <time>2018-04-05T08:55:01Z</time>
      </trkpt>
      <trkpt lat="45.95612" lon="4.7563">
        <ele>188</ele>
        <time>2018-04-05T08:55:02Z</time>
      </trkpt>
      <trkpt lat="45.95614" lon="4.75638">
        <ele>188</ele>
        <time>2018-04-05T08:55:03Z</time>
      </trkpt>
      <trkpt lat="45.95616" lon="4.75646">
        <ele>188</ele>
        <time>2018-04-05T08:55:04Z</time>
      </trkpt>
      <trkpt lat="45.95617" lon="4.75655">
        <ele>188</ele>
        <time>2018-04-05T08:55:05Z</time>
      </trkpt>
      <trkpt lat="45.95619" lon="4.75663">
        <ele>188</ele>
        <time>2018-04-05T08:55:06Z</time>
      </trkpt>
      <trkpt lat="45.9562" lon="4.75672">
        <ele>187</ele>
        <time>2018-04-05T08:55:07Z</time>
      </trkpt>
      <trkpt lat="45.95621" lon="4.7568">
        <ele>187</ele>
        <time>2018-04-05T08:55:08Z</time>
      </trkpt>
      <trkpt lat="45.95622" lon="4.75689">
        <ele>187</ele>
        <time>2018-04-05T08:55:09Z</time>
      </trkpt>
      <trkpt lat="45.95624" lon="4.75697">
        <ele>187</ele>
        <time>2018-04-05T08:55:10Z</time>
      </trkpt>
      <trkpt lat="45.95624" lon="4.75705">
        <ele>187</ele>
        <time>2018-04-05T08:55:11Z</time>
      </trkpt>
      <trkpt lat="45.95625" lon="4.75712">
        <ele>187</ele>
        <time>2018-04-05T08:55:12Z</time>
      </trkpt>
      <trkpt lat="45.95626" lon="4.7572">
        <ele>187</ele>
        <time>2018-04-05T08:55:13Z</time>
      </trkpt>
      <trkpt lat="45.95628" lon="4.75728">
        <ele>187</ele>
        <time>2018-04-05T08:55:14Z</time>
      </trkpt>
      <trkpt lat="45.95628" lon="4.75735">
        <ele>187</ele>
        <time>2018-04-05T08:55:15Z</time>
      </trkpt>
      <trkpt lat="45.95629" lon="4.75744">
        <ele>187</ele>
        <time>2018-04-05T08:55:16Z</time>
      </trkpt>
      <trkpt lat="45.9563" lon="4.75752">
        <ele>186</ele>
        <time>2018-04-05T08:55:17Z</time>
      </trkpt>
      <trkpt lat="45.95632" lon="4.7576">
        <ele>186</ele>
        <time>2018-04-05T08:55:18Z</time>
      </trkpt>
      <trkpt lat="45.95633" lon="4.7577">
        <ele>186</ele>
        <time>2018-04-05T08:55:19Z</time>
      </trkpt>
      <trkpt lat="45.95634" lon="4.7578">
        <ele>185</ele>
        <time>2018-04-05T08:55:20Z</time>
      </trkpt>
      <trkpt lat="45.95636" lon="4.75789">
        <ele>185</ele>
        <time>2018-04-05T08:55:21Z</time>
      </trkpt>
      <trkpt lat="45.95638" lon="4.75797">
        <ele>185</ele>
        <time>2018-04-05T08:55:22Z</time>
      </trkpt>
      <trkpt lat="45.95639" lon="4.75807">
        <ele>185</ele>
        <time>2018-04-05T08:55:23Z</time>
      </trkpt>
      <trkpt lat="45.9564" lon="4.75817">
        <ele>185</ele>
        <time>2018-04-05T08:55:24Z</time>
      </trkpt>
      <trkpt lat="45.95642" lon="4.75826">
        <ele>185</ele>
        <time>2018-04-05T08:55:25Z</time>
      </trkpt>
      <trkpt lat="45.95644" lon="4.75835">
        <ele>184</ele>
        <time>2018-04-05T08:55:26Z</time>
      </trkpt>
      <trkpt lat="45.95647" lon="4.75844">
        <ele>184</ele>
        <time>2018-04-05T08:55:27Z</time>
      </trkpt>
      <trkpt lat="45.95649" lon="4.75853">
        <ele>184</ele>
        <time>2018-04-05T08:55:28Z</time>
      </trkpt>
      <trkpt lat="45.95652" lon="4.75861">
        <ele>184</ele>
        <time>2018-04-05T08:55:29Z</time>
      </trkpt>
      <trkpt lat="45.95655" lon="4.7587">
        <ele>184</ele>
        <time>2018-04-05T08:55:30Z</time>
      </trkpt>
      <trkpt lat="45.95657" lon="4.75879">
        <ele>184</ele>
        <time>2018-04-05T08:55:31Z</time>
      </trkpt>
      <trkpt lat="45.9566" lon="4.75887">
        <ele>184</ele>
        <time>2018-04-05T08:55:32Z</time>
      </trkpt>
      <trkpt lat="45.95663" lon="4.75895">
        <ele>184</ele>
        <time>2018-04-05T08:55:33Z</time>
      </trkpt>
      <trkpt lat="45.95666" lon="4.75904">
        <ele>184</ele>
        <time>2018-04-05T08:55:34Z</time>
      </trkpt>
      <trkpt lat="45.9567" lon="4.75912">
        <ele>185</ele>
        <time>2018-04-05T08:55:35Z</time>
      </trkpt>
      <trkpt lat="45.95673" lon="4.7592">
        <ele>184</ele>
        <time>2018-04-05T08:55:36Z</time>
      </trkpt>
      <trkpt lat="45.95677" lon="4.75927">
        <ele>185</ele>
        <time>2018-04-05T08:55:37Z</time>
      </trkpt>
      <trkpt lat="45.9568" lon="4.75935">
        <ele>185</ele>
        <time>2018-04-05T08:55:38Z</time>
      </trkpt>
      <trkpt lat="45.95684" lon="4.75943">
        <ele>185</ele>
        <time>2018-04-05T08:55:39Z</time>
      </trkpt>
      <trkpt lat="45.95688" lon="4.75949">
        <ele>185</ele>
        <time>2018-04-05T08:55:40Z</time>
      </trkpt>
      <trkpt lat="45.95692" lon="4.75957">
        <ele>185</ele>
        <time>2018-04-05T08:55:41Z</time>
      </trkpt>
      <trkpt lat="45.95695" lon="4.75964">
        <ele>185</ele>
        <time>2018-04-05T08:55:42Z</time>
      </trkpt>
      <trkpt lat="45.95698" lon="4.7597">
        <ele>185</ele>
        <time>2018-04-05T08:55:43Z</time>
      </trkpt>
      <trkpt lat="45.95701" lon="4.75977">
        <ele>185</ele>
        <time>2018-04-05T08:55:44Z</time>
      </trkpt>
      <trkpt lat="45.95705" lon="4.75985">
        <ele>185</ele>
        <time>2018-04-05T08:55:45Z</time>
      </trkpt>
      <trkpt lat="45.95708" lon="4.75992">
        <ele>185</ele>
        <time>2018-04-05T08:55:46Z</time>
      </trkpt>
      <trkpt lat="45.95711" lon="4.75999">
        <ele>185</ele>
        <time>2018-04-05T08:55:47Z</time>
      </trkpt>
      <trkpt lat="45.95715" lon="4.76007">
        <ele>184</ele>
        <time>2018-04-05T08:55:48Z</time>
      </trkpt>
      <trkpt lat="45.95718" lon="4.76014">
        <ele>184</ele>
        <time>2018-04-05T08:55:49Z</time>
      </trkpt>
      <trkpt lat="45.95721" lon="4.7602">
        <ele>184</ele>
        <time>2018-04-05T08:55:50Z</time>
      </trkpt>
      <trkpt lat="45.95723" lon="4.76027">
        <ele>184</ele>
        <time>2018-04-05T08:55:51Z</time>
      </trkpt>
      <trkpt lat="45.95726" lon="4.76035">
        <ele>184</ele>
        <time>2018-04-05T08:55:52Z</time>
      </trkpt>
      <trkpt lat="45.9573" lon="4.76041">
        <ele>184</ele>
        <time>2018-04-05T08:55:53Z</time>
      </trkpt>
      <trkpt lat="45.95733" lon="4.76048">
        <ele>184</ele>
        <time>2018-04-05T08:55:54Z</time>
      </trkpt>
      <trkpt lat="45.95736" lon="4.76056">
        <ele>184</ele>
        <time>2018-04-05T08:55:55Z</time>
      </trkpt>
      <trkpt lat="45.95739" lon="4.76063">
        <ele>184</ele>
        <time>2018-04-05T08:55:56Z</time>
      </trkpt>
      <trkpt lat="45.95741" lon="4.7607">
        <ele>185</ele>
        <time>2018-04-05T08:55:57Z</time>
      </trkpt>
      <trkpt lat="45.95744" lon="4.76077">
        <ele>185</ele>
        <time>2018-04-05T08:55:58Z</time>
      </trkpt>
      <trkpt lat="45.95747" lon="4.76084">
        <ele>185</ele>
        <time>2018-04-05T08:55:59Z</time>
      </trkpt>
      <trkpt lat="45.9575" lon="4.76091">
        <ele>185</ele>
        <time>2018-04-05T08:56:00Z</time>
      </trkpt>
      <trkpt lat="45.95752" lon="4.76098">
        <ele>186</ele>
        <time>2018-04-05T08:56:01Z</time>
      </trkpt>
      <trkpt lat="45.95754" lon="4.76106">
        <ele>186</ele>
        <time>2018-04-05T08:56:02Z</time>
      </trkpt>
      <trkpt lat="45.95755" lon="4.76114">
        <ele>186</ele>
        <time>2018-04-05T08:56:03Z</time>
      </trkpt>
      <trkpt lat="45.95757" lon="4.76121">
        <ele>186</ele>
        <time>2018-04-05T08:56:04Z</time>
      </trkpt>
      <trkpt lat="45.95758" lon="4.76129">
        <ele>186</ele>
        <time>2018-04-05T08:56:05Z</time>
      </trkpt>
      <trkpt lat="45.95758" lon="4.76138">
        <ele>186</ele>
        <time>2018-04-05T08:56:06Z</time>
      </trkpt>
      <trkpt lat="45.95759" lon="4.76146">
        <ele>186</ele>
        <time>2018-04-05T08:56:07Z</time>
      </trkpt>
      <trkpt lat="45.95759" lon="4.76154">
        <ele>186</ele>
        <time>2018-04-05T08:56:08Z</time>
      </trkpt>
      <trkpt lat="45.9576" lon="4.76163">
        <ele>186</ele>
        <time>2018-04-05T08:56:09Z</time>
      </trkpt>
      <trkpt lat="45.9576" lon="4.7617">
        <ele>185</ele>
        <time>2018-04-05T08:56:10Z</time>
      </trkpt>
      <trkpt lat="45.95761" lon="4.76179">
        <ele>185</ele>
        <time>2018-04-05T08:56:11Z</time>
      </trkpt>
      <trkpt lat="45.95761" lon="4.76187">
        <ele>186</ele>
        <time>2018-04-05T08:56:12Z</time>
      </trkpt>
      <trkpt lat="45.95761" lon="4.76196">
        <ele>186</ele>
        <time>2018-04-05T08:56:13Z</time>
      </trkpt>
      <trkpt lat="45.95762" lon="4.76204">
        <ele>186</ele>
        <time>2018-04-05T08:56:14Z</time>
      </trkpt>
      <trkpt lat="45.95763" lon="4.76212">
        <ele>186</ele>
        <time>2018-04-05T08:56:15Z</time>
      </trkpt>
      <trkpt lat="45.95763" lon="4.7622">
        <ele>186</ele>
        <time>2018-04-05T08:56:16Z</time>
      </trkpt>
      <trkpt lat="45.95764" lon="4.76228">
        <ele>186</ele>
        <time>2018-04-05T08:56:17Z</time>
      </trkpt>
      <trkpt lat="45.95764" lon="4.76236">
        <ele>186</ele>
        <time>2018-04-05T08:56:18Z</time>
      </trkpt>
      <trkpt lat="45.95765" lon="4.76244">
        <ele>185</ele>
        <time>2018-04-05T08:56:19Z</time>
      </trkpt>
      <trkpt lat="45.95766" lon="4.76251">
        <ele>185</ele>
        <time>2018-04-05T08:56:20Z</time>
      </trkpt>
      <trkpt lat="45.95766" lon="4.76261">
        <ele>185</ele>
        <time>2018-04-05T08:56:21Z</time>
      </trkpt>
      <trkpt lat="45.95767" lon="4.76269">
        <ele>186</ele>
        <time>2018-04-05T08:56:22Z</time>
      </trkpt>
      <trkpt lat="45.95767" lon="4.76279">
        <ele>186</ele>
        <time>2018-04-05T08:56:23Z</time>
      </trkpt>
      <trkpt lat="45.95768" lon="4.76287">
        <ele>186</ele>
        <time>2018-04-05T08:56:24Z</time>
      </trkpt>
      <trkpt lat="45.95768" lon="4.76296">
        <ele>186</ele>
        <time>2018-04-05T08:56:25Z</time>
      </trkpt>
      <trkpt lat="45.95768" lon="4.76305">
        <ele>186</ele>
        <time>2018-04-05T08:56:26Z</time>
      </trkpt>
      <trkpt lat="45.95769" lon="4.76314">
        <ele>185</ele>
        <time>2018-04-05T08:56:27Z</time>
      </trkpt>
      <trkpt lat="45.95769" lon="4.76323">
        <ele>185</ele>
        <time>2018-04-05T08:56:28Z</time>
      </trkpt>
      <trkpt lat="45.9577" lon="4.76332">
        <ele>185</ele>
        <time>2018-04-05T08:56:29Z</time>
      </trkpt>
      <trkpt lat="45.9577" lon="4.76343">
        <ele>186</ele>
        <time>2018-04-05T08:56:30Z</time>
      </trkpt>
      <trkpt lat="45.95771" lon="4.76352">
        <ele>186</ele>
        <time>2018-04-05T08:56:31Z</time>
      </trkpt>
      <trkpt lat="45.95771" lon="4.76362">
        <ele>186</ele>
        <time>2018-04-05T08:56:32Z</time>
      </trkpt>
      <trkpt lat="45.95771" lon="4.76372">
        <ele>186</ele>
        <time>2018-04-05T08:56:33Z</time>
      </trkpt>
      <trkpt lat="45.95771" lon="4.76382">
        <ele>186</ele>
        <time>2018-04-05T08:56:34Z</time>
      </trkpt>
      <trkpt lat="45.95772" lon="4.76391">
        <ele>186</ele>
        <time>2018-04-05T08:56:35Z</time>
      </trkpt>
      <trkpt lat="45.95773" lon="4.764">
        <ele>186</ele>
        <time>2018-04-05T08:56:36Z</time>
      </trkpt>
      <trkpt lat="45.95774" lon="4.7641">
        <ele>186</ele>
        <time>2018-04-05T08:56:37Z</time>
      </trkpt>
      <trkpt lat="45.95775" lon="4.7642">
        <ele>186</ele>
        <time>2018-04-05T08:56:38Z</time>
      </trkpt>
      <trkpt lat="45.95776" lon="4.76429">
        <ele>186</ele>
        <time>2018-04-05T08:56:39Z</time>
      </trkpt>
      <trkpt lat="45.95777" lon="4.76439">
        <ele>186</ele>
        <time>2018-04-05T08:56:40Z</time>
      </trkpt>
      <trkpt lat="45.95779" lon="4.76452">
        <ele>186</ele>
        <time>2018-04-05T08:56:41Z</time>
      </trkpt>
      <trkpt lat="45.95781" lon="4.76461">
        <ele>186</ele>
        <time>2018-04-05T08:56:42Z</time>
      </trkpt>
      <trkpt lat="45.95782" lon="4.76473">
        <ele>186</ele>
        <time>2018-04-05T08:56:43Z</time>
      </trkpt>
      <trkpt lat="45.95783" lon="4.76482">
        <ele>186</ele>
        <time>2018-04-05T08:56:44Z</time>
      </trkpt>
      <trkpt lat="45.95784" lon="4.76492">
        <ele>186</ele>
        <time>2018-04-05T08:56:45Z</time>
      </trkpt>
      <trkpt lat="45.95785" lon="4.76501">
        <ele>186</ele>
        <time>2018-04-05T08:56:46Z</time>
      </trkpt>
      <trkpt lat="45.95786" lon="4.76509">
        <ele>187</ele>
        <time>2018-04-05T08:56:47Z</time>
      </trkpt>
      <trkpt lat="45.95788" lon="4.76518">
        <ele>187</ele>
        <time>2018-04-05T08:56:48Z</time>
      </trkpt>
      <trkpt lat="45.95789" lon="4.76526">
        <ele>187</ele>
        <time>2018-04-05T08:56:49Z</time>
      </trkpt>
      <trkpt lat="45.95791" lon="4.76533">
        <ele>187</ele>
        <time>2018-04-05T08:56:50Z</time>
      </trkpt>
      <trkpt lat="45.95792" lon="4.76541">
        <ele>187</ele>
        <time>2018-04-05T08:56:51Z</time>
      </trkpt>
      <trkpt lat="45.95793" lon="4.76548">
        <ele>187</ele>
        <time>2018-04-05T08:56:52Z</time>
      </trkpt>
      <trkpt lat="45.95794" lon="4.76556">
        <ele>187</ele>
        <time>2018-04-05T08:56:53Z</time>
      </trkpt>
      <trkpt lat="45.95795" lon="4.76563">
        <ele>187</ele>
        <time>2018-04-05T08:56:54Z</time>
      </trkpt>
      <trkpt lat="45.95796" lon="4.7657">
        <ele>187</ele>
        <time>2018-04-05T08:56:55Z</time>
      </trkpt>
      <trkpt lat="45.95797" lon="4.76578">
        <ele>187</ele>
        <time>2018-04-05T08:56:56Z</time>
      </trkpt>
      <trkpt lat="45.95798" lon="4.76585">
        <ele>187</ele>
        <time>2018-04-05T08:56:57Z</time>
      </trkpt>
      <trkpt lat="45.95799" lon="4.76593">
        <ele>187</ele>
        <time>2018-04-05T08:56:58Z</time>
      </trkpt>
      <trkpt lat="45.95801" lon="4.76601">
        <ele>187</ele>
        <time>2018-04-05T08:56:59Z</time>
      </trkpt>
      <trkpt lat="45.95802" lon="4.76609">
        <ele>188</ele>
        <time>2018-04-05T08:57:00Z</time>
      </trkpt>
      <trkpt lat="45.95803" lon="4.76617">
        <ele>188</ele>
        <time>2018-04-05T08:57:01Z</time>
      </trkpt>
      <trkpt lat="45.95804" lon="4.76624">
        <ele>188</ele>
        <time>2018-04-05T08:57:02Z</time>
      </trkpt>
      <trkpt lat="45.95806" lon="4.76632">
        <ele>188</ele>
        <time>2018-04-05T08:57:03Z</time>
      </trkpt>
      <trkpt lat="45.95807" lon="4.7664">
        <ele>188</ele>
        <time>2018-04-05T08:57:04Z</time>
      </trkpt>
      <trkpt lat="45.95808" lon="4.76648">
        <ele>188</ele>
        <time>2018-04-05T08:57:05Z</time>
      </trkpt>
      <trkpt lat="45.95809" lon="4.76657">
        <ele>188</ele>
        <time>2018-04-05T08:57:06Z</time>
      </trkpt>
      <trkpt lat="45.9581" lon="4.76664">
        <ele>188</ele>
        <time>2018-04-05T08:57:07Z</time>
      </trkpt>
      <trkpt lat="45.95811" lon="4.76672">
        <ele>189</ele>
        <time>2018-04-05T08:57:08Z</time>
      </trkpt>
      <trkpt lat="45.95813" lon="4.76681">
        <ele>189</ele>
        <time>2018-04-05T08:57:09Z</time>
      </trkpt>
      <trkpt lat="45.95813" lon="4.76688">
        <ele>189</ele>
        <time>2018-04-05T08:57:10Z</time>
      </trkpt>
      <trkpt lat="45.95815" lon="4.76696">
        <ele>189</ele>
        <time>2018-04-05T08:57:11Z</time>
      </trkpt>
      <trkpt lat="45.95817" lon="4.76703">
        <ele>189</ele>
        <time>2018-04-05T08:57:12Z</time>
      </trkpt>
      <trkpt lat="45.95818" lon="4.76711">
        <ele>189</ele>
        <time>2018-04-05T08:57:13Z</time>
      </trkpt>
      <trkpt lat="45.95819" lon="4.76719">
        <ele>189</ele>
        <time>2018-04-05T08:57:14Z</time>
      </trkpt>
      <trkpt lat="45.9582" lon="4.76727">
        <ele>190</ele>
        <time>2018-04-05T08:57:15Z</time>
      </trkpt>
      <trkpt lat="45.95821" lon="4.76735">
        <ele>190</ele>
        <time>2018-04-05T08:57:16Z</time>
      </trkpt>
      <trkpt lat="45.95822" lon="4.76743">
        <ele>190</ele>
        <time>2018-04-05T08:57:17Z</time>
      </trkpt>
      <trkpt lat="45.95823" lon="4.7675">
        <ele>191</ele>
        <time>2018-04-05T08:57:18Z</time>
      </trkpt>
      <trkpt lat="45.95824" lon="4.76758">
        <ele>191</ele>
        <time>2018-04-05T08:57:19Z</time>
      </trkpt>
      <trkpt lat="45.95826" lon="4.76765">
        <ele>190</ele>
        <time>2018-04-05T08:57:20Z</time>
      </trkpt>
      <trkpt lat="45.95827" lon="4.76772">
        <ele>190</ele>
        <time>2018-04-05T08:57:21Z</time>
      </trkpt>
      <trkpt lat="45.95828" lon="4.7678">
        <ele>190</ele>
        <time>2018-04-05T08:57:22Z</time>
      </trkpt>
      <trkpt lat="45.95829" lon="4.76788">
        <ele>190</ele>
        <time>2018-04-05T08:57:23Z</time>
      </trkpt>
      <trkpt lat="45.95829" lon="4.76796">
        <ele>190</ele>
        <time>2018-04-05T08:57:24Z</time>
      </trkpt>
      <trkpt lat="45.95829" lon="4.76804">
        <ele>190</ele>
        <time>2018-04-05T08:57:25Z</time>
      </trkpt>
      <trkpt lat="45.95829" lon="4.76812">
        <ele>190</ele>
        <time>2018-04-05T08:57:26Z</time>
      </trkpt>
      <trkpt lat="45.95829" lon="4.76821">
        <ele>190</ele>
        <time>2018-04-05T08:57:27Z</time>
      </trkpt>
      <trkpt lat="45.95827" lon="4.7683">
        <ele>190</ele>
        <time>2018-04-05T08:57:28Z</time>
      </trkpt>
      <trkpt lat="45.95825" lon="4.76839">
        <ele>190</ele>
        <time>2018-04-05T08:57:29Z</time>
      </trkpt>
      <trkpt lat="45.95824" lon="4.76847">
        <ele>190</ele>
        <time>2018-04-05T08:57:30Z</time>
      </trkpt>
      <trkpt lat="45.95823" lon="4.76855">
        <ele>189</ele>
        <time>2018-04-05T08:57:31Z</time>
      </trkpt>
      <trkpt lat="45.95821" lon="4.76864">
        <ele>189</ele>
        <time>2018-04-05T08:57:32Z</time>
      </trkpt>
      <trkpt lat="45.95819" lon="4.76871">
        <ele>189</ele>
        <time>2018-04-05T08:57:33Z</time>
      </trkpt>
      <trkpt lat="45.95817" lon="4.76879">
        <ele>189</ele>
        <time>2018-04-05T08:57:34Z</time>
      </trkpt>
      <trkpt lat="45.95816" lon="4.76886">
        <ele>189</ele>
        <time>2018-04-05T08:57:35Z</time>
      </trkpt>
      <trkpt lat="45.95813" lon="4.76895">
        <ele>189</ele>
        <time>2018-04-05T08:57:36Z</time>
      </trkpt>
      <trkpt lat="45.95812" lon="4.76903">
        <ele>189</ele>
        <time>2018-04-05T08:57:37Z</time>
      </trkpt>
      <trkpt lat="45.9581" lon="4.76912">
        <ele>189</ele>
        <time>2018-04-05T08:57:38Z</time>
      </trkpt>
      <trkpt lat="45.95808" lon="4.7692">
        <ele>189</ele>
        <time>2018-04-05T08:57:39Z</time>
      </trkpt>
      <trkpt lat="45.95806" lon="4.76928">
        <ele>189</ele>
        <time>2018-04-05T08:57:40Z</time>
      </trkpt>
      <trkpt lat="45.95804" lon="4.76936">
        <ele>189</ele>
        <time>2018-04-05T08:57:41Z</time>
      </trkpt>
      <trkpt lat="45.95803" lon="4.76945">
        <ele>189</ele>
        <time>2018-04-05T08:57:42Z</time>
      </trkpt>
      <trkpt lat="45.95801" lon="4.76953">
        <ele>189</ele>
        <time>2018-04-05T08:57:43Z</time>
      </trkpt>
      <trkpt lat="45.95801" lon="4.76962">
        <ele>189</ele>
        <time>2018-04-05T08:57:44Z</time>
      </trkpt>
      <trkpt lat="45.95799" lon="4.76971">
        <ele>189</ele>
        <time>2018-04-05T08:57:45Z</time>
      </trkpt>
      <trkpt lat="45.95799" lon="4.7698">
        <ele>189</ele>
        <time>2018-04-05T08:57:46Z</time>
      </trkpt>
      <trkpt lat="45.95798" lon="4.76989">
        <ele>189</ele>
        <time>2018-04-05T08:57:47Z</time>
      </trkpt>
      <trkpt lat="45.95799" lon="4.76998">
        <ele>189</ele>
        <time>2018-04-05T08:57:48Z</time>
      </trkpt>
      <trkpt lat="45.95799" lon="4.77007">
        <ele>190</ele>
        <time>2018-04-05T08:57:49Z</time>
      </trkpt>
      <trkpt lat="45.95801" lon="4.77016">
        <ele>190</ele>
        <time>2018-04-05T08:57:50Z</time>
      </trkpt>
      <trkpt lat="45.95803" lon="4.77024">
        <ele>190</ele>
        <time>2018-04-05T08:57:51Z</time>
      </trkpt>
      <trkpt lat="45.95806" lon="4.77033">
        <ele>190</ele>
        <time>2018-04-05T08:57:52Z</time>
      </trkpt>
      <trkpt lat="45.9581" lon="4.77041">
        <ele>190</ele>
        <time>2018-04-05T08:57:53Z</time>
      </trkpt>
      <trkpt lat="45.95813" lon="4.77049">
        <ele>190</ele>
        <time>2018-04-05T08:57:54Z</time>
      </trkpt>
      <trkpt lat="45.95817" lon="4.77057">
        <ele>190</ele>
        <time>2018-04-05T08:57:55Z</time>
      </trkpt>
      <trkpt lat="45.95821" lon="4.77065">
        <ele>191</ele>
        <time>2018-04-05T08:57:56Z</time>
      </trkpt>
      <trkpt lat="45.95824" lon="4.77074">
        <ele>191</ele>
        <time>2018-04-05T08:57:57Z</time>
      </trkpt>
      <trkpt lat="45.95827" lon="4.77082">
        <ele>191</ele>
        <time>2018-04-05T08:57:58Z</time>
      </trkpt>
      <trkpt lat="45.95831" lon="4.7709">
        <ele>191</ele>
        <time>2018-04-05T08:57:59Z</time>
      </trkpt>
      <trkpt lat="45.95834" lon="4.77097">
        <ele>193</ele>
        <time>2018-04-05T08:58:00Z</time>
      </trkpt>
      <trkpt lat="45.95837" lon="4.77105">
        <ele>193</ele>
        <time>2018-04-05T08:58:01Z</time>
      </trkpt>
      <trkpt lat="45.95839" lon="4.77112">
        <ele>193</ele>
        <time>2018-04-05T08:58:02Z</time>
      </trkpt>
      <trkpt lat="45.95842" lon="4.7712">
        <ele>193</ele>
        <time>2018-04-05T08:58:03Z</time>
      </trkpt>
      <trkpt lat="45.95844" lon="4.77128">
        <ele>193</ele>
        <time>2018-04-05T08:58:04Z</time>
      </trkpt>
      <trkpt lat="45.95846" lon="4.77135">
        <ele>193</ele>
        <time>2018-04-05T08:58:05Z</time>
      </trkpt>
      <trkpt lat="45.95849" lon="4.77142">
        <ele>193</ele>
        <time>2018-04-05T08:58:06Z</time>
      </trkpt>
      <trkpt lat="45.95851" lon="4.7715">
        <ele>192</ele>
        <time>2018-04-05T08:58:07Z</time>
      </trkpt>
      <trkpt lat="45.95852" lon="4.77157">
        <ele>192</ele>
        <time>2018-04-05T08:58:08Z</time>
      </trkpt>
      <trkpt lat="45.95855" lon="4.77164">
        <ele>192</ele>
        <time>2018-04-05T08:58:09Z</time>
      </trkpt>
      <trkpt lat="45.95857" lon="4.77171">
        <ele>192</ele>
        <time>2018-04-05T08:58:10Z</time>
      </trkpt>
      <trkpt lat="45.95858" lon="4.77178">
        <ele>192</ele>
        <time>2018-04-05T08:58:11Z</time>
      </trkpt>
      <trkpt lat="45.9586" lon="4.77186">
        <ele>192</ele>
        <time>2018-04-05T08:58:12Z</time>
      </trkpt>
      <trkpt lat="45.95862" lon="4.77194">
        <ele>192</ele>
        <time>2018-04-05T08:58:13Z</time>
      </trkpt>
      <trkpt lat="45.95863" lon="4.77202">
        <ele>193</ele>
        <time>2018-04-05T08:58:14Z</time>
      </trkpt>
      <trkpt lat="45.95864" lon="4.7721">
        <ele>193</ele>
        <time>2018-04-05T08:58:15Z</time>
      </trkpt>
      <trkpt lat="45.95866" lon="4.77218">
        <ele>193</ele>
        <time>2018-04-05T08:58:16Z</time>
      </trkpt>
      <trkpt lat="45.95868" lon="4.77226">
        <ele>193</ele>
        <time>2018-04-05T08:58:17Z</time>
      </trkpt>
      <trkpt lat="45.9587" lon="4.77234">
        <ele>193</ele>
        <time>2018-04-05T08:58:18Z</time>
      </trkpt>
      <trkpt lat="45.95872" lon="4.77242">
        <ele>193</ele>
        <time>2018-04-05T08:58:19Z</time>
      </trkpt>
      <trkpt lat="45.95874" lon="4.7725">
        <ele>193</ele>
        <time>2018-04-05T08:58:20Z</time>
      </trkpt>
      <trkpt lat="45.95875" lon="4.77259">
        <ele>193</ele>
        <time>2018-04-05T08:58:21Z</time>
      </trkpt>
      <trkpt lat="45.95877" lon="4.77267">
        <ele>193</ele>
        <time>2018-04-05T08:58:22Z</time>
      </trkpt>
      <trkpt lat="45.95879" lon="4.77275">
        <ele>193</ele>
        <time>2018-04-05T08:58:23Z</time>
      </trkpt>
      <trkpt lat="45.9588" lon="4.77283">
        <ele>193</ele>
        <time>2018-04-05T08:58:24Z</time>
      </trkpt>
      <trkpt lat="45.95882" lon="4.7729">
        <ele>193</ele>
        <time>2018-04-05T08:58:25Z</time>
      </trkpt>
      <trkpt lat="45.95884" lon="4.77298">
        <ele>193</ele>
        <time>2018-04-05T08:58:26Z</time>
      </trkpt>
      <trkpt lat="45.95886" lon="4.77305">
        <ele>193</ele>
        <time>2018-04-05T08:58:27Z</time>
      </trkpt>
      <trkpt lat="45.95887" lon="4.77313">
        <ele>193</ele>
        <time>2018-04-05T08:58:28Z</time>
      </trkpt>
      <trkpt lat="45.9589" lon="4.77322">
        <ele>193</ele>
        <time>2018-04-05T08:58:29Z</time>
      </trkpt>
      <trkpt lat="45.95892" lon="4.77329">
        <ele>193</ele>
        <time>2018-04-05T08:58:30Z</time>
      </trkpt>
      <trkpt lat="45.95895" lon="4.77337">
        <ele>193</ele>
        <time>2018-04-05T08:58:31Z</time>
      </trkpt>
      <trkpt lat="45.95897" lon="4.77344">
        <ele>193</ele>
        <time>2018-04-05T08:58:32Z</time>
      </trkpt>
      <trkpt lat="45.959" lon="4.7735">
        <ele>193</ele>
        <time>2018-04-05T08:58:33Z</time>
      </trkpt>
      <trkpt lat="45.95902" lon="4.77358">
        <ele>193</ele>
        <time>2018-04-05T08:58:34Z</time>
      </trkpt>
      <trkpt lat="45.95905" lon="4.77365">
        <ele>193</ele>
        <time>2018-04-05T08:58:35Z</time>
      </trkpt>
      <trkpt lat="45.95908" lon="4.77371">
        <ele>193</ele>
        <time>2018-04-05T08:58:36Z</time>
      </trkpt>
      <trkpt lat="45.9591" lon="4.77379">
        <ele>193</ele>
        <time>2018-04-05T08:58:37Z</time>
      </trkpt>
      <trkpt lat="45.95912" lon="4.77387">
        <ele>193</ele>
        <time>2018-04-05T08:58:38Z</time>
      </trkpt>
      <trkpt lat="45.95914" lon="4.77392">
        <ele>193</ele>
        <time>2018-04-05T08:58:39Z</time>
      </trkpt>
      <trkpt lat="45.95917" lon="4.77399">
        <ele>196</ele>
        <time>2018-04-05T08:58:40Z</time>
      </trkpt>
      <trkpt lat="45.9592" lon="4.77406">
        <ele>195</ele>
        <time>2018-04-05T08:58:41Z</time>
      </trkpt>
      <trkpt lat="45.95922" lon="4.77413">
        <ele>195</ele>
        <time>2018-04-05T08:58:42Z</time>
      </trkpt>
      <trkpt lat="45.95925" lon="4.77419">
        <ele>195</ele>
        <time>2018-04-05T08:58:43Z</time>
      </trkpt>
      <trkpt lat="45.95928" lon="4.77427">
        <ele>195</ele>
        <time>2018-04-05T08:58:44Z</time>
      </trkpt>
      <trkpt lat="45.9593" lon="4.77434">
        <ele>195</ele>
        <time>2018-04-05T08:58:45Z</time>
      </trkpt>
      <trkpt lat="45.95932" lon="4.77441">
        <ele>195</ele>
        <time>2018-04-05T08:58:46Z</time>
      </trkpt>
      <trkpt lat="45.95935" lon="4.77448">
        <ele>195</ele>
        <time>2018-04-05T08:58:47Z</time>
      </trkpt>
      <trkpt lat="45.95937" lon="4.77454">
        <ele>195</ele>
        <time>2018-04-05T08:58:48Z</time>
      </trkpt>
      <trkpt lat="45.9594" lon="4.7746">
        <ele>195</ele>
        <time>2018-04-05T08:58:49Z</time>
      </trkpt>
      <trkpt lat="45.95943" lon="4.77466">
        <ele>195</ele>
        <time>2018-04-05T08:58:50Z</time>
      </trkpt>
      <trkpt lat="45.95945" lon="4.77472">
        <ele>195</ele>
        <time>2018-04-05T08:58:51Z</time>
      </trkpt>
      <trkpt lat="45.95947" lon="4.77479">
        <ele>195</ele>
        <time>2018-04-05T08:58:52Z</time>
      </trkpt>
      <trkpt lat="45.95949" lon="4.77485">
        <ele>195</ele>
        <time>2018-04-05T08:58:53Z</time>
      </trkpt>
      <trkpt lat="45.95952" lon="4.77491">
        <ele>195</ele>
        <time>2018-04-05T08:58:54Z</time>
      </trkpt>
      <trkpt lat="45.95954" lon="4.77496">
        <ele>196</ele>
        <time>2018-04-05T08:58:55Z</time>
      </trkpt>
      <trkpt lat="45.95956" lon="4.77502">
        <ele>195</ele>
        <time>2018-04-05T08:58:56Z</time>
      </trkpt>
      <trkpt lat="45.95959" lon="4.77507">
        <ele>195</ele>
        <time>2018-04-05T08:58:57Z</time>
      </trkpt>
      <trkpt lat="45.95964" lon="4.77517">
        <ele>195</ele>
        <time>2018-04-05T08:58:59Z</time>
      </trkpt>
      <trkpt lat="45.95966" lon="4.77523">
        <ele>195</ele>
        <time>2018-04-05T08:59:00Z</time>
      </trkpt>
      <trkpt lat="45.95971" lon="4.77532">
        <ele>195</ele>
        <time>2018-04-05T08:59:02Z</time>
      </trkpt>
      <trkpt lat="45.95973" lon="4.77537">
        <ele>195</ele>
        <time>2018-04-05T08:59:03Z</time>
      </trkpt>
      <trkpt lat="45.95977" lon="4.77541">
        <ele>196</ele>
        <time>2018-04-05T08:59:04Z</time>
      </trkpt>
      <trkpt lat="45.9598" lon="4.77547">
        <ele>196</ele>
        <time>2018-04-05T08:59:05Z</time>
      </trkpt>
      <trkpt lat="45.95983" lon="4.77552">
        <ele>196</ele>
        <time>2018-04-05T08:59:06Z</time>
      </trkpt>
      <trkpt lat="45.95986" lon="4.77558">
        <ele>196</ele>
        <time>2018-04-05T08:59:07Z</time>
      </trkpt>
      <trkpt lat="45.95987" lon="4.77566">
        <ele>196</ele>
        <time>2018-04-05T08:59:08Z</time>
      </trkpt>
      <trkpt lat="45.9599" lon="4.77573">
        <ele>196</ele>
        <time>2018-04-05T08:59:09Z</time>
      </trkpt>
      <trkpt lat="45.95993" lon="4.77581">
        <ele>196</ele>
        <time>2018-04-05T08:59:10Z</time>
      </trkpt>
      <trkpt lat="45.95997" lon="4.77588">
        <ele>196</ele>
        <time>2018-04-05T08:59:11Z</time>
      </trkpt>
      <trkpt lat="45.96" lon="4.77594">
        <ele>198</ele>
        <time>2018-04-05T08:59:12Z</time>
      </trkpt>
      <trkpt lat="45.96004" lon="4.776">
        <ele>198</ele>
        <time>2018-04-05T08:59:13Z</time>
      </trkpt>
      <trkpt lat="45.96008" lon="4.77605">
        <ele>199</ele>
        <time>2018-04-05T08:59:14Z</time>
      </trkpt>
      <trkpt lat="45.96013" lon="4.7761">
        <ele>199</ele>
        <time>2018-04-05T08:59:15Z</time>
      </trkpt>
      <trkpt lat="45.96017" lon="4.77615">
        <ele>199</ele>
        <time>2018-04-05T08:59:16Z</time>
      </trkpt>
      <trkpt lat="45.96021" lon="4.7762">
        <ele>199</ele>
        <time>2018-04-05T08:59:17Z</time>
      </trkpt>
      <trkpt lat="45.96025" lon="4.77625">
        <ele>199</ele>
        <time>2018-04-05T08:59:18Z</time>
      </trkpt>
      <trkpt lat="45.96029" lon="4.7763">
        <ele>199</ele>
        <time>2018-04-05T08:59:19Z</time>
      </trkpt>
      <trkpt lat="45.96035" lon="4.77639">
        <ele>199</ele>
        <time>2018-04-05T08:59:21Z</time>
      </trkpt>
      <trkpt lat="45.96039" lon="4.77643">
        <ele>199</ele>
        <time>2018-04-05T08:59:22Z</time>
      </trkpt>
      <trkpt lat="45.96042" lon="4.77648">
        <ele>199</ele>
        <time>2018-04-05T08:59:23Z</time>
      </trkpt>
      <trkpt lat="45.96047" lon="4.77652">
        <ele>199</ele>
        <time>2018-04-05T08:59:24Z</time>
      </trkpt>
      <trkpt lat="45.9605" lon="4.77657">
        <ele>200</ele>
        <time>2018-04-05T08:59:25Z</time>
      </trkpt>
      <trkpt lat="45.96053" lon="4.77662">
        <ele>200</ele>
        <time>2018-04-05T08:59:26Z</time>
      </trkpt>
      <trkpt lat="45.96057" lon="4.77666">
        <ele>200</ele>
        <time>2018-04-05T08:59:27Z</time>
      </trkpt>
      <trkpt lat="45.96061" lon="4.77671">
        <ele>198</ele>
        <time>2018-04-05T08:59:28Z</time>
      </trkpt>
      <trkpt lat="45.96065" lon="4.77676">
        <ele>198</ele>
        <time>2018-04-05T08:59:29Z</time>
      </trkpt>
      <trkpt lat="45.96069" lon="4.77681">
        <ele>198</ele>
        <time>2018-04-05T08:59:30Z</time>
      </trkpt>
      <trkpt lat="45.96072" lon="4.77687">
        <ele>198</ele>
        <time>2018-04-05T08:59:31Z</time>
      </trkpt>
      <trkpt lat="45.96076" lon="4.77693">
        <ele>197</ele>
        <time>2018-04-05T08:59:32Z</time>
      </trkpt>
      <trkpt lat="45.96079" lon="4.77699">
        <ele>197</ele>
        <time>2018-04-05T08:59:33Z</time>
      </trkpt>
      <trkpt lat="45.96083" lon="4.77706">
        <ele>197</ele>
        <time>2018-04-05T08:59:34Z</time>
      </trkpt>
      <trkpt lat="45.96086" lon="4.77712">
        <ele>200</ele>
        <time>2018-04-05T08:59:35Z</time>
      </trkpt>
      <trkpt lat="45.96089" lon="4.77718">
        <ele>199</ele>
        <time>2018-04-05T08:59:36Z</time>
      </trkpt>
      <trkpt lat="45.96093" lon="4.77722">
        <ele>199</ele>
        <time>2018-04-05T08:59:37Z</time>
      </trkpt>
      <trkpt lat="45.96096" lon="4.77727">
        <ele>199</ele>
        <time>2018-04-05T08:59:38Z</time>
      </trkpt>
      <trkpt lat="45.96099" lon="4.77733">
        <ele>199</ele>
        <time>2018-04-05T08:59:39Z</time>
      </trkpt>
      <trkpt lat="45.96102" lon="4.77739">
        <ele>198</ele>
        <time>2018-04-05T08:59:40Z</time>
      </trkpt>
      <trkpt lat="45.96105" lon="4.77744">
        <ele>198</ele>
        <time>2018-04-05T08:59:41Z</time>
      </trkpt>
      <trkpt lat="45.96108" lon="4.7775">
        <ele>199</ele>
        <time>2018-04-05T08:59:42Z</time>
      </trkpt>
      <trkpt lat="45.96111" lon="4.77755">
        <ele>197</ele>
        <time>2018-04-05T08:59:43Z</time>
      </trkpt>
      <trkpt lat="45.96114" lon="4.77761">
        <ele>197</ele>
        <time>2018-04-05T08:59:44Z</time>
      </trkpt>
      <trkpt lat="45.96118" lon="4.77766">
        <ele>197</ele>
        <time>2018-04-05T08:59:45Z</time>
      </trkpt>
      <trkpt lat="45.96121" lon="4.77772">
        <ele>197</ele>
        <time>2018-04-05T08:59:46Z</time>
      </trkpt>
      <trkpt lat="45.96125" lon="4.77778">
        <ele>197</ele>
        <time>2018-04-05T08:59:47Z</time>
      </trkpt>
      <trkpt lat="45.96128" lon="4.77783">
        <ele>197</ele>
        <time>2018-04-05T08:59:48Z</time>
      </trkpt>
      <trkpt lat="45.96131" lon="4.77788">
        <ele>198</ele>
        <time>2018-04-05T08:59:49Z</time>
      </trkpt>
      <trkpt lat="45.96134" lon="4.77793">
        <ele>198</ele>
        <time>2018-04-05T08:59:50Z</time>
      </trkpt>
      <trkpt lat="45.96137" lon="4.77799">
        <ele>198</ele>
        <time>2018-04-05T08:59:51Z</time>
      </trkpt>
      <trkpt lat="45.96141" lon="4.77804">
        <ele>198</ele>
        <time>2018-04-05T08:59:52Z</time>
      </trkpt>
      <trkpt lat="45.96144" lon="4.7781">
        <ele>198</ele>
        <time>2018-04-05T08:59:53Z</time>
      </trkpt>
      <trkpt lat="45.96147" lon="4.77816">
        <ele>198</ele>
        <time>2018-04-05T08:59:54Z</time>
      </trkpt>
      <trkpt lat="45.9615" lon="4.77821">
        <ele>198</ele>
        <time>2018-04-05T08:59:55Z</time>
      </trkpt>
      <trkpt lat="45.96154" lon="4.77827">
        <ele>198</ele>
        <time>2018-04-05T08:59:56Z</time>
      </trkpt>
      <trkpt lat="45.96158" lon="4.77834">
        <ele>197</ele>
        <time>2018-04-05T08:59:57Z</time>
      </trkpt>
      <trkpt lat="45.96162" lon="4.7784">
        <ele>198</ele>
        <time>2018-04-05T08:59:58Z</time>
      </trkpt>
      <trkpt lat="45.96166" lon="4.77845">
        <ele>197</ele>
        <time>2018-04-05T08:59:59Z</time>
      </trkpt>
      <trkpt lat="45.96169" lon="4.77851">
        <ele>201</ele>
        <time>2018-04-05T09:00:00Z</time>
      </trkpt>
      <trkpt lat="45.96173" lon="4.77857">
        <ele>201</ele>
        <time>2018-04-05T09:00:01Z</time>
      </trkpt>
      <trkpt lat="45.96175" lon="4.77863">
        <ele>201</ele>
        <time>2018-04-05T09:00:02Z</time>
      </trkpt>
      <trkpt lat="45.96179" lon="4.77869">
        <ele>201</ele>
        <time>2018-04-05T09:00:03Z</time>
      </trkpt>
      <trkpt lat="45.96182" lon="4.77874">
        <ele>201</ele>
        <time>2018-04-05T09:00:04Z</time>
      </trkpt>
      <trkpt lat="45.96185" lon="4.7788">
        <ele>201</ele>
        <time>2018-04-05T09:00:05Z</time>
      </trkpt>
      <trkpt lat="45.96189" lon="4.77885">
        <ele>201</ele>
        <time>2018-04-05T09:00:06Z</time>
      </trkpt>
      <trkpt lat="45.96193" lon="4.77892">
        <ele>201</ele>
        <time>2018-04-05T09:00:07Z</time>
      </trkpt>
      <trkpt lat="45.96197" lon="4.77899">
        <ele>201</ele>
        <time>2018-04-05T09:00:08Z</time>
      </trkpt>
      <trkpt lat="45.962" lon="4.77905">
        <ele>201</ele>
        <time>2018-04-05T09:00:09Z</time>
      </trkpt>
      <trkpt lat="45.96205" lon="4.77912">
        <ele>202</ele>
        <time>2018-04-05T09:00:10Z</time>
      </trkpt>
      <trkpt lat="45.96209" lon="4.77917">
        <ele>202</ele>
        <time>2018-04-05T09:00:11Z</time>
      </trkpt>
      <trkpt lat="45.96212" lon="4.77922">
        <ele>199</ele>
        <time>2018-04-05T09:00:12Z</time>
      </trkpt>
      <trkpt lat="45.96216" lon="4.77928">
        <ele>200</ele>
        <time>2018-04-05T09:00:13Z</time>
      </trkpt>
      <trkpt lat="45.96219" lon="4.77934">
        <ele>200</ele>
        <time>2018-04-05T09:00:14Z</time>
      </trkpt>
      <trkpt lat="45.96223" lon="4.7794">
        <ele>200</ele>
        <time>2018-04-05T09:00:15Z</time>
      </trkpt>
      <trkpt lat="45.96228" lon="4.77945">
        <ele>200</ele>
        <time>2018-04-05T09:00:16Z</time>
      </trkpt>
      <trkpt lat="45.96232" lon="4.7795">
        <ele>200</ele>
        <time>2018-04-05T09:00:17Z</time>
      </trkpt>
      <trkpt lat="45.96237" lon="4.77956">
        <ele>199</ele>
        <time>2018-04-05T09:00:18Z</time>
      </trkpt>
      <trkpt lat="45.96241" lon="4.7796">
        <ele>199</ele>
        <time>2018-04-05T09:00:19Z</time>
      </trkpt>
      <trkpt lat="45.96247" lon="4.77965">
        <ele>199</ele>
        <time>2018-04-05T09:00:20Z</time>
      </trkpt>
      <trkpt lat="45.96251" lon="4.77968">
        <ele>203</ele>
        <time>2018-04-05T09:00:21Z</time>
      </trkpt>
      <trkpt lat="45.96257" lon="4.77971">
        <ele>203</ele>
        <time>2018-04-05T09:00:22Z</time>
      </trkpt>
      <trkpt lat="45.96261" lon="4.77976">
        <ele>203</ele>
        <time>2018-04-05T09:00:23Z</time>
      </trkpt>
      <trkpt lat="45.96267" lon="4.7798">
        <ele>203</ele>
        <time>2018-04-05T09:00:24Z</time>
      </trkpt>
      <trkpt lat="45.96271" lon="4.77987">
        <ele>202</ele>
        <time>2018-04-05T09:00:25Z</time>
      </trkpt>
      <trkpt lat="45.96276" lon="4.77993">
        <ele>203</ele>
        <time>2018-04-05T09:00:26Z</time>
      </trkpt>
      <trkpt lat="45.96282" lon="4.77999">
        <ele>203</ele>
        <time>2018-04-05T09:00:27Z</time>
      </trkpt>
      <trkpt lat="45.96287" lon="4.78004">
        <ele>199</ele>
        <time>2018-04-05T09:00:28Z</time>
      </trkpt>
      <trkpt lat="45.96292" lon="4.78008">
        <ele>199</ele>
        <time>2018-04-05T09:00:29Z</time>
      </trkpt>
      <trkpt lat="45.96297" lon="4.78011">
        <ele>199</ele>
        <time>2018-04-05T09:00:30Z</time>
      </trkpt>
      <trkpt lat="45.96302" lon="4.78016">
        <ele>200</ele>
        <time>2018-04-05T09:00:31Z</time>
      </trkpt>
      <trkpt lat="45.96306" lon="4.78021">
        <ele>200</ele>
        <time>2018-04-05T09:00:32Z</time>
      </trkpt>
      <trkpt lat="45.96311" lon="4.78027">
        <ele>200</ele>
        <time>2018-04-05T09:00:33Z</time>
      </trkpt>
      <trkpt lat="45.96316" lon="4.78032">
        <ele>200</ele>
        <time>2018-04-05T09:00:34Z</time>
      </trkpt>
      <trkpt lat="45.9632" lon="4.78038">
        <ele>199</ele>
        <time>2018-04-05T09:00:35Z</time>
      </trkpt>
      <trkpt lat="45.96324" lon="4.78042">
        <ele>199</ele>
        <time>2018-04-05T09:00:36Z</time>
      </trkpt>
      <trkpt lat="45.96328" lon="4.78047">
        <ele>199</ele>
        <time>2018-04-05T09:00:37Z</time>
      </trkpt>
      <trkpt lat="45.96333" lon="4.78052">
        <ele>199</ele>
        <time>2018-04-05T09:00:38Z</time>
      </trkpt>
      <trkpt lat="45.96337" lon="4.78057">
        <ele>202</ele>
        <time>2018-04-05T09:00:39Z</time>
      </trkpt>
      <trkpt lat="45.96341" lon="4.78061">
        <ele>202</ele>
        <time>2018-04-05T09:00:40Z</time>
      </trkpt>
      <trkpt lat="45.96345" lon="4.78065">
        <ele>202</ele>
        <time>2018-04-05T09:00:41Z</time>
      </trkpt>
      <trkpt lat="45.96349" lon="4.7807">
        <ele>201</ele>
        <time>2018-04-05T09:00:42Z</time>
      </trkpt>
      <trkpt lat="45.96353" lon="4.78074">
        <ele>201</ele>
        <time>2018-04-05T09:00:43Z</time>
      </trkpt>
      <trkpt lat="45.96356" lon="4.78078">
        <ele>202</ele>
        <time>2018-04-05T09:00:44Z</time>
      </trkpt>
      <trkpt lat="45.9636" lon="4.78083">
        <ele>202</ele>
        <time>2018-04-05T09:00:45Z</time>
      </trkpt>
      <trkpt lat="45.96364" lon="4.78087">
        <ele>199</ele>
        <time>2018-04-05T09:00:46Z</time>
      </trkpt>
      <trkpt lat="45.96368" lon="4.78092">
        <ele>199</ele>
        <time>2018-04-05T09:00:47Z</time>
      </trkpt>
      <trkpt lat="45.96372" lon="4.78095">
        <ele>199</ele>
        <time>2018-04-05T09:00:48Z</time>
      </trkpt>
      <trkpt lat="45.96376" lon="4.78099">
        <ele>200</ele>
        <time>2018-04-05T09:00:49Z</time>
      </trkpt>
      <trkpt lat="45.9638" lon="4.78103">
        <ele>200</ele>
        <time>2018-04-05T09:00:50Z</time>
      </trkpt>
      <trkpt lat="45.96384" lon="4.78108">
        <ele>200</ele>
        <time>2018-04-05T09:00:51Z</time>
      </trkpt>
      <trkpt lat="45.96388" lon="4.7811">
        <ele>200</ele>
        <time>2018-04-05T09:00:52Z</time>
      </trkpt>
      <trkpt lat="45.96392" lon="4.78114">
        <ele>200</ele>
        <time>2018-04-05T09:00:53Z</time>
      </trkpt>
      <trkpt lat="45.96395" lon="4.7812">
        <ele>200</ele>
        <time>2018-04-05T09:00:54Z</time>
      </trkpt>
      <trkpt lat="45.96399" lon="4.78123">
        <ele>200</ele>
        <time>2018-04-05T09:00:55Z</time>
      </trkpt>
      <trkpt lat="45.96404" lon="4.78127">
        <ele>200</ele>
        <time>2018-04-05T09:00:56Z</time>
      </trkpt>
      <trkpt lat="45.96408" lon="4.78131">
        <ele>199</ele>
        <time>2018-04-05T09:00:57Z</time>
      </trkpt>
      <trkpt lat="45.96412" lon="4.78135">
        <ele>199</ele>
        <time>2018-04-05T09:00:58Z</time>
      </trkpt>
      <trkpt lat="45.96418" lon="4.7814">
        <ele>203</ele>
        <time>2018-04-05T09:00:59Z</time>
      </trkpt>
      <trkpt lat="45.96421" lon="4.78145">
        <ele>202</ele>
        <time>2018-04-05T09:01:00Z</time>
      </trkpt>
      <trkpt lat="45.96426" lon="4.7815">
        <ele>202</ele>
        <time>2018-04-05T09:01:01Z</time>
      </trkpt>
      <trkpt lat="45.96431" lon="4.78155">
        <ele>202</ele>
        <time>2018-04-05T09:01:02Z</time>
      </trkpt>
      <trkpt lat="45.96435" lon="4.7816">
        <ele>202</ele>
        <time>2018-04-05T09:01:03Z</time>
      </trkpt>
      <trkpt lat="45.96441" lon="4.78164">
        <ele>203</ele>
        <time>2018-04-05T09:01:04Z</time>
      </trkpt>
      <trkpt lat="45.96447" lon="4.78169">
        <ele>199</ele>
        <time>2018-04-05T09:01:05Z</time>
      </trkpt>
      <trkpt lat="45.96452" lon="4.78173">
        <ele>200</ele>
        <time>2018-04-05T09:01:06Z</time>
      </trkpt>
      <trkpt lat="45.96457" lon="4.78178">
        <ele>200</ele>
        <time>2018-04-05T09:01:07Z</time>
      </trkpt>
      <trkpt lat="45.96462" lon="4.78181">
        <ele>200</ele>
        <time>2018-04-05T09:01:08Z</time>
      </trkpt>
      <trkpt lat="45.96467" lon="4.78185">
        <ele>200</ele>
        <time>2018-04-05T09:01:09Z</time>
      </trkpt>
      <trkpt lat="45.96474" lon="4.78188">
        <ele>200</ele>
        <time>2018-04-05T09:01:10Z</time>
      </trkpt>
      <trkpt lat="45.96478" lon="4.78192">
        <ele>200</ele>
        <time>2018-04-05T09:01:11Z</time>
      </trkpt>
      <trkpt lat="45.96484" lon="4.78195">
        <ele>200</ele>
        <time>2018-04-05T09:01:12Z</time>
      </trkpt>
      <trkpt lat="45.96489" lon="4.78198">
        <ele>200</ele>
        <time>2018-04-05T09:01:13Z</time>
      </trkpt>
      <trkpt lat="45.96495" lon="4.78202">
        <ele>200</ele>
        <time>2018-04-05T09:01:14Z</time>
      </trkpt>
      <trkpt lat="45.96499" lon="4.78208">
        <ele>200</ele>
        <time>2018-04-05T09:01:15Z</time>
      </trkpt>
      <trkpt lat="45.96503" lon="4.78215">
        <ele>204</ele>
        <time>2018-04-05T09:01:16Z</time>
      </trkpt>
      <trkpt lat="45.96507" lon="4.7822">
        <ele>204</ele>
        <time>2018-04-05T09:01:17Z</time>
      </trkpt>
      <trkpt lat="45.96511" lon="4.78226">
        <ele>204</ele>
        <time>2018-04-05T09:01:18Z</time>
      </trkpt>
      <trkpt lat="45.96514" lon="4.78233">
        <ele>203</ele>
        <time>2018-04-05T09:01:19Z</time>
      </trkpt>
      <trkpt lat="45.96518" lon="4.78238">
        <ele>203</ele>
        <time>2018-04-05T09:01:20Z</time>
      </trkpt>
      <trkpt lat="45.96521" lon="4.78244">
        <ele>203</ele>
        <time>2018-04-05T09:01:21Z</time>
      </trkpt>
      <trkpt lat="45.96524" lon="4.7825">
        <ele>199</ele>
        <time>2018-04-05T09:01:22Z</time>
      </trkpt>
      <trkpt lat="45.96527" lon="4.78258">
        <ele>200</ele>
        <time>2018-04-05T09:01:23Z</time>
      </trkpt>
      <trkpt lat="45.96532" lon="4.78263">
        <ele>200</ele>
        <time>2018-04-05T09:01:24Z</time>
      </trkpt>
      <trkpt lat="45.96536" lon="4.78269">
        <ele>200</ele>
        <time>2018-04-05T09:01:25Z</time>
      </trkpt>
      <trkpt lat="45.96539" lon="4.78274">
        <ele>200</ele>
        <time>2018-04-05T09:01:26Z</time>
      </trkpt>
      <trkpt lat="45.96543" lon="4.7828">
        <ele>200</ele>
        <time>2018-04-05T09:01:27Z</time>
      </trkpt>
      <trkpt lat="45.96547" lon="4.78284">
        <ele>200</ele>
        <time>2018-04-05T09:01:28Z</time>
      </trkpt>
      <trkpt lat="45.96551" lon="4.78289">
        <ele>200</ele>
        <time>2018-04-05T09:01:29Z</time>
      </trkpt>
      <trkpt lat="45.96555" lon="4.78294">
        <ele>200</ele>
        <time>2018-04-05T09:01:30Z</time>
      </trkpt>
      <trkpt lat="45.96559" lon="4.78299">
        <ele>200</ele>
        <time>2018-04-05T09:01:31Z</time>
      </trkpt>
      <trkpt lat="45.96565" lon="4.78304">
        <ele>200</ele>
        <time>2018-04-05T09:01:32Z</time>
      </trkpt>
      <trkpt lat="45.96569" lon="4.78308">
        <ele>200</ele>
        <time>2018-04-05T09:01:33Z</time>
      </trkpt>
      <trkpt lat="45.96574" lon="4.78313">
        <ele>199</ele>
        <time>2018-04-05T09:01:34Z</time>
      </trkpt>
      <trkpt lat="45.96578" lon="4.78318">
        <ele>199</ele>
        <time>2018-04-05T09:01:35Z</time>
      </trkpt>
      <trkpt lat="45.96582" lon="4.78322">
        <ele>199</ele>
        <time>2018-04-05T09:01:36Z</time>
      </trkpt>
      <trkpt lat="45.96587" lon="4.78325">
        <ele>201</ele>
        <time>2018-04-05T09:01:37Z</time>
      </trkpt>
      <trkpt lat="45.96591" lon="4.78328">
        <ele>201</ele>
        <time>2018-04-05T09:01:38Z</time>
      </trkpt>
      <trkpt lat="45.96596" lon="4.78333">
        <ele>201</ele>
        <time>2018-04-05T09:01:39Z</time>
      </trkpt>
      <trkpt lat="45.96601" lon="4.78337">
        <ele>200</ele>
        <time>2018-04-05T09:01:40Z</time>
      </trkpt>
      <trkpt lat="45.96605" lon="4.78341">
        <ele>200</ele>
        <time>2018-04-05T09:01:41Z</time>
      </trkpt>
      <trkpt lat="45.96609" lon="4.78344">
        <ele>200</ele>
        <time>2018-04-05T09:01:42Z</time>
      </trkpt>
      <trkpt lat="45.96614" lon="4.78347">
        <ele>200</ele>
        <time>2018-04-05T09:01:43Z</time>
      </trkpt>
      <trkpt lat="45.96618" lon="4.78351">
        <ele>201</ele>
        <time>2018-04-05T09:01:44Z</time>
      </trkpt>
      <trkpt lat="45.96622" lon="4.78355">
        <ele>201</ele>
        <time>2018-04-05T09:01:45Z</time>
      </trkpt>
      <trkpt lat="45.96627" lon="4.78359">
        <ele>201</ele>
        <time>2018-04-05T09:01:46Z</time>
      </trkpt>
      <trkpt lat="45.96631" lon="4.78361">
        <ele>201</ele>
        <time>2018-04-05T09:01:47Z</time>
      </trkpt>
      <trkpt lat="45.96635" lon="4.78365">
        <ele>201</ele>
        <time>2018-04-05T09:01:48Z</time>
      </trkpt>
      <trkpt lat="45.96639" lon="4.78368">
        <ele>201</ele>
        <time>2018-04-05T09:01:49Z</time>
      </trkpt>
      <trkpt lat="45.96643" lon="4.78372">
        <ele>201</ele>
        <time>2018-04-05T09:01:50Z</time>
      </trkpt>
      <trkpt lat="45.96647" lon="4.78376">
        <ele>201</ele>
        <time>2018-04-05T09:01:51Z</time>
      </trkpt>
      <trkpt lat="45.96652" lon="4.78378">
        <ele>201</ele>
        <time>2018-04-05T09:01:52Z</time>
      </trkpt>
      <trkpt lat="45.96656" lon="4.78382">
        <ele>201</ele>
        <time>2018-04-05T09:01:53Z</time>
      </trkpt>
      <trkpt lat="45.96659" lon="4.78387">
        <ele>201</ele>
        <time>2018-04-05T09:01:54Z</time>
      </trkpt>
      <trkpt lat="45.96663" lon="4.78391">
        <ele>201</ele>
        <time>2018-04-05T09:01:55Z</time>
      </trkpt>
      <trkpt lat="45.96667" lon="4.78396">
        <ele>204</ele>
        <time>2018-04-05T09:01:56Z</time>
      </trkpt>
      <trkpt lat="45.96671" lon="4.784">
        <ele>204</ele>
        <time>2018-04-05T09:01:57Z</time>
      </trkpt>
      <trkpt lat="45.96675" lon="4.78403">
        <ele>204</ele>
        <time>2018-04-05T09:01:58Z</time>
      </trkpt>
      <trkpt lat="45.96679" lon="4.78406">
        <ele>204</ele>
        <time>2018-04-05T09:01:59Z</time>
      </trkpt>
      <trkpt lat="45.96683" lon="4.7841">
        <ele>204</ele>
        <time>2018-04-05T09:02:00Z</time>
      </trkpt>
      <trkpt lat="45.9669" lon="4.78417">
        <ele>202</ele>
        <time>2018-04-05T09:02:02Z</time>
      </trkpt>
      <trkpt lat="45.96693" lon="4.78421">
        <ele>202</ele>
        <time>2018-04-05T09:02:03Z</time>
      </trkpt>
      <trkpt lat="45.96697" lon="4.78425">
        <ele>203</ele>
        <time>2018-04-05T09:02:04Z</time>
      </trkpt>
      <trkpt lat="45.96701" lon="4.7843">
        <ele>203</ele>
        <time>2018-04-05T09:02:05Z</time>
      </trkpt>
      <trkpt lat="45.96704" lon="4.78435">
        <ele>203</ele>
        <time>2018-04-05T09:02:06Z</time>
      </trkpt>
      <trkpt lat="45.96709" lon="4.7844">
        <ele>203</ele>
        <time>2018-04-05T09:02:07Z</time>
      </trkpt>
      <trkpt lat="45.96713" lon="4.78445">
        <ele>203</ele>
        <time>2018-04-05T09:02:08Z</time>
      </trkpt>
      <trkpt lat="45.9672" lon="4.78452">
        <ele>203</ele>
        <time>2018-04-05T09:02:09Z</time>
      </trkpt>
      <trkpt lat="45.96726" lon="4.78458">
        <ele>203</ele>
        <time>2018-04-05T09:02:10Z</time>
      </trkpt>
      <trkpt lat="45.9673" lon="4.78462">
        <ele>203</ele>
        <time>2018-04-05T09:02:11Z</time>
      </trkpt>
      <trkpt lat="45.96735" lon="4.78466">
        <ele>203</ele>
        <time>2018-04-05T09:02:12Z</time>
      </trkpt>
      <trkpt lat="45.9674" lon="4.78471">
        <ele>203</ele>
        <time>2018-04-05T09:02:13Z</time>
      </trkpt>
      <trkpt lat="45.96745" lon="4.78474">
        <ele>203</ele>
        <time>2018-04-05T09:02:14Z</time>
      </trkpt>
      <trkpt lat="45.96751" lon="4.78477">
        <ele>205</ele>
        <time>2018-04-05T09:02:15Z</time>
      </trkpt>
      <trkpt lat="45.96755" lon="4.78482">
        <ele>205</ele>
        <time>2018-04-05T09:02:16Z</time>
      </trkpt>
      <trkpt lat="45.9676" lon="4.78487">
        <ele>205</ele>
        <time>2018-04-05T09:02:17Z</time>
      </trkpt>
      <trkpt lat="45.96764" lon="4.78492">
        <ele>205</ele>
        <time>2018-04-05T09:02:18Z</time>
      </trkpt>
      <trkpt lat="45.96767" lon="4.78498">
        <ele>205</ele>
        <time>2018-04-05T09:02:19Z</time>
      </trkpt>
      <trkpt lat="45.96771" lon="4.78504">
        <ele>203</ele>
        <time>2018-04-05T09:02:20Z</time>
      </trkpt>
      <trkpt lat="45.96774" lon="4.78509">
        <ele>203</ele>
        <time>2018-04-05T09:02:21Z</time>
      </trkpt>
      <trkpt lat="45.96778" lon="4.78515">
        <ele>203</ele>
        <time>2018-04-05T09:02:22Z</time>
      </trkpt>
      <trkpt lat="45.96782" lon="4.7852">
        <ele>203</ele>
        <time>2018-04-05T09:02:23Z</time>
      </trkpt>
      <trkpt lat="45.96786" lon="4.78525">
        <ele>203</ele>
        <time>2018-04-05T09:02:24Z</time>
      </trkpt>
      <trkpt lat="45.96789" lon="4.78531">
        <ele>203</ele>
        <time>2018-04-05T09:02:25Z</time>
      </trkpt>
      <trkpt lat="45.96793" lon="4.78536">
        <ele>203</ele>
        <time>2018-04-05T09:02:26Z</time>
      </trkpt>
      <trkpt lat="45.96796" lon="4.78542">
        <ele>203</ele>
        <time>2018-04-05T09:02:27Z</time>
      </trkpt>
      <trkpt lat="45.96799" lon="4.78548">
        <ele>203</ele>
        <time>2018-04-05T09:02:28Z</time>
      </trkpt>
      <trkpt lat="45.96803" lon="4.78553">
        <ele>203</ele>
        <time>2018-04-05T09:02:29Z</time>
      </trkpt>
      <trkpt lat="45.96806" lon="4.7856">
        <ele>203</ele>
        <time>2018-04-05T09:02:30Z</time>
      </trkpt>
      <trkpt lat="45.96809" lon="4.78566">
        <ele>203</ele>
        <time>2018-04-05T09:02:31Z</time>
      </trkpt>
      <trkpt lat="45.96813" lon="4.78572">
        <ele>203</ele>
        <time>2018-04-05T09:02:32Z</time>
      </trkpt>
      <trkpt lat="45.96816" lon="4.78578">
        <ele>203</ele>
        <time>2018-04-05T09:02:33Z</time>
      </trkpt>
      <trkpt lat="45.9682" lon="4.78584">
        <ele>202</ele>
        <time>2018-04-05T09:02:34Z</time>
      </trkpt>
      <trkpt lat="45.96823" lon="4.78591">
        <ele>202</ele>
        <time>2018-04-05T09:02:35Z</time>
      </trkpt>
      <trkpt lat="45.96825" lon="4.78598">
        <ele>202</ele>
        <time>2018-04-05T09:02:36Z</time>
      </trkpt>
      <trkpt lat="45.96828" lon="4.78606">
        <ele>202</ele>
        <time>2018-04-05T09:02:37Z</time>
      </trkpt>
      <trkpt lat="45.9683" lon="4.78614">
        <ele>202</ele>
        <time>2018-04-05T09:02:38Z</time>
      </trkpt>
      <trkpt lat="45.96833" lon="4.78623">
        <ele>201</ele>
        <time>2018-04-05T09:02:39Z</time>
      </trkpt>
      <trkpt lat="45.96835" lon="4.78631">
        <ele>203</ele>
        <time>2018-04-05T09:02:40Z</time>
      </trkpt>
      <trkpt lat="45.96839" lon="4.78639">
        <ele>203</ele>
        <time>2018-04-05T09:02:41Z</time>
      </trkpt>
      <trkpt lat="45.96843" lon="4.78646">
        <ele>203</ele>
        <time>2018-04-05T09:02:42Z</time>
      </trkpt>
      <trkpt lat="45.96847" lon="4.78653">
        <ele>203</ele>
        <time>2018-04-05T09:02:43Z</time>
      </trkpt>
      <trkpt lat="45.9685" lon="4.78659">
        <ele>203</ele>
        <time>2018-04-05T09:02:44Z</time>
      </trkpt>
      <trkpt lat="45.96854" lon="4.78666">
        <ele>203</ele>
        <time>2018-04-05T09:02:45Z</time>
      </trkpt>
      <trkpt lat="45.96858" lon="4.78672">
        <ele>202</ele>
        <time>2018-04-05T09:02:46Z</time>
      </trkpt>
      <trkpt lat="45.96861" lon="4.78679">
        <ele>202</ele>
        <time>2018-04-05T09:02:47Z</time>
      </trkpt>
      <trkpt lat="45.96865" lon="4.78686">
        <ele>202</ele>
        <time>2018-04-05T09:02:48Z</time>
      </trkpt>
      <trkpt lat="45.96867" lon="4.78693">
        <ele>202</ele>
        <time>2018-04-05T09:02:49Z</time>
      </trkpt>
      <trkpt lat="45.9687" lon="4.78699">
        <ele>202</ele>
        <time>2018-04-05T09:02:50Z</time>
      </trkpt>
      <trkpt lat="45.96873" lon="4.78706">
        <ele>202</ele>
        <time>2018-04-05T09:02:51Z</time>
      </trkpt>
      <trkpt lat="45.96875" lon="4.78713">
        <ele>202</ele>
        <time>2018-04-05T09:02:52Z</time>
      </trkpt>
      <trkpt lat="45.96877" lon="4.78719">
        <ele>202</ele>
        <time>2018-04-05T09:02:53Z</time>
      </trkpt>
      <trkpt lat="45.96881" lon="4.78726">
        <ele>202</ele>
        <time>2018-04-05T09:02:54Z</time>
      </trkpt>
      <trkpt lat="45.96883" lon="4.78734">
        <ele>202</ele>
        <time>2018-04-05T09:02:55Z</time>
      </trkpt>
      <trkpt lat="45.96887" lon="4.7874">
        <ele>202</ele>
        <time>2018-04-05T09:02:56Z</time>
      </trkpt>
      <trkpt lat="45.9689" lon="4.78747">
        <ele>202</ele>
        <time>2018-04-05T09:02:57Z</time>
      </trkpt>
      <trkpt lat="45.96892" lon="4.78753">
        <ele>201</ele>
        <time>2018-04-05T09:02:58Z</time>
      </trkpt>
      <trkpt lat="45.96896" lon="4.78759">
        <ele>201</ele>
        <time>2018-04-05T09:02:59Z</time>
      </trkpt>
      <trkpt lat="45.96898" lon="4.78766">
        <ele>201</ele>
        <time>2018-04-05T09:03:00Z</time>
      </trkpt>
      <trkpt lat="45.96901" lon="4.78772">
        <ele>201</ele>
        <time>2018-04-05T09:03:01Z</time>
      </trkpt>
      <trkpt lat="45.96905" lon="4.78779">
        <ele>201</ele>
        <time>2018-04-05T09:03:02Z</time>
      </trkpt>
      <trkpt lat="45.96908" lon="4.78785">
        <ele>201</ele>
        <time>2018-04-05T09:03:03Z</time>
      </trkpt>
      <trkpt lat="45.96912" lon="4.78792">
        <ele>201</ele>
        <time>2018-04-05T09:03:04Z</time>
      </trkpt>
      <trkpt lat="45.96916" lon="4.78799">
        <ele>201</ele>
        <time>2018-04-05T09:03:05Z</time>
      </trkpt>
      <trkpt lat="45.9692" lon="4.78806">
        <ele>203</ele>
        <time>2018-04-05T09:03:06Z</time>
      </trkpt>
      <trkpt lat="45.96924" lon="4.78811">
        <ele>202</ele>
        <time>2018-04-05T09:03:07Z</time>
      </trkpt>
      <trkpt lat="45.96928" lon="4.78816">
        <ele>202</ele>
        <time>2018-04-05T09:03:08Z</time>
      </trkpt>
      <trkpt lat="45.96932" lon="4.78822">
        <ele>202</ele>
        <time>2018-04-05T09:03:09Z</time>
      </trkpt>
      <trkpt lat="45.96937" lon="4.78827">
        <ele>202</ele>
        <time>2018-04-05T09:03:10Z</time>
      </trkpt>
      <trkpt lat="45.96941" lon="4.78833">
        <ele>203</ele>
        <time>2018-04-05T09:03:11Z</time>
      </trkpt>
      <trkpt lat="45.96946" lon="4.7884">
        <ele>202</ele>
        <time>2018-04-05T09:03:12Z</time>
      </trkpt>
      <trkpt lat="45.9695" lon="4.78846">
        <ele>202</ele>
        <time>2018-04-05T09:03:13Z</time>
      </trkpt>
      <trkpt lat="45.96955" lon="4.7885">
        <ele>203</ele>
        <time>2018-04-05T09:03:14Z</time>
      </trkpt>
      <trkpt lat="45.96959" lon="4.78855">
        <ele>203</ele>
        <time>2018-04-05T09:03:15Z</time>
      </trkpt>
      <trkpt lat="45.96963" lon="4.78861">
        <ele>203</ele>
        <time>2018-04-05T09:03:16Z</time>
      </trkpt>
      <trkpt lat="45.96968" lon="4.78867">
        <ele>203</ele>
        <time>2018-04-05T09:03:17Z</time>
      </trkpt>
      <trkpt lat="45.96972" lon="4.78872">
        <ele>203</ele>
        <time>2018-04-05T09:03:18Z</time>
      </trkpt>
      <trkpt lat="45.96977" lon="4.78878">
        <ele>203</ele>
        <time>2018-04-05T09:03:19Z</time>
      </trkpt>
      <trkpt lat="45.96981" lon="4.78883">
        <ele>203</ele>
        <time>2018-04-05T09:03:20Z</time>
      </trkpt>
      <trkpt lat="45.96985" lon="4.78889">
        <ele>203</ele>
        <time>2018-04-05T09:03:21Z</time>
      </trkpt>
      <trkpt lat="45.96989" lon="4.78894">
        <ele>203</ele>
        <time>2018-04-05T09:03:22Z</time>
      </trkpt>
      <trkpt lat="45.96993" lon="4.78899">
        <ele>203</ele>
        <time>2018-04-05T09:03:23Z</time>
      </trkpt>
      <trkpt lat="45.96997" lon="4.78904">
        <ele>204</ele>
        <time>2018-04-05T09:03:24Z</time>
      </trkpt>
      <trkpt lat="45.97001" lon="4.78908">
        <ele>205</ele>
        <time>2018-04-05T09:03:25Z</time>
      </trkpt>
      <trkpt lat="45.97004" lon="4.78913">
        <ele>205</ele>
        <time>2018-04-05T09:03:26Z</time>
      </trkpt>
      <trkpt lat="45.97008" lon="4.78918">
        <ele>204</ele>
        <time>2018-04-05T09:03:27Z</time>
      </trkpt>
      <trkpt lat="45.97012" lon="4.78923">
        <ele>204</ele>
        <time>2018-04-05T09:03:28Z</time>
      </trkpt>
      <trkpt lat="45.97015" lon="4.78928">
        <ele>205</ele>
        <time>2018-04-05T09:03:29Z</time>
      </trkpt>
      <trkpt lat="45.97019" lon="4.78932">
        <ele>205</ele>
        <time>2018-04-05T09:03:30Z</time>
      </trkpt>
      <trkpt lat="45.97023" lon="4.78937">
        <ele>205</ele>
        <time>2018-04-05T09:03:31Z</time>
      </trkpt>
      <trkpt lat="45.97026" lon="4.78941">
        <ele>205</ele>
        <time>2018-04-05T09:03:32Z</time>
      </trkpt>
      <trkpt lat="45.97029" lon="4.78947">
        <ele>205</ele>
        <time>2018-04-05T09:03:33Z</time>
      </trkpt>
      <trkpt lat="45.97035" lon="4.78955">
        <ele>205</ele>
        <time>2018-04-05T09:03:35Z</time>
      </trkpt>
      <trkpt lat="45.97038" lon="4.78961">
        <ele>205</ele>
        <time>2018-04-05T09:03:36Z</time>
      </trkpt>
      <trkpt lat="45.97041" lon="4.78966">
        <ele>205</ele>
        <time>2018-04-05T09:03:37Z</time>
      </trkpt>
      <trkpt lat="45.97043" lon="4.78973">
        <ele>205</ele>
        <time>2018-04-05T09:03:38Z</time>
      </trkpt>
      <trkpt lat="45.97047" lon="4.78983">
        <ele>205</ele>
        <time>2018-04-05T09:03:40Z</time>
      </trkpt>
      <trkpt lat="45.9705" lon="4.78989">
        <ele>205</ele>
        <time>2018-04-05T09:03:41Z</time>
      </trkpt>
      <trkpt lat="45.97054" lon="4.79001">
        <ele>203</ele>
        <time>2018-04-05T09:03:43Z</time>
      </trkpt>
      <trkpt lat="45.97057" lon="4.79006">
        <ele>204</ele>
        <time>2018-04-05T09:03:44Z</time>
      </trkpt>
      <trkpt lat="45.97057" lon="4.79014">
        <ele>203</ele>
        <time>2018-04-05T09:03:45Z</time>
      </trkpt>
      <trkpt lat="45.97059" lon="4.79021">
        <ele>203</ele>
        <time>2018-04-05T09:03:46Z</time>
      </trkpt>
      <trkpt lat="45.97061" lon="4.79029">
        <ele>203</ele>
        <time>2018-04-05T09:03:47Z</time>
      </trkpt>
      <trkpt lat="45.97063" lon="4.79037">
        <ele>203</ele>
        <time>2018-04-05T09:03:48Z</time>
      </trkpt>
      <trkpt lat="45.97065" lon="4.79044">
        <ele>203</ele>
        <time>2018-04-05T09:03:49Z</time>
      </trkpt>
      <trkpt lat="45.97067" lon="4.79052">
        <ele>203</ele>
        <time>2018-04-05T09:03:50Z</time>
      </trkpt>
      <trkpt lat="45.97069" lon="4.7906">
        <ele>203</ele>
        <time>2018-04-05T09:03:51Z</time>
      </trkpt>
      <trkpt lat="45.9707" lon="4.79069">
        <ele>203</ele>
        <time>2018-04-05T09:03:52Z</time>
      </trkpt>
      <trkpt lat="45.97072" lon="4.79077">
        <ele>204</ele>
        <time>2018-04-05T09:03:53Z</time>
      </trkpt>
      <trkpt lat="45.97073" lon="4.79085">
        <ele>204</ele>
        <time>2018-04-05T09:03:54Z</time>
      </trkpt>
      <trkpt lat="45.97075" lon="4.79093">
        <ele>204</ele>
        <time>2018-04-05T09:03:55Z</time>
      </trkpt>
      <trkpt lat="45.97077" lon="4.79101">
        <ele>204</ele>
        <time>2018-04-05T09:03:56Z</time>
      </trkpt>
      <trkpt lat="45.9708" lon="4.79108">
        <ele>204</ele>
        <time>2018-04-05T09:03:57Z</time>
      </trkpt>
      <trkpt lat="45.97083" lon="4.79115">
        <ele>204</ele>
        <time>2018-04-05T09:03:58Z</time>
      </trkpt>
      <trkpt lat="45.97085" lon="4.79121">
        <ele>206</ele>
        <time>2018-04-05T09:03:59Z</time>
      </trkpt>
      <trkpt lat="45.97088" lon="4.79127">
        <ele>206</ele>
        <time>2018-04-05T09:04:00Z</time>
      </trkpt>
      <trkpt lat="45.97091" lon="4.79133">
        <ele>206</ele>
        <time>2018-04-05T09:04:01Z</time>
      </trkpt>
      <trkpt lat="45.97094" lon="4.79138">
        <ele>206</ele>
        <time>2018-04-05T09:04:02Z</time>
      </trkpt>
      <trkpt lat="45.97097" lon="4.79145">
        <ele>206</ele>
        <time>2018-04-05T09:04:03Z</time>
      </trkpt>
      <trkpt lat="45.97101" lon="4.79152">
        <ele>206</ele>
        <time>2018-04-05T09:04:04Z</time>
      </trkpt>
      <trkpt lat="45.97104" lon="4.79158">
        <ele>206</ele>
        <time>2018-04-05T09:04:05Z</time>
      </trkpt>
      <trkpt lat="45.97108" lon="4.79165">
        <ele>206</ele>
        <time>2018-04-05T09:04:06Z</time>
      </trkpt>
      <trkpt lat="45.97111" lon="4.79172">
        <ele>205</ele>
        <time>2018-04-05T09:04:07Z</time>
      </trkpt>
      <trkpt lat="45.97114" lon="4.79179">
        <ele>205</ele>
        <time>2018-04-05T09:04:08Z</time>
      </trkpt>
      <trkpt lat="45.97117" lon="4.79187">
        <ele>206</ele>
        <time>2018-04-05T09:04:09Z</time>
      </trkpt>
      <trkpt lat="45.9712" lon="4.79193">
        <ele>206</ele>
        <time>2018-04-05T09:04:10Z</time>
      </trkpt>
      <trkpt lat="45.97124" lon="4.79201">
        <ele>206</ele>
        <time>2018-04-05T09:04:11Z</time>
      </trkpt>
      <trkpt lat="45.97127" lon="4.79208">
        <ele>206</ele>
        <time>2018-04-05T09:04:12Z</time>
      </trkpt>
      <trkpt lat="45.9713" lon="4.79214">
        <ele>205</ele>
        <time>2018-04-05T09:04:13Z</time>
      </trkpt>
      <trkpt lat="45.97133" lon="4.79221">
        <ele>205</ele>
        <time>2018-04-05T09:04:14Z</time>
      </trkpt>
      <trkpt lat="45.97135" lon="4.79229">
        <ele>205</ele>
        <time>2018-04-05T09:04:15Z</time>
      </trkpt>
      <trkpt lat="45.97138" lon="4.79235">
        <ele>205</ele>
        <time>2018-04-05T09:04:16Z</time>
      </trkpt>
      <trkpt lat="45.97141" lon="4.79241">
        <ele>205</ele>
        <time>2018-04-05T09:04:17Z</time>
      </trkpt>
      <trkpt lat="45.97144" lon="4.79247">
        <ele>205</ele>
        <time>2018-04-05T09:04:18Z</time>
      </trkpt>
      <trkpt lat="45.97147" lon="4.79254">
        <ele>204</ele>
        <time>2018-04-05T09:04:19Z</time>
      </trkpt>
      <trkpt lat="45.9715" lon="4.7926">
        <ele>204</ele>
        <time>2018-04-05T09:04:20Z</time>
      </trkpt>
      <trkpt lat="45.97152" lon="4.79266">
        <ele>204</ele>
        <time>2018-04-05T09:04:21Z</time>
      </trkpt>
      <trkpt lat="45.97154" lon="4.79273">
        <ele>204</ele>
        <time>2018-04-05T09:04:22Z</time>
      </trkpt>
      <trkpt lat="45.97157" lon="4.7928">
        <ele>204</ele>
        <time>2018-04-05T09:04:23Z</time>
      </trkpt>
      <trkpt lat="45.97159" lon="4.79288">
        <ele>204</ele>
        <time>2018-04-05T09:04:24Z</time>
      </trkpt>
      <trkpt lat="45.97161" lon="4.79296">
        <ele>204</ele>
        <time>2018-04-05T09:04:25Z</time>
      </trkpt>
      <trkpt lat="45.97164" lon="4.79303">
        <ele>204</ele>
        <time>2018-04-05T09:04:26Z</time>
      </trkpt>
      <trkpt lat="45.97167" lon="4.79309">
        <ele>207</ele>
        <time>2018-04-05T09:04:27Z</time>
      </trkpt>
      <trkpt lat="45.9717" lon="4.79315">
        <ele>207</ele>
        <time>2018-04-05T09:04:28Z</time>
      </trkpt>
      <trkpt lat="45.97173" lon="4.79322">
        <ele>206</ele>
        <time>2018-04-05T09:04:29Z</time>
      </trkpt>
      <trkpt lat="45.97176" lon="4.79329">
        <ele>206</ele>
        <time>2018-04-05T09:04:30Z</time>
      </trkpt>
      <trkpt lat="45.9718" lon="4.79334">
        <ele>206</ele>
        <time>2018-04-05T09:04:31Z</time>
      </trkpt>
      <trkpt lat="45.97183" lon="4.7934">
        <ele>206</ele>
        <time>2018-04-05T09:04:32Z</time>
      </trkpt>
      <trkpt lat="45.97186" lon="4.79348">
        <ele>207</ele>
        <time>2018-04-05T09:04:33Z</time>
      </trkpt>
      <trkpt lat="45.97189" lon="4.79354">
        <ele>207</ele>
        <time>2018-04-05T09:04:34Z</time>
      </trkpt>
      <trkpt lat="45.97191" lon="4.79361">
        <ele>207</ele>
        <time>2018-04-05T09:04:35Z</time>
      </trkpt>
      <trkpt lat="45.97194" lon="4.79368">
        <ele>207</ele>
        <time>2018-04-05T09:04:36Z</time>
      </trkpt>
      <trkpt lat="45.97197" lon="4.79375">
        <ele>207</ele>
        <time>2018-04-05T09:04:37Z</time>
      </trkpt>
      <trkpt lat="45.97199" lon="4.79382">
        <ele>207</ele>
        <time>2018-04-05T09:04:38Z</time>
      </trkpt>
      <trkpt lat="45.97201" lon="4.79389">
        <ele>207</ele>
        <time>2018-04-05T09:04:39Z</time>
      </trkpt>
      <trkpt lat="45.97204" lon="4.79396">
        <ele>208</ele>
        <time>2018-04-05T09:04:40Z</time>
      </trkpt>
      <trkpt lat="45.97206" lon="4.79403">
        <ele>208</ele>
        <time>2018-04-05T09:04:41Z</time>
      </trkpt>
      <trkpt lat="45.97209" lon="4.79409">
        <ele>208</ele>
        <time>2018-04-05T09:04:42Z</time>
      </trkpt>
      <trkpt lat="45.97212" lon="4.79416">
        <ele>208</ele>
        <time>2018-04-05T09:04:43Z</time>
      </trkpt>
      <trkpt lat="45.97214" lon="4.79422">
        <ele>208</ele>
        <time>2018-04-05T09:04:44Z</time>
      </trkpt>
      <trkpt lat="45.97217" lon="4.79428">
        <ele>208</ele>
        <time>2018-04-05T09:04:45Z</time>
      </trkpt>
      <trkpt lat="45.9722" lon="4.79435">
        <ele>208</ele>
        <time>2018-04-05T09:04:46Z</time>
      </trkpt>
      <trkpt lat="45.97223" lon="4.79442">
        <ele>209</ele>
        <time>2018-04-05T09:04:47Z</time>
      </trkpt>
      <trkpt lat="45.97226" lon="4.79448">
        <ele>209</ele>
        <time>2018-04-05T09:04:48Z</time>
      </trkpt>
      <trkpt lat="45.97228" lon="4.79454">
        <ele>209</ele>
        <time>2018-04-05T09:04:49Z</time>
      </trkpt>
      <trkpt lat="45.9723" lon="4.7946">
        <ele>209</ele>
        <time>2018-04-05T09:04:50Z</time>
      </trkpt>
      <trkpt lat="45.97232" lon="4.79466">
        <ele>209</ele>
        <time>2018-04-05T09:04:51Z</time>
      </trkpt>
      <trkpt lat="45.97233" lon="4.79473">
        <ele>209</ele>
        <time>2018-04-05T09:04:52Z</time>
      </trkpt>
      <trkpt lat="45.97235" lon="4.79479">
        <ele>209</ele>
        <time>2018-04-05T09:04:53Z</time>
      </trkpt>
      <trkpt lat="45.97237" lon="4.79486">
        <ele>210</ele>
        <time>2018-04-05T09:04:54Z</time>
      </trkpt>
      <trkpt lat="45.97239" lon="4.79491">
        <ele>210</ele>
        <time>2018-04-05T09:04:55Z</time>
      </trkpt>
      <trkpt lat="45.9724" lon="4.79497">
        <ele>210</ele>
        <time>2018-04-05T09:04:56Z</time>
      </trkpt>
      <trkpt lat="45.97242" lon="4.79504">
        <ele>210</ele>
        <time>2018-04-05T09:04:57Z</time>
      </trkpt>
      <trkpt lat="45.97244" lon="4.7951">
        <ele>210</ele>
        <time>2018-04-05T09:04:58Z</time>
      </trkpt>
      <trkpt lat="45.97245" lon="4.79516">
        <ele>210</ele>
        <time>2018-04-05T09:04:59Z</time>
      </trkpt>
      <trkpt lat="45.97246" lon="4.79523">
        <ele>210</ele>
        <time>2018-04-05T09:05:00Z</time>
      </trkpt>
      <trkpt lat="45.97248" lon="4.79529">
        <ele>210</ele>
        <time>2018-04-05T09:05:01Z</time>
      </trkpt>
      <trkpt lat="45.97248" lon="4.79537">
        <ele>210</ele>
        <time>2018-04-05T09:05:02Z</time>
      </trkpt>
      <trkpt lat="45.97251" lon="4.79544">
        <ele>214</ele>
        <time>2018-04-05T09:05:03Z</time>
      </trkpt>
      <trkpt lat="45.97253" lon="4.79551">
        <ele>214</ele>
        <time>2018-04-05T09:05:04Z</time>
      </trkpt>
      <trkpt lat="45.97254" lon="4.79557">
        <ele>213</ele>
        <time>2018-04-05T09:05:05Z</time>
      </trkpt>
      <trkpt lat="45.97255" lon="4.79564">
        <ele>213</ele>
        <time>2018-04-05T09:05:06Z</time>
      </trkpt>
      <trkpt lat="45.97254" lon="4.79569">
        <ele>212</ele>
        <time>2018-04-05T09:05:07Z</time>
      </trkpt>
      <trkpt lat="45.97254" lon="4.79577">
        <ele>211</ele>
        <time>2018-04-05T09:05:08Z</time>
      </trkpt>
      <trkpt lat="45.97253" lon="4.79584">
        <ele>211</ele>
        <time>2018-04-05T09:05:09Z</time>
      </trkpt>
      <trkpt lat="45.9725" lon="4.79591">
        <ele>211</ele>
        <time>2018-04-05T09:05:10Z</time>
      </trkpt>
      <trkpt lat="45.9725" lon="4.79598">
        <ele>212</ele>
        <time>2018-04-05T09:05:11Z</time>
      </trkpt>
      <trkpt lat="45.97251" lon="4.79606">
        <ele>212</ele>
        <time>2018-04-05T09:05:12Z</time>
      </trkpt>
      <trkpt lat="45.97251" lon="4.79613">
        <ele>213</ele>
        <time>2018-04-05T09:05:13Z</time>
      </trkpt>
      <trkpt lat="45.97251" lon="4.7962">
        <ele>213</ele>
        <time>2018-04-05T09:05:14Z</time>
      </trkpt>
      <trkpt lat="45.97252" lon="4.79632">
        <ele>213</ele>
        <time>2018-04-05T09:05:16Z</time>
      </trkpt>
      <trkpt lat="45.97252" lon="4.79639">
        <ele>212</ele>
        <time>2018-04-05T09:05:17Z</time>
      </trkpt>
      <trkpt lat="45.97253" lon="4.79648">
        <ele>212</ele>
        <time>2018-04-05T09:05:18Z</time>
      </trkpt>
      <trkpt lat="45.97252" lon="4.79654">
        <ele>211</ele>
        <time>2018-04-05T09:05:19Z</time>
      </trkpt>
      <trkpt lat="45.9725" lon="4.79661">
        <ele>209</ele>
        <time>2018-04-05T09:05:20Z</time>
      </trkpt>
      <trkpt lat="45.97249" lon="4.79669">
        <ele>208</ele>
        <time>2018-04-05T09:05:21Z</time>
      </trkpt>
      <trkpt lat="45.97249" lon="4.79677">
        <ele>208</ele>
        <time>2018-04-05T09:05:22Z</time>
      </trkpt>
      <trkpt lat="45.97248" lon="4.79685">
        <ele>208</ele>
        <time>2018-04-05T09:05:23Z</time>
      </trkpt>
      <trkpt lat="45.97247" lon="4.79693">
        <ele>208</ele>
        <time>2018-04-05T09:05:24Z</time>
      </trkpt>
      <trkpt lat="45.97245" lon="4.79701">
        <ele>208</ele>
        <time>2018-04-05T09:05:25Z</time>
      </trkpt>
      <trkpt lat="45.97244" lon="4.79709">
        <ele>209</ele>
        <time>2018-04-05T09:05:26Z</time>
      </trkpt>
      <trkpt lat="45.97243" lon="4.79717">
        <ele>209</ele>
        <time>2018-04-05T09:05:27Z</time>
      </trkpt>
      <trkpt lat="45.97242" lon="4.79724">
        <ele>209</ele>
        <time>2018-04-05T09:05:28Z</time>
      </trkpt>
      <trkpt lat="45.97241" lon="4.79731">
        <ele>209</ele>
        <time>2018-04-05T09:05:29Z</time>
      </trkpt>
      <trkpt lat="45.9724" lon="4.79739">
        <ele>209</ele>
        <time>2018-04-05T09:05:30Z</time>
      </trkpt>
      <trkpt lat="45.97239" lon="4.79746">
        <ele>209</ele>
        <time>2018-04-05T09:05:31Z</time>
      </trkpt>
      <trkpt lat="45.97238" lon="4.79754">
        <ele>209</ele>
        <time>2018-04-05T09:05:32Z</time>
      </trkpt>
      <trkpt lat="45.97237" lon="4.79763">
        <ele>209</ele>
        <time>2018-04-05T09:05:33Z</time>
      </trkpt>
      <trkpt lat="45.97237" lon="4.79771">
        <ele>210</ele>
        <time>2018-04-05T09:05:34Z</time>
      </trkpt>
      <trkpt lat="45.97236" lon="4.79779">
        <ele>210</ele>
        <time>2018-04-05T09:05:35Z</time>
      </trkpt>
      <trkpt lat="45.97236" lon="4.79787">
        <ele>210</ele>
        <time>2018-04-05T09:05:36Z</time>
      </trkpt>
      <trkpt lat="45.97235" lon="4.79795">
        <ele>210</ele>
        <time>2018-04-05T09:05:37Z</time>
      </trkpt>
      <trkpt lat="45.97235" lon="4.79802">
        <ele>210</ele>
        <time>2018-04-05T09:05:38Z</time>
      </trkpt>
      <trkpt lat="45.97234" lon="4.79808">
        <ele>210</ele>
        <time>2018-04-05T09:05:39Z</time>
      </trkpt>
      <trkpt lat="45.97234" lon="4.79815">
        <ele>211</ele>
        <time>2018-04-05T09:05:40Z</time>
      </trkpt>
      <trkpt lat="45.97234" lon="4.79823">
        <ele>211</ele>
        <time>2018-04-05T09:05:41Z</time>
      </trkpt>
      <trkpt lat="45.97235" lon="4.7983">
        <ele>211</ele>
        <time>2018-04-05T09:05:42Z</time>
      </trkpt>
      <trkpt lat="45.97235" lon="4.79838">
        <ele>211</ele>
        <time>2018-04-05T09:05:43Z</time>
      </trkpt>
      <trkpt lat="45.97236" lon="4.79845">
        <ele>211</ele>
        <time>2018-04-05T09:05:44Z</time>
      </trkpt>
      <trkpt lat="45.97238" lon="4.79852">
        <ele>211</ele>
        <time>2018-04-05T09:05:45Z</time>
      </trkpt>
      <trkpt lat="45.97239" lon="4.79858">
        <ele>211</ele>
        <time>2018-04-05T09:05:46Z</time>
      </trkpt>
      <trkpt lat="45.97242" lon="4.79864">
        <ele>211</ele>
        <time>2018-04-05T09:05:47Z</time>
      </trkpt>
      <trkpt lat="45.97244" lon="4.79871">
        <ele>211</ele>
        <time>2018-04-05T09:05:48Z</time>
      </trkpt>
      <trkpt lat="45.97246" lon="4.79876">
        <ele>211</ele>
        <time>2018-04-05T09:05:49Z</time>
      </trkpt>
      <trkpt lat="45.9725" lon="4.79886">
        <ele>211</ele>
        <time>2018-04-05T09:05:51Z</time>
      </trkpt>
      <trkpt lat="45.97251" lon="4.79892">
        <ele>213</ele>
        <time>2018-04-05T09:05:52Z</time>
      </trkpt>
      <trkpt lat="45.9725" lon="4.79905">
        <ele>213</ele>
        <time>2018-04-05T09:06:00Z</time>
      </trkpt>
      <trkpt lat="45.97251" lon="4.79907">
        <ele>213</ele>
        <time>2018-04-05T09:06:01Z</time>
      </trkpt>
      <trkpt lat="45.97258" lon="4.79911">
        <ele>212</ele>
        <time>2018-04-05T09:06:05Z</time>
      </trkpt>
      <trkpt lat="45.9726" lon="4.79912">
        <ele>213</ele>
        <time>2018-04-05T09:06:06Z</time>
      </trkpt>
      <trkpt lat="45.97269" lon="4.79912">
        <ele>213</ele>
        <time>2018-04-05T09:06:09Z</time>
      </trkpt>
      <trkpt lat="45.97272" lon="4.79911">
        <ele>213</ele>
        <time>2018-04-05T09:06:10Z</time>
      </trkpt>
      <trkpt lat="45.97282" lon="4.79911">
        <ele>213</ele>
        <time>2018-04-05T09:06:11Z</time>
      </trkpt>
      <trkpt lat="45.9729" lon="4.79909">
        <ele>213</ele>
        <time>2018-04-05T09:06:13Z</time>
      </trkpt>
      <trkpt lat="45.97294" lon="4.79909">
        <ele>213</ele>
        <time>2018-04-05T09:06:14Z</time>
      </trkpt>
      <trkpt lat="45.97298" lon="4.79908">
        <ele>213</ele>
        <time>2018-04-05T09:06:15Z</time>
      </trkpt>
      <trkpt lat="45.97303" lon="4.79907">
        <ele>213</ele>
        <time>2018-04-05T09:06:16Z</time>
      </trkpt>
      <trkpt lat="45.97308" lon="4.79907">
        <ele>213</ele>
        <time>2018-04-05T09:06:17Z</time>
      </trkpt>
      <trkpt lat="45.97312" lon="4.79906">
        <ele>213</ele>
        <time>2018-04-05T09:06:18Z</time>
      </trkpt>
      <trkpt lat="45.97321" lon="4.79904">
        <ele>213</ele>
        <time>2018-04-05T09:06:20Z</time>
      </trkpt>
      <trkpt lat="45.97326" lon="4.79904">
        <ele>213</ele>
        <time>2018-04-05T09:06:21Z</time>
      </trkpt>
      <trkpt lat="45.9733" lon="4.79904">
        <ele>213</ele>
        <time>2018-04-05T09:06:22Z</time>
      </trkpt>
      <trkpt lat="45.97335" lon="4.79903">
        <ele>215</ele>
        <time>2018-04-05T09:06:23Z</time>
      </trkpt>
      <trkpt lat="45.97343" lon="4.79902">
        <ele>215</ele>
        <time>2018-04-05T09:06:25Z</time>
      </trkpt>
      <trkpt lat="45.97347" lon="4.79902">
        <ele>216</ele>
        <time>2018-04-05T09:06:26Z</time>
      </trkpt>
      <trkpt lat="45.97354" lon="4.799">
        <ele>216</ele>
        <time>2018-04-05T09:06:28Z</time>
      </trkpt>
      <trkpt lat="45.9736" lon="4.79899">
        <ele>216</ele>
        <time>2018-04-05T09:06:29Z</time>
      </trkpt>
      <trkpt lat="45.97368" lon="4.79898">
        <ele>217</ele>
        <time>2018-04-05T09:06:31Z</time>
      </trkpt>
      <trkpt lat="45.97372" lon="4.79898">
        <ele>217</ele>
        <time>2018-04-05T09:06:32Z</time>
      </trkpt>
      <trkpt lat="45.97377" lon="4.79897">
        <ele>217</ele>
        <time>2018-04-05T09:06:33Z</time>
      </trkpt>
      <trkpt lat="45.97382" lon="4.79897">
        <ele>217</ele>
        <time>2018-04-05T09:06:34Z</time>
      </trkpt>
      <trkpt lat="45.9739" lon="4.79897">
        <ele>217</ele>
        <time>2018-04-05T09:06:36Z</time>
      </trkpt>
      <trkpt lat="45.97394" lon="4.79896">
        <ele>217</ele>
        <time>2018-04-05T09:06:37Z</time>
      </trkpt>
      <trkpt lat="45.97402" lon="4.79895">
        <ele>217</ele>
        <time>2018-04-05T09:06:39Z</time>
      </trkpt>
      <trkpt lat="45.97406" lon="4.79894">
        <ele>217</ele>
        <time>2018-04-05T09:06:40Z</time>
      </trkpt>
      <trkpt lat="45.97414" lon="4.79894">
        <ele>217</ele>
        <time>2018-04-05T09:06:42Z</time>
      </trkpt>
      <trkpt lat="45.97418" lon="4.79894">
        <ele>219</ele>
        <time>2018-04-05T09:06:43Z</time>
      </trkpt>
      <trkpt lat="45.97426" lon="4.79894">
        <ele>219</ele>
        <time>2018-04-05T09:06:45Z</time>
      </trkpt>
      <trkpt lat="45.9743" lon="4.79894">
        <ele>220</ele>
        <time>2018-04-05T09:06:46Z</time>
      </trkpt>
      <trkpt lat="45.97438" lon="4.79894">
        <ele>220</ele>
        <time>2018-04-05T09:06:48Z</time>
      </trkpt>
      <trkpt lat="45.97442" lon="4.79894">
        <ele>220</ele>
        <time>2018-04-05T09:06:49Z</time>
      </trkpt>
      <trkpt lat="45.9745" lon="4.79895">
        <ele>220</ele>
        <time>2018-04-05T09:06:51Z</time>
      </trkpt>
      <trkpt lat="45.97454" lon="4.79895">
        <ele>220</ele>
        <time>2018-04-05T09:06:52Z</time>
      </trkpt>
      <trkpt lat="45.97462" lon="4.79894">
        <ele>220</ele>
        <time>2018-04-05T09:06:54Z</time>
      </trkpt>
      <trkpt lat="45.97465" lon="4.79894">
        <ele>221</ele>
        <time>2018-04-05T09:06:55Z</time>
      </trkpt>
      <trkpt lat="45.97474" lon="4.79892">
        <ele>221</ele>
        <time>2018-04-05T09:06:57Z</time>
      </trkpt>
      <trkpt lat="45.97478" lon="4.79892">
        <ele>221</ele>
        <time>2018-04-05T09:06:58Z</time>
      </trkpt>
      <trkpt lat="45.97484" lon="4.79892">
        <ele>221</ele>
        <time>2018-04-05T09:07:00Z</time>
      </trkpt>
      <trkpt lat="45.97489" lon="4.79892">
        <ele>221</ele>
        <time>2018-04-05T09:07:01Z</time>
      </trkpt>
      <trkpt lat="45.97497" lon="4.79892">
        <ele>221</ele>
        <time>2018-04-05T09:07:03Z</time>
      </trkpt>
      <trkpt lat="45.97499" lon="4.79891">
        <ele>221</ele>
        <time>2018-04-05T09:07:04Z</time>
      </trkpt>
      <trkpt lat="45.97508" lon="4.79891">
        <ele>221</ele>
        <time>2018-04-05T09:07:06Z</time>
      </trkpt>
      <trkpt lat="45.9751" lon="4.79891">
        <ele>221</ele>
        <time>2018-04-05T09:07:07Z</time>
      </trkpt>
      <trkpt lat="45.97516" lon="4.7989">
        <ele>221</ele>
        <time>2018-04-05T09:07:10Z</time>
      </trkpt>
      <trkpt lat="45.97519" lon="4.7989">
        <ele>221</ele>
        <time>2018-04-05T09:07:11Z</time>
      </trkpt>
      <trkpt lat="45.97528" lon="4.79889">
        <ele>221</ele>
        <time>2018-04-05T09:07:14Z</time>
      </trkpt>
      <trkpt lat="45.9753" lon="4.79889">
        <ele>221</ele>
        <time>2018-04-05T09:07:15Z</time>
      </trkpt>
      <trkpt lat="45.97536" lon="4.79888">
        <ele>221</ele>
        <time>2018-04-05T09:07:17Z</time>
      </trkpt>
      <trkpt lat="45.97539" lon="4.79887">
        <ele>221</ele>
        <time>2018-04-05T09:07:18Z</time>
      </trkpt>
      <trkpt lat="45.97546" lon="4.79886">
        <ele>221</ele>
        <time>2018-04-05T09:07:20Z</time>
      </trkpt>
      <trkpt lat="45.97549" lon="4.79886">
        <ele>221</ele>
        <time>2018-04-05T09:07:21Z</time>
      </trkpt>
      <trkpt lat="45.97556" lon="4.79884">
        <ele>221</ele>
        <time>2018-04-05T09:07:23Z</time>
      </trkpt>
      <trkpt lat="45.97559" lon="4.79883">
        <ele>221</ele>
        <time>2018-04-05T09:07:24Z</time>
      </trkpt>
      <trkpt lat="45.97562" lon="4.79882">
        <ele>221</ele>
        <time>2018-04-05T09:07:25Z</time>
      </trkpt>
      <trkpt lat="45.97571" lon="4.79879">
        <ele>221</ele>
        <time>2018-04-05T09:07:26Z</time>
      </trkpt>
      <trkpt lat="45.97576" lon="4.79877">
        <ele>221</ele>
        <time>2018-04-05T09:07:28Z</time>
      </trkpt>
      <trkpt lat="45.97582" lon="4.79875">
        <ele>221</ele>
        <time>2018-04-05T09:07:29Z</time>
      </trkpt>
      <trkpt lat="45.97589" lon="4.79871">
        <ele>221</ele>
        <time>2018-04-05T09:07:31Z</time>
      </trkpt>
      <trkpt lat="45.97593" lon="4.7987">
        <ele>221</ele>
        <time>2018-04-05T09:07:32Z</time>
      </trkpt>
      <trkpt lat="45.97598" lon="4.79868">
        <ele>221</ele>
        <time>2018-04-05T09:07:34Z</time>
      </trkpt>
      <trkpt lat="45.97603" lon="4.79866">
        <ele>221</ele>
        <time>2018-04-05T09:07:35Z</time>
      </trkpt>
      <trkpt lat="45.97611" lon="4.79864">
        <ele>221</ele>
        <time>2018-04-05T09:07:37Z</time>
      </trkpt>
      <trkpt lat="45.97615" lon="4.79862">
        <ele>221</ele>
        <time>2018-04-05T09:07:38Z</time>
      </trkpt>
      <trkpt lat="45.97622" lon="4.79859">
        <ele>221</ele>
        <time>2018-04-05T09:07:40Z</time>
      </trkpt>
      <trkpt lat="45.97626" lon="4.79858">
        <ele>221</ele>
        <time>2018-04-05T09:07:41Z</time>
      </trkpt>
      <trkpt lat="45.97634" lon="4.79855">
        <ele>221</ele>
        <time>2018-04-05T09:07:43Z</time>
      </trkpt>
      <trkpt lat="45.97638" lon="4.79853">
        <ele>221</ele>
        <time>2018-04-05T09:07:44Z</time>
      </trkpt>
      <trkpt lat="45.97647" lon="4.7985">
        <ele>221</ele>
        <time>2018-04-05T09:07:46Z</time>
      </trkpt>
      <trkpt lat="45.97651" lon="4.79848">
        <ele>221</ele>
        <time>2018-04-05T09:07:47Z</time>
      </trkpt>
      <trkpt lat="45.9766" lon="4.79845">
        <ele>221</ele>
        <time>2018-04-05T09:07:49Z</time>
      </trkpt>
      <trkpt lat="45.97664" lon="4.79843">
        <ele>221</ele>
        <time>2018-04-05T09:07:50Z</time>
      </trkpt>
      <trkpt lat="45.97672" lon="4.7984">
        <ele>221</ele>
        <time>2018-04-05T09:07:52Z</time>
      </trkpt>
      <trkpt lat="45.97676" lon="4.79839">
        <ele>221</ele>
        <time>2018-04-05T09:07:53Z</time>
      </trkpt>
      <trkpt lat="45.97681" lon="4.79838">
        <ele>221</ele>
        <time>2018-04-05T09:07:54Z</time>
      </trkpt>
      <trkpt lat="45.97685" lon="4.79837">
        <ele>221</ele>
        <time>2018-04-05T09:07:55Z</time>
      </trkpt>
      <trkpt lat="45.97691" lon="4.79836">
        <ele>220</ele>
        <time>2018-04-05T09:07:56Z</time>
      </trkpt>
      <trkpt lat="45.97697" lon="4.79836">
        <ele>220</ele>
        <time>2018-04-05T09:07:57Z</time>
      </trkpt>
      <trkpt lat="45.97701" lon="4.79835">
        <ele>220</ele>
        <time>2018-04-05T09:07:58Z</time>
      </trkpt>
      <trkpt lat="45.97706" lon="4.79834">
        <ele>220</ele>
        <time>2018-04-05T09:07:59Z</time>
      </trkpt>
      <trkpt lat="45.97711" lon="4.79833">
        <ele>223</ele>
        <time>2018-04-05T09:08:00Z</time>
      </trkpt>
      <trkpt lat="45.97715" lon="4.79833">
        <ele>223</ele>
        <time>2018-04-05T09:08:01Z</time>
      </trkpt>
      <trkpt lat="45.97721" lon="4.79832">
        <ele>223</ele>
        <time>2018-04-05T09:08:02Z</time>
      </trkpt>
      <trkpt lat="45.97725" lon="4.7983">
        <ele>223</ele>
        <time>2018-04-05T09:08:03Z</time>
      </trkpt>
      <trkpt lat="45.9773" lon="4.79829">
        <ele>223</ele>
        <time>2018-04-05T09:08:04Z</time>
      </trkpt>
      <trkpt lat="45.97734" lon="4.79829">
        <ele>223</ele>
        <time>2018-04-05T09:08:05Z</time>
      </trkpt>
      <trkpt lat="45.9774" lon="4.79827">
        <ele>223</ele>
        <time>2018-04-05T09:08:06Z</time>
      </trkpt>
      <trkpt lat="45.97746" lon="4.79826">
        <ele>222</ele>
        <time>2018-04-05T09:08:07Z</time>
      </trkpt>
      <trkpt lat="45.97751" lon="4.79825">
        <ele>222</ele>
        <time>2018-04-05T09:08:08Z</time>
      </trkpt>
      <trkpt lat="45.97757" lon="4.79823">
        <ele>222</ele>
        <time>2018-04-05T09:08:09Z</time>
      </trkpt>
      <trkpt lat="45.97762" lon="4.79823">
        <ele>223</ele>
        <time>2018-04-05T09:08:10Z</time>
      </trkpt>
      <trkpt lat="45.97766" lon="4.79822">
        <ele>223</ele>
        <time>2018-04-05T09:08:11Z</time>
      </trkpt>
      <trkpt lat="45.97771" lon="4.79821">
        <ele>223</ele>
        <time>2018-04-05T09:08:12Z</time>
      </trkpt>
      <trkpt lat="45.97776" lon="4.7982">
        <ele>223</ele>
        <time>2018-04-05T09:08:13Z</time>
      </trkpt>
      <trkpt lat="45.97781" lon="4.7982">
        <ele>223</ele>
        <time>2018-04-05T09:08:14Z</time>
      </trkpt>
      <trkpt lat="45.97786" lon="4.79818">
        <ele>223</ele>
        <time>2018-04-05T09:08:15Z</time>
      </trkpt>
      <trkpt lat="45.97791" lon="4.79818">
        <ele>223</ele>
        <time>2018-04-05T09:08:16Z</time>
      </trkpt>
      <trkpt lat="45.97796" lon="4.79816">
        <ele>223</ele>
        <time>2018-04-05T09:08:17Z</time>
      </trkpt>
      <trkpt lat="45.97804" lon="4.79815">
        <ele>223</ele>
        <time>2018-04-05T09:08:19Z</time>
      </trkpt>
      <trkpt lat="45.97809" lon="4.79814">
        <ele>223</ele>
        <time>2018-04-05T09:08:20Z</time>
      </trkpt>
      <trkpt lat="45.97814" lon="4.79813">
        <ele>223</ele>
        <time>2018-04-05T09:08:21Z</time>
      </trkpt>
      <trkpt lat="45.97818" lon="4.79813">
        <ele>223</ele>
        <time>2018-04-05T09:08:22Z</time>
      </trkpt>
      <trkpt lat="45.97824" lon="4.79811">
        <ele>223</ele>
        <time>2018-04-05T09:08:23Z</time>
      </trkpt>
      <trkpt lat="45.97829" lon="4.79809">
        <ele>223</ele>
        <time>2018-04-05T09:08:24Z</time>
      </trkpt>
      <trkpt lat="45.97837" lon="4.79808">
        <ele>224</ele>
        <time>2018-04-05T09:08:26Z</time>
      </trkpt>
      <trkpt lat="45.97842" lon="4.79808">
        <ele>224</ele>
        <time>2018-04-05T09:08:27Z</time>
      </trkpt>
      <trkpt lat="45.97851" lon="4.79806">
        <ele>224</ele>
        <time>2018-04-05T09:08:29Z</time>
      </trkpt>
      <trkpt lat="45.97856" lon="4.79805">
        <ele>224</ele>
        <time>2018-04-05T09:08:30Z</time>
      </trkpt>
      <trkpt lat="45.97861" lon="4.79804">
        <ele>224</ele>
        <time>2018-04-05T09:08:31Z</time>
      </trkpt>
      <trkpt lat="45.97865" lon="4.79803">
        <ele>224</ele>
        <time>2018-04-05T09:08:32Z</time>
      </trkpt>
      <trkpt lat="45.97873" lon="4.79801">
        <ele>224</ele>
        <time>2018-04-05T09:08:34Z</time>
      </trkpt>
      <trkpt lat="45.97876" lon="4.798">
        <ele>224</ele>
        <time>2018-04-05T09:08:35Z</time>
      </trkpt>
      <trkpt lat="45.97885" lon="4.798">
        <ele>224</ele>
        <time>2018-04-05T09:08:37Z</time>
      </trkpt>
      <trkpt lat="45.97891" lon="4.79799">
        <ele>224</ele>
        <time>2018-04-05T09:08:38Z</time>
      </trkpt>
      <trkpt lat="45.979" lon="4.79798">
        <ele>224</ele>
        <time>2018-04-05T09:08:40Z</time>
      </trkpt>
      <trkpt lat="45.97904" lon="4.79798">
        <ele>224</ele>
        <time>2018-04-05T09:08:41Z</time>
      </trkpt>
      <trkpt lat="45.97908" lon="4.79797">
        <ele>224</ele>
        <time>2018-04-05T09:08:42Z</time>
      </trkpt>
      <trkpt lat="45.97914" lon="4.79796">
        <ele>224</ele>
        <time>2018-04-05T09:08:43Z</time>
      </trkpt>
      <trkpt lat="45.97919" lon="4.79795">
        <ele>224</ele>
        <time>2018-04-05T09:08:44Z</time>
      </trkpt>
      <trkpt lat="45.97923" lon="4.79793">
        <ele>224</ele>
        <time>2018-04-05T09:08:45Z</time>
      </trkpt>
      <trkpt lat="45.97929" lon="4.79793">
        <ele>224</ele>
        <time>2018-04-05T09:08:46Z</time>
      </trkpt>
      <trkpt lat="45.97933" lon="4.79792">
        <ele>224</ele>
        <time>2018-04-05T09:08:47Z</time>
      </trkpt>
      <trkpt lat="45.97937" lon="4.79791">
        <ele>224</ele>
        <time>2018-04-05T09:08:48Z</time>
      </trkpt>
      <trkpt lat="45.97942" lon="4.79791">
        <ele>224</ele>
        <time>2018-04-05T09:08:49Z</time>
      </trkpt>
      <trkpt lat="45.97948" lon="4.79791">
        <ele>224</ele>
        <time>2018-04-05T09:08:50Z</time>
      </trkpt>
      <trkpt lat="45.97953" lon="4.79791">
        <ele>224</ele>
        <time>2018-04-05T09:08:51Z</time>
      </trkpt>
      <trkpt lat="45.9796" lon="4.79788">
        <ele>224</ele>
        <time>2018-04-05T09:08:53Z</time>
      </trkpt>
      <trkpt lat="45.97965" lon="4.79788">
        <ele>224</ele>
        <time>2018-04-05T09:08:54Z</time>
      </trkpt>
      <trkpt lat="45.97972" lon="4.79786">
        <ele>224</ele>
        <time>2018-04-05T09:08:55Z</time>
      </trkpt>
      <trkpt lat="45.97976" lon="4.79786">
        <ele>224</ele>
        <time>2018-04-05T09:08:56Z</time>
      </trkpt>
      <trkpt lat="45.97984" lon="4.79784">
        <ele>224</ele>
        <time>2018-04-05T09:08:58Z</time>
      </trkpt>
      <trkpt lat="45.97988" lon="4.79783">
        <ele>224</ele>
        <time>2018-04-05T09:08:59Z</time>
      </trkpt>
      <trkpt lat="45.97993" lon="4.79782">
        <ele>224</ele>
        <time>2018-04-05T09:09:00Z</time>
      </trkpt>
      <trkpt lat="45.97997" lon="4.79781">
        <ele>224</ele>
        <time>2018-04-05T09:09:01Z</time>
      </trkpt>
      <trkpt lat="45.98003" lon="4.79781">
        <ele>223</ele>
        <time>2018-04-05T09:09:02Z</time>
      </trkpt>
      <trkpt lat="45.98008" lon="4.7978">
        <ele>223</ele>
        <time>2018-04-05T09:09:03Z</time>
      </trkpt>
      <trkpt lat="45.98013" lon="4.79779">
        <ele>223</ele>
        <time>2018-04-05T09:09:04Z</time>
      </trkpt>
      <trkpt lat="45.98018" lon="4.79778">
        <ele>223</ele>
        <time>2018-04-05T09:09:05Z</time>
      </trkpt>
      <trkpt lat="45.98023" lon="4.79778">
        <ele>223</ele>
        <time>2018-04-05T09:09:06Z</time>
      </trkpt>
      <trkpt lat="45.98028" lon="4.79778">
        <ele>223</ele>
        <time>2018-04-05T09:09:07Z</time>
      </trkpt>
      <trkpt lat="45.98033" lon="4.79778">
        <ele>223</ele>
        <time>2018-04-05T09:09:08Z</time>
      </trkpt>
      <trkpt lat="45.98038" lon="4.79777">
        <ele>223</ele>
        <time>2018-04-05T09:09:09Z</time>
      </trkpt>
      <trkpt lat="45.98043" lon="4.79776">
        <ele>223</ele>
        <time>2018-04-05T09:09:10Z</time>
      </trkpt>
      <trkpt lat="45.98048" lon="4.79775">
        <ele>223</ele>
        <time>2018-04-05T09:09:11Z</time>
      </trkpt>
      <trkpt lat="45.98053" lon="4.79775">
        <ele>223</ele>
        <time>2018-04-05T09:09:12Z</time>
      </trkpt>
      <trkpt lat="45.98058" lon="4.79774">
        <ele>223</ele>
        <time>2018-04-05T09:09:13Z</time>
      </trkpt>
      <trkpt lat="45.98063" lon="4.79773">
        <ele>223</ele>
        <time>2018-04-05T09:09:14Z</time>
      </trkpt>
      <trkpt lat="45.98068" lon="4.79773">
        <ele>223</ele>
        <time>2018-04-05T09:09:15Z</time>
      </trkpt>
      <trkpt lat="45.98073" lon="4.79771">
        <ele>223</ele>
        <time>2018-04-05T09:09:16Z</time>
      </trkpt>
      <trkpt lat="45.98078" lon="4.79771">
        <ele>223</ele>
        <time>2018-04-05T09:09:17Z</time>
      </trkpt>
      <trkpt lat="45.98083" lon="4.7977">
        <ele>223</ele>
        <time>2018-04-05T09:09:18Z</time>
      </trkpt>
      <trkpt lat="45.98087" lon="4.7977">
        <ele>223</ele>
        <time>2018-04-05T09:09:19Z</time>
      </trkpt>
      <trkpt lat="45.98092" lon="4.79769">
        <ele>223</ele>
        <time>2018-04-05T09:09:20Z</time>
      </trkpt>
      <trkpt lat="45.98097" lon="4.79768">
        <ele>223</ele>
        <time>2018-04-05T09:09:21Z</time>
      </trkpt>
      <trkpt lat="45.98101" lon="4.79768">
        <ele>223</ele>
        <time>2018-04-05T09:09:22Z</time>
      </trkpt>
      <trkpt lat="45.98106" lon="4.79767">
        <ele>224</ele>
        <time>2018-04-05T09:09:23Z</time>
      </trkpt>
      <trkpt lat="45.98114" lon="4.79767">
        <ele>224</ele>
        <time>2018-04-05T09:09:25Z</time>
      </trkpt>
      <trkpt lat="45.98118" lon="4.79766">
        <ele>224</ele>
        <time>2018-04-05T09:09:26Z</time>
      </trkpt>
      <trkpt lat="45.98126" lon="4.79766">
        <ele>224</ele>
        <time>2018-04-05T09:09:28Z</time>
      </trkpt>
      <trkpt lat="45.9813" lon="4.79767">
        <ele>224</ele>
        <time>2018-04-05T09:09:29Z</time>
      </trkpt>
      <trkpt lat="45.98137" lon="4.79766">
        <ele>224</ele>
        <time>2018-04-05T09:09:31Z</time>
      </trkpt>
      <trkpt lat="45.98141" lon="4.79765">
        <ele>224</ele>
        <time>2018-04-05T09:09:32Z</time>
      </trkpt>
      <trkpt lat="45.98149" lon="4.79765">
        <ele>225</ele>
        <time>2018-04-05T09:09:34Z</time>
      </trkpt>
      <trkpt lat="45.98153" lon="4.79765">
        <ele>225</ele>
        <time>2018-04-05T09:09:35Z</time>
      </trkpt>
      <trkpt lat="45.9816" lon="4.79768">
        <ele>225</ele>
        <time>2018-04-05T09:09:37Z</time>
      </trkpt>
      <trkpt lat="45.98161" lon="4.79769">
        <ele>225</ele>
        <time>2018-04-05T09:09:38Z</time>
      </trkpt>
      <trkpt lat="45.98166" lon="4.79772">
        <ele>225</ele>
        <time>2018-04-05T09:09:39Z</time>
      </trkpt>
      <trkpt lat="45.98169" lon="4.79776">
        <ele>226</ele>
        <time>2018-04-05T09:09:40Z</time>
      </trkpt>
      <trkpt lat="45.98174" lon="4.79785">
        <ele>226</ele>
        <time>2018-04-05T09:09:42Z</time>
      </trkpt>
      <trkpt lat="45.98176" lon="4.7979">
        <ele>226</ele>
        <time>2018-04-05T09:09:43Z</time>
      </trkpt>
      <trkpt lat="45.98179" lon="4.79802">
        <ele>226</ele>
        <time>2018-04-05T09:09:45Z</time>
      </trkpt>
      <trkpt lat="45.98181" lon="4.79808">
        <ele>225</ele>
        <time>2018-04-05T09:09:46Z</time>
      </trkpt>
      <trkpt lat="45.98182" lon="4.79815">
        <ele>225</ele>
        <time>2018-04-05T09:09:47Z</time>
      </trkpt>
      <trkpt lat="45.98184" lon="4.79821">
        <ele>225</ele>
        <time>2018-04-05T09:09:48Z</time>
      </trkpt>
      <trkpt lat="45.98186" lon="4.79828">
        <ele>225</ele>
        <time>2018-04-05T09:09:49Z</time>
      </trkpt>
      <trkpt lat="45.98189" lon="4.79835">
        <ele>224</ele>
        <time>2018-04-05T09:09:50Z</time>
      </trkpt>
      <trkpt lat="45.98191" lon="4.79841">
        <ele>225</ele>
        <time>2018-04-05T09:09:51Z</time>
      </trkpt>
      <trkpt lat="45.98194" lon="4.79849">
        <ele>225</ele>
        <time>2018-04-05T09:09:52Z</time>
      </trkpt>
      <trkpt lat="45.98198" lon="4.79856">
        <ele>225</ele>
        <time>2018-04-05T09:09:53Z</time>
      </trkpt>
      <trkpt lat="45.98201" lon="4.79864">
        <ele>225</ele>
        <time>2018-04-05T09:09:54Z</time>
      </trkpt>
      <trkpt lat="45.98203" lon="4.79872">
        <ele>225</ele>
        <time>2018-04-05T09:09:55Z</time>
      </trkpt>
      <trkpt lat="45.98206" lon="4.79879">
        <ele>225</ele>
        <time>2018-04-05T09:09:56Z</time>
      </trkpt>
      <trkpt lat="45.98209" lon="4.79888">
        <ele>225</ele>
        <time>2018-04-05T09:09:57Z</time>
      </trkpt>
      <trkpt lat="45.98211" lon="4.79897">
        <ele>225</ele>
        <time>2018-04-05T09:09:58Z</time>
      </trkpt>
      <trkpt lat="45.98215" lon="4.79906">
        <ele>225</ele>
        <time>2018-04-05T09:09:59Z</time>
      </trkpt>
      <trkpt lat="45.98217" lon="4.79914">
        <ele>225</ele>
        <time>2018-04-05T09:10:00Z</time>
      </trkpt>
      <trkpt lat="45.9822" lon="4.79921">
        <ele>225</ele>
        <time>2018-04-05T09:10:01Z</time>
      </trkpt>
      <trkpt lat="45.98224" lon="4.79929">
        <ele>225</ele>
        <time>2018-04-05T09:10:02Z</time>
      </trkpt>
      <trkpt lat="45.98226" lon="4.79936">
        <ele>225</ele>
        <time>2018-04-05T09:10:03Z</time>
      </trkpt>
      <trkpt lat="45.98229" lon="4.79943">
        <ele>225</ele>
        <time>2018-04-05T09:10:04Z</time>
      </trkpt>
      <trkpt lat="45.98232" lon="4.7995">
        <ele>225</ele>
        <time>2018-04-05T09:10:05Z</time>
      </trkpt>
      <trkpt lat="45.98235" lon="4.79957">
        <ele>225</ele>
        <time>2018-04-05T09:10:06Z</time>
      </trkpt>
      <trkpt lat="45.98238" lon="4.79965">
        <ele>225</ele>
        <time>2018-04-05T09:10:07Z</time>
      </trkpt>
      <trkpt lat="45.98241" lon="4.79973">
        <ele>225</ele>
        <time>2018-04-05T09:10:08Z</time>
      </trkpt>
      <trkpt lat="45.98243" lon="4.79982">
        <ele>225</ele>
        <time>2018-04-05T09:10:09Z</time>
      </trkpt>
      <trkpt lat="45.98246" lon="4.79991">
        <ele>226</ele>
        <time>2018-04-05T09:10:10Z</time>
      </trkpt>
      <trkpt lat="45.98249" lon="4.79998">
        <ele>226</ele>
        <time>2018-04-05T09:10:11Z</time>
      </trkpt>
      <trkpt lat="45.98251" lon="4.80006">
        <ele>227</ele>
        <time>2018-04-05T09:10:12Z</time>
      </trkpt>
      <trkpt lat="45.98254" lon="4.80014">
        <ele>227</ele>
        <time>2018-04-05T09:10:13Z</time>
      </trkpt>
      <trkpt lat="45.98257" lon="4.80021">
        <ele>228</ele>
        <time>2018-04-05T09:10:14Z</time>
      </trkpt>
      <trkpt lat="45.98259" lon="4.80028">
        <ele>228</ele>
        <time>2018-04-05T09:10:15Z</time>
      </trkpt>
      <trkpt lat="45.98261" lon="4.80034">
        <ele>228</ele>
        <time>2018-04-05T09:10:16Z</time>
      </trkpt>
      <trkpt lat="45.98264" lon="4.80042">
        <ele>228</ele>
        <time>2018-04-05T09:10:17Z</time>
      </trkpt>
      <trkpt lat="45.98266" lon="4.80048">
        <ele>228</ele>
        <time>2018-04-05T09:10:18Z</time>
      </trkpt>
      <trkpt lat="45.98268" lon="4.80055">
        <ele>228</ele>
        <time>2018-04-05T09:10:19Z</time>
      </trkpt>
      <trkpt lat="45.98271" lon="4.80062">
        <ele>228</ele>
        <time>2018-04-05T09:10:20Z</time>
      </trkpt>
      <trkpt lat="45.98274" lon="4.80068">
        <ele>228</ele>
        <time>2018-04-05T09:10:21Z</time>
      </trkpt>
      <trkpt lat="45.98277" lon="4.80075">
        <ele>228</ele>
        <time>2018-04-05T09:10:22Z</time>
      </trkpt>
      <trkpt lat="45.98279" lon="4.80081">
        <ele>229</ele>
        <time>2018-04-05T09:10:23Z</time>
      </trkpt>
      <trkpt lat="45.98281" lon="4.80088">
        <ele>228</ele>
        <time>2018-04-05T09:10:24Z</time>
      </trkpt>
      <trkpt lat="45.98283" lon="4.80096">
        <ele>228</ele>
        <time>2018-04-05T09:10:25Z</time>
      </trkpt>
      <trkpt lat="45.98286" lon="4.80103">
        <ele>228</ele>
        <time>2018-04-05T09:10:26Z</time>
      </trkpt>
      <trkpt lat="45.98289" lon="4.80111">
        <ele>228</ele>
        <time>2018-04-05T09:10:27Z</time>
      </trkpt>
      <trkpt lat="45.98292" lon="4.80118">
        <ele>228</ele>
        <time>2018-04-05T09:10:28Z</time>
      </trkpt>
      <trkpt lat="45.98295" lon="4.80126">
        <ele>228</ele>
        <time>2018-04-05T09:10:29Z</time>
      </trkpt>
      <trkpt lat="45.98297" lon="4.80134">
        <ele>228</ele>
        <time>2018-04-05T09:10:30Z</time>
      </trkpt>
      <trkpt lat="45.983" lon="4.80141">
        <ele>228</ele>
        <time>2018-04-05T09:10:31Z</time>
      </trkpt>
      <trkpt lat="45.98302" lon="4.80149">
        <ele>228</ele>
        <time>2018-04-05T09:10:32Z</time>
      </trkpt>
      <trkpt lat="45.98305" lon="4.80156">
        <ele>228</ele>
        <time>2018-04-05T09:10:33Z</time>
      </trkpt>
      <trkpt lat="45.98307" lon="4.80163">
        <ele>228</ele>
        <time>2018-04-05T09:10:34Z</time>
      </trkpt>
      <trkpt lat="45.9831" lon="4.8017">
        <ele>227</ele>
        <time>2018-04-05T09:10:35Z</time>
      </trkpt>
      <trkpt lat="45.98312" lon="4.80176">
        <ele>227</ele>
        <time>2018-04-05T09:10:36Z</time>
      </trkpt>
      <trkpt lat="45.98314" lon="4.80183">
        <ele>227</ele>
        <time>2018-04-05T09:10:37Z</time>
      </trkpt>
      <trkpt lat="45.98316" lon="4.80188">
        <ele>227</ele>
        <time>2018-04-05T09:10:38Z</time>
      </trkpt>
      <trkpt lat="45.98319" lon="4.80193">
        <ele>227</ele>
        <time>2018-04-05T09:10:39Z</time>
      </trkpt>
      <trkpt lat="45.98321" lon="4.802">
        <ele>227</ele>
        <time>2018-04-05T09:10:40Z</time>
      </trkpt>
      <trkpt lat="45.98324" lon="4.8021">
        <ele>227</ele>
        <time>2018-04-05T09:10:42Z</time>
      </trkpt>
      <trkpt lat="45.98326" lon="4.80216">
        <ele>227</ele>
        <time>2018-04-05T09:10:43Z</time>
      </trkpt>
      <trkpt lat="45.98327" lon="4.80227">
        <ele>228</ele>
        <time>2018-04-05T09:10:45Z</time>
      </trkpt>
      <trkpt lat="45.98327" lon="4.80233">
        <ele>228</ele>
        <time>2018-04-05T09:10:46Z</time>
      </trkpt>
      <trkpt lat="45.98326" lon="4.8024">
        <ele>228</ele>
        <time>2018-04-05T09:10:47Z</time>
      </trkpt>
      <trkpt lat="45.98324" lon="4.80246">
        <ele>229</ele>
        <time>2018-04-05T09:10:48Z</time>
      </trkpt>
      <trkpt lat="45.98322" lon="4.80252">
        <ele>228</ele>
        <time>2018-04-05T09:10:49Z</time>
      </trkpt>
      <trkpt lat="45.98321" lon="4.80259">
        <ele>228</ele>
        <time>2018-04-05T09:10:50Z</time>
      </trkpt>
      <trkpt lat="45.9832" lon="4.80266">
        <ele>227</ele>
        <time>2018-04-05T09:10:51Z</time>
      </trkpt>
      <trkpt lat="45.98318" lon="4.80274">
        <ele>227</ele>
        <time>2018-04-05T09:10:52Z</time>
      </trkpt>
      <trkpt lat="45.98316" lon="4.80283">
        <ele>226</ele>
        <time>2018-04-05T09:10:53Z</time>
      </trkpt>
      <trkpt lat="45.98314" lon="4.80292">
        <ele>226</ele>
        <time>2018-04-05T09:10:54Z</time>
      </trkpt>
      <trkpt lat="45.98313" lon="4.80301">
        <ele>226</ele>
        <time>2018-04-05T09:10:55Z</time>
      </trkpt>
      <trkpt lat="45.98311" lon="4.8031">
        <ele>226</ele>
        <time>2018-04-05T09:10:56Z</time>
      </trkpt>
      <trkpt lat="45.98309" lon="4.80319">
        <ele>226</ele>
        <time>2018-04-05T09:10:57Z</time>
      </trkpt>
      <trkpt lat="45.98308" lon="4.80329">
        <ele>226</ele>
        <time>2018-04-05T09:10:58Z</time>
      </trkpt>
      <trkpt lat="45.98306" lon="4.80338">
        <ele>226</ele>
        <time>2018-04-05T09:10:59Z</time>
      </trkpt>
      <trkpt lat="45.98304" lon="4.80348">
        <ele>225</ele>
        <time>2018-04-05T09:11:00Z</time>
      </trkpt>
      <trkpt lat="45.98302" lon="4.80357">
        <ele>225</ele>
        <time>2018-04-05T09:11:01Z</time>
      </trkpt>
      <trkpt lat="45.98301" lon="4.80366">
        <ele>225</ele>
        <time>2018-04-05T09:11:02Z</time>
      </trkpt>
      <trkpt lat="45.98299" lon="4.80375">
        <ele>225</ele>
        <time>2018-04-05T09:11:03Z</time>
      </trkpt>
      <trkpt lat="45.98297" lon="4.80384">
        <ele>225</ele>
        <time>2018-04-05T09:11:04Z</time>
      </trkpt>
      <trkpt lat="45.98294" lon="4.80392">
        <ele>224</ele>
        <time>2018-04-05T09:11:05Z</time>
      </trkpt>
      <trkpt lat="45.98292" lon="4.80402">
        <ele>224</ele>
        <time>2018-04-05T09:11:06Z</time>
      </trkpt>
      <trkpt lat="45.98289" lon="4.80411">
        <ele>224</ele>
        <time>2018-04-05T09:11:07Z</time>
      </trkpt>
      <trkpt lat="45.98287" lon="4.8042">
        <ele>224</ele>
        <time>2018-04-05T09:11:08Z</time>
      </trkpt>
      <trkpt lat="45.98285" lon="4.80431">
        <ele>223</ele>
        <time>2018-04-05T09:11:09Z</time>
      </trkpt>
      <trkpt lat="45.98283" lon="4.80441">
        <ele>223</ele>
        <time>2018-04-05T09:11:10Z</time>
      </trkpt>
      <trkpt lat="45.98281" lon="4.8045">
        <ele>223</ele>
        <time>2018-04-05T09:11:11Z</time>
      </trkpt>
      <trkpt lat="45.98279" lon="4.80459">
        <ele>223</ele>
        <time>2018-04-05T09:11:12Z</time>
      </trkpt>
      <trkpt lat="45.98277" lon="4.80468">
        <ele>223</ele>
        <time>2018-04-05T09:11:13Z</time>
      </trkpt>
      <trkpt lat="45.98275" lon="4.80479">
        <ele>223</ele>
        <time>2018-04-05T09:11:14Z</time>
      </trkpt>
      <trkpt lat="45.98272" lon="4.80488">
        <ele>223</ele>
        <time>2018-04-05T09:11:15Z</time>
      </trkpt>
      <trkpt lat="45.98271" lon="4.80496">
        <ele>223</ele>
        <time>2018-04-05T09:11:16Z</time>
      </trkpt>
      <trkpt lat="45.98269" lon="4.80504">
        <ele>223</ele>
        <time>2018-04-05T09:11:17Z</time>
      </trkpt>
      <trkpt lat="45.98267" lon="4.80512">
        <ele>223</ele>
        <time>2018-04-05T09:11:18Z</time>
      </trkpt>
      <trkpt lat="45.98264" lon="4.80519">
        <ele>223</ele>
        <time>2018-04-05T09:11:19Z</time>
      </trkpt>
      <trkpt lat="45.98262" lon="4.80526">
        <ele>224</ele>
        <time>2018-04-05T09:11:20Z</time>
      </trkpt>
      <trkpt lat="45.98259" lon="4.80535">
        <ele>224</ele>
        <time>2018-04-05T09:11:21Z</time>
      </trkpt>
      <trkpt lat="45.98257" lon="4.80542">
        <ele>224</ele>
        <time>2018-04-05T09:11:22Z</time>
      </trkpt>
      <trkpt lat="45.98255" lon="4.80548">
        <ele>224</ele>
        <time>2018-04-05T09:11:23Z</time>
      </trkpt>
      <trkpt lat="45.98253" lon="4.80555">
        <ele>224</ele>
        <time>2018-04-05T09:11:24Z</time>
      </trkpt>
      <trkpt lat="45.9825" lon="4.80563">
        <ele>223</ele>
        <time>2018-04-05T09:11:25Z</time>
      </trkpt>
      <trkpt lat="45.98247" lon="4.80571">
        <ele>224</ele>
        <time>2018-04-05T09:11:26Z</time>
      </trkpt>
      <trkpt lat="45.98245" lon="4.8058">
        <ele>224</ele>
        <time>2018-04-05T09:11:27Z</time>
      </trkpt>
      <trkpt lat="45.98242" lon="4.80587">
        <ele>224</ele>
        <time>2018-04-05T09:11:28Z</time>
      </trkpt>
      <trkpt lat="45.9824" lon="4.80595">
        <ele>224</ele>
        <time>2018-04-05T09:11:29Z</time>
      </trkpt>
      <trkpt lat="45.98238" lon="4.80603">
        <ele>224</ele>
        <time>2018-04-05T09:11:30Z</time>
      </trkpt>
      <trkpt lat="45.98237" lon="4.8061">
        <ele>224</ele>
        <time>2018-04-05T09:11:31Z</time>
      </trkpt>
      <trkpt lat="45.98234" lon="4.80617">
        <ele>224</ele>
        <time>2018-04-05T09:11:32Z</time>
      </trkpt>
      <trkpt lat="45.98231" lon="4.80623">
        <ele>224</ele>
        <time>2018-04-05T09:11:33Z</time>
      </trkpt>
      <trkpt lat="45.98231" lon="4.80633">
        <ele>224</ele>
        <time>2018-04-05T09:11:34Z</time>
      </trkpt>
      <trkpt lat="45.98229" lon="4.80639">
        <ele>224</ele>
        <time>2018-04-05T09:11:35Z</time>
      </trkpt>
      <trkpt lat="45.98226" lon="4.80646">
        <ele>224</ele>
        <time>2018-04-05T09:11:36Z</time>
      </trkpt>
      <trkpt lat="45.98223" lon="4.80653">
        <ele>224</ele>
        <time>2018-04-05T09:11:37Z</time>
      </trkpt>
      <trkpt lat="45.98222" lon="4.80659">
        <ele>224</ele>
        <time>2018-04-05T09:11:38Z</time>
      </trkpt>
      <trkpt lat="45.98216" lon="4.80668">
        <ele>224</ele>
        <time>2018-04-05T09:11:40Z</time>
      </trkpt>
      <trkpt lat="45.98211" lon="4.80671">
        <ele>224</ele>
        <time>2018-04-05T09:11:41Z</time>
      </trkpt>
      <trkpt lat="45.98205" lon="4.80675">
        <ele>224</ele>
        <time>2018-04-05T09:11:43Z</time>
      </trkpt>
      <trkpt lat="45.98201" lon="4.80677">
        <ele>225</ele>
        <time>2018-04-05T09:11:44Z</time>
      </trkpt>
      <trkpt lat="45.98195" lon="4.8068">
        <ele>225</ele>
        <time>2018-04-05T09:11:46Z</time>
      </trkpt>
      <trkpt lat="45.98191" lon="4.80681">
        <ele>225</ele>
        <time>2018-04-05T09:11:47Z</time>
      </trkpt>
      <trkpt lat="45.98183" lon="4.80683">
        <ele>225</ele>
        <time>2018-04-05T09:11:49Z</time>
      </trkpt>
      <trkpt lat="45.98179" lon="4.80684">
        <ele>225</ele>
        <time>2018-04-05T09:11:50Z</time>
      </trkpt>
      <trkpt lat="45.98174" lon="4.80685">
        <ele>225</ele>
        <time>2018-04-05T09:11:52Z</time>
      </trkpt>
      <trkpt lat="45.98169" lon="4.80685">
        <ele>225</ele>
        <time>2018-04-05T09:11:53Z</time>
      </trkpt>
      <trkpt lat="45.98161" lon="4.80686">
        <ele>227</ele>
        <time>2018-04-05T09:11:55Z</time>
      </trkpt>
      <trkpt lat="45.98157" lon="4.80687">
        <ele>227</ele>
        <time>2018-04-05T09:11:56Z</time>
      </trkpt>
      <trkpt lat="45.98149" lon="4.80687">
        <ele>227</ele>
        <time>2018-04-05T09:11:58Z</time>
      </trkpt>
      <trkpt lat="45.98145" lon="4.80687">
        <ele>228</ele>
        <time>2018-04-05T09:11:59Z</time>
      </trkpt>
      <trkpt lat="45.98138" lon="4.80686">
        <ele>228</ele>
        <time>2018-04-05T09:12:01Z</time>
      </trkpt>
      <trkpt lat="45.98134" lon="4.80686">
        <ele>228</ele>
        <time>2018-04-05T09:12:02Z</time>
      </trkpt>
      <trkpt lat="45.98129" lon="4.80686">
        <ele>228</ele>
        <time>2018-04-05T09:12:04Z</time>
      </trkpt>
      <trkpt lat="45.98123" lon="4.80687">
        <ele>228</ele>
        <time>2018-04-05T09:12:05Z</time>
      </trkpt>
      <trkpt lat="45.98116" lon="4.80687">
        <ele>228</ele>
        <time>2018-04-05T09:12:07Z</time>
      </trkpt>
      <trkpt lat="45.98114" lon="4.80687">
        <ele>228</ele>
        <time>2018-04-05T09:12:08Z</time>
      </trkpt>
      <trkpt lat="45.98105" lon="4.80686">
        <ele>228</ele>
        <time>2018-04-05T09:12:10Z</time>
      </trkpt>
      <trkpt lat="45.98101" lon="4.80686">
        <ele>228</ele>
        <time>2018-04-05T09:12:11Z</time>
      </trkpt>
      <trkpt lat="45.98094" lon="4.80687">
        <ele>228</ele>
        <time>2018-04-05T09:12:13Z</time>
      </trkpt>
      <trkpt lat="45.9809" lon="4.80687">
        <ele>228</ele>
        <time>2018-04-05T09:12:14Z</time>
      </trkpt>
      <trkpt lat="45.98082" lon="4.80688">
        <ele>229</ele>
        <time>2018-04-05T09:12:17Z</time>
      </trkpt>
      <trkpt lat="45.98079" lon="4.80688">
        <ele>229</ele>
        <time>2018-04-05T09:12:18Z</time>
      </trkpt>
      <trkpt lat="45.98071" lon="4.80689">
        <ele>230</ele>
        <time>2018-04-05T09:12:21Z</time>
      </trkpt>
      <trkpt lat="45.98068" lon="4.80689">
        <ele>230</ele>
        <time>2018-04-05T09:12:22Z</time>
      </trkpt>
      <trkpt lat="45.98059" lon="4.80688">
        <ele>230</ele>
        <time>2018-04-05T09:12:25Z</time>
      </trkpt>
      <trkpt lat="45.98056" lon="4.80689">
        <ele>230</ele>
        <time>2018-04-05T09:12:26Z</time>
      </trkpt>
      <trkpt lat="45.98048" lon="4.80691">
        <ele>230</ele>
        <time>2018-04-05T09:12:29Z</time>
      </trkpt>
      <trkpt lat="45.98045" lon="4.80692">
        <ele>230</ele>
        <time>2018-04-05T09:12:30Z</time>
      </trkpt>
      <trkpt lat="45.98039" lon="4.80695">
        <ele>230</ele>
        <time>2018-04-05T09:12:32Z</time>
      </trkpt>
      <trkpt lat="45.98036" lon="4.80697">
        <ele>230</ele>
        <time>2018-04-05T09:12:33Z</time>
      </trkpt>
      <trkpt lat="45.9803" lon="4.80706">
        <ele>231</ele>
        <time>2018-04-05T09:12:36Z</time>
      </trkpt>
      <trkpt lat="45.98029" lon="4.8071">
        <ele>231</ele>
        <time>2018-04-05T09:12:37Z</time>
      </trkpt>
      <trkpt lat="45.98031" lon="4.8072">
        <ele>231</ele>
        <time>2018-04-05T09:12:40Z</time>
      </trkpt>
      <trkpt lat="45.98032" lon="4.80723">
        <ele>231</ele>
        <time>2018-04-05T09:12:41Z</time>
      </trkpt>
      <trkpt lat="45.98034" lon="4.80735">
        <ele>231</ele>
        <time>2018-04-05T09:12:45Z</time>
      </trkpt>
      <trkpt lat="45.98035" lon="4.80738">
        <ele>231</ele>
        <time>2018-04-05T09:12:46Z</time>
      </trkpt>
      <trkpt lat="45.98037" lon="4.80747">
        <ele>231</ele>
        <time>2018-04-05T09:12:49Z</time>
      </trkpt>
      <trkpt lat="45.98038" lon="4.8075">
        <ele>231</ele>
        <time>2018-04-05T09:12:50Z</time>
      </trkpt>
      <trkpt lat="45.9804" lon="4.80761">
        <ele>233</ele>
        <time>2018-04-05T09:12:53Z</time>
      </trkpt>
      <trkpt lat="45.9804" lon="4.80765">
        <ele>233</ele>
        <time>2018-04-05T09:12:54Z</time>
      </trkpt>
      <trkpt lat="45.98041" lon="4.80776">
        <ele>233</ele>
        <time>2018-04-05T09:12:57Z</time>
      </trkpt>
      <trkpt lat="45.98042" lon="4.8078">
        <ele>233</ele>
        <time>2018-04-05T09:12:58Z</time>
      </trkpt>
      <trkpt lat="45.98045" lon="4.80791">
        <ele>233</ele>
        <time>2018-04-05T09:13:01Z</time>
      </trkpt>
      <trkpt lat="45.98046" lon="4.80795">
        <ele>234</ele>
        <time>2018-04-05T09:13:02Z</time>
      </trkpt>
      <trkpt lat="45.98048" lon="4.80806">
        <ele>234</ele>
        <time>2018-04-05T09:13:05Z</time>
      </trkpt>
      <trkpt lat="45.98049" lon="4.8081">
        <ele>234</ele>
        <time>2018-04-05T09:13:06Z</time>
      </trkpt>
      <trkpt lat="45.98052" lon="4.80821">
        <ele>234</ele>
        <time>2018-04-05T09:13:09Z</time>
      </trkpt>
      <trkpt lat="45.98053" lon="4.80825">
        <ele>234</ele>
        <time>2018-04-05T09:13:10Z</time>
      </trkpt>
      <trkpt lat="45.98057" lon="4.80836">
        <ele>236</ele>
        <time>2018-04-05T09:13:13Z</time>
      </trkpt>
      <trkpt lat="45.98058" lon="4.8084">
        <ele>236</ele>
        <time>2018-04-05T09:13:14Z</time>
      </trkpt>
      <trkpt lat="45.9806" lon="4.80851">
        <ele>236</ele>
        <time>2018-04-05T09:13:17Z</time>
      </trkpt>
      <trkpt lat="45.98061" lon="4.80854">
        <ele>236</ele>
        <time>2018-04-05T09:13:18Z</time>
      </trkpt>
      <trkpt lat="45.98063" lon="4.80865">
        <ele>237</ele>
        <time>2018-04-05T09:13:21Z</time>
      </trkpt>
      <trkpt lat="45.98064" lon="4.80868">
        <ele>237</ele>
        <time>2018-04-05T09:13:22Z</time>
      </trkpt>
      <trkpt lat="45.98067" lon="4.80879">
        <ele>237</ele>
        <time>2018-04-05T09:13:26Z</time>
      </trkpt>
      <trkpt lat="45.98068" lon="4.80882">
        <ele>237</ele>
        <time>2018-04-05T09:13:27Z</time>
      </trkpt>
      <trkpt lat="45.9807" lon="4.80891">
        <ele>238</ele>
        <time>2018-04-05T09:13:30Z</time>
      </trkpt>
      <trkpt lat="45.98071" lon="4.80894">
        <ele>238</ele>
        <time>2018-04-05T09:13:31Z</time>
      </trkpt>
      <trkpt lat="45.98074" lon="4.80904">
        <ele>238</ele>
        <time>2018-04-05T09:13:34Z</time>
      </trkpt>
      <trkpt lat="45.98075" lon="4.80907">
        <ele>238</ele>
        <time>2018-04-05T09:13:35Z</time>
      </trkpt>
      <trkpt lat="45.98078" lon="4.80917">
        <ele>239</ele>
        <time>2018-04-05T09:13:38Z</time>
      </trkpt>
      <trkpt lat="45.98079" lon="4.8092">
        <ele>239</ele>
        <time>2018-04-05T09:13:39Z</time>
      </trkpt>
      <trkpt lat="45.98081" lon="4.8093">
        <ele>240</ele>
        <time>2018-04-05T09:13:42Z</time>
      </trkpt>
      <trkpt lat="45.98082" lon="4.80933">
        <ele>240</ele>
        <time>2018-04-05T09:13:43Z</time>
      </trkpt>
      <trkpt lat="45.98084" lon="4.80943">
        <ele>238</ele>
        <time>2018-04-05T09:13:46Z</time>
      </trkpt>
      <trkpt lat="45.98085" lon="4.80946">
        <ele>238</ele>
        <time>2018-04-05T09:13:47Z</time>
      </trkpt>
      <trkpt lat="45.98087" lon="4.80956">
        <ele>239</ele>
        <time>2018-04-05T09:13:50Z</time>
      </trkpt>
      <trkpt lat="45.98087" lon="4.80959">
        <ele>239</ele>
        <time>2018-04-05T09:13:51Z</time>
      </trkpt>
      <trkpt lat="45.9809" lon="4.8097">
        <ele>239</ele>
        <time>2018-04-05T09:13:55Z</time>
      </trkpt>
      <trkpt lat="45.98091" lon="4.80973">
        <ele>239</ele>
        <time>2018-04-05T09:13:56Z</time>
      </trkpt>
      <trkpt lat="45.98094" lon="4.80985">
        <ele>240</ele>
        <time>2018-04-05T09:14:00Z</time>
      </trkpt>
      <trkpt lat="45.98095" lon="4.80988">
        <ele>240</ele>
        <time>2018-04-05T09:14:01Z</time>
      </trkpt>
      <trkpt lat="45.98096" lon="4.80992">
        <ele>240</ele>
        <time>2018-04-05T09:14:02Z</time>
      </trkpt>
      <trkpt lat="45.98099" lon="4.81005">
        <ele>242</ele>
        <time>2018-04-05T09:14:03Z</time>
      </trkpt>
      <trkpt lat="45.98102" lon="4.81016">
        <ele>242</ele>
        <time>2018-04-05T09:14:05Z</time>
      </trkpt>
      <trkpt lat="45.98104" lon="4.81021">
        <ele>242</ele>
        <time>2018-04-05T09:14:06Z</time>
      </trkpt>
      <trkpt lat="45.98108" lon="4.81032">
        <ele>242</ele>
        <time>2018-04-05T09:14:08Z</time>
      </trkpt>
      <trkpt lat="45.98109" lon="4.81037">
        <ele>242</ele>
        <time>2018-04-05T09:14:09Z</time>
      </trkpt>
      <trkpt lat="45.98112" lon="4.81047">
        <ele>243</ele>
        <time>2018-04-05T09:14:11Z</time>
      </trkpt>
      <trkpt lat="45.98114" lon="4.81052">
        <ele>243</ele>
        <time>2018-04-05T09:14:12Z</time>
      </trkpt>
      <trkpt lat="45.98118" lon="4.81062">
        <ele>243</ele>
        <time>2018-04-05T09:14:14Z</time>
      </trkpt>
      <trkpt lat="45.9812" lon="4.81066">
        <ele>243</ele>
        <time>2018-04-05T09:14:15Z</time>
      </trkpt>
      <trkpt lat="45.98124" lon="4.81076">
        <ele>243</ele>
        <time>2018-04-05T09:14:17Z</time>
      </trkpt>
      <trkpt lat="45.98126" lon="4.81081">
        <ele>243</ele>
        <time>2018-04-05T09:14:18Z</time>
      </trkpt>
      <trkpt lat="45.98129" lon="4.81092">
        <ele>245</ele>
        <time>2018-04-05T09:14:20Z</time>
      </trkpt>
      <trkpt lat="45.98131" lon="4.81097">
        <ele>245</ele>
        <time>2018-04-05T09:14:21Z</time>
      </trkpt>
      <trkpt lat="45.98136" lon="4.81106">
        <ele>245</ele>
        <time>2018-04-05T09:14:23Z</time>
      </trkpt>
      <trkpt lat="45.98138" lon="4.81111">
        <ele>245</ele>
        <time>2018-04-05T09:14:24Z</time>
      </trkpt>
      <trkpt lat="45.98142" lon="4.81122">
        <ele>245</ele>
        <time>2018-04-05T09:14:26Z</time>
      </trkpt>
      <trkpt lat="45.98144" lon="4.81127">
        <ele>245</ele>
        <time>2018-04-05T09:14:27Z</time>
      </trkpt>
      <trkpt lat="45.98147" lon="4.81137">
        <ele>245</ele>
        <time>2018-04-05T09:14:29Z</time>
      </trkpt>
      <trkpt lat="45.9815" lon="4.81142">
        <ele>245</ele>
        <time>2018-04-05T09:14:30Z</time>
      </trkpt>
      <trkpt lat="45.98154" lon="4.81153">
        <ele>245</ele>
        <time>2018-04-05T09:14:32Z</time>
      </trkpt>
      <trkpt lat="45.98156" lon="4.81157">
        <ele>245</ele>
        <time>2018-04-05T09:14:33Z</time>
      </trkpt>
      <trkpt lat="45.98161" lon="4.81167">
        <ele>245</ele>
        <time>2018-04-05T09:14:35Z</time>
      </trkpt>
      <trkpt lat="45.98163" lon="4.81172">
        <ele>245</ele>
        <time>2018-04-05T09:14:36Z</time>
      </trkpt>
      <trkpt lat="45.98166" lon="4.81182">
        <ele>246</ele>
        <time>2018-04-05T09:14:38Z</time>
      </trkpt>
      <trkpt lat="45.98167" lon="4.81187">
        <ele>246</ele>
        <time>2018-04-05T09:14:39Z</time>
      </trkpt>
      <trkpt lat="45.98168" lon="4.81198">
        <ele>245</ele>
        <time>2018-04-05T09:14:41Z</time>
      </trkpt>
      <trkpt lat="45.98168" lon="4.81204">
        <ele>245</ele>
        <time>2018-04-05T09:14:42Z</time>
      </trkpt>
      <trkpt lat="45.98169" lon="4.81215">
        <ele>246</ele>
        <time>2018-04-05T09:14:44Z</time>
      </trkpt>
      <trkpt lat="45.9817" lon="4.81221">
        <ele>246</ele>
        <time>2018-04-05T09:14:45Z</time>
      </trkpt>
      <trkpt lat="45.9817" lon="4.81227">
        <ele>246</ele>
        <time>2018-04-05T09:14:47Z</time>
      </trkpt>
      <trkpt lat="45.98171" lon="4.81236">
        <ele>247</ele>
        <time>2018-04-05T09:14:48Z</time>
      </trkpt>
      <trkpt lat="45.98172" lon="4.81248">
        <ele>247</ele>
        <time>2018-04-05T09:14:50Z</time>
      </trkpt>
      <trkpt lat="45.98173" lon="4.81254">
        <ele>248</ele>
        <time>2018-04-05T09:14:51Z</time>
      </trkpt>
      <trkpt lat="45.98175" lon="4.81266">
        <ele>247</ele>
        <time>2018-04-05T09:14:53Z</time>
      </trkpt>
      <trkpt lat="45.98176" lon="4.81272">
        <ele>247</ele>
        <time>2018-04-05T09:14:54Z</time>
      </trkpt>
      <trkpt lat="45.9818" lon="4.81284">
        <ele>247</ele>
        <time>2018-04-05T09:14:56Z</time>
      </trkpt>
      <trkpt lat="45.98182" lon="4.8129">
        <ele>247</ele>
        <time>2018-04-05T09:14:57Z</time>
      </trkpt>
      <trkpt lat="45.98183" lon="4.81296">
        <ele>247</ele>
        <time>2018-04-05T09:14:58Z</time>
      </trkpt>
      <trkpt lat="45.98186" lon="4.81303">
        <ele>247</ele>
        <time>2018-04-05T09:14:59Z</time>
      </trkpt>
      <trkpt lat="45.98185" lon="4.8131">
        <ele>247</ele>
        <time>2018-04-05T09:15:00Z</time>
      </trkpt>
      <trkpt lat="45.98187" lon="4.81316">
        <ele>247</ele>
        <time>2018-04-05T09:15:01Z</time>
      </trkpt>
      <trkpt lat="45.98188" lon="4.81322">
        <ele>247</ele>
        <time>2018-04-05T09:15:02Z</time>
      </trkpt>
      <trkpt lat="45.9819" lon="4.81328">
        <ele>247</ele>
        <time>2018-04-05T09:15:03Z</time>
      </trkpt>
      <trkpt lat="45.98191" lon="4.81334">
        <ele>248</ele>
        <time>2018-04-05T09:15:04Z</time>
      </trkpt>
      <trkpt lat="45.98193" lon="4.8134">
        <ele>248</ele>
        <time>2018-04-05T09:15:05Z</time>
      </trkpt>
      <trkpt lat="45.98194" lon="4.81346">
        <ele>248</ele>
        <time>2018-04-05T09:15:06Z</time>
      </trkpt>
      <trkpt lat="45.98196" lon="4.81353">
        <ele>248</ele>
        <time>2018-04-05T09:15:07Z</time>
      </trkpt>
      <trkpt lat="45.98197" lon="4.81359">
        <ele>248</ele>
        <time>2018-04-05T09:15:08Z</time>
      </trkpt>
      <trkpt lat="45.98198" lon="4.81365">
        <ele>248</ele>
        <time>2018-04-05T09:15:09Z</time>
      </trkpt>
      <trkpt lat="45.98201" lon="4.81377">
        <ele>248</ele>
        <time>2018-04-05T09:15:11Z</time>
      </trkpt>
      <trkpt lat="45.98203" lon="4.81382">
        <ele>248</ele>
        <time>2018-04-05T09:15:12Z</time>
      </trkpt>
      <trkpt lat="45.98206" lon="4.81393">
        <ele>248</ele>
        <time>2018-04-05T09:15:14Z</time>
      </trkpt>
      <trkpt lat="45.98208" lon="4.81399">
        <ele>248</ele>
        <time>2018-04-05T09:15:15Z</time>
      </trkpt>
      <trkpt lat="45.98212" lon="4.81409">
        <ele>248</ele>
        <time>2018-04-05T09:15:17Z</time>
      </trkpt>
      <trkpt lat="45.98214" lon="4.81414">
        <ele>248</ele>
        <time>2018-04-05T09:15:18Z</time>
      </trkpt>
      <trkpt lat="45.98217" lon="4.81426">
        <ele>249</ele>
        <time>2018-04-05T09:15:20Z</time>
      </trkpt>
      <trkpt lat="45.98219" lon="4.81431">
        <ele>249</ele>
        <time>2018-04-05T09:15:21Z</time>
      </trkpt>
      <trkpt lat="45.98223" lon="4.81443">
        <ele>249</ele>
        <time>2018-04-05T09:15:23Z</time>
      </trkpt>
      <trkpt lat="45.98225" lon="4.81449">
        <ele>249</ele>
        <time>2018-04-05T09:15:24Z</time>
      </trkpt>
      <trkpt lat="45.98227" lon="4.81455">
        <ele>249</ele>
        <time>2018-04-05T09:15:25Z</time>
      </trkpt>
      <trkpt lat="45.98228" lon="4.81462">
        <ele>249</ele>
        <time>2018-04-05T09:15:26Z</time>
      </trkpt>
      <trkpt lat="45.98232" lon="4.81473">
        <ele>249</ele>
        <time>2018-04-05T09:15:28Z</time>
      </trkpt>
      <trkpt lat="45.98234" lon="4.81479">
        <ele>249</ele>
        <time>2018-04-05T09:15:29Z</time>
      </trkpt>
      <trkpt lat="45.98235" lon="4.81485">
        <ele>249</ele>
        <time>2018-04-05T09:15:30Z</time>
      </trkpt>
      <trkpt lat="45.98237" lon="4.81492">
        <ele>249</ele>
        <time>2018-04-05T09:15:31Z</time>
      </trkpt>
      <trkpt lat="45.98239" lon="4.81497">
        <ele>249</ele>
        <time>2018-04-05T09:15:32Z</time>
      </trkpt>
      <trkpt lat="45.98241" lon="4.81504">
        <ele>249</ele>
        <time>2018-04-05T09:15:33Z</time>
      </trkpt>
      <trkpt lat="45.98243" lon="4.8151">
        <ele>249</ele>
        <time>2018-04-05T09:15:34Z</time>
      </trkpt>
      <trkpt lat="45.98244" lon="4.81518">
        <ele>249</ele>
        <time>2018-04-05T09:15:35Z</time>
      </trkpt>
      <trkpt lat="45.98247" lon="4.81524">
        <ele>249</ele>
        <time>2018-04-05T09:15:36Z</time>
      </trkpt>
      <trkpt lat="45.98249" lon="4.81531">
        <ele>249</ele>
        <time>2018-04-05T09:15:37Z</time>
      </trkpt>
      <trkpt lat="45.98254" lon="4.81542">
        <ele>247</ele>
        <time>2018-04-05T09:15:39Z</time>
      </trkpt>
      <trkpt lat="45.98256" lon="4.81548">
        <ele>247</ele>
        <time>2018-04-05T09:15:40Z</time>
      </trkpt>
      <trkpt lat="45.98258" lon="4.81554">
        <ele>247</ele>
        <time>2018-04-05T09:15:41Z</time>
      </trkpt>
      <trkpt lat="45.9826" lon="4.81561">
        <ele>247</ele>
        <time>2018-04-05T09:15:42Z</time>
      </trkpt>
      <trkpt lat="45.98263" lon="4.81567">
        <ele>247</ele>
        <time>2018-04-05T09:15:43Z</time>
      </trkpt>
      <trkpt lat="45.98265" lon="4.81573">
        <ele>247</ele>
        <time>2018-04-05T09:15:44Z</time>
      </trkpt>
      <trkpt lat="45.98267" lon="4.8158">
        <ele>247</ele>
        <time>2018-04-05T09:15:45Z</time>
      </trkpt>
      <trkpt lat="45.9827" lon="4.81587">
        <ele>247</ele>
        <time>2018-04-05T09:15:46Z</time>
      </trkpt>
      <trkpt lat="45.98272" lon="4.81593">
        <ele>247</ele>
        <time>2018-04-05T09:15:47Z</time>
      </trkpt>
      <trkpt lat="45.98274" lon="4.81601">
        <ele>247</ele>
        <time>2018-04-05T09:15:48Z</time>
      </trkpt>
      <trkpt lat="45.98277" lon="4.81607">
        <ele>247</ele>
        <time>2018-04-05T09:15:49Z</time>
      </trkpt>
      <trkpt lat="45.9828" lon="4.81614">
        <ele>247</ele>
        <time>2018-04-05T09:15:50Z</time>
      </trkpt>
      <trkpt lat="45.98283" lon="4.8162">
        <ele>247</ele>
        <time>2018-04-05T09:15:51Z</time>
      </trkpt>
      <trkpt lat="45.98286" lon="4.81626">
        <ele>247</ele>
        <time>2018-04-05T09:15:52Z</time>
      </trkpt>
      <trkpt lat="45.9829" lon="4.81631">
        <ele>247</ele>
        <time>2018-04-05T09:15:53Z</time>
      </trkpt>
      <trkpt lat="45.98293" lon="4.81635">
        <ele>247</ele>
        <time>2018-04-05T09:15:54Z</time>
      </trkpt>
      <trkpt lat="45.983" lon="4.81643">
        <ele>247</ele>
        <time>2018-04-05T09:15:56Z</time>
      </trkpt>
      <trkpt lat="45.98304" lon="4.81647">
        <ele>246</ele>
        <time>2018-04-05T09:15:57Z</time>
      </trkpt>
      <trkpt lat="45.98311" lon="4.81654">
        <ele>246</ele>
        <time>2018-04-05T09:15:59Z</time>
      </trkpt>
      <trkpt lat="45.98314" lon="4.81657">
        <ele>246</ele>
        <time>2018-04-05T09:16:00Z</time>
      </trkpt>
      <trkpt lat="45.98318" lon="4.81661">
        <ele>246</ele>
        <time>2018-04-05T09:16:01Z</time>
      </trkpt>
      <trkpt lat="45.98322" lon="4.81664">
        <ele>246</ele>
        <time>2018-04-05T09:16:02Z</time>
      </trkpt>
      <trkpt lat="45.98327" lon="4.81668">
        <ele>246</ele>
        <time>2018-04-05T09:16:03Z</time>
      </trkpt>
      <trkpt lat="45.98332" lon="4.8167">
        <ele>246</ele>
        <time>2018-04-05T09:16:04Z</time>
      </trkpt>
      <trkpt lat="45.98337" lon="4.81672">
        <ele>246</ele>
        <time>2018-04-05T09:16:05Z</time>
      </trkpt>
      <trkpt lat="45.98343" lon="4.81674">
        <ele>245</ele>
        <time>2018-04-05T09:16:06Z</time>
      </trkpt>
      <trkpt lat="45.98347" lon="4.81675">
        <ele>245</ele>
        <time>2018-04-05T09:16:07Z</time>
      </trkpt>
      <trkpt lat="45.98352" lon="4.81676">
        <ele>245</ele>
        <time>2018-04-05T09:16:08Z</time>
      </trkpt>
      <trkpt lat="45.98358" lon="4.81676">
        <ele>245</ele>
        <time>2018-04-05T09:16:09Z</time>
      </trkpt>
      <trkpt lat="45.98362" lon="4.81675">
        <ele>244</ele>
        <time>2018-04-05T09:16:10Z</time>
      </trkpt>
      <trkpt lat="45.98368" lon="4.81675">
        <ele>244</ele>
        <time>2018-04-05T09:16:11Z</time>
      </trkpt>
      <trkpt lat="45.98374" lon="4.81675">
        <ele>244</ele>
        <time>2018-04-05T09:16:12Z</time>
      </trkpt>
      <trkpt lat="45.98379" lon="4.81674">
        <ele>244</ele>
        <time>2018-04-05T09:16:13Z</time>
      </trkpt>
      <trkpt lat="45.98384" lon="4.81672">
        <ele>243</ele>
        <time>2018-04-05T09:16:14Z</time>
      </trkpt>
      <trkpt lat="45.98389" lon="4.8167">
        <ele>243</ele>
        <time>2018-04-05T09:16:15Z</time>
      </trkpt>
      <trkpt lat="45.98393" lon="4.81669">
        <ele>243</ele>
        <time>2018-04-05T09:16:16Z</time>
      </trkpt>
      <trkpt lat="45.98398" lon="4.81669">
        <ele>243</ele>
        <time>2018-04-05T09:16:17Z</time>
      </trkpt>
      <trkpt lat="45.98403" lon="4.81668">
        <ele>242</ele>
        <time>2018-04-05T09:16:18Z</time>
      </trkpt>
      <trkpt lat="45.98411" lon="4.81667">
        <ele>242</ele>
        <time>2018-04-05T09:16:20Z</time>
      </trkpt>
      <trkpt lat="45.98416" lon="4.81666">
        <ele>241</ele>
        <time>2018-04-05T09:16:21Z</time>
      </trkpt>
      <trkpt lat="45.98421" lon="4.81668">
        <ele>241</ele>
        <time>2018-04-05T09:16:22Z</time>
      </trkpt>
      <trkpt lat="45.98425" lon="4.81669">
        <ele>240</ele>
        <time>2018-04-05T09:16:23Z</time>
      </trkpt>
      <trkpt lat="45.9843" lon="4.81671">
        <ele>240</ele>
        <time>2018-04-05T09:16:24Z</time>
      </trkpt>
      <trkpt lat="45.98434" lon="4.81675">
        <ele>240</ele>
        <time>2018-04-05T09:16:25Z</time>
      </trkpt>
      <trkpt lat="45.98438" lon="4.81678">
        <ele>240</ele>
        <time>2018-04-05T09:16:26Z</time>
      </trkpt>
      <trkpt lat="45.98442" lon="4.81683">
        <ele>239</ele>
        <time>2018-04-05T09:16:27Z</time>
      </trkpt>
      <trkpt lat="45.98445" lon="4.81688">
        <ele>239</ele>
        <time>2018-04-05T09:16:28Z</time>
      </trkpt>
      <trkpt lat="45.98448" lon="4.81694">
        <ele>239</ele>
        <time>2018-04-05T09:16:29Z</time>
      </trkpt>
      <trkpt lat="45.98451" lon="4.817">
        <ele>239</ele>
        <time>2018-04-05T09:16:30Z</time>
      </trkpt>
      <trkpt lat="45.98454" lon="4.81706">
        <ele>239</ele>
        <time>2018-04-05T09:16:31Z</time>
      </trkpt>
      <trkpt lat="45.98458" lon="4.81713">
        <ele>239</ele>
        <time>2018-04-05T09:16:32Z</time>
      </trkpt>
      <trkpt lat="45.98462" lon="4.81719">
        <ele>239</ele>
        <time>2018-04-05T09:16:33Z</time>
      </trkpt>
      <trkpt lat="45.98466" lon="4.81724">
        <ele>239</ele>
        <time>2018-04-05T09:16:34Z</time>
      </trkpt>
      <trkpt lat="45.98472" lon="4.8173">
        <ele>239</ele>
        <time>2018-04-05T09:16:35Z</time>
      </trkpt>
      <trkpt lat="45.98477" lon="4.81736">
        <ele>238</ele>
        <time>2018-04-05T09:16:36Z</time>
      </trkpt>
      <trkpt lat="45.98484" lon="4.81742">
        <ele>238</ele>
        <time>2018-04-05T09:16:37Z</time>
      </trkpt>
      <trkpt lat="45.9849" lon="4.81749">
        <ele>238</ele>
        <time>2018-04-05T09:16:38Z</time>
      </trkpt>
      <trkpt lat="45.98496" lon="4.81756">
        <ele>238</ele>
        <time>2018-04-05T09:16:39Z</time>
      </trkpt>
      <trkpt lat="45.98502" lon="4.81762">
        <ele>237</ele>
        <time>2018-04-05T09:16:40Z</time>
      </trkpt>
      <trkpt lat="45.98508" lon="4.81769">
        <ele>237</ele>
        <time>2018-04-05T09:16:41Z</time>
      </trkpt>
      <trkpt lat="45.98514" lon="4.81777">
        <ele>238</ele>
        <time>2018-04-05T09:16:42Z</time>
      </trkpt>
      <trkpt lat="45.9852" lon="4.81785">
        <ele>238</ele>
        <time>2018-04-05T09:16:43Z</time>
      </trkpt>
      <trkpt lat="45.98525" lon="4.81793">
        <ele>238</ele>
        <time>2018-04-05T09:16:44Z</time>
      </trkpt>
      <trkpt lat="45.98531" lon="4.818">
        <ele>238</ele>
        <time>2018-04-05T09:16:45Z</time>
      </trkpt>
      <trkpt lat="45.98537" lon="4.81806">
        <ele>238</ele>
        <time>2018-04-05T09:16:46Z</time>
      </trkpt>
      <trkpt lat="45.98544" lon="4.81808">
        <ele>238</ele>
        <time>2018-04-05T09:16:47Z</time>
      </trkpt>
      <trkpt lat="45.9855" lon="4.81809">
        <ele>238</ele>
        <time>2018-04-05T09:16:48Z</time>
      </trkpt>
      <trkpt lat="45.98555" lon="4.81806">
        <ele>238</ele>
        <time>2018-04-05T09:16:49Z</time>
      </trkpt>
      <trkpt lat="45.98561" lon="4.81801">
        <ele>238</ele>
        <time>2018-04-05T09:16:50Z</time>
      </trkpt>
      <trkpt lat="45.98565" lon="4.81796">
        <ele>238</ele>
        <time>2018-04-05T09:16:51Z</time>
      </trkpt>
      <trkpt lat="45.9857" lon="4.8179">
        <ele>238</ele>
        <time>2018-04-05T09:16:52Z</time>
      </trkpt>
      <trkpt lat="45.98574" lon="4.81784">
        <ele>238</ele>
        <time>2018-04-05T09:16:53Z</time>
      </trkpt>
      <trkpt lat="45.98579" lon="4.81779">
        <ele>238</ele>
        <time>2018-04-05T09:16:54Z</time>
      </trkpt>
      <trkpt lat="45.98583" lon="4.81774">
        <ele>237</ele>
        <time>2018-04-05T09:16:55Z</time>
      </trkpt>
      <trkpt lat="45.98588" lon="4.8177">
        <ele>238</ele>
        <time>2018-04-05T09:16:56Z</time>
      </trkpt>
      <trkpt lat="45.98592" lon="4.81766">
        <ele>238</ele>
        <time>2018-04-05T09:16:57Z</time>
      </trkpt>
      <trkpt lat="45.98597" lon="4.81766">
        <ele>238</ele>
        <time>2018-04-05T09:16:58Z</time>
      </trkpt>
      <trkpt lat="45.98602" lon="4.81764">
        <ele>238</ele>
        <time>2018-04-05T09:16:59Z</time>
      </trkpt>
      <trkpt lat="45.98605" lon="4.81763">
        <ele>238</ele>
        <time>2018-04-05T09:17:00Z</time>
      </trkpt>
      <trkpt lat="45.98611" lon="4.81761">
        <ele>238</ele>
        <time>2018-04-05T09:17:01Z</time>
      </trkpt>
      <trkpt lat="45.98616" lon="4.8176">
        <ele>238</ele>
        <time>2018-04-05T09:17:02Z</time>
      </trkpt>
      <trkpt lat="45.98621" lon="4.81758">
        <ele>238</ele>
        <time>2018-04-05T09:17:03Z</time>
      </trkpt>
      <trkpt lat="45.98629" lon="4.81755">
        <ele>238</ele>
        <time>2018-04-05T09:17:05Z</time>
      </trkpt>
      <trkpt lat="45.98634" lon="4.81753">
        <ele>238</ele>
        <time>2018-04-05T09:17:06Z</time>
      </trkpt>
      <trkpt lat="45.98639" lon="4.8175">
        <ele>238</ele>
        <time>2018-04-05T09:17:07Z</time>
      </trkpt>
      <trkpt lat="45.98644" lon="4.81749">
        <ele>237</ele>
        <time>2018-04-05T09:17:08Z</time>
      </trkpt>
      <trkpt lat="45.98649" lon="4.81748">
        <ele>237</ele>
        <time>2018-04-05T09:17:09Z</time>
      </trkpt>
      <trkpt lat="45.98653" lon="4.81748">
        <ele>237</ele>
        <time>2018-04-05T09:17:10Z</time>
      </trkpt>
      <trkpt lat="45.98658" lon="4.81747">
        <ele>238</ele>
        <time>2018-04-05T09:17:11Z</time>
      </trkpt>
      <trkpt lat="45.98663" lon="4.81745">
        <ele>238</ele>
        <time>2018-04-05T09:17:12Z</time>
      </trkpt>
      <trkpt lat="45.98668" lon="4.81742">
        <ele>238</ele>
        <time>2018-04-05T09:17:13Z</time>
      </trkpt>
      <trkpt lat="45.98673" lon="4.81741">
        <ele>238</ele>
        <time>2018-04-05T09:17:14Z</time>
      </trkpt>
      <trkpt lat="45.98681" lon="4.81739">
        <ele>238</ele>
        <time>2018-04-05T09:17:16Z</time>
      </trkpt>
      <trkpt lat="45.98685" lon="4.81739">
        <ele>238</ele>
        <time>2018-04-05T09:17:17Z</time>
      </trkpt>
      <trkpt lat="45.9869" lon="4.81739">
        <ele>238</ele>
        <time>2018-04-05T09:17:18Z</time>
      </trkpt>
      <trkpt lat="45.98695" lon="4.81739">
        <ele>239</ele>
        <time>2018-04-05T09:17:19Z</time>
      </trkpt>
      <trkpt lat="45.98699" lon="4.81738">
        <ele>239</ele>
        <time>2018-04-05T09:17:20Z</time>
      </trkpt>
      <trkpt lat="45.98705" lon="4.81737">
        <ele>239</ele>
        <time>2018-04-05T09:17:21Z</time>
      </trkpt>
      <trkpt lat="45.98711" lon="4.81735">
        <ele>239</ele>
        <time>2018-04-05T09:17:22Z</time>
      </trkpt>
      <trkpt lat="45.98715" lon="4.81735">
        <ele>239</ele>
        <time>2018-04-05T09:17:23Z</time>
      </trkpt>
      <trkpt lat="45.9872" lon="4.81736">
        <ele>239</ele>
        <time>2018-04-05T09:17:24Z</time>
      </trkpt>
      <trkpt lat="45.98726" lon="4.81738">
        <ele>239</ele>
        <time>2018-04-05T09:17:25Z</time>
      </trkpt>
      <trkpt lat="45.98729" lon="4.81743">
        <ele>240</ele>
        <time>2018-04-05T09:17:26Z</time>
      </trkpt>
      <trkpt lat="45.98731" lon="4.81749">
        <ele>240</ele>
        <time>2018-04-05T09:17:27Z</time>
      </trkpt>
      <trkpt lat="45.98734" lon="4.81755">
        <ele>240</ele>
        <time>2018-04-05T09:17:28Z</time>
      </trkpt>
      <trkpt lat="45.98737" lon="4.81761">
        <ele>240</ele>
        <time>2018-04-05T09:17:29Z</time>
      </trkpt>
      <trkpt lat="45.9874" lon="4.81767">
        <ele>240</ele>
        <time>2018-04-05T09:17:30Z</time>
      </trkpt>
      <trkpt lat="45.98742" lon="4.81773">
        <ele>240</ele>
        <time>2018-04-05T09:17:31Z</time>
      </trkpt>
      <trkpt lat="45.98746" lon="4.81778">
        <ele>240</ele>
        <time>2018-04-05T09:17:32Z</time>
      </trkpt>
      <trkpt lat="45.98749" lon="4.81784">
        <ele>240</ele>
        <time>2018-04-05T09:17:33Z</time>
      </trkpt>
      <trkpt lat="45.98753" lon="4.81789">
        <ele>241</ele>
        <time>2018-04-05T09:17:34Z</time>
      </trkpt>
      <trkpt lat="45.98756" lon="4.81796">
        <ele>240</ele>
        <time>2018-04-05T09:17:35Z</time>
      </trkpt>
      <trkpt lat="45.98759" lon="4.81803">
        <ele>240</ele>
        <time>2018-04-05T09:17:36Z</time>
      </trkpt>
      <trkpt lat="45.98762" lon="4.8181">
        <ele>240</ele>
        <time>2018-04-05T09:17:37Z</time>
      </trkpt>
      <trkpt lat="45.98766" lon="4.81817">
        <ele>240</ele>
        <time>2018-04-05T09:17:38Z</time>
      </trkpt>
      <trkpt lat="45.98768" lon="4.81825">
        <ele>240</ele>
        <time>2018-04-05T09:17:39Z</time>
      </trkpt>
      <trkpt lat="45.98772" lon="4.81831">
        <ele>240</ele>
        <time>2018-04-05T09:17:40Z</time>
      </trkpt>
      <trkpt lat="45.98776" lon="4.81838">
        <ele>239</ele>
        <time>2018-04-05T09:17:41Z</time>
      </trkpt>
      <trkpt lat="45.98779" lon="4.81846">
        <ele>239</ele>
        <time>2018-04-05T09:17:42Z</time>
      </trkpt>
      <trkpt lat="45.98783" lon="4.81853">
        <ele>239</ele>
        <time>2018-04-05T09:17:43Z</time>
      </trkpt>
      <trkpt lat="45.98786" lon="4.81861">
        <ele>239</ele>
        <time>2018-04-05T09:17:44Z</time>
      </trkpt>
      <trkpt lat="45.98788" lon="4.81868">
        <ele>239</ele>
        <time>2018-04-05T09:17:45Z</time>
      </trkpt>
      <trkpt lat="45.98791" lon="4.81876">
        <ele>239</ele>
        <time>2018-04-05T09:17:46Z</time>
      </trkpt>
      <trkpt lat="45.98794" lon="4.81883">
        <ele>239</ele>
        <time>2018-04-05T09:17:47Z</time>
      </trkpt>
      <trkpt lat="45.98797" lon="4.81891">
        <ele>239</ele>
        <time>2018-04-05T09:17:48Z</time>
      </trkpt>
      <trkpt lat="45.988" lon="4.81899">
        <ele>239</ele>
        <time>2018-04-05T09:17:49Z</time>
      </trkpt>
      <trkpt lat="45.98802" lon="4.81908">
        <ele>239</ele>
        <time>2018-04-05T09:17:50Z</time>
      </trkpt>
      <trkpt lat="45.98805" lon="4.81915">
        <ele>239</ele>
        <time>2018-04-05T09:17:51Z</time>
      </trkpt>
      <trkpt lat="45.98806" lon="4.81923">
        <ele>239</ele>
        <time>2018-04-05T09:17:52Z</time>
      </trkpt>
      <trkpt lat="45.98807" lon="4.8193">
        <ele>239</ele>
        <time>2018-04-05T09:17:53Z</time>
      </trkpt>
      <trkpt lat="45.98808" lon="4.81938">
        <ele>239</ele>
        <time>2018-04-05T09:17:54Z</time>
      </trkpt>
      <trkpt lat="45.98809" lon="4.81944">
        <ele>239</ele>
        <time>2018-04-05T09:17:55Z</time>
      </trkpt>
      <trkpt lat="45.98811" lon="4.81952">
        <ele>239</ele>
        <time>2018-04-05T09:17:56Z</time>
      </trkpt>
      <trkpt lat="45.98812" lon="4.8196">
        <ele>239</ele>
        <time>2018-04-05T09:17:57Z</time>
      </trkpt>
      <trkpt lat="45.98813" lon="4.81968">
        <ele>239</ele>
        <time>2018-04-05T09:17:58Z</time>
      </trkpt>
      <trkpt lat="45.98816" lon="4.81977">
        <ele>239</ele>
        <time>2018-04-05T09:17:59Z</time>
      </trkpt>
      <trkpt lat="45.98817" lon="4.81985">
        <ele>238</ele>
        <time>2018-04-05T09:18:00Z</time>
      </trkpt>
      <trkpt lat="45.98817" lon="4.81994">
        <ele>238</ele>
        <time>2018-04-05T09:18:01Z</time>
      </trkpt>
      <trkpt lat="45.98819" lon="4.82001">
        <ele>238</ele>
        <time>2018-04-05T09:18:02Z</time>
      </trkpt>
      <trkpt lat="45.9882" lon="4.8201">
        <ele>238</ele>
        <time>2018-04-05T09:18:03Z</time>
      </trkpt>
      <trkpt lat="45.98821" lon="4.82018">
        <ele>238</ele>
        <time>2018-04-05T09:18:04Z</time>
      </trkpt>
      <trkpt lat="45.98822" lon="4.82026">
        <ele>238</ele>
        <time>2018-04-05T09:18:05Z</time>
      </trkpt>
      <trkpt lat="45.98824" lon="4.82034">
        <ele>238</ele>
        <time>2018-04-05T09:18:06Z</time>
      </trkpt>
      <trkpt lat="45.98825" lon="4.82043">
        <ele>238</ele>
        <time>2018-04-05T09:18:07Z</time>
      </trkpt>
      <trkpt lat="45.98826" lon="4.82051">
        <ele>237</ele>
        <time>2018-04-05T09:18:08Z</time>
      </trkpt>
      <trkpt lat="45.98827" lon="4.8206">
        <ele>237</ele>
        <time>2018-04-05T09:18:09Z</time>
      </trkpt>
      <trkpt lat="45.98827" lon="4.82067">
        <ele>237</ele>
        <time>2018-04-05T09:18:10Z</time>
      </trkpt>
      <trkpt lat="45.98829" lon="4.82075">
        <ele>237</ele>
        <time>2018-04-05T09:18:11Z</time>
      </trkpt>
      <trkpt lat="45.98829" lon="4.82082">
        <ele>236</ele>
        <time>2018-04-05T09:18:12Z</time>
      </trkpt>
      <trkpt lat="45.98831" lon="4.82089">
        <ele>236</ele>
        <time>2018-04-05T09:18:13Z</time>
      </trkpt>
      <trkpt lat="45.98831" lon="4.82096">
        <ele>237</ele>
        <time>2018-04-05T09:18:14Z</time>
      </trkpt>
      <trkpt lat="45.98833" lon="4.82104">
        <ele>237</ele>
        <time>2018-04-05T09:18:15Z</time>
      </trkpt>
      <trkpt lat="45.98834" lon="4.82113">
        <ele>236</ele>
        <time>2018-04-05T09:18:16Z</time>
      </trkpt>
      <trkpt lat="45.98836" lon="4.82121">
        <ele>236</ele>
        <time>2018-04-05T09:18:17Z</time>
      </trkpt>
      <trkpt lat="45.98837" lon="4.82128">
        <ele>236</ele>
        <time>2018-04-05T09:18:18Z</time>
      </trkpt>
      <trkpt lat="45.98838" lon="4.82137">
        <ele>236</ele>
        <time>2018-04-05T09:18:19Z</time>
      </trkpt>
      <trkpt lat="45.9884" lon="4.82144">
        <ele>236</ele>
        <time>2018-04-05T09:18:20Z</time>
      </trkpt>
      <trkpt lat="45.98842" lon="4.82153">
        <ele>236</ele>
        <time>2018-04-05T09:18:21Z</time>
      </trkpt>
      <trkpt lat="45.98844" lon="4.8216">
        <ele>236</ele>
        <time>2018-04-05T09:18:22Z</time>
      </trkpt>
      <trkpt lat="45.98846" lon="4.82168">
        <ele>237</ele>
        <time>2018-04-05T09:18:23Z</time>
      </trkpt>
      <trkpt lat="45.98848" lon="4.82175">
        <ele>236</ele>
        <time>2018-04-05T09:18:24Z</time>
      </trkpt>
      <trkpt lat="45.98851" lon="4.82183">
        <ele>236</ele>
        <time>2018-04-05T09:18:25Z</time>
      </trkpt>
      <trkpt lat="45.98853" lon="4.82191">
        <ele>236</ele>
        <time>2018-04-05T09:18:26Z</time>
      </trkpt>
      <trkpt lat="45.98855" lon="4.82198">
        <ele>236</ele>
        <time>2018-04-05T09:18:27Z</time>
      </trkpt>
      <trkpt lat="45.98858" lon="4.82204">
        <ele>236</ele>
        <time>2018-04-05T09:18:28Z</time>
      </trkpt>
      <trkpt lat="45.98861" lon="4.82211">
        <ele>236</ele>
        <time>2018-04-05T09:18:29Z</time>
      </trkpt>
      <trkpt lat="45.98864" lon="4.82218">
        <ele>236</ele>
        <time>2018-04-05T09:18:30Z</time>
      </trkpt>
      <trkpt lat="45.98867" lon="4.82224">
        <ele>236</ele>
        <time>2018-04-05T09:18:31Z</time>
      </trkpt>
      <trkpt lat="45.9887" lon="4.8223">
        <ele>236</ele>
        <time>2018-04-05T09:18:32Z</time>
      </trkpt>
      <trkpt lat="45.98874" lon="4.82236">
        <ele>236</ele>
        <time>2018-04-05T09:18:33Z</time>
      </trkpt>
      <trkpt lat="45.98876" lon="4.82243">
        <ele>236</ele>
        <time>2018-04-05T09:18:34Z</time>
      </trkpt>
      <trkpt lat="45.9888" lon="4.82249">
        <ele>236</ele>
        <time>2018-04-05T09:18:35Z</time>
      </trkpt>
      <trkpt lat="45.98883" lon="4.82255">
        <ele>236</ele>
        <time>2018-04-05T09:18:36Z</time>
      </trkpt>
      <trkpt lat="45.98887" lon="4.82262">
        <ele>236</ele>
        <time>2018-04-05T09:18:37Z</time>
      </trkpt>
      <trkpt lat="45.9889" lon="4.82267">
        <ele>236</ele>
        <time>2018-04-05T09:18:38Z</time>
      </trkpt>
      <trkpt lat="45.98894" lon="4.82273">
        <ele>236</ele>
        <time>2018-04-05T09:18:39Z</time>
      </trkpt>
      <trkpt lat="45.98898" lon="4.8228">
        <ele>236</ele>
        <time>2018-04-05T09:18:40Z</time>
      </trkpt>
      <trkpt lat="45.98902" lon="4.82285">
        <ele>236</ele>
        <time>2018-04-05T09:18:41Z</time>
      </trkpt>
      <trkpt lat="45.98906" lon="4.82291">
        <ele>237</ele>
        <time>2018-04-05T09:18:42Z</time>
      </trkpt>
      <trkpt lat="45.98911" lon="4.82295">
        <ele>237</ele>
        <time>2018-04-05T09:18:43Z</time>
      </trkpt>
      <trkpt lat="45.98916" lon="4.82301">
        <ele>237</ele>
        <time>2018-04-05T09:18:44Z</time>
      </trkpt>
      <trkpt lat="45.98921" lon="4.82305">
        <ele>234</ele>
        <time>2018-04-05T09:18:45Z</time>
      </trkpt>
      <trkpt lat="45.98925" lon="4.8231">
        <ele>235</ele>
        <time>2018-04-05T09:18:46Z</time>
      </trkpt>
      <trkpt lat="45.9893" lon="4.82316">
        <ele>235</ele>
        <time>2018-04-05T09:18:47Z</time>
      </trkpt>
      <trkpt lat="45.98935" lon="4.82321">
        <ele>235</ele>
        <time>2018-04-05T09:18:48Z</time>
      </trkpt>
      <trkpt lat="45.98939" lon="4.82328">
        <ele>235</ele>
        <time>2018-04-05T09:18:49Z</time>
      </trkpt>
      <trkpt lat="45.98943" lon="4.82334">
        <ele>235</ele>
        <time>2018-04-05T09:18:50Z</time>
      </trkpt>
      <trkpt lat="45.98947" lon="4.8234">
        <ele>235</ele>
        <time>2018-04-05T09:18:51Z</time>
      </trkpt>
      <trkpt lat="45.9895" lon="4.82347">
        <ele>235</ele>
        <time>2018-04-05T09:18:52Z</time>
      </trkpt>
      <trkpt lat="45.98953" lon="4.82354">
        <ele>235</ele>
        <time>2018-04-05T09:18:53Z</time>
      </trkpt>
      <trkpt lat="45.98956" lon="4.8236">
        <ele>235</ele>
        <time>2018-04-05T09:18:54Z</time>
      </trkpt>
      <trkpt lat="45.98958" lon="4.82367">
        <ele>235</ele>
        <time>2018-04-05T09:18:55Z</time>
      </trkpt>
      <trkpt lat="45.9896" lon="4.82374">
        <ele>235</ele>
        <time>2018-04-05T09:18:56Z</time>
      </trkpt>
      <trkpt lat="45.98962" lon="4.82381">
        <ele>235</ele>
        <time>2018-04-05T09:18:57Z</time>
      </trkpt>
      <trkpt lat="45.98964" lon="4.82387">
        <ele>235</ele>
        <time>2018-04-05T09:18:58Z</time>
      </trkpt>
      <trkpt lat="45.98966" lon="4.82395">
        <ele>235</ele>
        <time>2018-04-05T09:18:59Z</time>
      </trkpt>
      <trkpt lat="45.98969" lon="4.82403">
        <ele>235</ele>
        <time>2018-04-05T09:19:00Z</time>
      </trkpt>
      <trkpt lat="45.9897" lon="4.82411">
        <ele>235</ele>
        <time>2018-04-05T09:19:01Z</time>
      </trkpt>
      <trkpt lat="45.98972" lon="4.8242">
        <ele>236</ele>
        <time>2018-04-05T09:19:02Z</time>
      </trkpt>
      <trkpt lat="45.98974" lon="4.82428">
        <ele>236</ele>
        <time>2018-04-05T09:19:03Z</time>
      </trkpt>
      <trkpt lat="45.98976" lon="4.82437">
        <ele>236</ele>
        <time>2018-04-05T09:19:04Z</time>
      </trkpt>
      <trkpt lat="45.98978" lon="4.82445">
        <ele>236</ele>
        <time>2018-04-05T09:19:05Z</time>
      </trkpt>
      <trkpt lat="45.9898" lon="4.82453">
        <ele>236</ele>
        <time>2018-04-05T09:19:06Z</time>
      </trkpt>
      <trkpt lat="45.98982" lon="4.82462">
        <ele>236</ele>
        <time>2018-04-05T09:19:07Z</time>
      </trkpt>
      <trkpt lat="45.98985" lon="4.82471">
        <ele>236</ele>
        <time>2018-04-05T09:19:08Z</time>
      </trkpt>
      <trkpt lat="45.98987" lon="4.82479">
        <ele>236</ele>
        <time>2018-04-05T09:19:09Z</time>
      </trkpt>
      <trkpt lat="45.9899" lon="4.82487">
        <ele>236</ele>
        <time>2018-04-05T09:19:10Z</time>
      </trkpt>
      <trkpt lat="45.98993" lon="4.82494">
        <ele>236</ele>
        <time>2018-04-05T09:19:11Z</time>
      </trkpt>
      <trkpt lat="45.98996" lon="4.82502">
        <ele>236</ele>
        <time>2018-04-05T09:19:12Z</time>
      </trkpt>
      <trkpt lat="45.99" lon="4.82509">
        <ele>236</ele>
        <time>2018-04-05T09:19:13Z</time>
      </trkpt>
      <trkpt lat="45.99003" lon="4.82516">
        <ele>235</ele>
        <time>2018-04-05T09:19:14Z</time>
      </trkpt>
      <trkpt lat="45.99007" lon="4.82523">
        <ele>235</ele>
        <time>2018-04-05T09:19:15Z</time>
      </trkpt>
      <trkpt lat="45.99011" lon="4.82531">
        <ele>235</ele>
        <time>2018-04-05T09:19:16Z</time>
      </trkpt>
      <trkpt lat="45.99015" lon="4.82537">
        <ele>235</ele>
        <time>2018-04-05T09:19:17Z</time>
      </trkpt>
      <trkpt lat="45.9902" lon="4.82544">
        <ele>235</ele>
        <time>2018-04-05T09:19:18Z</time>
      </trkpt>
      <trkpt lat="45.99025" lon="4.8255">
        <ele>235</ele>
        <time>2018-04-05T09:19:19Z</time>
      </trkpt>
      <trkpt lat="45.9903" lon="4.82554">
        <ele>235</ele>
        <time>2018-04-05T09:19:20Z</time>
      </trkpt>
      <trkpt lat="45.99035" lon="4.82559">
        <ele>235</ele>
        <time>2018-04-05T09:19:21Z</time>
      </trkpt>
      <trkpt lat="45.99041" lon="4.82564">
        <ele>235</ele>
        <time>2018-04-05T09:19:22Z</time>
      </trkpt>
      <trkpt lat="45.99047" lon="4.82567">
        <ele>235</ele>
        <time>2018-04-05T09:19:23Z</time>
      </trkpt>
      <trkpt lat="45.99052" lon="4.82569">
        <ele>235</ele>
        <time>2018-04-05T09:19:24Z</time>
      </trkpt>
      <trkpt lat="45.99058" lon="4.82571">
        <ele>235</ele>
        <time>2018-04-05T09:19:25Z</time>
      </trkpt>
      <trkpt lat="45.99064" lon="4.82574">
        <ele>235</ele>
        <time>2018-04-05T09:19:26Z</time>
      </trkpt>
      <trkpt lat="45.99068" lon="4.82576">
        <ele>235</ele>
        <time>2018-04-05T09:19:27Z</time>
      </trkpt>
      <trkpt lat="45.99073" lon="4.82584">
        <ele>235</ele>
        <time>2018-04-05T09:19:29Z</time>
      </trkpt>
      <trkpt lat="45.99072" lon="4.82589">
        <ele>235</ele>
        <time>2018-04-05T09:19:30Z</time>
      </trkpt>
      <trkpt lat="45.99071" lon="4.826">
        <ele>235</ele>
        <time>2018-04-05T09:19:32Z</time>
      </trkpt>
      <trkpt lat="45.99067" lon="4.82604">
        <ele>236</ele>
        <time>2018-04-05T09:19:33Z</time>
      </trkpt>
      <trkpt lat="45.99063" lon="4.82613">
        <ele>236</ele>
        <time>2018-04-05T09:19:35Z</time>
      </trkpt>
      <trkpt lat="45.9906" lon="4.82618">
        <ele>236</ele>
        <time>2018-04-05T09:19:36Z</time>
      </trkpt>
      <trkpt lat="45.99057" lon="4.82629">
        <ele>236</ele>
        <time>2018-04-05T09:19:38Z</time>
      </trkpt>
      <trkpt lat="45.99054" lon="4.82634">
        <ele>236</ele>
        <time>2018-04-05T09:19:39Z</time>
      </trkpt>
      <trkpt lat="45.9905" lon="4.82643">
        <ele>236</ele>
        <time>2018-04-05T09:19:41Z</time>
      </trkpt>
      <trkpt lat="45.99048" lon="4.82648">
        <ele>236</ele>
        <time>2018-04-05T09:19:42Z</time>
      </trkpt>
      <trkpt lat="45.99044" lon="4.82655">
        <ele>236</ele>
        <time>2018-04-05T09:19:44Z</time>
      </trkpt>
      <trkpt lat="45.9904" lon="4.82661">
        <ele>236</ele>
        <time>2018-04-05T09:19:45Z</time>
      </trkpt>
      <trkpt lat="45.99038" lon="4.82666">
        <ele>237</ele>
        <time>2018-04-05T09:19:47Z</time>
      </trkpt>
      <trkpt lat="45.99034" lon="4.82673">
        <ele>238</ele>
        <time>2018-04-05T09:19:48Z</time>
      </trkpt>
      <trkpt lat="45.9903" lon="4.82682">
        <ele>238</ele>
        <time>2018-04-05T09:19:51Z</time>
      </trkpt>
      <trkpt lat="45.99029" lon="4.82684">
        <ele>238</ele>
        <time>2018-04-05T09:19:52Z</time>
      </trkpt>
      <trkpt lat="45.99025" lon="4.82694">
        <ele>238</ele>
        <time>2018-04-05T09:19:55Z</time>
      </trkpt>
      <trkpt lat="45.99023" lon="4.82697">
        <ele>238</ele>
        <time>2018-04-05T09:19:56Z</time>
      </trkpt>
      <trkpt lat="45.99019" lon="4.82707">
        <ele>238</ele>
        <time>2018-04-05T09:19:59Z</time>
      </trkpt>
      <trkpt lat="45.99018" lon="4.8271">
        <ele>239</ele>
        <time>2018-04-05T09:20:00Z</time>
      </trkpt>
      <trkpt lat="45.99013" lon="4.8272">
        <ele>239</ele>
        <time>2018-04-05T09:20:03Z</time>
      </trkpt>
      <trkpt lat="45.99011" lon="4.82724">
        <ele>239</ele>
        <time>2018-04-05T09:20:04Z</time>
      </trkpt>
      <trkpt lat="45.99007" lon="4.82734">
        <ele>240</ele>
        <time>2018-04-05T09:20:07Z</time>
      </trkpt>
      <trkpt lat="45.99006" lon="4.82737">
        <ele>240</ele>
        <time>2018-04-05T09:20:08Z</time>
      </trkpt>
      <trkpt lat="45.99002" lon="4.82748">
        <ele>241</ele>
        <time>2018-04-05T09:20:11Z</time>
      </trkpt>
      <trkpt lat="45.99001" lon="4.82752">
        <ele>241</ele>
        <time>2018-04-05T09:20:12Z</time>
      </trkpt>
      <trkpt lat="45.98998" lon="4.82762">
        <ele>244</ele>
        <time>2018-04-05T09:20:15Z</time>
      </trkpt>
      <trkpt lat="45.98996" lon="4.82765">
        <ele>245</ele>
        <time>2018-04-05T09:20:16Z</time>
      </trkpt>
      <trkpt lat="45.98993" lon="4.82775">
        <ele>246</ele>
        <time>2018-04-05T09:20:19Z</time>
      </trkpt>
      <trkpt lat="45.98992" lon="4.82779">
        <ele>246</ele>
        <time>2018-04-05T09:20:20Z</time>
      </trkpt>
      <trkpt lat="45.98989" lon="4.82789">
        <ele>247</ele>
        <time>2018-04-05T09:20:23Z</time>
      </trkpt>
      <trkpt lat="45.98988" lon="4.82792">
        <ele>247</ele>
        <time>2018-04-05T09:20:24Z</time>
      </trkpt>
      <trkpt lat="45.98984" lon="4.82802">
        <ele>248</ele>
        <time>2018-04-05T09:20:27Z</time>
      </trkpt>
      <trkpt lat="45.98983" lon="4.82805">
        <ele>248</ele>
        <time>2018-04-05T09:20:28Z</time>
      </trkpt>
      <trkpt lat="45.9898" lon="4.82815">
        <ele>248</ele>
        <time>2018-04-05T09:20:31Z</time>
      </trkpt>
      <trkpt lat="45.98978" lon="4.82819">
        <ele>248</ele>
        <time>2018-04-05T09:20:32Z</time>
      </trkpt>
      <trkpt lat="45.98974" lon="4.82828">
        <ele>249</ele>
        <time>2018-04-05T09:20:35Z</time>
      </trkpt>
      <trkpt lat="45.98973" lon="4.82831">
        <ele>249</ele>
        <time>2018-04-05T09:20:36Z</time>
      </trkpt>
      <trkpt lat="45.98968" lon="4.82839">
        <ele>251</ele>
        <time>2018-04-05T09:20:39Z</time>
      </trkpt>
      <trkpt lat="45.98966" lon="4.82841">
        <ele>252</ele>
        <time>2018-04-05T09:20:40Z</time>
      </trkpt>
      <trkpt lat="45.98963" lon="4.8285">
        <ele>252</ele>
        <time>2018-04-05T09:20:43Z</time>
      </trkpt>
      <trkpt lat="45.98961" lon="4.82853">
        <ele>252</ele>
        <time>2018-04-05T09:20:44Z</time>
      </trkpt>
      <trkpt lat="45.98957" lon="4.82861">
        <ele>252</ele>
        <time>2018-04-05T09:20:47Z</time>
      </trkpt>
      <trkpt lat="45.98956" lon="4.82864">
        <ele>252</ele>
        <time>2018-04-05T09:20:48Z</time>
      </trkpt>
      <trkpt lat="45.98952" lon="4.82872">
        <ele>253</ele>
        <time>2018-04-05T09:20:51Z</time>
      </trkpt>
      <trkpt lat="45.98951" lon="4.82875">
        <ele>253</ele>
        <time>2018-04-05T09:20:52Z</time>
      </trkpt>
      <trkpt lat="45.98947" lon="4.82883">
        <ele>253</ele>
        <time>2018-04-05T09:20:55Z</time>
      </trkpt>
      <trkpt lat="45.98946" lon="4.82886">
        <ele>253</ele>
        <time>2018-04-05T09:20:56Z</time>
      </trkpt>
      <trkpt lat="45.98942" lon="4.82894">
        <ele>253</ele>
        <time>2018-04-05T09:20:59Z</time>
      </trkpt>
      <trkpt lat="45.98941" lon="4.82897">
        <ele>253</ele>
        <time>2018-04-05T09:21:00Z</time>
      </trkpt>
      <trkpt lat="45.98937" lon="4.82905">
        <ele>254</ele>
        <time>2018-04-05T09:21:03Z</time>
      </trkpt>
      <trkpt lat="45.98935" lon="4.82908">
        <ele>254</ele>
        <time>2018-04-05T09:21:04Z</time>
      </trkpt>
      <trkpt lat="45.98931" lon="4.82916">
        <ele>254</ele>
        <time>2018-04-05T09:21:07Z</time>
      </trkpt>
      <trkpt lat="45.9893" lon="4.82919">
        <ele>255</ele>
        <time>2018-04-05T09:21:08Z</time>
      </trkpt>
      <trkpt lat="45.98925" lon="4.8293">
        <ele>255</ele>
        <time>2018-04-05T09:21:12Z</time>
      </trkpt>
      <trkpt lat="45.98924" lon="4.82932">
        <ele>255</ele>
        <time>2018-04-05T09:21:13Z</time>
      </trkpt>
      <trkpt lat="45.9892" lon="4.82943">
        <ele>255</ele>
        <time>2018-04-05T09:21:17Z</time>
      </trkpt>
      <trkpt lat="45.98919" lon="4.82946">
        <ele>255</ele>
        <time>2018-04-05T09:21:18Z</time>
      </trkpt>
      <trkpt lat="45.98914" lon="4.82957">
        <ele>258</ele>
        <time>2018-04-05T09:21:22Z</time>
      </trkpt>
      <trkpt lat="45.98912" lon="4.82959">
        <ele>258</ele>
        <time>2018-04-05T09:21:23Z</time>
      </trkpt>
      <trkpt lat="45.98906" lon="4.82968">
        <ele>259</ele>
        <time>2018-04-05T09:21:27Z</time>
      </trkpt>
      <trkpt lat="45.98905" lon="4.8297">
        <ele>259</ele>
        <time>2018-04-05T09:21:28Z</time>
      </trkpt>
      <trkpt lat="45.98899" lon="4.82979">
        <ele>259</ele>
        <time>2018-04-05T09:21:32Z</time>
      </trkpt>
      <trkpt lat="45.98897" lon="4.82981">
        <ele>259</ele>
        <time>2018-04-05T09:21:33Z</time>
      </trkpt>
      <trkpt lat="45.9889" lon="4.82986">
        <ele>259</ele>
        <time>2018-04-05T09:21:37Z</time>
      </trkpt>
      <trkpt lat="45.98888" lon="4.82987">
        <ele>259</ele>
        <time>2018-04-05T09:21:38Z</time>
      </trkpt>
      <trkpt lat="45.98882" lon="4.82994">
        <ele>259</ele>
        <time>2018-04-05T09:21:42Z</time>
      </trkpt>
      <trkpt lat="45.9888" lon="4.82996">
        <ele>260</ele>
        <time>2018-04-05T09:21:43Z</time>
      </trkpt>
      <trkpt lat="45.98873" lon="4.83003">
        <ele>260</ele>
        <time>2018-04-05T09:21:47Z</time>
      </trkpt>
      <trkpt lat="45.98871" lon="4.83004">
        <ele>260</ele>
        <time>2018-04-05T09:21:48Z</time>
      </trkpt>
      <trkpt lat="45.98864" lon="4.83009">
        <ele>260</ele>
        <time>2018-04-05T09:21:52Z</time>
      </trkpt>
      <trkpt lat="45.98862" lon="4.8301">
        <ele>260</ele>
        <time>2018-04-05T09:21:53Z</time>
      </trkpt>
      <trkpt lat="45.98854" lon="4.83013">
        <ele>261</ele>
        <time>2018-04-05T09:21:57Z</time>
      </trkpt>
      <trkpt lat="45.98852" lon="4.83014">
        <ele>261</ele>
        <time>2018-04-05T09:21:58Z</time>
      </trkpt>
      <trkpt lat="45.98845" lon="4.83017">
        <ele>261</ele>
        <time>2018-04-05T09:22:01Z</time>
      </trkpt>
      <trkpt lat="45.98842" lon="4.83018">
        <ele>261</ele>
        <time>2018-04-05T09:22:02Z</time>
      </trkpt>
      <trkpt lat="45.98834" lon="4.83023">
        <ele>261</ele>
        <time>2018-04-05T09:22:05Z</time>
      </trkpt>
      <trkpt lat="45.98832" lon="4.83025">
        <ele>264</ele>
        <time>2018-04-05T09:22:06Z</time>
      </trkpt>
      <trkpt lat="45.98824" lon="4.83031">
        <ele>264</ele>
        <time>2018-04-05T09:22:09Z</time>
      </trkpt>
      <trkpt lat="45.98821" lon="4.83033">
        <ele>264</ele>
        <time>2018-04-05T09:22:10Z</time>
      </trkpt>
      <trkpt lat="45.98814" lon="4.83039">
        <ele>264</ele>
        <time>2018-04-05T09:22:13Z</time>
      </trkpt>
      <trkpt lat="45.98812" lon="4.83041">
        <ele>264</ele>
        <time>2018-04-05T09:22:14Z</time>
      </trkpt>
      <trkpt lat="45.98804" lon="4.83047">
        <ele>264</ele>
        <time>2018-04-05T09:22:17Z</time>
      </trkpt>
      <trkpt lat="45.98802" lon="4.83049">
        <ele>264</ele>
        <time>2018-04-05T09:22:18Z</time>
      </trkpt>
      <trkpt lat="45.98794" lon="4.83055">
        <ele>265</ele>
        <time>2018-04-05T09:22:21Z</time>
      </trkpt>
      <trkpt lat="45.98791" lon="4.83057">
        <ele>265</ele>
        <time>2018-04-05T09:22:22Z</time>
      </trkpt>
      <trkpt lat="45.98784" lon="4.83063">
        <ele>265</ele>
        <time>2018-04-05T09:22:25Z</time>
      </trkpt>
      <trkpt lat="45.98781" lon="4.83065">
        <ele>265</ele>
        <time>2018-04-05T09:22:26Z</time>
      </trkpt>
      <trkpt lat="45.98774" lon="4.83072">
        <ele>265</ele>
        <time>2018-04-05T09:22:29Z</time>
      </trkpt>
      <trkpt lat="45.98771" lon="4.83074">
        <ele>265</ele>
        <time>2018-04-05T09:22:30Z</time>
      </trkpt>
      <trkpt lat="45.98764" lon="4.83081">
        <ele>266</ele>
        <time>2018-04-05T09:22:33Z</time>
      </trkpt>
      <trkpt lat="45.98762" lon="4.83084">
        <ele>266</ele>
        <time>2018-04-05T09:22:34Z</time>
      </trkpt>
      <trkpt lat="45.98757" lon="4.83089">
        <ele>266</ele>
        <time>2018-04-05T09:22:36Z</time>
      </trkpt>
      <trkpt lat="45.98754" lon="4.83092">
        <ele>266</ele>
        <time>2018-04-05T09:22:37Z</time>
      </trkpt>
      <trkpt lat="45.98749" lon="4.83098">
        <ele>267</ele>
        <time>2018-04-05T09:22:39Z</time>
      </trkpt>
      <trkpt lat="45.98747" lon="4.831">
        <ele>267</ele>
        <time>2018-04-05T09:22:40Z</time>
      </trkpt>
      <trkpt lat="45.98742" lon="4.83105">
        <ele>267</ele>
        <time>2018-04-05T09:22:42Z</time>
      </trkpt>
      <trkpt lat="45.98739" lon="4.83108">
        <ele>267</ele>
        <time>2018-04-05T09:22:43Z</time>
      </trkpt>
      <trkpt lat="45.98731" lon="4.83114">
        <ele>267</ele>
        <time>2018-04-05T09:22:46Z</time>
      </trkpt>
      <trkpt lat="45.98723" lon="4.83121">
        <ele>266</ele>
        <time>2018-04-05T09:22:47Z</time>
      </trkpt>
      <trkpt lat="45.98716" lon="4.83126">
        <ele>266</ele>
        <time>2018-04-05T09:22:49Z</time>
      </trkpt>
      <trkpt lat="45.98713" lon="4.83129">
        <ele>266</ele>
        <time>2018-04-05T09:22:50Z</time>
      </trkpt>
      <trkpt lat="45.98706" lon="4.83135">
        <ele>266</ele>
        <time>2018-04-05T09:22:52Z</time>
      </trkpt>
      <trkpt lat="45.98703" lon="4.83137">
        <ele>266</ele>
        <time>2018-04-05T09:22:53Z</time>
      </trkpt>
      <trkpt lat="45.98695" lon="4.83143">
        <ele>266</ele>
        <time>2018-04-05T09:22:57Z</time>
      </trkpt>
      <trkpt lat="45.98693" lon="4.83145">
        <ele>266</ele>
        <time>2018-04-05T09:22:58Z</time>
      </trkpt>
      <trkpt lat="45.9869" lon="4.83147">
        <ele>266</ele>
        <time>2018-04-05T09:22:59Z</time>
      </trkpt>
      <trkpt lat="45.98683" lon="4.83153">
        <ele>266</ele>
        <time>2018-04-05T09:23:00Z</time>
      </trkpt>
      <trkpt lat="45.98676" lon="4.83157">
        <ele>266</ele>
        <time>2018-04-05T09:23:02Z</time>
      </trkpt>
      <trkpt lat="45.98672" lon="4.8316">
        <ele>266</ele>
        <time>2018-04-05T09:23:03Z</time>
      </trkpt>
      <trkpt lat="45.98665" lon="4.83164">
        <ele>266</ele>
        <time>2018-04-05T09:23:05Z</time>
      </trkpt>
      <trkpt lat="45.98662" lon="4.83167">
        <ele>266</ele>
        <time>2018-04-05T09:23:06Z</time>
      </trkpt>
      <trkpt lat="45.98655" lon="4.83172">
        <ele>267</ele>
        <time>2018-04-05T09:23:08Z</time>
      </trkpt>
      <trkpt lat="45.98651" lon="4.83175">
        <ele>267</ele>
        <time>2018-04-05T09:23:09Z</time>
      </trkpt>
      <trkpt lat="45.98644" lon="4.83181">
        <ele>267</ele>
        <time>2018-04-05T09:23:11Z</time>
      </trkpt>
      <trkpt lat="45.98641" lon="4.83184">
        <ele>267</ele>
        <time>2018-04-05T09:23:12Z</time>
      </trkpt>
      <trkpt lat="45.98634" lon="4.83191">
        <ele>267</ele>
        <time>2018-04-05T09:23:14Z</time>
      </trkpt>
      <trkpt lat="45.98631" lon="4.83194">
        <ele>267</ele>
        <time>2018-04-05T09:23:15Z</time>
      </trkpt>
      <trkpt lat="45.98624" lon="4.83201">
        <ele>267</ele>
        <time>2018-04-05T09:23:17Z</time>
      </trkpt>
      <trkpt lat="45.98621" lon="4.83205">
        <ele>267</ele>
        <time>2018-04-05T09:23:18Z</time>
      </trkpt>
      <trkpt lat="45.98614" lon="4.83213">
        <ele>267</ele>
        <time>2018-04-05T09:23:20Z</time>
      </trkpt>
      <trkpt lat="45.98611" lon="4.83217">
        <ele>267</ele>
        <time>2018-04-05T09:23:21Z</time>
      </trkpt>
      <trkpt lat="45.98605" lon="4.83225">
        <ele>267</ele>
        <time>2018-04-05T09:23:23Z</time>
      </trkpt>
      <trkpt lat="45.98601" lon="4.83229">
        <ele>268</ele>
        <time>2018-04-05T09:23:24Z</time>
      </trkpt>
      <trkpt lat="45.98595" lon="4.83237">
        <ele>268</ele>
        <time>2018-04-05T09:23:26Z</time>
      </trkpt>
      <trkpt lat="45.98592" lon="4.83242">
        <ele>268</ele>
        <time>2018-04-05T09:23:27Z</time>
      </trkpt>
      <trkpt lat="45.98586" lon="4.83251">
        <ele>268</ele>
        <time>2018-04-05T09:23:29Z</time>
      </trkpt>
      <trkpt lat="45.98583" lon="4.83256">
        <ele>268</ele>
        <time>2018-04-05T09:23:30Z</time>
      </trkpt>
      <trkpt lat="45.98577" lon="4.83265">
        <ele>269</ele>
        <time>2018-04-05T09:23:32Z</time>
      </trkpt>
      <trkpt lat="45.98574" lon="4.83269">
        <ele>269</ele>
        <time>2018-04-05T09:23:33Z</time>
      </trkpt>
      <trkpt lat="45.98571" lon="4.83274">
        <ele>269</ele>
        <time>2018-04-05T09:23:34Z</time>
      </trkpt>
      <trkpt lat="45.98567" lon="4.83279">
        <ele>269</ele>
        <time>2018-04-05T09:23:35Z</time>
      </trkpt>
      <trkpt lat="45.98564" lon="4.83283">
        <ele>269</ele>
        <time>2018-04-05T09:23:36Z</time>
      </trkpt>
      <trkpt lat="45.9856" lon="4.83288">
        <ele>269</ele>
        <time>2018-04-05T09:23:37Z</time>
      </trkpt>
      <trkpt lat="45.98556" lon="4.83293">
        <ele>269</ele>
        <time>2018-04-05T09:23:38Z</time>
      </trkpt>
      <trkpt lat="45.98552" lon="4.83298">
        <ele>269</ele>
        <time>2018-04-05T09:23:39Z</time>
      </trkpt>
      <trkpt lat="45.98549" lon="4.83303">
        <ele>269</ele>
        <time>2018-04-05T09:23:40Z</time>
      </trkpt>
      <trkpt lat="45.98547" lon="4.83309">
        <ele>269</ele>
        <time>2018-04-05T09:23:41Z</time>
      </trkpt>
      <trkpt lat="45.98543" lon="4.83314">
        <ele>269</ele>
        <time>2018-04-05T09:23:42Z</time>
      </trkpt>
      <trkpt lat="45.9854" lon="4.83319">
        <ele>269</ele>
        <time>2018-04-05T09:23:43Z</time>
      </trkpt>
      <trkpt lat="45.98536" lon="4.83322">
        <ele>269</ele>
        <time>2018-04-05T09:23:44Z</time>
      </trkpt>
      <trkpt lat="45.98532" lon="4.83326">
        <ele>269</ele>
        <time>2018-04-05T09:23:45Z</time>
      </trkpt>
      <trkpt lat="45.98525" lon="4.83334">
        <ele>270</ele>
        <time>2018-04-05T09:23:47Z</time>
      </trkpt>
      <trkpt lat="45.98522" lon="4.83338">
        <ele>270</ele>
        <time>2018-04-05T09:23:48Z</time>
      </trkpt>
      <trkpt lat="45.98519" lon="4.83343">
        <ele>270</ele>
        <time>2018-04-05T09:23:49Z</time>
      </trkpt>
      <trkpt lat="45.98515" lon="4.83347">
        <ele>270</ele>
        <time>2018-04-05T09:23:50Z</time>
      </trkpt>
      <trkpt lat="45.98509" lon="4.83356">
        <ele>270</ele>
        <time>2018-04-05T09:23:52Z</time>
      </trkpt>
      <trkpt lat="45.98505" lon="4.83361">
        <ele>269</ele>
        <time>2018-04-05T09:23:53Z</time>
      </trkpt>
      <trkpt lat="45.98501" lon="4.83366">
        <ele>269</ele>
        <time>2018-04-05T09:23:54Z</time>
      </trkpt>
      <trkpt lat="45.98498" lon="4.8337">
        <ele>270</ele>
        <time>2018-04-05T09:23:55Z</time>
      </trkpt>
      <trkpt lat="45.98494" lon="4.83375">
        <ele>269</ele>
        <time>2018-04-05T09:23:56Z</time>
      </trkpt>
      <trkpt lat="45.98492" lon="4.83382">
        <ele>269</ele>
        <time>2018-04-05T09:23:57Z</time>
      </trkpt>
      <trkpt lat="45.98487" lon="4.83387">
        <ele>269</ele>
        <time>2018-04-05T09:23:58Z</time>
      </trkpt>
      <trkpt lat="45.98484" lon="4.83392">
        <ele>269</ele>
        <time>2018-04-05T09:23:59Z</time>
      </trkpt>
      <trkpt lat="45.9848" lon="4.83397">
        <ele>269</ele>
        <time>2018-04-05T09:24:00Z</time>
      </trkpt>
      <trkpt lat="45.98475" lon="4.83403">
        <ele>269</ele>
        <time>2018-04-05T09:24:01Z</time>
      </trkpt>
      <trkpt lat="45.98471" lon="4.83408">
        <ele>269</ele>
        <time>2018-04-05T09:24:02Z</time>
      </trkpt>
      <trkpt lat="45.98468" lon="4.83413">
        <ele>269</ele>
        <time>2018-04-05T09:24:03Z</time>
      </trkpt>
      <trkpt lat="45.98465" lon="4.83418">
        <ele>269</ele>
        <time>2018-04-05T09:24:04Z</time>
      </trkpt>
      <trkpt lat="45.98461" lon="4.83424">
        <ele>269</ele>
        <time>2018-04-05T09:24:05Z</time>
      </trkpt>
      <trkpt lat="45.98457" lon="4.83429">
        <ele>268</ele>
        <time>2018-04-05T09:24:06Z</time>
      </trkpt>
      <trkpt lat="45.98454" lon="4.83434">
        <ele>268</ele>
        <time>2018-04-05T09:24:07Z</time>
      </trkpt>
      <trkpt lat="45.9845" lon="4.8344">
        <ele>268</ele>
        <time>2018-04-05T09:24:08Z</time>
      </trkpt>
      <trkpt lat="45.98448" lon="4.83445">
        <ele>268</ele>
        <time>2018-04-05T09:24:09Z</time>
      </trkpt>
      <trkpt lat="45.98444" lon="4.8345">
        <ele>268</ele>
        <time>2018-04-05T09:24:10Z</time>
      </trkpt>
      <trkpt lat="45.98441" lon="4.83457">
        <ele>268</ele>
        <time>2018-04-05T09:24:11Z</time>
      </trkpt>
      <trkpt lat="45.98437" lon="4.83462">
        <ele>268</ele>
        <time>2018-04-05T09:24:12Z</time>
      </trkpt>
      <trkpt lat="45.98433" lon="4.83466">
        <ele>268</ele>
        <time>2018-04-05T09:24:13Z</time>
      </trkpt>
      <trkpt lat="45.98429" lon="4.83471">
        <ele>268</ele>
        <time>2018-04-05T09:24:14Z</time>
      </trkpt>
      <trkpt lat="45.98425" lon="4.83476">
        <ele>268</ele>
        <time>2018-04-05T09:24:15Z</time>
      </trkpt>
      <trkpt lat="45.98422" lon="4.83482">
        <ele>268</ele>
        <time>2018-04-05T09:24:16Z</time>
      </trkpt>
      <trkpt lat="45.98419" lon="4.83486">
        <ele>268</ele>
        <time>2018-04-05T09:24:17Z</time>
      </trkpt>
      <trkpt lat="45.98415" lon="4.83492">
        <ele>268</ele>
        <time>2018-04-05T09:24:18Z</time>
      </trkpt>
      <trkpt lat="45.9841" lon="4.83496">
        <ele>268</ele>
        <time>2018-04-05T09:24:19Z</time>
      </trkpt>
      <trkpt lat="45.98406" lon="4.83502">
        <ele>268</ele>
        <time>2018-04-05T09:24:20Z</time>
      </trkpt>
      <trkpt lat="45.98403" lon="4.83507">
        <ele>268</ele>
        <time>2018-04-05T09:24:21Z</time>
      </trkpt>
      <trkpt lat="45.98399" lon="4.83511">
        <ele>269</ele>
        <time>2018-04-05T09:24:22Z</time>
      </trkpt>
      <trkpt lat="45.98395" lon="4.83516">
        <ele>269</ele>
        <time>2018-04-05T09:24:23Z</time>
      </trkpt>
      <trkpt lat="45.98392" lon="4.83522">
        <ele>269</ele>
        <time>2018-04-05T09:24:24Z</time>
      </trkpt>
      <trkpt lat="45.98388" lon="4.83528">
        <ele>269</ele>
        <time>2018-04-05T09:24:25Z</time>
      </trkpt>
      <trkpt lat="45.98384" lon="4.83533">
        <ele>269</ele>
        <time>2018-04-05T09:24:26Z</time>
      </trkpt>
      <trkpt lat="45.98379" lon="4.83539">
        <ele>269</ele>
        <time>2018-04-05T09:24:27Z</time>
      </trkpt>
      <trkpt lat="45.98376" lon="4.83545">
        <ele>269</ele>
        <time>2018-04-05T09:24:28Z</time>
      </trkpt>
      <trkpt lat="45.98372" lon="4.8355">
        <ele>269</ele>
        <time>2018-04-05T09:24:29Z</time>
      </trkpt>
      <trkpt lat="45.98367" lon="4.83555">
        <ele>269</ele>
        <time>2018-04-05T09:24:30Z</time>
      </trkpt>
      <trkpt lat="45.98363" lon="4.8356">
        <ele>269</ele>
        <time>2018-04-05T09:24:31Z</time>
      </trkpt>
      <trkpt lat="45.9836" lon="4.83566">
        <ele>269</ele>
        <time>2018-04-05T09:24:32Z</time>
      </trkpt>
      <trkpt lat="45.98356" lon="4.83572">
        <ele>269</ele>
        <time>2018-04-05T09:24:33Z</time>
      </trkpt>
      <trkpt lat="45.98351" lon="4.83577">
        <ele>269</ele>
        <time>2018-04-05T09:24:34Z</time>
      </trkpt>
      <trkpt lat="45.98347" lon="4.83583">
        <ele>270</ele>
        <time>2018-04-05T09:24:35Z</time>
      </trkpt>
      <trkpt lat="45.98343" lon="4.83589">
        <ele>270</ele>
        <time>2018-04-05T09:24:36Z</time>
      </trkpt>
      <trkpt lat="45.98339" lon="4.83595">
        <ele>270</ele>
        <time>2018-04-05T09:24:37Z</time>
      </trkpt>
      <trkpt lat="45.98334" lon="4.83603">
        <ele>270</ele>
        <time>2018-04-05T09:24:38Z</time>
      </trkpt>
      <trkpt lat="45.9833" lon="4.83608">
        <ele>271</ele>
        <time>2018-04-05T09:24:39Z</time>
      </trkpt>
      <trkpt lat="45.98325" lon="4.83614">
        <ele>271</ele>
        <time>2018-04-05T09:24:40Z</time>
      </trkpt>
      <trkpt lat="45.98322" lon="4.83619">
        <ele>271</ele>
        <time>2018-04-05T09:24:41Z</time>
      </trkpt>
      <trkpt lat="45.98318" lon="4.83625">
        <ele>271</ele>
        <time>2018-04-05T09:24:42Z</time>
      </trkpt>
      <trkpt lat="45.98315" lon="4.83631">
        <ele>271</ele>
        <time>2018-04-05T09:24:43Z</time>
      </trkpt>
      <trkpt lat="45.98311" lon="4.83637">
        <ele>271</ele>
        <time>2018-04-05T09:24:44Z</time>
      </trkpt>
      <trkpt lat="45.98306" lon="4.83643">
        <ele>271</ele>
        <time>2018-04-05T09:24:45Z</time>
      </trkpt>
      <trkpt lat="45.98303" lon="4.83649">
        <ele>271</ele>
        <time>2018-04-05T09:24:46Z</time>
      </trkpt>
      <trkpt lat="45.983" lon="4.83655">
        <ele>271</ele>
        <time>2018-04-05T09:24:47Z</time>
      </trkpt>
      <trkpt lat="45.98297" lon="4.83662">
        <ele>271</ele>
        <time>2018-04-05T09:24:48Z</time>
      </trkpt>
      <trkpt lat="45.98294" lon="4.83669">
        <ele>272</ele>
        <time>2018-04-05T09:24:49Z</time>
      </trkpt>
      <trkpt lat="45.9829" lon="4.83676">
        <ele>272</ele>
        <time>2018-04-05T09:24:50Z</time>
      </trkpt>
      <trkpt lat="45.98288" lon="4.83683">
        <ele>272</ele>
        <time>2018-04-05T09:24:51Z</time>
      </trkpt>
      <trkpt lat="45.98285" lon="4.8369">
        <ele>272</ele>
        <time>2018-04-05T09:24:52Z</time>
      </trkpt>
      <trkpt lat="45.98282" lon="4.83699">
        <ele>272</ele>
        <time>2018-04-05T09:24:53Z</time>
      </trkpt>
      <trkpt lat="45.9828" lon="4.83705">
        <ele>272</ele>
        <time>2018-04-05T09:24:54Z</time>
      </trkpt>
      <trkpt lat="45.98277" lon="4.83712">
        <ele>272</ele>
        <time>2018-04-05T09:24:55Z</time>
      </trkpt>
      <trkpt lat="45.98274" lon="4.83719">
        <ele>272</ele>
        <time>2018-04-05T09:24:56Z</time>
      </trkpt>
      <trkpt lat="45.98271" lon="4.83725">
        <ele>272</ele>
        <time>2018-04-05T09:24:57Z</time>
      </trkpt>
      <trkpt lat="45.98269" lon="4.83731">
        <ele>272</ele>
        <time>2018-04-05T09:24:58Z</time>
      </trkpt>
      <trkpt lat="45.98267" lon="4.83736">
        <ele>272</ele>
        <time>2018-04-05T09:24:59Z</time>
      </trkpt>
      <trkpt lat="45.98263" lon="4.83748">
        <ele>272</ele>
        <time>2018-04-05T09:25:01Z</time>
      </trkpt>
      <trkpt lat="45.98261" lon="4.83754">
        <ele>272</ele>
        <time>2018-04-05T09:25:02Z</time>
      </trkpt>
      <trkpt lat="45.98259" lon="4.8376">
        <ele>272</ele>
        <time>2018-04-05T09:25:03Z</time>
      </trkpt>
      <trkpt lat="45.98258" lon="4.83766">
        <ele>272</ele>
        <time>2018-04-05T09:25:04Z</time>
      </trkpt>
      <trkpt lat="45.98255" lon="4.83774">
        <ele>272</ele>
        <time>2018-04-05T09:25:05Z</time>
      </trkpt>
      <trkpt lat="45.98252" lon="4.83779">
        <ele>272</ele>
        <time>2018-04-05T09:25:06Z</time>
      </trkpt>
      <trkpt lat="45.9825" lon="4.83786">
        <ele>272</ele>
        <time>2018-04-05T09:25:07Z</time>
      </trkpt>
      <trkpt lat="45.98247" lon="4.83792">
        <ele>272</ele>
        <time>2018-04-05T09:25:08Z</time>
      </trkpt>
      <trkpt lat="45.98244" lon="4.83799">
        <ele>272</ele>
        <time>2018-04-05T09:25:09Z</time>
      </trkpt>
      <trkpt lat="45.98243" lon="4.83807">
        <ele>272</ele>
        <time>2018-04-05T09:25:10Z</time>
      </trkpt>
      <trkpt lat="45.98241" lon="4.83817">
        <ele>272</ele>
        <time>2018-04-05T09:25:11Z</time>
      </trkpt>
      <trkpt lat="45.98239" lon="4.83824">
        <ele>272</ele>
        <time>2018-04-05T09:25:12Z</time>
      </trkpt>
      <trkpt lat="45.98237" lon="4.83832">
        <ele>272</ele>
        <time>2018-04-05T09:25:13Z</time>
      </trkpt>
      <trkpt lat="45.98234" lon="4.83839">
        <ele>272</ele>
        <time>2018-04-05T09:25:14Z</time>
      </trkpt>
      <trkpt lat="45.9823" lon="4.83847">
        <ele>272</ele>
        <time>2018-04-05T09:25:15Z</time>
      </trkpt>
      <trkpt lat="45.98228" lon="4.83853">
        <ele>272</ele>
        <time>2018-04-05T09:25:16Z</time>
      </trkpt>
      <trkpt lat="45.98224" lon="4.8386">
        <ele>272</ele>
        <time>2018-04-05T09:25:17Z</time>
      </trkpt>
      <trkpt lat="45.98223" lon="4.83869">
        <ele>272</ele>
        <time>2018-04-05T09:25:18Z</time>
      </trkpt>
      <trkpt lat="45.98221" lon="4.83876">
        <ele>272</ele>
        <time>2018-04-05T09:25:19Z</time>
      </trkpt>
      <trkpt lat="45.98219" lon="4.83883">
        <ele>272</ele>
        <time>2018-04-05T09:25:20Z</time>
      </trkpt>
      <trkpt lat="45.98216" lon="4.83891">
        <ele>273</ele>
        <time>2018-04-05T09:25:21Z</time>
      </trkpt>
      <trkpt lat="45.98214" lon="4.83898">
        <ele>273</ele>
        <time>2018-04-05T09:25:22Z</time>
      </trkpt>
      <trkpt lat="45.98212" lon="4.83904">
        <ele>273</ele>
        <time>2018-04-05T09:25:23Z</time>
      </trkpt>
      <trkpt lat="45.98209" lon="4.83911">
        <ele>273</ele>
        <time>2018-04-05T09:25:24Z</time>
      </trkpt>
      <trkpt lat="45.98207" lon="4.83917">
        <ele>273</ele>
        <time>2018-04-05T09:25:25Z</time>
      </trkpt>
      <trkpt lat="45.98204" lon="4.83923">
        <ele>273</ele>
        <time>2018-04-05T09:25:26Z</time>
      </trkpt>
      <trkpt lat="45.98202" lon="4.83929">
        <ele>273</ele>
        <time>2018-04-05T09:25:27Z</time>
      </trkpt>
      <trkpt lat="45.98199" lon="4.83936">
        <ele>273</ele>
        <time>2018-04-05T09:25:28Z</time>
      </trkpt>
      <trkpt lat="45.98197" lon="4.83943">
        <ele>273</ele>
        <time>2018-04-05T09:25:29Z</time>
      </trkpt>
      <trkpt lat="45.98195" lon="4.8395">
        <ele>273</ele>
        <time>2018-04-05T09:25:30Z</time>
      </trkpt>
      <trkpt lat="45.98192" lon="4.83955">
        <ele>273</ele>
        <time>2018-04-05T09:25:31Z</time>
      </trkpt>
      <trkpt lat="45.98191" lon="4.83963">
        <ele>273</ele>
        <time>2018-04-05T09:25:32Z</time>
      </trkpt>
      <trkpt lat="45.98188" lon="4.8397">
        <ele>273</ele>
        <time>2018-04-05T09:25:33Z</time>
      </trkpt>
      <trkpt lat="45.98186" lon="4.83977">
        <ele>273</ele>
        <time>2018-04-05T09:25:34Z</time>
      </trkpt>
      <trkpt lat="45.98184" lon="4.83984">
        <ele>273</ele>
        <time>2018-04-05T09:25:35Z</time>
      </trkpt>
      <trkpt lat="45.98182" lon="4.83991">
        <ele>273</ele>
        <time>2018-04-05T09:25:36Z</time>
      </trkpt>
      <trkpt lat="45.98179" lon="4.83999">
        <ele>273</ele>
        <time>2018-04-05T09:25:37Z</time>
      </trkpt>
      <trkpt lat="45.98176" lon="4.84006">
        <ele>273</ele>
        <time>2018-04-05T09:25:38Z</time>
      </trkpt>
      <trkpt lat="45.98172" lon="4.84012">
        <ele>273</ele>
        <time>2018-04-05T09:25:39Z</time>
      </trkpt>
      <trkpt lat="45.98169" lon="4.84019">
        <ele>273</ele>
        <time>2018-04-05T09:25:40Z</time>
      </trkpt>
      <trkpt lat="45.98165" lon="4.84026">
        <ele>273</ele>
        <time>2018-04-05T09:25:41Z</time>
      </trkpt>
      <trkpt lat="45.98162" lon="4.84032">
        <ele>273</ele>
        <time>2018-04-05T09:25:42Z</time>
      </trkpt>
      <trkpt lat="45.98158" lon="4.84039">
        <ele>273</ele>
        <time>2018-04-05T09:25:43Z</time>
      </trkpt>
      <trkpt lat="45.98154" lon="4.84045">
        <ele>273</ele>
        <time>2018-04-05T09:25:44Z</time>
      </trkpt>
      <trkpt lat="45.9815" lon="4.84051">
        <ele>273</ele>
        <time>2018-04-05T09:25:45Z</time>
      </trkpt>
      <trkpt lat="45.98145" lon="4.84057">
        <ele>273</ele>
        <time>2018-04-05T09:25:46Z</time>
      </trkpt>
      <trkpt lat="45.98141" lon="4.84064">
        <ele>273</ele>
        <time>2018-04-05T09:25:47Z</time>
      </trkpt>
      <trkpt lat="45.98138" lon="4.84069">
        <ele>273</ele>
        <time>2018-04-05T09:25:48Z</time>
      </trkpt>
      <trkpt lat="45.98133" lon="4.84075">
        <ele>273</ele>
        <time>2018-04-05T09:25:49Z</time>
      </trkpt>
      <trkpt lat="45.98128" lon="4.8408">
        <ele>273</ele>
        <time>2018-04-05T09:25:50Z</time>
      </trkpt>
      <trkpt lat="45.98123" lon="4.84085">
        <ele>273</ele>
        <time>2018-04-05T09:25:51Z</time>
      </trkpt>
      <trkpt lat="45.98118" lon="4.84089">
        <ele>273</ele>
        <time>2018-04-05T09:25:52Z</time>
      </trkpt>
      <trkpt lat="45.98113" lon="4.84093">
        <ele>273</ele>
        <time>2018-04-05T09:25:53Z</time>
      </trkpt>
      <trkpt lat="45.98109" lon="4.84098">
        <ele>273</ele>
        <time>2018-04-05T09:25:54Z</time>
      </trkpt>
      <trkpt lat="45.98104" lon="4.84102">
        <ele>273</ele>
        <time>2018-04-05T09:25:55Z</time>
      </trkpt>
      <trkpt lat="45.98099" lon="4.84107">
        <ele>273</ele>
        <time>2018-04-05T09:25:56Z</time>
      </trkpt>
      <trkpt lat="45.98094" lon="4.8411">
        <ele>273</ele>
        <time>2018-04-05T09:25:57Z</time>
      </trkpt>
      <trkpt lat="45.9809" lon="4.84114">
        <ele>273</ele>
        <time>2018-04-05T09:25:58Z</time>
      </trkpt>
      <trkpt lat="45.98086" lon="4.84117">
        <ele>273</ele>
        <time>2018-04-05T09:25:59Z</time>
      </trkpt>
      <trkpt lat="45.98083" lon="4.84123">
        <ele>273</ele>
        <time>2018-04-05T09:26:00Z</time>
      </trkpt>
      <trkpt lat="45.98078" lon="4.84127">
        <ele>273</ele>
        <time>2018-04-05T09:26:01Z</time>
      </trkpt>
      <trkpt lat="45.98074" lon="4.84131">
        <ele>273</ele>
        <time>2018-04-05T09:26:02Z</time>
      </trkpt>
      <trkpt lat="45.98069" lon="4.84135">
        <ele>273</ele>
        <time>2018-04-05T09:26:03Z</time>
      </trkpt>
      <trkpt lat="45.98065" lon="4.84139">
        <ele>273</ele>
        <time>2018-04-05T09:26:04Z</time>
      </trkpt>
      <trkpt lat="45.9806" lon="4.84143">
        <ele>273</ele>
        <time>2018-04-05T09:26:05Z</time>
      </trkpt>
      <trkpt lat="45.98056" lon="4.84147">
        <ele>273</ele>
        <time>2018-04-05T09:26:06Z</time>
      </trkpt>
      <trkpt lat="45.9805" lon="4.84152">
        <ele>273</ele>
        <time>2018-04-05T09:26:07Z</time>
      </trkpt>
      <trkpt lat="45.98045" lon="4.84156">
        <ele>273</ele>
        <time>2018-04-05T09:26:08Z</time>
      </trkpt>
      <trkpt lat="45.98041" lon="4.84161">
        <ele>273</ele>
        <time>2018-04-05T09:26:09Z</time>
      </trkpt>
      <trkpt lat="45.98038" lon="4.84166">
        <ele>273</ele>
        <time>2018-04-05T09:26:10Z</time>
      </trkpt>
      <trkpt lat="45.98035" lon="4.8417">
        <ele>273</ele>
        <time>2018-04-05T09:26:11Z</time>
      </trkpt>
      <trkpt lat="45.98031" lon="4.84176">
        <ele>273</ele>
        <time>2018-04-05T09:26:12Z</time>
      </trkpt>
      <trkpt lat="45.98027" lon="4.84181">
        <ele>274</ele>
        <time>2018-04-05T09:26:13Z</time>
      </trkpt>
      <trkpt lat="45.98022" lon="4.84185">
        <ele>274</ele>
        <time>2018-04-05T09:26:14Z</time>
      </trkpt>
      <trkpt lat="45.98018" lon="4.84191">
        <ele>274</ele>
        <time>2018-04-05T09:26:15Z</time>
      </trkpt>
      <trkpt lat="45.98013" lon="4.84195">
        <ele>274</ele>
        <time>2018-04-05T09:26:16Z</time>
      </trkpt>
      <trkpt lat="45.98008" lon="4.84199">
        <ele>274</ele>
        <time>2018-04-05T09:26:17Z</time>
      </trkpt>
      <trkpt lat="45.98003" lon="4.84203">
        <ele>274</ele>
        <time>2018-04-05T09:26:18Z</time>
      </trkpt>
      <trkpt lat="45.97998" lon="4.84207">
        <ele>274</ele>
        <time>2018-04-05T09:26:19Z</time>
      </trkpt>
      <trkpt lat="45.97994" lon="4.8421">
        <ele>274</ele>
        <time>2018-04-05T09:26:20Z</time>
      </trkpt>
      <trkpt lat="45.97987" lon="4.84218">
        <ele>274</ele>
        <time>2018-04-05T09:26:22Z</time>
      </trkpt>
      <trkpt lat="45.97983" lon="4.84223">
        <ele>274</ele>
        <time>2018-04-05T09:26:23Z</time>
      </trkpt>
      <trkpt lat="45.97978" lon="4.84226">
        <ele>274</ele>
        <time>2018-04-05T09:26:24Z</time>
      </trkpt>
      <trkpt lat="45.97974" lon="4.8423">
        <ele>274</ele>
        <time>2018-04-05T09:26:25Z</time>
      </trkpt>
      <trkpt lat="45.97969" lon="4.84233">
        <ele>274</ele>
        <time>2018-04-05T09:26:26Z</time>
      </trkpt>
      <trkpt lat="45.97965" lon="4.84237">
        <ele>274</ele>
        <time>2018-04-05T09:26:27Z</time>
      </trkpt>
      <trkpt lat="45.9796" lon="4.8424">
        <ele>274</ele>
        <time>2018-04-05T09:26:28Z</time>
      </trkpt>
      <trkpt lat="45.97956" lon="4.84244">
        <ele>275</ele>
        <time>2018-04-05T09:26:29Z</time>
      </trkpt>
      <trkpt lat="45.97952" lon="4.84248">
        <ele>275</ele>
        <time>2018-04-05T09:26:30Z</time>
      </trkpt>
      <trkpt lat="45.97948" lon="4.84251">
        <ele>275</ele>
        <time>2018-04-05T09:26:31Z</time>
      </trkpt>
      <trkpt lat="45.97943" lon="4.84255">
        <ele>275</ele>
        <time>2018-04-05T09:26:32Z</time>
      </trkpt>
      <trkpt lat="45.97939" lon="4.84258">
        <ele>275</ele>
        <time>2018-04-05T09:26:33Z</time>
      </trkpt>
      <trkpt lat="45.97934" lon="4.84262">
        <ele>275</ele>
        <time>2018-04-05T09:26:34Z</time>
      </trkpt>
      <trkpt lat="45.97929" lon="4.84268">
        <ele>275</ele>
        <time>2018-04-05T09:26:35Z</time>
      </trkpt>
      <trkpt lat="45.97926" lon="4.84274">
        <ele>275</ele>
        <time>2018-04-05T09:26:36Z</time>
      </trkpt>
      <trkpt lat="45.97923" lon="4.8428">
        <ele>275</ele>
        <time>2018-04-05T09:26:37Z</time>
      </trkpt>
      <trkpt lat="45.97922" lon="4.84289">
        <ele>275</ele>
        <time>2018-04-05T09:26:38Z</time>
      </trkpt>
      <trkpt lat="45.97922" lon="4.84297">
        <ele>275</ele>
        <time>2018-04-05T09:26:39Z</time>
      </trkpt>
      <trkpt lat="45.97923" lon="4.84305">
        <ele>275</ele>
        <time>2018-04-05T09:26:40Z</time>
      </trkpt>
      <trkpt lat="45.97924" lon="4.84313">
        <ele>275</ele>
        <time>2018-04-05T09:26:41Z</time>
      </trkpt>
      <trkpt lat="45.97926" lon="4.84321">
        <ele>275</ele>
        <time>2018-04-05T09:26:42Z</time>
      </trkpt>
      <trkpt lat="45.97927" lon="4.84329">
        <ele>275</ele>
        <time>2018-04-05T09:26:43Z</time>
      </trkpt>
      <trkpt lat="45.97929" lon="4.84338">
        <ele>275</ele>
        <time>2018-04-05T09:26:44Z</time>
      </trkpt>
      <trkpt lat="45.97931" lon="4.84346">
        <ele>275</ele>
        <time>2018-04-05T09:26:45Z</time>
      </trkpt>
      <trkpt lat="45.97933" lon="4.84353">
        <ele>275</ele>
        <time>2018-04-05T09:26:46Z</time>
      </trkpt>
      <trkpt lat="45.97934" lon="4.84363">
        <ele>275</ele>
        <time>2018-04-05T09:26:47Z</time>
      </trkpt>
      <trkpt lat="45.97935" lon="4.8437">
        <ele>275</ele>
        <time>2018-04-05T09:26:48Z</time>
      </trkpt>
      <trkpt lat="45.97937" lon="4.84378">
        <ele>275</ele>
        <time>2018-04-05T09:26:49Z</time>
      </trkpt>
      <trkpt lat="45.97938" lon="4.84386">
        <ele>275</ele>
        <time>2018-04-05T09:26:50Z</time>
      </trkpt>
      <trkpt lat="45.9794" lon="4.84395">
        <ele>275</ele>
        <time>2018-04-05T09:26:51Z</time>
      </trkpt>
      <trkpt lat="45.97941" lon="4.84403">
        <ele>275</ele>
        <time>2018-04-05T09:26:52Z</time>
      </trkpt>
      <trkpt lat="45.97942" lon="4.84412">
        <ele>275</ele>
        <time>2018-04-05T09:26:53Z</time>
      </trkpt>
      <trkpt lat="45.97944" lon="4.8442">
        <ele>275</ele>
        <time>2018-04-05T09:26:54Z</time>
      </trkpt>
      <trkpt lat="45.97945" lon="4.84429">
        <ele>275</ele>
        <time>2018-04-05T09:26:55Z</time>
      </trkpt>
      <trkpt lat="45.97947" lon="4.84438">
        <ele>275</ele>
        <time>2018-04-05T09:26:56Z</time>
      </trkpt>
      <trkpt lat="45.97949" lon="4.84447">
        <ele>275</ele>
        <time>2018-04-05T09:26:57Z</time>
      </trkpt>
      <trkpt lat="45.9795" lon="4.84455">
        <ele>275</ele>
        <time>2018-04-05T09:26:58Z</time>
      </trkpt>
      <trkpt lat="45.97951" lon="4.84463">
        <ele>275</ele>
        <time>2018-04-05T09:26:59Z</time>
      </trkpt>
      <trkpt lat="45.97953" lon="4.84472">
        <ele>275</ele>
        <time>2018-04-05T09:27:00Z</time>
      </trkpt>
      <trkpt lat="45.97954" lon="4.84479">
        <ele>275</ele>
        <time>2018-04-05T09:27:01Z</time>
      </trkpt>
      <trkpt lat="45.97955" lon="4.84488">
        <ele>275</ele>
        <time>2018-04-05T09:27:02Z</time>
      </trkpt>
      <trkpt lat="45.97957" lon="4.84496">
        <ele>275</ele>
        <time>2018-04-05T09:27:03Z</time>
      </trkpt>
      <trkpt lat="45.97958" lon="4.84504">
        <ele>275</ele>
        <time>2018-04-05T09:27:04Z</time>
      </trkpt>
      <trkpt lat="45.97959" lon="4.84512">
        <ele>275</ele>
        <time>2018-04-05T09:27:05Z</time>
      </trkpt>
      <trkpt lat="45.97961" lon="4.8452">
        <ele>275</ele>
        <time>2018-04-05T09:27:06Z</time>
      </trkpt>
      <trkpt lat="45.97962" lon="4.8453">
        <ele>275</ele>
        <time>2018-04-05T09:27:07Z</time>
      </trkpt>
      <trkpt lat="45.97963" lon="4.84539">
        <ele>275</ele>
        <time>2018-04-05T09:27:08Z</time>
      </trkpt>
      <trkpt lat="45.97964" lon="4.84547">
        <ele>275</ele>
        <time>2018-04-05T09:27:09Z</time>
      </trkpt>
      <trkpt lat="45.97965" lon="4.84555">
        <ele>275</ele>
        <time>2018-04-05T09:27:10Z</time>
      </trkpt>
      <trkpt lat="45.97967" lon="4.84564">
        <ele>275</ele>
        <time>2018-04-05T09:27:11Z</time>
      </trkpt>
      <trkpt lat="45.97969" lon="4.84573">
        <ele>275</ele>
        <time>2018-04-05T09:27:12Z</time>
      </trkpt>
      <trkpt lat="45.9797" lon="4.84581">
        <ele>275</ele>
        <time>2018-04-05T09:27:13Z</time>
      </trkpt>
      <trkpt lat="45.97971" lon="4.84588">
        <ele>275</ele>
        <time>2018-04-05T09:27:14Z</time>
      </trkpt>
      <trkpt lat="45.97973" lon="4.84597">
        <ele>275</ele>
        <time>2018-04-05T09:27:15Z</time>
      </trkpt>
      <trkpt lat="45.97974" lon="4.84605">
        <ele>275</ele>
        <time>2018-04-05T09:27:16Z</time>
      </trkpt>
      <trkpt lat="45.97975" lon="4.84613">
        <ele>275</ele>
        <time>2018-04-05T09:27:17Z</time>
      </trkpt>
      <trkpt lat="45.97976" lon="4.84621">
        <ele>275</ele>
        <time>2018-04-05T09:27:18Z</time>
      </trkpt>
      <trkpt lat="45.97977" lon="4.84629">
        <ele>275</ele>
        <time>2018-04-05T09:27:19Z</time>
      </trkpt>
      <trkpt lat="45.97978" lon="4.84637">
        <ele>275</ele>
        <time>2018-04-05T09:27:20Z</time>
      </trkpt>
      <trkpt lat="45.9798" lon="4.84645">
        <ele>275</ele>
        <time>2018-04-05T09:27:21Z</time>
      </trkpt>
      <trkpt lat="45.97982" lon="4.84653">
        <ele>274</ele>
        <time>2018-04-05T09:27:22Z</time>
      </trkpt>
      <trkpt lat="45.97983" lon="4.84662">
        <ele>274</ele>
        <time>2018-04-05T09:27:23Z</time>
      </trkpt>
      <trkpt lat="45.97984" lon="4.84671">
        <ele>275</ele>
        <time>2018-04-05T09:27:24Z</time>
      </trkpt>
      <trkpt lat="45.97985" lon="4.84679">
        <ele>275</ele>
        <time>2018-04-05T09:27:25Z</time>
      </trkpt>
      <trkpt lat="45.97987" lon="4.84687">
        <ele>275</ele>
        <time>2018-04-05T09:27:26Z</time>
      </trkpt>
      <trkpt lat="45.97988" lon="4.84696">
        <ele>275</ele>
        <time>2018-04-05T09:27:27Z</time>
      </trkpt>
      <trkpt lat="45.97989" lon="4.84705">
        <ele>275</ele>
        <time>2018-04-05T09:27:28Z</time>
      </trkpt>
      <trkpt lat="45.9799" lon="4.84714">
        <ele>275</ele>
        <time>2018-04-05T09:27:29Z</time>
      </trkpt>
      <trkpt lat="45.97992" lon="4.84724">
        <ele>275</ele>
        <time>2018-04-05T09:27:30Z</time>
      </trkpt>
      <trkpt lat="45.97992" lon="4.84731">
        <ele>275</ele>
        <time>2018-04-05T09:27:31Z</time>
      </trkpt>
      <trkpt lat="45.97993" lon="4.84739">
        <ele>275</ele>
        <time>2018-04-05T09:27:32Z</time>
      </trkpt>
      <trkpt lat="45.97994" lon="4.84748">
        <ele>275</ele>
        <time>2018-04-05T09:27:33Z</time>
      </trkpt>
      <trkpt lat="45.97995" lon="4.84755">
        <ele>275</ele>
        <time>2018-04-05T09:27:34Z</time>
      </trkpt>
      <trkpt lat="45.97995" lon="4.84763">
        <ele>275</ele>
        <time>2018-04-05T09:27:35Z</time>
      </trkpt>
      <trkpt lat="45.97996" lon="4.84771">
        <ele>274</ele>
        <time>2018-04-05T09:27:36Z</time>
      </trkpt>
      <trkpt lat="45.97996" lon="4.8478">
        <ele>274</ele>
        <time>2018-04-05T09:27:37Z</time>
      </trkpt>
      <trkpt lat="45.97997" lon="4.84788">
        <ele>274</ele>
        <time>2018-04-05T09:27:38Z</time>
      </trkpt>
      <trkpt lat="45.97997" lon="4.84797">
        <ele>274</ele>
        <time>2018-04-05T09:27:39Z</time>
      </trkpt>
      <trkpt lat="45.97997" lon="4.84805">
        <ele>274</ele>
        <time>2018-04-05T09:27:40Z</time>
      </trkpt>
      <trkpt lat="45.97998" lon="4.84814">
        <ele>273</ele>
        <time>2018-04-05T09:27:41Z</time>
      </trkpt>
      <trkpt lat="45.97999" lon="4.84823">
        <ele>273</ele>
        <time>2018-04-05T09:27:42Z</time>
      </trkpt>
      <trkpt lat="45.98001" lon="4.84831">
        <ele>272</ele>
        <time>2018-04-05T09:27:43Z</time>
      </trkpt>
      <trkpt lat="45.98001" lon="4.8484">
        <ele>272</ele>
        <time>2018-04-05T09:27:44Z</time>
      </trkpt>
      <trkpt lat="45.98002" lon="4.84849">
        <ele>272</ele>
        <time>2018-04-05T09:27:45Z</time>
      </trkpt>
      <trkpt lat="45.98002" lon="4.84859">
        <ele>272</ele>
        <time>2018-04-05T09:27:46Z</time>
      </trkpt>
      <trkpt lat="45.98003" lon="4.84868">
        <ele>272</ele>
        <time>2018-04-05T09:27:47Z</time>
      </trkpt>
      <trkpt lat="45.98004" lon="4.84877">
        <ele>272</ele>
        <time>2018-04-05T09:27:48Z</time>
      </trkpt>
      <trkpt lat="45.98005" lon="4.84887">
        <ele>272</ele>
        <time>2018-04-05T09:27:49Z</time>
      </trkpt>
      <trkpt lat="45.98006" lon="4.84896">
        <ele>272</ele>
        <time>2018-04-05T09:27:50Z</time>
      </trkpt>
      <trkpt lat="45.98007" lon="4.84905">
        <ele>272</ele>
        <time>2018-04-05T09:27:51Z</time>
      </trkpt>
      <trkpt lat="45.98008" lon="4.84914">
        <ele>272</ele>
        <time>2018-04-05T09:27:52Z</time>
      </trkpt>
      <trkpt lat="45.98009" lon="4.84923">
        <ele>272</ele>
        <time>2018-04-05T09:27:53Z</time>
      </trkpt>
      <trkpt lat="45.98009" lon="4.84932">
        <ele>272</ele>
        <time>2018-04-05T09:27:54Z</time>
      </trkpt>
      <trkpt lat="45.9801" lon="4.84941">
        <ele>272</ele>
        <time>2018-04-05T09:27:55Z</time>
      </trkpt>
      <trkpt lat="45.98011" lon="4.8495">
        <ele>272</ele>
        <time>2018-04-05T09:27:56Z</time>
      </trkpt>
      <trkpt lat="45.98011" lon="4.84959">
        <ele>272</ele>
        <time>2018-04-05T09:27:57Z</time>
      </trkpt>
      <trkpt lat="45.98012" lon="4.84967">
        <ele>272</ele>
        <time>2018-04-05T09:27:58Z</time>
      </trkpt>
      <trkpt lat="45.98012" lon="4.84976">
        <ele>272</ele>
        <time>2018-04-05T09:27:59Z</time>
      </trkpt>
      <trkpt lat="45.98013" lon="4.84984">
        <ele>272</ele>
        <time>2018-04-05T09:28:00Z</time>
      </trkpt>
      <trkpt lat="45.98014" lon="4.84992">
        <ele>272</ele>
        <time>2018-04-05T09:28:01Z</time>
      </trkpt>
      <trkpt lat="45.98015" lon="4.84999">
        <ele>272</ele>
        <time>2018-04-05T09:28:02Z</time>
      </trkpt>
      <trkpt lat="45.98016" lon="4.85007">
        <ele>272</ele>
        <time>2018-04-05T09:28:03Z</time>
      </trkpt>
      <trkpt lat="45.98017" lon="4.85014">
        <ele>273</ele>
        <time>2018-04-05T09:28:04Z</time>
      </trkpt>
      <trkpt lat="45.98017" lon="4.85021">
        <ele>273</ele>
        <time>2018-04-05T09:28:05Z</time>
      </trkpt>
      <trkpt lat="45.98017" lon="4.85028">
        <ele>273</ele>
        <time>2018-04-05T09:28:06Z</time>
      </trkpt>
      <trkpt lat="45.98018" lon="4.85036">
        <ele>273</ele>
        <time>2018-04-05T09:28:07Z</time>
      </trkpt>
      <trkpt lat="45.98018" lon="4.85043">
        <ele>273</ele>
        <time>2018-04-05T09:28:08Z</time>
      </trkpt>
      <trkpt lat="45.98018" lon="4.85051">
        <ele>273</ele>
        <time>2018-04-05T09:28:09Z</time>
      </trkpt>
      <trkpt lat="45.9802" lon="4.85059">
        <ele>273</ele>
        <time>2018-04-05T09:28:10Z</time>
      </trkpt>
      <trkpt lat="45.9802" lon="4.85067">
        <ele>273</ele>
        <time>2018-04-05T09:28:11Z</time>
      </trkpt>
      <trkpt lat="45.9802" lon="4.85075">
        <ele>273</ele>
        <time>2018-04-05T09:28:12Z</time>
      </trkpt>
      <trkpt lat="45.9802" lon="4.85084">
        <ele>274</ele>
        <time>2018-04-05T09:28:13Z</time>
      </trkpt>
      <trkpt lat="45.9802" lon="4.85091">
        <ele>274</ele>
        <time>2018-04-05T09:28:14Z</time>
      </trkpt>
      <trkpt lat="45.98021" lon="4.851">
        <ele>274</ele>
        <time>2018-04-05T09:28:15Z</time>
      </trkpt>
      <trkpt lat="45.98022" lon="4.85107">
        <ele>274</ele>
        <time>2018-04-05T09:28:16Z</time>
      </trkpt>
      <trkpt lat="45.98023" lon="4.85114">
        <ele>274</ele>
        <time>2018-04-05T09:28:17Z</time>
      </trkpt>
      <trkpt lat="45.98025" lon="4.85121">
        <ele>274</ele>
        <time>2018-04-05T09:28:18Z</time>
      </trkpt>
      <trkpt lat="45.98029" lon="4.85127">
        <ele>274</ele>
        <time>2018-04-05T09:28:19Z</time>
      </trkpt>
      <trkpt lat="45.98031" lon="4.85133">
        <ele>275</ele>
        <time>2018-04-05T09:28:20Z</time>
      </trkpt>
      <trkpt lat="45.98032" lon="4.8514">
        <ele>275</ele>
        <time>2018-04-05T09:28:21Z</time>
      </trkpt>
      <trkpt lat="45.98034" lon="4.85152">
        <ele>275</ele>
        <time>2018-04-05T09:28:23Z</time>
      </trkpt>
      <trkpt lat="45.98036" lon="4.85158">
        <ele>275</ele>
        <time>2018-04-05T09:28:24Z</time>
      </trkpt>
      <trkpt lat="45.98038" lon="4.85164">
        <ele>275</ele>
        <time>2018-04-05T09:28:25Z</time>
      </trkpt>
      <trkpt lat="45.9804" lon="4.85171">
        <ele>275</ele>
        <time>2018-04-05T09:28:26Z</time>
      </trkpt>
      <trkpt lat="45.98041" lon="4.85177">
        <ele>276</ele>
        <time>2018-04-05T09:28:27Z</time>
      </trkpt>
      <trkpt lat="45.98043" lon="4.85183">
        <ele>276</ele>
        <time>2018-04-05T09:28:28Z</time>
      </trkpt>
      <trkpt lat="45.98044" lon="4.8519">
        <ele>276</ele>
        <time>2018-04-05T09:28:29Z</time>
      </trkpt>
      <trkpt lat="45.98046" lon="4.85196">
        <ele>276</ele>
        <time>2018-04-05T09:28:30Z</time>
      </trkpt>
      <trkpt lat="45.98049" lon="4.85208">
        <ele>276</ele>
        <time>2018-04-05T09:28:32Z</time>
      </trkpt>
      <trkpt lat="45.98051" lon="4.85215">
        <ele>276</ele>
        <time>2018-04-05T09:28:33Z</time>
      </trkpt>
      <trkpt lat="45.98055" lon="4.85225">
        <ele>276</ele>
        <time>2018-04-05T09:28:35Z</time>
      </trkpt>
      <trkpt lat="45.98058" lon="4.8523">
        <ele>276</ele>
        <time>2018-04-05T09:28:36Z</time>
      </trkpt>
      <trkpt lat="45.9806" lon="4.85236">
        <ele>276</ele>
        <time>2018-04-05T09:28:37Z</time>
      </trkpt>
      <trkpt lat="45.98064" lon="4.85241">
        <ele>276</ele>
        <time>2018-04-05T09:28:38Z</time>
      </trkpt>
      <trkpt lat="45.98067" lon="4.85247">
        <ele>276</ele>
        <time>2018-04-05T09:28:39Z</time>
      </trkpt>
      <trkpt lat="45.98071" lon="4.85253">
        <ele>276</ele>
        <time>2018-04-05T09:28:40Z</time>
      </trkpt>
      <trkpt lat="45.98074" lon="4.85259">
        <ele>276</ele>
        <time>2018-04-05T09:28:41Z</time>
      </trkpt>
      <trkpt lat="45.98078" lon="4.85265">
        <ele>276</ele>
        <time>2018-04-05T09:28:42Z</time>
      </trkpt>
      <trkpt lat="45.98081" lon="4.85272">
        <ele>276</ele>
        <time>2018-04-05T09:28:43Z</time>
      </trkpt>
      <trkpt lat="45.98084" lon="4.85279">
        <ele>276</ele>
        <time>2018-04-05T09:28:44Z</time>
      </trkpt>
      <trkpt lat="45.98087" lon="4.85286">
        <ele>276</ele>
        <time>2018-04-05T09:28:45Z</time>
      </trkpt>
      <trkpt lat="45.9809" lon="4.85293">
        <ele>276</ele>
        <time>2018-04-05T09:28:46Z</time>
      </trkpt>
      <trkpt lat="45.98093" lon="4.853">
        <ele>276</ele>
        <time>2018-04-05T09:28:47Z</time>
      </trkpt>
      <trkpt lat="45.98096" lon="4.85306">
        <ele>276</ele>
        <time>2018-04-05T09:28:48Z</time>
      </trkpt>
      <trkpt lat="45.98098" lon="4.85314">
        <ele>276</ele>
        <time>2018-04-05T09:28:49Z</time>
      </trkpt>
      <trkpt lat="45.98101" lon="4.8532">
        <ele>276</ele>
        <time>2018-04-05T09:28:50Z</time>
      </trkpt>
      <trkpt lat="45.98104" lon="4.85327">
        <ele>276</ele>
        <time>2018-04-05T09:28:51Z</time>
      </trkpt>
      <trkpt lat="45.98107" lon="4.85332">
        <ele>276</ele>
        <time>2018-04-05T09:28:52Z</time>
      </trkpt>
      <trkpt lat="45.98109" lon="4.85339">
        <ele>276</ele>
        <time>2018-04-05T09:28:53Z</time>
      </trkpt>
      <trkpt lat="45.98112" lon="4.85344">
        <ele>276</ele>
        <time>2018-04-05T09:28:54Z</time>
      </trkpt>
      <trkpt lat="45.98115" lon="4.85349">
        <ele>276</ele>
        <time>2018-04-05T09:28:55Z</time>
      </trkpt>
      <trkpt lat="45.98118" lon="4.85354">
        <ele>276</ele>
        <time>2018-04-05T09:28:56Z</time>
      </trkpt>
      <trkpt lat="45.98121" lon="4.85361">
        <ele>276</ele>
        <time>2018-04-05T09:28:57Z</time>
      </trkpt>
      <trkpt lat="45.98123" lon="4.85369">
        <ele>276</ele>
        <time>2018-04-05T09:28:58Z</time>
      </trkpt>
      <trkpt lat="45.98124" lon="4.85377">
        <ele>276</ele>
        <time>2018-04-05T09:28:59Z</time>
      </trkpt>
      <trkpt lat="45.98127" lon="4.85384">
        <ele>276</ele>
        <time>2018-04-05T09:29:00Z</time>
      </trkpt>
      <trkpt lat="45.9813" lon="4.85392">
        <ele>276</ele>
        <time>2018-04-05T09:29:01Z</time>
      </trkpt>
      <trkpt lat="45.98133" lon="4.854">
        <ele>276</ele>
        <time>2018-04-05T09:29:02Z</time>
      </trkpt>
      <trkpt lat="45.98137" lon="4.85408">
        <ele>276</ele>
        <time>2018-04-05T09:29:03Z</time>
      </trkpt>
      <trkpt lat="45.9814" lon="4.85416">
        <ele>276</ele>
        <time>2018-04-05T09:29:04Z</time>
      </trkpt>
      <trkpt lat="45.98142" lon="4.85423">
        <ele>276</ele>
        <time>2018-04-05T09:29:05Z</time>
      </trkpt>
      <trkpt lat="45.98146" lon="4.85431">
        <ele>276</ele>
        <time>2018-04-05T09:29:06Z</time>
      </trkpt>
      <trkpt lat="45.98148" lon="4.85439">
        <ele>276</ele>
        <time>2018-04-05T09:29:07Z</time>
      </trkpt>
      <trkpt lat="45.98151" lon="4.85446">
        <ele>276</ele>
        <time>2018-04-05T09:29:08Z</time>
      </trkpt>
      <trkpt lat="45.98154" lon="4.85453">
        <ele>276</ele>
        <time>2018-04-05T09:29:09Z</time>
      </trkpt>
      <trkpt lat="45.98156" lon="4.8546">
        <ele>275</ele>
        <time>2018-04-05T09:29:10Z</time>
      </trkpt>
      <trkpt lat="45.98159" lon="4.85467">
        <ele>275</ele>
        <time>2018-04-05T09:29:11Z</time>
      </trkpt>
      <trkpt lat="45.98163" lon="4.85472">
        <ele>275</ele>
        <time>2018-04-05T09:29:12Z</time>
      </trkpt>
      <trkpt lat="45.98165" lon="4.85478">
        <ele>275</ele>
        <time>2018-04-05T09:29:13Z</time>
      </trkpt>
      <trkpt lat="45.98168" lon="4.85485">
        <ele>275</ele>
        <time>2018-04-05T09:29:14Z</time>
      </trkpt>
      <trkpt lat="45.9817" lon="4.85492">
        <ele>275</ele>
        <time>2018-04-05T09:29:15Z</time>
      </trkpt>
      <trkpt lat="45.98173" lon="4.855">
        <ele>275</ele>
        <time>2018-04-05T09:29:16Z</time>
      </trkpt>
      <trkpt lat="45.98175" lon="4.85508">
        <ele>275</ele>
        <time>2018-04-05T09:29:17Z</time>
      </trkpt>
      <trkpt lat="45.98178" lon="4.85515">
        <ele>275</ele>
        <time>2018-04-05T09:29:18Z</time>
      </trkpt>
      <trkpt lat="45.98181" lon="4.85521">
        <ele>275</ele>
        <time>2018-04-05T09:29:19Z</time>
      </trkpt>
      <trkpt lat="45.98184" lon="4.85528">
        <ele>276</ele>
        <time>2018-04-05T09:29:20Z</time>
      </trkpt>
      <trkpt lat="45.98186" lon="4.85535">
        <ele>276</ele>
        <time>2018-04-05T09:29:21Z</time>
      </trkpt>
      <trkpt lat="45.98189" lon="4.85541">
        <ele>276</ele>
        <time>2018-04-05T09:29:22Z</time>
      </trkpt>
      <trkpt lat="45.98191" lon="4.85548">
        <ele>276</ele>
        <time>2018-04-05T09:29:23Z</time>
      </trkpt>
      <trkpt lat="45.98194" lon="4.85555">
        <ele>276</ele>
        <time>2018-04-05T09:29:24Z</time>
      </trkpt>
      <trkpt lat="45.98197" lon="4.85562">
        <ele>276</ele>
        <time>2018-04-05T09:29:25Z</time>
      </trkpt>
      <trkpt lat="45.98199" lon="4.85569">
        <ele>276</ele>
        <time>2018-04-05T09:29:26Z</time>
      </trkpt>
      <trkpt lat="45.98202" lon="4.85575">
        <ele>276</ele>
        <time>2018-04-05T09:29:27Z</time>
      </trkpt>
      <trkpt lat="45.98205" lon="4.85581">
        <ele>276</ele>
        <time>2018-04-05T09:29:28Z</time>
      </trkpt>
      <trkpt lat="45.98208" lon="4.85588">
        <ele>277</ele>
        <time>2018-04-05T09:29:29Z</time>
      </trkpt>
      <trkpt lat="45.98211" lon="4.85595">
        <ele>277</ele>
        <time>2018-04-05T09:29:30Z</time>
      </trkpt>
      <trkpt lat="45.98213" lon="4.85601">
        <ele>277</ele>
        <time>2018-04-05T09:29:31Z</time>
      </trkpt>
      <trkpt lat="45.98216" lon="4.85608">
        <ele>277</ele>
        <time>2018-04-05T09:29:32Z</time>
      </trkpt>
      <trkpt lat="45.98219" lon="4.85616">
        <ele>277</ele>
        <time>2018-04-05T09:29:33Z</time>
      </trkpt>
      <trkpt lat="45.98222" lon="4.85623">
        <ele>277</ele>
        <time>2018-04-05T09:29:34Z</time>
      </trkpt>
      <trkpt lat="45.98224" lon="4.8563">
        <ele>277</ele>
        <time>2018-04-05T09:29:35Z</time>
      </trkpt>
      <trkpt lat="45.98226" lon="4.85635">
        <ele>277</ele>
        <time>2018-04-05T09:29:36Z</time>
      </trkpt>
      <trkpt lat="45.98229" lon="4.85642">
        <ele>277</ele>
        <time>2018-04-05T09:29:37Z</time>
      </trkpt>
      <trkpt lat="45.98232" lon="4.85648">
        <ele>277</ele>
        <time>2018-04-05T09:29:38Z</time>
      </trkpt>
      <trkpt lat="45.98235" lon="4.85655">
        <ele>276</ele>
        <time>2018-04-05T09:29:39Z</time>
      </trkpt>
      <trkpt lat="45.98238" lon="4.85661">
        <ele>276</ele>
        <time>2018-04-05T09:29:40Z</time>
      </trkpt>
      <trkpt lat="45.98241" lon="4.85668">
        <ele>276</ele>
        <time>2018-04-05T09:29:41Z</time>
      </trkpt>
      <trkpt lat="45.98244" lon="4.85676">
        <ele>276</ele>
        <time>2018-04-05T09:29:42Z</time>
      </trkpt>
      <trkpt lat="45.98247" lon="4.85683">
        <ele>276</ele>
        <time>2018-04-05T09:29:43Z</time>
      </trkpt>
      <trkpt lat="45.9825" lon="4.85689">
        <ele>275</ele>
        <time>2018-04-05T09:29:44Z</time>
      </trkpt>
      <trkpt lat="45.98253" lon="4.85695">
        <ele>275</ele>
        <time>2018-04-05T09:29:45Z</time>
      </trkpt>
      <trkpt lat="45.98255" lon="4.85702">
        <ele>275</ele>
        <time>2018-04-05T09:29:46Z</time>
      </trkpt>
      <trkpt lat="45.98257" lon="4.85708">
        <ele>275</ele>
        <time>2018-04-05T09:29:47Z</time>
      </trkpt>
      <trkpt lat="45.9826" lon="4.85715">
        <ele>275</ele>
        <time>2018-04-05T09:29:48Z</time>
      </trkpt>
      <trkpt lat="45.98262" lon="4.85721">
        <ele>275</ele>
        <time>2018-04-05T09:29:49Z</time>
      </trkpt>
      <trkpt lat="45.98265" lon="4.85727">
        <ele>275</ele>
        <time>2018-04-05T09:29:50Z</time>
      </trkpt>
      <trkpt lat="45.98267" lon="4.85733">
        <ele>275</ele>
        <time>2018-04-05T09:29:51Z</time>
      </trkpt>
      <trkpt lat="45.9827" lon="4.8574">
        <ele>275</ele>
        <time>2018-04-05T09:29:52Z</time>
      </trkpt>
      <trkpt lat="45.98273" lon="4.85747">
        <ele>274</ele>
        <time>2018-04-05T09:29:53Z</time>
      </trkpt>
      <trkpt lat="45.98276" lon="4.85754">
        <ele>275</ele>
        <time>2018-04-05T09:29:54Z</time>
      </trkpt>
      <trkpt lat="45.98279" lon="4.85761">
        <ele>275</ele>
        <time>2018-04-05T09:29:55Z</time>
      </trkpt>
      <trkpt lat="45.98281" lon="4.85768">
        <ele>275</ele>
        <time>2018-04-05T09:29:56Z</time>
      </trkpt>
      <trkpt lat="45.98284" lon="4.85775">
        <ele>275</ele>
        <time>2018-04-05T09:29:57Z</time>
      </trkpt>
      <trkpt lat="45.98287" lon="4.85783">
        <ele>275</ele>
        <time>2018-04-05T09:29:58Z</time>
      </trkpt>
      <trkpt lat="45.9829" lon="4.8579">
        <ele>275</ele>
        <time>2018-04-05T09:29:59Z</time>
      </trkpt>
      <trkpt lat="45.98292" lon="4.85796">
        <ele>275</ele>
        <time>2018-04-05T09:30:00Z</time>
      </trkpt>
      <trkpt lat="45.98295" lon="4.85803">
        <ele>275</ele>
        <time>2018-04-05T09:30:01Z</time>
      </trkpt>
      <trkpt lat="45.98298" lon="4.85809">
        <ele>275</ele>
        <time>2018-04-05T09:30:02Z</time>
      </trkpt>
      <trkpt lat="45.983" lon="4.85818">
        <ele>275</ele>
        <time>2018-04-05T09:30:03Z</time>
      </trkpt>
      <trkpt lat="45.98303" lon="4.85826">
        <ele>275</ele>
        <time>2018-04-05T09:30:04Z</time>
      </trkpt>
      <trkpt lat="45.98306" lon="4.85831">
        <ele>275</ele>
        <time>2018-04-05T09:30:05Z</time>
      </trkpt>
      <trkpt lat="45.98308" lon="4.85838">
        <ele>276</ele>
        <time>2018-04-05T09:30:06Z</time>
      </trkpt>
      <trkpt lat="45.98311" lon="4.85844">
        <ele>276</ele>
        <time>2018-04-05T09:30:07Z</time>
      </trkpt>
      <trkpt lat="45.98314" lon="4.85851">
        <ele>276</ele>
        <time>2018-04-05T09:30:08Z</time>
      </trkpt>
      <trkpt lat="45.98317" lon="4.85858">
        <ele>276</ele>
        <time>2018-04-05T09:30:09Z</time>
      </trkpt>
      <trkpt lat="45.98319" lon="4.85864">
        <ele>276</ele>
        <time>2018-04-05T09:30:10Z</time>
      </trkpt>
      <trkpt lat="45.98321" lon="4.85871">
        <ele>276</ele>
        <time>2018-04-05T09:30:11Z</time>
      </trkpt>
      <trkpt lat="45.98324" lon="4.85879">
        <ele>276</ele>
        <time>2018-04-05T09:30:12Z</time>
      </trkpt>
      <trkpt lat="45.98327" lon="4.85886">
        <ele>276</ele>
        <time>2018-04-05T09:30:13Z</time>
      </trkpt>
      <trkpt lat="45.9833" lon="4.85896">
        <ele>276</ele>
        <time>2018-04-05T09:30:14Z</time>
      </trkpt>
      <trkpt lat="45.98333" lon="4.85904">
        <ele>276</ele>
        <time>2018-04-05T09:30:15Z</time>
      </trkpt>
      <trkpt lat="45.98336" lon="4.85913">
        <ele>276</ele>
        <time>2018-04-05T09:30:16Z</time>
      </trkpt>
      <trkpt lat="45.9834" lon="4.85919">
        <ele>276</ele>
        <time>2018-04-05T09:30:17Z</time>
      </trkpt>
      <trkpt lat="45.98343" lon="4.85927">
        <ele>276</ele>
        <time>2018-04-05T09:30:18Z</time>
      </trkpt>
      <trkpt lat="45.98344" lon="4.85933">
        <ele>276</ele>
        <time>2018-04-05T09:30:19Z</time>
      </trkpt>
      <trkpt lat="45.98347" lon="4.85938">
        <ele>276</ele>
        <time>2018-04-05T09:30:20Z</time>
      </trkpt>
      <trkpt lat="45.98352" lon="4.85946">
        <ele>276</ele>
        <time>2018-04-05T09:30:21Z</time>
      </trkpt>
      <trkpt lat="45.98355" lon="4.85952">
        <ele>276</ele>
        <time>2018-04-05T09:30:22Z</time>
      </trkpt>
      <trkpt lat="45.98357" lon="4.85959">
        <ele>276</ele>
        <time>2018-04-05T09:30:23Z</time>
      </trkpt>
      <trkpt lat="45.98359" lon="4.85965">
        <ele>276</ele>
        <time>2018-04-05T09:30:24Z</time>
      </trkpt>
      <trkpt lat="45.98362" lon="4.85972">
        <ele>276</ele>
        <time>2018-04-05T09:30:25Z</time>
      </trkpt>
      <trkpt lat="45.98364" lon="4.85979">
        <ele>276</ele>
        <time>2018-04-05T09:30:26Z</time>
      </trkpt>
      <trkpt lat="45.98367" lon="4.85985">
        <ele>276</ele>
        <time>2018-04-05T09:30:27Z</time>
      </trkpt>
      <trkpt lat="45.98369" lon="4.85992">
        <ele>277</ele>
        <time>2018-04-05T09:30:28Z</time>
      </trkpt>
      <trkpt lat="45.98372" lon="4.85999">
        <ele>277</ele>
        <time>2018-04-05T09:30:29Z</time>
      </trkpt>
      <trkpt lat="45.98375" lon="4.86006">
        <ele>277</ele>
        <time>2018-04-05T09:30:30Z</time>
      </trkpt>
      <trkpt lat="45.98377" lon="4.86012">
        <ele>277</ele>
        <time>2018-04-05T09:30:31Z</time>
      </trkpt>
      <trkpt lat="45.98379" lon="4.86018">
        <ele>277</ele>
        <time>2018-04-05T09:30:32Z</time>
      </trkpt>
      <trkpt lat="45.98382" lon="4.86025">
        <ele>277</ele>
        <time>2018-04-05T09:30:33Z</time>
      </trkpt>
      <trkpt lat="45.98385" lon="4.8603">
        <ele>277</ele>
        <time>2018-04-05T09:30:34Z</time>
      </trkpt>
      <trkpt lat="45.98387" lon="4.86037">
        <ele>277</ele>
        <time>2018-04-05T09:30:35Z</time>
      </trkpt>
      <trkpt lat="45.9839" lon="4.86043">
        <ele>277</ele>
        <time>2018-04-05T09:30:36Z</time>
      </trkpt>
      <trkpt lat="45.98391" lon="4.8605">
        <ele>277</ele>
        <time>2018-04-05T09:30:37Z</time>
      </trkpt>
      <trkpt lat="45.98393" lon="4.86056">
        <ele>277</ele>
        <time>2018-04-05T09:30:38Z</time>
      </trkpt>
      <trkpt lat="45.98395" lon="4.86064">
        <ele>277</ele>
        <time>2018-04-05T09:30:39Z</time>
      </trkpt>
      <trkpt lat="45.98397" lon="4.8607">
        <ele>277</ele>
        <time>2018-04-05T09:30:40Z</time>
      </trkpt>
      <trkpt lat="45.984" lon="4.86075">
        <ele>277</ele>
        <time>2018-04-05T09:30:41Z</time>
      </trkpt>
      <trkpt lat="45.98403" lon="4.86082">
        <ele>277</ele>
        <time>2018-04-05T09:30:42Z</time>
      </trkpt>
      <trkpt lat="45.98405" lon="4.86094">
        <ele>277</ele>
        <time>2018-04-05T09:30:44Z</time>
      </trkpt>
      <trkpt lat="45.98406" lon="4.86099">
        <ele>277</ele>
        <time>2018-04-05T09:30:45Z</time>
      </trkpt>
      <trkpt lat="45.98406" lon="4.86107">
        <ele>277</ele>
        <time>2018-04-05T09:30:47Z</time>
      </trkpt>
      <trkpt lat="45.98408" lon="4.86112">
        <ele>277</ele>
        <time>2018-04-05T09:30:48Z</time>
      </trkpt>
      <trkpt lat="45.9841" lon="4.86125">
        <ele>277</ele>
        <time>2018-04-05T09:30:52Z</time>
      </trkpt>
      <trkpt lat="45.98411" lon="4.86129">
        <ele>276</ele>
        <time>2018-04-05T09:30:53Z</time>
      </trkpt>
      <trkpt lat="45.98413" lon="4.86141">
        <ele>276</ele>
        <time>2018-04-05T09:30:56Z</time>
      </trkpt>
      <trkpt lat="45.98413" lon="4.86146">
        <ele>276</ele>
        <time>2018-04-05T09:30:57Z</time>
      </trkpt>
      <trkpt lat="45.98414" lon="4.86155">
        <ele>276</ele>
        <time>2018-04-05T09:30:59Z</time>
      </trkpt>
      <trkpt lat="45.98415" lon="4.86169">
        <ele>276</ele>
        <time>2018-04-05T09:31:00Z</time>
      </trkpt>
      <trkpt lat="45.98416" lon="4.8618">
        <ele>276</ele>
        <time>2018-04-05T09:31:02Z</time>
      </trkpt>
      <trkpt lat="45.98416" lon="4.86186">
        <ele>276</ele>
        <time>2018-04-05T09:31:03Z</time>
      </trkpt>
      <trkpt lat="45.98419" lon="4.86197">
        <ele>275</ele>
        <time>2018-04-05T09:31:05Z</time>
      </trkpt>
      <trkpt lat="45.9842" lon="4.86202">
        <ele>275</ele>
        <time>2018-04-05T09:31:06Z</time>
      </trkpt>
      <trkpt lat="45.98423" lon="4.86214">
        <ele>275</ele>
        <time>2018-04-05T09:31:08Z</time>
      </trkpt>
      <trkpt lat="45.98424" lon="4.8622">
        <ele>275</ele>
        <time>2018-04-05T09:31:09Z</time>
      </trkpt>
      <trkpt lat="45.98425" lon="4.86226">
        <ele>275</ele>
        <time>2018-04-05T09:31:10Z</time>
      </trkpt>
      <trkpt lat="45.98426" lon="4.86234">
        <ele>275</ele>
        <time>2018-04-05T09:31:11Z</time>
      </trkpt>
      <trkpt lat="45.98427" lon="4.86241">
        <ele>275</ele>
        <time>2018-04-05T09:31:12Z</time>
      </trkpt>
      <trkpt lat="45.98429" lon="4.86249">
        <ele>275</ele>
        <time>2018-04-05T09:31:13Z</time>
      </trkpt>
      <trkpt lat="45.9843" lon="4.86258">
        <ele>275</ele>
        <time>2018-04-05T09:31:14Z</time>
      </trkpt>
      <trkpt lat="45.98431" lon="4.86267">
        <ele>275</ele>
        <time>2018-04-05T09:31:15Z</time>
      </trkpt>
      <trkpt lat="45.98433" lon="4.86277">
        <ele>276</ele>
        <time>2018-04-05T09:31:16Z</time>
      </trkpt>
      <trkpt lat="45.98435" lon="4.86288">
        <ele>276</ele>
        <time>2018-04-05T09:31:17Z</time>
      </trkpt>
      <trkpt lat="45.98437" lon="4.86298">
        <ele>276</ele>
        <time>2018-04-05T09:31:18Z</time>
      </trkpt>
      <trkpt lat="45.98439" lon="4.86308">
        <ele>276</ele>
        <time>2018-04-05T09:31:19Z</time>
      </trkpt>
      <trkpt lat="45.98441" lon="4.86318">
        <ele>276</ele>
        <time>2018-04-05T09:31:20Z</time>
      </trkpt>
      <trkpt lat="45.98443" lon="4.86328">
        <ele>276</ele>
        <time>2018-04-05T09:31:21Z</time>
      </trkpt>
      <trkpt lat="45.98445" lon="4.86338">
        <ele>277</ele>
        <time>2018-04-05T09:31:22Z</time>
      </trkpt>
      <trkpt lat="45.98448" lon="4.86347">
        <ele>277</ele>
        <time>2018-04-05T09:31:23Z</time>
      </trkpt>
      <trkpt lat="45.9845" lon="4.86356">
        <ele>277</ele>
        <time>2018-04-05T09:31:24Z</time>
      </trkpt>
      <trkpt lat="45.98453" lon="4.86366">
        <ele>277</ele>
        <time>2018-04-05T09:31:25Z</time>
      </trkpt>
      <trkpt lat="45.98456" lon="4.86374">
        <ele>277</ele>
        <time>2018-04-05T09:31:26Z</time>
      </trkpt>
      <trkpt lat="45.98458" lon="4.86384">
        <ele>277</ele>
        <time>2018-04-05T09:31:27Z</time>
      </trkpt>
      <trkpt lat="45.98462" lon="4.86391">
        <ele>277</ele>
        <time>2018-04-05T09:31:28Z</time>
      </trkpt>
      <trkpt lat="45.98465" lon="4.86398">
        <ele>277</ele>
        <time>2018-04-05T09:31:29Z</time>
      </trkpt>
      <trkpt lat="45.98469" lon="4.86403">
        <ele>277</ele>
        <time>2018-04-05T09:31:30Z</time>
      </trkpt>
      <trkpt lat="45.98472" lon="4.86411">
        <ele>277</ele>
        <time>2018-04-05T09:31:31Z</time>
      </trkpt>
      <trkpt lat="45.98475" lon="4.86418">
        <ele>278</ele>
        <time>2018-04-05T09:31:32Z</time>
      </trkpt>
      <trkpt lat="45.98478" lon="4.86425">
        <ele>278</ele>
        <time>2018-04-05T09:31:33Z</time>
      </trkpt>
      <trkpt lat="45.98481" lon="4.86432">
        <ele>278</ele>
        <time>2018-04-05T09:31:34Z</time>
      </trkpt>
      <trkpt lat="45.98483" lon="4.8644">
        <ele>278</ele>
        <time>2018-04-05T09:31:35Z</time>
      </trkpt>
      <trkpt lat="45.98486" lon="4.86447">
        <ele>278</ele>
        <time>2018-04-05T09:31:36Z</time>
      </trkpt>
      <trkpt lat="45.98489" lon="4.86453">
        <ele>278</ele>
        <time>2018-04-05T09:31:37Z</time>
      </trkpt>
      <trkpt lat="45.98491" lon="4.86461">
        <ele>278</ele>
        <time>2018-04-05T09:31:38Z</time>
      </trkpt>
      <trkpt lat="45.98494" lon="4.86468">
        <ele>279</ele>
        <time>2018-04-05T09:31:39Z</time>
      </trkpt>
      <trkpt lat="45.98497" lon="4.86474">
        <ele>279</ele>
        <time>2018-04-05T09:31:40Z</time>
      </trkpt>
      <trkpt lat="45.985" lon="4.86482">
        <ele>279</ele>
        <time>2018-04-05T09:31:41Z</time>
      </trkpt>
      <trkpt lat="45.98502" lon="4.8649">
        <ele>279</ele>
        <time>2018-04-05T09:31:42Z</time>
      </trkpt>
      <trkpt lat="45.98506" lon="4.86498">
        <ele>279</ele>
        <time>2018-04-05T09:31:43Z</time>
      </trkpt>
      <trkpt lat="45.98511" lon="4.86505">
        <ele>279</ele>
        <time>2018-04-05T09:31:44Z</time>
      </trkpt>
      <trkpt lat="45.98515" lon="4.86513">
        <ele>279</ele>
        <time>2018-04-05T09:31:45Z</time>
      </trkpt>
      <trkpt lat="45.98519" lon="4.86521">
        <ele>279</ele>
        <time>2018-04-05T09:31:46Z</time>
      </trkpt>
      <trkpt lat="45.98523" lon="4.86528">
        <ele>279</ele>
        <time>2018-04-05T09:31:47Z</time>
      </trkpt>
      <trkpt lat="45.98526" lon="4.86535">
        <ele>279</ele>
        <time>2018-04-05T09:31:48Z</time>
      </trkpt>
      <trkpt lat="45.9853" lon="4.86542">
        <ele>279</ele>
        <time>2018-04-05T09:31:49Z</time>
      </trkpt>
      <trkpt lat="45.98534" lon="4.86548">
        <ele>279</ele>
        <time>2018-04-05T09:31:50Z</time>
      </trkpt>
      <trkpt lat="45.98537" lon="4.86555">
        <ele>279</ele>
        <time>2018-04-05T09:31:51Z</time>
      </trkpt>
      <trkpt lat="45.98538" lon="4.86563">
        <ele>279</ele>
        <time>2018-04-05T09:31:52Z</time>
      </trkpt>
      <trkpt lat="45.98541" lon="4.86571">
        <ele>279</ele>
        <time>2018-04-05T09:31:53Z</time>
      </trkpt>
      <trkpt lat="45.98544" lon="4.86579">
        <ele>278</ele>
        <time>2018-04-05T09:31:54Z</time>
      </trkpt>
      <trkpt lat="45.98546" lon="4.86587">
        <ele>278</ele>
        <time>2018-04-05T09:31:55Z</time>
      </trkpt>
      <trkpt lat="45.98549" lon="4.86595">
        <ele>278</ele>
        <time>2018-04-05T09:31:56Z</time>
      </trkpt>
      <trkpt lat="45.98551" lon="4.86603">
        <ele>278</ele>
        <time>2018-04-05T09:31:57Z</time>
      </trkpt>
      <trkpt lat="45.98553" lon="4.86611">
        <ele>278</ele>
        <time>2018-04-05T09:31:58Z</time>
      </trkpt>
      <trkpt lat="45.98555" lon="4.86619">
        <ele>278</ele>
        <time>2018-04-05T09:31:59Z</time>
      </trkpt>
      <trkpt lat="45.98556" lon="4.86627">
        <ele>278</ele>
        <time>2018-04-05T09:32:00Z</time>
      </trkpt>
      <trkpt lat="45.98558" lon="4.86635">
        <ele>278</ele>
        <time>2018-04-05T09:32:01Z</time>
      </trkpt>
      <trkpt lat="45.98559" lon="4.86644">
        <ele>277</ele>
        <time>2018-04-05T09:32:02Z</time>
      </trkpt>
      <trkpt lat="45.9856" lon="4.86653">
        <ele>277</ele>
        <time>2018-04-05T09:32:03Z</time>
      </trkpt>
      <trkpt lat="45.9856" lon="4.86662">
        <ele>277</ele>
        <time>2018-04-05T09:32:04Z</time>
      </trkpt>
      <trkpt lat="45.9856" lon="4.8667">
        <ele>277</ele>
        <time>2018-04-05T09:32:05Z</time>
      </trkpt>
      <trkpt lat="45.98562" lon="4.8668">
        <ele>277</ele>
        <time>2018-04-05T09:32:06Z</time>
      </trkpt>
      <trkpt lat="45.98562" lon="4.86692">
        <ele>277</ele>
        <time>2018-04-05T09:32:07Z</time>
      </trkpt>
      <trkpt lat="45.98563" lon="4.86702">
        <ele>277</ele>
        <time>2018-04-05T09:32:08Z</time>
      </trkpt>
      <trkpt lat="45.98563" lon="4.86705">
        <ele>277</ele>
        <time>2018-04-05T09:32:09Z</time>
      </trkpt>
      <trkpt lat="45.98563" lon="4.86715">
        <ele>277</ele>
        <time>2018-04-05T09:32:10Z</time>
      </trkpt>
      <trkpt lat="45.98564" lon="4.86725">
        <ele>277</ele>
        <time>2018-04-05T09:32:11Z</time>
      </trkpt>
      <trkpt lat="45.98565" lon="4.86733">
        <ele>277</ele>
        <time>2018-04-05T09:32:12Z</time>
      </trkpt>
      <trkpt lat="45.98566" lon="4.86741">
        <ele>277</ele>
        <time>2018-04-05T09:32:13Z</time>
      </trkpt>
      <trkpt lat="45.98566" lon="4.86748">
        <ele>277</ele>
        <time>2018-04-05T09:32:14Z</time>
      </trkpt>
      <trkpt lat="45.98567" lon="4.86755">
        <ele>277</ele>
        <time>2018-04-05T09:32:15Z</time>
      </trkpt>
      <trkpt lat="45.9857" lon="4.86766">
        <ele>277</ele>
        <time>2018-04-05T09:32:17Z</time>
      </trkpt>
      <trkpt lat="45.98572" lon="4.86773">
        <ele>277</ele>
        <time>2018-04-05T09:32:18Z</time>
      </trkpt>
      <trkpt lat="45.98572" lon="4.86782">
        <ele>277</ele>
        <time>2018-04-05T09:32:19Z</time>
      </trkpt>
      <trkpt lat="45.98574" lon="4.86789">
        <ele>277</ele>
        <time>2018-04-05T09:32:20Z</time>
      </trkpt>
      <trkpt lat="45.98575" lon="4.86797">
        <ele>278</ele>
        <time>2018-04-05T09:32:21Z</time>
      </trkpt>
      <trkpt lat="45.98577" lon="4.86803">
        <ele>278</ele>
        <time>2018-04-05T09:32:22Z</time>
      </trkpt>
      <trkpt lat="45.98582" lon="4.86813">
        <ele>277</ele>
        <time>2018-04-05T09:32:23Z</time>
      </trkpt>
      <trkpt lat="45.98583" lon="4.86819">
        <ele>277</ele>
        <time>2018-04-05T09:32:24Z</time>
      </trkpt>
      <trkpt lat="45.98583" lon="4.86828">
        <ele>277</ele>
        <time>2018-04-05T09:32:25Z</time>
      </trkpt>
      <trkpt lat="45.98583" lon="4.86837">
        <ele>277</ele>
        <time>2018-04-05T09:32:26Z</time>
      </trkpt>
      <trkpt lat="45.98584" lon="4.86847">
        <ele>277</ele>
        <time>2018-04-05T09:32:27Z</time>
      </trkpt>
      <trkpt lat="45.98584" lon="4.86855">
        <ele>277</ele>
        <time>2018-04-05T09:32:28Z</time>
      </trkpt>
      <trkpt lat="45.98584" lon="4.86863">
        <ele>277</ele>
        <time>2018-04-05T09:32:29Z</time>
      </trkpt>
      <trkpt lat="45.98585" lon="4.86873">
        <ele>277</ele>
        <time>2018-04-05T09:32:30Z</time>
      </trkpt>
      <trkpt lat="45.98585" lon="4.86882">
        <ele>278</ele>
        <time>2018-04-05T09:32:31Z</time>
      </trkpt>
      <trkpt lat="45.98585" lon="4.86892">
        <ele>278</ele>
        <time>2018-04-05T09:32:32Z</time>
      </trkpt>
      <trkpt lat="45.98585" lon="4.86901">
        <ele>278</ele>
        <time>2018-04-05T09:32:33Z</time>
      </trkpt>
      <trkpt lat="45.98584" lon="4.86909">
        <ele>278</ele>
        <time>2018-04-05T09:32:34Z</time>
      </trkpt>
      <trkpt lat="45.98583" lon="4.86918">
        <ele>279</ele>
        <time>2018-04-05T09:32:35Z</time>
      </trkpt>
      <trkpt lat="45.98583" lon="4.86926">
        <ele>280</ele>
        <time>2018-04-05T09:32:36Z</time>
      </trkpt>
      <trkpt lat="45.98583" lon="4.86935">
        <ele>280</ele>
        <time>2018-04-05T09:32:37Z</time>
      </trkpt>
      <trkpt lat="45.98582" lon="4.86943">
        <ele>281</ele>
        <time>2018-04-05T09:32:38Z</time>
      </trkpt>
      <trkpt lat="45.98583" lon="4.86954">
        <ele>281</ele>
        <time>2018-04-05T09:32:39Z</time>
      </trkpt>
      <trkpt lat="45.98583" lon="4.86963">
        <ele>281</ele>
        <time>2018-04-05T09:32:40Z</time>
      </trkpt>
      <trkpt lat="45.98583" lon="4.8697">
        <ele>281</ele>
        <time>2018-04-05T09:32:41Z</time>
      </trkpt>
      <trkpt lat="45.98585" lon="4.8698">
        <ele>279</ele>
        <time>2018-04-05T09:32:42Z</time>
      </trkpt>
      <trkpt lat="45.98586" lon="4.86989">
        <ele>279</ele>
        <time>2018-04-05T09:32:43Z</time>
      </trkpt>
      <trkpt lat="45.98586" lon="4.86998">
        <ele>280</ele>
        <time>2018-04-05T09:32:44Z</time>
      </trkpt>
      <trkpt lat="45.98587" lon="4.87008">
        <ele>280</ele>
        <time>2018-04-05T09:32:45Z</time>
      </trkpt>
      <trkpt lat="45.98589" lon="4.87018">
        <ele>279</ele>
        <time>2018-04-05T09:32:46Z</time>
      </trkpt>
      <trkpt lat="45.9859" lon="4.87027">
        <ele>279</ele>
        <time>2018-04-05T09:32:47Z</time>
      </trkpt>
      <trkpt lat="45.98592" lon="4.87035">
        <ele>279</ele>
        <time>2018-04-05T09:32:48Z</time>
      </trkpt>
      <trkpt lat="45.98594" lon="4.87043">
        <ele>279</ele>
        <time>2018-04-05T09:32:49Z</time>
      </trkpt>
      <trkpt lat="45.98596" lon="4.87052">
        <ele>279</ele>
        <time>2018-04-05T09:32:50Z</time>
      </trkpt>
      <trkpt lat="45.98597" lon="4.8706">
        <ele>279</ele>
        <time>2018-04-05T09:32:51Z</time>
      </trkpt>
      <trkpt lat="45.98599" lon="4.87069">
        <ele>279</ele>
        <time>2018-04-05T09:32:52Z</time>
      </trkpt>
      <trkpt lat="45.98601" lon="4.87076">
        <ele>279</ele>
        <time>2018-04-05T09:32:53Z</time>
      </trkpt>
      <trkpt lat="45.98602" lon="4.87084">
        <ele>279</ele>
        <time>2018-04-05T09:32:54Z</time>
      </trkpt>
      <trkpt lat="45.98604" lon="4.87092">
        <ele>279</ele>
        <time>2018-04-05T09:32:55Z</time>
      </trkpt>
      <trkpt lat="45.98606" lon="4.87101">
        <ele>279</ele>
        <time>2018-04-05T09:32:56Z</time>
      </trkpt>
      <trkpt lat="45.98607" lon="4.87107">
        <ele>279</ele>
        <time>2018-04-05T09:32:57Z</time>
      </trkpt>
      <trkpt lat="45.98608" lon="4.87118">
        <ele>279</ele>
        <time>2018-04-05T09:32:58Z</time>
      </trkpt>
      <trkpt lat="45.98609" lon="4.87125">
        <ele>279</ele>
        <time>2018-04-05T09:32:59Z</time>
      </trkpt>
      <trkpt lat="45.98609" lon="4.87135">
        <ele>279</ele>
        <time>2018-04-05T09:33:00Z</time>
      </trkpt>
      <trkpt lat="45.98611" lon="4.87147">
        <ele>278</ele>
        <time>2018-04-05T09:33:01Z</time>
      </trkpt>
      <trkpt lat="45.98612" lon="4.87155">
        <ele>278</ele>
        <time>2018-04-05T09:33:02Z</time>
      </trkpt>
      <trkpt lat="45.98612" lon="4.87164">
        <ele>278</ele>
        <time>2018-04-05T09:33:03Z</time>
      </trkpt>
      <trkpt lat="45.98613" lon="4.87174">
        <ele>278</ele>
        <time>2018-04-05T09:33:04Z</time>
      </trkpt>
      <trkpt lat="45.98612" lon="4.87181">
        <ele>278</ele>
        <time>2018-04-05T09:33:05Z</time>
      </trkpt>
      <trkpt lat="45.98612" lon="4.8719">
        <ele>277</ele>
        <time>2018-04-05T09:33:06Z</time>
      </trkpt>
      <trkpt lat="45.98611" lon="4.87199">
        <ele>277</ele>
        <time>2018-04-05T09:33:07Z</time>
      </trkpt>
      <trkpt lat="45.9861" lon="4.87208">
        <ele>277</ele>
        <time>2018-04-05T09:33:08Z</time>
      </trkpt>
      <trkpt lat="45.98609" lon="4.87215">
        <ele>277</ele>
        <time>2018-04-05T09:33:09Z</time>
      </trkpt>
      <trkpt lat="45.98607" lon="4.87224">
        <ele>277</ele>
        <time>2018-04-05T09:33:10Z</time>
      </trkpt>
      <trkpt lat="45.98605" lon="4.87231">
        <ele>277</ele>
        <time>2018-04-05T09:33:11Z</time>
      </trkpt>
      <trkpt lat="45.98605" lon="4.87238">
        <ele>277</ele>
        <time>2018-04-05T09:33:12Z</time>
      </trkpt>
      <trkpt lat="45.98604" lon="4.87246">
        <ele>277</ele>
        <time>2018-04-05T09:33:13Z</time>
      </trkpt>
      <trkpt lat="45.98604" lon="4.87254">
        <ele>275</ele>
        <time>2018-04-05T09:33:14Z</time>
      </trkpt>
      <trkpt lat="45.98604" lon="4.87262">
        <ele>275</ele>
        <time>2018-04-05T09:33:15Z</time>
      </trkpt>
      <trkpt lat="45.98603" lon="4.87271">
        <ele>275</ele>
        <time>2018-04-05T09:33:16Z</time>
      </trkpt>
      <trkpt lat="45.98602" lon="4.8728">
        <ele>275</ele>
        <time>2018-04-05T09:33:17Z</time>
      </trkpt>
      <trkpt lat="45.986" lon="4.87288">
        <ele>275</ele>
        <time>2018-04-05T09:33:18Z</time>
      </trkpt>
      <trkpt lat="45.98601" lon="4.87297">
        <ele>275</ele>
        <time>2018-04-05T09:33:19Z</time>
      </trkpt>
      <trkpt lat="45.98601" lon="4.87305">
        <ele>274</ele>
        <time>2018-04-05T09:33:20Z</time>
      </trkpt>
      <trkpt lat="45.98603" lon="4.87315">
        <ele>274</ele>
        <time>2018-04-05T09:33:21Z</time>
      </trkpt>
      <trkpt lat="45.98601" lon="4.87323">
        <ele>274</ele>
        <time>2018-04-05T09:33:22Z</time>
      </trkpt>
      <trkpt lat="45.98602" lon="4.87332">
        <ele>274</ele>
        <time>2018-04-05T09:33:23Z</time>
      </trkpt>
      <trkpt lat="45.98603" lon="4.8734">
        <ele>272</ele>
        <time>2018-04-05T09:33:24Z</time>
      </trkpt>
      <trkpt lat="45.98603" lon="4.8735">
        <ele>272</ele>
        <time>2018-04-05T09:33:25Z</time>
      </trkpt>
      <trkpt lat="45.98605" lon="4.87358">
        <ele>272</ele>
        <time>2018-04-05T09:33:26Z</time>
      </trkpt>
      <trkpt lat="45.98609" lon="4.87371">
        <ele>271</ele>
        <time>2018-04-05T09:33:27Z</time>
      </trkpt>
      <trkpt lat="45.9861" lon="4.87381">
        <ele>271</ele>
        <time>2018-04-05T09:33:28Z</time>
      </trkpt>
      <trkpt lat="45.98611" lon="4.87392">
        <ele>271</ele>
        <time>2018-04-05T09:33:29Z</time>
      </trkpt>
      <trkpt lat="45.98613" lon="4.87402">
        <ele>271</ele>
        <time>2018-04-05T09:33:30Z</time>
      </trkpt>
      <trkpt lat="45.98615" lon="4.87413">
        <ele>271</ele>
        <time>2018-04-05T09:33:31Z</time>
      </trkpt>
      <trkpt lat="45.98616" lon="4.87423">
        <ele>269</ele>
        <time>2018-04-05T09:33:32Z</time>
      </trkpt>
      <trkpt lat="45.98618" lon="4.87433">
        <ele>269</ele>
        <time>2018-04-05T09:33:33Z</time>
      </trkpt>
      <trkpt lat="45.9862" lon="4.87444">
        <ele>269</ele>
        <time>2018-04-05T09:33:34Z</time>
      </trkpt>
      <trkpt lat="45.98621" lon="4.87455">
        <ele>268</ele>
        <time>2018-04-05T09:33:35Z</time>
      </trkpt>
      <trkpt lat="45.98623" lon="4.87466">
        <ele>268</ele>
        <time>2018-04-05T09:33:36Z</time>
      </trkpt>
      <trkpt lat="45.98625" lon="4.87476">
        <ele>268</ele>
        <time>2018-04-05T09:33:37Z</time>
      </trkpt>
      <trkpt lat="45.98627" lon="4.87486">
        <ele>268</ele>
        <time>2018-04-05T09:33:38Z</time>
      </trkpt>
      <trkpt lat="45.98629" lon="4.87497">
        <ele>268</ele>
        <time>2018-04-05T09:33:39Z</time>
      </trkpt>
      <trkpt lat="45.98631" lon="4.87507">
        <ele>267</ele>
        <time>2018-04-05T09:33:40Z</time>
      </trkpt>
      <trkpt lat="45.98633" lon="4.87519">
        <ele>267</ele>
        <time>2018-04-05T09:33:41Z</time>
      </trkpt>
      <trkpt lat="45.98635" lon="4.87529">
        <ele>267</ele>
        <time>2018-04-05T09:33:42Z</time>
      </trkpt>
      <trkpt lat="45.98637" lon="4.8754">
        <ele>267</ele>
        <time>2018-04-05T09:33:43Z</time>
      </trkpt>
      <trkpt lat="45.98639" lon="4.8755">
        <ele>267</ele>
        <time>2018-04-05T09:33:44Z</time>
      </trkpt>
      <trkpt lat="45.98642" lon="4.8756">
        <ele>267</ele>
        <time>2018-04-05T09:33:45Z</time>
      </trkpt>
      <trkpt lat="45.98647" lon="4.87568">
        <ele>267</ele>
        <time>2018-04-05T09:33:46Z</time>
      </trkpt>
      <trkpt lat="45.98653" lon="4.87573">
        <ele>267</ele>
        <time>2018-04-05T09:33:47Z</time>
      </trkpt>
      <trkpt lat="45.98659" lon="4.87576">
        <ele>267</ele>
        <time>2018-04-05T09:33:48Z</time>
      </trkpt>
      <trkpt lat="45.98666" lon="4.87575">
        <ele>267</ele>
        <time>2018-04-05T09:33:49Z</time>
      </trkpt>
      <trkpt lat="45.98672" lon="4.87575">
        <ele>267</ele>
        <time>2018-04-05T09:33:50Z</time>
      </trkpt>
      <trkpt lat="45.98676" lon="4.87575">
        <ele>267</ele>
        <time>2018-04-05T09:33:51Z</time>
      </trkpt>
      <trkpt lat="45.98682" lon="4.87572">
        <ele>267</ele>
        <time>2018-04-05T09:33:52Z</time>
      </trkpt>
      <trkpt lat="45.98686" lon="4.87572">
        <ele>267</ele>
        <time>2018-04-05T09:33:53Z</time>
      </trkpt>
      <trkpt lat="45.98692" lon="4.87569">
        <ele>267</ele>
        <time>2018-04-05T09:33:54Z</time>
      </trkpt>
      <trkpt lat="45.98699" lon="4.87567">
        <ele>267</ele>
        <time>2018-04-05T09:33:55Z</time>
      </trkpt>
      <trkpt lat="45.98705" lon="4.87565">
        <ele>267</ele>
        <time>2018-04-05T09:33:56Z</time>
      </trkpt>
      <trkpt lat="45.98712" lon="4.87563">
        <ele>267</ele>
        <time>2018-04-05T09:33:57Z</time>
      </trkpt>
      <trkpt lat="45.98718" lon="4.87562">
        <ele>267</ele>
        <time>2018-04-05T09:33:58Z</time>
      </trkpt>
      <trkpt lat="45.98725" lon="4.87559">
        <ele>267</ele>
        <time>2018-04-05T09:33:59Z</time>
      </trkpt>
      <trkpt lat="45.9873" lon="4.87559">
        <ele>267</ele>
        <time>2018-04-05T09:34:00Z</time>
      </trkpt>
      <trkpt lat="45.98736" lon="4.8756">
        <ele>267</ele>
        <time>2018-04-05T09:34:01Z</time>
      </trkpt>
      <trkpt lat="45.98741" lon="4.87562">
        <ele>267</ele>
        <time>2018-04-05T09:34:02Z</time>
      </trkpt>
      <trkpt lat="45.98746" lon="4.87566">
        <ele>267</ele>
        <time>2018-04-05T09:34:03Z</time>
      </trkpt>
      <trkpt lat="45.98752" lon="4.87568">
        <ele>268</ele>
        <time>2018-04-05T09:34:04Z</time>
      </trkpt>
      <trkpt lat="45.98758" lon="4.8757">
        <ele>269</ele>
        <time>2018-04-05T09:34:05Z</time>
      </trkpt>
      <trkpt lat="45.98762" lon="4.87574">
        <ele>269</ele>
        <time>2018-04-05T09:34:06Z</time>
      </trkpt>
      <trkpt lat="45.98767" lon="4.87577">
        <ele>269</ele>
        <time>2018-04-05T09:34:07Z</time>
      </trkpt>
      <trkpt lat="45.9877" lon="4.87582">
        <ele>269</ele>
        <time>2018-04-05T09:34:08Z</time>
      </trkpt>
      <trkpt lat="45.98775" lon="4.87586">
        <ele>270</ele>
        <time>2018-04-05T09:34:09Z</time>
      </trkpt>
      <trkpt lat="45.98779" lon="4.8759">
        <ele>270</ele>
        <time>2018-04-05T09:34:10Z</time>
      </trkpt>
      <trkpt lat="45.98782" lon="4.87594">
        <ele>271</ele>
        <time>2018-04-05T09:34:11Z</time>
      </trkpt>
      <trkpt lat="45.98787" lon="4.87602">
        <ele>271</ele>
        <time>2018-04-05T09:34:13Z</time>
      </trkpt>
      <trkpt lat="45.98791" lon="4.87606">
        <ele>271</ele>
        <time>2018-04-05T09:34:14Z</time>
      </trkpt>
      <trkpt lat="45.98796" lon="4.87615">
        <ele>271</ele>
        <time>2018-04-05T09:34:16Z</time>
      </trkpt>
      <trkpt lat="45.98799" lon="4.8762">
        <ele>271</ele>
        <time>2018-04-05T09:34:17Z</time>
      </trkpt>
      <trkpt lat="45.98802" lon="4.87627">
        <ele>271</ele>
        <time>2018-04-05T09:34:19Z</time>
      </trkpt>
      <trkpt lat="45.98806" lon="4.87633">
        <ele>271</ele>
        <time>2018-04-05T09:34:20Z</time>
      </trkpt>
      <trkpt lat="45.9881" lon="4.87643">
        <ele>272</ele>
        <time>2018-04-05T09:34:22Z</time>
      </trkpt>
      <trkpt lat="45.98811" lon="4.87645">
        <ele>272</ele>
        <time>2018-04-05T09:34:23Z</time>
      </trkpt>
      <trkpt lat="45.98813" lon="4.87654">
        <ele>272</ele>
        <time>2018-04-05T09:34:24Z</time>
      </trkpt>
      <trkpt lat="45.98816" lon="4.87664">
        <ele>272</ele>
        <time>2018-04-05T09:34:25Z</time>
      </trkpt>
      <trkpt lat="45.98817" lon="4.8767">
        <ele>273</ele>
        <time>2018-04-05T09:34:26Z</time>
      </trkpt>
      <trkpt lat="45.98819" lon="4.87676">
        <ele>273</ele>
        <time>2018-04-05T09:34:27Z</time>
      </trkpt>
      <trkpt lat="45.98822" lon="4.87688">
        <ele>273</ele>
        <time>2018-04-05T09:34:29Z</time>
      </trkpt>
      <trkpt lat="45.98824" lon="4.87694">
        <ele>273</ele>
        <time>2018-04-05T09:34:30Z</time>
      </trkpt>
      <trkpt lat="45.98824" lon="4.877">
        <ele>273</ele>
        <time>2018-04-05T09:34:31Z</time>
      </trkpt>
      <trkpt lat="45.98826" lon="4.87707">
        <ele>273</ele>
        <time>2018-04-05T09:34:32Z</time>
      </trkpt>
      <trkpt lat="45.98827" lon="4.87714">
        <ele>274</ele>
        <time>2018-04-05T09:34:33Z</time>
      </trkpt>
      <trkpt lat="45.98828" lon="4.87721">
        <ele>274</ele>
        <time>2018-04-05T09:34:34Z</time>
      </trkpt>
      <trkpt lat="45.98829" lon="4.87728">
        <ele>274</ele>
        <time>2018-04-05T09:34:35Z</time>
      </trkpt>
      <trkpt lat="45.9883" lon="4.87734">
        <ele>273</ele>
        <time>2018-04-05T09:34:36Z</time>
      </trkpt>
      <trkpt lat="45.98832" lon="4.8774">
        <ele>273</ele>
        <time>2018-04-05T09:34:37Z</time>
      </trkpt>
      <trkpt lat="45.98833" lon="4.87746">
        <ele>273</ele>
        <time>2018-04-05T09:34:38Z</time>
      </trkpt>
      <trkpt lat="45.98837" lon="4.87757">
        <ele>273</ele>
        <time>2018-04-05T09:34:40Z</time>
      </trkpt>
      <trkpt lat="45.98837" lon="4.87763">
        <ele>273</ele>
        <time>2018-04-05T09:34:41Z</time>
      </trkpt>
      <trkpt lat="45.98839" lon="4.87769">
        <ele>273</ele>
        <time>2018-04-05T09:34:42Z</time>
      </trkpt>
      <trkpt lat="45.98841" lon="4.87775">
        <ele>273</ele>
        <time>2018-04-05T09:34:43Z</time>
      </trkpt>
      <trkpt lat="45.98842" lon="4.87782">
        <ele>273</ele>
        <time>2018-04-05T09:34:44Z</time>
      </trkpt>
      <trkpt lat="45.98844" lon="4.87788">
        <ele>273</ele>
        <time>2018-04-05T09:34:45Z</time>
      </trkpt>
      <trkpt lat="45.98847" lon="4.87795">
        <ele>273</ele>
        <time>2018-04-05T09:34:46Z</time>
      </trkpt>
      <trkpt lat="45.98849" lon="4.87802">
        <ele>273</ele>
        <time>2018-04-05T09:34:47Z</time>
      </trkpt>
      <trkpt lat="45.98853" lon="4.87814">
        <ele>273</ele>
        <time>2018-04-05T09:34:49Z</time>
      </trkpt>
      <trkpt lat="45.98855" lon="4.87821">
        <ele>273</ele>
        <time>2018-04-05T09:34:50Z</time>
      </trkpt>
      <trkpt lat="45.98857" lon="4.87827">
        <ele>273</ele>
        <time>2018-04-05T09:34:51Z</time>
      </trkpt>
      <trkpt lat="45.98859" lon="4.87833">
        <ele>273</ele>
        <time>2018-04-05T09:34:52Z</time>
      </trkpt>
      <trkpt lat="45.98862" lon="4.87839">
        <ele>273</ele>
        <time>2018-04-05T09:34:53Z</time>
      </trkpt>
      <trkpt lat="45.98865" lon="4.87844">
        <ele>273</ele>
        <time>2018-04-05T09:34:54Z</time>
      </trkpt>
      <trkpt lat="45.98868" lon="4.87851">
        <ele>273</ele>
        <time>2018-04-05T09:34:55Z</time>
      </trkpt>
      <trkpt lat="45.98871" lon="4.87856">
        <ele>273</ele>
        <time>2018-04-05T09:34:56Z</time>
      </trkpt>
      <trkpt lat="45.98874" lon="4.87862">
        <ele>273</ele>
        <time>2018-04-05T09:34:57Z</time>
      </trkpt>
      <trkpt lat="45.98876" lon="4.87867">
        <ele>272</ele>
        <time>2018-04-05T09:34:58Z</time>
      </trkpt>
      <trkpt lat="45.98881" lon="4.87874">
        <ele>272</ele>
        <time>2018-04-05T09:34:59Z</time>
      </trkpt>
      <trkpt lat="45.98884" lon="4.87878">
        <ele>272</ele>
        <time>2018-04-05T09:35:00Z</time>
      </trkpt>
      <trkpt lat="45.98888" lon="4.87885">
        <ele>272</ele>
        <time>2018-04-05T09:35:01Z</time>
      </trkpt>
      <trkpt lat="45.98892" lon="4.87889">
        <ele>272</ele>
        <time>2018-04-05T09:35:02Z</time>
      </trkpt>
      <trkpt lat="45.98898" lon="4.87897">
        <ele>272</ele>
        <time>2018-04-05T09:35:04Z</time>
      </trkpt>
      <trkpt lat="45.989" lon="4.87902">
        <ele>272</ele>
        <time>2018-04-05T09:35:05Z</time>
      </trkpt>
      <trkpt lat="45.98904" lon="4.87906">
        <ele>272</ele>
        <time>2018-04-05T09:35:06Z</time>
      </trkpt>
      <trkpt lat="45.98908" lon="4.87909">
        <ele>272</ele>
        <time>2018-04-05T09:35:07Z</time>
      </trkpt>
      <trkpt lat="45.98914" lon="4.87915">
        <ele>271</ele>
        <time>2018-04-05T09:35:09Z</time>
      </trkpt>
      <trkpt lat="45.98917" lon="4.87916">
        <ele>271</ele>
        <time>2018-04-05T09:35:10Z</time>
      </trkpt>
      <trkpt lat="45.98924" lon="4.87922">
        <ele>272</ele>
        <time>2018-04-05T09:35:12Z</time>
      </trkpt>
      <trkpt lat="45.98927" lon="4.87924">
        <ele>272</ele>
        <time>2018-04-05T09:35:13Z</time>
      </trkpt>
      <trkpt lat="45.98935" lon="4.87929">
        <ele>272</ele>
        <time>2018-04-05T09:35:15Z</time>
      </trkpt>
      <trkpt lat="45.98939" lon="4.8793">
        <ele>273</ele>
        <time>2018-04-05T09:35:16Z</time>
      </trkpt>
      <trkpt lat="45.98942" lon="4.87932">
        <ele>273</ele>
        <time>2018-04-05T09:35:18Z</time>
      </trkpt>
      <trkpt lat="45.98949" lon="4.87936">
        <ele>273</ele>
        <time>2018-04-05T09:35:19Z</time>
      </trkpt>
      <trkpt lat="45.98956" lon="4.87941">
        <ele>273</ele>
        <time>2018-04-05T09:35:23Z</time>
      </trkpt>
      <trkpt lat="45.98958" lon="4.87942">
        <ele>273</ele>
        <time>2018-04-05T09:35:24Z</time>
      </trkpt>
      <trkpt lat="45.98966" lon="4.87947">
        <ele>274</ele>
        <time>2018-04-05T09:35:27Z</time>
      </trkpt>
      <trkpt lat="45.98969" lon="4.87948">
        <ele>274</ele>
        <time>2018-04-05T09:35:28Z</time>
      </trkpt>
      <trkpt lat="45.98975" lon="4.87952">
        <ele>274</ele>
        <time>2018-04-05T09:35:30Z</time>
      </trkpt>
      <trkpt lat="45.98978" lon="4.87953">
        <ele>274</ele>
        <time>2018-04-05T09:35:31Z</time>
      </trkpt>
      <trkpt lat="45.98986" lon="4.87958">
        <ele>274</ele>
        <time>2018-04-05T09:35:34Z</time>
      </trkpt>
      <trkpt lat="45.98988" lon="4.87959">
        <ele>274</ele>
        <time>2018-04-05T09:35:35Z</time>
      </trkpt>
      <trkpt lat="45.98997" lon="4.87963">
        <ele>274</ele>
        <time>2018-04-05T09:35:38Z</time>
      </trkpt>
      <trkpt lat="45.99" lon="4.87964">
        <ele>274</ele>
        <time>2018-04-05T09:35:39Z</time>
      </trkpt>
      <trkpt lat="45.99006" lon="4.87967">
        <ele>276</ele>
        <time>2018-04-05T09:35:41Z</time>
      </trkpt>
      <trkpt lat="45.99009" lon="4.87969">
        <ele>276</ele>
        <time>2018-04-05T09:35:42Z</time>
      </trkpt>
      <trkpt lat="45.99015" lon="4.87972">
        <ele>276</ele>
        <time>2018-04-05T09:35:44Z</time>
      </trkpt>
      <trkpt lat="45.99018" lon="4.87974">
        <ele>276</ele>
        <time>2018-04-05T09:35:45Z</time>
      </trkpt>
      <trkpt lat="45.99024" lon="4.87977">
        <ele>276</ele>
        <time>2018-04-05T09:35:47Z</time>
      </trkpt>
      <trkpt lat="45.99027" lon="4.87979">
        <ele>276</ele>
        <time>2018-04-05T09:35:48Z</time>
      </trkpt>
      <trkpt lat="45.99034" lon="4.87983">
        <ele>276</ele>
        <time>2018-04-05T09:35:50Z</time>
      </trkpt>
      <trkpt lat="45.99037" lon="4.87985">
        <ele>276</ele>
        <time>2018-04-05T09:35:51Z</time>
      </trkpt>
      <trkpt lat="45.99043" lon="4.87988">
        <ele>277</ele>
        <time>2018-04-05T09:35:53Z</time>
      </trkpt>
      <trkpt lat="45.99046" lon="4.8799">
        <ele>277</ele>
        <time>2018-04-05T09:35:54Z</time>
      </trkpt>
      <trkpt lat="45.99053" lon="4.87994">
        <ele>277</ele>
        <time>2018-04-05T09:35:56Z</time>
      </trkpt>
      <trkpt lat="45.99057" lon="4.87996">
        <ele>277</ele>
        <time>2018-04-05T09:35:57Z</time>
      </trkpt>
      <trkpt lat="45.99067" lon="4.88002">
        <ele>277</ele>
        <time>2018-04-05T09:35:58Z</time>
      </trkpt>
      <trkpt lat="45.99073" lon="4.88004">
        <ele>278</ele>
        <time>2018-04-05T09:36:00Z</time>
      </trkpt>
      <trkpt lat="45.99078" lon="4.88007">
        <ele>278</ele>
        <time>2018-04-05T09:36:01Z</time>
      </trkpt>
      <trkpt lat="45.99084" lon="4.88009">
        <ele>278</ele>
        <time>2018-04-05T09:36:03Z</time>
      </trkpt>
      <trkpt lat="45.99089" lon="4.88011">
        <ele>278</ele>
        <time>2018-04-05T09:36:04Z</time>
      </trkpt>
      <trkpt lat="45.99095" lon="4.88015">
        <ele>278</ele>
        <time>2018-04-05T09:36:06Z</time>
      </trkpt>
      <trkpt lat="45.99099" lon="4.88017">
        <ele>278</ele>
        <time>2018-04-05T09:36:07Z</time>
      </trkpt>
      <trkpt lat="45.99106" lon="4.8802">
        <ele>278</ele>
        <time>2018-04-05T09:36:09Z</time>
      </trkpt>
      <trkpt lat="45.9911" lon="4.88022">
        <ele>278</ele>
        <time>2018-04-05T09:36:10Z</time>
      </trkpt>
      <trkpt lat="45.99117" lon="4.88026">
        <ele>278</ele>
        <time>2018-04-05T09:36:12Z</time>
      </trkpt>
      <trkpt lat="45.9912" lon="4.88028">
        <ele>278</ele>
        <time>2018-04-05T09:36:13Z</time>
      </trkpt>
      <trkpt lat="45.99128" lon="4.88032">
        <ele>279</ele>
        <time>2018-04-05T09:36:15Z</time>
      </trkpt>
      <trkpt lat="45.99131" lon="4.88034">
        <ele>279</ele>
        <time>2018-04-05T09:36:16Z</time>
      </trkpt>
      <trkpt lat="45.99139" lon="4.88038">
        <ele>279</ele>
        <time>2018-04-05T09:36:18Z</time>
      </trkpt>
      <trkpt lat="45.99143" lon="4.8804">
        <ele>279</ele>
        <time>2018-04-05T09:36:19Z</time>
      </trkpt>
      <trkpt lat="45.9915" lon="4.88046">
        <ele>279</ele>
        <time>2018-04-05T09:36:21Z</time>
      </trkpt>
      <trkpt lat="45.99153" lon="4.88048">
        <ele>279</ele>
        <time>2018-04-05T09:36:22Z</time>
      </trkpt>
      <trkpt lat="45.9916" lon="4.88054">
        <ele>279</ele>
        <time>2018-04-05T09:36:24Z</time>
      </trkpt>
      <trkpt lat="45.99164" lon="4.88057">
        <ele>279</ele>
        <time>2018-04-05T09:36:25Z</time>
      </trkpt>
      <trkpt lat="45.99171" lon="4.88063">
        <ele>279</ele>
        <time>2018-04-05T09:36:27Z</time>
      </trkpt>
      <trkpt lat="45.99175" lon="4.88066">
        <ele>279</ele>
        <time>2018-04-05T09:36:28Z</time>
      </trkpt>
      <trkpt lat="45.99183" lon="4.88072">
        <ele>279</ele>
        <time>2018-04-05T09:36:30Z</time>
      </trkpt>
      <trkpt lat="45.99186" lon="4.88075">
        <ele>279</ele>
        <time>2018-04-05T09:36:31Z</time>
      </trkpt>
      <trkpt lat="45.99193" lon="4.88081">
        <ele>280</ele>
        <time>2018-04-05T09:36:33Z</time>
      </trkpt>
      <trkpt lat="45.99197" lon="4.88084">
        <ele>280</ele>
        <time>2018-04-05T09:36:34Z</time>
      </trkpt>
      <trkpt lat="45.99204" lon="4.88091">
        <ele>280</ele>
        <time>2018-04-05T09:36:36Z</time>
      </trkpt>
      <trkpt lat="45.99207" lon="4.88095">
        <ele>280</ele>
        <time>2018-04-05T09:36:37Z</time>
      </trkpt>
      <trkpt lat="45.99214" lon="4.88102">
        <ele>280</ele>
        <time>2018-04-05T09:36:39Z</time>
      </trkpt>
      <trkpt lat="45.99218" lon="4.88105">
        <ele>280</ele>
        <time>2018-04-05T09:36:40Z</time>
      </trkpt>
      <trkpt lat="45.99225" lon="4.88112">
        <ele>280</ele>
        <time>2018-04-05T09:36:42Z</time>
      </trkpt>
      <trkpt lat="45.99229" lon="4.88115">
        <ele>280</ele>
        <time>2018-04-05T09:36:43Z</time>
      </trkpt>
      <trkpt lat="45.99236" lon="4.88121">
        <ele>280</ele>
        <time>2018-04-05T09:36:45Z</time>
      </trkpt>
      <trkpt lat="45.9924" lon="4.88125">
        <ele>280</ele>
        <time>2018-04-05T09:36:46Z</time>
      </trkpt>
      <trkpt lat="45.99247" lon="4.88132">
        <ele>280</ele>
        <time>2018-04-05T09:36:48Z</time>
      </trkpt>
      <trkpt lat="45.99251" lon="4.88135">
        <ele>283</ele>
        <time>2018-04-05T09:36:49Z</time>
      </trkpt>
      <trkpt lat="45.99258" lon="4.88142">
        <ele>283</ele>
        <time>2018-04-05T09:36:51Z</time>
      </trkpt>
      <trkpt lat="45.99262" lon="4.88145">
        <ele>283</ele>
        <time>2018-04-05T09:36:52Z</time>
      </trkpt>
      <trkpt lat="45.99268" lon="4.88147">
        <ele>283</ele>
        <time>2018-04-05T09:36:53Z</time>
      </trkpt>
      <trkpt lat="45.99271" lon="4.8815">
        <ele>283</ele>
        <time>2018-04-05T09:36:54Z</time>
      </trkpt>
      <trkpt lat="45.99278" lon="4.88157">
        <ele>283</ele>
        <time>2018-04-05T09:36:56Z</time>
      </trkpt>
      <trkpt lat="45.99282" lon="4.8816">
        <ele>284</ele>
        <time>2018-04-05T09:36:57Z</time>
      </trkpt>
      <trkpt lat="45.99285" lon="4.88164">
        <ele>284</ele>
        <time>2018-04-05T09:36:58Z</time>
      </trkpt>
      <trkpt lat="45.9929" lon="4.88168">
        <ele>284</ele>
        <time>2018-04-05T09:36:59Z</time>
      </trkpt>
      <trkpt lat="45.99298" lon="4.88173">
        <ele>284</ele>
        <time>2018-04-05T09:37:01Z</time>
      </trkpt>
      <trkpt lat="45.99301" lon="4.88176">
        <ele>285</ele>
        <time>2018-04-05T09:37:02Z</time>
      </trkpt>
      <trkpt lat="45.99304" lon="4.8818">
        <ele>285</ele>
        <time>2018-04-05T09:37:03Z</time>
      </trkpt>
      <trkpt lat="45.99308" lon="4.88184">
        <ele>285</ele>
        <time>2018-04-05T09:37:04Z</time>
      </trkpt>
      <trkpt lat="45.99316" lon="4.8819">
        <ele>285</ele>
        <time>2018-04-05T09:37:06Z</time>
      </trkpt>
      <trkpt lat="45.99319" lon="4.88192">
        <ele>285</ele>
        <time>2018-04-05T09:37:07Z</time>
      </trkpt>
      <trkpt lat="45.99325" lon="4.88197">
        <ele>285</ele>
        <time>2018-04-05T09:37:09Z</time>
      </trkpt>
      <trkpt lat="45.99329" lon="4.88201">
        <ele>285</ele>
        <time>2018-04-05T09:37:10Z</time>
      </trkpt>
      <trkpt lat="45.99335" lon="4.88207">
        <ele>288</ele>
        <time>2018-04-05T09:37:12Z</time>
      </trkpt>
      <trkpt lat="45.99339" lon="4.88209">
        <ele>287</ele>
        <time>2018-04-05T09:37:13Z</time>
      </trkpt>
      <trkpt lat="45.99345" lon="4.88216">
        <ele>287</ele>
        <time>2018-04-05T09:37:15Z</time>
      </trkpt>
      <trkpt lat="45.99348" lon="4.88219">
        <ele>287</ele>
        <time>2018-04-05T09:37:16Z</time>
      </trkpt>
      <trkpt lat="45.99355" lon="4.88225">
        <ele>287</ele>
        <time>2018-04-05T09:37:18Z</time>
      </trkpt>
      <trkpt lat="45.99358" lon="4.88228">
        <ele>287</ele>
        <time>2018-04-05T09:37:19Z</time>
      </trkpt>
      <trkpt lat="45.99365" lon="4.88235">
        <ele>287</ele>
        <time>2018-04-05T09:37:21Z</time>
      </trkpt>
      <trkpt lat="45.99368" lon="4.88238">
        <ele>287</ele>
        <time>2018-04-05T09:37:22Z</time>
      </trkpt>
      <trkpt lat="45.99374" lon="4.88247">
        <ele>287</ele>
        <time>2018-04-05T09:37:24Z</time>
      </trkpt>
      <trkpt lat="45.99377" lon="4.88251">
        <ele>285</ele>
        <time>2018-04-05T09:37:25Z</time>
      </trkpt>
      <trkpt lat="45.99383" lon="4.88261">
        <ele>285</ele>
        <time>2018-04-05T09:37:27Z</time>
      </trkpt>
      <trkpt lat="45.99385" lon="4.88266">
        <ele>285</ele>
        <time>2018-04-05T09:37:28Z</time>
      </trkpt>
      <trkpt lat="45.99387" lon="4.88278">
        <ele>284</ele>
        <time>2018-04-05T09:37:30Z</time>
      </trkpt>
      <trkpt lat="45.99389" lon="4.88283">
        <ele>284</ele>
        <time>2018-04-05T09:37:31Z</time>
      </trkpt>
      <trkpt lat="45.99391" lon="4.88288">
        <ele>284</ele>
        <time>2018-04-05T09:37:32Z</time>
      </trkpt>
      <trkpt lat="45.99393" lon="4.88294">
        <ele>284</ele>
        <time>2018-04-05T09:37:33Z</time>
      </trkpt>
      <trkpt lat="45.99398" lon="4.88305">
        <ele>284</ele>
        <time>2018-04-05T09:37:35Z</time>
      </trkpt>
      <trkpt lat="45.994" lon="4.88311">
        <ele>283</ele>
        <time>2018-04-05T09:37:36Z</time>
      </trkpt>
      <trkpt lat="45.99404" lon="4.88322">
        <ele>283</ele>
        <time>2018-04-05T09:37:38Z</time>
      </trkpt>
      <trkpt lat="45.99407" lon="4.88327">
        <ele>283</ele>
        <time>2018-04-05T09:37:39Z</time>
      </trkpt>
      <trkpt lat="45.99409" lon="4.88333">
        <ele>283</ele>
        <time>2018-04-05T09:37:40Z</time>
      </trkpt>
      <trkpt lat="45.99412" lon="4.88338">
        <ele>282</ele>
        <time>2018-04-05T09:37:41Z</time>
      </trkpt>
      <trkpt lat="45.99414" lon="4.88349">
        <ele>282</ele>
        <time>2018-04-05T09:37:43Z</time>
      </trkpt>
      <trkpt lat="45.99416" lon="4.88355">
        <ele>282</ele>
        <time>2018-04-05T09:37:44Z</time>
      </trkpt>
      <trkpt lat="45.99418" lon="4.88361">
        <ele>283</ele>
        <time>2018-04-05T09:37:45Z</time>
      </trkpt>
      <trkpt lat="45.9942" lon="4.88366">
        <ele>283</ele>
        <time>2018-04-05T09:37:46Z</time>
      </trkpt>
      <trkpt lat="45.99423" lon="4.88372">
        <ele>283</ele>
        <time>2018-04-05T09:37:47Z</time>
      </trkpt>
      <trkpt lat="45.99425" lon="4.88377">
        <ele>283</ele>
        <time>2018-04-05T09:37:48Z</time>
      </trkpt>
      <trkpt lat="45.99428" lon="4.88383">
        <ele>283</ele>
        <time>2018-04-05T09:37:49Z</time>
      </trkpt>
      <trkpt lat="45.99431" lon="4.88389">
        <ele>283</ele>
        <time>2018-04-05T09:37:50Z</time>
      </trkpt>
      <trkpt lat="45.99433" lon="4.88394">
        <ele>283</ele>
        <time>2018-04-05T09:37:51Z</time>
      </trkpt>
      <trkpt lat="45.99435" lon="4.884">
        <ele>283</ele>
        <time>2018-04-05T09:37:52Z</time>
      </trkpt>
      <trkpt lat="45.99438" lon="4.88405">
        <ele>283</ele>
        <time>2018-04-05T09:37:53Z</time>
      </trkpt>
      <trkpt lat="45.99442" lon="4.8841">
        <ele>283</ele>
        <time>2018-04-05T09:37:54Z</time>
      </trkpt>
      <trkpt lat="45.99446" lon="4.88413">
        <ele>283</ele>
        <time>2018-04-05T09:37:55Z</time>
      </trkpt>
      <trkpt lat="45.99449" lon="4.88417">
        <ele>283</ele>
        <time>2018-04-05T09:37:56Z</time>
      </trkpt>
      <trkpt lat="45.99457" lon="4.88423">
        <ele>283</ele>
        <time>2018-04-05T09:37:58Z</time>
      </trkpt>
      <trkpt lat="45.99461" lon="4.88425">
        <ele>284</ele>
        <time>2018-04-05T09:37:59Z</time>
      </trkpt>
      <trkpt lat="45.99465" lon="4.88428">
        <ele>284</ele>
        <time>2018-04-05T09:38:00Z</time>
      </trkpt>
      <trkpt lat="45.99469" lon="4.88433">
        <ele>284</ele>
        <time>2018-04-05T09:38:01Z</time>
      </trkpt>
      <trkpt lat="45.99473" lon="4.88438">
        <ele>284</ele>
        <time>2018-04-05T09:38:02Z</time>
      </trkpt>
      <trkpt lat="45.99477" lon="4.88442">
        <ele>284</ele>
        <time>2018-04-05T09:38:03Z</time>
      </trkpt>
      <trkpt lat="45.9948" lon="4.88446">
        <ele>284</ele>
        <time>2018-04-05T09:38:04Z</time>
      </trkpt>
      <trkpt lat="45.99483" lon="4.88451">
        <ele>284</ele>
        <time>2018-04-05T09:38:05Z</time>
      </trkpt>
      <trkpt lat="45.99486" lon="4.88456">
        <ele>284</ele>
        <time>2018-04-05T09:38:06Z</time>
      </trkpt>
      <trkpt lat="45.99489" lon="4.88462">
        <ele>284</ele>
        <time>2018-04-05T09:38:07Z</time>
      </trkpt>
      <trkpt lat="45.99492" lon="4.88467">
        <ele>284</ele>
        <time>2018-04-05T09:38:08Z</time>
      </trkpt>
      <trkpt lat="45.99495" lon="4.88473">
        <ele>284</ele>
        <time>2018-04-05T09:38:09Z</time>
      </trkpt>
      <trkpt lat="45.99498" lon="4.88479">
        <ele>284</ele>
        <time>2018-04-05T09:38:10Z</time>
      </trkpt>
      <trkpt lat="45.99501" lon="4.88484">
        <ele>284</ele>
        <time>2018-04-05T09:38:11Z</time>
      </trkpt>
      <trkpt lat="45.99504" lon="4.8849">
        <ele>284</ele>
        <time>2018-04-05T09:38:12Z</time>
      </trkpt>
      <trkpt lat="45.99507" lon="4.88496">
        <ele>284</ele>
        <time>2018-04-05T09:38:13Z</time>
      </trkpt>
      <trkpt lat="45.99509" lon="4.88501">
        <ele>284</ele>
        <time>2018-04-05T09:38:14Z</time>
      </trkpt>
      <trkpt lat="45.99512" lon="4.88507">
        <ele>285</ele>
        <time>2018-04-05T09:38:15Z</time>
      </trkpt>
      <trkpt lat="45.99516" lon="4.88513">
        <ele>285</ele>
        <time>2018-04-05T09:38:16Z</time>
      </trkpt>
      <trkpt lat="45.99519" lon="4.88519">
        <ele>285</ele>
        <time>2018-04-05T09:38:17Z</time>
      </trkpt>
      <trkpt lat="45.99522" lon="4.88525">
        <ele>285</ele>
        <time>2018-04-05T09:38:18Z</time>
      </trkpt>
      <trkpt lat="45.99526" lon="4.88531">
        <ele>285</ele>
        <time>2018-04-05T09:38:19Z</time>
      </trkpt>
      <trkpt lat="45.99528" lon="4.88537">
        <ele>285</ele>
        <time>2018-04-05T09:38:20Z</time>
      </trkpt>
      <trkpt lat="45.99531" lon="4.88543">
        <ele>285</ele>
        <time>2018-04-05T09:38:21Z</time>
      </trkpt>
      <trkpt lat="45.99535" lon="4.8855">
        <ele>285</ele>
        <time>2018-04-05T09:38:22Z</time>
      </trkpt>
      <trkpt lat="45.99537" lon="4.88557">
        <ele>285</ele>
        <time>2018-04-05T09:38:23Z</time>
      </trkpt>
      <trkpt lat="45.9954" lon="4.88564">
        <ele>285</ele>
        <time>2018-04-05T09:38:24Z</time>
      </trkpt>
      <trkpt lat="45.99542" lon="4.88571">
        <ele>285</ele>
        <time>2018-04-05T09:38:25Z</time>
      </trkpt>
      <trkpt lat="45.99544" lon="4.88578">
        <ele>286</ele>
        <time>2018-04-05T09:38:26Z</time>
      </trkpt>
      <trkpt lat="45.99545" lon="4.88584">
        <ele>286</ele>
        <time>2018-04-05T09:38:27Z</time>
      </trkpt>
      <trkpt lat="45.99547" lon="4.88591">
        <ele>286</ele>
        <time>2018-04-05T09:38:28Z</time>
      </trkpt>
      <trkpt lat="45.99549" lon="4.88597">
        <ele>286</ele>
        <time>2018-04-05T09:38:29Z</time>
      </trkpt>
      <trkpt lat="45.9955" lon="4.88605">
        <ele>286</ele>
        <time>2018-04-05T09:38:30Z</time>
      </trkpt>
      <trkpt lat="45.99551" lon="4.88612">
        <ele>286</ele>
        <time>2018-04-05T09:38:31Z</time>
      </trkpt>
      <trkpt lat="45.99552" lon="4.8862">
        <ele>286</ele>
        <time>2018-04-05T09:38:32Z</time>
      </trkpt>
      <trkpt lat="45.99552" lon="4.88628">
        <ele>286</ele>
        <time>2018-04-05T09:38:33Z</time>
      </trkpt>
      <trkpt lat="45.99553" lon="4.88636">
        <ele>286</ele>
        <time>2018-04-05T09:38:34Z</time>
      </trkpt>
      <trkpt lat="45.99553" lon="4.88643">
        <ele>286</ele>
        <time>2018-04-05T09:38:35Z</time>
      </trkpt>
      <trkpt lat="45.99554" lon="4.8865">
        <ele>286</ele>
        <time>2018-04-05T09:38:36Z</time>
      </trkpt>
      <trkpt lat="45.99554" lon="4.88657">
        <ele>286</ele>
        <time>2018-04-05T09:38:37Z</time>
      </trkpt>
      <trkpt lat="45.99555" lon="4.88665">
        <ele>286</ele>
        <time>2018-04-05T09:38:38Z</time>
      </trkpt>
      <trkpt lat="45.99555" lon="4.88671">
        <ele>286</ele>
        <time>2018-04-05T09:38:39Z</time>
      </trkpt>
      <trkpt lat="45.99556" lon="4.88679">
        <ele>286</ele>
        <time>2018-04-05T09:38:40Z</time>
      </trkpt>
      <trkpt lat="45.99557" lon="4.88686">
        <ele>286</ele>
        <time>2018-04-05T09:38:41Z</time>
      </trkpt>
      <trkpt lat="45.99557" lon="4.88694">
        <ele>286</ele>
        <time>2018-04-05T09:38:42Z</time>
      </trkpt>
      <trkpt lat="45.99558" lon="4.88701">
        <ele>286</ele>
        <time>2018-04-05T09:38:43Z</time>
      </trkpt>
      <trkpt lat="45.99558" lon="4.88709">
        <ele>286</ele>
        <time>2018-04-05T09:38:44Z</time>
      </trkpt>
      <trkpt lat="45.9956" lon="4.88715">
        <ele>286</ele>
        <time>2018-04-05T09:38:45Z</time>
      </trkpt>
      <trkpt lat="45.9956" lon="4.88722">
        <ele>286</ele>
        <time>2018-04-05T09:38:46Z</time>
      </trkpt>
      <trkpt lat="45.99561" lon="4.8873">
        <ele>286</ele>
        <time>2018-04-05T09:38:47Z</time>
      </trkpt>
      <trkpt lat="45.99562" lon="4.88738">
        <ele>287</ele>
        <time>2018-04-05T09:38:48Z</time>
      </trkpt>
      <trkpt lat="45.99562" lon="4.88745">
        <ele>287</ele>
        <time>2018-04-05T09:38:49Z</time>
      </trkpt>
      <trkpt lat="45.99563" lon="4.88752">
        <ele>287</ele>
        <time>2018-04-05T09:38:50Z</time>
      </trkpt>
      <trkpt lat="45.99563" lon="4.8876">
        <ele>287</ele>
        <time>2018-04-05T09:38:51Z</time>
      </trkpt>
      <trkpt lat="45.99564" lon="4.88768">
        <ele>287</ele>
        <time>2018-04-05T09:38:52Z</time>
      </trkpt>
      <trkpt lat="45.99564" lon="4.88776">
        <ele>287</ele>
        <time>2018-04-05T09:38:53Z</time>
      </trkpt>
      <trkpt lat="45.99565" lon="4.88784">
        <ele>287</ele>
        <time>2018-04-05T09:38:54Z</time>
      </trkpt>
      <trkpt lat="45.99566" lon="4.88792">
        <ele>287</ele>
        <time>2018-04-05T09:38:55Z</time>
      </trkpt>
      <trkpt lat="45.99566" lon="4.888">
        <ele>287</ele>
        <time>2018-04-05T09:38:56Z</time>
      </trkpt>
      <trkpt lat="45.99567" lon="4.88807">
        <ele>287</ele>
        <time>2018-04-05T09:38:57Z</time>
      </trkpt>
      <trkpt lat="45.99568" lon="4.88815">
        <ele>287</ele>
        <time>2018-04-05T09:38:58Z</time>
      </trkpt>
      <trkpt lat="45.99569" lon="4.88823">
        <ele>287</ele>
        <time>2018-04-05T09:38:59Z</time>
      </trkpt>
      <trkpt lat="45.9957" lon="4.8883">
        <ele>287</ele>
        <time>2018-04-05T09:39:00Z</time>
      </trkpt>
      <trkpt lat="45.9957" lon="4.88838">
        <ele>287</ele>
        <time>2018-04-05T09:39:01Z</time>
      </trkpt>
      <trkpt lat="45.99571" lon="4.88845">
        <ele>287</ele>
        <time>2018-04-05T09:39:02Z</time>
      </trkpt>
      <trkpt lat="45.99572" lon="4.88852">
        <ele>287</ele>
        <time>2018-04-05T09:39:03Z</time>
      </trkpt>
      <trkpt lat="45.99572" lon="4.88859">
        <ele>287</ele>
        <time>2018-04-05T09:39:04Z</time>
      </trkpt>
      <trkpt lat="45.99572" lon="4.88867">
        <ele>287</ele>
        <time>2018-04-05T09:39:05Z</time>
      </trkpt>
      <trkpt lat="45.99573" lon="4.88875">
        <ele>287</ele>
        <time>2018-04-05T09:39:06Z</time>
      </trkpt>
      <trkpt lat="45.99573" lon="4.88883">
        <ele>287</ele>
        <time>2018-04-05T09:39:07Z</time>
      </trkpt>
      <trkpt lat="45.99575" lon="4.8889">
        <ele>287</ele>
        <time>2018-04-05T09:39:08Z</time>
      </trkpt>
      <trkpt lat="45.99577" lon="4.88895">
        <ele>287</ele>
        <time>2018-04-05T09:39:09Z</time>
      </trkpt>
      <trkpt lat="45.99578" lon="4.88903">
        <ele>287</ele>
        <time>2018-04-05T09:39:10Z</time>
      </trkpt>
      <trkpt lat="45.99578" lon="4.88911">
        <ele>287</ele>
        <time>2018-04-05T09:39:11Z</time>
      </trkpt>
      <trkpt lat="45.99579" lon="4.88919">
        <ele>287</ele>
        <time>2018-04-05T09:39:12Z</time>
      </trkpt>
      <trkpt lat="45.99579" lon="4.88926">
        <ele>287</ele>
        <time>2018-04-05T09:39:13Z</time>
      </trkpt>
      <trkpt lat="45.9958" lon="4.88933">
        <ele>287</ele>
        <time>2018-04-05T09:39:14Z</time>
      </trkpt>
      <trkpt lat="45.99581" lon="4.8894">
        <ele>287</ele>
        <time>2018-04-05T09:39:15Z</time>
      </trkpt>
      <trkpt lat="45.99581" lon="4.88948">
        <ele>287</ele>
        <time>2018-04-05T09:39:16Z</time>
      </trkpt>
      <trkpt lat="45.99582" lon="4.88954">
        <ele>287</ele>
        <time>2018-04-05T09:39:17Z</time>
      </trkpt>
      <trkpt lat="45.99582" lon="4.88961">
        <ele>287</ele>
        <time>2018-04-05T09:39:18Z</time>
      </trkpt>
      <trkpt lat="45.99583" lon="4.88968">
        <ele>287</ele>
        <time>2018-04-05T09:39:19Z</time>
      </trkpt>
      <trkpt lat="45.99583" lon="4.88976">
        <ele>287</ele>
        <time>2018-04-05T09:39:20Z</time>
      </trkpt>
      <trkpt lat="45.99583" lon="4.88983">
        <ele>288</ele>
        <time>2018-04-05T09:39:21Z</time>
      </trkpt>
      <trkpt lat="45.99583" lon="4.88989">
        <ele>288</ele>
        <time>2018-04-05T09:39:22Z</time>
      </trkpt>
      <trkpt lat="45.99583" lon="4.88997">
        <ele>288</ele>
        <time>2018-04-05T09:39:23Z</time>
      </trkpt>
      <trkpt lat="45.99583" lon="4.89005">
        <ele>288</ele>
        <time>2018-04-05T09:39:24Z</time>
      </trkpt>
      <trkpt lat="45.99583" lon="4.89013">
        <ele>288</ele>
        <time>2018-04-05T09:39:25Z</time>
      </trkpt>
      <trkpt lat="45.99581" lon="4.89021">
        <ele>288</ele>
        <time>2018-04-05T09:39:26Z</time>
      </trkpt>
      <trkpt lat="45.99581" lon="4.89027">
        <ele>288</ele>
        <time>2018-04-05T09:39:27Z</time>
      </trkpt>
      <trkpt lat="45.99581" lon="4.89035">
        <ele>288</ele>
        <time>2018-04-05T09:39:28Z</time>
      </trkpt>
      <trkpt lat="45.9958" lon="4.89042">
        <ele>288</ele>
        <time>2018-04-05T09:39:29Z</time>
      </trkpt>
      <trkpt lat="45.99579" lon="4.8905">
        <ele>288</ele>
        <time>2018-04-05T09:39:30Z</time>
      </trkpt>
      <trkpt lat="45.99578" lon="4.89059">
        <ele>289</ele>
        <time>2018-04-05T09:39:31Z</time>
      </trkpt>
      <trkpt lat="45.99577" lon="4.89066">
        <ele>289</ele>
        <time>2018-04-05T09:39:32Z</time>
      </trkpt>
      <trkpt lat="45.99576" lon="4.89073">
        <ele>289</ele>
        <time>2018-04-05T09:39:33Z</time>
      </trkpt>
      <trkpt lat="45.99576" lon="4.89079">
        <ele>289</ele>
        <time>2018-04-05T09:39:34Z</time>
      </trkpt>
      <trkpt lat="45.99575" lon="4.89087">
        <ele>289</ele>
        <time>2018-04-05T09:39:35Z</time>
      </trkpt>
      <trkpt lat="45.99574" lon="4.89096">
        <ele>289</ele>
        <time>2018-04-05T09:39:36Z</time>
      </trkpt>
      <trkpt lat="45.99574" lon="4.89104">
        <ele>289</ele>
        <time>2018-04-05T09:39:37Z</time>
      </trkpt>
      <trkpt lat="45.99574" lon="4.89111">
        <ele>289</ele>
        <time>2018-04-05T09:39:38Z</time>
      </trkpt>
      <trkpt lat="45.99574" lon="4.89119">
        <ele>289</ele>
        <time>2018-04-05T09:39:39Z</time>
      </trkpt>
      <trkpt lat="45.99574" lon="4.89127">
        <ele>289</ele>
        <time>2018-04-05T09:39:40Z</time>
      </trkpt>
      <trkpt lat="45.99574" lon="4.89134">
        <ele>289</ele>
        <time>2018-04-05T09:39:41Z</time>
      </trkpt>
      <trkpt lat="45.99575" lon="4.89141">
        <ele>289</ele>
        <time>2018-04-05T09:39:42Z</time>
      </trkpt>
      <trkpt lat="45.99575" lon="4.89148">
        <ele>289</ele>
        <time>2018-04-05T09:39:43Z</time>
      </trkpt>
      <trkpt lat="45.99575" lon="4.89155">
        <ele>288</ele>
        <time>2018-04-05T09:39:44Z</time>
      </trkpt>
      <trkpt lat="45.99576" lon="4.89162">
        <ele>288</ele>
        <time>2018-04-05T09:39:45Z</time>
      </trkpt>
      <trkpt lat="45.99576" lon="4.8917">
        <ele>288</ele>
        <time>2018-04-05T09:39:46Z</time>
      </trkpt>
      <trkpt lat="45.99577" lon="4.89177">
        <ele>288</ele>
        <time>2018-04-05T09:39:47Z</time>
      </trkpt>
      <trkpt lat="45.99577" lon="4.89184">
        <ele>288</ele>
        <time>2018-04-05T09:39:48Z</time>
      </trkpt>
      <trkpt lat="45.99578" lon="4.89191">
        <ele>288</ele>
        <time>2018-04-05T09:39:49Z</time>
      </trkpt>
      <trkpt lat="45.99579" lon="4.89199">
        <ele>288</ele>
        <time>2018-04-05T09:39:50Z</time>
      </trkpt>
      <trkpt lat="45.99579" lon="4.89206">
        <ele>288</ele>
        <time>2018-04-05T09:39:51Z</time>
      </trkpt>
      <trkpt lat="45.9958" lon="4.89214">
        <ele>288</ele>
        <time>2018-04-05T09:39:52Z</time>
      </trkpt>
      <trkpt lat="45.99581" lon="4.89222">
        <ele>288</ele>
        <time>2018-04-05T09:39:53Z</time>
      </trkpt>
      <trkpt lat="45.99582" lon="4.8923">
        <ele>288</ele>
        <time>2018-04-05T09:39:54Z</time>
      </trkpt>
      <trkpt lat="45.99583" lon="4.89238">
        <ele>288</ele>
        <time>2018-04-05T09:39:55Z</time>
      </trkpt>
      <trkpt lat="45.99582" lon="4.89245">
        <ele>288</ele>
        <time>2018-04-05T09:39:56Z</time>
      </trkpt>
      <trkpt lat="45.99583" lon="4.89252">
        <ele>288</ele>
        <time>2018-04-05T09:39:57Z</time>
      </trkpt>
      <trkpt lat="45.99583" lon="4.8926">
        <ele>288</ele>
        <time>2018-04-05T09:39:58Z</time>
      </trkpt>
      <trkpt lat="45.99584" lon="4.89267">
        <ele>288</ele>
        <time>2018-04-05T09:39:59Z</time>
      </trkpt>
      <trkpt lat="45.99584" lon="4.89275">
        <ele>288</ele>
        <time>2018-04-05T09:40:00Z</time>
      </trkpt>
      <trkpt lat="45.99584" lon="4.89281">
        <ele>289</ele>
        <time>2018-04-05T09:40:01Z</time>
      </trkpt>
      <trkpt lat="45.99585" lon="4.89288">
        <ele>289</ele>
        <time>2018-04-05T09:40:02Z</time>
      </trkpt>
      <trkpt lat="45.99584" lon="4.89297">
        <ele>289</ele>
        <time>2018-04-05T09:40:03Z</time>
      </trkpt>
      <trkpt lat="45.99585" lon="4.89305">
        <ele>289</ele>
        <time>2018-04-05T09:40:04Z</time>
      </trkpt>
      <trkpt lat="45.99585" lon="4.89312">
        <ele>289</ele>
        <time>2018-04-05T09:40:05Z</time>
      </trkpt>
      <trkpt lat="45.99585" lon="4.8932">
        <ele>289</ele>
        <time>2018-04-05T09:40:06Z</time>
      </trkpt>
      <trkpt lat="45.99586" lon="4.89328">
        <ele>289</ele>
        <time>2018-04-05T09:40:07Z</time>
      </trkpt>
      <trkpt lat="45.99586" lon="4.89334">
        <ele>289</ele>
        <time>2018-04-05T09:40:08Z</time>
      </trkpt>
      <trkpt lat="45.99587" lon="4.89342">
        <ele>289</ele>
        <time>2018-04-05T09:40:09Z</time>
      </trkpt>
      <trkpt lat="45.99587" lon="4.8935">
        <ele>289</ele>
        <time>2018-04-05T09:40:10Z</time>
      </trkpt>
      <trkpt lat="45.99587" lon="4.89358">
        <ele>289</ele>
        <time>2018-04-05T09:40:11Z</time>
      </trkpt>
      <trkpt lat="45.99588" lon="4.89366">
        <ele>289</ele>
        <time>2018-04-05T09:40:12Z</time>
      </trkpt>
      <trkpt lat="45.99588" lon="4.89374">
        <ele>289</ele>
        <time>2018-04-05T09:40:13Z</time>
      </trkpt>
      <trkpt lat="45.99589" lon="4.89381">
        <ele>290</ele>
        <time>2018-04-05T09:40:14Z</time>
      </trkpt>
      <trkpt lat="45.9959" lon="4.89389">
        <ele>290</ele>
        <time>2018-04-05T09:40:15Z</time>
      </trkpt>
      <trkpt lat="45.9959" lon="4.89396">
        <ele>290</ele>
        <time>2018-04-05T09:40:16Z</time>
      </trkpt>
      <trkpt lat="45.99591" lon="4.89404">
        <ele>290</ele>
        <time>2018-04-05T09:40:17Z</time>
      </trkpt>
      <trkpt lat="45.99592" lon="4.89412">
        <ele>290</ele>
        <time>2018-04-05T09:40:18Z</time>
      </trkpt>
      <trkpt lat="45.99592" lon="4.89421">
        <ele>290</ele>
        <time>2018-04-05T09:40:19Z</time>
      </trkpt>
      <trkpt lat="45.99593" lon="4.89429">
        <ele>290</ele>
        <time>2018-04-05T09:40:20Z</time>
      </trkpt>
      <trkpt lat="45.99593" lon="4.89436">
        <ele>290</ele>
        <time>2018-04-05T09:40:21Z</time>
      </trkpt>
      <trkpt lat="45.99593" lon="4.89444">
        <ele>290</ele>
        <time>2018-04-05T09:40:22Z</time>
      </trkpt>
      <trkpt lat="45.99594" lon="4.89451">
        <ele>290</ele>
        <time>2018-04-05T09:40:23Z</time>
      </trkpt>
      <trkpt lat="45.99594" lon="4.8946">
        <ele>290</ele>
        <time>2018-04-05T09:40:24Z</time>
      </trkpt>
      <trkpt lat="45.99594" lon="4.89468">
        <ele>290</ele>
        <time>2018-04-05T09:40:25Z</time>
      </trkpt>
      <trkpt lat="45.99595" lon="4.89476">
        <ele>290</ele>
        <time>2018-04-05T09:40:26Z</time>
      </trkpt>
      <trkpt lat="45.99595" lon="4.89485">
        <ele>290</ele>
        <time>2018-04-05T09:40:27Z</time>
      </trkpt>
      <trkpt lat="45.99596" lon="4.89493">
        <ele>290</ele>
        <time>2018-04-05T09:40:28Z</time>
      </trkpt>
      <trkpt lat="45.99596" lon="4.895">
        <ele>290</ele>
        <time>2018-04-05T09:40:29Z</time>
      </trkpt>
      <trkpt lat="45.99596" lon="4.89509">
        <ele>290</ele>
        <time>2018-04-05T09:40:30Z</time>
      </trkpt>
      <trkpt lat="45.99597" lon="4.89515">
        <ele>290</ele>
        <time>2018-04-05T09:40:31Z</time>
      </trkpt>
      <trkpt lat="45.99597" lon="4.89522">
        <ele>291</ele>
        <time>2018-04-05T09:40:32Z</time>
      </trkpt>
      <trkpt lat="45.99597" lon="4.8953">
        <ele>291</ele>
        <time>2018-04-05T09:40:33Z</time>
      </trkpt>
      <trkpt lat="45.99598" lon="4.89537">
        <ele>291</ele>
        <time>2018-04-05T09:40:34Z</time>
      </trkpt>
      <trkpt lat="45.99599" lon="4.89545">
        <ele>291</ele>
        <time>2018-04-05T09:40:35Z</time>
      </trkpt>
      <trkpt lat="45.99599" lon="4.89552">
        <ele>291</ele>
        <time>2018-04-05T09:40:36Z</time>
      </trkpt>
      <trkpt lat="45.99601" lon="4.89558">
        <ele>291</ele>
        <time>2018-04-05T09:40:37Z</time>
      </trkpt>
      <trkpt lat="45.99602" lon="4.89565">
        <ele>291</ele>
        <time>2018-04-05T09:40:38Z</time>
      </trkpt>
      <trkpt lat="45.99603" lon="4.89572">
        <ele>291</ele>
        <time>2018-04-05T09:40:39Z</time>
      </trkpt>
      <trkpt lat="45.99603" lon="4.8958">
        <ele>291</ele>
        <time>2018-04-05T09:40:40Z</time>
      </trkpt>
      <trkpt lat="45.99604" lon="4.89586">
        <ele>292</ele>
        <time>2018-04-05T09:40:41Z</time>
      </trkpt>
      <trkpt lat="45.99603" lon="4.89593">
        <ele>292</ele>
        <time>2018-04-05T09:40:42Z</time>
      </trkpt>
      <trkpt lat="45.99603" lon="4.896">
        <ele>292</ele>
        <time>2018-04-05T09:40:43Z</time>
      </trkpt>
      <trkpt lat="45.99604" lon="4.89608">
        <ele>291</ele>
        <time>2018-04-05T09:40:44Z</time>
      </trkpt>
      <trkpt lat="45.99604" lon="4.89616">
        <ele>291</ele>
        <time>2018-04-05T09:40:45Z</time>
      </trkpt>
      <trkpt lat="45.99605" lon="4.89623">
        <ele>291</ele>
        <time>2018-04-05T09:40:46Z</time>
      </trkpt>
      <trkpt lat="45.99605" lon="4.89629">
        <ele>291</ele>
        <time>2018-04-05T09:40:47Z</time>
      </trkpt>
      <trkpt lat="45.99604" lon="4.89642">
        <ele>291</ele>
        <time>2018-04-05T09:40:49Z</time>
      </trkpt>
      <trkpt lat="45.99604" lon="4.89649">
        <ele>291</ele>
        <time>2018-04-05T09:40:50Z</time>
      </trkpt>
      <trkpt lat="45.99605" lon="4.89657">
        <ele>291</ele>
        <time>2018-04-05T09:40:51Z</time>
      </trkpt>
      <trkpt lat="45.99605" lon="4.89664">
        <ele>292</ele>
        <time>2018-04-05T09:40:52Z</time>
      </trkpt>
      <trkpt lat="45.99605" lon="4.8967">
        <ele>292</ele>
        <time>2018-04-05T09:40:53Z</time>
      </trkpt>
      <trkpt lat="45.99605" lon="4.89677">
        <ele>292</ele>
        <time>2018-04-05T09:40:54Z</time>
      </trkpt>
      <trkpt lat="45.99605" lon="4.89684">
        <ele>291</ele>
        <time>2018-04-05T09:40:55Z</time>
      </trkpt>
      <trkpt lat="45.99605" lon="4.8969">
        <ele>291</ele>
        <time>2018-04-05T09:40:56Z</time>
      </trkpt>
      <trkpt lat="45.99604" lon="4.89698">
        <ele>291</ele>
        <time>2018-04-05T09:40:57Z</time>
      </trkpt>
      <trkpt lat="45.99605" lon="4.89706">
        <ele>292</ele>
        <time>2018-04-05T09:40:58Z</time>
      </trkpt>
      <trkpt lat="45.99604" lon="4.89713">
        <ele>292</ele>
        <time>2018-04-05T09:40:59Z</time>
      </trkpt>
      <trkpt lat="45.99603" lon="4.89721">
        <ele>292</ele>
        <time>2018-04-05T09:41:00Z</time>
      </trkpt>
      <trkpt lat="45.99604" lon="4.89729">
        <ele>292</ele>
        <time>2018-04-05T09:41:01Z</time>
      </trkpt>
      <trkpt lat="45.99605" lon="4.89737">
        <ele>292</ele>
        <time>2018-04-05T09:41:02Z</time>
      </trkpt>
      <trkpt lat="45.99605" lon="4.8975">
        <ele>292</ele>
        <time>2018-04-05T09:41:04Z</time>
      </trkpt>
      <trkpt lat="45.99604" lon="4.89756">
        <ele>292</ele>
        <time>2018-04-05T09:41:05Z</time>
      </trkpt>
      <trkpt lat="45.99605" lon="4.89762">
        <ele>292</ele>
        <time>2018-04-05T09:41:06Z</time>
      </trkpt>
      <trkpt lat="45.99605" lon="4.89769">
        <ele>292</ele>
        <time>2018-04-05T09:41:07Z</time>
      </trkpt>
      <trkpt lat="45.99605" lon="4.89776">
        <ele>292</ele>
        <time>2018-04-05T09:41:08Z</time>
      </trkpt>
      <trkpt lat="45.99603" lon="4.89783">
        <ele>292</ele>
        <time>2018-04-05T09:41:09Z</time>
      </trkpt>
      <trkpt lat="45.99603" lon="4.89791">
        <ele>292</ele>
        <time>2018-04-05T09:41:10Z</time>
      </trkpt>
      <trkpt lat="45.99603" lon="4.89798">
        <ele>292</ele>
        <time>2018-04-05T09:41:11Z</time>
      </trkpt>
      <trkpt lat="45.99603" lon="4.89805">
        <ele>292</ele>
        <time>2018-04-05T09:41:12Z</time>
      </trkpt>
      <trkpt lat="45.99604" lon="4.89814">
        <ele>292</ele>
        <time>2018-04-05T09:41:13Z</time>
      </trkpt>
      <trkpt lat="45.99604" lon="4.89821">
        <ele>292</ele>
        <time>2018-04-05T09:41:14Z</time>
      </trkpt>
      <trkpt lat="45.99604" lon="4.89827">
        <ele>292</ele>
        <time>2018-04-05T09:41:15Z</time>
      </trkpt>
      <trkpt lat="45.99604" lon="4.89834">
        <ele>293</ele>
        <time>2018-04-05T09:41:16Z</time>
      </trkpt>
      <trkpt lat="45.99604" lon="4.89841">
        <ele>293</ele>
        <time>2018-04-05T09:41:17Z</time>
      </trkpt>
      <trkpt lat="45.99603" lon="4.89851">
        <ele>293</ele>
        <time>2018-04-05T09:41:19Z</time>
      </trkpt>
      <trkpt lat="45.99602" lon="4.89858">
        <ele>293</ele>
        <time>2018-04-05T09:41:20Z</time>
      </trkpt>
      <trkpt lat="45.99602" lon="4.89864">
        <ele>293</ele>
        <time>2018-04-05T09:41:21Z</time>
      </trkpt>
      <trkpt lat="45.99602" lon="4.89871">
        <ele>293</ele>
        <time>2018-04-05T09:41:22Z</time>
      </trkpt>
      <trkpt lat="45.99602" lon="4.89884">
        <ele>292</ele>
        <time>2018-04-05T09:41:24Z</time>
      </trkpt>
      <trkpt lat="45.99602" lon="4.89892">
        <ele>292</ele>
        <time>2018-04-05T09:41:25Z</time>
      </trkpt>
      <trkpt lat="45.99602" lon="4.89899">
        <ele>292</ele>
        <time>2018-04-05T09:41:26Z</time>
      </trkpt>
      <trkpt lat="45.99602" lon="4.89906">
        <ele>292</ele>
        <time>2018-04-05T09:41:27Z</time>
      </trkpt>
      <trkpt lat="45.99603" lon="4.89912">
        <ele>292</ele>
        <time>2018-04-05T09:41:28Z</time>
      </trkpt>
      <trkpt lat="45.99603" lon="4.89919">
        <ele>293</ele>
        <time>2018-04-05T09:41:29Z</time>
      </trkpt>
      <trkpt lat="45.99603" lon="4.89926">
        <ele>293</ele>
        <time>2018-04-05T09:41:30Z</time>
      </trkpt>
      <trkpt lat="45.99603" lon="4.89932">
        <ele>293</ele>
        <time>2018-04-05T09:41:31Z</time>
      </trkpt>
      <trkpt lat="45.99603" lon="4.89939">
        <ele>293</ele>
        <time>2018-04-05T09:41:32Z</time>
      </trkpt>
      <trkpt lat="45.99603" lon="4.89946">
        <ele>294</ele>
        <time>2018-04-05T09:41:33Z</time>
      </trkpt>
      <trkpt lat="45.99603" lon="4.89953">
        <ele>294</ele>
        <time>2018-04-05T09:41:34Z</time>
      </trkpt>
      <trkpt lat="45.99604" lon="4.8996">
        <ele>294</ele>
        <time>2018-04-05T09:41:35Z</time>
      </trkpt>
      <trkpt lat="45.99605" lon="4.89972">
        <ele>294</ele>
        <time>2018-04-05T09:41:37Z</time>
      </trkpt>
      <trkpt lat="45.99604" lon="4.89977">
        <ele>294</ele>
        <time>2018-04-05T09:41:38Z</time>
      </trkpt>
      <trkpt lat="45.99605" lon="4.89983">
        <ele>294</ele>
        <time>2018-04-05T09:41:39Z</time>
      </trkpt>
      <trkpt lat="45.99606" lon="4.8999">
        <ele>294</ele>
        <time>2018-04-05T09:41:40Z</time>
      </trkpt>
      <trkpt lat="45.99607" lon="4.90003">
        <ele>296</ele>
        <time>2018-04-05T09:41:42Z</time>
      </trkpt>
      <trkpt lat="45.99607" lon="4.90009">
        <ele>296</ele>
        <time>2018-04-05T09:41:43Z</time>
      </trkpt>
      <trkpt lat="45.99611" lon="4.9002">
        <ele>296</ele>
        <time>2018-04-05T09:41:45Z</time>
      </trkpt>
      <trkpt lat="45.99612" lon="4.90026">
        <ele>296</ele>
        <time>2018-04-05T09:41:46Z</time>
      </trkpt>
      <trkpt lat="45.99616" lon="4.90037">
        <ele>296</ele>
        <time>2018-04-05T09:41:48Z</time>
      </trkpt>
      <trkpt lat="45.99617" lon="4.90043">
        <ele>296</ele>
        <time>2018-04-05T09:41:49Z</time>
      </trkpt>
      <trkpt lat="45.99621" lon="4.90052">
        <ele>297</ele>
        <time>2018-04-05T09:41:51Z</time>
      </trkpt>
      <trkpt lat="45.99623" lon="4.90056">
        <ele>297</ele>
        <time>2018-04-05T09:41:52Z</time>
      </trkpt>
      <trkpt lat="45.99628" lon="4.90065">
        <ele>297</ele>
        <time>2018-04-05T09:41:54Z</time>
      </trkpt>
      <trkpt lat="45.99631" lon="4.9007">
        <ele>297</ele>
        <time>2018-04-05T09:41:55Z</time>
      </trkpt>
      <trkpt lat="45.99636" lon="4.90079">
        <ele>297</ele>
        <time>2018-04-05T09:41:57Z</time>
      </trkpt>
      <trkpt lat="45.99637" lon="4.90081">
        <ele>297</ele>
        <time>2018-04-05T09:41:58Z</time>
      </trkpt>
      <trkpt lat="45.9964" lon="4.90091">
        <ele>299</ele>
        <time>2018-04-05T09:42:00Z</time>
      </trkpt>
      <trkpt lat="45.99641" lon="4.90094">
        <ele>299</ele>
        <time>2018-04-05T09:42:01Z</time>
      </trkpt>
      <trkpt lat="45.99642" lon="4.90104">
        <ele>299</ele>
        <time>2018-04-05T09:42:04Z</time>
      </trkpt>
      <trkpt lat="45.99643" lon="4.90108">
        <ele>299</ele>
        <time>2018-04-05T09:42:05Z</time>
      </trkpt>
      <trkpt lat="45.99645" lon="4.90116">
        <ele>299</ele>
        <time>2018-04-05T09:42:07Z</time>
      </trkpt>
      <trkpt lat="45.99646" lon="4.90121">
        <ele>299</ele>
        <time>2018-04-05T09:42:08Z</time>
      </trkpt>
      <trkpt lat="45.9965" lon="4.90134">
        <ele>299</ele>
        <time>2018-04-05T09:42:09Z</time>
      </trkpt>
      <trkpt lat="45.99652" lon="4.90146">
        <ele>300</ele>
        <time>2018-04-05T09:42:13Z</time>
      </trkpt>
      <trkpt lat="45.99652" lon="4.9015">
        <ele>300</ele>
        <time>2018-04-05T09:42:14Z</time>
      </trkpt>
      <trkpt lat="45.99655" lon="4.9016">
        <ele>300</ele>
        <time>2018-04-05T09:42:17Z</time>
      </trkpt>
      <trkpt lat="45.99656" lon="4.90164">
        <ele>300</ele>
        <time>2018-04-05T09:42:18Z</time>
      </trkpt>
      <trkpt lat="45.99659" lon="4.90175">
        <ele>301</ele>
        <time>2018-04-05T09:42:21Z</time>
      </trkpt>
      <trkpt lat="45.9966" lon="4.90178">
        <ele>301</ele>
        <time>2018-04-05T09:42:22Z</time>
      </trkpt>
      <trkpt lat="45.99662" lon="4.90189">
        <ele>301</ele>
        <time>2018-04-05T09:42:25Z</time>
      </trkpt>
      <trkpt lat="45.99663" lon="4.90193">
        <ele>301</ele>
        <time>2018-04-05T09:42:26Z</time>
      </trkpt>
      <trkpt lat="45.99665" lon="4.90203">
        <ele>302</ele>
        <time>2018-04-05T09:42:29Z</time>
      </trkpt>
      <trkpt lat="45.99666" lon="4.90207">
        <ele>302</ele>
        <time>2018-04-05T09:42:30Z</time>
      </trkpt>
      <trkpt lat="45.99668" lon="4.90216">
        <ele>303</ele>
        <time>2018-04-05T09:42:33Z</time>
      </trkpt>
      <trkpt lat="45.99669" lon="4.90219">
        <ele>303</ele>
        <time>2018-04-05T09:42:34Z</time>
      </trkpt>
      <trkpt lat="45.99672" lon="4.90228">
        <ele>304</ele>
        <time>2018-04-05T09:42:37Z</time>
      </trkpt>
      <trkpt lat="45.99673" lon="4.90232">
        <ele>304</ele>
        <time>2018-04-05T09:42:38Z</time>
      </trkpt>
      <trkpt lat="45.99675" lon="4.90243">
        <ele>304</ele>
        <time>2018-04-05T09:42:41Z</time>
      </trkpt>
      <trkpt lat="45.99676" lon="4.90247">
        <ele>304</ele>
        <time>2018-04-05T09:42:42Z</time>
      </trkpt>
      <trkpt lat="45.99676" lon="4.9026">
        <ele>304</ele>
        <time>2018-04-05T09:42:45Z</time>
      </trkpt>
      <trkpt lat="45.99675" lon="4.90274">
        <ele>304</ele>
        <time>2018-04-05T09:42:46Z</time>
      </trkpt>
      <trkpt lat="45.99673" lon="4.90285">
        <ele>304</ele>
        <time>2018-04-05T09:42:48Z</time>
      </trkpt>
      <trkpt lat="45.99672" lon="4.9029">
        <ele>304</ele>
        <time>2018-04-05T09:42:49Z</time>
      </trkpt>
      <trkpt lat="45.9967" lon="4.90302">
        <ele>304</ele>
        <time>2018-04-05T09:42:51Z</time>
      </trkpt>
      <trkpt lat="45.9967" lon="4.90308">
        <ele>304</ele>
        <time>2018-04-05T09:42:52Z</time>
      </trkpt>
      <trkpt lat="45.99669" lon="4.9032">
        <ele>303</ele>
        <time>2018-04-05T09:42:57Z</time>
      </trkpt>
      <trkpt lat="45.99669" lon="4.90321">
        <ele>303</ele>
        <time>2018-04-05T09:42:58Z</time>
      </trkpt>
      <trkpt lat="45.99672" lon="4.90331">
        <ele>303</ele>
        <time>2018-04-05T09:43:06Z</time>
      </trkpt>
      <trkpt lat="45.99674" lon="4.90332">
        <ele>303</ele>
        <time>2018-04-05T09:43:07Z</time>
      </trkpt>
      <trkpt lat="45.99683" lon="4.90334">
        <ele>302</ele>
        <time>2018-04-05T09:43:10Z</time>
      </trkpt>
      <trkpt lat="45.99692" lon="4.90335">
        <ele>303</ele>
        <time>2018-04-05T09:43:11Z</time>
      </trkpt>
      <trkpt lat="45.99695" lon="4.90337">
        <ele>303</ele>
        <time>2018-04-05T09:43:12Z</time>
      </trkpt>
      <trkpt lat="45.99692" lon="4.90351">
        <ele>303</ele>
        <time>2018-04-05T09:43:13Z</time>
      </trkpt>
      <trkpt lat="45.99689" lon="4.90358">
        <ele>302</ele>
        <time>2018-04-05T09:43:14Z</time>
      </trkpt>
      <trkpt lat="45.99687" lon="4.90364">
        <ele>302</ele>
        <time>2018-04-05T09:43:15Z</time>
      </trkpt>
      <trkpt lat="45.99686" lon="4.90372">
        <ele>302</ele>
        <time>2018-04-05T09:43:16Z</time>
      </trkpt>
      <trkpt lat="45.99684" lon="4.9038">
        <ele>302</ele>
        <time>2018-04-05T09:43:17Z</time>
      </trkpt>
      <trkpt lat="45.99682" lon="4.9039">
        <ele>302</ele>
        <time>2018-04-05T09:43:18Z</time>
      </trkpt>
      <trkpt lat="45.9968" lon="4.904">
        <ele>302</ele>
        <time>2018-04-05T09:43:19Z</time>
      </trkpt>
      <trkpt lat="45.99676" lon="4.90408">
        <ele>301</ele>
        <time>2018-04-05T09:43:20Z</time>
      </trkpt>
      <trkpt lat="45.99674" lon="4.90417">
        <ele>301</ele>
        <time>2018-04-05T09:43:21Z</time>
      </trkpt>
      <trkpt lat="45.99672" lon="4.90428">
        <ele>300</ele>
        <time>2018-04-05T09:43:23Z</time>
      </trkpt>
      <trkpt lat="45.99669" lon="4.90434">
        <ele>300</ele>
        <time>2018-04-05T09:43:24Z</time>
      </trkpt>
      <trkpt lat="45.99665" lon="4.90438">
        <ele>300</ele>
        <time>2018-04-05T09:43:25Z</time>
      </trkpt>
      <trkpt lat="45.99661" lon="4.90441">
        <ele>300</ele>
        <time>2018-04-05T09:43:26Z</time>
      </trkpt>
      <trkpt lat="45.99656" lon="4.90443">
        <ele>300</ele>
        <time>2018-04-05T09:43:27Z</time>
      </trkpt>
      <trkpt lat="45.99651" lon="4.90445">
        <ele>300</ele>
        <time>2018-04-05T09:43:28Z</time>
      </trkpt>
      <trkpt lat="45.99646" lon="4.90446">
        <ele>300</ele>
        <time>2018-04-05T09:43:29Z</time>
      </trkpt>
      <trkpt lat="45.99641" lon="4.90448">
        <ele>300</ele>
        <time>2018-04-05T09:43:30Z</time>
      </trkpt>
      <trkpt lat="45.99637" lon="4.90449">
        <ele>300</ele>
        <time>2018-04-05T09:43:31Z</time>
      </trkpt>
      <trkpt lat="45.99632" lon="4.9045">
        <ele>300</ele>
        <time>2018-04-05T09:43:32Z</time>
      </trkpt>
      <trkpt lat="45.99627" lon="4.90451">
        <ele>300</ele>
        <time>2018-04-05T09:43:33Z</time>
      </trkpt>
      <trkpt lat="45.99622" lon="4.90451">
        <ele>300</ele>
        <time>2018-04-05T09:43:34Z</time>
      </trkpt>
      <trkpt lat="45.99616" lon="4.90453">
        <ele>300</ele>
        <time>2018-04-05T09:43:35Z</time>
      </trkpt>
      <trkpt lat="45.99611" lon="4.90452">
        <ele>300</ele>
        <time>2018-04-05T09:43:36Z</time>
      </trkpt>
      <trkpt lat="45.99606" lon="4.90453">
        <ele>300</ele>
        <time>2018-04-05T09:43:37Z</time>
      </trkpt>
      <trkpt lat="45.99601" lon="4.90453">
        <ele>300</ele>
        <time>2018-04-05T09:43:38Z</time>
      </trkpt>
      <trkpt lat="45.99593" lon="4.90456">
        <ele>300</ele>
        <time>2018-04-05T09:43:40Z</time>
      </trkpt>
      <trkpt lat="45.9959" lon="4.90457">
        <ele>300</ele>
        <time>2018-04-05T09:43:41Z</time>
      </trkpt>
      <trkpt lat="45.99584" lon="4.9046">
        <ele>300</ele>
        <time>2018-04-05T09:43:42Z</time>
      </trkpt>
      <trkpt lat="45.9958" lon="4.90463">
        <ele>299</ele>
        <time>2018-04-05T09:43:43Z</time>
      </trkpt>
      <trkpt lat="45.99577" lon="4.90468">
        <ele>299</ele>
        <time>2018-04-05T09:43:44Z</time>
      </trkpt>
      <trkpt lat="45.9957" lon="4.90473">
        <ele>299</ele>
        <time>2018-04-05T09:43:45Z</time>
      </trkpt>
      <trkpt lat="45.99565" lon="4.90478">
        <ele>299</ele>
        <time>2018-04-05T09:43:46Z</time>
      </trkpt>
      <trkpt lat="45.99562" lon="4.90484">
        <ele>299</ele>
        <time>2018-04-05T09:43:47Z</time>
      </trkpt>
      <trkpt lat="45.99557" lon="4.90489">
        <ele>299</ele>
        <time>2018-04-05T09:43:48Z</time>
      </trkpt>
      <trkpt lat="45.99552" lon="4.90494">
        <ele>299</ele>
        <time>2018-04-05T09:43:49Z</time>
      </trkpt>
      <trkpt lat="45.99548" lon="4.90499">
        <ele>299</ele>
        <time>2018-04-05T09:43:50Z</time>
      </trkpt>
      <trkpt lat="45.99543" lon="4.90504">
        <ele>299</ele>
        <time>2018-04-05T09:43:51Z</time>
      </trkpt>
      <trkpt lat="45.99539" lon="4.90509">
        <ele>299</ele>
        <time>2018-04-05T09:43:52Z</time>
      </trkpt>
      <trkpt lat="45.99535" lon="4.90513">
        <ele>299</ele>
        <time>2018-04-05T09:43:53Z</time>
      </trkpt>
      <trkpt lat="45.99531" lon="4.90518">
        <ele>299</ele>
        <time>2018-04-05T09:43:54Z</time>
      </trkpt>
      <trkpt lat="45.99528" lon="4.90521">
        <ele>299</ele>
        <time>2018-04-05T09:43:55Z</time>
      </trkpt>
      <trkpt lat="45.99524" lon="4.90526">
        <ele>299</ele>
        <time>2018-04-05T09:43:56Z</time>
      </trkpt>
      <trkpt lat="45.99521" lon="4.90531">
        <ele>299</ele>
        <time>2018-04-05T09:43:57Z</time>
      </trkpt>
      <trkpt lat="45.99517" lon="4.90535">
        <ele>299</ele>
        <time>2018-04-05T09:43:58Z</time>
      </trkpt>
      <trkpt lat="45.99514" lon="4.90539">
        <ele>299</ele>
        <time>2018-04-05T09:43:59Z</time>
      </trkpt>
      <trkpt lat="45.99507" lon="4.90546">
        <ele>299</ele>
        <time>2018-04-05T09:44:01Z</time>
      </trkpt>
      <trkpt lat="45.99504" lon="4.9055">
        <ele>299</ele>
        <time>2018-04-05T09:44:02Z</time>
      </trkpt>
      <trkpt lat="45.99497" lon="4.90558">
        <ele>299</ele>
        <time>2018-04-05T09:44:04Z</time>
      </trkpt>
      <trkpt lat="45.99494" lon="4.90563">
        <ele>299</ele>
        <time>2018-04-05T09:44:05Z</time>
      </trkpt>
      <trkpt lat="45.99488" lon="4.90571">
        <ele>299</ele>
        <time>2018-04-05T09:44:07Z</time>
      </trkpt>
      <trkpt lat="45.99485" lon="4.90575">
        <ele>299</ele>
        <time>2018-04-05T09:44:08Z</time>
      </trkpt>
      <trkpt lat="45.9948" lon="4.90581">
        <ele>299</ele>
        <time>2018-04-05T09:44:10Z</time>
      </trkpt>
      <trkpt lat="45.99476" lon="4.90586">
        <ele>298</ele>
        <time>2018-04-05T09:44:11Z</time>
      </trkpt>
      <trkpt lat="45.99469" lon="4.90594">
        <ele>298</ele>
        <time>2018-04-05T09:44:13Z</time>
      </trkpt>
      <trkpt lat="45.99465" lon="4.90597">
        <ele>298</ele>
        <time>2018-04-05T09:44:14Z</time>
      </trkpt>
      <trkpt lat="45.99461" lon="4.906">
        <ele>298</ele>
        <time>2018-04-05T09:44:15Z</time>
      </trkpt>
      <trkpt lat="45.99457" lon="4.90605">
        <ele>298</ele>
        <time>2018-04-05T09:44:16Z</time>
      </trkpt>
      <trkpt lat="45.99453" lon="4.90611">
        <ele>298</ele>
        <time>2018-04-05T09:44:17Z</time>
      </trkpt>
      <trkpt lat="45.99449" lon="4.90616">
        <ele>298</ele>
        <time>2018-04-05T09:44:18Z</time>
      </trkpt>
      <trkpt lat="45.99446" lon="4.9062">
        <ele>298</ele>
        <time>2018-04-05T09:44:19Z</time>
      </trkpt>
      <trkpt lat="45.99442" lon="4.90626">
        <ele>298</ele>
        <time>2018-04-05T09:44:20Z</time>
      </trkpt>
      <trkpt lat="45.99438" lon="4.9063">
        <ele>298</ele>
        <time>2018-04-05T09:44:21Z</time>
      </trkpt>
      <trkpt lat="45.99434" lon="4.90633">
        <ele>298</ele>
        <time>2018-04-05T09:44:22Z</time>
      </trkpt>
      <trkpt lat="45.9943" lon="4.90639">
        <ele>298</ele>
        <time>2018-04-05T09:44:23Z</time>
      </trkpt>
      <trkpt lat="45.99425" lon="4.90644">
        <ele>298</ele>
        <time>2018-04-05T09:44:24Z</time>
      </trkpt>
      <trkpt lat="45.99421" lon="4.9065">
        <ele>298</ele>
        <time>2018-04-05T09:44:25Z</time>
      </trkpt>
      <trkpt lat="45.99415" lon="4.90657">
        <ele>298</ele>
        <time>2018-04-05T09:44:26Z</time>
      </trkpt>
      <trkpt lat="45.99411" lon="4.90662">
        <ele>298</ele>
        <time>2018-04-05T09:44:27Z</time>
      </trkpt>
      <trkpt lat="45.99406" lon="4.90669">
        <ele>298</ele>
        <time>2018-04-05T09:44:28Z</time>
      </trkpt>
      <trkpt lat="45.99402" lon="4.90674">
        <ele>298</ele>
        <time>2018-04-05T09:44:29Z</time>
      </trkpt>
      <trkpt lat="45.99398" lon="4.90679">
        <ele>298</ele>
        <time>2018-04-05T09:44:30Z</time>
      </trkpt>
      <trkpt lat="45.99393" lon="4.90683">
        <ele>298</ele>
        <time>2018-04-05T09:44:31Z</time>
      </trkpt>
      <trkpt lat="45.99389" lon="4.90687">
        <ele>298</ele>
        <time>2018-04-05T09:44:32Z</time>
      </trkpt>
      <trkpt lat="45.99385" lon="4.90692">
        <ele>298</ele>
        <time>2018-04-05T09:44:33Z</time>
      </trkpt>
      <trkpt lat="45.99382" lon="4.90697">
        <ele>298</ele>
        <time>2018-04-05T09:44:34Z</time>
      </trkpt>
      <trkpt lat="45.99378" lon="4.90703">
        <ele>298</ele>
        <time>2018-04-05T09:44:35Z</time>
      </trkpt>
      <trkpt lat="45.99374" lon="4.90707">
        <ele>299</ele>
        <time>2018-04-05T09:44:36Z</time>
      </trkpt>
      <trkpt lat="45.9937" lon="4.90713">
        <ele>299</ele>
        <time>2018-04-05T09:44:37Z</time>
      </trkpt>
      <trkpt lat="45.99366" lon="4.90716">
        <ele>299</ele>
        <time>2018-04-05T09:44:38Z</time>
      </trkpt>
      <trkpt lat="45.99361" lon="4.90721">
        <ele>299</ele>
        <time>2018-04-05T09:44:39Z</time>
      </trkpt>
      <trkpt lat="45.99357" lon="4.90726">
        <ele>299</ele>
        <time>2018-04-05T09:44:40Z</time>
      </trkpt>
      <trkpt lat="45.99354" lon="4.90732">
        <ele>299</ele>
        <time>2018-04-05T09:44:41Z</time>
      </trkpt>
      <trkpt lat="45.99349" lon="4.90736">
        <ele>299</ele>
        <time>2018-04-05T09:44:42Z</time>
      </trkpt>
      <trkpt lat="45.99345" lon="4.90741">
        <ele>299</ele>
        <time>2018-04-05T09:44:43Z</time>
      </trkpt>
      <trkpt lat="45.99341" lon="4.90746">
        <ele>300</ele>
        <time>2018-04-05T09:44:44Z</time>
      </trkpt>
      <trkpt lat="45.99337" lon="4.90749">
        <ele>300</ele>
        <time>2018-04-05T09:44:45Z</time>
      </trkpt>
      <trkpt lat="45.99332" lon="4.90754">
        <ele>300</ele>
        <time>2018-04-05T09:44:46Z</time>
      </trkpt>
      <trkpt lat="45.99327" lon="4.90758">
        <ele>300</ele>
        <time>2018-04-05T09:44:47Z</time>
      </trkpt>
      <trkpt lat="45.99324" lon="4.90764">
        <ele>300</ele>
        <time>2018-04-05T09:44:48Z</time>
      </trkpt>
      <trkpt lat="45.99319" lon="4.9077">
        <ele>300</ele>
        <time>2018-04-05T09:44:49Z</time>
      </trkpt>
      <trkpt lat="45.99315" lon="4.90775">
        <ele>300</ele>
        <time>2018-04-05T09:44:50Z</time>
      </trkpt>
      <trkpt lat="45.99311" lon="4.9078">
        <ele>300</ele>
        <time>2018-04-05T09:44:51Z</time>
      </trkpt>
      <trkpt lat="45.99307" lon="4.90784">
        <ele>300</ele>
        <time>2018-04-05T09:44:52Z</time>
      </trkpt>
      <trkpt lat="45.99303" lon="4.9079">
        <ele>300</ele>
        <time>2018-04-05T09:44:53Z</time>
      </trkpt>
      <trkpt lat="45.99299" lon="4.90794">
        <ele>300</ele>
        <time>2018-04-05T09:44:54Z</time>
      </trkpt>
      <trkpt lat="45.99296" lon="4.90797">
        <ele>300</ele>
        <time>2018-04-05T09:44:55Z</time>
      </trkpt>
      <trkpt lat="45.99291" lon="4.90801">
        <ele>300</ele>
        <time>2018-04-05T09:44:56Z</time>
      </trkpt>
      <trkpt lat="45.99287" lon="4.90807">
        <ele>300</ele>
        <time>2018-04-05T09:44:57Z</time>
      </trkpt>
      <trkpt lat="45.99283" lon="4.90812">
        <ele>300</ele>
        <time>2018-04-05T09:44:58Z</time>
      </trkpt>
      <trkpt lat="45.99281" lon="4.90816">
        <ele>300</ele>
        <time>2018-04-05T09:44:59Z</time>
      </trkpt>
      <trkpt lat="45.99277" lon="4.90821">
        <ele>300</ele>
        <time>2018-04-05T09:45:00Z</time>
      </trkpt>
      <trkpt lat="45.99274" lon="4.90829">
        <ele>300</ele>
        <time>2018-04-05T09:45:01Z</time>
      </trkpt>
      <trkpt lat="45.99269" lon="4.90834">
        <ele>300</ele>
        <time>2018-04-05T09:45:02Z</time>
      </trkpt>
      <trkpt lat="45.99266" lon="4.90839">
        <ele>300</ele>
        <time>2018-04-05T09:45:03Z</time>
      </trkpt>
      <trkpt lat="45.99261" lon="4.90844">
        <ele>300</ele>
        <time>2018-04-05T09:45:04Z</time>
      </trkpt>
      <trkpt lat="45.99257" lon="4.90848">
        <ele>300</ele>
        <time>2018-04-05T09:45:05Z</time>
      </trkpt>
      <trkpt lat="45.99252" lon="4.90853">
        <ele>300</ele>
        <time>2018-04-05T09:45:06Z</time>
      </trkpt>
      <trkpt lat="45.99248" lon="4.90859">
        <ele>300</ele>
        <time>2018-04-05T09:45:07Z</time>
      </trkpt>
      <trkpt lat="45.99242" lon="4.90864">
        <ele>300</ele>
        <time>2018-04-05T09:45:08Z</time>
      </trkpt>
      <trkpt lat="45.99238" lon="4.90871">
        <ele>300</ele>
        <time>2018-04-05T09:45:09Z</time>
      </trkpt>
      <trkpt lat="45.99234" lon="4.90877">
        <ele>299</ele>
        <time>2018-04-05T09:45:10Z</time>
      </trkpt>
      <trkpt lat="45.9923" lon="4.90883">
        <ele>299</ele>
        <time>2018-04-05T09:45:11Z</time>
      </trkpt>
      <trkpt lat="45.99226" lon="4.90889">
        <ele>299</ele>
        <time>2018-04-05T09:45:12Z</time>
      </trkpt>
      <trkpt lat="45.99222" lon="4.90896">
        <ele>299</ele>
        <time>2018-04-05T09:45:13Z</time>
      </trkpt>
      <trkpt lat="45.99218" lon="4.909">
        <ele>299</ele>
        <time>2018-04-05T09:45:14Z</time>
      </trkpt>
      <trkpt lat="45.99213" lon="4.90904">
        <ele>299</ele>
        <time>2018-04-05T09:45:15Z</time>
      </trkpt>
      <trkpt lat="45.99211" lon="4.9091">
        <ele>299</ele>
        <time>2018-04-05T09:45:16Z</time>
      </trkpt>
      <trkpt lat="45.99207" lon="4.90916">
        <ele>300</ele>
        <time>2018-04-05T09:45:17Z</time>
      </trkpt>
      <trkpt lat="45.99203" lon="4.90922">
        <ele>300</ele>
        <time>2018-04-05T09:45:18Z</time>
      </trkpt>
      <trkpt lat="45.99199" lon="4.90927">
        <ele>300</ele>
        <time>2018-04-05T09:45:19Z</time>
      </trkpt>
      <trkpt lat="45.99194" lon="4.90933">
        <ele>300</ele>
        <time>2018-04-05T09:45:20Z</time>
      </trkpt>
      <trkpt lat="45.99191" lon="4.90938">
        <ele>300</ele>
        <time>2018-04-05T09:45:21Z</time>
      </trkpt>
      <trkpt lat="45.99186" lon="4.90943">
        <ele>300</ele>
        <time>2018-04-05T09:45:22Z</time>
      </trkpt>
      <trkpt lat="45.99182" lon="4.90947">
        <ele>300</ele>
        <time>2018-04-05T09:45:23Z</time>
      </trkpt>
      <trkpt lat="45.99177" lon="4.90953">
        <ele>300</ele>
        <time>2018-04-05T09:45:24Z</time>
      </trkpt>
      <trkpt lat="45.99171" lon="4.90958">
        <ele>300</ele>
        <time>2018-04-05T09:45:25Z</time>
      </trkpt>
      <trkpt lat="45.99167" lon="4.90963">
        <ele>300</ele>
        <time>2018-04-05T09:45:26Z</time>
      </trkpt>
      <trkpt lat="45.99162" lon="4.90968">
        <ele>300</ele>
        <time>2018-04-05T09:45:27Z</time>
      </trkpt>
      <trkpt lat="45.99159" lon="4.90972">
        <ele>300</ele>
        <time>2018-04-05T09:45:28Z</time>
      </trkpt>
      <trkpt lat="45.99155" lon="4.90976">
        <ele>301</ele>
        <time>2018-04-05T09:45:29Z</time>
      </trkpt>
      <trkpt lat="45.9915" lon="4.90981">
        <ele>301</ele>
        <time>2018-04-05T09:45:30Z</time>
      </trkpt>
      <trkpt lat="45.99146" lon="4.90987">
        <ele>301</ele>
        <time>2018-04-05T09:45:31Z</time>
      </trkpt>
      <trkpt lat="45.99141" lon="4.90991">
        <ele>301</ele>
        <time>2018-04-05T09:45:32Z</time>
      </trkpt>
      <trkpt lat="45.99137" lon="4.90996">
        <ele>301</ele>
        <time>2018-04-05T09:45:33Z</time>
      </trkpt>
      <trkpt lat="45.99133" lon="4.91001">
        <ele>301</ele>
        <time>2018-04-05T09:45:34Z</time>
      </trkpt>
      <trkpt lat="45.99129" lon="4.91005">
        <ele>301</ele>
        <time>2018-04-05T09:45:35Z</time>
      </trkpt>
      <trkpt lat="45.99124" lon="4.91011">
        <ele>301</ele>
        <time>2018-04-05T09:45:36Z</time>
      </trkpt>
      <trkpt lat="45.9912" lon="4.91018">
        <ele>301</ele>
        <time>2018-04-05T09:45:37Z</time>
      </trkpt>
      <trkpt lat="45.99116" lon="4.91023">
        <ele>301</ele>
        <time>2018-04-05T09:45:38Z</time>
      </trkpt>
      <trkpt lat="45.99113" lon="4.91028">
        <ele>301</ele>
        <time>2018-04-05T09:45:39Z</time>
      </trkpt>
      <trkpt lat="45.9911" lon="4.91034">
        <ele>301</ele>
        <time>2018-04-05T09:45:40Z</time>
      </trkpt>
      <trkpt lat="45.99105" lon="4.91039">
        <ele>301</ele>
        <time>2018-04-05T09:45:41Z</time>
      </trkpt>
      <trkpt lat="45.99101" lon="4.91045">
        <ele>301</ele>
        <time>2018-04-05T09:45:42Z</time>
      </trkpt>
      <trkpt lat="45.99097" lon="4.9105">
        <ele>301</ele>
        <time>2018-04-05T09:45:43Z</time>
      </trkpt>
      <trkpt lat="45.99092" lon="4.91055">
        <ele>301</ele>
        <time>2018-04-05T09:45:44Z</time>
      </trkpt>
      <trkpt lat="45.99088" lon="4.9106">
        <ele>300</ele>
        <time>2018-04-05T09:45:45Z</time>
      </trkpt>
      <trkpt lat="45.99083" lon="4.91066">
        <ele>300</ele>
        <time>2018-04-05T09:45:46Z</time>
      </trkpt>
      <trkpt lat="45.99078" lon="4.91071">
        <ele>300</ele>
        <time>2018-04-05T09:45:47Z</time>
      </trkpt>
      <trkpt lat="45.99073" lon="4.91076">
        <ele>300</ele>
        <time>2018-04-05T09:45:48Z</time>
      </trkpt>
      <trkpt lat="45.99069" lon="4.91082">
        <ele>300</ele>
        <time>2018-04-05T09:45:49Z</time>
      </trkpt>
      <trkpt lat="45.99066" lon="4.91087">
        <ele>300</ele>
        <time>2018-04-05T09:45:50Z</time>
      </trkpt>
      <trkpt lat="45.99062" lon="4.91092">
        <ele>300</ele>
        <time>2018-04-05T09:45:51Z</time>
      </trkpt>
      <trkpt lat="45.99058" lon="4.911">
        <ele>299</ele>
        <time>2018-04-05T09:45:52Z</time>
      </trkpt>
      <trkpt lat="45.99053" lon="4.91106">
        <ele>299</ele>
        <time>2018-04-05T09:45:53Z</time>
      </trkpt>
      <trkpt lat="45.99048" lon="4.91113">
        <ele>299</ele>
        <time>2018-04-05T09:45:54Z</time>
      </trkpt>
      <trkpt lat="45.99044" lon="4.9112">
        <ele>299</ele>
        <time>2018-04-05T09:45:55Z</time>
      </trkpt>
      <trkpt lat="45.9904" lon="4.91126">
        <ele>299</ele>
        <time>2018-04-05T09:45:56Z</time>
      </trkpt>
      <trkpt lat="45.99035" lon="4.91131">
        <ele>299</ele>
        <time>2018-04-05T09:45:57Z</time>
      </trkpt>
      <trkpt lat="45.99031" lon="4.91136">
        <ele>299</ele>
        <time>2018-04-05T09:45:58Z</time>
      </trkpt>
      <trkpt lat="45.99027" lon="4.91142">
        <ele>299</ele>
        <time>2018-04-05T09:45:59Z</time>
      </trkpt>
      <trkpt lat="45.99022" lon="4.91147">
        <ele>299</ele>
        <time>2018-04-05T09:46:00Z</time>
      </trkpt>
      <trkpt lat="45.99017" lon="4.91153">
        <ele>299</ele>
        <time>2018-04-05T09:46:01Z</time>
      </trkpt>
      <trkpt lat="45.99011" lon="4.91158">
        <ele>299</ele>
        <time>2018-04-05T09:46:02Z</time>
      </trkpt>
      <trkpt lat="45.99007" lon="4.91164">
        <ele>299</ele>
        <time>2018-04-05T09:46:03Z</time>
      </trkpt>
      <trkpt lat="45.99002" lon="4.91169">
        <ele>299</ele>
        <time>2018-04-05T09:46:04Z</time>
      </trkpt>
      <trkpt lat="45.98997" lon="4.91176">
        <ele>299</ele>
        <time>2018-04-05T09:46:05Z</time>
      </trkpt>
      <trkpt lat="45.98992" lon="4.91182">
        <ele>299</ele>
        <time>2018-04-05T09:46:06Z</time>
      </trkpt>
      <trkpt lat="45.98987" lon="4.91188">
        <ele>299</ele>
        <time>2018-04-05T09:46:07Z</time>
      </trkpt>
      <trkpt lat="45.98982" lon="4.91193">
        <ele>299</ele>
        <time>2018-04-05T09:46:08Z</time>
      </trkpt>
      <trkpt lat="45.98978" lon="4.91198">
        <ele>299</ele>
        <time>2018-04-05T09:46:09Z</time>
      </trkpt>
      <trkpt lat="45.98973" lon="4.91203">
        <ele>299</ele>
        <time>2018-04-05T09:46:10Z</time>
      </trkpt>
      <trkpt lat="45.98969" lon="4.91209">
        <ele>299</ele>
        <time>2018-04-05T09:46:11Z</time>
      </trkpt>
      <trkpt lat="45.98965" lon="4.91214">
        <ele>299</ele>
        <time>2018-04-05T09:46:12Z</time>
      </trkpt>
      <trkpt lat="45.98959" lon="4.91219">
        <ele>299</ele>
        <time>2018-04-05T09:46:13Z</time>
      </trkpt>
      <trkpt lat="45.98954" lon="4.91225">
        <ele>299</ele>
        <time>2018-04-05T09:46:14Z</time>
      </trkpt>
      <trkpt lat="45.98949" lon="4.91231">
        <ele>299</ele>
        <time>2018-04-05T09:46:15Z</time>
      </trkpt>
      <trkpt lat="45.98945" lon="4.91237">
        <ele>299</ele>
        <time>2018-04-05T09:46:16Z</time>
      </trkpt>
      <trkpt lat="45.98941" lon="4.91242">
        <ele>299</ele>
        <time>2018-04-05T09:46:17Z</time>
      </trkpt>
      <trkpt lat="45.98936" lon="4.91248">
        <ele>299</ele>
        <time>2018-04-05T09:46:18Z</time>
      </trkpt>
      <trkpt lat="45.98931" lon="4.91253">
        <ele>299</ele>
        <time>2018-04-05T09:46:19Z</time>
      </trkpt>
      <trkpt lat="45.98927" lon="4.91258">
        <ele>299</ele>
        <time>2018-04-05T09:46:20Z</time>
      </trkpt>
      <trkpt lat="45.98923" lon="4.91263">
        <ele>299</ele>
        <time>2018-04-05T09:46:21Z</time>
      </trkpt>
      <trkpt lat="45.98919" lon="4.91269">
        <ele>299</ele>
        <time>2018-04-05T09:46:22Z</time>
      </trkpt>
      <trkpt lat="45.98914" lon="4.91273">
        <ele>299</ele>
        <time>2018-04-05T09:46:23Z</time>
      </trkpt>
      <trkpt lat="45.98911" lon="4.91277">
        <ele>299</ele>
        <time>2018-04-05T09:46:24Z</time>
      </trkpt>
      <trkpt lat="45.98906" lon="4.91283">
        <ele>299</ele>
        <time>2018-04-05T09:46:25Z</time>
      </trkpt>
      <trkpt lat="45.98901" lon="4.91288">
        <ele>299</ele>
        <time>2018-04-05T09:46:26Z</time>
      </trkpt>
      <trkpt lat="45.98897" lon="4.91293">
        <ele>299</ele>
        <time>2018-04-05T09:46:27Z</time>
      </trkpt>
      <trkpt lat="45.98893" lon="4.91297">
        <ele>299</ele>
        <time>2018-04-05T09:46:28Z</time>
      </trkpt>
      <trkpt lat="45.98889" lon="4.91303">
        <ele>299</ele>
        <time>2018-04-05T09:46:29Z</time>
      </trkpt>
      <trkpt lat="45.98885" lon="4.91308">
        <ele>299</ele>
        <time>2018-04-05T09:46:30Z</time>
      </trkpt>
      <trkpt lat="45.98881" lon="4.91313">
        <ele>299</ele>
        <time>2018-04-05T09:46:31Z</time>
      </trkpt>
      <trkpt lat="45.98877" lon="4.91319">
        <ele>299</ele>
        <time>2018-04-05T09:46:32Z</time>
      </trkpt>
      <trkpt lat="45.98873" lon="4.91324">
        <ele>298</ele>
        <time>2018-04-05T09:46:33Z</time>
      </trkpt>
      <trkpt lat="45.98868" lon="4.91329">
        <ele>298</ele>
        <time>2018-04-05T09:46:34Z</time>
      </trkpt>
      <trkpt lat="45.98864" lon="4.91333">
        <ele>298</ele>
        <time>2018-04-05T09:46:35Z</time>
      </trkpt>
      <trkpt lat="45.98859" lon="4.91338">
        <ele>298</ele>
        <time>2018-04-05T09:46:36Z</time>
      </trkpt>
      <trkpt lat="45.98855" lon="4.91343">
        <ele>298</ele>
        <time>2018-04-05T09:46:37Z</time>
      </trkpt>
      <trkpt lat="45.9885" lon="4.91349">
        <ele>298</ele>
        <time>2018-04-05T09:46:38Z</time>
      </trkpt>
      <trkpt lat="45.98846" lon="4.91355">
        <ele>298</ele>
        <time>2018-04-05T09:46:39Z</time>
      </trkpt>
      <trkpt lat="45.98842" lon="4.91361">
        <ele>298</ele>
        <time>2018-04-05T09:46:40Z</time>
      </trkpt>
      <trkpt lat="45.98837" lon="4.91366">
        <ele>298</ele>
        <time>2018-04-05T09:46:41Z</time>
      </trkpt>
      <trkpt lat="45.98832" lon="4.91372">
        <ele>298</ele>
        <time>2018-04-05T09:46:42Z</time>
      </trkpt>
      <trkpt lat="45.98828" lon="4.91377">
        <ele>298</ele>
        <time>2018-04-05T09:46:43Z</time>
      </trkpt>
      <trkpt lat="45.98823" lon="4.91382">
        <ele>298</ele>
        <time>2018-04-05T09:46:44Z</time>
      </trkpt>
      <trkpt lat="45.98818" lon="4.91388">
        <ele>298</ele>
        <time>2018-04-05T09:46:45Z</time>
      </trkpt>
      <trkpt lat="45.98814" lon="4.91394">
        <ele>299</ele>
        <time>2018-04-05T09:46:46Z</time>
      </trkpt>
      <trkpt lat="45.98809" lon="4.914">
        <ele>299</ele>
        <time>2018-04-05T09:46:47Z</time>
      </trkpt>
      <trkpt lat="45.98805" lon="4.91406">
        <ele>299</ele>
        <time>2018-04-05T09:46:48Z</time>
      </trkpt>
      <trkpt lat="45.988" lon="4.91411">
        <ele>299</ele>
        <time>2018-04-05T09:46:49Z</time>
      </trkpt>
      <trkpt lat="45.98795" lon="4.91417">
        <ele>298</ele>
        <time>2018-04-05T09:46:50Z</time>
      </trkpt>
      <trkpt lat="45.98789" lon="4.91422">
        <ele>298</ele>
        <time>2018-04-05T09:46:51Z</time>
      </trkpt>
      <trkpt lat="45.98785" lon="4.91428">
        <ele>298</ele>
        <time>2018-04-05T09:46:52Z</time>
      </trkpt>
      <trkpt lat="45.9878" lon="4.91434">
        <ele>298</ele>
        <time>2018-04-05T09:46:53Z</time>
      </trkpt>
      <trkpt lat="45.98776" lon="4.9144">
        <ele>298</ele>
        <time>2018-04-05T09:46:54Z</time>
      </trkpt>
      <trkpt lat="45.98771" lon="4.91445">
        <ele>298</ele>
        <time>2018-04-05T09:46:55Z</time>
      </trkpt>
      <trkpt lat="45.98767" lon="4.9145">
        <ele>298</ele>
        <time>2018-04-05T09:46:56Z</time>
      </trkpt>
      <trkpt lat="45.98764" lon="4.91456">
        <ele>298</ele>
        <time>2018-04-05T09:46:57Z</time>
      </trkpt>
      <trkpt lat="45.98761" lon="4.91462">
        <ele>298</ele>
        <time>2018-04-05T09:46:58Z</time>
      </trkpt>
      <trkpt lat="45.98756" lon="4.91466">
        <ele>298</ele>
        <time>2018-04-05T09:46:59Z</time>
      </trkpt>
      <trkpt lat="45.98752" lon="4.91472">
        <ele>298</ele>
        <time>2018-04-05T09:47:00Z</time>
      </trkpt>
      <trkpt lat="45.98748" lon="4.91478">
        <ele>299</ele>
        <time>2018-04-05T09:47:01Z</time>
      </trkpt>
      <trkpt lat="45.98743" lon="4.91482">
        <ele>299</ele>
        <time>2018-04-05T09:47:02Z</time>
      </trkpt>
      <trkpt lat="45.98738" lon="4.91487">
        <ele>299</ele>
        <time>2018-04-05T09:47:03Z</time>
      </trkpt>
      <trkpt lat="45.98734" lon="4.91494">
        <ele>299</ele>
        <time>2018-04-05T09:47:04Z</time>
      </trkpt>
      <trkpt lat="45.98729" lon="4.91499">
        <ele>299</ele>
        <time>2018-04-05T09:47:05Z</time>
      </trkpt>
      <trkpt lat="45.98724" lon="4.91504">
        <ele>299</ele>
        <time>2018-04-05T09:47:06Z</time>
      </trkpt>
      <trkpt lat="45.98719" lon="4.9151">
        <ele>299</ele>
        <time>2018-04-05T09:47:07Z</time>
      </trkpt>
      <trkpt lat="45.98715" lon="4.91516">
        <ele>299</ele>
        <time>2018-04-05T09:47:08Z</time>
      </trkpt>
      <trkpt lat="45.9871" lon="4.91522">
        <ele>299</ele>
        <time>2018-04-05T09:47:09Z</time>
      </trkpt>
      <trkpt lat="45.98705" lon="4.91527">
        <ele>299</ele>
        <time>2018-04-05T09:47:10Z</time>
      </trkpt>
      <trkpt lat="45.98701" lon="4.91533">
        <ele>299</ele>
        <time>2018-04-05T09:47:11Z</time>
      </trkpt>
      <trkpt lat="45.98696" lon="4.91538">
        <ele>299</ele>
        <time>2018-04-05T09:47:12Z</time>
      </trkpt>
      <trkpt lat="45.98692" lon="4.91543">
        <ele>299</ele>
        <time>2018-04-05T09:47:13Z</time>
      </trkpt>
      <trkpt lat="45.98687" lon="4.91548">
        <ele>299</ele>
        <time>2018-04-05T09:47:14Z</time>
      </trkpt>
      <trkpt lat="45.98683" lon="4.91554">
        <ele>299</ele>
        <time>2018-04-05T09:47:15Z</time>
      </trkpt>
      <trkpt lat="45.98679" lon="4.9156">
        <ele>299</ele>
        <time>2018-04-05T09:47:16Z</time>
      </trkpt>
      <trkpt lat="45.98673" lon="4.91566">
        <ele>299</ele>
        <time>2018-04-05T09:47:17Z</time>
      </trkpt>
      <trkpt lat="45.98668" lon="4.9157">
        <ele>299</ele>
        <time>2018-04-05T09:47:18Z</time>
      </trkpt>
      <trkpt lat="45.98664" lon="4.91577">
        <ele>299</ele>
        <time>2018-04-05T09:47:19Z</time>
      </trkpt>
      <trkpt lat="45.98661" lon="4.91583">
        <ele>299</ele>
        <time>2018-04-05T09:47:20Z</time>
      </trkpt>
      <trkpt lat="45.98656" lon="4.91589">
        <ele>299</ele>
        <time>2018-04-05T09:47:21Z</time>
      </trkpt>
      <trkpt lat="45.98651" lon="4.91595">
        <ele>299</ele>
        <time>2018-04-05T09:47:22Z</time>
      </trkpt>
      <trkpt lat="45.98647" lon="4.91601">
        <ele>298</ele>
        <time>2018-04-05T09:47:23Z</time>
      </trkpt>
      <trkpt lat="45.98642" lon="4.91607">
        <ele>298</ele>
        <time>2018-04-05T09:47:24Z</time>
      </trkpt>
      <trkpt lat="45.98637" lon="4.91612">
        <ele>298</ele>
        <time>2018-04-05T09:47:25Z</time>
      </trkpt>
      <trkpt lat="45.98633" lon="4.91618">
        <ele>298</ele>
        <time>2018-04-05T09:47:26Z</time>
      </trkpt>
      <trkpt lat="45.98628" lon="4.91624">
        <ele>298</ele>
        <time>2018-04-05T09:47:27Z</time>
      </trkpt>
      <trkpt lat="45.98624" lon="4.91629">
        <ele>298</ele>
        <time>2018-04-05T09:47:28Z</time>
      </trkpt>
      <trkpt lat="45.98618" lon="4.91635">
        <ele>298</ele>
        <time>2018-04-05T09:47:29Z</time>
      </trkpt>
      <trkpt lat="45.98613" lon="4.91641">
        <ele>298</ele>
        <time>2018-04-05T09:47:30Z</time>
      </trkpt>
      <trkpt lat="45.98608" lon="4.91647">
        <ele>298</ele>
        <time>2018-04-05T09:47:31Z</time>
      </trkpt>
      <trkpt lat="45.98604" lon="4.91651">
        <ele>298</ele>
        <time>2018-04-05T09:47:32Z</time>
      </trkpt>
      <trkpt lat="45.98599" lon="4.91657">
        <ele>298</ele>
        <time>2018-04-05T09:47:33Z</time>
      </trkpt>
      <trkpt lat="45.98594" lon="4.91664">
        <ele>298</ele>
        <time>2018-04-05T09:47:34Z</time>
      </trkpt>
      <trkpt lat="45.98588" lon="4.9167">
        <ele>298</ele>
        <time>2018-04-05T09:47:35Z</time>
      </trkpt>
      <trkpt lat="45.98583" lon="4.91675">
        <ele>298</ele>
        <time>2018-04-05T09:47:36Z</time>
      </trkpt>
      <trkpt lat="45.98579" lon="4.91681">
        <ele>298</ele>
        <time>2018-04-05T09:47:37Z</time>
      </trkpt>
      <trkpt lat="45.98574" lon="4.91686">
        <ele>298</ele>
        <time>2018-04-05T09:47:38Z</time>
      </trkpt>
      <trkpt lat="45.9857" lon="4.91692">
        <ele>298</ele>
        <time>2018-04-05T09:47:39Z</time>
      </trkpt>
      <trkpt lat="45.98565" lon="4.91697">
        <ele>298</ele>
        <time>2018-04-05T09:47:40Z</time>
      </trkpt>
      <trkpt lat="45.9856" lon="4.91703">
        <ele>298</ele>
        <time>2018-04-05T09:47:41Z</time>
      </trkpt>
      <trkpt lat="45.98554" lon="4.91711">
        <ele>298</ele>
        <time>2018-04-05T09:47:42Z</time>
      </trkpt>
      <trkpt lat="45.9855" lon="4.91716">
        <ele>298</ele>
        <time>2018-04-05T09:47:43Z</time>
      </trkpt>
      <trkpt lat="45.98545" lon="4.91723">
        <ele>298</ele>
        <time>2018-04-05T09:47:44Z</time>
      </trkpt>
      <trkpt lat="45.98541" lon="4.91729">
        <ele>297</ele>
        <time>2018-04-05T09:47:45Z</time>
      </trkpt>
      <trkpt lat="45.98537" lon="4.91735">
        <ele>297</ele>
        <time>2018-04-05T09:47:46Z</time>
      </trkpt>
      <trkpt lat="45.98532" lon="4.91741">
        <ele>297</ele>
        <time>2018-04-05T09:47:47Z</time>
      </trkpt>
      <trkpt lat="45.98527" lon="4.91747">
        <ele>297</ele>
        <time>2018-04-05T09:47:48Z</time>
      </trkpt>
      <trkpt lat="45.98523" lon="4.91752">
        <ele>297</ele>
        <time>2018-04-05T09:47:49Z</time>
      </trkpt>
      <trkpt lat="45.98518" lon="4.91758">
        <ele>297</ele>
        <time>2018-04-05T09:47:50Z</time>
      </trkpt>
      <trkpt lat="45.98513" lon="4.91763">
        <ele>297</ele>
        <time>2018-04-05T09:47:51Z</time>
      </trkpt>
      <trkpt lat="45.98509" lon="4.91768">
        <ele>297</ele>
        <time>2018-04-05T09:47:52Z</time>
      </trkpt>
      <trkpt lat="45.98503" lon="4.91774">
        <ele>297</ele>
        <time>2018-04-05T09:47:53Z</time>
      </trkpt>
      <trkpt lat="45.98499" lon="4.9178">
        <ele>297</ele>
        <time>2018-04-05T09:47:54Z</time>
      </trkpt>
      <trkpt lat="45.98494" lon="4.91785">
        <ele>297</ele>
        <time>2018-04-05T09:47:55Z</time>
      </trkpt>
      <trkpt lat="45.98489" lon="4.91791">
        <ele>297</ele>
        <time>2018-04-05T09:47:56Z</time>
      </trkpt>
      <trkpt lat="45.98484" lon="4.91796">
        <ele>297</ele>
        <time>2018-04-05T09:47:57Z</time>
      </trkpt>
      <trkpt lat="45.9848" lon="4.91802">
        <ele>297</ele>
        <time>2018-04-05T09:47:58Z</time>
      </trkpt>
      <trkpt lat="45.98475" lon="4.91808">
        <ele>297</ele>
        <time>2018-04-05T09:47:59Z</time>
      </trkpt>
      <trkpt lat="45.98471" lon="4.91812">
        <ele>297</ele>
        <time>2018-04-05T09:48:00Z</time>
      </trkpt>
      <trkpt lat="45.98467" lon="4.91817">
        <ele>297</ele>
        <time>2018-04-05T09:48:01Z</time>
      </trkpt>
      <trkpt lat="45.98462" lon="4.91824">
        <ele>297</ele>
        <time>2018-04-05T09:48:02Z</time>
      </trkpt>
      <trkpt lat="45.98458" lon="4.9183">
        <ele>297</ele>
        <time>2018-04-05T09:48:03Z</time>
      </trkpt>
      <trkpt lat="45.98453" lon="4.91836">
        <ele>297</ele>
        <time>2018-04-05T09:48:04Z</time>
      </trkpt>
      <trkpt lat="45.9845" lon="4.91842">
        <ele>297</ele>
        <time>2018-04-05T09:48:05Z</time>
      </trkpt>
      <trkpt lat="45.98446" lon="4.91847">
        <ele>297</ele>
        <time>2018-04-05T09:48:06Z</time>
      </trkpt>
      <trkpt lat="45.98441" lon="4.91852">
        <ele>297</ele>
        <time>2018-04-05T09:48:07Z</time>
      </trkpt>
      <trkpt lat="45.98436" lon="4.91858">
        <ele>297</ele>
        <time>2018-04-05T09:48:08Z</time>
      </trkpt>
      <trkpt lat="45.98432" lon="4.91863">
        <ele>297</ele>
        <time>2018-04-05T09:48:09Z</time>
      </trkpt>
      <trkpt lat="45.98427" lon="4.91868">
        <ele>297</ele>
        <time>2018-04-05T09:48:10Z</time>
      </trkpt>
      <trkpt lat="45.98422" lon="4.91875">
        <ele>297</ele>
        <time>2018-04-05T09:48:11Z</time>
      </trkpt>
      <trkpt lat="45.98417" lon="4.91881">
        <ele>297</ele>
        <time>2018-04-05T09:48:12Z</time>
      </trkpt>
      <trkpt lat="45.98413" lon="4.91886">
        <ele>297</ele>
        <time>2018-04-05T09:48:13Z</time>
      </trkpt>
      <trkpt lat="45.98409" lon="4.91893">
        <ele>297</ele>
        <time>2018-04-05T09:48:14Z</time>
      </trkpt>
      <trkpt lat="45.98404" lon="4.91898">
        <ele>297</ele>
        <time>2018-04-05T09:48:15Z</time>
      </trkpt>
      <trkpt lat="45.98399" lon="4.91903">
        <ele>297</ele>
        <time>2018-04-05T09:48:16Z</time>
      </trkpt>
      <trkpt lat="45.98394" lon="4.91909">
        <ele>297</ele>
        <time>2018-04-05T09:48:17Z</time>
      </trkpt>
      <trkpt lat="45.9839" lon="4.91916">
        <ele>297</ele>
        <time>2018-04-05T09:48:18Z</time>
      </trkpt>
      <trkpt lat="45.98387" lon="4.91922">
        <ele>297</ele>
        <time>2018-04-05T09:48:19Z</time>
      </trkpt>
      <trkpt lat="45.98382" lon="4.91928">
        <ele>297</ele>
        <time>2018-04-05T09:48:20Z</time>
      </trkpt>
      <trkpt lat="45.98377" lon="4.91934">
        <ele>297</ele>
        <time>2018-04-05T09:48:21Z</time>
      </trkpt>
      <trkpt lat="45.98372" lon="4.91939">
        <ele>298</ele>
        <time>2018-04-05T09:48:22Z</time>
      </trkpt>
      <trkpt lat="45.98368" lon="4.91945">
        <ele>298</ele>
        <time>2018-04-05T09:48:23Z</time>
      </trkpt>
      <trkpt lat="45.98364" lon="4.91949">
        <ele>298</ele>
        <time>2018-04-05T09:48:24Z</time>
      </trkpt>
      <trkpt lat="45.9836" lon="4.91954">
        <ele>298</ele>
        <time>2018-04-05T09:48:25Z</time>
      </trkpt>
      <trkpt lat="45.98355" lon="4.91959">
        <ele>297</ele>
        <time>2018-04-05T09:48:26Z</time>
      </trkpt>
      <trkpt lat="45.98351" lon="4.91964">
        <ele>297</ele>
        <time>2018-04-05T09:48:27Z</time>
      </trkpt>
      <trkpt lat="45.98347" lon="4.91969">
        <ele>297</ele>
        <time>2018-04-05T09:48:28Z</time>
      </trkpt>
      <trkpt lat="45.98342" lon="4.91973">
        <ele>297</ele>
        <time>2018-04-05T09:48:29Z</time>
      </trkpt>
      <trkpt lat="45.98338" lon="4.91977">
        <ele>297</ele>
        <time>2018-04-05T09:48:30Z</time>
      </trkpt>
      <trkpt lat="45.98334" lon="4.91981">
        <ele>297</ele>
        <time>2018-04-05T09:48:31Z</time>
      </trkpt>
      <trkpt lat="45.98329" lon="4.91987">
        <ele>298</ele>
        <time>2018-04-05T09:48:32Z</time>
      </trkpt>
      <trkpt lat="45.98324" lon="4.91992">
        <ele>298</ele>
        <time>2018-04-05T09:48:33Z</time>
      </trkpt>
      <trkpt lat="45.9832" lon="4.91997">
        <ele>298</ele>
        <time>2018-04-05T09:48:34Z</time>
      </trkpt>
      <trkpt lat="45.98315" lon="4.92002">
        <ele>298</ele>
        <time>2018-04-05T09:48:35Z</time>
      </trkpt>
      <trkpt lat="45.98311" lon="4.92007">
        <ele>298</ele>
        <time>2018-04-05T09:48:36Z</time>
      </trkpt>
      <trkpt lat="45.98308" lon="4.92013">
        <ele>298</ele>
        <time>2018-04-05T09:48:37Z</time>
      </trkpt>
      <trkpt lat="45.98304" lon="4.92018">
        <ele>298</ele>
        <time>2018-04-05T09:48:38Z</time>
      </trkpt>
      <trkpt lat="45.98298" lon="4.92023">
        <ele>298</ele>
        <time>2018-04-05T09:48:39Z</time>
      </trkpt>
      <trkpt lat="45.98294" lon="4.92028">
        <ele>298</ele>
        <time>2018-04-05T09:48:40Z</time>
      </trkpt>
      <trkpt lat="45.9829" lon="4.92032">
        <ele>298</ele>
        <time>2018-04-05T09:48:41Z</time>
      </trkpt>
      <trkpt lat="45.98285" lon="4.92037">
        <ele>298</ele>
        <time>2018-04-05T09:48:42Z</time>
      </trkpt>
      <trkpt lat="45.98281" lon="4.92042">
        <ele>298</ele>
        <time>2018-04-05T09:48:43Z</time>
      </trkpt>
      <trkpt lat="45.98277" lon="4.92048">
        <ele>298</ele>
        <time>2018-04-05T09:48:44Z</time>
      </trkpt>
      <trkpt lat="45.98273" lon="4.92054">
        <ele>298</ele>
        <time>2018-04-05T09:48:45Z</time>
      </trkpt>
      <trkpt lat="45.98269" lon="4.92058">
        <ele>298</ele>
        <time>2018-04-05T09:48:46Z</time>
      </trkpt>
      <trkpt lat="45.98264" lon="4.92063">
        <ele>298</ele>
        <time>2018-04-05T09:48:47Z</time>
      </trkpt>
      <trkpt lat="45.9826" lon="4.92068">
        <ele>299</ele>
        <time>2018-04-05T09:48:48Z</time>
      </trkpt>
      <trkpt lat="45.98256" lon="4.92074">
        <ele>299</ele>
        <time>2018-04-05T09:48:49Z</time>
      </trkpt>
      <trkpt lat="45.98252" lon="4.92079">
        <ele>299</ele>
        <time>2018-04-05T09:48:50Z</time>
      </trkpt>
      <trkpt lat="45.98248" lon="4.92084">
        <ele>299</ele>
        <time>2018-04-05T09:48:51Z</time>
      </trkpt>
      <trkpt lat="45.98243" lon="4.92088">
        <ele>299</ele>
        <time>2018-04-05T09:48:52Z</time>
      </trkpt>
      <trkpt lat="45.98239" lon="4.92095">
        <ele>299</ele>
        <time>2018-04-05T09:48:53Z</time>
      </trkpt>
      <trkpt lat="45.98235" lon="4.921">
        <ele>299</ele>
        <time>2018-04-05T09:48:54Z</time>
      </trkpt>
      <trkpt lat="45.9823" lon="4.92105">
        <ele>299</ele>
        <time>2018-04-05T09:48:55Z</time>
      </trkpt>
      <trkpt lat="45.98225" lon="4.9211">
        <ele>299</ele>
        <time>2018-04-05T09:48:56Z</time>
      </trkpt>
      <trkpt lat="45.98221" lon="4.92116">
        <ele>299</ele>
        <time>2018-04-05T09:48:57Z</time>
      </trkpt>
      <trkpt lat="45.98218" lon="4.92121">
        <ele>299</ele>
        <time>2018-04-05T09:48:58Z</time>
      </trkpt>
      <trkpt lat="45.98213" lon="4.92127">
        <ele>299</ele>
        <time>2018-04-05T09:48:59Z</time>
      </trkpt>
      <trkpt lat="45.98208" lon="4.92133">
        <ele>299</ele>
        <time>2018-04-05T09:49:00Z</time>
      </trkpt>
      <trkpt lat="45.98204" lon="4.92138">
        <ele>299</ele>
        <time>2018-04-05T09:49:01Z</time>
      </trkpt>
      <trkpt lat="45.98199" lon="4.92143">
        <ele>299</ele>
        <time>2018-04-05T09:49:02Z</time>
      </trkpt>
      <trkpt lat="45.98194" lon="4.92149">
        <ele>299</ele>
        <time>2018-04-05T09:49:03Z</time>
      </trkpt>
      <trkpt lat="45.9819" lon="4.92155">
        <ele>299</ele>
        <time>2018-04-05T09:49:04Z</time>
      </trkpt>
      <trkpt lat="45.98186" lon="4.9216">
        <ele>299</ele>
        <time>2018-04-05T09:49:05Z</time>
      </trkpt>
      <trkpt lat="45.98182" lon="4.92165">
        <ele>299</ele>
        <time>2018-04-05T09:49:06Z</time>
      </trkpt>
      <trkpt lat="45.98178" lon="4.9217">
        <ele>299</ele>
        <time>2018-04-05T09:49:07Z</time>
      </trkpt>
      <trkpt lat="45.98173" lon="4.92176">
        <ele>299</ele>
        <time>2018-04-05T09:49:08Z</time>
      </trkpt>
      <trkpt lat="45.98168" lon="4.92181">
        <ele>299</ele>
        <time>2018-04-05T09:49:09Z</time>
      </trkpt>
      <trkpt lat="45.98164" lon="4.92187">
        <ele>299</ele>
        <time>2018-04-05T09:49:10Z</time>
      </trkpt>
      <trkpt lat="45.98159" lon="4.92191">
        <ele>299</ele>
        <time>2018-04-05T09:49:11Z</time>
      </trkpt>
      <trkpt lat="45.98156" lon="4.92198">
        <ele>299</ele>
        <time>2018-04-05T09:49:12Z</time>
      </trkpt>
      <trkpt lat="45.98151" lon="4.92204">
        <ele>299</ele>
        <time>2018-04-05T09:49:13Z</time>
      </trkpt>
      <trkpt lat="45.98147" lon="4.92208">
        <ele>299</ele>
        <time>2018-04-05T09:49:14Z</time>
      </trkpt>
      <trkpt lat="45.98143" lon="4.92212">
        <ele>299</ele>
        <time>2018-04-05T09:49:15Z</time>
      </trkpt>
      <trkpt lat="45.98139" lon="4.92218">
        <ele>299</ele>
        <time>2018-04-05T09:49:16Z</time>
      </trkpt>
      <trkpt lat="45.98135" lon="4.92223">
        <ele>299</ele>
        <time>2018-04-05T09:49:17Z</time>
      </trkpt>
      <trkpt lat="45.98131" lon="4.92227">
        <ele>299</ele>
        <time>2018-04-05T09:49:18Z</time>
      </trkpt>
      <trkpt lat="45.98127" lon="4.92232">
        <ele>299</ele>
        <time>2018-04-05T09:49:19Z</time>
      </trkpt>
      <trkpt lat="45.98123" lon="4.92237">
        <ele>299</ele>
        <time>2018-04-05T09:49:20Z</time>
      </trkpt>
      <trkpt lat="45.98119" lon="4.92243">
        <ele>299</ele>
        <time>2018-04-05T09:49:21Z</time>
      </trkpt>
      <trkpt lat="45.98115" lon="4.92248">
        <ele>299</ele>
        <time>2018-04-05T09:49:22Z</time>
      </trkpt>
      <trkpt lat="45.9811" lon="4.92254">
        <ele>300</ele>
        <time>2018-04-05T09:49:23Z</time>
      </trkpt>
      <trkpt lat="45.98106" lon="4.92259">
        <ele>300</ele>
        <time>2018-04-05T09:49:24Z</time>
      </trkpt>
      <trkpt lat="45.98103" lon="4.92264">
        <ele>300</ele>
        <time>2018-04-05T09:49:25Z</time>
      </trkpt>
      <trkpt lat="45.98098" lon="4.92269">
        <ele>300</ele>
        <time>2018-04-05T09:49:26Z</time>
      </trkpt>
      <trkpt lat="45.98094" lon="4.92273">
        <ele>300</ele>
        <time>2018-04-05T09:49:27Z</time>
      </trkpt>
      <trkpt lat="45.98091" lon="4.92278">
        <ele>300</ele>
        <time>2018-04-05T09:49:28Z</time>
      </trkpt>
      <trkpt lat="45.98087" lon="4.92284">
        <ele>300</ele>
        <time>2018-04-05T09:49:29Z</time>
      </trkpt>
      <trkpt lat="45.98083" lon="4.92289">
        <ele>299</ele>
        <time>2018-04-05T09:49:30Z</time>
      </trkpt>
      <trkpt lat="45.98077" lon="4.92295">
        <ele>299</ele>
        <time>2018-04-05T09:49:31Z</time>
      </trkpt>
      <trkpt lat="45.98072" lon="4.923">
        <ele>299</ele>
        <time>2018-04-05T09:49:32Z</time>
      </trkpt>
      <trkpt lat="45.9807" lon="4.92306">
        <ele>299</ele>
        <time>2018-04-05T09:49:33Z</time>
      </trkpt>
      <trkpt lat="45.98065" lon="4.92311">
        <ele>299</ele>
        <time>2018-04-05T09:49:34Z</time>
      </trkpt>
      <trkpt lat="45.98059" lon="4.92317">
        <ele>299</ele>
        <time>2018-04-05T09:49:35Z</time>
      </trkpt>
      <trkpt lat="45.98055" lon="4.92322">
        <ele>299</ele>
        <time>2018-04-05T09:49:36Z</time>
      </trkpt>
      <trkpt lat="45.9805" lon="4.92327">
        <ele>299</ele>
        <time>2018-04-05T09:49:37Z</time>
      </trkpt>
      <trkpt lat="45.98047" lon="4.92332">
        <ele>299</ele>
        <time>2018-04-05T09:49:38Z</time>
      </trkpt>
      <trkpt lat="45.98043" lon="4.92337">
        <ele>299</ele>
        <time>2018-04-05T09:49:39Z</time>
      </trkpt>
      <trkpt lat="45.98039" lon="4.92342">
        <ele>299</ele>
        <time>2018-04-05T09:49:40Z</time>
      </trkpt>
      <trkpt lat="45.98035" lon="4.92347">
        <ele>299</ele>
        <time>2018-04-05T09:49:41Z</time>
      </trkpt>
      <trkpt lat="45.98033" lon="4.92356">
        <ele>299</ele>
        <time>2018-04-05T09:49:42Z</time>
      </trkpt>
      <trkpt lat="45.98028" lon="4.92361">
        <ele>298</ele>
        <time>2018-04-05T09:49:43Z</time>
      </trkpt>
      <trkpt lat="45.98023" lon="4.92366">
        <ele>298</ele>
        <time>2018-04-05T09:49:44Z</time>
      </trkpt>
      <trkpt lat="45.9802" lon="4.92371">
        <ele>298</ele>
        <time>2018-04-05T09:49:45Z</time>
      </trkpt>
      <trkpt lat="45.98016" lon="4.92378">
        <ele>298</ele>
        <time>2018-04-05T09:49:46Z</time>
      </trkpt>
      <trkpt lat="45.98013" lon="4.92383">
        <ele>298</ele>
        <time>2018-04-05T09:49:47Z</time>
      </trkpt>
      <trkpt lat="45.98009" lon="4.92388">
        <ele>298</ele>
        <time>2018-04-05T09:49:48Z</time>
      </trkpt>
      <trkpt lat="45.98004" lon="4.92393">
        <ele>298</ele>
        <time>2018-04-05T09:49:49Z</time>
      </trkpt>
      <trkpt lat="45.98" lon="4.92397">
        <ele>298</ele>
        <time>2018-04-05T09:49:50Z</time>
      </trkpt>
      <trkpt lat="45.97995" lon="4.92402">
        <ele>298</ele>
        <time>2018-04-05T09:49:51Z</time>
      </trkpt>
      <trkpt lat="45.9799" lon="4.92406">
        <ele>298</ele>
        <time>2018-04-05T09:49:52Z</time>
      </trkpt>
      <trkpt lat="45.97985" lon="4.92412">
        <ele>298</ele>
        <time>2018-04-05T09:49:53Z</time>
      </trkpt>
      <trkpt lat="45.97981" lon="4.92418">
        <ele>298</ele>
        <time>2018-04-05T09:49:54Z</time>
      </trkpt>
      <trkpt lat="45.97977" lon="4.92424">
        <ele>298</ele>
        <time>2018-04-05T09:49:55Z</time>
      </trkpt>
      <trkpt lat="45.97972" lon="4.92428">
        <ele>298</ele>
        <time>2018-04-05T09:49:56Z</time>
      </trkpt>
      <trkpt lat="45.97968" lon="4.92433">
        <ele>298</ele>
        <time>2018-04-05T09:49:57Z</time>
      </trkpt>
      <trkpt lat="45.97964" lon="4.92439">
        <ele>298</ele>
        <time>2018-04-05T09:49:58Z</time>
      </trkpt>
      <trkpt lat="45.9796" lon="4.92444">
        <ele>298</ele>
        <time>2018-04-05T09:49:59Z</time>
      </trkpt>
      <trkpt lat="45.97955" lon="4.92451">
        <ele>299</ele>
        <time>2018-04-05T09:50:00Z</time>
      </trkpt>
      <trkpt lat="45.9795" lon="4.92455">
        <ele>299</ele>
        <time>2018-04-05T09:50:01Z</time>
      </trkpt>
      <trkpt lat="45.97946" lon="4.9246">
        <ele>299</ele>
        <time>2018-04-05T09:50:02Z</time>
      </trkpt>
      <trkpt lat="45.97943" lon="4.92465">
        <ele>299</ele>
        <time>2018-04-05T09:50:03Z</time>
      </trkpt>
      <trkpt lat="45.97938" lon="4.9247">
        <ele>299</ele>
        <time>2018-04-05T09:50:04Z</time>
      </trkpt>
      <trkpt lat="45.97933" lon="4.92475">
        <ele>299</ele>
        <time>2018-04-05T09:50:05Z</time>
      </trkpt>
      <trkpt lat="45.97929" lon="4.9248">
        <ele>299</ele>
        <time>2018-04-05T09:50:06Z</time>
      </trkpt>
      <trkpt lat="45.97924" lon="4.92486">
        <ele>299</ele>
        <time>2018-04-05T09:50:07Z</time>
      </trkpt>
      <trkpt lat="45.9792" lon="4.92491">
        <ele>299</ele>
        <time>2018-04-05T09:50:08Z</time>
      </trkpt>
      <trkpt lat="45.97915" lon="4.92497">
        <ele>299</ele>
        <time>2018-04-05T09:50:09Z</time>
      </trkpt>
      <trkpt lat="45.97911" lon="4.92502">
        <ele>299</ele>
        <time>2018-04-05T09:50:10Z</time>
      </trkpt>
      <trkpt lat="45.97906" lon="4.92507">
        <ele>299</ele>
        <time>2018-04-05T09:50:11Z</time>
      </trkpt>
      <trkpt lat="45.97903" lon="4.92513">
        <ele>299</ele>
        <time>2018-04-05T09:50:12Z</time>
      </trkpt>
      <trkpt lat="45.97897" lon="4.92519">
        <ele>300</ele>
        <time>2018-04-05T09:50:13Z</time>
      </trkpt>
      <trkpt lat="45.97893" lon="4.92524">
        <ele>300</ele>
        <time>2018-04-05T09:50:14Z</time>
      </trkpt>
      <trkpt lat="45.97889" lon="4.9253">
        <ele>300</ele>
        <time>2018-04-05T09:50:15Z</time>
      </trkpt>
      <trkpt lat="45.97884" lon="4.92537">
        <ele>300</ele>
        <time>2018-04-05T09:50:16Z</time>
      </trkpt>
      <trkpt lat="45.97879" lon="4.92543">
        <ele>300</ele>
        <time>2018-04-05T09:50:17Z</time>
      </trkpt>
      <trkpt lat="45.97874" lon="4.92549">
        <ele>300</ele>
        <time>2018-04-05T09:50:18Z</time>
      </trkpt>
      <trkpt lat="45.97869" lon="4.92555">
        <ele>300</ele>
        <time>2018-04-05T09:50:19Z</time>
      </trkpt>
      <trkpt lat="45.97864" lon="4.92561">
        <ele>300</ele>
        <time>2018-04-05T09:50:20Z</time>
      </trkpt>
      <trkpt lat="45.97859" lon="4.92567">
        <ele>300</ele>
        <time>2018-04-05T09:50:21Z</time>
      </trkpt>
      <trkpt lat="45.97854" lon="4.92573">
        <ele>300</ele>
        <time>2018-04-05T09:50:22Z</time>
      </trkpt>
      <trkpt lat="45.97849" lon="4.92579">
        <ele>300</ele>
        <time>2018-04-05T09:50:23Z</time>
      </trkpt>
      <trkpt lat="45.97844" lon="4.92584">
        <ele>300</ele>
        <time>2018-04-05T09:50:24Z</time>
      </trkpt>
      <trkpt lat="45.97839" lon="4.92591">
        <ele>300</ele>
        <time>2018-04-05T09:50:25Z</time>
      </trkpt>
      <trkpt lat="45.97834" lon="4.92596">
        <ele>300</ele>
        <time>2018-04-05T09:50:26Z</time>
      </trkpt>
      <trkpt lat="45.97829" lon="4.92603">
        <ele>300</ele>
        <time>2018-04-05T09:50:27Z</time>
      </trkpt>
      <trkpt lat="45.97824" lon="4.92609">
        <ele>300</ele>
        <time>2018-04-05T09:50:28Z</time>
      </trkpt>
      <trkpt lat="45.97818" lon="4.92614">
        <ele>300</ele>
        <time>2018-04-05T09:50:29Z</time>
      </trkpt>
      <trkpt lat="45.97811" lon="4.92621">
        <ele>300</ele>
        <time>2018-04-05T09:50:30Z</time>
      </trkpt>
      <trkpt lat="45.97807" lon="4.9263">
        <ele>301</ele>
        <time>2018-04-05T09:50:31Z</time>
      </trkpt>
      <trkpt lat="45.97802" lon="4.92636">
        <ele>301</ele>
        <time>2018-04-05T09:50:32Z</time>
      </trkpt>
      <trkpt lat="45.97797" lon="4.92642">
        <ele>301</ele>
        <time>2018-04-05T09:50:33Z</time>
      </trkpt>
      <trkpt lat="45.97791" lon="4.92647">
        <ele>300</ele>
        <time>2018-04-05T09:50:34Z</time>
      </trkpt>
      <trkpt lat="45.97786" lon="4.92652">
        <ele>300</ele>
        <time>2018-04-05T09:50:35Z</time>
      </trkpt>
      <trkpt lat="45.97782" lon="4.92658">
        <ele>300</ele>
        <time>2018-04-05T09:50:36Z</time>
      </trkpt>
      <trkpt lat="45.97777" lon="4.92663">
        <ele>300</ele>
        <time>2018-04-05T09:50:37Z</time>
      </trkpt>
      <trkpt lat="45.97772" lon="4.9267">
        <ele>300</ele>
        <time>2018-04-05T09:50:38Z</time>
      </trkpt>
      <trkpt lat="45.97768" lon="4.92675">
        <ele>300</ele>
        <time>2018-04-05T09:50:39Z</time>
      </trkpt>
      <trkpt lat="45.97763" lon="4.92681">
        <ele>300</ele>
        <time>2018-04-05T09:50:40Z</time>
      </trkpt>
      <trkpt lat="45.97759" lon="4.92687">
        <ele>300</ele>
        <time>2018-04-05T09:50:41Z</time>
      </trkpt>
      <trkpt lat="45.97755" lon="4.92691">
        <ele>300</ele>
        <time>2018-04-05T09:50:42Z</time>
      </trkpt>
      <trkpt lat="45.9775" lon="4.92697">
        <ele>301</ele>
        <time>2018-04-05T09:50:43Z</time>
      </trkpt>
      <trkpt lat="45.97746" lon="4.92703">
        <ele>301</ele>
        <time>2018-04-05T09:50:44Z</time>
      </trkpt>
      <trkpt lat="45.97741" lon="4.92709">
        <ele>301</ele>
        <time>2018-04-05T09:50:45Z</time>
      </trkpt>
      <trkpt lat="45.97735" lon="4.92715">
        <ele>301</ele>
        <time>2018-04-05T09:50:46Z</time>
      </trkpt>
      <trkpt lat="45.9773" lon="4.92721">
        <ele>301</ele>
        <time>2018-04-05T09:50:47Z</time>
      </trkpt>
      <trkpt lat="45.97725" lon="4.92726">
        <ele>301</ele>
        <time>2018-04-05T09:50:48Z</time>
      </trkpt>
      <trkpt lat="45.9772" lon="4.92733">
        <ele>301</ele>
        <time>2018-04-05T09:50:49Z</time>
      </trkpt>
      <trkpt lat="45.97715" lon="4.92738">
        <ele>301</ele>
        <time>2018-04-05T09:50:50Z</time>
      </trkpt>
      <trkpt lat="45.9771" lon="4.92744">
        <ele>301</ele>
        <time>2018-04-05T09:50:51Z</time>
      </trkpt>
      <trkpt lat="45.97705" lon="4.9275">
        <ele>301</ele>
        <time>2018-04-05T09:50:52Z</time>
      </trkpt>
      <trkpt lat="45.977" lon="4.92756">
        <ele>301</ele>
        <time>2018-04-05T09:50:53Z</time>
      </trkpt>
      <trkpt lat="45.97694" lon="4.92762">
        <ele>301</ele>
        <time>2018-04-05T09:50:54Z</time>
      </trkpt>
      <trkpt lat="45.97689" lon="4.92768">
        <ele>301</ele>
        <time>2018-04-05T09:50:55Z</time>
      </trkpt>
      <trkpt lat="45.97685" lon="4.92774">
        <ele>301</ele>
        <time>2018-04-05T09:50:56Z</time>
      </trkpt>
      <trkpt lat="45.9768" lon="4.92779">
        <ele>301</ele>
        <time>2018-04-05T09:50:57Z</time>
      </trkpt>
      <trkpt lat="45.97675" lon="4.92784">
        <ele>301</ele>
        <time>2018-04-05T09:50:58Z</time>
      </trkpt>
      <trkpt lat="45.9767" lon="4.9279">
        <ele>301</ele>
        <time>2018-04-05T09:50:59Z</time>
      </trkpt>
      <trkpt lat="45.97666" lon="4.92795">
        <ele>301</ele>
        <time>2018-04-05T09:51:00Z</time>
      </trkpt>
      <trkpt lat="45.97662" lon="4.92803">
        <ele>300</ele>
        <time>2018-04-05T09:51:01Z</time>
      </trkpt>
      <trkpt lat="45.97657" lon="4.92809">
        <ele>300</ele>
        <time>2018-04-05T09:51:02Z</time>
      </trkpt>
      <trkpt lat="45.97652" lon="4.92815">
        <ele>300</ele>
        <time>2018-04-05T09:51:03Z</time>
      </trkpt>
      <trkpt lat="45.97648" lon="4.9282">
        <ele>300</ele>
        <time>2018-04-05T09:51:04Z</time>
      </trkpt>
      <trkpt lat="45.97644" lon="4.92825">
        <ele>300</ele>
        <time>2018-04-05T09:51:05Z</time>
      </trkpt>
      <trkpt lat="45.97639" lon="4.92831">
        <ele>300</ele>
        <time>2018-04-05T09:51:06Z</time>
      </trkpt>
      <trkpt lat="45.97634" lon="4.92836">
        <ele>298</ele>
        <time>2018-04-05T09:51:07Z</time>
      </trkpt>
      <trkpt lat="45.97629" lon="4.92841">
        <ele>298</ele>
        <time>2018-04-05T09:51:08Z</time>
      </trkpt>
      <trkpt lat="45.97625" lon="4.92846">
        <ele>298</ele>
        <time>2018-04-05T09:51:09Z</time>
      </trkpt>
      <trkpt lat="45.9762" lon="4.92851">
        <ele>298</ele>
        <time>2018-04-05T09:51:10Z</time>
      </trkpt>
      <trkpt lat="45.97616" lon="4.92857">
        <ele>298</ele>
        <time>2018-04-05T09:51:11Z</time>
      </trkpt>
      <trkpt lat="45.97612" lon="4.92861">
        <ele>298</ele>
        <time>2018-04-05T09:51:12Z</time>
      </trkpt>
      <trkpt lat="45.97607" lon="4.92867">
        <ele>298</ele>
        <time>2018-04-05T09:51:13Z</time>
      </trkpt>
      <trkpt lat="45.97602" lon="4.92873">
        <ele>298</ele>
        <time>2018-04-05T09:51:14Z</time>
      </trkpt>
      <trkpt lat="45.97598" lon="4.92878">
        <ele>298</ele>
        <time>2018-04-05T09:51:15Z</time>
      </trkpt>
      <trkpt lat="45.97593" lon="4.92883">
        <ele>298</ele>
        <time>2018-04-05T09:51:16Z</time>
      </trkpt>
      <trkpt lat="45.97589" lon="4.92889">
        <ele>298</ele>
        <time>2018-04-05T09:51:17Z</time>
      </trkpt>
      <trkpt lat="45.97584" lon="4.92894">
        <ele>298</ele>
        <time>2018-04-05T09:51:18Z</time>
      </trkpt>
      <trkpt lat="45.9758" lon="4.92899">
        <ele>298</ele>
        <time>2018-04-05T09:51:19Z</time>
      </trkpt>
      <trkpt lat="45.97576" lon="4.92904">
        <ele>298</ele>
        <time>2018-04-05T09:51:20Z</time>
      </trkpt>
      <trkpt lat="45.97572" lon="4.92909">
        <ele>298</ele>
        <time>2018-04-05T09:51:21Z</time>
      </trkpt>
      <trkpt lat="45.97568" lon="4.92915">
        <ele>298</ele>
        <time>2018-04-05T09:51:22Z</time>
      </trkpt>
      <trkpt lat="45.97563" lon="4.9292">
        <ele>298</ele>
        <time>2018-04-05T09:51:23Z</time>
      </trkpt>
      <trkpt lat="45.97558" lon="4.92925">
        <ele>298</ele>
        <time>2018-04-05T09:51:24Z</time>
      </trkpt>
      <trkpt lat="45.97554" lon="4.92932">
        <ele>299</ele>
        <time>2018-04-05T09:51:25Z</time>
      </trkpt>
      <trkpt lat="45.97549" lon="4.92937">
        <ele>299</ele>
        <time>2018-04-05T09:51:26Z</time>
      </trkpt>
      <trkpt lat="45.97544" lon="4.92943">
        <ele>299</ele>
        <time>2018-04-05T09:51:27Z</time>
      </trkpt>
      <trkpt lat="45.97539" lon="4.92948">
        <ele>299</ele>
        <time>2018-04-05T09:51:28Z</time>
      </trkpt>
      <trkpt lat="45.97534" lon="4.92955">
        <ele>299</ele>
        <time>2018-04-05T09:51:29Z</time>
      </trkpt>
      <trkpt lat="45.97529" lon="4.9296">
        <ele>299</ele>
        <time>2018-04-05T09:51:30Z</time>
      </trkpt>
      <trkpt lat="45.97524" lon="4.92966">
        <ele>299</ele>
        <time>2018-04-05T09:51:31Z</time>
      </trkpt>
      <trkpt lat="45.9752" lon="4.92971">
        <ele>299</ele>
        <time>2018-04-05T09:51:32Z</time>
      </trkpt>
      <trkpt lat="45.97516" lon="4.92975">
        <ele>299</ele>
        <time>2018-04-05T09:51:33Z</time>
      </trkpt>
      <trkpt lat="45.97511" lon="4.92981">
        <ele>299</ele>
        <time>2018-04-05T09:51:34Z</time>
      </trkpt>
      <trkpt lat="45.97508" lon="4.92986">
        <ele>299</ele>
        <time>2018-04-05T09:51:35Z</time>
      </trkpt>
      <trkpt lat="45.97504" lon="4.92991">
        <ele>299</ele>
        <time>2018-04-05T09:51:36Z</time>
      </trkpt>
      <trkpt lat="45.975" lon="4.92996">
        <ele>299</ele>
        <time>2018-04-05T09:51:37Z</time>
      </trkpt>
      <trkpt lat="45.97495" lon="4.93">
        <ele>299</ele>
        <time>2018-04-05T09:51:38Z</time>
      </trkpt>
      <trkpt lat="45.97492" lon="4.93005">
        <ele>299</ele>
        <time>2018-04-05T09:51:39Z</time>
      </trkpt>
      <trkpt lat="45.97489" lon="4.9301">
        <ele>299</ele>
        <time>2018-04-05T09:51:40Z</time>
      </trkpt>
      <trkpt lat="45.97485" lon="4.93016">
        <ele>299</ele>
        <time>2018-04-05T09:51:41Z</time>
      </trkpt>
      <trkpt lat="45.9748" lon="4.93021">
        <ele>299</ele>
        <time>2018-04-05T09:51:42Z</time>
      </trkpt>
      <trkpt lat="45.97476" lon="4.93026">
        <ele>299</ele>
        <time>2018-04-05T09:51:43Z</time>
      </trkpt>
      <trkpt lat="45.97472" lon="4.9303">
        <ele>299</ele>
        <time>2018-04-05T09:51:44Z</time>
      </trkpt>
      <trkpt lat="45.97467" lon="4.93035">
        <ele>299</ele>
        <time>2018-04-05T09:51:45Z</time>
      </trkpt>
      <trkpt lat="45.97463" lon="4.93039">
        <ele>299</ele>
        <time>2018-04-05T09:51:46Z</time>
      </trkpt>
      <trkpt lat="45.97459" lon="4.93044">
        <ele>299</ele>
        <time>2018-04-05T09:51:47Z</time>
      </trkpt>
      <trkpt lat="45.97456" lon="4.93049">
        <ele>299</ele>
        <time>2018-04-05T09:51:48Z</time>
      </trkpt>
      <trkpt lat="45.97452" lon="4.93054">
        <ele>299</ele>
        <time>2018-04-05T09:51:49Z</time>
      </trkpt>
      <trkpt lat="45.97448" lon="4.93059">
        <ele>299</ele>
        <time>2018-04-05T09:51:50Z</time>
      </trkpt>
      <trkpt lat="45.97444" lon="4.93064">
        <ele>299</ele>
        <time>2018-04-05T09:51:51Z</time>
      </trkpt>
      <trkpt lat="45.97439" lon="4.9307">
        <ele>299</ele>
        <time>2018-04-05T09:51:52Z</time>
      </trkpt>
      <trkpt lat="45.97435" lon="4.93074">
        <ele>299</ele>
        <time>2018-04-05T09:51:53Z</time>
      </trkpt>
      <trkpt lat="45.9743" lon="4.93079">
        <ele>299</ele>
        <time>2018-04-05T09:51:54Z</time>
      </trkpt>
      <trkpt lat="45.97427" lon="4.93084">
        <ele>299</ele>
        <time>2018-04-05T09:51:55Z</time>
      </trkpt>
      <trkpt lat="45.97423" lon="4.93089">
        <ele>299</ele>
        <time>2018-04-05T09:51:56Z</time>
      </trkpt>
      <trkpt lat="45.97419" lon="4.93094">
        <ele>299</ele>
        <time>2018-04-05T09:51:57Z</time>
      </trkpt>
      <trkpt lat="45.97415" lon="4.93099">
        <ele>299</ele>
        <time>2018-04-05T09:51:58Z</time>
      </trkpt>
      <trkpt lat="45.97411" lon="4.93104">
        <ele>300</ele>
        <time>2018-04-05T09:51:59Z</time>
      </trkpt>
      <trkpt lat="45.97407" lon="4.9311">
        <ele>300</ele>
        <time>2018-04-05T09:52:00Z</time>
      </trkpt>
      <trkpt lat="45.97403" lon="4.93114">
        <ele>300</ele>
        <time>2018-04-05T09:52:01Z</time>
      </trkpt>
      <trkpt lat="45.97399" lon="4.9312">
        <ele>300</ele>
        <time>2018-04-05T09:52:02Z</time>
      </trkpt>
      <trkpt lat="45.97395" lon="4.93124">
        <ele>300</ele>
        <time>2018-04-05T09:52:03Z</time>
      </trkpt>
      <trkpt lat="45.97391" lon="4.93129">
        <ele>300</ele>
        <time>2018-04-05T09:52:04Z</time>
      </trkpt>
      <trkpt lat="45.97387" lon="4.93134">
        <ele>300</ele>
        <time>2018-04-05T09:52:05Z</time>
      </trkpt>
      <trkpt lat="45.97383" lon="4.93139">
        <ele>300</ele>
        <time>2018-04-05T09:52:06Z</time>
      </trkpt>
      <trkpt lat="45.97378" lon="4.93144">
        <ele>300</ele>
        <time>2018-04-05T09:52:07Z</time>
      </trkpt>
      <trkpt lat="45.97374" lon="4.93149">
        <ele>300</ele>
        <time>2018-04-05T09:52:08Z</time>
      </trkpt>
      <trkpt lat="45.97369" lon="4.93153">
        <ele>300</ele>
        <time>2018-04-05T09:52:09Z</time>
      </trkpt>
      <trkpt lat="45.97366" lon="4.93158">
        <ele>300</ele>
        <time>2018-04-05T09:52:10Z</time>
      </trkpt>
      <trkpt lat="45.97362" lon="4.93163">
        <ele>300</ele>
        <time>2018-04-05T09:52:11Z</time>
      </trkpt>
      <trkpt lat="45.97358" lon="4.93167">
        <ele>301</ele>
        <time>2018-04-05T09:52:12Z</time>
      </trkpt>
      <trkpt lat="45.97355" lon="4.93172">
        <ele>301</ele>
        <time>2018-04-05T09:52:13Z</time>
      </trkpt>
      <trkpt lat="45.97351" lon="4.93177">
        <ele>301</ele>
        <time>2018-04-05T09:52:14Z</time>
      </trkpt>
      <trkpt lat="45.97348" lon="4.93183">
        <ele>301</ele>
        <time>2018-04-05T09:52:15Z</time>
      </trkpt>
      <trkpt lat="45.97343" lon="4.93188">
        <ele>301</ele>
        <time>2018-04-05T09:52:16Z</time>
      </trkpt>
      <trkpt lat="45.9734" lon="4.93193">
        <ele>301</ele>
        <time>2018-04-05T09:52:17Z</time>
      </trkpt>
      <trkpt lat="45.97336" lon="4.93197">
        <ele>301</ele>
        <time>2018-04-05T09:52:18Z</time>
      </trkpt>
      <trkpt lat="45.97332" lon="4.93201">
        <ele>301</ele>
        <time>2018-04-05T09:52:19Z</time>
      </trkpt>
      <trkpt lat="45.97328" lon="4.93207">
        <ele>301</ele>
        <time>2018-04-05T09:52:20Z</time>
      </trkpt>
      <trkpt lat="45.97324" lon="4.93211">
        <ele>302</ele>
        <time>2018-04-05T09:52:21Z</time>
      </trkpt>
      <trkpt lat="45.9732" lon="4.93217">
        <ele>302</ele>
        <time>2018-04-05T09:52:22Z</time>
      </trkpt>
      <trkpt lat="45.97316" lon="4.93222">
        <ele>302</ele>
        <time>2018-04-05T09:52:23Z</time>
      </trkpt>
      <trkpt lat="45.97312" lon="4.93227">
        <ele>302</ele>
        <time>2018-04-05T09:52:24Z</time>
      </trkpt>
      <trkpt lat="45.97308" lon="4.93232">
        <ele>302</ele>
        <time>2018-04-05T09:52:25Z</time>
      </trkpt>
      <trkpt lat="45.97304" lon="4.93238">
        <ele>302</ele>
        <time>2018-04-05T09:52:26Z</time>
      </trkpt>
      <trkpt lat="45.97301" lon="4.93243">
        <ele>302</ele>
        <time>2018-04-05T09:52:27Z</time>
      </trkpt>
      <trkpt lat="45.97297" lon="4.93247">
        <ele>302</ele>
        <time>2018-04-05T09:52:28Z</time>
      </trkpt>
      <trkpt lat="45.97293" lon="4.93253">
        <ele>302</ele>
        <time>2018-04-05T09:52:29Z</time>
      </trkpt>
      <trkpt lat="45.97289" lon="4.93258">
        <ele>302</ele>
        <time>2018-04-05T09:52:30Z</time>
      </trkpt>
      <trkpt lat="45.97285" lon="4.93264">
        <ele>302</ele>
        <time>2018-04-05T09:52:31Z</time>
      </trkpt>
      <trkpt lat="45.9728" lon="4.93269">
        <ele>302</ele>
        <time>2018-04-05T09:52:32Z</time>
      </trkpt>
      <trkpt lat="45.97276" lon="4.93274">
        <ele>302</ele>
        <time>2018-04-05T09:52:33Z</time>
      </trkpt>
      <trkpt lat="45.97272" lon="4.9328">
        <ele>302</ele>
        <time>2018-04-05T09:52:34Z</time>
      </trkpt>
      <trkpt lat="45.97267" lon="4.93286">
        <ele>302</ele>
        <time>2018-04-05T09:52:35Z</time>
      </trkpt>
      <trkpt lat="45.97262" lon="4.93292">
        <ele>302</ele>
        <time>2018-04-05T09:52:36Z</time>
      </trkpt>
      <trkpt lat="45.97258" lon="4.93298">
        <ele>302</ele>
        <time>2018-04-05T09:52:37Z</time>
      </trkpt>
      <trkpt lat="45.97253" lon="4.93303">
        <ele>302</ele>
        <time>2018-04-05T09:52:38Z</time>
      </trkpt>
      <trkpt lat="45.9725" lon="4.93309">
        <ele>302</ele>
        <time>2018-04-05T09:52:39Z</time>
      </trkpt>
      <trkpt lat="45.97246" lon="4.93314">
        <ele>301</ele>
        <time>2018-04-05T09:52:40Z</time>
      </trkpt>
      <trkpt lat="45.97242" lon="4.93321">
        <ele>301</ele>
        <time>2018-04-05T09:52:41Z</time>
      </trkpt>
      <trkpt lat="45.97238" lon="4.93326">
        <ele>301</ele>
        <time>2018-04-05T09:52:42Z</time>
      </trkpt>
      <trkpt lat="45.97233" lon="4.9333">
        <ele>301</ele>
        <time>2018-04-05T09:52:43Z</time>
      </trkpt>
      <trkpt lat="45.97229" lon="4.93334">
        <ele>301</ele>
        <time>2018-04-05T09:52:44Z</time>
      </trkpt>
      <trkpt lat="45.97225" lon="4.93338">
        <ele>301</ele>
        <time>2018-04-05T09:52:45Z</time>
      </trkpt>
      <trkpt lat="45.97223" lon="4.93344">
        <ele>301</ele>
        <time>2018-04-05T09:52:46Z</time>
      </trkpt>
      <trkpt lat="45.97218" lon="4.93348">
        <ele>301</ele>
        <time>2018-04-05T09:52:47Z</time>
      </trkpt>
      <trkpt lat="45.97214" lon="4.93353">
        <ele>301</ele>
        <time>2018-04-05T09:52:48Z</time>
      </trkpt>
      <trkpt lat="45.97209" lon="4.93358">
        <ele>301</ele>
        <time>2018-04-05T09:52:49Z</time>
      </trkpt>
      <trkpt lat="45.97205" lon="4.93362">
        <ele>301</ele>
        <time>2018-04-05T09:52:50Z</time>
      </trkpt>
      <trkpt lat="45.97201" lon="4.93366">
        <ele>301</ele>
        <time>2018-04-05T09:52:51Z</time>
      </trkpt>
      <trkpt lat="45.97197" lon="4.9337">
        <ele>301</ele>
        <time>2018-04-05T09:52:52Z</time>
      </trkpt>
      <trkpt lat="45.97193" lon="4.93375">
        <ele>301</ele>
        <time>2018-04-05T09:52:53Z</time>
      </trkpt>
      <trkpt lat="45.97189" lon="4.93379">
        <ele>301</ele>
        <time>2018-04-05T09:52:54Z</time>
      </trkpt>
      <trkpt lat="45.97185" lon="4.93384">
        <ele>301</ele>
        <time>2018-04-05T09:52:55Z</time>
      </trkpt>
      <trkpt lat="45.97181" lon="4.9339">
        <ele>301</ele>
        <time>2018-04-05T09:52:56Z</time>
      </trkpt>
      <trkpt lat="45.97177" lon="4.93395">
        <ele>301</ele>
        <time>2018-04-05T09:52:57Z</time>
      </trkpt>
      <trkpt lat="45.97173" lon="4.93402">
        <ele>302</ele>
        <time>2018-04-05T09:52:58Z</time>
      </trkpt>
      <trkpt lat="45.97169" lon="4.93407">
        <ele>302</ele>
        <time>2018-04-05T09:52:59Z</time>
      </trkpt>
      <trkpt lat="45.97165" lon="4.93413">
        <ele>302</ele>
        <time>2018-04-05T09:53:00Z</time>
      </trkpt>
      <trkpt lat="45.97161" lon="4.93417">
        <ele>302</ele>
        <time>2018-04-05T09:53:01Z</time>
      </trkpt>
      <trkpt lat="45.97156" lon="4.93421">
        <ele>302</ele>
        <time>2018-04-05T09:53:02Z</time>
      </trkpt>
      <trkpt lat="45.97152" lon="4.93425">
        <ele>302</ele>
        <time>2018-04-05T09:53:03Z</time>
      </trkpt>
      <trkpt lat="45.97148" lon="4.93429">
        <ele>302</ele>
        <time>2018-04-05T09:53:04Z</time>
      </trkpt>
      <trkpt lat="45.97144" lon="4.93434">
        <ele>301</ele>
        <time>2018-04-05T09:53:05Z</time>
      </trkpt>
      <trkpt lat="45.97139" lon="4.93438">
        <ele>301</ele>
        <time>2018-04-05T09:53:06Z</time>
      </trkpt>
      <trkpt lat="45.97135" lon="4.93443">
        <ele>301</ele>
        <time>2018-04-05T09:53:07Z</time>
      </trkpt>
      <trkpt lat="45.9713" lon="4.93447">
        <ele>301</ele>
        <time>2018-04-05T09:53:08Z</time>
      </trkpt>
      <trkpt lat="45.97126" lon="4.93452">
        <ele>301</ele>
        <time>2018-04-05T09:53:09Z</time>
      </trkpt>
      <trkpt lat="45.97122" lon="4.93457">
        <ele>301</ele>
        <time>2018-04-05T09:53:10Z</time>
      </trkpt>
      <trkpt lat="45.97119" lon="4.93462">
        <ele>301</ele>
        <time>2018-04-05T09:53:11Z</time>
      </trkpt>
      <trkpt lat="45.97115" lon="4.93466">
        <ele>301</ele>
        <time>2018-04-05T09:53:12Z</time>
      </trkpt>
      <trkpt lat="45.9711" lon="4.93471">
        <ele>301</ele>
        <time>2018-04-05T09:53:13Z</time>
      </trkpt>
      <trkpt lat="45.97106" lon="4.93476">
        <ele>301</ele>
        <time>2018-04-05T09:53:14Z</time>
      </trkpt>
      <trkpt lat="45.97102" lon="4.93482">
        <ele>301</ele>
        <time>2018-04-05T09:53:15Z</time>
      </trkpt>
      <trkpt lat="45.97099" lon="4.93487">
        <ele>301</ele>
        <time>2018-04-05T09:53:16Z</time>
      </trkpt>
      <trkpt lat="45.97095" lon="4.93493">
        <ele>301</ele>
        <time>2018-04-05T09:53:17Z</time>
      </trkpt>
      <trkpt lat="45.97091" lon="4.93498">
        <ele>300</ele>
        <time>2018-04-05T09:53:18Z</time>
      </trkpt>
      <trkpt lat="45.97086" lon="4.93504">
        <ele>300</ele>
        <time>2018-04-05T09:53:19Z</time>
      </trkpt>
      <trkpt lat="45.97082" lon="4.93509">
        <ele>300</ele>
        <time>2018-04-05T09:53:20Z</time>
      </trkpt>
      <trkpt lat="45.97077" lon="4.93514">
        <ele>300</ele>
        <time>2018-04-05T09:53:21Z</time>
      </trkpt>
      <trkpt lat="45.97073" lon="4.93518">
        <ele>299</ele>
        <time>2018-04-05T09:53:22Z</time>
      </trkpt>
      <trkpt lat="45.97069" lon="4.93523">
        <ele>299</ele>
        <time>2018-04-05T09:53:23Z</time>
      </trkpt>
      <trkpt lat="45.97064" lon="4.93528">
        <ele>299</ele>
        <time>2018-04-05T09:53:24Z</time>
      </trkpt>
      <trkpt lat="45.9706" lon="4.93534">
        <ele>299</ele>
        <time>2018-04-05T09:53:25Z</time>
      </trkpt>
      <trkpt lat="45.97056" lon="4.9354">
        <ele>299</ele>
        <time>2018-04-05T09:53:26Z</time>
      </trkpt>
      <trkpt lat="45.97051" lon="4.93545">
        <ele>299</ele>
        <time>2018-04-05T09:53:27Z</time>
      </trkpt>
      <trkpt lat="45.97045" lon="4.93551">
        <ele>299</ele>
        <time>2018-04-05T09:53:28Z</time>
      </trkpt>
      <trkpt lat="45.97042" lon="4.93556">
        <ele>299</ele>
        <time>2018-04-05T09:53:29Z</time>
      </trkpt>
      <trkpt lat="45.97036" lon="4.93563">
        <ele>299</ele>
        <time>2018-04-05T09:53:30Z</time>
      </trkpt>
      <trkpt lat="45.97032" lon="4.93568">
        <ele>299</ele>
        <time>2018-04-05T09:53:31Z</time>
      </trkpt>
      <trkpt lat="45.97028" lon="4.93573">
        <ele>299</ele>
        <time>2018-04-05T09:53:32Z</time>
      </trkpt>
      <trkpt lat="45.97024" lon="4.93578">
        <ele>299</ele>
        <time>2018-04-05T09:53:33Z</time>
      </trkpt>
      <trkpt lat="45.9702" lon="4.93584">
        <ele>300</ele>
        <time>2018-04-05T09:53:34Z</time>
      </trkpt>
      <trkpt lat="45.97016" lon="4.93589">
        <ele>299</ele>
        <time>2018-04-05T09:53:35Z</time>
      </trkpt>
      <trkpt lat="45.97011" lon="4.93594">
        <ele>299</ele>
        <time>2018-04-05T09:53:36Z</time>
      </trkpt>
      <trkpt lat="45.97008" lon="4.93599">
        <ele>300</ele>
        <time>2018-04-05T09:53:37Z</time>
      </trkpt>
      <trkpt lat="45.97003" lon="4.93605">
        <ele>300</ele>
        <time>2018-04-05T09:53:38Z</time>
      </trkpt>
      <trkpt lat="45.96999" lon="4.9361">
        <ele>299</ele>
        <time>2018-04-05T09:53:39Z</time>
      </trkpt>
      <trkpt lat="45.96995" lon="4.93615">
        <ele>299</ele>
        <time>2018-04-05T09:53:40Z</time>
      </trkpt>
      <trkpt lat="45.96991" lon="4.9362">
        <ele>299</ele>
        <time>2018-04-05T09:53:41Z</time>
      </trkpt>
      <trkpt lat="45.96987" lon="4.93626">
        <ele>299</ele>
        <time>2018-04-05T09:53:42Z</time>
      </trkpt>
      <trkpt lat="45.96983" lon="4.93631">
        <ele>299</ele>
        <time>2018-04-05T09:53:43Z</time>
      </trkpt>
      <trkpt lat="45.96978" lon="4.93637">
        <ele>299</ele>
        <time>2018-04-05T09:53:44Z</time>
      </trkpt>
      <trkpt lat="45.96975" lon="4.93643">
        <ele>299</ele>
        <time>2018-04-05T09:53:45Z</time>
      </trkpt>
      <trkpt lat="45.96971" lon="4.93648">
        <ele>299</ele>
        <time>2018-04-05T09:53:46Z</time>
      </trkpt>
      <trkpt lat="45.96966" lon="4.93654">
        <ele>299</ele>
        <time>2018-04-05T09:53:47Z</time>
      </trkpt>
      <trkpt lat="45.96961" lon="4.9366">
        <ele>299</ele>
        <time>2018-04-05T09:53:48Z</time>
      </trkpt>
      <trkpt lat="45.96956" lon="4.93666">
        <ele>299</ele>
        <time>2018-04-05T09:53:49Z</time>
      </trkpt>
      <trkpt lat="45.96952" lon="4.93672">
        <ele>298</ele>
        <time>2018-04-05T09:53:50Z</time>
      </trkpt>
      <trkpt lat="45.96947" lon="4.93678">
        <ele>298</ele>
        <time>2018-04-05T09:53:51Z</time>
      </trkpt>
      <trkpt lat="45.96941" lon="4.93684">
        <ele>298</ele>
        <time>2018-04-05T09:53:52Z</time>
      </trkpt>
      <trkpt lat="45.96935" lon="4.9369">
        <ele>298</ele>
        <time>2018-04-05T09:53:53Z</time>
      </trkpt>
      <trkpt lat="45.96929" lon="4.93695">
        <ele>298</ele>
        <time>2018-04-05T09:53:54Z</time>
      </trkpt>
      <trkpt lat="45.96925" lon="4.93701">
        <ele>298</ele>
        <time>2018-04-05T09:53:55Z</time>
      </trkpt>
      <trkpt lat="45.96921" lon="4.93705">
        <ele>298</ele>
        <time>2018-04-05T09:53:56Z</time>
      </trkpt>
      <trkpt lat="45.96916" lon="4.93709">
        <ele>297</ele>
        <time>2018-04-05T09:53:57Z</time>
      </trkpt>
      <trkpt lat="45.9691" lon="4.93713">
        <ele>297</ele>
        <time>2018-04-05T09:53:58Z</time>
      </trkpt>
      <trkpt lat="45.96905" lon="4.93718">
        <ele>297</ele>
        <time>2018-04-05T09:53:59Z</time>
      </trkpt>
      <trkpt lat="45.969" lon="4.93722">
        <ele>297</ele>
        <time>2018-04-05T09:54:00Z</time>
      </trkpt>
      <trkpt lat="45.96894" lon="4.93725">
        <ele>297</ele>
        <time>2018-04-05T09:54:01Z</time>
      </trkpt>
      <trkpt lat="45.96887" lon="4.93729">
        <ele>297</ele>
        <time>2018-04-05T09:54:02Z</time>
      </trkpt>
      <trkpt lat="45.96881" lon="4.93733">
        <ele>297</ele>
        <time>2018-04-05T09:54:03Z</time>
      </trkpt>
      <trkpt lat="45.96875" lon="4.93736">
        <ele>297</ele>
        <time>2018-04-05T09:54:04Z</time>
      </trkpt>
      <trkpt lat="45.96869" lon="4.93738">
        <ele>297</ele>
        <time>2018-04-05T09:54:05Z</time>
      </trkpt>
      <trkpt lat="45.96863" lon="4.93742">
        <ele>297</ele>
        <time>2018-04-05T09:54:06Z</time>
      </trkpt>
      <trkpt lat="45.96856" lon="4.93744">
        <ele>297</ele>
        <time>2018-04-05T09:54:07Z</time>
      </trkpt>
      <trkpt lat="45.96851" lon="4.93747">
        <ele>296</ele>
        <time>2018-04-05T09:54:08Z</time>
      </trkpt>
      <trkpt lat="45.96844" lon="4.93749">
        <ele>296</ele>
        <time>2018-04-05T09:54:09Z</time>
      </trkpt>
      <trkpt lat="45.96838" lon="4.9375">
        <ele>296</ele>
        <time>2018-04-05T09:54:10Z</time>
      </trkpt>
      <trkpt lat="45.96832" lon="4.93753">
        <ele>296</ele>
        <time>2018-04-05T09:54:11Z</time>
      </trkpt>
      <trkpt lat="45.96825" lon="4.93755">
        <ele>296</ele>
        <time>2018-04-05T09:54:12Z</time>
      </trkpt>
      <trkpt lat="45.9682" lon="4.93757">
        <ele>296</ele>
        <time>2018-04-05T09:54:13Z</time>
      </trkpt>
      <trkpt lat="45.96813" lon="4.93759">
        <ele>295</ele>
        <time>2018-04-05T09:54:14Z</time>
      </trkpt>
      <trkpt lat="45.96805" lon="4.93761">
        <ele>295</ele>
        <time>2018-04-05T09:54:15Z</time>
      </trkpt>
      <trkpt lat="45.96799" lon="4.93764">
        <ele>295</ele>
        <time>2018-04-05T09:54:16Z</time>
      </trkpt>
      <trkpt lat="45.96792" lon="4.93766">
        <ele>295</ele>
        <time>2018-04-05T09:54:17Z</time>
      </trkpt>
      <trkpt lat="45.96785" lon="4.93768">
        <ele>295</ele>
        <time>2018-04-05T09:54:18Z</time>
      </trkpt>
      <trkpt lat="45.96778" lon="4.9377">
        <ele>295</ele>
        <time>2018-04-05T09:54:19Z</time>
      </trkpt>
      <trkpt lat="45.96772" lon="4.93772">
        <ele>295</ele>
        <time>2018-04-05T09:54:20Z</time>
      </trkpt>
      <trkpt lat="45.96765" lon="4.93775">
        <ele>295</ele>
        <time>2018-04-05T09:54:21Z</time>
      </trkpt>
      <trkpt lat="45.96759" lon="4.93777">
        <ele>295</ele>
        <time>2018-04-05T09:54:22Z</time>
      </trkpt>
      <trkpt lat="45.96752" lon="4.9378">
        <ele>295</ele>
        <time>2018-04-05T09:54:23Z</time>
      </trkpt>
      <trkpt lat="45.96747" lon="4.93782">
        <ele>295</ele>
        <time>2018-04-05T09:54:24Z</time>
      </trkpt>
      <trkpt lat="45.9674" lon="4.93785">
        <ele>296</ele>
        <time>2018-04-05T09:54:25Z</time>
      </trkpt>
      <trkpt lat="45.96733" lon="4.93787">
        <ele>296</ele>
        <time>2018-04-05T09:54:26Z</time>
      </trkpt>
      <trkpt lat="45.96727" lon="4.93789">
        <ele>296</ele>
        <time>2018-04-05T09:54:27Z</time>
      </trkpt>
      <trkpt lat="45.96722" lon="4.93791">
        <ele>296</ele>
        <time>2018-04-05T09:54:28Z</time>
      </trkpt>
      <trkpt lat="45.96716" lon="4.93793">
        <ele>296</ele>
        <time>2018-04-05T09:54:29Z</time>
      </trkpt>
      <trkpt lat="45.9671" lon="4.93796">
        <ele>296</ele>
        <time>2018-04-05T09:54:30Z</time>
      </trkpt>
      <trkpt lat="45.96705" lon="4.93798">
        <ele>296</ele>
        <time>2018-04-05T09:54:31Z</time>
      </trkpt>
      <trkpt lat="45.96699" lon="4.93799">
        <ele>296</ele>
        <time>2018-04-05T09:54:32Z</time>
      </trkpt>
      <trkpt lat="45.96693" lon="4.93801">
        <ele>297</ele>
        <time>2018-04-05T09:54:33Z</time>
      </trkpt>
      <trkpt lat="45.96687" lon="4.93803">
        <ele>297</ele>
        <time>2018-04-05T09:54:34Z</time>
      </trkpt>
      <trkpt lat="45.96682" lon="4.93805">
        <ele>297</ele>
        <time>2018-04-05T09:54:35Z</time>
      </trkpt>
      <trkpt lat="45.96675" lon="4.93808">
        <ele>297</ele>
        <time>2018-04-05T09:54:36Z</time>
      </trkpt>
      <trkpt lat="45.96669" lon="4.9381">
        <ele>297</ele>
        <time>2018-04-05T09:54:37Z</time>
      </trkpt>
      <trkpt lat="45.96663" lon="4.93812">
        <ele>297</ele>
        <time>2018-04-05T09:54:38Z</time>
      </trkpt>
      <trkpt lat="45.96658" lon="4.93813">
        <ele>297</ele>
        <time>2018-04-05T09:54:39Z</time>
      </trkpt>
      <trkpt lat="45.96651" lon="4.93816">
        <ele>297</ele>
        <time>2018-04-05T09:54:40Z</time>
      </trkpt>
      <trkpt lat="45.96645" lon="4.93818">
        <ele>297</ele>
        <time>2018-04-05T09:54:41Z</time>
      </trkpt>
      <trkpt lat="45.96639" lon="4.93821">
        <ele>297</ele>
        <time>2018-04-05T09:54:42Z</time>
      </trkpt>
      <trkpt lat="45.96633" lon="4.93823">
        <ele>297</ele>
        <time>2018-04-05T09:54:43Z</time>
      </trkpt>
      <trkpt lat="45.96626" lon="4.93826">
        <ele>297</ele>
        <time>2018-04-05T09:54:44Z</time>
      </trkpt>
      <trkpt lat="45.9662" lon="4.93828">
        <ele>297</ele>
        <time>2018-04-05T09:54:45Z</time>
      </trkpt>
      <trkpt lat="45.96614" lon="4.9383">
        <ele>297</ele>
        <time>2018-04-05T09:54:46Z</time>
      </trkpt>
      <trkpt lat="45.96609" lon="4.93833">
        <ele>297</ele>
        <time>2018-04-05T09:54:47Z</time>
      </trkpt>
      <trkpt lat="45.96603" lon="4.93834">
        <ele>296</ele>
        <time>2018-04-05T09:54:48Z</time>
      </trkpt>
      <trkpt lat="45.96597" lon="4.93836">
        <ele>296</ele>
        <time>2018-04-05T09:54:49Z</time>
      </trkpt>
      <trkpt lat="45.96591" lon="4.93837">
        <ele>296</ele>
        <time>2018-04-05T09:54:50Z</time>
      </trkpt>
      <trkpt lat="45.96586" lon="4.93839">
        <ele>296</ele>
        <time>2018-04-05T09:54:51Z</time>
      </trkpt>
      <trkpt lat="45.96581" lon="4.93841">
        <ele>296</ele>
        <time>2018-04-05T09:54:52Z</time>
      </trkpt>
      <trkpt lat="45.96575" lon="4.93842">
        <ele>296</ele>
        <time>2018-04-05T09:54:53Z</time>
      </trkpt>
      <trkpt lat="45.96569" lon="4.93844">
        <ele>296</ele>
        <time>2018-04-05T09:54:54Z</time>
      </trkpt>
      <trkpt lat="45.96563" lon="4.93847">
        <ele>296</ele>
        <time>2018-04-05T09:54:55Z</time>
      </trkpt>
      <trkpt lat="45.96557" lon="4.93849">
        <ele>296</ele>
        <time>2018-04-05T09:54:56Z</time>
      </trkpt>
      <trkpt lat="45.96552" lon="4.93851">
        <ele>296</ele>
        <time>2018-04-05T09:54:57Z</time>
      </trkpt>
      <trkpt lat="45.96546" lon="4.93853">
        <ele>296</ele>
        <time>2018-04-05T09:54:58Z</time>
      </trkpt>
      <trkpt lat="45.9654" lon="4.93855">
        <ele>296</ele>
        <time>2018-04-05T09:54:59Z</time>
      </trkpt>
      <trkpt lat="45.96534" lon="4.93858">
        <ele>296</ele>
        <time>2018-04-05T09:55:00Z</time>
      </trkpt>
      <trkpt lat="45.96528" lon="4.9386">
        <ele>296</ele>
        <time>2018-04-05T09:55:01Z</time>
      </trkpt>
      <trkpt lat="45.96522" lon="4.93862">
        <ele>296</ele>
        <time>2018-04-05T09:55:02Z</time>
      </trkpt>
      <trkpt lat="45.96515" lon="4.93864">
        <ele>296</ele>
        <time>2018-04-05T09:55:03Z</time>
      </trkpt>
      <trkpt lat="45.96509" lon="4.93866">
        <ele>296</ele>
        <time>2018-04-05T09:55:04Z</time>
      </trkpt>
      <trkpt lat="45.96504" lon="4.93868">
        <ele>296</ele>
        <time>2018-04-05T09:55:05Z</time>
      </trkpt>
      <trkpt lat="45.96498" lon="4.93871">
        <ele>296</ele>
        <time>2018-04-05T09:55:06Z</time>
      </trkpt>
      <trkpt lat="45.96492" lon="4.93873">
        <ele>296</ele>
        <time>2018-04-05T09:55:07Z</time>
      </trkpt>
      <trkpt lat="45.96486" lon="4.93875">
        <ele>295</ele>
        <time>2018-04-05T09:55:08Z</time>
      </trkpt>
      <trkpt lat="45.96481" lon="4.93877">
        <ele>295</ele>
        <time>2018-04-05T09:55:09Z</time>
      </trkpt>
      <trkpt lat="45.96475" lon="4.93879">
        <ele>295</ele>
        <time>2018-04-05T09:55:10Z</time>
      </trkpt>
      <trkpt lat="45.96469" lon="4.93881">
        <ele>295</ele>
        <time>2018-04-05T09:55:11Z</time>
      </trkpt>
      <trkpt lat="45.96461" lon="4.93884">
        <ele>295</ele>
        <time>2018-04-05T09:55:12Z</time>
      </trkpt>
      <trkpt lat="45.96455" lon="4.93885">
        <ele>296</ele>
        <time>2018-04-05T09:55:13Z</time>
      </trkpt>
      <trkpt lat="45.96448" lon="4.93887">
        <ele>296</ele>
        <time>2018-04-05T09:55:14Z</time>
      </trkpt>
      <trkpt lat="45.9644" lon="4.9389">
        <ele>296</ele>
        <time>2018-04-05T09:55:15Z</time>
      </trkpt>
      <trkpt lat="45.96434" lon="4.93893">
        <ele>296</ele>
        <time>2018-04-05T09:55:16Z</time>
      </trkpt>
      <trkpt lat="45.96428" lon="4.93896">
        <ele>296</ele>
        <time>2018-04-05T09:55:17Z</time>
      </trkpt>
      <trkpt lat="45.96422" lon="4.93898">
        <ele>296</ele>
        <time>2018-04-05T09:55:18Z</time>
      </trkpt>
      <trkpt lat="45.96416" lon="4.939">
        <ele>295</ele>
        <time>2018-04-05T09:55:19Z</time>
      </trkpt>
      <trkpt lat="45.9641" lon="4.93903">
        <ele>295</ele>
        <time>2018-04-05T09:55:20Z</time>
      </trkpt>
      <trkpt lat="45.96403" lon="4.93904">
        <ele>295</ele>
        <time>2018-04-05T09:55:21Z</time>
      </trkpt>
      <trkpt lat="45.96397" lon="4.93907">
        <ele>295</ele>
        <time>2018-04-05T09:55:22Z</time>
      </trkpt>
      <trkpt lat="45.96391" lon="4.93909">
        <ele>294</ele>
        <time>2018-04-05T09:55:23Z</time>
      </trkpt>
      <trkpt lat="45.96385" lon="4.93911">
        <ele>294</ele>
        <time>2018-04-05T09:55:24Z</time>
      </trkpt>
      <trkpt lat="45.96379" lon="4.93914">
        <ele>294</ele>
        <time>2018-04-05T09:55:25Z</time>
      </trkpt>
      <trkpt lat="45.96373" lon="4.93916">
        <ele>294</ele>
        <time>2018-04-05T09:55:26Z</time>
      </trkpt>
      <trkpt lat="45.96367" lon="4.93918">
        <ele>294</ele>
        <time>2018-04-05T09:55:27Z</time>
      </trkpt>
      <trkpt lat="45.96361" lon="4.9392">
        <ele>294</ele>
        <time>2018-04-05T09:55:28Z</time>
      </trkpt>
      <trkpt lat="45.96355" lon="4.93922">
        <ele>294</ele>
        <time>2018-04-05T09:55:29Z</time>
      </trkpt>
      <trkpt lat="45.96348" lon="4.93924">
        <ele>293</ele>
        <time>2018-04-05T09:55:30Z</time>
      </trkpt>
      <trkpt lat="45.96342" lon="4.93926">
        <ele>293</ele>
        <time>2018-04-05T09:55:31Z</time>
      </trkpt>
      <trkpt lat="45.96336" lon="4.93929">
        <ele>293</ele>
        <time>2018-04-05T09:55:32Z</time>
      </trkpt>
      <trkpt lat="45.9633" lon="4.93931">
        <ele>292</ele>
        <time>2018-04-05T09:55:33Z</time>
      </trkpt>
      <trkpt lat="45.96323" lon="4.93934">
        <ele>292</ele>
        <time>2018-04-05T09:55:34Z</time>
      </trkpt>
      <trkpt lat="45.96316" lon="4.93936">
        <ele>292</ele>
        <time>2018-04-05T09:55:35Z</time>
      </trkpt>
      <trkpt lat="45.96309" lon="4.93938">
        <ele>292</ele>
        <time>2018-04-05T09:55:36Z</time>
      </trkpt>
      <trkpt lat="45.96302" lon="4.9394">
        <ele>292</ele>
        <time>2018-04-05T09:55:37Z</time>
      </trkpt>
      <trkpt lat="45.96295" lon="4.93943">
        <ele>292</ele>
        <time>2018-04-05T09:55:38Z</time>
      </trkpt>
      <trkpt lat="45.96287" lon="4.93946">
        <ele>292</ele>
        <time>2018-04-05T09:55:39Z</time>
      </trkpt>
      <trkpt lat="45.9628" lon="4.93948">
        <ele>291</ele>
        <time>2018-04-05T09:55:40Z</time>
      </trkpt>
      <trkpt lat="45.96273" lon="4.9395">
        <ele>291</ele>
        <time>2018-04-05T09:55:41Z</time>
      </trkpt>
      <trkpt lat="45.96265" lon="4.93954">
        <ele>291</ele>
        <time>2018-04-05T09:55:42Z</time>
      </trkpt>
      <trkpt lat="45.96258" lon="4.93958">
        <ele>291</ele>
        <time>2018-04-05T09:55:43Z</time>
      </trkpt>
      <trkpt lat="45.96249" lon="4.93962">
        <ele>290</ele>
        <time>2018-04-05T09:55:44Z</time>
      </trkpt>
      <trkpt lat="45.96242" lon="4.93966">
        <ele>290</ele>
        <time>2018-04-05T09:55:45Z</time>
      </trkpt>
      <trkpt lat="45.96236" lon="4.93971">
        <ele>290</ele>
        <time>2018-04-05T09:55:46Z</time>
      </trkpt>
      <trkpt lat="45.9623" lon="4.93977">
        <ele>290</ele>
        <time>2018-04-05T09:55:47Z</time>
      </trkpt>
      <trkpt lat="45.96223" lon="4.93982">
        <ele>290</ele>
        <time>2018-04-05T09:55:48Z</time>
      </trkpt>
      <trkpt lat="45.96216" lon="4.93987">
        <ele>290</ele>
        <time>2018-04-05T09:55:49Z</time>
      </trkpt>
      <trkpt lat="45.96209" lon="4.93992">
        <ele>290</ele>
        <time>2018-04-05T09:55:50Z</time>
      </trkpt>
      <trkpt lat="45.96203" lon="4.93996">
        <ele>290</ele>
        <time>2018-04-05T09:55:51Z</time>
      </trkpt>
      <trkpt lat="45.96197" lon="4.94">
        <ele>290</ele>
        <time>2018-04-05T09:55:52Z</time>
      </trkpt>
      <trkpt lat="45.96191" lon="4.94005">
        <ele>290</ele>
        <time>2018-04-05T09:55:53Z</time>
      </trkpt>
      <trkpt lat="45.96185" lon="4.9401">
        <ele>290</ele>
        <time>2018-04-05T09:55:54Z</time>
      </trkpt>
      <trkpt lat="45.9618" lon="4.94015">
        <ele>290</ele>
        <time>2018-04-05T09:55:55Z</time>
      </trkpt>
      <trkpt lat="45.96174" lon="4.94019">
        <ele>290</ele>
        <time>2018-04-05T09:55:56Z</time>
      </trkpt>
      <trkpt lat="45.96169" lon="4.94023">
        <ele>290</ele>
        <time>2018-04-05T09:55:57Z</time>
      </trkpt>
      <trkpt lat="45.96163" lon="4.94028">
        <ele>290</ele>
        <time>2018-04-05T09:55:58Z</time>
      </trkpt>
      <trkpt lat="45.96158" lon="4.94032">
        <ele>290</ele>
        <time>2018-04-05T09:55:59Z</time>
      </trkpt>
      <trkpt lat="45.96154" lon="4.94037">
        <ele>290</ele>
        <time>2018-04-05T09:56:00Z</time>
      </trkpt>
      <trkpt lat="45.9615" lon="4.94041">
        <ele>290</ele>
        <time>2018-04-05T09:56:01Z</time>
      </trkpt>
      <trkpt lat="45.96145" lon="4.94045">
        <ele>290</ele>
        <time>2018-04-05T09:56:02Z</time>
      </trkpt>
      <trkpt lat="45.96139" lon="4.9405">
        <ele>290</ele>
        <time>2018-04-05T09:56:03Z</time>
      </trkpt>
      <trkpt lat="45.96135" lon="4.94054">
        <ele>290</ele>
        <time>2018-04-05T09:56:04Z</time>
      </trkpt>
      <trkpt lat="45.9613" lon="4.94057">
        <ele>290</ele>
        <time>2018-04-05T09:56:05Z</time>
      </trkpt>
      <trkpt lat="45.96124" lon="4.94062">
        <ele>290</ele>
        <time>2018-04-05T09:56:06Z</time>
      </trkpt>
      <trkpt lat="45.96119" lon="4.94066">
        <ele>290</ele>
        <time>2018-04-05T09:56:07Z</time>
      </trkpt>
      <trkpt lat="45.96115" lon="4.9407">
        <ele>290</ele>
        <time>2018-04-05T09:56:08Z</time>
      </trkpt>
      <trkpt lat="45.96109" lon="4.94075">
        <ele>291</ele>
        <time>2018-04-05T09:56:09Z</time>
      </trkpt>
      <trkpt lat="45.96105" lon="4.9408">
        <ele>291</ele>
        <time>2018-04-05T09:56:10Z</time>
      </trkpt>
      <trkpt lat="45.96098" lon="4.94085">
        <ele>291</ele>
        <time>2018-04-05T09:56:11Z</time>
      </trkpt>
      <trkpt lat="45.96091" lon="4.9409">
        <ele>291</ele>
        <time>2018-04-05T09:56:12Z</time>
      </trkpt>
      <trkpt lat="45.96086" lon="4.94095">
        <ele>291</ele>
        <time>2018-04-05T09:56:13Z</time>
      </trkpt>
      <trkpt lat="45.9608" lon="4.941">
        <ele>291</ele>
        <time>2018-04-05T09:56:14Z</time>
      </trkpt>
      <trkpt lat="45.96075" lon="4.94105">
        <ele>291</ele>
        <time>2018-04-05T09:56:15Z</time>
      </trkpt>
      <trkpt lat="45.96069" lon="4.94109">
        <ele>291</ele>
        <time>2018-04-05T09:56:16Z</time>
      </trkpt>
      <trkpt lat="45.96063" lon="4.94116">
        <ele>291</ele>
        <time>2018-04-05T09:56:17Z</time>
      </trkpt>
      <trkpt lat="45.96057" lon="4.9412">
        <ele>291</ele>
        <time>2018-04-05T09:56:18Z</time>
      </trkpt>
      <trkpt lat="45.96051" lon="4.94124">
        <ele>291</ele>
        <time>2018-04-05T09:56:19Z</time>
      </trkpt>
      <trkpt lat="45.96044" lon="4.94127">
        <ele>291</ele>
        <time>2018-04-05T09:56:20Z</time>
      </trkpt>
      <trkpt lat="45.96038" lon="4.94129">
        <ele>291</ele>
        <time>2018-04-05T09:56:21Z</time>
      </trkpt>
      <trkpt lat="45.96031" lon="4.94131">
        <ele>291</ele>
        <time>2018-04-05T09:56:22Z</time>
      </trkpt>
      <trkpt lat="45.96025" lon="4.94131">
        <ele>291</ele>
        <time>2018-04-05T09:56:23Z</time>
      </trkpt>
      <trkpt lat="45.96018" lon="4.94129">
        <ele>291</ele>
        <time>2018-04-05T09:56:24Z</time>
      </trkpt>
      <trkpt lat="45.96012" lon="4.94127">
        <ele>291</ele>
        <time>2018-04-05T09:56:25Z</time>
      </trkpt>
      <trkpt lat="45.96006" lon="4.94126">
        <ele>291</ele>
        <time>2018-04-05T09:56:26Z</time>
      </trkpt>
      <trkpt lat="45.96" lon="4.94124">
        <ele>291</ele>
        <time>2018-04-05T09:56:27Z</time>
      </trkpt>
      <trkpt lat="45.95994" lon="4.94122">
        <ele>291</ele>
        <time>2018-04-05T09:56:28Z</time>
      </trkpt>
      <trkpt lat="45.95988" lon="4.9412">
        <ele>292</ele>
        <time>2018-04-05T09:56:29Z</time>
      </trkpt>
      <trkpt lat="45.95983" lon="4.94119">
        <ele>292</ele>
        <time>2018-04-05T09:56:30Z</time>
      </trkpt>
      <trkpt lat="45.95977" lon="4.94117">
        <ele>292</ele>
        <time>2018-04-05T09:56:31Z</time>
      </trkpt>
      <trkpt lat="45.95971" lon="4.94116">
        <ele>292</ele>
        <time>2018-04-05T09:56:32Z</time>
      </trkpt>
      <trkpt lat="45.95966" lon="4.94113">
        <ele>292</ele>
        <time>2018-04-05T09:56:33Z</time>
      </trkpt>
      <trkpt lat="45.9596" lon="4.94111">
        <ele>292</ele>
        <time>2018-04-05T09:56:34Z</time>
      </trkpt>
      <trkpt lat="45.95955" lon="4.94108">
        <ele>292</ele>
        <time>2018-04-05T09:56:35Z</time>
      </trkpt>
      <trkpt lat="45.9595" lon="4.94107">
        <ele>292</ele>
        <time>2018-04-05T09:56:36Z</time>
      </trkpt>
      <trkpt lat="45.95945" lon="4.94106">
        <ele>292</ele>
        <time>2018-04-05T09:56:37Z</time>
      </trkpt>
      <trkpt lat="45.95941" lon="4.94104">
        <ele>292</ele>
        <time>2018-04-05T09:56:38Z</time>
      </trkpt>
      <trkpt lat="45.95936" lon="4.94103">
        <ele>292</ele>
        <time>2018-04-05T09:56:39Z</time>
      </trkpt>
      <trkpt lat="45.95931" lon="4.94101">
        <ele>292</ele>
        <time>2018-04-05T09:56:40Z</time>
      </trkpt>
      <trkpt lat="45.95925" lon="4.941">
        <ele>292</ele>
        <time>2018-04-05T09:56:41Z</time>
      </trkpt>
      <trkpt lat="45.95921" lon="4.94098">
        <ele>292</ele>
        <time>2018-04-05T09:56:42Z</time>
      </trkpt>
      <trkpt lat="45.95916" lon="4.94097">
        <ele>293</ele>
        <time>2018-04-05T09:56:43Z</time>
      </trkpt>
      <trkpt lat="45.95912" lon="4.94096">
        <ele>293</ele>
        <time>2018-04-05T09:56:44Z</time>
      </trkpt>
      <trkpt lat="45.95907" lon="4.94096">
        <ele>293</ele>
        <time>2018-04-05T09:56:45Z</time>
      </trkpt>
      <trkpt lat="45.95901" lon="4.94095">
        <ele>293</ele>
        <time>2018-04-05T09:56:46Z</time>
      </trkpt>
      <trkpt lat="45.95896" lon="4.94093">
        <ele>293</ele>
        <time>2018-04-05T09:56:47Z</time>
      </trkpt>
      <trkpt lat="45.95891" lon="4.94092">
        <ele>293</ele>
        <time>2018-04-05T09:56:48Z</time>
      </trkpt>
      <trkpt lat="45.95882" lon="4.9409">
        <ele>293</ele>
        <time>2018-04-05T09:56:50Z</time>
      </trkpt>
      <trkpt lat="45.95877" lon="4.94089">
        <ele>293</ele>
        <time>2018-04-05T09:56:51Z</time>
      </trkpt>
      <trkpt lat="45.95868" lon="4.94086">
        <ele>293</ele>
        <time>2018-04-05T09:56:53Z</time>
      </trkpt>
      <trkpt lat="45.95864" lon="4.94085">
        <ele>293</ele>
        <time>2018-04-05T09:56:54Z</time>
      </trkpt>
      <trkpt lat="45.95856" lon="4.94082">
        <ele>293</ele>
        <time>2018-04-05T09:56:56Z</time>
      </trkpt>
      <trkpt lat="45.95852" lon="4.94081">
        <ele>293</ele>
        <time>2018-04-05T09:56:57Z</time>
      </trkpt>
      <trkpt lat="45.95843" lon="4.94078">
        <ele>294</ele>
        <time>2018-04-05T09:56:59Z</time>
      </trkpt>
      <trkpt lat="45.95839" lon="4.94077">
        <ele>294</ele>
        <time>2018-04-05T09:57:00Z</time>
      </trkpt>
      <trkpt lat="45.95832" lon="4.94076">
        <ele>294</ele>
        <time>2018-04-05T09:57:02Z</time>
      </trkpt>
      <trkpt lat="45.95828" lon="4.94075">
        <ele>294</ele>
        <time>2018-04-05T09:57:03Z</time>
      </trkpt>
      <trkpt lat="45.95822" lon="4.94072">
        <ele>294</ele>
        <time>2018-04-05T09:57:05Z</time>
      </trkpt>
      <trkpt lat="45.95818" lon="4.94072">
        <ele>294</ele>
        <time>2018-04-05T09:57:06Z</time>
      </trkpt>
      <trkpt lat="45.9581" lon="4.9407">
        <ele>294</ele>
        <time>2018-04-05T09:57:08Z</time>
      </trkpt>
      <trkpt lat="45.95807" lon="4.94068">
        <ele>294</ele>
        <time>2018-04-05T09:57:09Z</time>
      </trkpt>
      <trkpt lat="45.958" lon="4.94065">
        <ele>294</ele>
        <time>2018-04-05T09:57:11Z</time>
      </trkpt>
      <trkpt lat="45.95796" lon="4.94064">
        <ele>294</ele>
        <time>2018-04-05T09:57:12Z</time>
      </trkpt>
      <trkpt lat="45.95788" lon="4.94062">
        <ele>294</ele>
        <time>2018-04-05T09:57:14Z</time>
      </trkpt>
      <trkpt lat="45.95783" lon="4.94061">
        <ele>294</ele>
        <time>2018-04-05T09:57:15Z</time>
      </trkpt>
      <trkpt lat="45.95778" lon="4.94061">
        <ele>294</ele>
        <time>2018-04-05T09:57:16Z</time>
      </trkpt>
      <trkpt lat="45.95773" lon="4.94059">
        <ele>294</ele>
        <time>2018-04-05T09:57:17Z</time>
      </trkpt>
      <trkpt lat="45.95767" lon="4.94057">
        <ele>294</ele>
        <time>2018-04-05T09:57:19Z</time>
      </trkpt>
      <trkpt lat="45.95762" lon="4.94055">
        <ele>294</ele>
        <time>2018-04-05T09:57:20Z</time>
      </trkpt>
      <trkpt lat="45.95757" lon="4.94053">
        <ele>294</ele>
        <time>2018-04-05T09:57:21Z</time>
      </trkpt>
      <trkpt lat="45.95752" lon="4.94052">
        <ele>294</ele>
        <time>2018-04-05T09:57:22Z</time>
      </trkpt>
      <trkpt lat="45.95744" lon="4.94052">
        <ele>295</ele>
        <time>2018-04-05T09:57:24Z</time>
      </trkpt>
      <trkpt lat="45.95741" lon="4.94051">
        <ele>295</ele>
        <time>2018-04-05T09:57:25Z</time>
      </trkpt>
      <trkpt lat="45.95736" lon="4.94049">
        <ele>295</ele>
        <time>2018-04-05T09:57:26Z</time>
      </trkpt>
      <trkpt lat="45.95731" lon="4.94048">
        <ele>295</ele>
        <time>2018-04-05T09:57:27Z</time>
      </trkpt>
      <trkpt lat="45.95727" lon="4.94047">
        <ele>295</ele>
        <time>2018-04-05T09:57:28Z</time>
      </trkpt>
      <trkpt lat="45.95722" lon="4.94045">
        <ele>295</ele>
        <time>2018-04-05T09:57:29Z</time>
      </trkpt>
      <trkpt lat="45.95713" lon="4.94043">
        <ele>295</ele>
        <time>2018-04-05T09:57:31Z</time>
      </trkpt>
      <trkpt lat="45.95708" lon="4.94042">
        <ele>295</ele>
        <time>2018-04-05T09:57:32Z</time>
      </trkpt>
      <trkpt lat="45.95701" lon="4.9404">
        <ele>295</ele>
        <time>2018-04-05T09:57:34Z</time>
      </trkpt>
      <trkpt lat="45.95696" lon="4.9404">
        <ele>295</ele>
        <time>2018-04-05T09:57:35Z</time>
      </trkpt>
      <trkpt lat="45.95688" lon="4.94036">
        <ele>295</ele>
        <time>2018-04-05T09:57:37Z</time>
      </trkpt>
      <trkpt lat="45.95683" lon="4.94035">
        <ele>295</ele>
        <time>2018-04-05T09:57:38Z</time>
      </trkpt>
      <trkpt lat="45.95675" lon="4.94034">
        <ele>295</ele>
        <time>2018-04-05T09:57:40Z</time>
      </trkpt>
      <trkpt lat="45.95671" lon="4.94032">
        <ele>295</ele>
        <time>2018-04-05T09:57:41Z</time>
      </trkpt>
      <trkpt lat="45.95669" lon="4.94021">
        <ele>295</ele>
        <time>2018-04-05T09:57:44Z</time>
      </trkpt>
      <trkpt lat="45.9567" lon="4.94018">
        <ele>295</ele>
        <time>2018-04-05T09:57:45Z</time>
      </trkpt>
      <trkpt lat="45.9567" lon="4.94012">
        <ele>295</ele>
        <time>2018-04-05T09:57:47Z</time>
      </trkpt>
      <trkpt lat="45.9567" lon="4.94002">
        <ele>296</ele>
        <time>2018-04-05T09:57:48Z</time>
      </trkpt>
      <trkpt lat="45.95668" lon="4.93991">
        <ele>295</ele>
        <time>2018-04-05T09:57:53Z</time>
      </trkpt>
      <trkpt lat="45.95667" lon="4.93989">
        <ele>295</ele>
        <time>2018-04-05T09:57:54Z</time>
      </trkpt>
      <trkpt lat="45.9566" lon="4.93986">
        <ele>295</ele>
        <time>2018-04-05T09:58:01Z</time>
      </trkpt>
      <trkpt lat="45.9566" lon="4.93986">
        <ele>295</ele>
        <time>2018-04-05T09:58:02Z</time>
      </trkpt>
      <trkpt lat="45.95659" lon="4.93986">
        <ele>295</ele>
        <time>2018-04-05T09:58:12Z</time>
      </trkpt>
      <trkpt lat="45.95659" lon="4.93986">
        <ele>295</ele>
        <time>2018-04-05T09:58:13Z</time>
      </trkpt>
      <trkpt lat="45.95657" lon="4.93991">
        <ele>295</ele>
        <time>2018-04-05T10:03:06Z</time>
      </trkpt>
      <trkpt lat="45.95657" lon="4.93991">
        <ele>295</ele>
        <time>2018-04-05T10:03:07Z</time>
      </trkpt>
      <trkpt lat="45.95659" lon="4.9399">
        <ele>295</ele>
        <time>2018-04-05T10:03:19Z</time>
      </trkpt>
      <trkpt lat="45.95659" lon="4.9399">
        <ele>295</ele>
        <time>2018-04-05T10:03:20Z</time>
      </trkpt>
      <trkpt lat="45.95651" lon="4.93985">
        <ele>295</ele>
        <time>2018-04-05T10:03:52Z</time>
      </trkpt>
      <trkpt lat="45.95651" lon="4.93985">
        <ele>295</ele>
        <time>2018-04-05T10:03:53Z</time>
      </trkpt>
      <trkpt lat="45.95642" lon="4.9399">
        <ele>294</ele>
        <time>2018-04-05T10:06:08Z</time>
      </trkpt>
      <trkpt lat="45.95642" lon="4.9399">
        <ele>294</ele>
        <time>2018-04-05T10:06:09Z</time>
      </trkpt>
      <trkpt lat="45.95643" lon="4.93989">
        <ele>294</ele>
        <time>2018-04-05T10:07:02.013Z</time>
      </trkpt>
      <trkpt lat="45.95643" lon="4.93989">
        <ele>294</ele>
        <time>2018-04-05T10:07:01Z</time>
      </trkpt>
      <trkpt lat="45.95642" lon="4.93989">
        <ele>294</ele>
        <time>2018-04-05T10:07:02Z</time>
      </trkpt>
      <trkpt lat="45.95651" lon="4.93991">
        <ele>295</ele>
        <time>2018-04-05T10:07:51Z</time>
      </trkpt>
      <trkpt lat="45.95651" lon="4.93991">
        <ele>295</ele>
        <time>2018-04-05T10:07:52Z</time>
      </trkpt>
      <trkpt lat="45.95659" lon="4.93989">
        <ele>295</ele>
        <time>2018-04-05T10:08:58Z</time>
      </trkpt>
      <trkpt lat="45.95659" lon="4.93989">
        <ele>295</ele>
        <time>2018-04-05T10:08:59Z</time>
      </trkpt>
      <trkpt lat="45.95658" lon="4.9399">
        <ele>295</ele>
        <time>2018-04-05T10:09:07Z</time>
      </trkpt>
      <trkpt lat="45.95658" lon="4.93991">
        <ele>295</ele>
        <time>2018-04-05T10:09:08Z</time>
      </trkpt>
      <trkpt lat="45.95657" lon="4.93992">
        <ele>295</ele>
        <time>2018-04-05T10:12:13Z</time>
      </trkpt>
      <trkpt lat="45.95657" lon="4.93992">
        <ele>295</ele>
        <time>2018-04-05T10:12:14Z</time>
      </trkpt>
      <trkpt lat="45.95657" lon="4.93992">
        <ele>295</ele>
        <time>2018-04-05T10:12:15Z</time>
      </trkpt>
      <trkpt lat="45.95657" lon="4.93992">
        <ele>295</ele>
        <time>2018-04-05T10:12:16Z</time>
      </trkpt>
      <trkpt lat="45.95657" lon="4.93992">
        <ele>295</ele>
        <time>2018-04-05T10:12:17Z</time>
      </trkpt>
      <trkpt lat="45.95657" lon="4.93992">
        <ele>295</ele>
        <time>2018-04-05T10:12:18Z</time>
      </trkpt>
      <trkpt lat="45.95659" lon="4.9399">
        <ele>295</ele>
        <time>2018-04-05T10:12:27Z</time>
      </trkpt>
      <trkpt lat="45.95659" lon="4.93989">
        <ele>295</ele>
        <time>2018-04-05T10:12:28Z</time>
      </trkpt>
      <trkpt lat="45.95654" lon="4.93983">
        <ele>295</ele>
        <time>2018-04-05T10:12:33Z</time>
      </trkpt>
      <trkpt lat="45.95652" lon="4.93981">
        <ele>294</ele>
        <time>2018-04-05T10:12:34Z</time>
      </trkpt>
      <trkpt lat="45.95648" lon="4.93974">
        <ele>294</ele>
        <time>2018-04-05T10:12:36Z</time>
      </trkpt>
      <trkpt lat="45.95646" lon="4.93963">
        <ele>294</ele>
        <time>2018-04-05T10:12:37Z</time>
      </trkpt>
      <trkpt lat="45.9565" lon="4.93951">
        <ele>294</ele>
        <time>2018-04-05T10:12:39Z</time>
      </trkpt>
      <trkpt lat="45.9565" lon="4.93944">
        <ele>294</ele>
        <time>2018-04-05T10:12:40Z</time>
      </trkpt>
      <trkpt lat="45.95652" lon="4.93933">
        <ele>294</ele>
        <time>2018-04-05T10:12:42Z</time>
      </trkpt>
      <trkpt lat="45.95653" lon="4.93928">
        <ele>294</ele>
        <time>2018-04-05T10:12:43Z</time>
      </trkpt>
      <trkpt lat="45.95655" lon="4.93917">
        <ele>293</ele>
        <time>2018-04-05T10:12:45Z</time>
      </trkpt>
      <trkpt lat="45.95656" lon="4.93911">
        <ele>293</ele>
        <time>2018-04-05T10:12:46Z</time>
      </trkpt>
      <trkpt lat="45.95657" lon="4.939">
        <ele>292</ele>
        <time>2018-04-05T10:12:48Z</time>
      </trkpt>
      <trkpt lat="45.95657" lon="4.93898">
        <ele>292</ele>
        <time>2018-04-05T10:12:49Z</time>
      </trkpt>
      <trkpt lat="45.95657" lon="4.93894">
        <ele>292</ele>
        <time>2018-04-05T10:12:50Z</time>
      </trkpt>
      <trkpt lat="45.95657" lon="4.93883">
        <ele>291</ele>
        <time>2018-04-05T10:12:51Z</time>
      </trkpt>
      <trkpt lat="45.95655" lon="4.93872">
        <ele>291</ele>
        <time>2018-04-05T10:12:55Z</time>
      </trkpt>
      <trkpt lat="45.95654" lon="4.93869">
        <ele>291</ele>
        <time>2018-04-05T10:12:56Z</time>
      </trkpt>
      <trkpt lat="45.95648" lon="4.93859">
        <ele>290</ele>
        <time>2018-04-05T10:13:00Z</time>
      </trkpt>
      <trkpt lat="45.95646" lon="4.93858">
        <ele>290</ele>
        <time>2018-04-05T10:13:01Z</time>
      </trkpt>
      <trkpt lat="45.95638" lon="4.93854">
        <ele>290</ele>
        <time>2018-04-05T10:14:38Z</time>
      </trkpt>
      <trkpt lat="45.95638" lon="4.93854">
        <ele>290</ele>
        <time>2018-04-05T10:14:39Z</time>
      </trkpt>
      <trkpt lat="45.9563" lon="4.93853">
        <ele>290</ele>
        <time>2018-04-05T10:14:44Z</time>
      </trkpt>
      <trkpt lat="45.95627" lon="4.93852">
        <ele>290</ele>
        <time>2018-04-05T10:14:45Z</time>
      </trkpt>
      <trkpt lat="45.95621" lon="4.93848">
        <ele>290</ele>
        <time>2018-04-05T10:14:47Z</time>
      </trkpt>
      <trkpt lat="45.95613" lon="4.93843">
        <ele>290</ele>
        <time>2018-04-05T10:14:48Z</time>
      </trkpt>
      <trkpt lat="45.95606" lon="4.93837">
        <ele>290</ele>
        <time>2018-04-05T10:14:51Z</time>
      </trkpt>
      <trkpt lat="45.95604" lon="4.93834">
        <ele>290</ele>
        <time>2018-04-05T10:14:52Z</time>
      </trkpt>
      <trkpt lat="45.95598" lon="4.93827">
        <ele>289</ele>
        <time>2018-04-05T10:14:55Z</time>
      </trkpt>
      <trkpt lat="45.95592" lon="4.93821">
        <ele>289</ele>
        <time>2018-04-05T10:14:56Z</time>
      </trkpt>
      <trkpt lat="45.95585" lon="4.93813">
        <ele>289</ele>
        <time>2018-04-05T10:14:58Z</time>
      </trkpt>
      <trkpt lat="45.95582" lon="4.93809">
        <ele>290</ele>
        <time>2018-04-05T10:14:59Z</time>
      </trkpt>
      <trkpt lat="45.95578" lon="4.93805">
        <ele>290</ele>
        <time>2018-04-05T10:15:00Z</time>
      </trkpt>
      <trkpt lat="45.95575" lon="4.93801">
        <ele>290</ele>
        <time>2018-04-05T10:15:01Z</time>
      </trkpt>
      <trkpt lat="45.95572" lon="4.93796">
        <ele>290</ele>
        <time>2018-04-05T10:15:02Z</time>
      </trkpt>
      <trkpt lat="45.95568" lon="4.93791">
        <ele>290</ele>
        <time>2018-04-05T10:15:03Z</time>
      </trkpt>
      <trkpt lat="45.95566" lon="4.93779">
        <ele>290</ele>
        <time>2018-04-05T10:15:05Z</time>
      </trkpt>
      <trkpt lat="45.95566" lon="4.93773">
        <ele>290</ele>
        <time>2018-04-05T10:15:06Z</time>
      </trkpt>
      <trkpt lat="45.95563" lon="4.93761">
        <ele>290</ele>
        <time>2018-04-05T10:15:08Z</time>
      </trkpt>
      <trkpt lat="45.95562" lon="4.93754">
        <ele>290</ele>
        <time>2018-04-05T10:15:09Z</time>
      </trkpt>
      <trkpt lat="45.95562" lon="4.93742">
        <ele>290</ele>
        <time>2018-04-05T10:15:11Z</time>
      </trkpt>
      <trkpt lat="45.95562" lon="4.93735">
        <ele>290</ele>
        <time>2018-04-05T10:15:12Z</time>
      </trkpt>
      <trkpt lat="45.95561" lon="4.93727">
        <ele>290</ele>
        <time>2018-04-05T10:15:13Z</time>
      </trkpt>
      <trkpt lat="45.95561" lon="4.93721">
        <ele>290</ele>
        <time>2018-04-05T10:15:14Z</time>
      </trkpt>
      <trkpt lat="45.95561" lon="4.93713">
        <ele>290</ele>
        <time>2018-04-05T10:15:15Z</time>
      </trkpt>
      <trkpt lat="45.95561" lon="4.93708">
        <ele>290</ele>
        <time>2018-04-05T10:15:16Z</time>
      </trkpt>
      <trkpt lat="45.95561" lon="4.937">
        <ele>290</ele>
        <time>2018-04-05T10:15:17Z</time>
      </trkpt>
      <trkpt lat="45.9556" lon="4.93693">
        <ele>290</ele>
        <time>2018-04-05T10:15:18Z</time>
      </trkpt>
      <trkpt lat="45.95561" lon="4.93686">
        <ele>290</ele>
        <time>2018-04-05T10:15:19Z</time>
      </trkpt>
      <trkpt lat="45.95561" lon="4.93679">
        <ele>290</ele>
        <time>2018-04-05T10:15:20Z</time>
      </trkpt>
      <trkpt lat="45.95561" lon="4.93672">
        <ele>289</ele>
        <time>2018-04-05T10:15:21Z</time>
      </trkpt>
      <trkpt lat="45.95561" lon="4.93666">
        <ele>289</ele>
        <time>2018-04-05T10:15:22Z</time>
      </trkpt>
      <trkpt lat="45.95562" lon="4.93659">
        <ele>289</ele>
        <time>2018-04-05T10:15:23Z</time>
      </trkpt>
      <trkpt lat="45.95563" lon="4.9365">
        <ele>289</ele>
        <time>2018-04-05T10:15:24Z</time>
      </trkpt>
      <trkpt lat="45.95563" lon="4.93644">
        <ele>289</ele>
        <time>2018-04-05T10:15:25Z</time>
      </trkpt>
      <trkpt lat="45.95564" lon="4.93637">
        <ele>289</ele>
        <time>2018-04-05T10:15:26Z</time>
      </trkpt>
      <trkpt lat="45.95564" lon="4.9363">
        <ele>289</ele>
        <time>2018-04-05T10:15:27Z</time>
      </trkpt>
      <trkpt lat="45.95565" lon="4.93623">
        <ele>289</ele>
        <time>2018-04-05T10:15:28Z</time>
      </trkpt>
      <trkpt lat="45.95566" lon="4.93615">
        <ele>289</ele>
        <time>2018-04-05T10:15:29Z</time>
      </trkpt>
      <trkpt lat="45.95566" lon="4.93608">
        <ele>289</ele>
        <time>2018-04-05T10:15:30Z</time>
      </trkpt>
      <trkpt lat="45.95566" lon="4.93601">
        <ele>289</ele>
        <time>2018-04-05T10:15:31Z</time>
      </trkpt>
      <trkpt lat="45.95566" lon="4.93595">
        <ele>289</ele>
        <time>2018-04-05T10:15:32Z</time>
      </trkpt>
      <trkpt lat="45.95567" lon="4.93588">
        <ele>289</ele>
        <time>2018-04-05T10:15:33Z</time>
      </trkpt>
      <trkpt lat="45.95567" lon="4.9358">
        <ele>289</ele>
        <time>2018-04-05T10:15:34Z</time>
      </trkpt>
      <trkpt lat="45.95568" lon="4.93573">
        <ele>289</ele>
        <time>2018-04-05T10:15:35Z</time>
      </trkpt>
      <trkpt lat="45.9557" lon="4.93565">
        <ele>289</ele>
        <time>2018-04-05T10:15:36Z</time>
      </trkpt>
      <trkpt lat="45.95572" lon="4.93558">
        <ele>289</ele>
        <time>2018-04-05T10:15:37Z</time>
      </trkpt>
      <trkpt lat="45.95573" lon="4.93552">
        <ele>289</ele>
        <time>2018-04-05T10:15:38Z</time>
      </trkpt>
      <trkpt lat="45.95573" lon="4.93545">
        <ele>289</ele>
        <time>2018-04-05T10:15:39Z</time>
      </trkpt>
      <trkpt lat="45.95573" lon="4.93538">
        <ele>290</ele>
        <time>2018-04-05T10:15:40Z</time>
      </trkpt>
      <trkpt lat="45.95573" lon="4.9353">
        <ele>290</ele>
        <time>2018-04-05T10:15:41Z</time>
      </trkpt>
      <trkpt lat="45.95572" lon="4.93523">
        <ele>290</ele>
        <time>2018-04-05T10:15:42Z</time>
      </trkpt>
      <trkpt lat="45.95571" lon="4.93517">
        <ele>290</ele>
        <time>2018-04-05T10:15:43Z</time>
      </trkpt>
      <trkpt lat="45.9557" lon="4.93509">
        <ele>290</ele>
        <time>2018-04-05T10:15:44Z</time>
      </trkpt>
      <trkpt lat="45.95568" lon="4.93503">
        <ele>290</ele>
        <time>2018-04-05T10:15:45Z</time>
      </trkpt>
      <trkpt lat="45.95565" lon="4.93496">
        <ele>290</ele>
        <time>2018-04-05T10:15:46Z</time>
      </trkpt>
      <trkpt lat="45.95562" lon="4.9349">
        <ele>290</ele>
        <time>2018-04-05T10:15:47Z</time>
      </trkpt>
      <trkpt lat="45.95559" lon="4.93485">
        <ele>289</ele>
        <time>2018-04-05T10:15:48Z</time>
      </trkpt>
      <trkpt lat="45.95555" lon="4.93474">
        <ele>289</ele>
        <time>2018-04-05T10:15:50Z</time>
      </trkpt>
      <trkpt lat="45.95553" lon="4.93469">
        <ele>289</ele>
        <time>2018-04-05T10:15:51Z</time>
      </trkpt>
      <trkpt lat="45.9555" lon="4.93463">
        <ele>289</ele>
        <time>2018-04-05T10:15:52Z</time>
      </trkpt>
      <trkpt lat="45.95547" lon="4.93457">
        <ele>289</ele>
        <time>2018-04-05T10:15:53Z</time>
      </trkpt>
      <trkpt lat="45.95545" lon="4.9345">
        <ele>289</ele>
        <time>2018-04-05T10:15:54Z</time>
      </trkpt>
      <trkpt lat="45.95542" lon="4.93445">
        <ele>289</ele>
        <time>2018-04-05T10:15:55Z</time>
      </trkpt>
      <trkpt lat="45.95539" lon="4.9344">
        <ele>289</ele>
        <time>2018-04-05T10:15:56Z</time>
      </trkpt>
      <trkpt lat="45.95537" lon="4.93432">
        <ele>289</ele>
        <time>2018-04-05T10:15:57Z</time>
      </trkpt>
      <trkpt lat="45.95535" lon="4.93426">
        <ele>289</ele>
        <time>2018-04-05T10:15:58Z</time>
      </trkpt>
      <trkpt lat="45.95532" lon="4.9342">
        <ele>289</ele>
        <time>2018-04-05T10:15:59Z</time>
      </trkpt>
      <trkpt lat="45.95529" lon="4.93413">
        <ele>289</ele>
        <time>2018-04-05T10:16:00Z</time>
      </trkpt>
      <trkpt lat="45.95526" lon="4.93406">
        <ele>289</ele>
        <time>2018-04-05T10:16:01Z</time>
      </trkpt>
      <trkpt lat="45.95523" lon="4.934">
        <ele>289</ele>
        <time>2018-04-05T10:16:02Z</time>
      </trkpt>
      <trkpt lat="45.95522" lon="4.93394">
        <ele>289</ele>
        <time>2018-04-05T10:16:03Z</time>
      </trkpt>
      <trkpt lat="45.95519" lon="4.93387">
        <ele>289</ele>
        <time>2018-04-05T10:16:04Z</time>
      </trkpt>
      <trkpt lat="45.95516" lon="4.9338">
        <ele>289</ele>
        <time>2018-04-05T10:16:05Z</time>
      </trkpt>
      <trkpt lat="45.95513" lon="4.93375">
        <ele>289</ele>
        <time>2018-04-05T10:16:06Z</time>
      </trkpt>
      <trkpt lat="45.95511" lon="4.93368">
        <ele>289</ele>
        <time>2018-04-05T10:16:07Z</time>
      </trkpt>
      <trkpt lat="45.95508" lon="4.93361">
        <ele>289</ele>
        <time>2018-04-05T10:16:08Z</time>
      </trkpt>
      <trkpt lat="45.95505" lon="4.93355">
        <ele>289</ele>
        <time>2018-04-05T10:16:09Z</time>
      </trkpt>
      <trkpt lat="45.95503" lon="4.93348">
        <ele>289</ele>
        <time>2018-04-05T10:16:10Z</time>
      </trkpt>
      <trkpt lat="45.955" lon="4.93342">
        <ele>289</ele>
        <time>2018-04-05T10:16:11Z</time>
      </trkpt>
      <trkpt lat="45.95497" lon="4.93335">
        <ele>289</ele>
        <time>2018-04-05T10:16:12Z</time>
      </trkpt>
      <trkpt lat="45.95495" lon="4.93329">
        <ele>289</ele>
        <time>2018-04-05T10:16:13Z</time>
      </trkpt>
      <trkpt lat="45.95492" lon="4.93322">
        <ele>290</ele>
        <time>2018-04-05T10:16:14Z</time>
      </trkpt>
      <trkpt lat="45.95489" lon="4.93317">
        <ele>290</ele>
        <time>2018-04-05T10:16:15Z</time>
      </trkpt>
      <trkpt lat="45.95486" lon="4.9331">
        <ele>290</ele>
        <time>2018-04-05T10:16:16Z</time>
      </trkpt>
      <trkpt lat="45.95484" lon="4.93304">
        <ele>290</ele>
        <time>2018-04-05T10:16:17Z</time>
      </trkpt>
      <trkpt lat="45.95481" lon="4.93298">
        <ele>290</ele>
        <time>2018-04-05T10:16:18Z</time>
      </trkpt>
      <trkpt lat="45.95479" lon="4.93291">
        <ele>290</ele>
        <time>2018-04-05T10:16:19Z</time>
      </trkpt>
      <trkpt lat="45.95476" lon="4.93286">
        <ele>290</ele>
        <time>2018-04-05T10:16:20Z</time>
      </trkpt>
      <trkpt lat="45.95473" lon="4.9328">
        <ele>290</ele>
        <time>2018-04-05T10:16:21Z</time>
      </trkpt>
      <trkpt lat="45.95471" lon="4.93273">
        <ele>290</ele>
        <time>2018-04-05T10:16:22Z</time>
      </trkpt>
      <trkpt lat="45.95468" lon="4.93267">
        <ele>290</ele>
        <time>2018-04-05T10:16:23Z</time>
      </trkpt>
      <trkpt lat="45.95466" lon="4.93261">
        <ele>290</ele>
        <time>2018-04-05T10:16:24Z</time>
      </trkpt>
      <trkpt lat="45.95464" lon="4.93256">
        <ele>290</ele>
        <time>2018-04-05T10:16:25Z</time>
      </trkpt>
      <trkpt lat="45.95462" lon="4.93248">
        <ele>290</ele>
        <time>2018-04-05T10:16:26Z</time>
      </trkpt>
      <trkpt lat="45.9546" lon="4.93242">
        <ele>290</ele>
        <time>2018-04-05T10:16:27Z</time>
      </trkpt>
      <trkpt lat="45.95458" lon="4.93236">
        <ele>291</ele>
        <time>2018-04-05T10:16:28Z</time>
      </trkpt>
      <trkpt lat="45.95455" lon="4.93231">
        <ele>291</ele>
        <time>2018-04-05T10:16:29Z</time>
      </trkpt>
      <trkpt lat="45.9545" lon="4.93222">
        <ele>291</ele>
        <time>2018-04-05T10:16:31Z</time>
      </trkpt>
      <trkpt lat="45.95448" lon="4.93216">
        <ele>291</ele>
        <time>2018-04-05T10:16:32Z</time>
      </trkpt>
      <trkpt lat="45.95445" lon="4.93204">
        <ele>291</ele>
        <time>2018-04-05T10:16:34Z</time>
      </trkpt>
      <trkpt lat="45.95445" lon="4.93198">
        <ele>291</ele>
        <time>2018-04-05T10:16:35Z</time>
      </trkpt>
      <trkpt lat="45.95447" lon="4.93187">
        <ele>291</ele>
        <time>2018-04-05T10:16:37Z</time>
      </trkpt>
      <trkpt lat="45.9545" lon="4.93181">
        <ele>291</ele>
        <time>2018-04-05T10:16:38Z</time>
      </trkpt>
      <trkpt lat="45.95456" lon="4.93171">
        <ele>291</ele>
        <time>2018-04-05T10:16:40Z</time>
      </trkpt>
      <trkpt lat="45.95458" lon="4.93168">
        <ele>291</ele>
        <time>2018-04-05T10:16:41Z</time>
      </trkpt>
      <trkpt lat="45.95466" lon="4.93162">
        <ele>290</ele>
        <time>2018-04-05T10:16:43Z</time>
      </trkpt>
      <trkpt lat="45.9547" lon="4.93159">
        <ele>290</ele>
        <time>2018-04-05T10:16:44Z</time>
      </trkpt>
      <trkpt lat="45.95478" lon="4.93155">
        <ele>290</ele>
        <time>2018-04-05T10:16:46Z</time>
      </trkpt>
      <trkpt lat="45.95482" lon="4.93154">
        <ele>290</ele>
        <time>2018-04-05T10:16:47Z</time>
      </trkpt>
      <trkpt lat="45.95486" lon="4.93149">
        <ele>290</ele>
        <time>2018-04-05T10:16:48Z</time>
      </trkpt>
      <trkpt lat="45.9549" lon="4.93145">
        <ele>290</ele>
        <time>2018-04-05T10:16:49Z</time>
      </trkpt>
      <trkpt lat="45.95495" lon="4.93144">
        <ele>290</ele>
        <time>2018-04-05T10:16:50Z</time>
      </trkpt>
      <trkpt lat="45.95499" lon="4.93139">
        <ele>290</ele>
        <time>2018-04-05T10:16:51Z</time>
      </trkpt>
      <trkpt lat="45.95502" lon="4.93135">
        <ele>289</ele>
        <time>2018-04-05T10:16:52Z</time>
      </trkpt>
      <trkpt lat="45.95506" lon="4.93131">
        <ele>289</ele>
        <time>2018-04-05T10:16:53Z</time>
      </trkpt>
      <trkpt lat="45.95512" lon="4.93125">
        <ele>289</ele>
        <time>2018-04-05T10:16:55Z</time>
      </trkpt>
      <trkpt lat="45.95516" lon="4.93123">
        <ele>289</ele>
        <time>2018-04-05T10:16:56Z</time>
      </trkpt>
      <trkpt lat="45.9552" lon="4.93118">
        <ele>289</ele>
        <time>2018-04-05T10:16:57Z</time>
      </trkpt>
      <trkpt lat="45.95525" lon="4.93114">
        <ele>289</ele>
        <time>2018-04-05T10:16:58Z</time>
      </trkpt>
      <trkpt lat="45.95529" lon="4.9311">
        <ele>289</ele>
        <time>2018-04-05T10:16:59Z</time>
      </trkpt>
      <trkpt lat="45.95532" lon="4.93104">
        <ele>289</ele>
        <time>2018-04-05T10:17:00Z</time>
      </trkpt>
      <trkpt lat="45.95535" lon="4.93098">
        <ele>289</ele>
        <time>2018-04-05T10:17:01Z</time>
      </trkpt>
      <trkpt lat="45.95538" lon="4.93093">
        <ele>290</ele>
        <time>2018-04-05T10:17:02Z</time>
      </trkpt>
      <trkpt lat="45.95541" lon="4.93086">
        <ele>290</ele>
        <time>2018-04-05T10:17:03Z</time>
      </trkpt>
      <trkpt lat="45.95543" lon="4.93079">
        <ele>290</ele>
        <time>2018-04-05T10:17:04Z</time>
      </trkpt>
      <trkpt lat="45.95545" lon="4.93072">
        <ele>290</ele>
        <time>2018-04-05T10:17:05Z</time>
      </trkpt>
      <trkpt lat="45.95546" lon="4.93065">
        <ele>290</ele>
        <time>2018-04-05T10:17:06Z</time>
      </trkpt>
      <trkpt lat="45.95547" lon="4.93058">
        <ele>290</ele>
        <time>2018-04-05T10:17:07Z</time>
      </trkpt>
      <trkpt lat="45.95547" lon="4.93051">
        <ele>290</ele>
        <time>2018-04-05T10:17:08Z</time>
      </trkpt>
      <trkpt lat="45.9555" lon="4.9304">
        <ele>291</ele>
        <time>2018-04-05T10:17:10Z</time>
      </trkpt>
      <trkpt lat="45.95551" lon="4.93034">
        <ele>291</ele>
        <time>2018-04-05T10:17:11Z</time>
      </trkpt>
      <trkpt lat="45.95552" lon="4.93021">
        <ele>291</ele>
        <time>2018-04-05T10:17:13Z</time>
      </trkpt>
      <trkpt lat="45.95552" lon="4.93015">
        <ele>291</ele>
        <time>2018-04-05T10:17:14Z</time>
      </trkpt>
      <trkpt lat="45.95553" lon="4.93008">
        <ele>291</ele>
        <time>2018-04-05T10:17:15Z</time>
      </trkpt>
      <trkpt lat="45.95554" lon="4.93002">
        <ele>291</ele>
        <time>2018-04-05T10:17:16Z</time>
      </trkpt>
      <trkpt lat="45.95555" lon="4.9299">
        <ele>292</ele>
        <time>2018-04-05T10:17:18Z</time>
      </trkpt>
      <trkpt lat="45.95556" lon="4.92983">
        <ele>292</ele>
        <time>2018-04-05T10:17:19Z</time>
      </trkpt>
      <trkpt lat="45.95556" lon="4.92972">
        <ele>292</ele>
        <time>2018-04-05T10:17:21Z</time>
      </trkpt>
      <trkpt lat="45.95557" lon="4.92967">
        <ele>292</ele>
        <time>2018-04-05T10:17:22Z</time>
      </trkpt>
      <trkpt lat="45.95558" lon="4.92954">
        <ele>292</ele>
        <time>2018-04-05T10:17:24Z</time>
      </trkpt>
      <trkpt lat="45.9556" lon="4.92948">
        <ele>292</ele>
        <time>2018-04-05T10:17:25Z</time>
      </trkpt>
      <trkpt lat="45.95562" lon="4.92937">
        <ele>292</ele>
        <time>2018-04-05T10:17:27Z</time>
      </trkpt>
      <trkpt lat="45.95563" lon="4.92931">
        <ele>293</ele>
        <time>2018-04-05T10:17:28Z</time>
      </trkpt>
      <trkpt lat="45.95565" lon="4.92919">
        <ele>293</ele>
        <time>2018-04-05T10:17:30Z</time>
      </trkpt>
      <trkpt lat="45.95566" lon="4.92913">
        <ele>294</ele>
        <time>2018-04-05T10:17:31Z</time>
      </trkpt>
      <trkpt lat="45.95568" lon="4.92901">
        <ele>294</ele>
        <time>2018-04-05T10:17:33Z</time>
      </trkpt>
      <trkpt lat="45.95569" lon="4.92896">
        <ele>294</ele>
        <time>2018-04-05T10:17:34Z</time>
      </trkpt>
      <trkpt lat="45.95571" lon="4.92883">
        <ele>294</ele>
        <time>2018-04-05T10:17:36Z</time>
      </trkpt>
      <trkpt lat="45.95571" lon="4.92877">
        <ele>294</ele>
        <time>2018-04-05T10:17:37Z</time>
      </trkpt>
      <trkpt lat="45.95573" lon="4.92865">
        <ele>294</ele>
        <time>2018-04-05T10:17:39Z</time>
      </trkpt>
      <trkpt lat="45.95574" lon="4.92857">
        <ele>294</ele>
        <time>2018-04-05T10:17:40Z</time>
      </trkpt>
      <trkpt lat="45.95575" lon="4.92845">
        <ele>294</ele>
        <time>2018-04-05T10:17:42Z</time>
      </trkpt>
      <trkpt lat="45.95576" lon="4.92838">
        <ele>294</ele>
        <time>2018-04-05T10:17:43Z</time>
      </trkpt>
      <trkpt lat="45.95578" lon="4.92826">
        <ele>295</ele>
        <time>2018-04-05T10:17:45Z</time>
      </trkpt>
      <trkpt lat="45.95579" lon="4.9282">
        <ele>295</ele>
        <time>2018-04-05T10:17:46Z</time>
      </trkpt>
      <trkpt lat="45.95581" lon="4.92808">
        <ele>294</ele>
        <time>2018-04-05T10:17:48Z</time>
      </trkpt>
      <trkpt lat="45.95582" lon="4.92802">
        <ele>294</ele>
        <time>2018-04-05T10:17:49Z</time>
      </trkpt>
      <trkpt lat="45.95584" lon="4.9279">
        <ele>295</ele>
        <time>2018-04-05T10:17:51Z</time>
      </trkpt>
      <trkpt lat="45.95585" lon="4.92785">
        <ele>295</ele>
        <time>2018-04-05T10:17:52Z</time>
      </trkpt>
      <trkpt lat="45.95587" lon="4.92773">
        <ele>295</ele>
        <time>2018-04-05T10:17:54Z</time>
      </trkpt>
      <trkpt lat="45.95588" lon="4.92766">
        <ele>295</ele>
        <time>2018-04-05T10:17:55Z</time>
      </trkpt>
      <trkpt lat="45.95591" lon="4.92754">
        <ele>295</ele>
        <time>2018-04-05T10:17:57Z</time>
      </trkpt>
      <trkpt lat="45.95592" lon="4.92747">
        <ele>295</ele>
        <time>2018-04-05T10:17:58Z</time>
      </trkpt>
      <trkpt lat="45.95594" lon="4.92741">
        <ele>295</ele>
        <time>2018-04-05T10:17:59Z</time>
      </trkpt>
      <trkpt lat="45.95595" lon="4.92733">
        <ele>295</ele>
        <time>2018-04-05T10:18:00Z</time>
      </trkpt>
      <trkpt lat="45.95596" lon="4.92726">
        <ele>295</ele>
        <time>2018-04-05T10:18:01Z</time>
      </trkpt>
      <trkpt lat="45.95598" lon="4.92718">
        <ele>295</ele>
        <time>2018-04-05T10:18:02Z</time>
      </trkpt>
      <trkpt lat="45.95599" lon="4.92711">
        <ele>295</ele>
        <time>2018-04-05T10:18:03Z</time>
      </trkpt>
      <trkpt lat="45.95601" lon="4.92703">
        <ele>295</ele>
        <time>2018-04-05T10:18:04Z</time>
      </trkpt>
      <trkpt lat="45.95603" lon="4.92696">
        <ele>295</ele>
        <time>2018-04-05T10:18:05Z</time>
      </trkpt>
      <trkpt lat="45.95604" lon="4.92689">
        <ele>295</ele>
        <time>2018-04-05T10:18:06Z</time>
      </trkpt>
      <trkpt lat="45.95606" lon="4.92682">
        <ele>295</ele>
        <time>2018-04-05T10:18:07Z</time>
      </trkpt>
      <trkpt lat="45.95608" lon="4.92676">
        <ele>295</ele>
        <time>2018-04-05T10:18:08Z</time>
      </trkpt>
      <trkpt lat="45.95609" lon="4.92669">
        <ele>295</ele>
        <time>2018-04-05T10:18:09Z</time>
      </trkpt>
      <trkpt lat="45.95609" lon="4.92662">
        <ele>294</ele>
        <time>2018-04-05T10:18:10Z</time>
      </trkpt>
      <trkpt lat="45.95609" lon="4.92654">
        <ele>294</ele>
        <time>2018-04-05T10:18:11Z</time>
      </trkpt>
      <trkpt lat="45.95611" lon="4.92647">
        <ele>294</ele>
        <time>2018-04-05T10:18:12Z</time>
      </trkpt>
      <trkpt lat="45.95611" lon="4.9264">
        <ele>294</ele>
        <time>2018-04-05T10:18:13Z</time>
      </trkpt>
      <trkpt lat="45.95613" lon="4.92632">
        <ele>294</ele>
        <time>2018-04-05T10:18:14Z</time>
      </trkpt>
      <trkpt lat="45.95615" lon="4.92624">
        <ele>294</ele>
        <time>2018-04-05T10:18:15Z</time>
      </trkpt>
      <trkpt lat="45.95616" lon="4.92616">
        <ele>294</ele>
        <time>2018-04-05T10:18:16Z</time>
      </trkpt>
      <trkpt lat="45.95617" lon="4.92609">
        <ele>294</ele>
        <time>2018-04-05T10:18:17Z</time>
      </trkpt>
      <trkpt lat="45.95619" lon="4.92602">
        <ele>294</ele>
        <time>2018-04-05T10:18:18Z</time>
      </trkpt>
      <trkpt lat="45.9562" lon="4.92593">
        <ele>294</ele>
        <time>2018-04-05T10:18:19Z</time>
      </trkpt>
      <trkpt lat="45.9562" lon="4.92584">
        <ele>294</ele>
        <time>2018-04-05T10:18:20Z</time>
      </trkpt>
      <trkpt lat="45.95621" lon="4.92577">
        <ele>294</ele>
        <time>2018-04-05T10:18:21Z</time>
      </trkpt>
      <trkpt lat="45.95622" lon="4.92569">
        <ele>294</ele>
        <time>2018-04-05T10:18:22Z</time>
      </trkpt>
      <trkpt lat="45.95623" lon="4.92562">
        <ele>294</ele>
        <time>2018-04-05T10:18:23Z</time>
      </trkpt>
      <trkpt lat="45.95624" lon="4.92554">
        <ele>294</ele>
        <time>2018-04-05T10:18:24Z</time>
      </trkpt>
      <trkpt lat="45.95625" lon="4.92543">
        <ele>294</ele>
        <time>2018-04-05T10:18:26Z</time>
      </trkpt>
      <trkpt lat="45.95626" lon="4.92535">
        <ele>294</ele>
        <time>2018-04-05T10:18:27Z</time>
      </trkpt>
      <trkpt lat="45.95628" lon="4.92523">
        <ele>294</ele>
        <time>2018-04-05T10:18:29Z</time>
      </trkpt>
      <trkpt lat="45.95629" lon="4.92517">
        <ele>294</ele>
        <time>2018-04-05T10:18:30Z</time>
      </trkpt>
      <trkpt lat="45.9563" lon="4.92509">
        <ele>294</ele>
        <time>2018-04-05T10:18:31Z</time>
      </trkpt>
      <trkpt lat="45.95631" lon="4.92502">
        <ele>294</ele>
        <time>2018-04-05T10:18:32Z</time>
      </trkpt>
      <trkpt lat="45.95631" lon="4.92494">
        <ele>293</ele>
        <time>2018-04-05T10:18:33Z</time>
      </trkpt>
      <trkpt lat="45.95632" lon="4.92488">
        <ele>293</ele>
        <time>2018-04-05T10:18:34Z</time>
      </trkpt>
      <trkpt lat="45.95632" lon="4.92481">
        <ele>293</ele>
        <time>2018-04-05T10:18:35Z</time>
      </trkpt>
      <trkpt lat="45.95634" lon="4.92474">
        <ele>293</ele>
        <time>2018-04-05T10:18:36Z</time>
      </trkpt>
      <trkpt lat="45.95635" lon="4.92468">
        <ele>293</ele>
        <time>2018-04-05T10:18:37Z</time>
      </trkpt>
      <trkpt lat="45.95637" lon="4.92461">
        <ele>293</ele>
        <time>2018-04-05T10:18:38Z</time>
      </trkpt>
      <trkpt lat="45.95638" lon="4.92455">
        <ele>293</ele>
        <time>2018-04-05T10:18:39Z</time>
      </trkpt>
      <trkpt lat="45.95639" lon="4.92448">
        <ele>293</ele>
        <time>2018-04-05T10:18:40Z</time>
      </trkpt>
      <trkpt lat="45.9564" lon="4.92441">
        <ele>293</ele>
        <time>2018-04-05T10:18:41Z</time>
      </trkpt>
      <trkpt lat="45.95641" lon="4.92434">
        <ele>293</ele>
        <time>2018-04-05T10:18:42Z</time>
      </trkpt>
      <trkpt lat="45.95642" lon="4.92427">
        <ele>293</ele>
        <time>2018-04-05T10:18:43Z</time>
      </trkpt>
      <trkpt lat="45.95642" lon="4.92421">
        <ele>293</ele>
        <time>2018-04-05T10:18:44Z</time>
      </trkpt>
      <trkpt lat="45.95643" lon="4.92414">
        <ele>293</ele>
        <time>2018-04-05T10:18:45Z</time>
      </trkpt>
      <trkpt lat="45.95645" lon="4.92407">
        <ele>293</ele>
        <time>2018-04-05T10:18:46Z</time>
      </trkpt>
      <trkpt lat="45.95645" lon="4.924">
        <ele>293</ele>
        <time>2018-04-05T10:18:47Z</time>
      </trkpt>
      <trkpt lat="45.95646" lon="4.92393">
        <ele>293</ele>
        <time>2018-04-05T10:18:48Z</time>
      </trkpt>
      <trkpt lat="45.95648" lon="4.92385">
        <ele>293</ele>
        <time>2018-04-05T10:18:49Z</time>
      </trkpt>
      <trkpt lat="45.95648" lon="4.92378">
        <ele>293</ele>
        <time>2018-04-05T10:18:50Z</time>
      </trkpt>
      <trkpt lat="45.95649" lon="4.92371">
        <ele>293</ele>
        <time>2018-04-05T10:18:51Z</time>
      </trkpt>
      <trkpt lat="45.9565" lon="4.92364">
        <ele>293</ele>
        <time>2018-04-05T10:18:52Z</time>
      </trkpt>
      <trkpt lat="45.95651" lon="4.92356">
        <ele>293</ele>
        <time>2018-04-05T10:18:53Z</time>
      </trkpt>
      <trkpt lat="45.95651" lon="4.92349">
        <ele>293</ele>
        <time>2018-04-05T10:18:54Z</time>
      </trkpt>
      <trkpt lat="45.95652" lon="4.92341">
        <ele>293</ele>
        <time>2018-04-05T10:18:55Z</time>
      </trkpt>
      <trkpt lat="45.95652" lon="4.92334">
        <ele>293</ele>
        <time>2018-04-05T10:18:56Z</time>
      </trkpt>
      <trkpt lat="45.95652" lon="4.92326">
        <ele>293</ele>
        <time>2018-04-05T10:18:57Z</time>
      </trkpt>
      <trkpt lat="45.95652" lon="4.92319">
        <ele>293</ele>
        <time>2018-04-05T10:18:58Z</time>
      </trkpt>
      <trkpt lat="45.95653" lon="4.92312">
        <ele>293</ele>
        <time>2018-04-05T10:18:59Z</time>
      </trkpt>
      <trkpt lat="45.95654" lon="4.92305">
        <ele>293</ele>
        <time>2018-04-05T10:19:00Z</time>
      </trkpt>
      <trkpt lat="45.95655" lon="4.92298">
        <ele>293</ele>
        <time>2018-04-05T10:19:01Z</time>
      </trkpt>
      <trkpt lat="45.95654" lon="4.92291">
        <ele>293</ele>
        <time>2018-04-05T10:19:02Z</time>
      </trkpt>
      <trkpt lat="45.95655" lon="4.92284">
        <ele>293</ele>
        <time>2018-04-05T10:19:03Z</time>
      </trkpt>
      <trkpt lat="45.95656" lon="4.92277">
        <ele>293</ele>
        <time>2018-04-05T10:19:04Z</time>
      </trkpt>
      <trkpt lat="45.95656" lon="4.92269">
        <ele>294</ele>
        <time>2018-04-05T10:19:05Z</time>
      </trkpt>
      <trkpt lat="45.95657" lon="4.92262">
        <ele>294</ele>
        <time>2018-04-05T10:19:06Z</time>
      </trkpt>
      <trkpt lat="45.95657" lon="4.92255">
        <ele>294</ele>
        <time>2018-04-05T10:19:07Z</time>
      </trkpt>
      <trkpt lat="45.95657" lon="4.92248">
        <ele>294</ele>
        <time>2018-04-05T10:19:08Z</time>
      </trkpt>
      <trkpt lat="45.95658" lon="4.92241">
        <ele>294</ele>
        <time>2018-04-05T10:19:09Z</time>
      </trkpt>
      <trkpt lat="45.95658" lon="4.92234">
        <ele>294</ele>
        <time>2018-04-05T10:19:10Z</time>
      </trkpt>
      <trkpt lat="45.95658" lon="4.92226">
        <ele>294</ele>
        <time>2018-04-05T10:19:11Z</time>
      </trkpt>
      <trkpt lat="45.95658" lon="4.92219">
        <ele>294</ele>
        <time>2018-04-05T10:19:12Z</time>
      </trkpt>
      <trkpt lat="45.95658" lon="4.92211">
        <ele>294</ele>
        <time>2018-04-05T10:19:13Z</time>
      </trkpt>
      <trkpt lat="45.95659" lon="4.92203">
        <ele>294</ele>
        <time>2018-04-05T10:19:14Z</time>
      </trkpt>
      <trkpt lat="45.95659" lon="4.92195">
        <ele>295</ele>
        <time>2018-04-05T10:19:15Z</time>
      </trkpt>
      <trkpt lat="45.95659" lon="4.92187">
        <ele>295</ele>
        <time>2018-04-05T10:19:16Z</time>
      </trkpt>
      <trkpt lat="45.9566" lon="4.9218">
        <ele>295</ele>
        <time>2018-04-05T10:19:17Z</time>
      </trkpt>
      <trkpt lat="45.95661" lon="4.92172">
        <ele>296</ele>
        <time>2018-04-05T10:19:18Z</time>
      </trkpt>
      <trkpt lat="45.95662" lon="4.92164">
        <ele>297</ele>
        <time>2018-04-05T10:19:19Z</time>
      </trkpt>
      <trkpt lat="45.95663" lon="4.92156">
        <ele>296</ele>
        <time>2018-04-05T10:19:20Z</time>
      </trkpt>
      <trkpt lat="45.95664" lon="4.9215">
        <ele>296</ele>
        <time>2018-04-05T10:19:21Z</time>
      </trkpt>
      <trkpt lat="45.95664" lon="4.92142">
        <ele>296</ele>
        <time>2018-04-05T10:19:22Z</time>
      </trkpt>
      <trkpt lat="45.95665" lon="4.92136">
        <ele>296</ele>
        <time>2018-04-05T10:19:23Z</time>
      </trkpt>
      <trkpt lat="45.95665" lon="4.92128">
        <ele>296</ele>
        <time>2018-04-05T10:19:24Z</time>
      </trkpt>
      <trkpt lat="45.95667" lon="4.9212">
        <ele>299</ele>
        <time>2018-04-05T10:19:25Z</time>
      </trkpt>
      <trkpt lat="45.95667" lon="4.92114">
        <ele>296</ele>
        <time>2018-04-05T10:19:26Z</time>
      </trkpt>
      <trkpt lat="45.95667" lon="4.92106">
        <ele>297</ele>
        <time>2018-04-05T10:19:27Z</time>
      </trkpt>
      <trkpt lat="45.95667" lon="4.92098">
        <ele>299</ele>
        <time>2018-04-05T10:19:28Z</time>
      </trkpt>
      <trkpt lat="45.95667" lon="4.92092">
        <ele>299</ele>
        <time>2018-04-05T10:19:29Z</time>
      </trkpt>
      <trkpt lat="45.95668" lon="4.92085">
        <ele>299</ele>
        <time>2018-04-05T10:19:30Z</time>
      </trkpt>
      <trkpt lat="45.95667" lon="4.92076">
        <ele>300</ele>
        <time>2018-04-05T10:19:31Z</time>
      </trkpt>
      <trkpt lat="45.95668" lon="4.92069">
        <ele>300</ele>
        <time>2018-04-05T10:19:32Z</time>
      </trkpt>
      <trkpt lat="45.95669" lon="4.92056">
        <ele>300</ele>
        <time>2018-04-05T10:19:34Z</time>
      </trkpt>
      <trkpt lat="45.9567" lon="4.9205">
        <ele>300</ele>
        <time>2018-04-05T10:19:35Z</time>
      </trkpt>
      <trkpt lat="45.95671" lon="4.92043">
        <ele>300</ele>
        <time>2018-04-05T10:19:36Z</time>
      </trkpt>
      <trkpt lat="45.95673" lon="4.92037">
        <ele>300</ele>
        <time>2018-04-05T10:19:37Z</time>
      </trkpt>
      <trkpt lat="45.95675" lon="4.92031">
        <ele>300</ele>
        <time>2018-04-05T10:19:38Z</time>
      </trkpt>
      <trkpt lat="45.95677" lon="4.92025">
        <ele>300</ele>
        <time>2018-04-05T10:19:39Z</time>
      </trkpt>
      <trkpt lat="45.95679" lon="4.92018">
        <ele>300</ele>
        <time>2018-04-05T10:19:40Z</time>
      </trkpt>
      <trkpt lat="45.95682" lon="4.92013">
        <ele>300</ele>
        <time>2018-04-05T10:19:41Z</time>
      </trkpt>
      <trkpt lat="45.95685" lon="4.92006">
        <ele>300</ele>
        <time>2018-04-05T10:19:42Z</time>
      </trkpt>
      <trkpt lat="45.95687" lon="4.92">
        <ele>300</ele>
        <time>2018-04-05T10:19:43Z</time>
      </trkpt>
      <trkpt lat="45.95691" lon="4.91995">
        <ele>299</ele>
        <time>2018-04-05T10:19:44Z</time>
      </trkpt>
      <trkpt lat="45.95694" lon="4.91989">
        <ele>299</ele>
        <time>2018-04-05T10:19:45Z</time>
      </trkpt>
      <trkpt lat="45.95697" lon="4.91985">
        <ele>299</ele>
        <time>2018-04-05T10:19:46Z</time>
      </trkpt>
      <trkpt lat="45.957" lon="4.91979">
        <ele>299</ele>
        <time>2018-04-05T10:19:47Z</time>
      </trkpt>
      <trkpt lat="45.95706" lon="4.91974">
        <ele>300</ele>
        <time>2018-04-05T10:19:49Z</time>
      </trkpt>
      <trkpt lat="45.95708" lon="4.91973">
        <ele>300</ele>
        <time>2018-04-05T10:19:50Z</time>
      </trkpt>
      <trkpt lat="45.95712" lon="4.91968">
        <ele>300</ele>
        <time>2018-04-05T10:19:52Z</time>
      </trkpt>
      <trkpt lat="45.9572" lon="4.91958">
        <ele>300</ele>
        <time>2018-04-05T10:19:53Z</time>
      </trkpt>
      <trkpt lat="45.95723" lon="4.91952">
        <ele>300</ele>
        <time>2018-04-05T10:19:54Z</time>
      </trkpt>
      <trkpt lat="45.95726" lon="4.91945">
        <ele>300</ele>
        <time>2018-04-05T10:19:55Z</time>
      </trkpt>
      <trkpt lat="45.95729" lon="4.91939">
        <ele>300</ele>
        <time>2018-04-05T10:19:56Z</time>
      </trkpt>
      <trkpt lat="45.95732" lon="4.91933">
        <ele>300</ele>
        <time>2018-04-05T10:19:57Z</time>
      </trkpt>
      <trkpt lat="45.95736" lon="4.91928">
        <ele>300</ele>
        <time>2018-04-05T10:19:58Z</time>
      </trkpt>
      <trkpt lat="45.9574" lon="4.91924">
        <ele>300</ele>
        <time>2018-04-05T10:19:59Z</time>
      </trkpt>
      <trkpt lat="45.95744" lon="4.91914">
        <ele>300</ele>
        <time>2018-04-05T10:20:01Z</time>
      </trkpt>
      <trkpt lat="45.95745" lon="4.91904">
        <ele>299</ele>
        <time>2018-04-05T10:20:02Z</time>
      </trkpt>
      <trkpt lat="45.95749" lon="4.919">
        <ele>299</ele>
        <time>2018-04-05T10:20:04Z</time>
      </trkpt>
      <trkpt lat="45.95755" lon="4.91891">
        <ele>301</ele>
        <time>2018-04-05T10:20:05Z</time>
      </trkpt>
      <trkpt lat="45.95758" lon="4.91885">
        <ele>301</ele>
        <time>2018-04-05T10:20:06Z</time>
      </trkpt>
      <trkpt lat="45.95761" lon="4.91881">
        <ele>300</ele>
        <time>2018-04-05T10:20:07Z</time>
      </trkpt>
      <trkpt lat="45.95764" lon="4.91873">
        <ele>300</ele>
        <time>2018-04-05T10:20:08Z</time>
      </trkpt>
      <trkpt lat="45.95769" lon="4.91865">
        <ele>300</ele>
        <time>2018-04-05T10:20:09Z</time>
      </trkpt>
      <trkpt lat="45.95772" lon="4.91859">
        <ele>300</ele>
        <time>2018-04-05T10:20:10Z</time>
      </trkpt>
      <trkpt lat="45.95776" lon="4.91853">
        <ele>300</ele>
        <time>2018-04-05T10:20:11Z</time>
      </trkpt>
      <trkpt lat="45.95779" lon="4.91847">
        <ele>300</ele>
        <time>2018-04-05T10:20:12Z</time>
      </trkpt>
      <trkpt lat="45.95782" lon="4.91842">
        <ele>300</ele>
        <time>2018-04-05T10:20:13Z</time>
      </trkpt>
      <trkpt lat="45.95785" lon="4.91833">
        <ele>300</ele>
        <time>2018-04-05T10:20:14Z</time>
      </trkpt>
      <trkpt lat="45.95789" lon="4.91828">
        <ele>300</ele>
        <time>2018-04-05T10:20:15Z</time>
      </trkpt>
      <trkpt lat="45.95794" lon="4.91823">
        <ele>300</ele>
        <time>2018-04-05T10:20:16Z</time>
      </trkpt>
      <trkpt lat="45.95798" lon="4.9182">
        <ele>301</ele>
        <time>2018-04-05T10:20:17Z</time>
      </trkpt>
      <trkpt lat="45.95799" lon="4.91813">
        <ele>301</ele>
        <time>2018-04-05T10:20:18Z</time>
      </trkpt>
      <trkpt lat="45.95802" lon="4.91806">
        <ele>301</ele>
        <time>2018-04-05T10:20:19Z</time>
      </trkpt>
      <trkpt lat="45.95806" lon="4.91794">
        <ele>301</ele>
        <time>2018-04-05T10:20:21Z</time>
      </trkpt>
      <trkpt lat="45.95807" lon="4.91788">
        <ele>301</ele>
        <time>2018-04-05T10:20:22Z</time>
      </trkpt>
      <trkpt lat="45.95813" lon="4.91779">
        <ele>301</ele>
        <time>2018-04-05T10:20:24Z</time>
      </trkpt>
      <trkpt lat="45.95815" lon="4.91778">
        <ele>301</ele>
        <time>2018-04-05T10:20:25Z</time>
      </trkpt>
      <trkpt lat="45.95817" lon="4.91774">
        <ele>301</ele>
        <time>2018-04-05T10:20:26Z</time>
      </trkpt>
      <trkpt lat="45.95822" lon="4.91767">
        <ele>302</ele>
        <time>2018-04-05T10:20:27Z</time>
      </trkpt>
      <trkpt lat="45.95827" lon="4.91759">
        <ele>302</ele>
        <time>2018-04-05T10:20:29Z</time>
      </trkpt>
      <trkpt lat="45.95829" lon="4.91757">
        <ele>302</ele>
        <time>2018-04-05T10:20:30Z</time>
      </trkpt>
      <trkpt lat="45.95833" lon="4.91749">
        <ele>303</ele>
        <time>2018-04-05T10:20:33Z</time>
      </trkpt>
      <trkpt lat="45.95838" lon="4.91741">
        <ele>303</ele>
        <time>2018-04-05T10:20:34Z</time>
      </trkpt>
      <trkpt lat="45.9584" lon="4.91736">
        <ele>303</ele>
        <time>2018-04-05T10:20:35Z</time>
      </trkpt>
      <trkpt lat="45.9584" lon="4.91725">
        <ele>303</ele>
        <time>2018-04-05T10:20:36Z</time>
      </trkpt>
      <trkpt lat="45.9584" lon="4.91716">
        <ele>302</ele>
        <time>2018-04-05T10:20:37Z</time>
      </trkpt>
      <trkpt lat="45.9584" lon="4.91709">
        <ele>302</ele>
        <time>2018-04-05T10:20:38Z</time>
      </trkpt>
      <trkpt lat="45.9584" lon="4.917">
        <ele>302</ele>
        <time>2018-04-05T10:20:39Z</time>
      </trkpt>
      <trkpt lat="45.9584" lon="4.91693">
        <ele>302</ele>
        <time>2018-04-05T10:20:40Z</time>
      </trkpt>
      <trkpt lat="45.9584" lon="4.91684">
        <ele>302</ele>
        <time>2018-04-05T10:20:41Z</time>
      </trkpt>
      <trkpt lat="45.9584" lon="4.91674">
        <ele>301</ele>
        <time>2018-04-05T10:20:42Z</time>
      </trkpt>
      <trkpt lat="45.9584" lon="4.91665">
        <ele>301</ele>
        <time>2018-04-05T10:20:43Z</time>
      </trkpt>
      <trkpt lat="45.9584" lon="4.91656">
        <ele>301</ele>
        <time>2018-04-05T10:20:44Z</time>
      </trkpt>
      <trkpt lat="45.95841" lon="4.91647">
        <ele>301</ele>
        <time>2018-04-05T10:20:45Z</time>
      </trkpt>
      <trkpt lat="45.95842" lon="4.91638">
        <ele>301</ele>
        <time>2018-04-05T10:20:46Z</time>
      </trkpt>
      <trkpt lat="45.95843" lon="4.91628">
        <ele>301</ele>
        <time>2018-04-05T10:20:47Z</time>
      </trkpt>
      <trkpt lat="45.95843" lon="4.91619">
        <ele>301</ele>
        <time>2018-04-05T10:20:48Z</time>
      </trkpt>
      <trkpt lat="45.95843" lon="4.91609">
        <ele>301</ele>
        <time>2018-04-05T10:20:49Z</time>
      </trkpt>
      <trkpt lat="45.95844" lon="4.91601">
        <ele>301</ele>
        <time>2018-04-05T10:20:50Z</time>
      </trkpt>
      <trkpt lat="45.95844" lon="4.91592">
        <ele>300</ele>
        <time>2018-04-05T10:20:51Z</time>
      </trkpt>
      <trkpt lat="45.95845" lon="4.91583">
        <ele>300</ele>
        <time>2018-04-05T10:20:52Z</time>
      </trkpt>
      <trkpt lat="45.95845" lon="4.91574">
        <ele>300</ele>
        <time>2018-04-05T10:20:53Z</time>
      </trkpt>
      <trkpt lat="45.95846" lon="4.91566">
        <ele>300</ele>
        <time>2018-04-05T10:20:54Z</time>
      </trkpt>
      <trkpt lat="45.95846" lon="4.91558">
        <ele>300</ele>
        <time>2018-04-05T10:20:55Z</time>
      </trkpt>
      <trkpt lat="45.95846" lon="4.9155">
        <ele>300</ele>
        <time>2018-04-05T10:20:56Z</time>
      </trkpt>
      <trkpt lat="45.95846" lon="4.91542">
        <ele>300</ele>
        <time>2018-04-05T10:20:57Z</time>
      </trkpt>
      <trkpt lat="45.95846" lon="4.91533">
        <ele>300</ele>
        <time>2018-04-05T10:20:58Z</time>
      </trkpt>
      <trkpt lat="45.95845" lon="4.91524">
        <ele>300</ele>
        <time>2018-04-05T10:20:59Z</time>
      </trkpt>
      <trkpt lat="45.95846" lon="4.91515">
        <ele>299</ele>
        <time>2018-04-05T10:21:00Z</time>
      </trkpt>
      <trkpt lat="45.95845" lon="4.91507">
        <ele>299</ele>
        <time>2018-04-05T10:21:01Z</time>
      </trkpt>
      <trkpt lat="45.95846" lon="4.91499">
        <ele>299</ele>
        <time>2018-04-05T10:21:02Z</time>
      </trkpt>
      <trkpt lat="45.95845" lon="4.9149">
        <ele>299</ele>
        <time>2018-04-05T10:21:03Z</time>
      </trkpt>
      <trkpt lat="45.95846" lon="4.91481">
        <ele>299</ele>
        <time>2018-04-05T10:21:04Z</time>
      </trkpt>
      <trkpt lat="45.95847" lon="4.91473">
        <ele>299</ele>
        <time>2018-04-05T10:21:05Z</time>
      </trkpt>
      <trkpt lat="45.95846" lon="4.91464">
        <ele>299</ele>
        <time>2018-04-05T10:21:06Z</time>
      </trkpt>
      <trkpt lat="45.95847" lon="4.91456">
        <ele>299</ele>
        <time>2018-04-05T10:21:07Z</time>
      </trkpt>
      <trkpt lat="45.95847" lon="4.91448">
        <ele>298</ele>
        <time>2018-04-05T10:21:08Z</time>
      </trkpt>
      <trkpt lat="45.95848" lon="4.9144">
        <ele>298</ele>
        <time>2018-04-05T10:21:09Z</time>
      </trkpt>
      <trkpt lat="45.95849" lon="4.91432">
        <ele>298</ele>
        <time>2018-04-05T10:21:10Z</time>
      </trkpt>
      <trkpt lat="45.9585" lon="4.91423">
        <ele>298</ele>
        <time>2018-04-05T10:21:11Z</time>
      </trkpt>
      <trkpt lat="45.9585" lon="4.91415">
        <ele>297</ele>
        <time>2018-04-05T10:21:12Z</time>
      </trkpt>
      <trkpt lat="45.95851" lon="4.91407">
        <ele>298</ele>
        <time>2018-04-05T10:21:13Z</time>
      </trkpt>
      <trkpt lat="45.95851" lon="4.91398">
        <ele>298</ele>
        <time>2018-04-05T10:21:14Z</time>
      </trkpt>
      <trkpt lat="45.95851" lon="4.9139">
        <ele>298</ele>
        <time>2018-04-05T10:21:15Z</time>
      </trkpt>
      <trkpt lat="45.95851" lon="4.91382">
        <ele>298</ele>
        <time>2018-04-05T10:21:16Z</time>
      </trkpt>
      <trkpt lat="45.95851" lon="4.91374">
        <ele>298</ele>
        <time>2018-04-05T10:21:17Z</time>
      </trkpt>
      <trkpt lat="45.95851" lon="4.91366">
        <ele>298</ele>
        <time>2018-04-05T10:21:18Z</time>
      </trkpt>
      <trkpt lat="45.95851" lon="4.91358">
        <ele>298</ele>
        <time>2018-04-05T10:21:19Z</time>
      </trkpt>
      <trkpt lat="45.95852" lon="4.9135">
        <ele>298</ele>
        <time>2018-04-05T10:21:20Z</time>
      </trkpt>
      <trkpt lat="45.95851" lon="4.91342">
        <ele>298</ele>
        <time>2018-04-05T10:21:21Z</time>
      </trkpt>
      <trkpt lat="45.95852" lon="4.91332">
        <ele>298</ele>
        <time>2018-04-05T10:21:22Z</time>
      </trkpt>
      <trkpt lat="45.95852" lon="4.91324">
        <ele>298</ele>
        <time>2018-04-05T10:21:23Z</time>
      </trkpt>
      <trkpt lat="45.95852" lon="4.91316">
        <ele>298</ele>
        <time>2018-04-05T10:21:24Z</time>
      </trkpt>
      <trkpt lat="45.95852" lon="4.91308">
        <ele>298</ele>
        <time>2018-04-05T10:21:25Z</time>
      </trkpt>
      <trkpt lat="45.95853" lon="4.913">
        <ele>298</ele>
        <time>2018-04-05T10:21:26Z</time>
      </trkpt>
      <trkpt lat="45.95853" lon="4.91292">
        <ele>298</ele>
        <time>2018-04-05T10:21:27Z</time>
      </trkpt>
      <trkpt lat="45.95854" lon="4.91283">
        <ele>298</ele>
        <time>2018-04-05T10:21:28Z</time>
      </trkpt>
      <trkpt lat="45.95855" lon="4.91274">
        <ele>297</ele>
        <time>2018-04-05T10:21:29Z</time>
      </trkpt>
      <trkpt lat="45.95856" lon="4.91266">
        <ele>297</ele>
        <time>2018-04-05T10:21:30Z</time>
      </trkpt>
      <trkpt lat="45.95856" lon="4.91258">
        <ele>297</ele>
        <time>2018-04-05T10:21:31Z</time>
      </trkpt>
      <trkpt lat="45.95855" lon="4.9125">
        <ele>297</ele>
        <time>2018-04-05T10:21:32Z</time>
      </trkpt>
      <trkpt lat="45.95855" lon="4.91242">
        <ele>297</ele>
        <time>2018-04-05T10:21:33Z</time>
      </trkpt>
      <trkpt lat="45.95856" lon="4.91234">
        <ele>297</ele>
        <time>2018-04-05T10:21:34Z</time>
      </trkpt>
      <trkpt lat="45.95856" lon="4.91226">
        <ele>297</ele>
        <time>2018-04-05T10:21:35Z</time>
      </trkpt>
      <trkpt lat="45.95856" lon="4.91218">
        <ele>297</ele>
        <time>2018-04-05T10:21:36Z</time>
      </trkpt>
      <trkpt lat="45.95856" lon="4.91211">
        <ele>297</ele>
        <time>2018-04-05T10:21:37Z</time>
      </trkpt>
      <trkpt lat="45.95856" lon="4.91203">
        <ele>297</ele>
        <time>2018-04-05T10:21:38Z</time>
      </trkpt>
      <trkpt lat="45.95856" lon="4.91195">
        <ele>297</ele>
        <time>2018-04-05T10:21:39Z</time>
      </trkpt>
      <trkpt lat="45.95857" lon="4.91188">
        <ele>297</ele>
        <time>2018-04-05T10:21:40Z</time>
      </trkpt>
      <trkpt lat="45.95857" lon="4.9118">
        <ele>296</ele>
        <time>2018-04-05T10:21:41Z</time>
      </trkpt>
      <trkpt lat="45.95858" lon="4.91173">
        <ele>296</ele>
        <time>2018-04-05T10:21:42Z</time>
      </trkpt>
      <trkpt lat="45.95858" lon="4.91164">
        <ele>297</ele>
        <time>2018-04-05T10:21:43Z</time>
      </trkpt>
      <trkpt lat="45.95858" lon="4.91157">
        <ele>297</ele>
        <time>2018-04-05T10:21:44Z</time>
      </trkpt>
      <trkpt lat="45.95858" lon="4.9115">
        <ele>297</ele>
        <time>2018-04-05T10:21:45Z</time>
      </trkpt>
      <trkpt lat="45.95857" lon="4.91141">
        <ele>297</ele>
        <time>2018-04-05T10:21:46Z</time>
      </trkpt>
      <trkpt lat="45.95858" lon="4.91134">
        <ele>297</ele>
        <time>2018-04-05T10:21:47Z</time>
      </trkpt>
      <trkpt lat="45.95858" lon="4.91126">
        <ele>297</ele>
        <time>2018-04-05T10:21:48Z</time>
      </trkpt>
      <trkpt lat="45.9586" lon="4.91117">
        <ele>297</ele>
        <time>2018-04-05T10:21:50Z</time>
      </trkpt>
      <trkpt lat="45.9586" lon="4.91105">
        <ele>297</ele>
        <time>2018-04-05T10:21:51Z</time>
      </trkpt>
      <trkpt lat="45.9586" lon="4.91098">
        <ele>297</ele>
        <time>2018-04-05T10:21:52Z</time>
      </trkpt>
      <trkpt lat="45.9586" lon="4.91091">
        <ele>297</ele>
        <time>2018-04-05T10:21:53Z</time>
      </trkpt>
      <trkpt lat="45.95861" lon="4.91084">
        <ele>297</ele>
        <time>2018-04-05T10:21:54Z</time>
      </trkpt>
      <trkpt lat="45.95861" lon="4.91076">
        <ele>297</ele>
        <time>2018-04-05T10:21:55Z</time>
      </trkpt>
      <trkpt lat="45.95861" lon="4.91069">
        <ele>297</ele>
        <time>2018-04-05T10:21:56Z</time>
      </trkpt>
      <trkpt lat="45.95861" lon="4.91061">
        <ele>297</ele>
        <time>2018-04-05T10:21:57Z</time>
      </trkpt>
      <trkpt lat="45.95861" lon="4.91054">
        <ele>297</ele>
        <time>2018-04-05T10:21:58Z</time>
      </trkpt>
      <trkpt lat="45.95863" lon="4.91046">
        <ele>297</ele>
        <time>2018-04-05T10:21:59Z</time>
      </trkpt>
      <trkpt lat="45.95863" lon="4.91038">
        <ele>297</ele>
        <time>2018-04-05T10:22:00Z</time>
      </trkpt>
      <trkpt lat="45.95863" lon="4.91031">
        <ele>296</ele>
        <time>2018-04-05T10:22:01Z</time>
      </trkpt>
      <trkpt lat="45.95864" lon="4.91023">
        <ele>296</ele>
        <time>2018-04-05T10:22:02Z</time>
      </trkpt>
      <trkpt lat="45.95864" lon="4.91015">
        <ele>296</ele>
        <time>2018-04-05T10:22:03Z</time>
      </trkpt>
      <trkpt lat="45.95865" lon="4.91008">
        <ele>296</ele>
        <time>2018-04-05T10:22:04Z</time>
      </trkpt>
      <trkpt lat="45.95865" lon="4.90999">
        <ele>294</ele>
        <time>2018-04-05T10:22:05Z</time>
      </trkpt>
      <trkpt lat="45.95865" lon="4.90991">
        <ele>294</ele>
        <time>2018-04-05T10:22:06Z</time>
      </trkpt>
      <trkpt lat="45.95865" lon="4.90984">
        <ele>294</ele>
        <time>2018-04-05T10:22:07Z</time>
      </trkpt>
      <trkpt lat="45.95866" lon="4.90976">
        <ele>294</ele>
        <time>2018-04-05T10:22:08Z</time>
      </trkpt>
      <trkpt lat="45.95866" lon="4.90968">
        <ele>294</ele>
        <time>2018-04-05T10:22:09Z</time>
      </trkpt>
      <trkpt lat="45.95866" lon="4.9096">
        <ele>294</ele>
        <time>2018-04-05T10:22:10Z</time>
      </trkpt>
      <trkpt lat="45.95866" lon="4.90952">
        <ele>294</ele>
        <time>2018-04-05T10:22:11Z</time>
      </trkpt>
      <trkpt lat="45.95866" lon="4.90944">
        <ele>293</ele>
        <time>2018-04-05T10:22:12Z</time>
      </trkpt>
      <trkpt lat="45.95867" lon="4.90937">
        <ele>293</ele>
        <time>2018-04-05T10:22:13Z</time>
      </trkpt>
      <trkpt lat="45.95867" lon="4.90929">
        <ele>293</ele>
        <time>2018-04-05T10:22:14Z</time>
      </trkpt>
      <trkpt lat="45.95867" lon="4.90922">
        <ele>293</ele>
        <time>2018-04-05T10:22:15Z</time>
      </trkpt>
      <trkpt lat="45.95867" lon="4.90914">
        <ele>292</ele>
        <time>2018-04-05T10:22:16Z</time>
      </trkpt>
      <trkpt lat="45.95868" lon="4.90907">
        <ele>292</ele>
        <time>2018-04-05T10:22:17Z</time>
      </trkpt>
      <trkpt lat="45.95868" lon="4.90899">
        <ele>292</ele>
        <time>2018-04-05T10:22:18Z</time>
      </trkpt>
      <trkpt lat="45.95868" lon="4.90891">
        <ele>292</ele>
        <time>2018-04-05T10:22:19Z</time>
      </trkpt>
      <trkpt lat="45.95868" lon="4.90884">
        <ele>292</ele>
        <time>2018-04-05T10:22:20Z</time>
      </trkpt>
      <trkpt lat="45.95869" lon="4.90876">
        <ele>292</ele>
        <time>2018-04-05T10:22:21Z</time>
      </trkpt>
      <trkpt lat="45.95868" lon="4.90868">
        <ele>292</ele>
        <time>2018-04-05T10:22:22Z</time>
      </trkpt>
      <trkpt lat="45.95869" lon="4.90861">
        <ele>292</ele>
        <time>2018-04-05T10:22:23Z</time>
      </trkpt>
      <trkpt lat="45.95869" lon="4.90853">
        <ele>292</ele>
        <time>2018-04-05T10:22:24Z</time>
      </trkpt>
      <trkpt lat="45.95869" lon="4.90845">
        <ele>292</ele>
        <time>2018-04-05T10:22:25Z</time>
      </trkpt>
      <trkpt lat="45.95869" lon="4.90838">
        <ele>292</ele>
        <time>2018-04-05T10:22:26Z</time>
      </trkpt>
      <trkpt lat="45.95869" lon="4.9083">
        <ele>292</ele>
        <time>2018-04-05T10:22:27Z</time>
      </trkpt>
      <trkpt lat="45.95869" lon="4.90822">
        <ele>291</ele>
        <time>2018-04-05T10:22:28Z</time>
      </trkpt>
      <trkpt lat="45.95869" lon="4.90814">
        <ele>291</ele>
        <time>2018-04-05T10:22:29Z</time>
      </trkpt>
      <trkpt lat="45.95868" lon="4.90807">
        <ele>291</ele>
        <time>2018-04-05T10:22:30Z</time>
      </trkpt>
      <trkpt lat="45.95868" lon="4.90799">
        <ele>291</ele>
        <time>2018-04-05T10:22:31Z</time>
      </trkpt>
      <trkpt lat="45.95869" lon="4.90792">
        <ele>291</ele>
        <time>2018-04-05T10:22:32Z</time>
      </trkpt>
      <trkpt lat="45.95869" lon="4.90784">
        <ele>291</ele>
        <time>2018-04-05T10:22:33Z</time>
      </trkpt>
      <trkpt lat="45.95869" lon="4.90776">
        <ele>291</ele>
        <time>2018-04-05T10:22:34Z</time>
      </trkpt>
      <trkpt lat="45.95869" lon="4.90769">
        <ele>291</ele>
        <time>2018-04-05T10:22:35Z</time>
      </trkpt>
      <trkpt lat="45.95869" lon="4.90762">
        <ele>291</ele>
        <time>2018-04-05T10:22:36Z</time>
      </trkpt>
      <trkpt lat="45.9587" lon="4.90754">
        <ele>291</ele>
        <time>2018-04-05T10:22:37Z</time>
      </trkpt>
      <trkpt lat="45.95871" lon="4.90748">
        <ele>292</ele>
        <time>2018-04-05T10:22:38Z</time>
      </trkpt>
      <trkpt lat="45.95871" lon="4.9074">
        <ele>292</ele>
        <time>2018-04-05T10:22:39Z</time>
      </trkpt>
      <trkpt lat="45.95872" lon="4.90733">
        <ele>292</ele>
        <time>2018-04-05T10:22:40Z</time>
      </trkpt>
      <trkpt lat="45.95873" lon="4.90725">
        <ele>292</ele>
        <time>2018-04-05T10:22:41Z</time>
      </trkpt>
      <trkpt lat="45.95873" lon="4.90718">
        <ele>292</ele>
        <time>2018-04-05T10:22:42Z</time>
      </trkpt>
      <trkpt lat="45.95873" lon="4.90709">
        <ele>292</ele>
        <time>2018-04-05T10:22:43Z</time>
      </trkpt>
      <trkpt lat="45.95873" lon="4.90701">
        <ele>292</ele>
        <time>2018-04-05T10:22:44Z</time>
      </trkpt>
      <trkpt lat="45.95873" lon="4.90694">
        <ele>292</ele>
        <time>2018-04-05T10:22:45Z</time>
      </trkpt>
      <trkpt lat="45.95873" lon="4.90686">
        <ele>292</ele>
        <time>2018-04-05T10:22:46Z</time>
      </trkpt>
      <trkpt lat="45.95872" lon="4.90678">
        <ele>292</ele>
        <time>2018-04-05T10:22:47Z</time>
      </trkpt>
      <trkpt lat="45.95872" lon="4.9067">
        <ele>292</ele>
        <time>2018-04-05T10:22:48Z</time>
      </trkpt>
      <trkpt lat="45.95872" lon="4.90663">
        <ele>293</ele>
        <time>2018-04-05T10:22:49Z</time>
      </trkpt>
      <trkpt lat="45.95873" lon="4.90656">
        <ele>293</ele>
        <time>2018-04-05T10:22:50Z</time>
      </trkpt>
      <trkpt lat="45.95873" lon="4.90648">
        <ele>293</ele>
        <time>2018-04-05T10:22:51Z</time>
      </trkpt>
      <trkpt lat="45.95874" lon="4.90642">
        <ele>293</ele>
        <time>2018-04-05T10:22:52Z</time>
      </trkpt>
      <trkpt lat="45.95874" lon="4.90635">
        <ele>293</ele>
        <time>2018-04-05T10:22:53Z</time>
      </trkpt>
      <trkpt lat="45.95874" lon="4.90628">
        <ele>293</ele>
        <time>2018-04-05T10:22:54Z</time>
      </trkpt>
      <trkpt lat="45.95875" lon="4.90621">
        <ele>293</ele>
        <time>2018-04-05T10:22:55Z</time>
      </trkpt>
      <trkpt lat="45.95876" lon="4.90613">
        <ele>293</ele>
        <time>2018-04-05T10:22:56Z</time>
      </trkpt>
      <trkpt lat="45.95876" lon="4.90605">
        <ele>293</ele>
        <time>2018-04-05T10:22:57Z</time>
      </trkpt>
      <trkpt lat="45.95877" lon="4.90597">
        <ele>293</ele>
        <time>2018-04-05T10:22:58Z</time>
      </trkpt>
      <trkpt lat="45.95877" lon="4.90591">
        <ele>293</ele>
        <time>2018-04-05T10:22:59Z</time>
      </trkpt>
      <trkpt lat="45.95878" lon="4.90584">
        <ele>293</ele>
        <time>2018-04-05T10:23:00Z</time>
      </trkpt>
      <trkpt lat="45.95878" lon="4.90577">
        <ele>292</ele>
        <time>2018-04-05T10:23:01Z</time>
      </trkpt>
      <trkpt lat="45.95878" lon="4.90571">
        <ele>292</ele>
        <time>2018-04-05T10:23:02Z</time>
      </trkpt>
      <trkpt lat="45.95878" lon="4.90564">
        <ele>292</ele>
        <time>2018-04-05T10:23:03Z</time>
      </trkpt>
      <trkpt lat="45.95878" lon="4.90556">
        <ele>292</ele>
        <time>2018-04-05T10:23:04Z</time>
      </trkpt>
      <trkpt lat="45.95879" lon="4.90549">
        <ele>292</ele>
        <time>2018-04-05T10:23:05Z</time>
      </trkpt>
      <trkpt lat="45.9588" lon="4.90542">
        <ele>292</ele>
        <time>2018-04-05T10:23:06Z</time>
      </trkpt>
      <trkpt lat="45.9588" lon="4.90535">
        <ele>292</ele>
        <time>2018-04-05T10:23:07Z</time>
      </trkpt>
      <trkpt lat="45.9588" lon="4.90528">
        <ele>292</ele>
        <time>2018-04-05T10:23:08Z</time>
      </trkpt>
      <trkpt lat="45.95881" lon="4.9052">
        <ele>292</ele>
        <time>2018-04-05T10:23:09Z</time>
      </trkpt>
      <trkpt lat="45.95881" lon="4.90513">
        <ele>292</ele>
        <time>2018-04-05T10:23:10Z</time>
      </trkpt>
      <trkpt lat="45.9588" lon="4.90505">
        <ele>292</ele>
        <time>2018-04-05T10:23:11Z</time>
      </trkpt>
      <trkpt lat="45.95881" lon="4.90498">
        <ele>292</ele>
        <time>2018-04-05T10:23:12Z</time>
      </trkpt>
      <trkpt lat="45.95882" lon="4.90491">
        <ele>292</ele>
        <time>2018-04-05T10:23:13Z</time>
      </trkpt>
      <trkpt lat="45.95882" lon="4.90483">
        <ele>292</ele>
        <time>2018-04-05T10:23:14Z</time>
      </trkpt>
      <trkpt lat="45.95882" lon="4.90475">
        <ele>292</ele>
        <time>2018-04-05T10:23:15Z</time>
      </trkpt>
      <trkpt lat="45.95882" lon="4.90467">
        <ele>292</ele>
        <time>2018-04-05T10:23:16Z</time>
      </trkpt>
      <trkpt lat="45.95882" lon="4.90459">
        <ele>292</ele>
        <time>2018-04-05T10:23:17Z</time>
      </trkpt>
      <trkpt lat="45.95882" lon="4.90452">
        <ele>292</ele>
        <time>2018-04-05T10:23:18Z</time>
      </trkpt>
      <trkpt lat="45.95883" lon="4.90444">
        <ele>292</ele>
        <time>2018-04-05T10:23:19Z</time>
      </trkpt>
      <trkpt lat="45.95884" lon="4.90438">
        <ele>292</ele>
        <time>2018-04-05T10:23:20Z</time>
      </trkpt>
      <trkpt lat="45.95885" lon="4.9043">
        <ele>292</ele>
        <time>2018-04-05T10:23:21Z</time>
      </trkpt>
      <trkpt lat="45.95885" lon="4.90423">
        <ele>292</ele>
        <time>2018-04-05T10:23:22Z</time>
      </trkpt>
      <trkpt lat="45.95886" lon="4.90415">
        <ele>292</ele>
        <time>2018-04-05T10:23:23Z</time>
      </trkpt>
      <trkpt lat="45.95886" lon="4.90408">
        <ele>292</ele>
        <time>2018-04-05T10:23:24Z</time>
      </trkpt>
      <trkpt lat="45.95887" lon="4.90401">
        <ele>292</ele>
        <time>2018-04-05T10:23:25Z</time>
      </trkpt>
      <trkpt lat="45.95888" lon="4.90394">
        <ele>292</ele>
        <time>2018-04-05T10:23:26Z</time>
      </trkpt>
      <trkpt lat="45.95888" lon="4.90386">
        <ele>292</ele>
        <time>2018-04-05T10:23:27Z</time>
      </trkpt>
      <trkpt lat="45.95888" lon="4.90378">
        <ele>292</ele>
        <time>2018-04-05T10:23:28Z</time>
      </trkpt>
      <trkpt lat="45.95888" lon="4.90371">
        <ele>292</ele>
        <time>2018-04-05T10:23:29Z</time>
      </trkpt>
      <trkpt lat="45.95889" lon="4.90363">
        <ele>292</ele>
        <time>2018-04-05T10:23:30Z</time>
      </trkpt>
      <trkpt lat="45.95889" lon="4.90356">
        <ele>292</ele>
        <time>2018-04-05T10:23:31Z</time>
      </trkpt>
      <trkpt lat="45.9589" lon="4.90348">
        <ele>292</ele>
        <time>2018-04-05T10:23:32Z</time>
      </trkpt>
      <trkpt lat="45.9589" lon="4.90339">
        <ele>292</ele>
        <time>2018-04-05T10:23:33Z</time>
      </trkpt>
      <trkpt lat="45.95891" lon="4.90331">
        <ele>292</ele>
        <time>2018-04-05T10:23:34Z</time>
      </trkpt>
      <trkpt lat="45.95891" lon="4.90323">
        <ele>292</ele>
        <time>2018-04-05T10:23:35Z</time>
      </trkpt>
      <trkpt lat="45.9589" lon="4.90316">
        <ele>292</ele>
        <time>2018-04-05T10:23:36Z</time>
      </trkpt>
      <trkpt lat="45.9589" lon="4.90309">
        <ele>292</ele>
        <time>2018-04-05T10:23:37Z</time>
      </trkpt>
      <trkpt lat="45.9589" lon="4.90302">
        <ele>292</ele>
        <time>2018-04-05T10:23:38Z</time>
      </trkpt>
      <trkpt lat="45.9589" lon="4.90294">
        <ele>292</ele>
        <time>2018-04-05T10:23:39Z</time>
      </trkpt>
      <trkpt lat="45.95889" lon="4.90288">
        <ele>292</ele>
        <time>2018-04-05T10:23:40Z</time>
      </trkpt>
      <trkpt lat="45.95889" lon="4.90281">
        <ele>292</ele>
        <time>2018-04-05T10:23:41Z</time>
      </trkpt>
      <trkpt lat="45.9589" lon="4.90273">
        <ele>292</ele>
        <time>2018-04-05T10:23:42Z</time>
      </trkpt>
      <trkpt lat="45.9589" lon="4.90266">
        <ele>292</ele>
        <time>2018-04-05T10:23:43Z</time>
      </trkpt>
      <trkpt lat="45.95891" lon="4.90257">
        <ele>292</ele>
        <time>2018-04-05T10:23:44Z</time>
      </trkpt>
      <trkpt lat="45.95891" lon="4.90249">
        <ele>292</ele>
        <time>2018-04-05T10:23:45Z</time>
      </trkpt>
      <trkpt lat="45.95891" lon="4.90242">
        <ele>292</ele>
        <time>2018-04-05T10:23:46Z</time>
      </trkpt>
      <trkpt lat="45.95891" lon="4.90233">
        <ele>292</ele>
        <time>2018-04-05T10:23:47Z</time>
      </trkpt>
      <trkpt lat="45.95891" lon="4.90225">
        <ele>292</ele>
        <time>2018-04-05T10:23:48Z</time>
      </trkpt>
      <trkpt lat="45.95891" lon="4.90219">
        <ele>291</ele>
        <time>2018-04-05T10:23:49Z</time>
      </trkpt>
      <trkpt lat="45.9589" lon="4.90211">
        <ele>291</ele>
        <time>2018-04-05T10:23:50Z</time>
      </trkpt>
      <trkpt lat="45.95891" lon="4.90203">
        <ele>291</ele>
        <time>2018-04-05T10:23:51Z</time>
      </trkpt>
      <trkpt lat="45.95892" lon="4.90196">
        <ele>291</ele>
        <time>2018-04-05T10:23:52Z</time>
      </trkpt>
      <trkpt lat="45.95893" lon="4.90189">
        <ele>291</ele>
        <time>2018-04-05T10:23:53Z</time>
      </trkpt>
      <trkpt lat="45.95893" lon="4.90182">
        <ele>291</ele>
        <time>2018-04-05T10:23:54Z</time>
      </trkpt>
      <trkpt lat="45.95893" lon="4.90173">
        <ele>291</ele>
        <time>2018-04-05T10:23:55Z</time>
      </trkpt>
      <trkpt lat="45.95893" lon="4.90166">
        <ele>290</ele>
        <time>2018-04-05T10:23:56Z</time>
      </trkpt>
      <trkpt lat="45.95893" lon="4.90157">
        <ele>290</ele>
        <time>2018-04-05T10:23:57Z</time>
      </trkpt>
      <trkpt lat="45.95893" lon="4.9015">
        <ele>290</ele>
        <time>2018-04-05T10:23:58Z</time>
      </trkpt>
      <trkpt lat="45.95893" lon="4.90142">
        <ele>290</ele>
        <time>2018-04-05T10:23:59Z</time>
      </trkpt>
      <trkpt lat="45.95894" lon="4.90134">
        <ele>290</ele>
        <time>2018-04-05T10:24:00Z</time>
      </trkpt>
      <trkpt lat="45.95894" lon="4.90124">
        <ele>290</ele>
        <time>2018-04-05T10:24:01Z</time>
      </trkpt>
      <trkpt lat="45.95894" lon="4.90115">
        <ele>290</ele>
        <time>2018-04-05T10:24:02Z</time>
      </trkpt>
      <trkpt lat="45.95894" lon="4.90106">
        <ele>290</ele>
        <time>2018-04-05T10:24:03Z</time>
      </trkpt>
      <trkpt lat="45.95894" lon="4.90098">
        <ele>290</ele>
        <time>2018-04-05T10:24:04Z</time>
      </trkpt>
      <trkpt lat="45.95894" lon="4.9009">
        <ele>290</ele>
        <time>2018-04-05T10:24:05Z</time>
      </trkpt>
      <trkpt lat="45.95894" lon="4.90082">
        <ele>290</ele>
        <time>2018-04-05T10:24:06Z</time>
      </trkpt>
      <trkpt lat="45.95894" lon="4.90075">
        <ele>290</ele>
        <time>2018-04-05T10:24:07Z</time>
      </trkpt>
      <trkpt lat="45.95894" lon="4.90068">
        <ele>290</ele>
        <time>2018-04-05T10:24:08Z</time>
      </trkpt>
      <trkpt lat="45.95894" lon="4.90061">
        <ele>290</ele>
        <time>2018-04-05T10:24:09Z</time>
      </trkpt>
      <trkpt lat="45.95894" lon="4.90053">
        <ele>290</ele>
        <time>2018-04-05T10:24:10Z</time>
      </trkpt>
      <trkpt lat="45.95894" lon="4.90046">
        <ele>290</ele>
        <time>2018-04-05T10:24:11Z</time>
      </trkpt>
      <trkpt lat="45.95894" lon="4.90034">
        <ele>290</ele>
        <time>2018-04-05T10:24:13Z</time>
      </trkpt>
      <trkpt lat="45.95894" lon="4.90027">
        <ele>290</ele>
        <time>2018-04-05T10:24:14Z</time>
      </trkpt>
      <trkpt lat="45.95894" lon="4.9002">
        <ele>290</ele>
        <time>2018-04-05T10:24:15Z</time>
      </trkpt>
      <trkpt lat="45.95894" lon="4.90011">
        <ele>290</ele>
        <time>2018-04-05T10:24:16Z</time>
      </trkpt>
      <trkpt lat="45.95893" lon="4.90004">
        <ele>290</ele>
        <time>2018-04-05T10:24:17Z</time>
      </trkpt>
      <trkpt lat="45.95893" lon="4.89997">
        <ele>290</ele>
        <time>2018-04-05T10:24:18Z</time>
      </trkpt>
      <trkpt lat="45.95893" lon="4.89989">
        <ele>290</ele>
        <time>2018-04-05T10:24:19Z</time>
      </trkpt>
      <trkpt lat="45.95893" lon="4.89981">
        <ele>290</ele>
        <time>2018-04-05T10:24:20Z</time>
      </trkpt>
      <trkpt lat="45.95894" lon="4.89974">
        <ele>290</ele>
        <time>2018-04-05T10:24:21Z</time>
      </trkpt>
      <trkpt lat="45.95894" lon="4.89968">
        <ele>290</ele>
        <time>2018-04-05T10:24:22Z</time>
      </trkpt>
      <trkpt lat="45.95894" lon="4.89961">
        <ele>290</ele>
        <time>2018-04-05T10:24:23Z</time>
      </trkpt>
      <trkpt lat="45.95893" lon="4.89954">
        <ele>290</ele>
        <time>2018-04-05T10:24:24Z</time>
      </trkpt>
      <trkpt lat="45.95893" lon="4.89946">
        <ele>290</ele>
        <time>2018-04-05T10:24:25Z</time>
      </trkpt>
      <trkpt lat="45.95894" lon="4.8994">
        <ele>290</ele>
        <time>2018-04-05T10:24:26Z</time>
      </trkpt>
      <trkpt lat="45.95893" lon="4.89933">
        <ele>290</ele>
        <time>2018-04-05T10:24:27Z</time>
      </trkpt>
      <trkpt lat="45.95893" lon="4.89926">
        <ele>290</ele>
        <time>2018-04-05T10:24:28Z</time>
      </trkpt>
      <trkpt lat="45.95893" lon="4.89919">
        <ele>290</ele>
        <time>2018-04-05T10:24:29Z</time>
      </trkpt>
      <trkpt lat="45.95892" lon="4.89911">
        <ele>290</ele>
        <time>2018-04-05T10:24:30Z</time>
      </trkpt>
      <trkpt lat="45.95892" lon="4.89903">
        <ele>290</ele>
        <time>2018-04-05T10:24:31Z</time>
      </trkpt>
      <trkpt lat="45.95893" lon="4.89896">
        <ele>290</ele>
        <time>2018-04-05T10:24:32Z</time>
      </trkpt>
      <trkpt lat="45.95892" lon="4.89886">
        <ele>290</ele>
        <time>2018-04-05T10:24:33Z</time>
      </trkpt>
      <trkpt lat="45.95893" lon="4.8988">
        <ele>290</ele>
        <time>2018-04-05T10:24:34Z</time>
      </trkpt>
      <trkpt lat="45.95892" lon="4.89872">
        <ele>290</ele>
        <time>2018-04-05T10:24:35Z</time>
      </trkpt>
      <trkpt lat="45.95891" lon="4.89865">
        <ele>290</ele>
        <time>2018-04-05T10:24:36Z</time>
      </trkpt>
      <trkpt lat="45.9589" lon="4.89858">
        <ele>290</ele>
        <time>2018-04-05T10:24:37Z</time>
      </trkpt>
      <trkpt lat="45.95891" lon="4.89849">
        <ele>290</ele>
        <time>2018-04-05T10:24:38Z</time>
      </trkpt>
      <trkpt lat="45.95892" lon="4.89843">
        <ele>290</ele>
        <time>2018-04-05T10:24:39Z</time>
      </trkpt>
      <trkpt lat="45.95891" lon="4.89836">
        <ele>290</ele>
        <time>2018-04-05T10:24:40Z</time>
      </trkpt>
      <trkpt lat="45.95891" lon="4.89829">
        <ele>289</ele>
        <time>2018-04-05T10:24:41Z</time>
      </trkpt>
      <trkpt lat="45.9589" lon="4.89823">
        <ele>289</ele>
        <time>2018-04-05T10:24:42Z</time>
      </trkpt>
      <trkpt lat="45.95889" lon="4.8981">
        <ele>289</ele>
        <time>2018-04-05T10:24:44Z</time>
      </trkpt>
      <trkpt lat="45.95889" lon="4.89804">
        <ele>289</ele>
        <time>2018-04-05T10:24:45Z</time>
      </trkpt>
      <trkpt lat="45.95888" lon="4.89798">
        <ele>289</ele>
        <time>2018-04-05T10:24:46Z</time>
      </trkpt>
      <trkpt lat="45.95889" lon="4.8979">
        <ele>289</ele>
        <time>2018-04-05T10:24:47Z</time>
      </trkpt>
      <trkpt lat="45.95888" lon="4.89783">
        <ele>289</ele>
        <time>2018-04-05T10:24:48Z</time>
      </trkpt>
      <trkpt lat="45.95888" lon="4.89776">
        <ele>289</ele>
        <time>2018-04-05T10:24:49Z</time>
      </trkpt>
      <trkpt lat="45.95888" lon="4.89768">
        <ele>289</ele>
        <time>2018-04-05T10:24:50Z</time>
      </trkpt>
      <trkpt lat="45.95888" lon="4.89761">
        <ele>289</ele>
        <time>2018-04-05T10:24:51Z</time>
      </trkpt>
      <trkpt lat="45.95888" lon="4.89755">
        <ele>289</ele>
        <time>2018-04-05T10:24:52Z</time>
      </trkpt>
      <trkpt lat="45.95888" lon="4.89747">
        <ele>289</ele>
        <time>2018-04-05T10:24:53Z</time>
      </trkpt>
      <trkpt lat="45.95889" lon="4.89735">
        <ele>289</ele>
        <time>2018-04-05T10:24:55Z</time>
      </trkpt>
      <trkpt lat="45.95889" lon="4.89728">
        <ele>289</ele>
        <time>2018-04-05T10:24:56Z</time>
      </trkpt>
      <trkpt lat="45.95887" lon="4.89716">
        <ele>289</ele>
        <time>2018-04-05T10:24:58Z</time>
      </trkpt>
      <trkpt lat="45.95886" lon="4.89709">
        <ele>289</ele>
        <time>2018-04-05T10:24:59Z</time>
      </trkpt>
      <trkpt lat="45.95887" lon="4.89697">
        <ele>289</ele>
        <time>2018-04-05T10:25:01Z</time>
      </trkpt>
      <trkpt lat="45.95888" lon="4.89689">
        <ele>289</ele>
        <time>2018-04-05T10:25:02Z</time>
      </trkpt>
      <trkpt lat="45.95888" lon="4.89682">
        <ele>289</ele>
        <time>2018-04-05T10:25:03Z</time>
      </trkpt>
      <trkpt lat="45.95888" lon="4.89674">
        <ele>289</ele>
        <time>2018-04-05T10:25:04Z</time>
      </trkpt>
      <trkpt lat="45.95887" lon="4.89666">
        <ele>289</ele>
        <time>2018-04-05T10:25:05Z</time>
      </trkpt>
      <trkpt lat="45.95887" lon="4.89658">
        <ele>289</ele>
        <time>2018-04-05T10:25:06Z</time>
      </trkpt>
      <trkpt lat="45.95888" lon="4.8965">
        <ele>289</ele>
        <time>2018-04-05T10:25:07Z</time>
      </trkpt>
      <trkpt lat="45.95888" lon="4.89641">
        <ele>289</ele>
        <time>2018-04-05T10:25:08Z</time>
      </trkpt>
      <trkpt lat="45.95888" lon="4.89632">
        <ele>289</ele>
        <time>2018-04-05T10:25:09Z</time>
      </trkpt>
      <trkpt lat="45.95888" lon="4.89624">
        <ele>289</ele>
        <time>2018-04-05T10:25:10Z</time>
      </trkpt>
      <trkpt lat="45.95889" lon="4.89616">
        <ele>289</ele>
        <time>2018-04-05T10:25:11Z</time>
      </trkpt>
      <trkpt lat="45.95888" lon="4.89606">
        <ele>289</ele>
        <time>2018-04-05T10:25:12Z</time>
      </trkpt>
      <trkpt lat="45.95888" lon="4.89598">
        <ele>289</ele>
        <time>2018-04-05T10:25:13Z</time>
      </trkpt>
      <trkpt lat="45.95888" lon="4.89588">
        <ele>289</ele>
        <time>2018-04-05T10:25:14Z</time>
      </trkpt>
      <trkpt lat="45.95888" lon="4.89581">
        <ele>288</ele>
        <time>2018-04-05T10:25:15Z</time>
      </trkpt>
      <trkpt lat="45.95887" lon="4.89572">
        <ele>288</ele>
        <time>2018-04-05T10:25:16Z</time>
      </trkpt>
      <trkpt lat="45.95886" lon="4.89565">
        <ele>288</ele>
        <time>2018-04-05T10:25:17Z</time>
      </trkpt>
      <trkpt lat="45.95886" lon="4.89557">
        <ele>288</ele>
        <time>2018-04-05T10:25:18Z</time>
      </trkpt>
      <trkpt lat="45.95887" lon="4.89549">
        <ele>288</ele>
        <time>2018-04-05T10:25:19Z</time>
      </trkpt>
      <trkpt lat="45.95887" lon="4.89541">
        <ele>288</ele>
        <time>2018-04-05T10:25:20Z</time>
      </trkpt>
      <trkpt lat="45.95887" lon="4.89533">
        <ele>288</ele>
        <time>2018-04-05T10:25:21Z</time>
      </trkpt>
      <trkpt lat="45.95886" lon="4.89526">
        <ele>288</ele>
        <time>2018-04-05T10:25:22Z</time>
      </trkpt>
      <trkpt lat="45.95886" lon="4.89517">
        <ele>288</ele>
        <time>2018-04-05T10:25:23Z</time>
      </trkpt>
      <trkpt lat="45.95887" lon="4.89509">
        <ele>288</ele>
        <time>2018-04-05T10:25:24Z</time>
      </trkpt>
      <trkpt lat="45.95888" lon="4.89501">
        <ele>288</ele>
        <time>2018-04-05T10:25:25Z</time>
      </trkpt>
      <trkpt lat="45.95888" lon="4.89492">
        <ele>289</ele>
        <time>2018-04-05T10:25:26Z</time>
      </trkpt>
      <trkpt lat="45.95887" lon="4.89484">
        <ele>289</ele>
        <time>2018-04-05T10:25:27Z</time>
      </trkpt>
      <trkpt lat="45.95886" lon="4.89476">
        <ele>289</ele>
        <time>2018-04-05T10:25:28Z</time>
      </trkpt>
      <trkpt lat="45.95886" lon="4.89467">
        <ele>289</ele>
        <time>2018-04-05T10:25:29Z</time>
      </trkpt>
      <trkpt lat="45.95886" lon="4.89459">
        <ele>289</ele>
        <time>2018-04-05T10:25:30Z</time>
      </trkpt>
      <trkpt lat="45.95885" lon="4.89452">
        <ele>289</ele>
        <time>2018-04-05T10:25:31Z</time>
      </trkpt>
      <trkpt lat="45.95885" lon="4.89444">
        <ele>289</ele>
        <time>2018-04-05T10:25:32Z</time>
      </trkpt>
      <trkpt lat="45.95885" lon="4.89436">
        <ele>289</ele>
        <time>2018-04-05T10:25:33Z</time>
      </trkpt>
      <trkpt lat="45.95885" lon="4.89428">
        <ele>289</ele>
        <time>2018-04-05T10:25:34Z</time>
      </trkpt>
      <trkpt lat="45.95885" lon="4.89422">
        <ele>289</ele>
        <time>2018-04-05T10:25:35Z</time>
      </trkpt>
      <trkpt lat="45.95885" lon="4.89414">
        <ele>289</ele>
        <time>2018-04-05T10:25:36Z</time>
      </trkpt>
      <trkpt lat="45.95884" lon="4.89405">
        <ele>289</ele>
        <time>2018-04-05T10:25:37Z</time>
      </trkpt>
      <trkpt lat="45.95884" lon="4.89398">
        <ele>289</ele>
        <time>2018-04-05T10:25:38Z</time>
      </trkpt>
      <trkpt lat="45.95884" lon="4.89392">
        <ele>289</ele>
        <time>2018-04-05T10:25:39Z</time>
      </trkpt>
      <trkpt lat="45.95884" lon="4.89384">
        <ele>289</ele>
        <time>2018-04-05T10:25:40Z</time>
      </trkpt>
      <trkpt lat="45.95884" lon="4.89376">
        <ele>289</ele>
        <time>2018-04-05T10:25:41Z</time>
      </trkpt>
      <trkpt lat="45.95884" lon="4.89367">
        <ele>289</ele>
        <time>2018-04-05T10:25:42Z</time>
      </trkpt>
      <trkpt lat="45.95884" lon="4.89358">
        <ele>289</ele>
        <time>2018-04-05T10:25:43Z</time>
      </trkpt>
      <trkpt lat="45.95884" lon="4.89349">
        <ele>289</ele>
        <time>2018-04-05T10:25:44Z</time>
      </trkpt>
      <trkpt lat="45.95884" lon="4.89341">
        <ele>289</ele>
        <time>2018-04-05T10:25:45Z</time>
      </trkpt>
      <trkpt lat="45.95884" lon="4.89335">
        <ele>289</ele>
        <time>2018-04-05T10:25:46Z</time>
      </trkpt>
      <trkpt lat="45.95884" lon="4.89327">
        <ele>289</ele>
        <time>2018-04-05T10:25:47Z</time>
      </trkpt>
      <trkpt lat="45.95884" lon="4.89319">
        <ele>289</ele>
        <time>2018-04-05T10:25:48Z</time>
      </trkpt>
      <trkpt lat="45.95884" lon="4.89312">
        <ele>289</ele>
        <time>2018-04-05T10:25:49Z</time>
      </trkpt>
      <trkpt lat="45.95885" lon="4.89305">
        <ele>289</ele>
        <time>2018-04-05T10:25:50Z</time>
      </trkpt>
      <trkpt lat="45.95885" lon="4.89297">
        <ele>289</ele>
        <time>2018-04-05T10:25:51Z</time>
      </trkpt>
      <trkpt lat="45.95885" lon="4.8929">
        <ele>289</ele>
        <time>2018-04-05T10:25:52Z</time>
      </trkpt>
      <trkpt lat="45.95884" lon="4.89282">
        <ele>289</ele>
        <time>2018-04-05T10:25:53Z</time>
      </trkpt>
      <trkpt lat="45.95883" lon="4.89276">
        <ele>289</ele>
        <time>2018-04-05T10:25:54Z</time>
      </trkpt>
      <trkpt lat="45.95883" lon="4.89268">
        <ele>289</ele>
        <time>2018-04-05T10:25:55Z</time>
      </trkpt>
      <trkpt lat="45.95884" lon="4.8926">
        <ele>289</ele>
        <time>2018-04-05T10:25:56Z</time>
      </trkpt>
      <trkpt lat="45.95884" lon="4.89253">
        <ele>289</ele>
        <time>2018-04-05T10:25:57Z</time>
      </trkpt>
      <trkpt lat="45.95883" lon="4.89247">
        <ele>288</ele>
        <time>2018-04-05T10:25:58Z</time>
      </trkpt>
      <trkpt lat="45.95883" lon="4.8924">
        <ele>288</ele>
        <time>2018-04-05T10:25:59Z</time>
      </trkpt>
      <trkpt lat="45.95883" lon="4.89232">
        <ele>288</ele>
        <time>2018-04-05T10:26:00Z</time>
      </trkpt>
      <trkpt lat="45.95883" lon="4.89225">
        <ele>288</ele>
        <time>2018-04-05T10:26:01Z</time>
      </trkpt>
      <trkpt lat="45.95883" lon="4.89217">
        <ele>288</ele>
        <time>2018-04-05T10:26:02Z</time>
      </trkpt>
      <trkpt lat="45.95883" lon="4.8921">
        <ele>288</ele>
        <time>2018-04-05T10:26:03Z</time>
      </trkpt>
      <trkpt lat="45.95883" lon="4.89203">
        <ele>288</ele>
        <time>2018-04-05T10:26:04Z</time>
      </trkpt>
      <trkpt lat="45.95883" lon="4.89196">
        <ele>288</ele>
        <time>2018-04-05T10:26:05Z</time>
      </trkpt>
      <trkpt lat="45.95882" lon="4.89189">
        <ele>288</ele>
        <time>2018-04-05T10:26:06Z</time>
      </trkpt>
      <trkpt lat="45.95882" lon="4.8918">
        <ele>288</ele>
        <time>2018-04-05T10:26:07Z</time>
      </trkpt>
      <trkpt lat="45.95881" lon="4.89173">
        <ele>288</ele>
        <time>2018-04-05T10:26:08Z</time>
      </trkpt>
      <trkpt lat="45.9588" lon="4.89165">
        <ele>288</ele>
        <time>2018-04-05T10:26:09Z</time>
      </trkpt>
      <trkpt lat="45.95879" lon="4.89158">
        <ele>288</ele>
        <time>2018-04-05T10:26:10Z</time>
      </trkpt>
      <trkpt lat="45.95879" lon="4.89152">
        <ele>288</ele>
        <time>2018-04-05T10:26:11Z</time>
      </trkpt>
      <trkpt lat="45.95879" lon="4.89145">
        <ele>288</ele>
        <time>2018-04-05T10:26:12Z</time>
      </trkpt>
      <trkpt lat="45.95879" lon="4.89134">
        <ele>288</ele>
        <time>2018-04-05T10:26:14Z</time>
      </trkpt>
      <trkpt lat="45.95881" lon="4.89129">
        <ele>288</ele>
        <time>2018-04-05T10:26:15Z</time>
      </trkpt>
      <trkpt lat="45.95885" lon="4.89118">
        <ele>288</ele>
        <time>2018-04-05T10:26:19Z</time>
      </trkpt>
      <trkpt lat="45.9589" lon="4.8911">
        <ele>288</ele>
        <time>2018-04-05T10:26:20Z</time>
      </trkpt>
      <trkpt lat="45.95894" lon="4.89101">
        <ele>288</ele>
        <time>2018-04-05T10:26:22Z</time>
      </trkpt>
      <trkpt lat="45.95896" lon="4.89097">
        <ele>289</ele>
        <time>2018-04-05T10:26:23Z</time>
      </trkpt>
      <trkpt lat="45.95898" lon="4.89087">
        <ele>289</ele>
        <time>2018-04-05T10:26:25Z</time>
      </trkpt>
      <trkpt lat="45.959" lon="4.89082">
        <ele>289</ele>
        <time>2018-04-05T10:26:26Z</time>
      </trkpt>
      <trkpt lat="45.95901" lon="4.89069">
        <ele>289</ele>
        <time>2018-04-05T10:26:28Z</time>
      </trkpt>
      <trkpt lat="45.959" lon="4.89063">
        <ele>289</ele>
        <time>2018-04-05T10:26:29Z</time>
      </trkpt>
      <trkpt lat="45.959" lon="4.89056">
        <ele>289</ele>
        <time>2018-04-05T10:26:30Z</time>
      </trkpt>
      <trkpt lat="45.95899" lon="4.8905">
        <ele>289</ele>
        <time>2018-04-05T10:26:31Z</time>
      </trkpt>
      <trkpt lat="45.95898" lon="4.89043">
        <ele>289</ele>
        <time>2018-04-05T10:26:32Z</time>
      </trkpt>
      <trkpt lat="45.95897" lon="4.89037">
        <ele>289</ele>
        <time>2018-04-05T10:26:33Z</time>
      </trkpt>
      <trkpt lat="45.95894" lon="4.89026">
        <ele>289</ele>
        <time>2018-04-05T10:26:35Z</time>
      </trkpt>
      <trkpt lat="45.95894" lon="4.8902">
        <ele>289</ele>
        <time>2018-04-05T10:26:36Z</time>
      </trkpt>
      <trkpt lat="45.9589" lon="4.89011">
        <ele>289</ele>
        <time>2018-04-05T10:26:38Z</time>
      </trkpt>
      <trkpt lat="45.95889" lon="4.89005">
        <ele>289</ele>
        <time>2018-04-05T10:26:39Z</time>
      </trkpt>
      <trkpt lat="45.95888" lon="4.88999">
        <ele>289</ele>
        <time>2018-04-05T10:26:40Z</time>
      </trkpt>
      <trkpt lat="45.95887" lon="4.88991">
        <ele>289</ele>
        <time>2018-04-05T10:26:41Z</time>
      </trkpt>
      <trkpt lat="45.95885" lon="4.88984">
        <ele>289</ele>
        <time>2018-04-05T10:26:42Z</time>
      </trkpt>
      <trkpt lat="45.95884" lon="4.88976">
        <ele>289</ele>
        <time>2018-04-05T10:26:43Z</time>
      </trkpt>
      <trkpt lat="45.95884" lon="4.88968">
        <ele>289</ele>
        <time>2018-04-05T10:26:44Z</time>
      </trkpt>
      <trkpt lat="45.95883" lon="4.88959">
        <ele>289</ele>
        <time>2018-04-05T10:26:45Z</time>
      </trkpt>
      <trkpt lat="45.95881" lon="4.88952">
        <ele>289</ele>
        <time>2018-04-05T10:26:46Z</time>
      </trkpt>
      <trkpt lat="45.95881" lon="4.88944">
        <ele>289</ele>
        <time>2018-04-05T10:26:47Z</time>
      </trkpt>
      <trkpt lat="45.9588" lon="4.88935">
        <ele>289</ele>
        <time>2018-04-05T10:26:48Z</time>
      </trkpt>
      <trkpt lat="45.95881" lon="4.88927">
        <ele>289</ele>
        <time>2018-04-05T10:26:49Z</time>
      </trkpt>
      <trkpt lat="45.95881" lon="4.8892">
        <ele>289</ele>
        <time>2018-04-05T10:26:50Z</time>
      </trkpt>
      <trkpt lat="45.9588" lon="4.88912">
        <ele>289</ele>
        <time>2018-04-05T10:26:51Z</time>
      </trkpt>
      <trkpt lat="45.9588" lon="4.88905">
        <ele>289</ele>
        <time>2018-04-05T10:26:52Z</time>
      </trkpt>
      <trkpt lat="45.95879" lon="4.88897">
        <ele>289</ele>
        <time>2018-04-05T10:26:53Z</time>
      </trkpt>
      <trkpt lat="45.95879" lon="4.8889">
        <ele>289</ele>
        <time>2018-04-05T10:26:54Z</time>
      </trkpt>
      <trkpt lat="45.95879" lon="4.88883">
        <ele>289</ele>
        <time>2018-04-05T10:26:55Z</time>
      </trkpt>
      <trkpt lat="45.95878" lon="4.8887">
        <ele>289</ele>
        <time>2018-04-05T10:26:57Z</time>
      </trkpt>
      <trkpt lat="45.95878" lon="4.88863">
        <ele>289</ele>
        <time>2018-04-05T10:26:58Z</time>
      </trkpt>
      <trkpt lat="45.95878" lon="4.88857">
        <ele>289</ele>
        <time>2018-04-05T10:26:59Z</time>
      </trkpt>
      <trkpt lat="45.95878" lon="4.8885">
        <ele>289</ele>
        <time>2018-04-05T10:27:00Z</time>
      </trkpt>
      <trkpt lat="45.95878" lon="4.88843">
        <ele>289</ele>
        <time>2018-04-05T10:27:01Z</time>
      </trkpt>
      <trkpt lat="45.95879" lon="4.88836">
        <ele>289</ele>
        <time>2018-04-05T10:27:02Z</time>
      </trkpt>
      <trkpt lat="45.95878" lon="4.88829">
        <ele>288</ele>
        <time>2018-04-05T10:27:03Z</time>
      </trkpt>
      <trkpt lat="45.95878" lon="4.88821">
        <ele>288</ele>
        <time>2018-04-05T10:27:04Z</time>
      </trkpt>
      <trkpt lat="45.95878" lon="4.88815">
        <ele>288</ele>
        <time>2018-04-05T10:27:05Z</time>
      </trkpt>
      <trkpt lat="45.95878" lon="4.88808">
        <ele>288</ele>
        <time>2018-04-05T10:27:06Z</time>
      </trkpt>
      <trkpt lat="45.95878" lon="4.888">
        <ele>288</ele>
        <time>2018-04-05T10:27:07Z</time>
      </trkpt>
      <trkpt lat="45.95878" lon="4.88794">
        <ele>288</ele>
        <time>2018-04-05T10:27:08Z</time>
      </trkpt>
      <trkpt lat="45.95878" lon="4.88787">
        <ele>288</ele>
        <time>2018-04-05T10:27:09Z</time>
      </trkpt>
      <trkpt lat="45.95877" lon="4.8878">
        <ele>288</ele>
        <time>2018-04-05T10:27:10Z</time>
      </trkpt>
      <trkpt lat="45.95878" lon="4.88772">
        <ele>288</ele>
        <time>2018-04-05T10:27:11Z</time>
      </trkpt>
      <trkpt lat="45.95878" lon="4.88765">
        <ele>288</ele>
        <time>2018-04-05T10:27:12Z</time>
      </trkpt>
      <trkpt lat="45.95878" lon="4.88756">
        <ele>288</ele>
        <time>2018-04-05T10:27:13Z</time>
      </trkpt>
      <trkpt lat="45.95876" lon="4.8875">
        <ele>288</ele>
        <time>2018-04-05T10:27:14Z</time>
      </trkpt>
      <trkpt lat="45.95875" lon="4.88743">
        <ele>288</ele>
        <time>2018-04-05T10:27:15Z</time>
      </trkpt>
      <trkpt lat="45.95874" lon="4.88736">
        <ele>288</ele>
        <time>2018-04-05T10:27:16Z</time>
      </trkpt>
      <trkpt lat="45.95874" lon="4.88729">
        <ele>288</ele>
        <time>2018-04-05T10:27:17Z</time>
      </trkpt>
      <trkpt lat="45.95875" lon="4.88722">
        <ele>288</ele>
        <time>2018-04-05T10:27:18Z</time>
      </trkpt>
      <trkpt lat="45.95874" lon="4.88714">
        <ele>288</ele>
        <time>2018-04-05T10:27:19Z</time>
      </trkpt>
      <trkpt lat="45.95875" lon="4.88708">
        <ele>288</ele>
        <time>2018-04-05T10:27:20Z</time>
      </trkpt>
      <trkpt lat="45.95875" lon="4.88696">
        <ele>288</ele>
        <time>2018-04-05T10:27:22Z</time>
      </trkpt>
      <trkpt lat="45.95875" lon="4.88688">
        <ele>288</ele>
        <time>2018-04-05T10:27:23Z</time>
      </trkpt>
      <trkpt lat="45.95874" lon="4.88681">
        <ele>288</ele>
        <time>2018-04-05T10:27:24Z</time>
      </trkpt>
      <trkpt lat="45.95874" lon="4.88674">
        <ele>288</ele>
        <time>2018-04-05T10:27:25Z</time>
      </trkpt>
      <trkpt lat="45.95874" lon="4.88666">
        <ele>288</ele>
        <time>2018-04-05T10:27:26Z</time>
      </trkpt>
      <trkpt lat="45.95874" lon="4.88659">
        <ele>288</ele>
        <time>2018-04-05T10:27:27Z</time>
      </trkpt>
      <trkpt lat="45.95873" lon="4.88651">
        <ele>288</ele>
        <time>2018-04-05T10:27:28Z</time>
      </trkpt>
      <trkpt lat="45.95873" lon="4.88644">
        <ele>288</ele>
        <time>2018-04-05T10:27:29Z</time>
      </trkpt>
      <trkpt lat="45.95872" lon="4.88635">
        <ele>288</ele>
        <time>2018-04-05T10:27:30Z</time>
      </trkpt>
      <trkpt lat="45.95872" lon="4.88628">
        <ele>288</ele>
        <time>2018-04-05T10:27:31Z</time>
      </trkpt>
      <trkpt lat="45.95871" lon="4.88621">
        <ele>288</ele>
        <time>2018-04-05T10:27:32Z</time>
      </trkpt>
      <trkpt lat="45.95871" lon="4.88613">
        <ele>288</ele>
        <time>2018-04-05T10:27:33Z</time>
      </trkpt>
      <trkpt lat="45.95871" lon="4.88605">
        <ele>288</ele>
        <time>2018-04-05T10:27:34Z</time>
      </trkpt>
      <trkpt lat="45.9587" lon="4.88597">
        <ele>288</ele>
        <time>2018-04-05T10:27:35Z</time>
      </trkpt>
      <trkpt lat="45.9587" lon="4.88589">
        <ele>288</ele>
        <time>2018-04-05T10:27:36Z</time>
      </trkpt>
      <trkpt lat="45.95869" lon="4.88583">
        <ele>288</ele>
        <time>2018-04-05T10:27:37Z</time>
      </trkpt>
      <trkpt lat="45.95869" lon="4.88575">
        <ele>288</ele>
        <time>2018-04-05T10:27:38Z</time>
      </trkpt>
      <trkpt lat="45.95869" lon="4.88568">
        <ele>288</ele>
        <time>2018-04-05T10:27:39Z</time>
      </trkpt>
      <trkpt lat="45.95868" lon="4.88561">
        <ele>288</ele>
        <time>2018-04-05T10:27:40Z</time>
      </trkpt>
      <trkpt lat="45.95867" lon="4.88554">
        <ele>288</ele>
        <time>2018-04-05T10:27:41Z</time>
      </trkpt>
      <trkpt lat="45.95867" lon="4.88546">
        <ele>288</ele>
        <time>2018-04-05T10:27:42Z</time>
      </trkpt>
      <trkpt lat="45.95867" lon="4.88539">
        <ele>288</ele>
        <time>2018-04-05T10:27:43Z</time>
      </trkpt>
      <trkpt lat="45.95866" lon="4.88531">
        <ele>288</ele>
        <time>2018-04-05T10:27:44Z</time>
      </trkpt>
      <trkpt lat="45.95866" lon="4.88525">
        <ele>288</ele>
        <time>2018-04-05T10:27:45Z</time>
      </trkpt>
      <trkpt lat="45.95865" lon="4.88519">
        <ele>288</ele>
        <time>2018-04-05T10:27:46Z</time>
      </trkpt>
      <trkpt lat="45.95865" lon="4.88511">
        <ele>288</ele>
        <time>2018-04-05T10:27:47Z</time>
      </trkpt>
      <trkpt lat="45.95865" lon="4.88505">
        <ele>288</ele>
        <time>2018-04-05T10:27:48Z</time>
      </trkpt>
      <trkpt lat="45.95865" lon="4.88498">
        <ele>288</ele>
        <time>2018-04-05T10:27:49Z</time>
      </trkpt>
      <trkpt lat="45.95865" lon="4.8849">
        <ele>288</ele>
        <time>2018-04-05T10:27:50Z</time>
      </trkpt>
      <trkpt lat="45.95865" lon="4.88483">
        <ele>287</ele>
        <time>2018-04-05T10:27:51Z</time>
      </trkpt>
      <trkpt lat="45.95866" lon="4.88475">
        <ele>287</ele>
        <time>2018-04-05T10:27:52Z</time>
      </trkpt>
      <trkpt lat="45.95865" lon="4.88467">
        <ele>287</ele>
        <time>2018-04-05T10:27:53Z</time>
      </trkpt>
      <trkpt lat="45.95865" lon="4.8846">
        <ele>287</ele>
        <time>2018-04-05T10:27:54Z</time>
      </trkpt>
      <trkpt lat="45.95865" lon="4.88453">
        <ele>287</ele>
        <time>2018-04-05T10:27:55Z</time>
      </trkpt>
      <trkpt lat="45.95864" lon="4.88446">
        <ele>287</ele>
        <time>2018-04-05T10:27:56Z</time>
      </trkpt>
      <trkpt lat="45.95864" lon="4.88439">
        <ele>287</ele>
        <time>2018-04-05T10:27:57Z</time>
      </trkpt>
      <trkpt lat="45.95863" lon="4.88432">
        <ele>287</ele>
        <time>2018-04-05T10:27:58Z</time>
      </trkpt>
      <trkpt lat="45.95863" lon="4.88425">
        <ele>287</ele>
        <time>2018-04-05T10:27:59Z</time>
      </trkpt>
      <trkpt lat="45.95863" lon="4.88419">
        <ele>287</ele>
        <time>2018-04-05T10:28:00Z</time>
      </trkpt>
      <trkpt lat="45.95862" lon="4.88411">
        <ele>287</ele>
        <time>2018-04-05T10:28:01Z</time>
      </trkpt>
      <trkpt lat="45.95862" lon="4.88404">
        <ele>287</ele>
        <time>2018-04-05T10:28:02Z</time>
      </trkpt>
      <trkpt lat="45.95862" lon="4.88396">
        <ele>287</ele>
        <time>2018-04-05T10:28:03Z</time>
      </trkpt>
      <trkpt lat="45.95861" lon="4.88389">
        <ele>287</ele>
        <time>2018-04-05T10:28:04Z</time>
      </trkpt>
      <trkpt lat="45.95861" lon="4.88382">
        <ele>287</ele>
        <time>2018-04-05T10:28:05Z</time>
      </trkpt>
      <trkpt lat="45.95859" lon="4.8837">
        <ele>287</ele>
        <time>2018-04-05T10:28:07Z</time>
      </trkpt>
      <trkpt lat="45.95858" lon="4.88362">
        <ele>287</ele>
        <time>2018-04-05T10:28:08Z</time>
      </trkpt>
      <trkpt lat="45.95858" lon="4.88355">
        <ele>287</ele>
        <time>2018-04-05T10:28:09Z</time>
      </trkpt>
      <trkpt lat="45.95858" lon="4.88346">
        <ele>287</ele>
        <time>2018-04-05T10:28:10Z</time>
      </trkpt>
      <trkpt lat="45.95856" lon="4.88339">
        <ele>287</ele>
        <time>2018-04-05T10:28:11Z</time>
      </trkpt>
      <trkpt lat="45.95856" lon="4.88332">
        <ele>288</ele>
        <time>2018-04-05T10:28:12Z</time>
      </trkpt>
      <trkpt lat="45.95856" lon="4.88325">
        <ele>288</ele>
        <time>2018-04-05T10:28:13Z</time>
      </trkpt>
      <trkpt lat="45.95856" lon="4.88317">
        <ele>288</ele>
        <time>2018-04-05T10:28:14Z</time>
      </trkpt>
      <trkpt lat="45.95855" lon="4.88309">
        <ele>288</ele>
        <time>2018-04-05T10:28:15Z</time>
      </trkpt>
      <trkpt lat="45.95855" lon="4.883">
        <ele>288</ele>
        <time>2018-04-05T10:28:16Z</time>
      </trkpt>
      <trkpt lat="45.95855" lon="4.88293">
        <ele>288</ele>
        <time>2018-04-05T10:28:17Z</time>
      </trkpt>
      <trkpt lat="45.95856" lon="4.88286">
        <ele>288</ele>
        <time>2018-04-05T10:28:18Z</time>
      </trkpt>
      <trkpt lat="45.95855" lon="4.88279">
        <ele>288</ele>
        <time>2018-04-05T10:28:19Z</time>
      </trkpt>
      <trkpt lat="45.95854" lon="4.88272">
        <ele>288</ele>
        <time>2018-04-05T10:28:20Z</time>
      </trkpt>
      <trkpt lat="45.95854" lon="4.88265">
        <ele>287</ele>
        <time>2018-04-05T10:28:21Z</time>
      </trkpt>
      <trkpt lat="45.95853" lon="4.88257">
        <ele>287</ele>
        <time>2018-04-05T10:28:22Z</time>
      </trkpt>
      <trkpt lat="45.95852" lon="4.88247">
        <ele>288</ele>
        <time>2018-04-05T10:28:23Z</time>
      </trkpt>
      <trkpt lat="45.95851" lon="4.8824">
        <ele>288</ele>
        <time>2018-04-05T10:28:24Z</time>
      </trkpt>
      <trkpt lat="45.95851" lon="4.88233">
        <ele>288</ele>
        <time>2018-04-05T10:28:25Z</time>
      </trkpt>
      <trkpt lat="45.9585" lon="4.88227">
        <ele>288</ele>
        <time>2018-04-05T10:28:26Z</time>
      </trkpt>
      <trkpt lat="45.9585" lon="4.88214">
        <ele>288</ele>
        <time>2018-04-05T10:28:28Z</time>
      </trkpt>
      <trkpt lat="45.9585" lon="4.88207">
        <ele>288</ele>
        <time>2018-04-05T10:28:29Z</time>
      </trkpt>
      <trkpt lat="45.95851" lon="4.88199">
        <ele>288</ele>
        <time>2018-04-05T10:28:30Z</time>
      </trkpt>
      <trkpt lat="45.95851" lon="4.88193">
        <ele>288</ele>
        <time>2018-04-05T10:28:31Z</time>
      </trkpt>
      <trkpt lat="45.9585" lon="4.8818">
        <ele>288</ele>
        <time>2018-04-05T10:28:33Z</time>
      </trkpt>
      <trkpt lat="45.95849" lon="4.88172">
        <ele>288</ele>
        <time>2018-04-05T10:28:34Z</time>
      </trkpt>
      <trkpt lat="45.95849" lon="4.88166">
        <ele>288</ele>
        <time>2018-04-05T10:28:35Z</time>
      </trkpt>
      <trkpt lat="45.95849" lon="4.88158">
        <ele>288</ele>
        <time>2018-04-05T10:28:36Z</time>
      </trkpt>
      <trkpt lat="45.95848" lon="4.88146">
        <ele>288</ele>
        <time>2018-04-05T10:28:38Z</time>
      </trkpt>
      <trkpt lat="45.95849" lon="4.88141">
        <ele>288</ele>
        <time>2018-04-05T10:28:39Z</time>
      </trkpt>
      <trkpt lat="45.95849" lon="4.88134">
        <ele>289</ele>
        <time>2018-04-05T10:28:40Z</time>
      </trkpt>
      <trkpt lat="45.95849" lon="4.88128">
        <ele>289</ele>
        <time>2018-04-05T10:28:41Z</time>
      </trkpt>
      <trkpt lat="45.95848" lon="4.88117">
        <ele>289</ele>
        <time>2018-04-05T10:28:43Z</time>
      </trkpt>
      <trkpt lat="45.95849" lon="4.8811">
        <ele>289</ele>
        <time>2018-04-05T10:28:44Z</time>
      </trkpt>
      <trkpt lat="45.95849" lon="4.88103">
        <ele>288</ele>
        <time>2018-04-05T10:28:45Z</time>
      </trkpt>
      <trkpt lat="45.95847" lon="4.88097">
        <ele>288</ele>
        <time>2018-04-05T10:28:46Z</time>
      </trkpt>
      <trkpt lat="45.95847" lon="4.88084">
        <ele>288</ele>
        <time>2018-04-05T10:28:48Z</time>
      </trkpt>
      <trkpt lat="45.95847" lon="4.88078">
        <ele>288</ele>
        <time>2018-04-05T10:28:49Z</time>
      </trkpt>
      <trkpt lat="45.95846" lon="4.88066">
        <ele>289</ele>
        <time>2018-04-05T10:28:51Z</time>
      </trkpt>
      <trkpt lat="45.95846" lon="4.88059">
        <ele>289</ele>
        <time>2018-04-05T10:28:52Z</time>
      </trkpt>
      <trkpt lat="45.95845" lon="4.88046">
        <ele>289</ele>
        <time>2018-04-05T10:28:54Z</time>
      </trkpt>
      <trkpt lat="45.95844" lon="4.8804">
        <ele>289</ele>
        <time>2018-04-05T10:28:55Z</time>
      </trkpt>
      <trkpt lat="45.95844" lon="4.88028">
        <ele>289</ele>
        <time>2018-04-05T10:28:57Z</time>
      </trkpt>
      <trkpt lat="45.95843" lon="4.88023">
        <ele>289</ele>
        <time>2018-04-05T10:28:58Z</time>
      </trkpt>
      <trkpt lat="45.95842" lon="4.88017">
        <ele>289</ele>
        <time>2018-04-05T10:28:59Z</time>
      </trkpt>
      <trkpt lat="45.95842" lon="4.88009">
        <ele>288</ele>
        <time>2018-04-05T10:29:00Z</time>
      </trkpt>
      <trkpt lat="45.95843" lon="4.88003">
        <ele>288</ele>
        <time>2018-04-05T10:29:01Z</time>
      </trkpt>
      <trkpt lat="45.95843" lon="4.87996">
        <ele>288</ele>
        <time>2018-04-05T10:29:02Z</time>
      </trkpt>
      <trkpt lat="45.95841" lon="4.87989">
        <ele>289</ele>
        <time>2018-04-05T10:29:03Z</time>
      </trkpt>
      <trkpt lat="45.9584" lon="4.87981">
        <ele>289</ele>
        <time>2018-04-05T10:29:04Z</time>
      </trkpt>
      <trkpt lat="45.95839" lon="4.87974">
        <ele>289</ele>
        <time>2018-04-05T10:29:05Z</time>
      </trkpt>
      <trkpt lat="45.95839" lon="4.87966">
        <ele>289</ele>
        <time>2018-04-05T10:29:06Z</time>
      </trkpt>
      <trkpt lat="45.95838" lon="4.87954">
        <ele>289</ele>
        <time>2018-04-05T10:29:08Z</time>
      </trkpt>
      <trkpt lat="45.95838" lon="4.87947">
        <ele>289</ele>
        <time>2018-04-05T10:29:09Z</time>
      </trkpt>
      <trkpt lat="45.95838" lon="4.87941">
        <ele>289</ele>
        <time>2018-04-05T10:29:10Z</time>
      </trkpt>
      <trkpt lat="45.95838" lon="4.87934">
        <ele>289</ele>
        <time>2018-04-05T10:29:11Z</time>
      </trkpt>
      <trkpt lat="45.95838" lon="4.87922">
        <ele>289</ele>
        <time>2018-04-05T10:29:13Z</time>
      </trkpt>
      <trkpt lat="45.95838" lon="4.87915">
        <ele>289</ele>
        <time>2018-04-05T10:29:14Z</time>
      </trkpt>
      <trkpt lat="45.95838" lon="4.87908">
        <ele>289</ele>
        <time>2018-04-05T10:29:15Z</time>
      </trkpt>
      <trkpt lat="45.95837" lon="4.879">
        <ele>289</ele>
        <time>2018-04-05T10:29:16Z</time>
      </trkpt>
      <trkpt lat="45.95837" lon="4.87887">
        <ele>289</ele>
        <time>2018-04-05T10:29:18Z</time>
      </trkpt>
      <trkpt lat="45.95836" lon="4.87881">
        <ele>289</ele>
        <time>2018-04-05T10:29:19Z</time>
      </trkpt>
      <trkpt lat="45.95836" lon="4.87868">
        <ele>289</ele>
        <time>2018-04-05T10:29:21Z</time>
      </trkpt>
      <trkpt lat="45.95836" lon="4.87861">
        <ele>289</ele>
        <time>2018-04-05T10:29:22Z</time>
      </trkpt>
      <trkpt lat="45.95836" lon="4.87854">
        <ele>289</ele>
        <time>2018-04-05T10:29:23Z</time>
      </trkpt>
      <trkpt lat="45.95835" lon="4.87847">
        <ele>288</ele>
        <time>2018-04-05T10:29:24Z</time>
      </trkpt>
      <trkpt lat="45.95834" lon="4.8784">
        <ele>288</ele>
        <time>2018-04-05T10:29:25Z</time>
      </trkpt>
      <trkpt lat="45.95833" lon="4.87832">
        <ele>288</ele>
        <time>2018-04-05T10:29:26Z</time>
      </trkpt>
      <trkpt lat="45.95833" lon="4.87825">
        <ele>287</ele>
        <time>2018-04-05T10:29:27Z</time>
      </trkpt>
      <trkpt lat="45.95832" lon="4.87817">
        <ele>286</ele>
        <time>2018-04-05T10:29:28Z</time>
      </trkpt>
      <trkpt lat="45.95831" lon="4.8781">
        <ele>286</ele>
        <time>2018-04-05T10:29:29Z</time>
      </trkpt>
      <trkpt lat="45.9583" lon="4.87804">
        <ele>285</ele>
        <time>2018-04-05T10:29:30Z</time>
      </trkpt>
      <trkpt lat="45.95829" lon="4.87796">
        <ele>285</ele>
        <time>2018-04-05T10:29:31Z</time>
      </trkpt>
      <trkpt lat="45.95828" lon="4.87788">
        <ele>285</ele>
        <time>2018-04-05T10:29:32Z</time>
      </trkpt>
      <trkpt lat="45.95827" lon="4.8778">
        <ele>285</ele>
        <time>2018-04-05T10:29:33Z</time>
      </trkpt>
      <trkpt lat="45.95826" lon="4.87773">
        <ele>285</ele>
        <time>2018-04-05T10:29:34Z</time>
      </trkpt>
      <trkpt lat="45.95825" lon="4.87766">
        <ele>285</ele>
        <time>2018-04-05T10:29:35Z</time>
      </trkpt>
      <trkpt lat="45.95823" lon="4.8776">
        <ele>285</ele>
        <time>2018-04-05T10:29:36Z</time>
      </trkpt>
      <trkpt lat="45.95821" lon="4.87752">
        <ele>285</ele>
        <time>2018-04-05T10:29:37Z</time>
      </trkpt>
      <trkpt lat="45.95819" lon="4.87745">
        <ele>284</ele>
        <time>2018-04-05T10:29:38Z</time>
      </trkpt>
      <trkpt lat="45.95818" lon="4.87738">
        <ele>284</ele>
        <time>2018-04-05T10:29:39Z</time>
      </trkpt>
      <trkpt lat="45.95816" lon="4.87731">
        <ele>284</ele>
        <time>2018-04-05T10:29:40Z</time>
      </trkpt>
      <trkpt lat="45.95815" lon="4.87723">
        <ele>283</ele>
        <time>2018-04-05T10:29:41Z</time>
      </trkpt>
      <trkpt lat="45.95814" lon="4.87715">
        <ele>283</ele>
        <time>2018-04-05T10:29:42Z</time>
      </trkpt>
      <trkpt lat="45.95813" lon="4.87708">
        <ele>283</ele>
        <time>2018-04-05T10:29:43Z</time>
      </trkpt>
      <trkpt lat="45.95812" lon="4.877">
        <ele>283</ele>
        <time>2018-04-05T10:29:44Z</time>
      </trkpt>
      <trkpt lat="45.9581" lon="4.87692">
        <ele>283</ele>
        <time>2018-04-05T10:29:45Z</time>
      </trkpt>
      <trkpt lat="45.95808" lon="4.87685">
        <ele>283</ele>
        <time>2018-04-05T10:29:46Z</time>
      </trkpt>
      <trkpt lat="45.95805" lon="4.87677">
        <ele>283</ele>
        <time>2018-04-05T10:29:47Z</time>
      </trkpt>
      <trkpt lat="45.95804" lon="4.87669">
        <ele>283</ele>
        <time>2018-04-05T10:29:48Z</time>
      </trkpt>
      <trkpt lat="45.95802" lon="4.87661">
        <ele>283</ele>
        <time>2018-04-05T10:29:49Z</time>
      </trkpt>
      <trkpt lat="45.95799" lon="4.87653">
        <ele>283</ele>
        <time>2018-04-05T10:29:50Z</time>
      </trkpt>
      <trkpt lat="45.95797" lon="4.87645">
        <ele>282</ele>
        <time>2018-04-05T10:29:51Z</time>
      </trkpt>
      <trkpt lat="45.95793" lon="4.87637">
        <ele>282</ele>
        <time>2018-04-05T10:29:52Z</time>
      </trkpt>
      <trkpt lat="45.95791" lon="4.8763">
        <ele>282</ele>
        <time>2018-04-05T10:29:53Z</time>
      </trkpt>
      <trkpt lat="45.95788" lon="4.87624">
        <ele>282</ele>
        <time>2018-04-05T10:29:54Z</time>
      </trkpt>
      <trkpt lat="45.95784" lon="4.87615">
        <ele>282</ele>
        <time>2018-04-05T10:29:55Z</time>
      </trkpt>
      <trkpt lat="45.9578" lon="4.87607">
        <ele>282</ele>
        <time>2018-04-05T10:29:56Z</time>
      </trkpt>
      <trkpt lat="45.95777" lon="4.87599">
        <ele>281</ele>
        <time>2018-04-05T10:29:57Z</time>
      </trkpt>
      <trkpt lat="45.95772" lon="4.87591">
        <ele>281</ele>
        <time>2018-04-05T10:29:58Z</time>
      </trkpt>
      <trkpt lat="45.95767" lon="4.87583">
        <ele>280</ele>
        <time>2018-04-05T10:29:59Z</time>
      </trkpt>
      <trkpt lat="45.95763" lon="4.87574">
        <ele>280</ele>
        <time>2018-04-05T10:30:00Z</time>
      </trkpt>
      <trkpt lat="45.9576" lon="4.87566">
        <ele>280</ele>
        <time>2018-04-05T10:30:01Z</time>
      </trkpt>
      <trkpt lat="45.95757" lon="4.87557">
        <ele>281</ele>
        <time>2018-04-05T10:30:02Z</time>
      </trkpt>
      <trkpt lat="45.95753" lon="4.87548">
        <ele>281</ele>
        <time>2018-04-05T10:30:03Z</time>
      </trkpt>
      <trkpt lat="45.95749" lon="4.8754">
        <ele>277</ele>
        <time>2018-04-05T10:30:04Z</time>
      </trkpt>
      <trkpt lat="45.95744" lon="4.87531">
        <ele>277</ele>
        <time>2018-04-05T10:30:05Z</time>
      </trkpt>
      <trkpt lat="45.9574" lon="4.87523">
        <ele>277</ele>
        <time>2018-04-05T10:30:06Z</time>
      </trkpt>
      <trkpt lat="45.95735" lon="4.87515">
        <ele>277</ele>
        <time>2018-04-05T10:30:07Z</time>
      </trkpt>
      <trkpt lat="45.95731" lon="4.87507">
        <ele>277</ele>
        <time>2018-04-05T10:30:08Z</time>
      </trkpt>
      <trkpt lat="45.95727" lon="4.87499">
        <ele>277</ele>
        <time>2018-04-05T10:30:09Z</time>
      </trkpt>
      <trkpt lat="45.95724" lon="4.87489">
        <ele>276</ele>
        <time>2018-04-05T10:30:10Z</time>
      </trkpt>
      <trkpt lat="45.9572" lon="4.8748">
        <ele>276</ele>
        <time>2018-04-05T10:30:11Z</time>
      </trkpt>
      <trkpt lat="45.95716" lon="4.87471">
        <ele>276</ele>
        <time>2018-04-05T10:30:12Z</time>
      </trkpt>
      <trkpt lat="45.95712" lon="4.87463">
        <ele>276</ele>
        <time>2018-04-05T10:30:13Z</time>
      </trkpt>
      <trkpt lat="45.95709" lon="4.87456">
        <ele>276</ele>
        <time>2018-04-05T10:30:14Z</time>
      </trkpt>
      <trkpt lat="45.95704" lon="4.87449">
        <ele>275</ele>
        <time>2018-04-05T10:30:15Z</time>
      </trkpt>
      <trkpt lat="45.957" lon="4.8744">
        <ele>275</ele>
        <time>2018-04-05T10:30:16Z</time>
      </trkpt>
      <trkpt lat="45.95696" lon="4.87433">
        <ele>275</ele>
        <time>2018-04-05T10:30:17Z</time>
      </trkpt>
      <trkpt lat="45.95692" lon="4.87425">
        <ele>275</ele>
        <time>2018-04-05T10:30:18Z</time>
      </trkpt>
      <trkpt lat="45.95688" lon="4.87416">
        <ele>274</ele>
        <time>2018-04-05T10:30:19Z</time>
      </trkpt>
      <trkpt lat="45.95683" lon="4.87409">
        <ele>274</ele>
        <time>2018-04-05T10:30:20Z</time>
      </trkpt>
      <trkpt lat="45.9568" lon="4.87401">
        <ele>274</ele>
        <time>2018-04-05T10:30:21Z</time>
      </trkpt>
      <trkpt lat="45.95677" lon="4.87393">
        <ele>274</ele>
        <time>2018-04-05T10:30:22Z</time>
      </trkpt>
      <trkpt lat="45.95674" lon="4.87386">
        <ele>274</ele>
        <time>2018-04-05T10:30:23Z</time>
      </trkpt>
      <trkpt lat="45.95671" lon="4.87378">
        <ele>274</ele>
        <time>2018-04-05T10:30:24Z</time>
      </trkpt>
      <trkpt lat="45.95667" lon="4.87371">
        <ele>274</ele>
        <time>2018-04-05T10:30:25Z</time>
      </trkpt>
      <trkpt lat="45.95664" lon="4.87364">
        <ele>272</ele>
        <time>2018-04-05T10:30:26Z</time>
      </trkpt>
      <trkpt lat="45.9566" lon="4.87358">
        <ele>272</ele>
        <time>2018-04-05T10:30:27Z</time>
      </trkpt>
      <trkpt lat="45.95657" lon="4.87352">
        <ele>272</ele>
        <time>2018-04-05T10:30:28Z</time>
      </trkpt>
      <trkpt lat="45.95654" lon="4.87345">
        <ele>272</ele>
        <time>2018-04-05T10:30:29Z</time>
      </trkpt>
      <trkpt lat="45.95652" lon="4.87339">
        <ele>272</ele>
        <time>2018-04-05T10:30:30Z</time>
      </trkpt>
      <trkpt lat="45.95648" lon="4.87333">
        <ele>272</ele>
        <time>2018-04-05T10:30:31Z</time>
      </trkpt>
      <trkpt lat="45.95645" lon="4.87327">
        <ele>272</ele>
        <time>2018-04-05T10:30:32Z</time>
      </trkpt>
      <trkpt lat="45.95642" lon="4.8732">
        <ele>272</ele>
        <time>2018-04-05T10:30:33Z</time>
      </trkpt>
      <trkpt lat="45.95639" lon="4.87315">
        <ele>272</ele>
        <time>2018-04-05T10:30:34Z</time>
      </trkpt>
      <trkpt lat="45.95636" lon="4.87308">
        <ele>272</ele>
        <time>2018-04-05T10:30:35Z</time>
      </trkpt>
      <trkpt lat="45.95632" lon="4.873">
        <ele>272</ele>
        <time>2018-04-05T10:30:36Z</time>
      </trkpt>
      <trkpt lat="45.95629" lon="4.87293">
        <ele>272</ele>
        <time>2018-04-05T10:30:37Z</time>
      </trkpt>
      <trkpt lat="45.95625" lon="4.87284">
        <ele>272</ele>
        <time>2018-04-05T10:30:38Z</time>
      </trkpt>
      <trkpt lat="45.95622" lon="4.87276">
        <ele>272</ele>
        <time>2018-04-05T10:30:39Z</time>
      </trkpt>
      <trkpt lat="45.95618" lon="4.87268">
        <ele>272</ele>
        <time>2018-04-05T10:30:40Z</time>
      </trkpt>
      <trkpt lat="45.95615" lon="4.87262">
        <ele>272</ele>
        <time>2018-04-05T10:30:41Z</time>
      </trkpt>
      <trkpt lat="45.95611" lon="4.87254">
        <ele>272</ele>
        <time>2018-04-05T10:30:42Z</time>
      </trkpt>
      <trkpt lat="45.95607" lon="4.87247">
        <ele>272</ele>
        <time>2018-04-05T10:30:43Z</time>
      </trkpt>
      <trkpt lat="45.95603" lon="4.87239">
        <ele>272</ele>
        <time>2018-04-05T10:30:44Z</time>
      </trkpt>
      <trkpt lat="45.956" lon="4.87231">
        <ele>272</ele>
        <time>2018-04-05T10:30:45Z</time>
      </trkpt>
      <trkpt lat="45.95596" lon="4.87223">
        <ele>272</ele>
        <time>2018-04-05T10:30:46Z</time>
      </trkpt>
      <trkpt lat="45.95591" lon="4.87215">
        <ele>272</ele>
        <time>2018-04-05T10:30:47Z</time>
      </trkpt>
      <trkpt lat="45.95587" lon="4.87206">
        <ele>272</ele>
        <time>2018-04-05T10:30:48Z</time>
      </trkpt>
      <trkpt lat="45.95582" lon="4.87198">
        <ele>270</ele>
        <time>2018-04-05T10:30:49Z</time>
      </trkpt>
      <trkpt lat="45.95578" lon="4.8719">
        <ele>270</ele>
        <time>2018-04-05T10:30:50Z</time>
      </trkpt>
      <trkpt lat="45.95575" lon="4.87183">
        <ele>270</ele>
        <time>2018-04-05T10:30:51Z</time>
      </trkpt>
      <trkpt lat="45.95571" lon="4.87175">
        <ele>271</ele>
        <time>2018-04-05T10:30:52Z</time>
      </trkpt>
      <trkpt lat="45.95567" lon="4.87168">
        <ele>271</ele>
        <time>2018-04-05T10:30:53Z</time>
      </trkpt>
      <trkpt lat="45.95563" lon="4.87159">
        <ele>270</ele>
        <time>2018-04-05T10:30:54Z</time>
      </trkpt>
      <trkpt lat="45.9556" lon="4.8715">
        <ele>270</ele>
        <time>2018-04-05T10:30:55Z</time>
      </trkpt>
      <trkpt lat="45.95557" lon="4.87142">
        <ele>270</ele>
        <time>2018-04-05T10:30:56Z</time>
      </trkpt>
      <trkpt lat="45.95553" lon="4.87135">
        <ele>270</ele>
        <time>2018-04-05T10:30:57Z</time>
      </trkpt>
      <trkpt lat="45.95549" lon="4.87127">
        <ele>270</ele>
        <time>2018-04-05T10:30:58Z</time>
      </trkpt>
      <trkpt lat="45.95545" lon="4.8712">
        <ele>270</ele>
        <time>2018-04-05T10:30:59Z</time>
      </trkpt>
      <trkpt lat="45.95541" lon="4.87112">
        <ele>269</ele>
        <time>2018-04-05T10:31:00Z</time>
      </trkpt>
      <trkpt lat="45.95538" lon="4.87105">
        <ele>269</ele>
        <time>2018-04-05T10:31:01Z</time>
      </trkpt>
      <trkpt lat="45.95534" lon="4.87096">
        <ele>269</ele>
        <time>2018-04-05T10:31:02Z</time>
      </trkpt>
      <trkpt lat="45.95531" lon="4.8709">
        <ele>269</ele>
        <time>2018-04-05T10:31:03Z</time>
      </trkpt>
      <trkpt lat="45.95528" lon="4.87083">
        <ele>268</ele>
        <time>2018-04-05T10:31:04Z</time>
      </trkpt>
      <trkpt lat="45.95525" lon="4.87076">
        <ele>268</ele>
        <time>2018-04-05T10:31:05Z</time>
      </trkpt>
      <trkpt lat="45.95521" lon="4.8707">
        <ele>268</ele>
        <time>2018-04-05T10:31:06Z</time>
      </trkpt>
      <trkpt lat="45.95519" lon="4.87064">
        <ele>268</ele>
        <time>2018-04-05T10:31:07Z</time>
      </trkpt>
      <trkpt lat="45.95515" lon="4.87057">
        <ele>268</ele>
        <time>2018-04-05T10:31:08Z</time>
      </trkpt>
      <trkpt lat="45.95512" lon="4.87051">
        <ele>268</ele>
        <time>2018-04-05T10:31:09Z</time>
      </trkpt>
      <trkpt lat="45.95509" lon="4.87045">
        <ele>268</ele>
        <time>2018-04-05T10:31:10Z</time>
      </trkpt>
      <trkpt lat="45.95505" lon="4.87037">
        <ele>268</ele>
        <time>2018-04-05T10:31:11Z</time>
      </trkpt>
      <trkpt lat="45.95502" lon="4.8703">
        <ele>268</ele>
        <time>2018-04-05T10:31:12Z</time>
      </trkpt>
      <trkpt lat="45.95498" lon="4.87024">
        <ele>269</ele>
        <time>2018-04-05T10:31:13Z</time>
      </trkpt>
      <trkpt lat="45.95495" lon="4.87017">
        <ele>268</ele>
        <time>2018-04-05T10:31:14Z</time>
      </trkpt>
      <trkpt lat="45.95492" lon="4.8701">
        <ele>268</ele>
        <time>2018-04-05T10:31:15Z</time>
      </trkpt>
      <trkpt lat="45.95488" lon="4.87004">
        <ele>268</ele>
        <time>2018-04-05T10:31:16Z</time>
      </trkpt>
      <trkpt lat="45.95486" lon="4.86998">
        <ele>268</ele>
        <time>2018-04-05T10:31:17Z</time>
      </trkpt>
      <trkpt lat="45.95482" lon="4.86992">
        <ele>268</ele>
        <time>2018-04-05T10:31:18Z</time>
      </trkpt>
      <trkpt lat="45.95478" lon="4.86984">
        <ele>268</ele>
        <time>2018-04-05T10:31:19Z</time>
      </trkpt>
      <trkpt lat="45.95475" lon="4.86978">
        <ele>268</ele>
        <time>2018-04-05T10:31:20Z</time>
      </trkpt>
      <trkpt lat="45.95472" lon="4.8697">
        <ele>268</ele>
        <time>2018-04-05T10:31:21Z</time>
      </trkpt>
      <trkpt lat="45.95468" lon="4.86963">
        <ele>268</ele>
        <time>2018-04-05T10:31:22Z</time>
      </trkpt>
      <trkpt lat="45.95464" lon="4.86956">
        <ele>268</ele>
        <time>2018-04-05T10:31:23Z</time>
      </trkpt>
      <trkpt lat="45.95461" lon="4.86949">
        <ele>268</ele>
        <time>2018-04-05T10:31:24Z</time>
      </trkpt>
      <trkpt lat="45.95457" lon="4.86941">
        <ele>268</ele>
        <time>2018-04-05T10:31:25Z</time>
      </trkpt>
      <trkpt lat="45.95454" lon="4.86934">
        <ele>268</ele>
        <time>2018-04-05T10:31:26Z</time>
      </trkpt>
      <trkpt lat="45.9545" lon="4.86927">
        <ele>268</ele>
        <time>2018-04-05T10:31:27Z</time>
      </trkpt>
      <trkpt lat="45.95445" lon="4.8692">
        <ele>269</ele>
        <time>2018-04-05T10:31:28Z</time>
      </trkpt>
      <trkpt lat="45.95442" lon="4.86912">
        <ele>268</ele>
        <time>2018-04-05T10:31:29Z</time>
      </trkpt>
      <trkpt lat="45.95439" lon="4.86904">
        <ele>268</ele>
        <time>2018-04-05T10:31:30Z</time>
      </trkpt>
      <trkpt lat="45.95435" lon="4.86897">
        <ele>268</ele>
        <time>2018-04-05T10:31:31Z</time>
      </trkpt>
      <trkpt lat="45.95431" lon="4.86889">
        <ele>268</ele>
        <time>2018-04-05T10:31:32Z</time>
      </trkpt>
      <trkpt lat="45.95427" lon="4.86883">
        <ele>268</ele>
        <time>2018-04-05T10:31:33Z</time>
      </trkpt>
      <trkpt lat="45.95423" lon="4.86874">
        <ele>268</ele>
        <time>2018-04-05T10:31:34Z</time>
      </trkpt>
      <trkpt lat="45.95419" lon="4.86866">
        <ele>268</ele>
        <time>2018-04-05T10:31:35Z</time>
      </trkpt>
      <trkpt lat="45.95415" lon="4.86858">
        <ele>269</ele>
        <time>2018-04-05T10:31:36Z</time>
      </trkpt>
      <trkpt lat="45.95412" lon="4.8685">
        <ele>268</ele>
        <time>2018-04-05T10:31:37Z</time>
      </trkpt>
      <trkpt lat="45.95408" lon="4.86844">
        <ele>268</ele>
        <time>2018-04-05T10:31:38Z</time>
      </trkpt>
      <trkpt lat="45.95405" lon="4.86835">
        <ele>268</ele>
        <time>2018-04-05T10:31:39Z</time>
      </trkpt>
      <trkpt lat="45.95401" lon="4.86826">
        <ele>268</ele>
        <time>2018-04-05T10:31:40Z</time>
      </trkpt>
      <trkpt lat="45.95397" lon="4.86818">
        <ele>268</ele>
        <time>2018-04-05T10:31:41Z</time>
      </trkpt>
      <trkpt lat="45.95393" lon="4.8681">
        <ele>268</ele>
        <time>2018-04-05T10:31:42Z</time>
      </trkpt>
      <trkpt lat="45.95389" lon="4.86802">
        <ele>268</ele>
        <time>2018-04-05T10:31:43Z</time>
      </trkpt>
      <trkpt lat="45.95386" lon="4.86793">
        <ele>268</ele>
        <time>2018-04-05T10:31:44Z</time>
      </trkpt>
      <trkpt lat="45.95381" lon="4.86785">
        <ele>268</ele>
        <time>2018-04-05T10:31:45Z</time>
      </trkpt>
      <trkpt lat="45.95378" lon="4.86777">
        <ele>268</ele>
        <time>2018-04-05T10:31:46Z</time>
      </trkpt>
      <trkpt lat="45.95374" lon="4.86769">
        <ele>268</ele>
        <time>2018-04-05T10:31:47Z</time>
      </trkpt>
      <trkpt lat="45.9537" lon="4.86762">
        <ele>268</ele>
        <time>2018-04-05T10:31:48Z</time>
      </trkpt>
      <trkpt lat="45.95366" lon="4.86755">
        <ele>268</ele>
        <time>2018-04-05T10:31:49Z</time>
      </trkpt>
      <trkpt lat="45.95363" lon="4.86747">
        <ele>268</ele>
        <time>2018-04-05T10:31:50Z</time>
      </trkpt>
      <trkpt lat="45.95359" lon="4.86741">
        <ele>268</ele>
        <time>2018-04-05T10:31:51Z</time>
      </trkpt>
      <trkpt lat="45.95356" lon="4.86735">
        <ele>268</ele>
        <time>2018-04-05T10:31:52Z</time>
      </trkpt>
      <trkpt lat="45.95353" lon="4.86728">
        <ele>268</ele>
        <time>2018-04-05T10:31:53Z</time>
      </trkpt>
      <trkpt lat="45.9535" lon="4.86721">
        <ele>268</ele>
        <time>2018-04-05T10:31:54Z</time>
      </trkpt>
      <trkpt lat="45.95347" lon="4.86715">
        <ele>268</ele>
        <time>2018-04-05T10:31:55Z</time>
      </trkpt>
      <trkpt lat="45.95345" lon="4.86709">
        <ele>268</ele>
        <time>2018-04-05T10:31:56Z</time>
      </trkpt>
      <trkpt lat="45.95342" lon="4.86701">
        <ele>268</ele>
        <time>2018-04-05T10:31:57Z</time>
      </trkpt>
      <trkpt lat="45.95339" lon="4.86695">
        <ele>268</ele>
        <time>2018-04-05T10:31:58Z</time>
      </trkpt>
      <trkpt lat="45.95336" lon="4.86689">
        <ele>268</ele>
        <time>2018-04-05T10:31:59Z</time>
      </trkpt>
      <trkpt lat="45.95333" lon="4.86684">
        <ele>269</ele>
        <time>2018-04-05T10:32:00Z</time>
      </trkpt>
      <trkpt lat="45.9533" lon="4.86678">
        <ele>268</ele>
        <time>2018-04-05T10:32:01Z</time>
      </trkpt>
      <trkpt lat="45.95328" lon="4.86672">
        <ele>268</ele>
        <time>2018-04-05T10:32:02Z</time>
      </trkpt>
      <trkpt lat="45.95324" lon="4.86665">
        <ele>268</ele>
        <time>2018-04-05T10:32:03Z</time>
      </trkpt>
      <trkpt lat="45.95322" lon="4.86657">
        <ele>268</ele>
        <time>2018-04-05T10:32:04Z</time>
      </trkpt>
      <trkpt lat="45.95319" lon="4.86651">
        <ele>268</ele>
        <time>2018-04-05T10:32:05Z</time>
      </trkpt>
      <trkpt lat="45.95315" lon="4.86644">
        <ele>268</ele>
        <time>2018-04-05T10:32:06Z</time>
      </trkpt>
      <trkpt lat="45.95312" lon="4.86637">
        <ele>268</ele>
        <time>2018-04-05T10:32:07Z</time>
      </trkpt>
      <trkpt lat="45.95308" lon="4.86629">
        <ele>268</ele>
        <time>2018-04-05T10:32:08Z</time>
      </trkpt>
      <trkpt lat="45.95304" lon="4.86622">
        <ele>268</ele>
        <time>2018-04-05T10:32:09Z</time>
      </trkpt>
      <trkpt lat="45.953" lon="4.86616">
        <ele>268</ele>
        <time>2018-04-05T10:32:10Z</time>
      </trkpt>
      <trkpt lat="45.95296" lon="4.86608">
        <ele>268</ele>
        <time>2018-04-05T10:32:11Z</time>
      </trkpt>
      <trkpt lat="45.95291" lon="4.86601">
        <ele>268</ele>
        <time>2018-04-05T10:32:12Z</time>
      </trkpt>
      <trkpt lat="45.95287" lon="4.86594">
        <ele>268</ele>
        <time>2018-04-05T10:32:13Z</time>
      </trkpt>
      <trkpt lat="45.95283" lon="4.86588">
        <ele>268</ele>
        <time>2018-04-05T10:32:14Z</time>
      </trkpt>
      <trkpt lat="45.95279" lon="4.86581">
        <ele>267</ele>
        <time>2018-04-05T10:32:15Z</time>
      </trkpt>
      <trkpt lat="45.95274" lon="4.86575">
        <ele>267</ele>
        <time>2018-04-05T10:32:16Z</time>
      </trkpt>
      <trkpt lat="45.95269" lon="4.86568">
        <ele>267</ele>
        <time>2018-04-05T10:32:17Z</time>
      </trkpt>
      <trkpt lat="45.95265" lon="4.86562">
        <ele>267</ele>
        <time>2018-04-05T10:32:18Z</time>
      </trkpt>
      <trkpt lat="45.9526" lon="4.86556">
        <ele>267</ele>
        <time>2018-04-05T10:32:19Z</time>
      </trkpt>
      <trkpt lat="45.95255" lon="4.86549">
        <ele>267</ele>
        <time>2018-04-05T10:32:20Z</time>
      </trkpt>
      <trkpt lat="45.9525" lon="4.86544">
        <ele>268</ele>
        <time>2018-04-05T10:32:21Z</time>
      </trkpt>
      <trkpt lat="45.95244" lon="4.86537">
        <ele>268</ele>
        <time>2018-04-05T10:32:22Z</time>
      </trkpt>
      <trkpt lat="45.95242" lon="4.86532">
        <ele>268</ele>
        <time>2018-04-05T10:32:23Z</time>
      </trkpt>
      <trkpt lat="45.95238" lon="4.86525">
        <ele>268</ele>
        <time>2018-04-05T10:32:24Z</time>
      </trkpt>
      <trkpt lat="45.95233" lon="4.86522">
        <ele>268</ele>
        <time>2018-04-05T10:32:25Z</time>
      </trkpt>
      <trkpt lat="45.95229" lon="4.86515">
        <ele>268</ele>
        <time>2018-04-05T10:32:26Z</time>
      </trkpt>
      <trkpt lat="45.95225" lon="4.86507">
        <ele>268</ele>
        <time>2018-04-05T10:32:27Z</time>
      </trkpt>
      <trkpt lat="45.95221" lon="4.86503">
        <ele>268</ele>
        <time>2018-04-05T10:32:28Z</time>
      </trkpt>
      <trkpt lat="45.95218" lon="4.86499">
        <ele>268</ele>
        <time>2018-04-05T10:32:29Z</time>
      </trkpt>
      <trkpt lat="45.95213" lon="4.86495">
        <ele>268</ele>
        <time>2018-04-05T10:32:30Z</time>
      </trkpt>
      <trkpt lat="45.95206" lon="4.86488">
        <ele>268</ele>
        <time>2018-04-05T10:32:32Z</time>
      </trkpt>
      <trkpt lat="45.95202" lon="4.86484">
        <ele>268</ele>
        <time>2018-04-05T10:32:33Z</time>
      </trkpt>
      <trkpt lat="45.95199" lon="4.8648">
        <ele>268</ele>
        <time>2018-04-05T10:32:34Z</time>
      </trkpt>
      <trkpt lat="45.95195" lon="4.86476">
        <ele>268</ele>
        <time>2018-04-05T10:32:35Z</time>
      </trkpt>
      <trkpt lat="45.9519" lon="4.86472">
        <ele>268</ele>
        <time>2018-04-05T10:32:36Z</time>
      </trkpt>
      <trkpt lat="45.95187" lon="4.86469">
        <ele>268</ele>
        <time>2018-04-05T10:32:37Z</time>
      </trkpt>
      <trkpt lat="45.9518" lon="4.86462">
        <ele>268</ele>
        <time>2018-04-05T10:32:39Z</time>
      </trkpt>
      <trkpt lat="45.95177" lon="4.86459">
        <ele>268</ele>
        <time>2018-04-05T10:32:40Z</time>
      </trkpt>
      <trkpt lat="45.95172" lon="4.86451">
        <ele>268</ele>
        <time>2018-04-05T10:32:42Z</time>
      </trkpt>
      <trkpt lat="45.95169" lon="4.86447">
        <ele>268</ele>
        <time>2018-04-05T10:32:43Z</time>
      </trkpt>
      <trkpt lat="45.95163" lon="4.86439">
        <ele>268</ele>
        <time>2018-04-05T10:32:45Z</time>
      </trkpt>
      <trkpt lat="45.9516" lon="4.86435">
        <ele>268</ele>
        <time>2018-04-05T10:32:46Z</time>
      </trkpt>
      <trkpt lat="45.95154" lon="4.86428">
        <ele>268</ele>
        <time>2018-04-05T10:32:48Z</time>
      </trkpt>
      <trkpt lat="45.95151" lon="4.86424">
        <ele>268</ele>
        <time>2018-04-05T10:32:49Z</time>
      </trkpt>
      <trkpt lat="45.95147" lon="4.8642">
        <ele>268</ele>
        <time>2018-04-05T10:32:50Z</time>
      </trkpt>
      <trkpt lat="45.95143" lon="4.86416">
        <ele>268</ele>
        <time>2018-04-05T10:32:51Z</time>
      </trkpt>
      <trkpt lat="45.95136" lon="4.8641">
        <ele>268</ele>
        <time>2018-04-05T10:32:53Z</time>
      </trkpt>
      <trkpt lat="45.95132" lon="4.86405">
        <ele>268</ele>
        <time>2018-04-05T10:32:54Z</time>
      </trkpt>
      <trkpt lat="45.95127" lon="4.86396">
        <ele>268</ele>
        <time>2018-04-05T10:32:56Z</time>
      </trkpt>
      <trkpt lat="45.95124" lon="4.86391">
        <ele>269</ele>
        <time>2018-04-05T10:32:57Z</time>
      </trkpt>
      <trkpt lat="45.9512" lon="4.86386">
        <ele>269</ele>
        <time>2018-04-05T10:32:58Z</time>
      </trkpt>
      <trkpt lat="45.95117" lon="4.86381">
        <ele>269</ele>
        <time>2018-04-05T10:32:59Z</time>
      </trkpt>
      <trkpt lat="45.95111" lon="4.86374">
        <ele>269</ele>
        <time>2018-04-05T10:33:01Z</time>
      </trkpt>
      <trkpt lat="45.95107" lon="4.8637">
        <ele>269</ele>
        <time>2018-04-05T10:33:02Z</time>
      </trkpt>
      <trkpt lat="45.951" lon="4.86362">
        <ele>269</ele>
        <time>2018-04-05T10:33:04Z</time>
      </trkpt>
      <trkpt lat="45.95097" lon="4.86358">
        <ele>269</ele>
        <time>2018-04-05T10:33:05Z</time>
      </trkpt>
      <trkpt lat="45.95093" lon="4.86354">
        <ele>269</ele>
        <time>2018-04-05T10:33:06Z</time>
      </trkpt>
      <trkpt lat="45.95089" lon="4.86349">
        <ele>269</ele>
        <time>2018-04-05T10:33:07Z</time>
      </trkpt>
      <trkpt lat="45.95086" lon="4.86344">
        <ele>269</ele>
        <time>2018-04-05T10:33:08Z</time>
      </trkpt>
      <trkpt lat="45.95082" lon="4.86341">
        <ele>270</ele>
        <time>2018-04-05T10:33:09Z</time>
      </trkpt>
      <trkpt lat="45.95078" lon="4.86336">
        <ele>270</ele>
        <time>2018-04-05T10:33:10Z</time>
      </trkpt>
      <trkpt lat="45.95075" lon="4.86332">
        <ele>270</ele>
        <time>2018-04-05T10:33:11Z</time>
      </trkpt>
      <trkpt lat="45.95071" lon="4.86327">
        <ele>270</ele>
        <time>2018-04-05T10:33:12Z</time>
      </trkpt>
      <trkpt lat="45.95068" lon="4.86322">
        <ele>270</ele>
        <time>2018-04-05T10:33:13Z</time>
      </trkpt>
      <trkpt lat="45.95065" lon="4.86318">
        <ele>270</ele>
        <time>2018-04-05T10:33:14Z</time>
      </trkpt>
      <trkpt lat="45.95061" lon="4.86314">
        <ele>270</ele>
        <time>2018-04-05T10:33:15Z</time>
      </trkpt>
      <trkpt lat="45.95057" lon="4.86309">
        <ele>271</ele>
        <time>2018-04-05T10:33:16Z</time>
      </trkpt>
      <trkpt lat="45.95053" lon="4.86305">
        <ele>271</ele>
        <time>2018-04-05T10:33:17Z</time>
      </trkpt>
      <trkpt lat="45.9505" lon="4.863">
        <ele>271</ele>
        <time>2018-04-05T10:33:18Z</time>
      </trkpt>
      <trkpt lat="45.95046" lon="4.86297">
        <ele>271</ele>
        <time>2018-04-05T10:33:19Z</time>
      </trkpt>
      <trkpt lat="45.9504" lon="4.86289">
        <ele>271</ele>
        <time>2018-04-05T10:33:21Z</time>
      </trkpt>
      <trkpt lat="45.95036" lon="4.86284">
        <ele>271</ele>
        <time>2018-04-05T10:33:22Z</time>
      </trkpt>
      <trkpt lat="45.9503" lon="4.86277">
        <ele>271</ele>
        <time>2018-04-05T10:33:24Z</time>
      </trkpt>
      <trkpt lat="45.95027" lon="4.86273">
        <ele>271</ele>
        <time>2018-04-05T10:33:25Z</time>
      </trkpt>
      <trkpt lat="45.95021" lon="4.86264">
        <ele>271</ele>
        <time>2018-04-05T10:33:27Z</time>
      </trkpt>
      <trkpt lat="45.95018" lon="4.86261">
        <ele>271</ele>
        <time>2018-04-05T10:33:28Z</time>
      </trkpt>
      <trkpt lat="45.95012" lon="4.86254">
        <ele>272</ele>
        <time>2018-04-05T10:33:30Z</time>
      </trkpt>
      <trkpt lat="45.95009" lon="4.86251">
        <ele>272</ele>
        <time>2018-04-05T10:33:31Z</time>
      </trkpt>
      <trkpt lat="45.95004" lon="4.86246">
        <ele>272</ele>
        <time>2018-04-05T10:33:33Z</time>
      </trkpt>
      <trkpt lat="45.95" lon="4.86241">
        <ele>272</ele>
        <time>2018-04-05T10:33:34Z</time>
      </trkpt>
      <trkpt lat="45.94995" lon="4.86235">
        <ele>272</ele>
        <time>2018-04-05T10:33:37Z</time>
      </trkpt>
      <trkpt lat="45.94994" lon="4.86233">
        <ele>272</ele>
        <time>2018-04-05T10:33:38Z</time>
      </trkpt>
      <trkpt lat="45.94987" lon="4.86223">
        <ele>272</ele>
        <time>2018-04-05T10:33:41Z</time>
      </trkpt>
      <trkpt lat="45.94981" lon="4.86214">
        <ele>272</ele>
        <time>2018-04-05T10:33:42Z</time>
      </trkpt>
      <trkpt lat="45.94974" lon="4.86206">
        <ele>272</ele>
        <time>2018-04-05T10:33:46Z</time>
      </trkpt>
      <trkpt lat="45.94972" lon="4.86203">
        <ele>272</ele>
        <time>2018-04-05T10:33:47Z</time>
      </trkpt>
      <trkpt lat="45.94965" lon="4.86195">
        <ele>272</ele>
        <time>2018-04-05T10:33:50Z</time>
      </trkpt>
      <trkpt lat="45.94962" lon="4.86192">
        <ele>272</ele>
        <time>2018-04-05T10:33:51Z</time>
      </trkpt>
      <trkpt lat="45.94955" lon="4.86183">
        <ele>273</ele>
        <time>2018-04-05T10:33:52Z</time>
      </trkpt>
      <trkpt lat="45.94949" lon="4.86174">
        <ele>273</ele>
        <time>2018-04-05T10:33:55Z</time>
      </trkpt>
      <trkpt lat="45.94945" lon="4.86169">
        <ele>273</ele>
        <time>2018-04-05T10:33:56Z</time>
      </trkpt>
      <trkpt lat="45.94939" lon="4.86163">
        <ele>273</ele>
        <time>2018-04-05T10:33:58Z</time>
      </trkpt>
      <trkpt lat="45.94936" lon="4.86159">
        <ele>273</ele>
        <time>2018-04-05T10:33:59Z</time>
      </trkpt>
      <trkpt lat="45.94931" lon="4.86151">
        <ele>273</ele>
        <time>2018-04-05T10:34:01Z</time>
      </trkpt>
      <trkpt lat="45.94929" lon="4.86147">
        <ele>273</ele>
        <time>2018-04-05T10:34:02Z</time>
      </trkpt>
      <trkpt lat="45.94924" lon="4.86139">
        <ele>273</ele>
        <time>2018-04-05T10:34:04Z</time>
      </trkpt>
      <trkpt lat="45.94921" lon="4.86135">
        <ele>273</ele>
        <time>2018-04-05T10:34:05Z</time>
      </trkpt>
      <trkpt lat="45.94916" lon="4.86126">
        <ele>274</ele>
        <time>2018-04-05T10:34:07Z</time>
      </trkpt>
      <trkpt lat="45.94914" lon="4.86122">
        <ele>274</ele>
        <time>2018-04-05T10:34:08Z</time>
      </trkpt>
      <trkpt lat="45.9491" lon="4.86112">
        <ele>274</ele>
        <time>2018-04-05T10:34:11Z</time>
      </trkpt>
      <trkpt lat="45.94908" lon="4.86109">
        <ele>274</ele>
        <time>2018-04-05T10:34:12Z</time>
      </trkpt>
      <trkpt lat="45.94905" lon="4.86101">
        <ele>274</ele>
        <time>2018-04-05T10:34:14Z</time>
      </trkpt>
      <trkpt lat="45.94902" lon="4.8609">
        <ele>274</ele>
        <time>2018-04-05T10:34:15Z</time>
      </trkpt>
      <trkpt lat="45.94898" lon="4.8608">
        <ele>274</ele>
        <time>2018-04-05T10:34:17Z</time>
      </trkpt>
      <trkpt lat="45.94897" lon="4.86075">
        <ele>274</ele>
        <time>2018-04-05T10:34:18Z</time>
      </trkpt>
      <trkpt lat="45.94895" lon="4.8607">
        <ele>274</ele>
        <time>2018-04-05T10:34:20Z</time>
      </trkpt>
      <trkpt lat="45.94892" lon="4.86061">
        <ele>274</ele>
        <time>2018-04-05T10:34:21Z</time>
      </trkpt>
      <trkpt lat="45.94889" lon="4.86051">
        <ele>274</ele>
        <time>2018-04-05T10:34:23Z</time>
      </trkpt>
      <trkpt lat="45.94887" lon="4.86046">
        <ele>274</ele>
        <time>2018-04-05T10:34:24Z</time>
      </trkpt>
      <trkpt lat="45.94884" lon="4.86035">
        <ele>274</ele>
        <time>2018-04-05T10:34:26Z</time>
      </trkpt>
      <trkpt lat="45.94883" lon="4.8603">
        <ele>274</ele>
        <time>2018-04-05T10:34:27Z</time>
      </trkpt>
      <trkpt lat="45.9488" lon="4.8602">
        <ele>274</ele>
        <time>2018-04-05T10:34:29Z</time>
      </trkpt>
      <trkpt lat="45.94878" lon="4.86015">
        <ele>274</ele>
        <time>2018-04-05T10:34:30Z</time>
      </trkpt>
      <trkpt lat="45.94876" lon="4.86005">
        <ele>274</ele>
        <time>2018-04-05T10:34:32Z</time>
      </trkpt>
      <trkpt lat="45.94874" lon="4.85999">
        <ele>275</ele>
        <time>2018-04-05T10:34:33Z</time>
      </trkpt>
      <trkpt lat="45.94872" lon="4.85988">
        <ele>275</ele>
        <time>2018-04-05T10:34:35Z</time>
      </trkpt>
      <trkpt lat="45.9487" lon="4.85983">
        <ele>275</ele>
        <time>2018-04-05T10:34:36Z</time>
      </trkpt>
      <trkpt lat="45.94868" lon="4.85972">
        <ele>275</ele>
        <time>2018-04-05T10:34:38Z</time>
      </trkpt>
      <trkpt lat="45.94866" lon="4.85966">
        <ele>275</ele>
        <time>2018-04-05T10:34:39Z</time>
      </trkpt>
      <trkpt lat="45.94864" lon="4.85954">
        <ele>275</ele>
        <time>2018-04-05T10:34:41Z</time>
      </trkpt>
      <trkpt lat="45.94862" lon="4.85949">
        <ele>275</ele>
        <time>2018-04-05T10:34:42Z</time>
      </trkpt>
      <trkpt lat="45.94859" lon="4.85937">
        <ele>275</ele>
        <time>2018-04-05T10:34:44Z</time>
      </trkpt>
      <trkpt lat="45.94858" lon="4.85932">
        <ele>275</ele>
        <time>2018-04-05T10:34:45Z</time>
      </trkpt>
      <trkpt lat="45.94854" lon="4.85921">
        <ele>275</ele>
        <time>2018-04-05T10:34:47Z</time>
      </trkpt>
      <trkpt lat="45.94853" lon="4.85915">
        <ele>275</ele>
        <time>2018-04-05T10:34:48Z</time>
      </trkpt>
      <trkpt lat="45.9485" lon="4.85904">
        <ele>276</ele>
        <time>2018-04-05T10:34:50Z</time>
      </trkpt>
      <trkpt lat="45.94848" lon="4.85899">
        <ele>276</ele>
        <time>2018-04-05T10:34:51Z</time>
      </trkpt>
      <trkpt lat="45.94844" lon="4.85888">
        <ele>276</ele>
        <time>2018-04-05T10:34:53Z</time>
      </trkpt>
      <trkpt lat="45.94843" lon="4.85883">
        <ele>276</ele>
        <time>2018-04-05T10:34:54Z</time>
      </trkpt>
      <trkpt lat="45.9484" lon="4.85873">
        <ele>276</ele>
        <time>2018-04-05T10:34:56Z</time>
      </trkpt>
      <trkpt lat="45.94838" lon="4.85867">
        <ele>276</ele>
        <time>2018-04-05T10:34:57Z</time>
      </trkpt>
      <trkpt lat="45.94835" lon="4.85857">
        <ele>276</ele>
        <time>2018-04-05T10:34:59Z</time>
      </trkpt>
      <trkpt lat="45.94834" lon="4.85851">
        <ele>276</ele>
        <time>2018-04-05T10:35:00Z</time>
      </trkpt>
      <trkpt lat="45.94832" lon="4.85843">
        <ele>277</ele>
        <time>2018-04-05T10:35:02Z</time>
      </trkpt>
      <trkpt lat="45.9483" lon="4.85836">
        <ele>277</ele>
        <time>2018-04-05T10:35:03Z</time>
      </trkpt>
      <trkpt lat="45.94828" lon="4.85826">
        <ele>277</ele>
        <time>2018-04-05T10:35:05Z</time>
      </trkpt>
      <trkpt lat="45.94827" lon="4.8582">
        <ele>278</ele>
        <time>2018-04-05T10:35:06Z</time>
      </trkpt>
      <trkpt lat="45.94824" lon="4.8581">
        <ele>278</ele>
        <time>2018-04-05T10:35:08Z</time>
      </trkpt>
      <trkpt lat="45.94822" lon="4.85805">
        <ele>278</ele>
        <time>2018-04-05T10:35:09Z</time>
      </trkpt>
      <trkpt lat="45.94819" lon="4.85794">
        <ele>278</ele>
        <time>2018-04-05T10:35:11Z</time>
      </trkpt>
      <trkpt lat="45.94818" lon="4.85788">
        <ele>278</ele>
        <time>2018-04-05T10:35:12Z</time>
      </trkpt>
      <trkpt lat="45.94815" lon="4.85778">
        <ele>278</ele>
        <time>2018-04-05T10:35:14Z</time>
      </trkpt>
      <trkpt lat="45.94813" lon="4.85773">
        <ele>278</ele>
        <time>2018-04-05T10:35:15Z</time>
      </trkpt>
      <trkpt lat="45.94809" lon="4.85762">
        <ele>278</ele>
        <time>2018-04-05T10:35:17Z</time>
      </trkpt>
      <trkpt lat="45.94808" lon="4.85757">
        <ele>278</ele>
        <time>2018-04-05T10:35:18Z</time>
      </trkpt>
      <trkpt lat="45.94805" lon="4.85745">
        <ele>279</ele>
        <time>2018-04-05T10:35:20Z</time>
      </trkpt>
      <trkpt lat="45.94804" lon="4.85739">
        <ele>279</ele>
        <time>2018-04-05T10:35:21Z</time>
      </trkpt>
      <trkpt lat="45.94801" lon="4.85728">
        <ele>280</ele>
        <time>2018-04-05T10:35:23Z</time>
      </trkpt>
      <trkpt lat="45.94799" lon="4.85722">
        <ele>280</ele>
        <time>2018-04-05T10:35:24Z</time>
      </trkpt>
      <trkpt lat="45.94795" lon="4.85711">
        <ele>280</ele>
        <time>2018-04-05T10:35:26Z</time>
      </trkpt>
      <trkpt lat="45.94794" lon="4.85705">
        <ele>280</ele>
        <time>2018-04-05T10:35:27Z</time>
      </trkpt>
      <trkpt lat="45.94792" lon="4.85699">
        <ele>280</ele>
        <time>2018-04-05T10:35:28Z</time>
      </trkpt>
      <trkpt lat="45.9479" lon="4.85693">
        <ele>280</ele>
        <time>2018-04-05T10:35:29Z</time>
      </trkpt>
      <trkpt lat="45.94786" lon="4.85681">
        <ele>280</ele>
        <time>2018-04-05T10:35:31Z</time>
      </trkpt>
      <trkpt lat="45.94785" lon="4.85676">
        <ele>280</ele>
        <time>2018-04-05T10:35:32Z</time>
      </trkpt>
      <trkpt lat="45.94782" lon="4.85663">
        <ele>281</ele>
        <time>2018-04-05T10:35:34Z</time>
      </trkpt>
      <trkpt lat="45.94781" lon="4.85657">
        <ele>281</ele>
        <time>2018-04-05T10:35:35Z</time>
      </trkpt>
      <trkpt lat="45.94779" lon="4.8565">
        <ele>281</ele>
        <time>2018-04-05T10:35:36Z</time>
      </trkpt>
      <trkpt lat="45.94777" lon="4.85643">
        <ele>281</ele>
        <time>2018-04-05T10:35:37Z</time>
      </trkpt>
      <trkpt lat="45.94775" lon="4.85636">
        <ele>281</ele>
        <time>2018-04-05T10:35:38Z</time>
      </trkpt>
      <trkpt lat="45.94774" lon="4.85629">
        <ele>280</ele>
        <time>2018-04-05T10:35:39Z</time>
      </trkpt>
      <trkpt lat="45.94772" lon="4.85622">
        <ele>280</ele>
        <time>2018-04-05T10:35:40Z</time>
      </trkpt>
      <trkpt lat="45.94771" lon="4.85615">
        <ele>280</ele>
        <time>2018-04-05T10:35:41Z</time>
      </trkpt>
      <trkpt lat="45.94769" lon="4.85608">
        <ele>280</ele>
        <time>2018-04-05T10:35:42Z</time>
      </trkpt>
      <trkpt lat="45.94768" lon="4.856">
        <ele>280</ele>
        <time>2018-04-05T10:35:43Z</time>
      </trkpt>
      <trkpt lat="45.94767" lon="4.85592">
        <ele>280</ele>
        <time>2018-04-05T10:35:44Z</time>
      </trkpt>
      <trkpt lat="45.94765" lon="4.85583">
        <ele>280</ele>
        <time>2018-04-05T10:35:45Z</time>
      </trkpt>
      <trkpt lat="45.94764" lon="4.85576">
        <ele>279</ele>
        <time>2018-04-05T10:35:46Z</time>
      </trkpt>
      <trkpt lat="45.94762" lon="4.85567">
        <ele>279</ele>
        <time>2018-04-05T10:35:47Z</time>
      </trkpt>
      <trkpt lat="45.94761" lon="4.85558">
        <ele>278</ele>
        <time>2018-04-05T10:35:48Z</time>
      </trkpt>
      <trkpt lat="45.94759" lon="4.85549">
        <ele>278</ele>
        <time>2018-04-05T10:35:49Z</time>
      </trkpt>
      <trkpt lat="45.94758" lon="4.85539">
        <ele>278</ele>
        <time>2018-04-05T10:35:50Z</time>
      </trkpt>
      <trkpt lat="45.94756" lon="4.85529">
        <ele>278</ele>
        <time>2018-04-05T10:35:51Z</time>
      </trkpt>
      <trkpt lat="45.94755" lon="4.85519">
        <ele>277</ele>
        <time>2018-04-05T10:35:52Z</time>
      </trkpt>
      <trkpt lat="45.94752" lon="4.85508">
        <ele>277</ele>
        <time>2018-04-05T10:35:53Z</time>
      </trkpt>
      <trkpt lat="45.9475" lon="4.85498">
        <ele>276</ele>
        <time>2018-04-05T10:35:54Z</time>
      </trkpt>
      <trkpt lat="45.94749" lon="4.85488">
        <ele>275</ele>
        <time>2018-04-05T10:35:55Z</time>
      </trkpt>
      <trkpt lat="45.94749" lon="4.85477">
        <ele>275</ele>
        <time>2018-04-05T10:35:56Z</time>
      </trkpt>
      <trkpt lat="45.94748" lon="4.85466">
        <ele>274</ele>
        <time>2018-04-05T10:35:57Z</time>
      </trkpt>
      <trkpt lat="45.94747" lon="4.85455">
        <ele>274</ele>
        <time>2018-04-05T10:35:58Z</time>
      </trkpt>
      <trkpt lat="45.94746" lon="4.85442">
        <ele>274</ele>
        <time>2018-04-05T10:35:59Z</time>
      </trkpt>
      <trkpt lat="45.94744" lon="4.85431">
        <ele>273</ele>
        <time>2018-04-05T10:36:00Z</time>
      </trkpt>
      <trkpt lat="45.94743" lon="4.8542">
        <ele>273</ele>
        <time>2018-04-05T10:36:01Z</time>
      </trkpt>
      <trkpt lat="45.94742" lon="4.85409">
        <ele>272</ele>
        <time>2018-04-05T10:36:02Z</time>
      </trkpt>
      <trkpt lat="45.94741" lon="4.85399">
        <ele>272</ele>
        <time>2018-04-05T10:36:03Z</time>
      </trkpt>
      <trkpt lat="45.94739" lon="4.8539">
        <ele>272</ele>
        <time>2018-04-05T10:36:04Z</time>
      </trkpt>
      <trkpt lat="45.94738" lon="4.85379">
        <ele>271</ele>
        <time>2018-04-05T10:36:05Z</time>
      </trkpt>
      <trkpt lat="45.94737" lon="4.8537">
        <ele>271</ele>
        <time>2018-04-05T10:36:06Z</time>
      </trkpt>
      <trkpt lat="45.94736" lon="4.8536">
        <ele>271</ele>
        <time>2018-04-05T10:36:07Z</time>
      </trkpt>
      <trkpt lat="45.94736" lon="4.85351">
        <ele>271</ele>
        <time>2018-04-05T10:36:08Z</time>
      </trkpt>
      <trkpt lat="45.94734" lon="4.85342">
        <ele>271</ele>
        <time>2018-04-05T10:36:09Z</time>
      </trkpt>
      <trkpt lat="45.94732" lon="4.85333">
        <ele>270</ele>
        <time>2018-04-05T10:36:10Z</time>
      </trkpt>
      <trkpt lat="45.94731" lon="4.85324">
        <ele>270</ele>
        <time>2018-04-05T10:36:11Z</time>
      </trkpt>
      <trkpt lat="45.94731" lon="4.85315">
        <ele>270</ele>
        <time>2018-04-05T10:36:12Z</time>
      </trkpt>
      <trkpt lat="45.9473" lon="4.85306">
        <ele>270</ele>
        <time>2018-04-05T10:36:13Z</time>
      </trkpt>
      <trkpt lat="45.94728" lon="4.85297">
        <ele>270</ele>
        <time>2018-04-05T10:36:14Z</time>
      </trkpt>
      <trkpt lat="45.94727" lon="4.85288">
        <ele>269</ele>
        <time>2018-04-05T10:36:15Z</time>
      </trkpt>
      <trkpt lat="45.94725" lon="4.85279">
        <ele>269</ele>
        <time>2018-04-05T10:36:16Z</time>
      </trkpt>
      <trkpt lat="45.94724" lon="4.85271">
        <ele>269</ele>
        <time>2018-04-05T10:36:17Z</time>
      </trkpt>
      <trkpt lat="45.94723" lon="4.85263">
        <ele>269</ele>
        <time>2018-04-05T10:36:18Z</time>
      </trkpt>
      <trkpt lat="45.94722" lon="4.85255">
        <ele>269</ele>
        <time>2018-04-05T10:36:19Z</time>
      </trkpt>
      <trkpt lat="45.94722" lon="4.85246">
        <ele>269</ele>
        <time>2018-04-05T10:36:20Z</time>
      </trkpt>
      <trkpt lat="45.94721" lon="4.85238">
        <ele>269</ele>
        <time>2018-04-05T10:36:21Z</time>
      </trkpt>
      <trkpt lat="45.94719" lon="4.85229">
        <ele>269</ele>
        <time>2018-04-05T10:36:22Z</time>
      </trkpt>
      <trkpt lat="45.94718" lon="4.8522">
        <ele>269</ele>
        <time>2018-04-05T10:36:23Z</time>
      </trkpt>
      <trkpt lat="45.94718" lon="4.85212">
        <ele>269</ele>
        <time>2018-04-05T10:36:24Z</time>
      </trkpt>
      <trkpt lat="45.94717" lon="4.85203">
        <ele>269</ele>
        <time>2018-04-05T10:36:25Z</time>
      </trkpt>
      <trkpt lat="45.94716" lon="4.85194">
        <ele>269</ele>
        <time>2018-04-05T10:36:26Z</time>
      </trkpt>
      <trkpt lat="45.94716" lon="4.85185">
        <ele>269</ele>
        <time>2018-04-05T10:36:27Z</time>
      </trkpt>
      <trkpt lat="45.94714" lon="4.85177">
        <ele>269</ele>
        <time>2018-04-05T10:36:28Z</time>
      </trkpt>
      <trkpt lat="45.94714" lon="4.85169">
        <ele>269</ele>
        <time>2018-04-05T10:36:29Z</time>
      </trkpt>
      <trkpt lat="45.94713" lon="4.85161">
        <ele>269</ele>
        <time>2018-04-05T10:36:30Z</time>
      </trkpt>
      <trkpt lat="45.94711" lon="4.85152">
        <ele>269</ele>
        <time>2018-04-05T10:36:31Z</time>
      </trkpt>
      <trkpt lat="45.9471" lon="4.85143">
        <ele>269</ele>
        <time>2018-04-05T10:36:32Z</time>
      </trkpt>
      <trkpt lat="45.94709" lon="4.85135">
        <ele>269</ele>
        <time>2018-04-05T10:36:33Z</time>
      </trkpt>
      <trkpt lat="45.94709" lon="4.85127">
        <ele>269</ele>
        <time>2018-04-05T10:36:34Z</time>
      </trkpt>
      <trkpt lat="45.94708" lon="4.85119">
        <ele>269</ele>
        <time>2018-04-05T10:36:35Z</time>
      </trkpt>
      <trkpt lat="45.94707" lon="4.8511">
        <ele>269</ele>
        <time>2018-04-05T10:36:36Z</time>
      </trkpt>
      <trkpt lat="45.94706" lon="4.85102">
        <ele>269</ele>
        <time>2018-04-05T10:36:37Z</time>
      </trkpt>
      <trkpt lat="45.94705" lon="4.85094">
        <ele>269</ele>
        <time>2018-04-05T10:36:38Z</time>
      </trkpt>
      <trkpt lat="45.94705" lon="4.85085">
        <ele>269</ele>
        <time>2018-04-05T10:36:39Z</time>
      </trkpt>
      <trkpt lat="45.94703" lon="4.85078">
        <ele>269</ele>
        <time>2018-04-05T10:36:40Z</time>
      </trkpt>
      <trkpt lat="45.94703" lon="4.8507">
        <ele>269</ele>
        <time>2018-04-05T10:36:41Z</time>
      </trkpt>
      <trkpt lat="45.94702" lon="4.85061">
        <ele>269</ele>
        <time>2018-04-05T10:36:42Z</time>
      </trkpt>
      <trkpt lat="45.94702" lon="4.85053">
        <ele>269</ele>
        <time>2018-04-05T10:36:43Z</time>
      </trkpt>
      <trkpt lat="45.94702" lon="4.85045">
        <ele>269</ele>
        <time>2018-04-05T10:36:44Z</time>
      </trkpt>
      <trkpt lat="45.94701" lon="4.85036">
        <ele>269</ele>
        <time>2018-04-05T10:36:45Z</time>
      </trkpt>
      <trkpt lat="45.94699" lon="4.85027">
        <ele>269</ele>
        <time>2018-04-05T10:36:46Z</time>
      </trkpt>
      <trkpt lat="45.94698" lon="4.85019">
        <ele>269</ele>
        <time>2018-04-05T10:36:47Z</time>
      </trkpt>
      <trkpt lat="45.94697" lon="4.85011">
        <ele>269</ele>
        <time>2018-04-05T10:36:48Z</time>
      </trkpt>
      <trkpt lat="45.94696" lon="4.85003">
        <ele>269</ele>
        <time>2018-04-05T10:36:49Z</time>
      </trkpt>
      <trkpt lat="45.94696" lon="4.84994">
        <ele>269</ele>
        <time>2018-04-05T10:36:50Z</time>
      </trkpt>
      <trkpt lat="45.94695" lon="4.84986">
        <ele>269</ele>
        <time>2018-04-05T10:36:51Z</time>
      </trkpt>
      <trkpt lat="45.94693" lon="4.84978">
        <ele>269</ele>
        <time>2018-04-05T10:36:52Z</time>
      </trkpt>
      <trkpt lat="45.94693" lon="4.84971">
        <ele>269</ele>
        <time>2018-04-05T10:36:53Z</time>
      </trkpt>
      <trkpt lat="45.94692" lon="4.84963">
        <ele>269</ele>
        <time>2018-04-05T10:36:54Z</time>
      </trkpt>
      <trkpt lat="45.94691" lon="4.84955">
        <ele>269</ele>
        <time>2018-04-05T10:36:55Z</time>
      </trkpt>
      <trkpt lat="45.94691" lon="4.84946">
        <ele>269</ele>
        <time>2018-04-05T10:36:56Z</time>
      </trkpt>
      <trkpt lat="45.9469" lon="4.8494">
        <ele>269</ele>
        <time>2018-04-05T10:36:57Z</time>
      </trkpt>
      <trkpt lat="45.94689" lon="4.84932">
        <ele>269</ele>
        <time>2018-04-05T10:36:58Z</time>
      </trkpt>
      <trkpt lat="45.94688" lon="4.84924">
        <ele>269</ele>
        <time>2018-04-05T10:36:59Z</time>
      </trkpt>
      <trkpt lat="45.94687" lon="4.84917">
        <ele>269</ele>
        <time>2018-04-05T10:37:00Z</time>
      </trkpt>
      <trkpt lat="45.94686" lon="4.84909">
        <ele>269</ele>
        <time>2018-04-05T10:37:01Z</time>
      </trkpt>
      <trkpt lat="45.94685" lon="4.84901">
        <ele>269</ele>
        <time>2018-04-05T10:37:02Z</time>
      </trkpt>
      <trkpt lat="45.94684" lon="4.84892">
        <ele>268</ele>
        <time>2018-04-05T10:37:03Z</time>
      </trkpt>
      <trkpt lat="45.94684" lon="4.84884">
        <ele>268</ele>
        <time>2018-04-05T10:37:04Z</time>
      </trkpt>
      <trkpt lat="45.94683" lon="4.84875">
        <ele>268</ele>
        <time>2018-04-05T10:37:05Z</time>
      </trkpt>
      <trkpt lat="45.94682" lon="4.84867">
        <ele>268</ele>
        <time>2018-04-05T10:37:06Z</time>
      </trkpt>
      <trkpt lat="45.94681" lon="4.84859">
        <ele>268</ele>
        <time>2018-04-05T10:37:07Z</time>
      </trkpt>
      <trkpt lat="45.9468" lon="4.84851">
        <ele>268</ele>
        <time>2018-04-05T10:37:08Z</time>
      </trkpt>
      <trkpt lat="45.9468" lon="4.84844">
        <ele>268</ele>
        <time>2018-04-05T10:37:09Z</time>
      </trkpt>
      <trkpt lat="45.94679" lon="4.84837">
        <ele>268</ele>
        <time>2018-04-05T10:37:10Z</time>
      </trkpt>
      <trkpt lat="45.94679" lon="4.8483">
        <ele>268</ele>
        <time>2018-04-05T10:37:11Z</time>
      </trkpt>
      <trkpt lat="45.94677" lon="4.84821">
        <ele>268</ele>
        <time>2018-04-05T10:37:12Z</time>
      </trkpt>
      <trkpt lat="45.94675" lon="4.84811">
        <ele>268</ele>
        <time>2018-04-05T10:37:13Z</time>
      </trkpt>
      <trkpt lat="45.94674" lon="4.84804">
        <ele>268</ele>
        <time>2018-04-05T10:37:14Z</time>
      </trkpt>
      <trkpt lat="45.94674" lon="4.84797">
        <ele>268</ele>
        <time>2018-04-05T10:37:15Z</time>
      </trkpt>
      <trkpt lat="45.94673" lon="4.84791">
        <ele>269</ele>
        <time>2018-04-05T10:37:16Z</time>
      </trkpt>
      <trkpt lat="45.94673" lon="4.84784">
        <ele>269</ele>
        <time>2018-04-05T10:37:17Z</time>
      </trkpt>
      <trkpt lat="45.94672" lon="4.84776">
        <ele>269</ele>
        <time>2018-04-05T10:37:18Z</time>
      </trkpt>
      <trkpt lat="45.94671" lon="4.84768">
        <ele>269</ele>
        <time>2018-04-05T10:37:19Z</time>
      </trkpt>
      <trkpt lat="45.94671" lon="4.84761">
        <ele>269</ele>
        <time>2018-04-05T10:37:20Z</time>
      </trkpt>
      <trkpt lat="45.94671" lon="4.84753">
        <ele>269</ele>
        <time>2018-04-05T10:37:21Z</time>
      </trkpt>
      <trkpt lat="45.94671" lon="4.84746">
        <ele>269</ele>
        <time>2018-04-05T10:37:22Z</time>
      </trkpt>
      <trkpt lat="45.9467" lon="4.8474">
        <ele>269</ele>
        <time>2018-04-05T10:37:23Z</time>
      </trkpt>
      <trkpt lat="45.94671" lon="4.84733">
        <ele>269</ele>
        <time>2018-04-05T10:37:24Z</time>
      </trkpt>
      <trkpt lat="45.9467" lon="4.84726">
        <ele>269</ele>
        <time>2018-04-05T10:37:25Z</time>
      </trkpt>
      <trkpt lat="45.9467" lon="4.84719">
        <ele>269</ele>
        <time>2018-04-05T10:37:26Z</time>
      </trkpt>
      <trkpt lat="45.94668" lon="4.84713">
        <ele>269</ele>
        <time>2018-04-05T10:37:27Z</time>
      </trkpt>
      <trkpt lat="45.94668" lon="4.84706">
        <ele>269</ele>
        <time>2018-04-05T10:37:28Z</time>
      </trkpt>
      <trkpt lat="45.94668" lon="4.84699">
        <ele>269</ele>
        <time>2018-04-05T10:37:29Z</time>
      </trkpt>
      <trkpt lat="45.94668" lon="4.84691">
        <ele>269</ele>
        <time>2018-04-05T10:37:30Z</time>
      </trkpt>
      <trkpt lat="45.94668" lon="4.84684">
        <ele>269</ele>
        <time>2018-04-05T10:37:31Z</time>
      </trkpt>
      <trkpt lat="45.94668" lon="4.84676">
        <ele>269</ele>
        <time>2018-04-05T10:37:32Z</time>
      </trkpt>
      <trkpt lat="45.94668" lon="4.84668">
        <ele>269</ele>
        <time>2018-04-05T10:37:33Z</time>
      </trkpt>
      <trkpt lat="45.94668" lon="4.84661">
        <ele>269</ele>
        <time>2018-04-05T10:37:34Z</time>
      </trkpt>
      <trkpt lat="45.94667" lon="4.84654">
        <ele>268</ele>
        <time>2018-04-05T10:37:35Z</time>
      </trkpt>
      <trkpt lat="45.94667" lon="4.84646">
        <ele>268</ele>
        <time>2018-04-05T10:37:36Z</time>
      </trkpt>
      <trkpt lat="45.94667" lon="4.84639">
        <ele>268</ele>
        <time>2018-04-05T10:37:37Z</time>
      </trkpt>
      <trkpt lat="45.94667" lon="4.84631">
        <ele>268</ele>
        <time>2018-04-05T10:37:38Z</time>
      </trkpt>
      <trkpt lat="45.94667" lon="4.84624">
        <ele>268</ele>
        <time>2018-04-05T10:37:39Z</time>
      </trkpt>
      <trkpt lat="45.94667" lon="4.84617">
        <ele>268</ele>
        <time>2018-04-05T10:37:40Z</time>
      </trkpt>
      <trkpt lat="45.94667" lon="4.8461">
        <ele>268</ele>
        <time>2018-04-05T10:37:41Z</time>
      </trkpt>
      <trkpt lat="45.94667" lon="4.84602">
        <ele>268</ele>
        <time>2018-04-05T10:37:42Z</time>
      </trkpt>
      <trkpt lat="45.94667" lon="4.84595">
        <ele>268</ele>
        <time>2018-04-05T10:37:43Z</time>
      </trkpt>
      <trkpt lat="45.94666" lon="4.84588">
        <ele>268</ele>
        <time>2018-04-05T10:37:44Z</time>
      </trkpt>
      <trkpt lat="45.94665" lon="4.84581">
        <ele>268</ele>
        <time>2018-04-05T10:37:45Z</time>
      </trkpt>
      <trkpt lat="45.94664" lon="4.84569">
        <ele>268</ele>
        <time>2018-04-05T10:37:47Z</time>
      </trkpt>
      <trkpt lat="45.94664" lon="4.84562">
        <ele>268</ele>
        <time>2018-04-05T10:37:48Z</time>
      </trkpt>
      <trkpt lat="45.94664" lon="4.84549">
        <ele>268</ele>
        <time>2018-04-05T10:37:50Z</time>
      </trkpt>
      <trkpt lat="45.94663" lon="4.84542">
        <ele>268</ele>
        <time>2018-04-05T10:37:51Z</time>
      </trkpt>
      <trkpt lat="45.94663" lon="4.84535">
        <ele>268</ele>
        <time>2018-04-05T10:37:52Z</time>
      </trkpt>
      <trkpt lat="45.94662" lon="4.84529">
        <ele>268</ele>
        <time>2018-04-05T10:37:53Z</time>
      </trkpt>
      <trkpt lat="45.94659" lon="4.84517">
        <ele>268</ele>
        <time>2018-04-05T10:37:55Z</time>
      </trkpt>
      <trkpt lat="45.94659" lon="4.8451">
        <ele>268</ele>
        <time>2018-04-05T10:37:56Z</time>
      </trkpt>
      <trkpt lat="45.94659" lon="4.84497">
        <ele>268</ele>
        <time>2018-04-05T10:37:58Z</time>
      </trkpt>
      <trkpt lat="45.94659" lon="4.84491">
        <ele>268</ele>
        <time>2018-04-05T10:37:59Z</time>
      </trkpt>
      <trkpt lat="45.94658" lon="4.84484">
        <ele>268</ele>
        <time>2018-04-05T10:38:00Z</time>
      </trkpt>
      <trkpt lat="45.94658" lon="4.84477">
        <ele>268</ele>
        <time>2018-04-05T10:38:01Z</time>
      </trkpt>
      <trkpt lat="45.94657" lon="4.84471">
        <ele>268</ele>
        <time>2018-04-05T10:38:02Z</time>
      </trkpt>
      <trkpt lat="45.94656" lon="4.84464">
        <ele>268</ele>
        <time>2018-04-05T10:38:03Z</time>
      </trkpt>
      <trkpt lat="45.94655" lon="4.84457">
        <ele>268</ele>
        <time>2018-04-05T10:38:04Z</time>
      </trkpt>
      <trkpt lat="45.94655" lon="4.84449">
        <ele>268</ele>
        <time>2018-04-05T10:38:05Z</time>
      </trkpt>
      <trkpt lat="45.94654" lon="4.84441">
        <ele>268</ele>
        <time>2018-04-05T10:38:06Z</time>
      </trkpt>
      <trkpt lat="45.94653" lon="4.84435">
        <ele>268</ele>
        <time>2018-04-05T10:38:07Z</time>
      </trkpt>
      <trkpt lat="45.94652" lon="4.84427">
        <ele>268</ele>
        <time>2018-04-05T10:38:08Z</time>
      </trkpt>
      <trkpt lat="45.94651" lon="4.8442">
        <ele>268</ele>
        <time>2018-04-05T10:38:09Z</time>
      </trkpt>
      <trkpt lat="45.94649" lon="4.84407">
        <ele>268</ele>
        <time>2018-04-05T10:38:11Z</time>
      </trkpt>
      <trkpt lat="45.94648" lon="4.844">
        <ele>268</ele>
        <time>2018-04-05T10:38:12Z</time>
      </trkpt>
      <trkpt lat="45.94648" lon="4.84392">
        <ele>268</ele>
        <time>2018-04-05T10:38:13Z</time>
      </trkpt>
      <trkpt lat="45.94647" lon="4.84386">
        <ele>268</ele>
        <time>2018-04-05T10:38:14Z</time>
      </trkpt>
      <trkpt lat="45.94646" lon="4.84379">
        <ele>268</ele>
        <time>2018-04-05T10:38:15Z</time>
      </trkpt>
      <trkpt lat="45.94645" lon="4.84371">
        <ele>268</ele>
        <time>2018-04-05T10:38:16Z</time>
      </trkpt>
      <trkpt lat="45.94645" lon="4.84365">
        <ele>268</ele>
        <time>2018-04-05T10:38:17Z</time>
      </trkpt>
      <trkpt lat="45.94644" lon="4.84357">
        <ele>268</ele>
        <time>2018-04-05T10:38:18Z</time>
      </trkpt>
      <trkpt lat="45.94644" lon="4.8435">
        <ele>268</ele>
        <time>2018-04-05T10:38:19Z</time>
      </trkpt>
      <trkpt lat="45.94643" lon="4.84343">
        <ele>268</ele>
        <time>2018-04-05T10:38:20Z</time>
      </trkpt>
      <trkpt lat="45.94642" lon="4.84337">
        <ele>268</ele>
        <time>2018-04-05T10:38:21Z</time>
      </trkpt>
      <trkpt lat="45.94641" lon="4.84329">
        <ele>268</ele>
        <time>2018-04-05T10:38:22Z</time>
      </trkpt>
      <trkpt lat="45.9464" lon="4.84321">
        <ele>269</ele>
        <time>2018-04-05T10:38:23Z</time>
      </trkpt>
      <trkpt lat="45.94639" lon="4.84314">
        <ele>269</ele>
        <time>2018-04-05T10:38:24Z</time>
      </trkpt>
      <trkpt lat="45.94639" lon="4.84307">
        <ele>269</ele>
        <time>2018-04-05T10:38:25Z</time>
      </trkpt>
      <trkpt lat="45.94639" lon="4.84301">
        <ele>269</ele>
        <time>2018-04-05T10:38:26Z</time>
      </trkpt>
      <trkpt lat="45.94637" lon="4.84293">
        <ele>269</ele>
        <time>2018-04-05T10:38:27Z</time>
      </trkpt>
      <trkpt lat="45.94636" lon="4.84285">
        <ele>269</ele>
        <time>2018-04-05T10:38:28Z</time>
      </trkpt>
      <trkpt lat="45.94634" lon="4.84277">
        <ele>269</ele>
        <time>2018-04-05T10:38:29Z</time>
      </trkpt>
      <trkpt lat="45.94633" lon="4.8427">
        <ele>269</ele>
        <time>2018-04-05T10:38:30Z</time>
      </trkpt>
      <trkpt lat="45.94632" lon="4.84262">
        <ele>269</ele>
        <time>2018-04-05T10:38:31Z</time>
      </trkpt>
      <trkpt lat="45.94631" lon="4.84255">
        <ele>269</ele>
        <time>2018-04-05T10:38:32Z</time>
      </trkpt>
      <trkpt lat="45.9463" lon="4.84248">
        <ele>269</ele>
        <time>2018-04-05T10:38:33Z</time>
      </trkpt>
      <trkpt lat="45.94629" lon="4.84242">
        <ele>269</ele>
        <time>2018-04-05T10:38:34Z</time>
      </trkpt>
      <trkpt lat="45.94627" lon="4.84236">
        <ele>269</ele>
        <time>2018-04-05T10:38:35Z</time>
      </trkpt>
      <trkpt lat="45.94626" lon="4.84228">
        <ele>269</ele>
        <time>2018-04-05T10:38:36Z</time>
      </trkpt>
      <trkpt lat="45.94625" lon="4.84221">
        <ele>269</ele>
        <time>2018-04-05T10:38:37Z</time>
      </trkpt>
      <trkpt lat="45.94623" lon="4.84214">
        <ele>269</ele>
        <time>2018-04-05T10:38:38Z</time>
      </trkpt>
      <trkpt lat="45.94622" lon="4.84208">
        <ele>269</ele>
        <time>2018-04-05T10:38:39Z</time>
      </trkpt>
      <trkpt lat="45.94621" lon="4.842">
        <ele>269</ele>
        <time>2018-04-05T10:38:40Z</time>
      </trkpt>
      <trkpt lat="45.9462" lon="4.84193">
        <ele>269</ele>
        <time>2018-04-05T10:38:41Z</time>
      </trkpt>
      <trkpt lat="45.94619" lon="4.84184">
        <ele>269</ele>
        <time>2018-04-05T10:38:42Z</time>
      </trkpt>
      <trkpt lat="45.94618" lon="4.84177">
        <ele>269</ele>
        <time>2018-04-05T10:38:43Z</time>
      </trkpt>
      <trkpt lat="45.94617" lon="4.84169">
        <ele>269</ele>
        <time>2018-04-05T10:38:44Z</time>
      </trkpt>
      <trkpt lat="45.94616" lon="4.84162">
        <ele>269</ele>
        <time>2018-04-05T10:38:45Z</time>
      </trkpt>
      <trkpt lat="45.94615" lon="4.84155">
        <ele>269</ele>
        <time>2018-04-05T10:38:46Z</time>
      </trkpt>
      <trkpt lat="45.94614" lon="4.84147">
        <ele>269</ele>
        <time>2018-04-05T10:38:47Z</time>
      </trkpt>
      <trkpt lat="45.94613" lon="4.8414">
        <ele>269</ele>
        <time>2018-04-05T10:38:48Z</time>
      </trkpt>
      <trkpt lat="45.94612" lon="4.84133">
        <ele>269</ele>
        <time>2018-04-05T10:38:49Z</time>
      </trkpt>
      <trkpt lat="45.94611" lon="4.84125">
        <ele>269</ele>
        <time>2018-04-05T10:38:50Z</time>
      </trkpt>
      <trkpt lat="45.94611" lon="4.84118">
        <ele>269</ele>
        <time>2018-04-05T10:38:51Z</time>
      </trkpt>
      <trkpt lat="45.9461" lon="4.84111">
        <ele>269</ele>
        <time>2018-04-05T10:38:52Z</time>
      </trkpt>
      <trkpt lat="45.94609" lon="4.84105">
        <ele>269</ele>
        <time>2018-04-05T10:38:53Z</time>
      </trkpt>
      <trkpt lat="45.94607" lon="4.84098">
        <ele>269</ele>
        <time>2018-04-05T10:38:54Z</time>
      </trkpt>
      <trkpt lat="45.94605" lon="4.84091">
        <ele>269</ele>
        <time>2018-04-05T10:38:55Z</time>
      </trkpt>
      <trkpt lat="45.94603" lon="4.84084">
        <ele>269</ele>
        <time>2018-04-05T10:38:56Z</time>
      </trkpt>
      <trkpt lat="45.94602" lon="4.84076">
        <ele>269</ele>
        <time>2018-04-05T10:38:57Z</time>
      </trkpt>
      <trkpt lat="45.94601" lon="4.84069">
        <ele>269</ele>
        <time>2018-04-05T10:38:58Z</time>
      </trkpt>
      <trkpt lat="45.94599" lon="4.84062">
        <ele>269</ele>
        <time>2018-04-05T10:38:59Z</time>
      </trkpt>
      <trkpt lat="45.94597" lon="4.84055">
        <ele>269</ele>
        <time>2018-04-05T10:39:00Z</time>
      </trkpt>
      <trkpt lat="45.94595" lon="4.84047">
        <ele>269</ele>
        <time>2018-04-05T10:39:01Z</time>
      </trkpt>
      <trkpt lat="45.94595" lon="4.84038">
        <ele>269</ele>
        <time>2018-04-05T10:39:02Z</time>
      </trkpt>
      <trkpt lat="45.94594" lon="4.84032">
        <ele>269</ele>
        <time>2018-04-05T10:39:03Z</time>
      </trkpt>
      <trkpt lat="45.94593" lon="4.84025">
        <ele>269</ele>
        <time>2018-04-05T10:39:04Z</time>
      </trkpt>
      <trkpt lat="45.94592" lon="4.84018">
        <ele>269</ele>
        <time>2018-04-05T10:39:05Z</time>
      </trkpt>
      <trkpt lat="45.94591" lon="4.8401">
        <ele>269</ele>
        <time>2018-04-05T10:39:06Z</time>
      </trkpt>
      <trkpt lat="45.9459" lon="4.84003">
        <ele>269</ele>
        <time>2018-04-05T10:39:07Z</time>
      </trkpt>
      <trkpt lat="45.94589" lon="4.83994">
        <ele>269</ele>
        <time>2018-04-05T10:39:08Z</time>
      </trkpt>
      <trkpt lat="45.94588" lon="4.83985">
        <ele>269</ele>
        <time>2018-04-05T10:39:09Z</time>
      </trkpt>
      <trkpt lat="45.94586" lon="4.83976">
        <ele>268</ele>
        <time>2018-04-05T10:39:10Z</time>
      </trkpt>
      <trkpt lat="45.94584" lon="4.83967">
        <ele>268</ele>
        <time>2018-04-05T10:39:11Z</time>
      </trkpt>
      <trkpt lat="45.94582" lon="4.83958">
        <ele>269</ele>
        <time>2018-04-05T10:39:12Z</time>
      </trkpt>
      <trkpt lat="45.94581" lon="4.83949">
        <ele>269</ele>
        <time>2018-04-05T10:39:13Z</time>
      </trkpt>
      <trkpt lat="45.94579" lon="4.8394">
        <ele>269</ele>
        <time>2018-04-05T10:39:14Z</time>
      </trkpt>
      <trkpt lat="45.94578" lon="4.83929">
        <ele>268</ele>
        <time>2018-04-05T10:39:15Z</time>
      </trkpt>
      <trkpt lat="45.94577" lon="4.83919">
        <ele>268</ele>
        <time>2018-04-05T10:39:16Z</time>
      </trkpt>
      <trkpt lat="45.94575" lon="4.83908">
        <ele>268</ele>
        <time>2018-04-05T10:39:17Z</time>
      </trkpt>
      <trkpt lat="45.94573" lon="4.83899">
        <ele>268</ele>
        <time>2018-04-05T10:39:18Z</time>
      </trkpt>
      <trkpt lat="45.94571" lon="4.83889">
        <ele>267</ele>
        <time>2018-04-05T10:39:19Z</time>
      </trkpt>
      <trkpt lat="45.9457" lon="4.83878">
        <ele>267</ele>
        <time>2018-04-05T10:39:20Z</time>
      </trkpt>
      <trkpt lat="45.94568" lon="4.83867">
        <ele>267</ele>
        <time>2018-04-05T10:39:21Z</time>
      </trkpt>
      <trkpt lat="45.94567" lon="4.83857">
        <ele>267</ele>
        <time>2018-04-05T10:39:22Z</time>
      </trkpt>
      <trkpt lat="45.94565" lon="4.83846">
        <ele>266</ele>
        <time>2018-04-05T10:39:23Z</time>
      </trkpt>
      <trkpt lat="45.94563" lon="4.83835">
        <ele>266</ele>
        <time>2018-04-05T10:39:24Z</time>
      </trkpt>
      <trkpt lat="45.94562" lon="4.83824">
        <ele>264</ele>
        <time>2018-04-05T10:39:25Z</time>
      </trkpt>
      <trkpt lat="45.94559" lon="4.83813">
        <ele>264</ele>
        <time>2018-04-05T10:39:26Z</time>
      </trkpt>
      <trkpt lat="45.94557" lon="4.83803">
        <ele>264</ele>
        <time>2018-04-05T10:39:27Z</time>
      </trkpt>
      <trkpt lat="45.94556" lon="4.83793">
        <ele>264</ele>
        <time>2018-04-05T10:39:28Z</time>
      </trkpt>
      <trkpt lat="45.94555" lon="4.83783">
        <ele>264</ele>
        <time>2018-04-05T10:39:29Z</time>
      </trkpt>
      <trkpt lat="45.94554" lon="4.83773">
        <ele>264</ele>
        <time>2018-04-05T10:39:30Z</time>
      </trkpt>
      <trkpt lat="45.94552" lon="4.83763">
        <ele>263</ele>
        <time>2018-04-05T10:39:31Z</time>
      </trkpt>
      <trkpt lat="45.9455" lon="4.83754">
        <ele>263</ele>
        <time>2018-04-05T10:39:32Z</time>
      </trkpt>
      <trkpt lat="45.94549" lon="4.83744">
        <ele>262</ele>
        <time>2018-04-05T10:39:33Z</time>
      </trkpt>
      <trkpt lat="45.94548" lon="4.83735">
        <ele>262</ele>
        <time>2018-04-05T10:39:34Z</time>
      </trkpt>
      <trkpt lat="45.94547" lon="4.83725">
        <ele>262</ele>
        <time>2018-04-05T10:39:35Z</time>
      </trkpt>
      <trkpt lat="45.94544" lon="4.83717">
        <ele>262</ele>
        <time>2018-04-05T10:39:36Z</time>
      </trkpt>
      <trkpt lat="45.94542" lon="4.83707">
        <ele>262</ele>
        <time>2018-04-05T10:39:37Z</time>
      </trkpt>
      <trkpt lat="45.9454" lon="4.83698">
        <ele>262</ele>
        <time>2018-04-05T10:39:38Z</time>
      </trkpt>
      <trkpt lat="45.94539" lon="4.83689">
        <ele>262</ele>
        <time>2018-04-05T10:39:39Z</time>
      </trkpt>
      <trkpt lat="45.94538" lon="4.8368">
        <ele>262</ele>
        <time>2018-04-05T10:39:40Z</time>
      </trkpt>
      <trkpt lat="45.94537" lon="4.83671">
        <ele>262</ele>
        <time>2018-04-05T10:39:41Z</time>
      </trkpt>
      <trkpt lat="45.94535" lon="4.83661">
        <ele>261</ele>
        <time>2018-04-05T10:39:42Z</time>
      </trkpt>
      <trkpt lat="45.94534" lon="4.83652">
        <ele>261</ele>
        <time>2018-04-05T10:39:43Z</time>
      </trkpt>
      <trkpt lat="45.94532" lon="4.83643">
        <ele>261</ele>
        <time>2018-04-05T10:39:44Z</time>
      </trkpt>
      <trkpt lat="45.94531" lon="4.83634">
        <ele>261</ele>
        <time>2018-04-05T10:39:45Z</time>
      </trkpt>
      <trkpt lat="45.94529" lon="4.83625">
        <ele>261</ele>
        <time>2018-04-05T10:39:46Z</time>
      </trkpt>
      <trkpt lat="45.94528" lon="4.83617">
        <ele>261</ele>
        <time>2018-04-05T10:39:47Z</time>
      </trkpt>
      <trkpt lat="45.94527" lon="4.83608">
        <ele>261</ele>
        <time>2018-04-05T10:39:48Z</time>
      </trkpt>
      <trkpt lat="45.94525" lon="4.836">
        <ele>261</ele>
        <time>2018-04-05T10:39:49Z</time>
      </trkpt>
      <trkpt lat="45.94522" lon="4.83591">
        <ele>261</ele>
        <time>2018-04-05T10:39:50Z</time>
      </trkpt>
      <trkpt lat="45.94521" lon="4.83583">
        <ele>261</ele>
        <time>2018-04-05T10:39:51Z</time>
      </trkpt>
      <trkpt lat="45.9452" lon="4.83575">
        <ele>261</ele>
        <time>2018-04-05T10:39:52Z</time>
      </trkpt>
      <trkpt lat="45.94517" lon="4.83568">
        <ele>261</ele>
        <time>2018-04-05T10:39:53Z</time>
      </trkpt>
      <trkpt lat="45.94515" lon="4.8356">
        <ele>261</ele>
        <time>2018-04-05T10:39:54Z</time>
      </trkpt>
      <trkpt lat="45.94511" lon="4.83552">
        <ele>261</ele>
        <time>2018-04-05T10:39:55Z</time>
      </trkpt>
      <trkpt lat="45.94508" lon="4.83546">
        <ele>261</ele>
        <time>2018-04-05T10:39:56Z</time>
      </trkpt>
      <trkpt lat="45.94505" lon="4.8354">
        <ele>262</ele>
        <time>2018-04-05T10:39:57Z</time>
      </trkpt>
      <trkpt lat="45.94502" lon="4.83535">
        <ele>262</ele>
        <time>2018-04-05T10:39:58Z</time>
      </trkpt>
      <trkpt lat="45.94498" lon="4.83529">
        <ele>262</ele>
        <time>2018-04-05T10:39:59Z</time>
      </trkpt>
      <trkpt lat="45.94495" lon="4.83522">
        <ele>262</ele>
        <time>2018-04-05T10:40:00Z</time>
      </trkpt>
      <trkpt lat="45.94491" lon="4.83516">
        <ele>262</ele>
        <time>2018-04-05T10:40:01Z</time>
      </trkpt>
      <trkpt lat="45.94488" lon="4.83511">
        <ele>262</ele>
        <time>2018-04-05T10:40:02Z</time>
      </trkpt>
      <trkpt lat="45.94485" lon="4.83505">
        <ele>262</ele>
        <time>2018-04-05T10:40:03Z</time>
      </trkpt>
      <trkpt lat="45.94481" lon="4.835">
        <ele>263</ele>
        <time>2018-04-05T10:40:04Z</time>
      </trkpt>
      <trkpt lat="45.94478" lon="4.83493">
        <ele>263</ele>
        <time>2018-04-05T10:40:05Z</time>
      </trkpt>
      <trkpt lat="45.94475" lon="4.83489">
        <ele>263</ele>
        <time>2018-04-05T10:40:06Z</time>
      </trkpt>
      <trkpt lat="45.94472" lon="4.83483">
        <ele>263</ele>
        <time>2018-04-05T10:40:07Z</time>
      </trkpt>
      <trkpt lat="45.94469" lon="4.83477">
        <ele>263</ele>
        <time>2018-04-05T10:40:08Z</time>
      </trkpt>
      <trkpt lat="45.94466" lon="4.83471">
        <ele>263</ele>
        <time>2018-04-05T10:40:09Z</time>
      </trkpt>
      <trkpt lat="45.94463" lon="4.83466">
        <ele>263</ele>
        <time>2018-04-05T10:40:10Z</time>
      </trkpt>
      <trkpt lat="45.9446" lon="4.83459">
        <ele>263</ele>
        <time>2018-04-05T10:40:11Z</time>
      </trkpt>
      <trkpt lat="45.94456" lon="4.83453">
        <ele>263</ele>
        <time>2018-04-05T10:40:12Z</time>
      </trkpt>
      <trkpt lat="45.94453" lon="4.83447">
        <ele>263</ele>
        <time>2018-04-05T10:40:13Z</time>
      </trkpt>
      <trkpt lat="45.9445" lon="4.83441">
        <ele>263</ele>
        <time>2018-04-05T10:40:14Z</time>
      </trkpt>
      <trkpt lat="45.94447" lon="4.83436">
        <ele>263</ele>
        <time>2018-04-05T10:40:15Z</time>
      </trkpt>
      <trkpt lat="45.94444" lon="4.83431">
        <ele>263</ele>
        <time>2018-04-05T10:40:16Z</time>
      </trkpt>
      <trkpt lat="45.9444" lon="4.83425">
        <ele>264</ele>
        <time>2018-04-05T10:40:17Z</time>
      </trkpt>
      <trkpt lat="45.94437" lon="4.8342">
        <ele>264</ele>
        <time>2018-04-05T10:40:18Z</time>
      </trkpt>
      <trkpt lat="45.94434" lon="4.83414">
        <ele>264</ele>
        <time>2018-04-05T10:40:19Z</time>
      </trkpt>
      <trkpt lat="45.94432" lon="4.83409">
        <ele>264</ele>
        <time>2018-04-05T10:40:20Z</time>
      </trkpt>
      <trkpt lat="45.94428" lon="4.83403">
        <ele>264</ele>
        <time>2018-04-05T10:40:21Z</time>
      </trkpt>
      <trkpt lat="45.94425" lon="4.83397">
        <ele>264</ele>
        <time>2018-04-05T10:40:22Z</time>
      </trkpt>
      <trkpt lat="45.94423" lon="4.83391">
        <ele>264</ele>
        <time>2018-04-05T10:40:23Z</time>
      </trkpt>
      <trkpt lat="45.9442" lon="4.83385">
        <ele>264</ele>
        <time>2018-04-05T10:40:24Z</time>
      </trkpt>
      <trkpt lat="45.94417" lon="4.83379">
        <ele>264</ele>
        <time>2018-04-05T10:40:25Z</time>
      </trkpt>
      <trkpt lat="45.94414" lon="4.83372">
        <ele>264</ele>
        <time>2018-04-05T10:40:26Z</time>
      </trkpt>
      <trkpt lat="45.94411" lon="4.83366">
        <ele>264</ele>
        <time>2018-04-05T10:40:27Z</time>
      </trkpt>
      <trkpt lat="45.94409" lon="4.8336">
        <ele>264</ele>
        <time>2018-04-05T10:40:28Z</time>
      </trkpt>
      <trkpt lat="45.94407" lon="4.83355">
        <ele>263</ele>
        <time>2018-04-05T10:40:29Z</time>
      </trkpt>
      <trkpt lat="45.94404" lon="4.83349">
        <ele>263</ele>
        <time>2018-04-05T10:40:30Z</time>
      </trkpt>
      <trkpt lat="45.94399" lon="4.83338">
        <ele>263</ele>
        <time>2018-04-05T10:40:32Z</time>
      </trkpt>
      <trkpt lat="45.94397" lon="4.83332">
        <ele>264</ele>
        <time>2018-04-05T10:40:33Z</time>
      </trkpt>
      <trkpt lat="45.94395" lon="4.83326">
        <ele>264</ele>
        <time>2018-04-05T10:40:34Z</time>
      </trkpt>
      <trkpt lat="45.94392" lon="4.83321">
        <ele>264</ele>
        <time>2018-04-05T10:40:35Z</time>
      </trkpt>
      <trkpt lat="45.9439" lon="4.83316">
        <ele>264</ele>
        <time>2018-04-05T10:40:36Z</time>
      </trkpt>
      <trkpt lat="45.94388" lon="4.83309">
        <ele>264</ele>
        <time>2018-04-05T10:40:37Z</time>
      </trkpt>
      <trkpt lat="45.94385" lon="4.83303">
        <ele>264</ele>
        <time>2018-04-05T10:40:38Z</time>
      </trkpt>
      <trkpt lat="45.94383" lon="4.83297">
        <ele>264</ele>
        <time>2018-04-05T10:40:39Z</time>
      </trkpt>
      <trkpt lat="45.94381" lon="4.8329">
        <ele>264</ele>
        <time>2018-04-05T10:40:40Z</time>
      </trkpt>
      <trkpt lat="45.94379" lon="4.83284">
        <ele>264</ele>
        <time>2018-04-05T10:40:41Z</time>
      </trkpt>
      <trkpt lat="45.94377" lon="4.83278">
        <ele>264</ele>
        <time>2018-04-05T10:40:42Z</time>
      </trkpt>
      <trkpt lat="45.94375" lon="4.83272">
        <ele>264</ele>
        <time>2018-04-05T10:40:43Z</time>
      </trkpt>
      <trkpt lat="45.94373" lon="4.83266">
        <ele>264</ele>
        <time>2018-04-05T10:40:44Z</time>
      </trkpt>
      <trkpt lat="45.94371" lon="4.8326">
        <ele>265</ele>
        <time>2018-04-05T10:40:45Z</time>
      </trkpt>
      <trkpt lat="45.94369" lon="4.83254">
        <ele>265</ele>
        <time>2018-04-05T10:40:46Z</time>
      </trkpt>
      <trkpt lat="45.94367" lon="4.83248">
        <ele>265</ele>
        <time>2018-04-05T10:40:47Z</time>
      </trkpt>
      <trkpt lat="45.94364" lon="4.83241">
        <ele>265</ele>
        <time>2018-04-05T10:40:48Z</time>
      </trkpt>
      <trkpt lat="45.94363" lon="4.83235">
        <ele>265</ele>
        <time>2018-04-05T10:40:49Z</time>
      </trkpt>
      <trkpt lat="45.9436" lon="4.83229">
        <ele>266</ele>
        <time>2018-04-05T10:40:50Z</time>
      </trkpt>
      <trkpt lat="45.94358" lon="4.83224">
        <ele>266</ele>
        <time>2018-04-05T10:40:51Z</time>
      </trkpt>
      <trkpt lat="45.94356" lon="4.83218">
        <ele>266</ele>
        <time>2018-04-05T10:40:52Z</time>
      </trkpt>
      <trkpt lat="45.94354" lon="4.83212">
        <ele>266</ele>
        <time>2018-04-05T10:40:53Z</time>
      </trkpt>
      <trkpt lat="45.94352" lon="4.83205">
        <ele>266</ele>
        <time>2018-04-05T10:40:54Z</time>
      </trkpt>
      <trkpt lat="45.9435" lon="4.83199">
        <ele>266</ele>
        <time>2018-04-05T10:40:55Z</time>
      </trkpt>
      <trkpt lat="45.94346" lon="4.83188">
        <ele>266</ele>
        <time>2018-04-05T10:40:57Z</time>
      </trkpt>
      <trkpt lat="45.94344" lon="4.83183">
        <ele>266</ele>
        <time>2018-04-05T10:40:58Z</time>
      </trkpt>
      <trkpt lat="45.94341" lon="4.83173">
        <ele>266</ele>
        <time>2018-04-05T10:41:00Z</time>
      </trkpt>
      <trkpt lat="45.9434" lon="4.83167">
        <ele>266</ele>
        <time>2018-04-05T10:41:01Z</time>
      </trkpt>
      <trkpt lat="45.94338" lon="4.83162">
        <ele>266</ele>
        <time>2018-04-05T10:41:02Z</time>
      </trkpt>
      <trkpt lat="45.94336" lon="4.83155">
        <ele>266</ele>
        <time>2018-04-05T10:41:03Z</time>
      </trkpt>
      <trkpt lat="45.94334" lon="4.83149">
        <ele>266</ele>
        <time>2018-04-05T10:41:04Z</time>
      </trkpt>
      <trkpt lat="45.94332" lon="4.83142">
        <ele>266</ele>
        <time>2018-04-05T10:41:05Z</time>
      </trkpt>
      <trkpt lat="45.94329" lon="4.83135">
        <ele>266</ele>
        <time>2018-04-05T10:41:06Z</time>
      </trkpt>
      <trkpt lat="45.94327" lon="4.83128">
        <ele>266</ele>
        <time>2018-04-05T10:41:07Z</time>
      </trkpt>
      <trkpt lat="45.94323" lon="4.83117">
        <ele>266</ele>
        <time>2018-04-05T10:41:09Z</time>
      </trkpt>
      <trkpt lat="45.94321" lon="4.83111">
        <ele>266</ele>
        <time>2018-04-05T10:41:10Z</time>
      </trkpt>
      <trkpt lat="45.94319" lon="4.83105">
        <ele>266</ele>
        <time>2018-04-05T10:41:11Z</time>
      </trkpt>
      <trkpt lat="45.94317" lon="4.83099">
        <ele>266</ele>
        <time>2018-04-05T10:41:12Z</time>
      </trkpt>
      <trkpt lat="45.94313" lon="4.83088">
        <ele>266</ele>
        <time>2018-04-05T10:41:14Z</time>
      </trkpt>
      <trkpt lat="45.94311" lon="4.83083">
        <ele>266</ele>
        <time>2018-04-05T10:41:15Z</time>
      </trkpt>
      <trkpt lat="45.94309" lon="4.83076">
        <ele>266</ele>
        <time>2018-04-05T10:41:16Z</time>
      </trkpt>
      <trkpt lat="45.94307" lon="4.8307">
        <ele>266</ele>
        <time>2018-04-05T10:41:17Z</time>
      </trkpt>
      <trkpt lat="45.94304" lon="4.83059">
        <ele>266</ele>
        <time>2018-04-05T10:41:19Z</time>
      </trkpt>
      <trkpt lat="45.94303" lon="4.83052">
        <ele>266</ele>
        <time>2018-04-05T10:41:20Z</time>
      </trkpt>
      <trkpt lat="45.943" lon="4.83041">
        <ele>266</ele>
        <time>2018-04-05T10:41:22Z</time>
      </trkpt>
      <trkpt lat="45.94298" lon="4.83035">
        <ele>266</ele>
        <time>2018-04-05T10:41:23Z</time>
      </trkpt>
      <trkpt lat="45.94296" lon="4.83024">
        <ele>266</ele>
        <time>2018-04-05T10:41:25Z</time>
      </trkpt>
      <trkpt lat="45.94295" lon="4.83018">
        <ele>266</ele>
        <time>2018-04-05T10:41:26Z</time>
      </trkpt>
      <trkpt lat="45.94293" lon="4.83005">
        <ele>266</ele>
        <time>2018-04-05T10:41:28Z</time>
      </trkpt>
      <trkpt lat="45.94292" lon="4.82999">
        <ele>265</ele>
        <time>2018-04-05T10:41:29Z</time>
      </trkpt>
      <trkpt lat="45.9429" lon="4.82988">
        <ele>265</ele>
        <time>2018-04-05T10:41:31Z</time>
      </trkpt>
      <trkpt lat="45.94288" lon="4.82983">
        <ele>265</ele>
        <time>2018-04-05T10:41:32Z</time>
      </trkpt>
      <trkpt lat="45.94284" lon="4.82973">
        <ele>265</ele>
        <time>2018-04-05T10:41:34Z</time>
      </trkpt>
      <trkpt lat="45.94282" lon="4.82969">
        <ele>265</ele>
        <time>2018-04-05T10:41:35Z</time>
      </trkpt>
      <trkpt lat="45.9428" lon="4.8296">
        <ele>265</ele>
        <time>2018-04-05T10:41:37Z</time>
      </trkpt>
      <trkpt lat="45.94279" lon="4.82955">
        <ele>265</ele>
        <time>2018-04-05T10:41:38Z</time>
      </trkpt>
      <trkpt lat="45.94278" lon="4.82944">
        <ele>265</ele>
        <time>2018-04-05T10:41:40Z</time>
      </trkpt>
      <trkpt lat="45.94279" lon="4.82938">
        <ele>265</ele>
        <time>2018-04-05T10:41:41Z</time>
      </trkpt>
      <trkpt lat="45.94282" lon="4.82926">
        <ele>265</ele>
        <time>2018-04-05T10:41:43Z</time>
      </trkpt>
      <trkpt lat="45.94283" lon="4.8292">
        <ele>265</ele>
        <time>2018-04-05T10:41:44Z</time>
      </trkpt>
      <trkpt lat="45.94285" lon="4.82914">
        <ele>265</ele>
        <time>2018-04-05T10:41:45Z</time>
      </trkpt>
      <trkpt lat="45.94286" lon="4.82907">
        <ele>265</ele>
        <time>2018-04-05T10:41:46Z</time>
      </trkpt>
      <trkpt lat="45.94288" lon="4.829">
        <ele>265</ele>
        <time>2018-04-05T10:41:47Z</time>
      </trkpt>
      <trkpt lat="45.94289" lon="4.82893">
        <ele>265</ele>
        <time>2018-04-05T10:41:48Z</time>
      </trkpt>
      <trkpt lat="45.94289" lon="4.82887">
        <ele>265</ele>
        <time>2018-04-05T10:41:49Z</time>
      </trkpt>
      <trkpt lat="45.9429" lon="4.8288">
        <ele>265</ele>
        <time>2018-04-05T10:41:50Z</time>
      </trkpt>
      <trkpt lat="45.94289" lon="4.82867">
        <ele>265</ele>
        <time>2018-04-05T10:41:52Z</time>
      </trkpt>
      <trkpt lat="45.94289" lon="4.82861">
        <ele>265</ele>
        <time>2018-04-05T10:41:53Z</time>
      </trkpt>
      <trkpt lat="45.9429" lon="4.82855">
        <ele>265</ele>
        <time>2018-04-05T10:41:54Z</time>
      </trkpt>
      <trkpt lat="45.9429" lon="4.82848">
        <ele>265</ele>
        <time>2018-04-05T10:41:55Z</time>
      </trkpt>
      <trkpt lat="45.9429" lon="4.82841">
        <ele>265</ele>
        <time>2018-04-05T10:41:56Z</time>
      </trkpt>
      <trkpt lat="45.94291" lon="4.82834">
        <ele>265</ele>
        <time>2018-04-05T10:41:57Z</time>
      </trkpt>
      <trkpt lat="45.94291" lon="4.82827">
        <ele>265</ele>
        <time>2018-04-05T10:41:58Z</time>
      </trkpt>
      <trkpt lat="45.94291" lon="4.82819">
        <ele>265</ele>
        <time>2018-04-05T10:41:59Z</time>
      </trkpt>
      <trkpt lat="45.94291" lon="4.82812">
        <ele>265</ele>
        <time>2018-04-05T10:42:00Z</time>
      </trkpt>
      <trkpt lat="45.94291" lon="4.82804">
        <ele>265</ele>
        <time>2018-04-05T10:42:01Z</time>
      </trkpt>
      <trkpt lat="45.94291" lon="4.82797">
        <ele>265</ele>
        <time>2018-04-05T10:42:02Z</time>
      </trkpt>
      <trkpt lat="45.94292" lon="4.82789">
        <ele>265</ele>
        <time>2018-04-05T10:42:03Z</time>
      </trkpt>
      <trkpt lat="45.94292" lon="4.82782">
        <ele>265</ele>
        <time>2018-04-05T10:42:04Z</time>
      </trkpt>
      <trkpt lat="45.94292" lon="4.82775">
        <ele>265</ele>
        <time>2018-04-05T10:42:05Z</time>
      </trkpt>
      <trkpt lat="45.94293" lon="4.82768">
        <ele>265</ele>
        <time>2018-04-05T10:42:06Z</time>
      </trkpt>
      <trkpt lat="45.94292" lon="4.82761">
        <ele>265</ele>
        <time>2018-04-05T10:42:07Z</time>
      </trkpt>
      <trkpt lat="45.94292" lon="4.82754">
        <ele>265</ele>
        <time>2018-04-05T10:42:08Z</time>
      </trkpt>
      <trkpt lat="45.94293" lon="4.82747">
        <ele>265</ele>
        <time>2018-04-05T10:42:09Z</time>
      </trkpt>
      <trkpt lat="45.94293" lon="4.8274">
        <ele>265</ele>
        <time>2018-04-05T10:42:10Z</time>
      </trkpt>
      <trkpt lat="45.94293" lon="4.82732">
        <ele>265</ele>
        <time>2018-04-05T10:42:11Z</time>
      </trkpt>
      <trkpt lat="45.94293" lon="4.82725">
        <ele>265</ele>
        <time>2018-04-05T10:42:12Z</time>
      </trkpt>
      <trkpt lat="45.94293" lon="4.82717">
        <ele>265</ele>
        <time>2018-04-05T10:42:13Z</time>
      </trkpt>
      <trkpt lat="45.94293" lon="4.8271">
        <ele>265</ele>
        <time>2018-04-05T10:42:14Z</time>
      </trkpt>
      <trkpt lat="45.94294" lon="4.82702">
        <ele>265</ele>
        <time>2018-04-05T10:42:15Z</time>
      </trkpt>
      <trkpt lat="45.94294" lon="4.82696">
        <ele>265</ele>
        <time>2018-04-05T10:42:16Z</time>
      </trkpt>
      <trkpt lat="45.94294" lon="4.82688">
        <ele>265</ele>
        <time>2018-04-05T10:42:17Z</time>
      </trkpt>
      <trkpt lat="45.94294" lon="4.82681">
        <ele>265</ele>
        <time>2018-04-05T10:42:18Z</time>
      </trkpt>
      <trkpt lat="45.94295" lon="4.82674">
        <ele>265</ele>
        <time>2018-04-05T10:42:19Z</time>
      </trkpt>
      <trkpt lat="45.94295" lon="4.82667">
        <ele>265</ele>
        <time>2018-04-05T10:42:20Z</time>
      </trkpt>
      <trkpt lat="45.94295" lon="4.82659">
        <ele>265</ele>
        <time>2018-04-05T10:42:21Z</time>
      </trkpt>
      <trkpt lat="45.94295" lon="4.82652">
        <ele>265</ele>
        <time>2018-04-05T10:42:22Z</time>
      </trkpt>
      <trkpt lat="45.94295" lon="4.82644">
        <ele>265</ele>
        <time>2018-04-05T10:42:23Z</time>
      </trkpt>
      <trkpt lat="45.94295" lon="4.82637">
        <ele>265</ele>
        <time>2018-04-05T10:42:24Z</time>
      </trkpt>
      <trkpt lat="45.94295" lon="4.8263">
        <ele>265</ele>
        <time>2018-04-05T10:42:25Z</time>
      </trkpt>
      <trkpt lat="45.94295" lon="4.82623">
        <ele>265</ele>
        <time>2018-04-05T10:42:26Z</time>
      </trkpt>
      <trkpt lat="45.94295" lon="4.82616">
        <ele>265</ele>
        <time>2018-04-05T10:42:27Z</time>
      </trkpt>
      <trkpt lat="45.94296" lon="4.8261">
        <ele>265</ele>
        <time>2018-04-05T10:42:28Z</time>
      </trkpt>
      <trkpt lat="45.94295" lon="4.82603">
        <ele>265</ele>
        <time>2018-04-05T10:42:29Z</time>
      </trkpt>
      <trkpt lat="45.94296" lon="4.8259">
        <ele>265</ele>
        <time>2018-04-05T10:42:31Z</time>
      </trkpt>
      <trkpt lat="45.94296" lon="4.82583">
        <ele>264</ele>
        <time>2018-04-05T10:42:32Z</time>
      </trkpt>
      <trkpt lat="45.94296" lon="4.82577">
        <ele>264</ele>
        <time>2018-04-05T10:42:33Z</time>
      </trkpt>
      <trkpt lat="45.94296" lon="4.8257">
        <ele>264</ele>
        <time>2018-04-05T10:42:34Z</time>
      </trkpt>
      <trkpt lat="45.94296" lon="4.82563">
        <ele>264</ele>
        <time>2018-04-05T10:42:35Z</time>
      </trkpt>
      <trkpt lat="45.94296" lon="4.82556">
        <ele>264</ele>
        <time>2018-04-05T10:42:36Z</time>
      </trkpt>
      <trkpt lat="45.94296" lon="4.82549">
        <ele>264</ele>
        <time>2018-04-05T10:42:37Z</time>
      </trkpt>
      <trkpt lat="45.94296" lon="4.82542">
        <ele>264</ele>
        <time>2018-04-05T10:42:38Z</time>
      </trkpt>
      <trkpt lat="45.94296" lon="4.82534">
        <ele>264</ele>
        <time>2018-04-05T10:42:39Z</time>
      </trkpt>
      <trkpt lat="45.94296" lon="4.82527">
        <ele>264</ele>
        <time>2018-04-05T10:42:40Z</time>
      </trkpt>
      <trkpt lat="45.94296" lon="4.8252">
        <ele>264</ele>
        <time>2018-04-05T10:42:41Z</time>
      </trkpt>
      <trkpt lat="45.94296" lon="4.82512">
        <ele>264</ele>
        <time>2018-04-05T10:42:42Z</time>
      </trkpt>
      <trkpt lat="45.94296" lon="4.82504">
        <ele>264</ele>
        <time>2018-04-05T10:42:43Z</time>
      </trkpt>
      <trkpt lat="45.94296" lon="4.82497">
        <ele>264</ele>
        <time>2018-04-05T10:42:44Z</time>
      </trkpt>
      <trkpt lat="45.94296" lon="4.82489">
        <ele>264</ele>
        <time>2018-04-05T10:42:45Z</time>
      </trkpt>
      <trkpt lat="45.94295" lon="4.82481">
        <ele>264</ele>
        <time>2018-04-05T10:42:46Z</time>
      </trkpt>
      <trkpt lat="45.94295" lon="4.82473">
        <ele>264</ele>
        <time>2018-04-05T10:42:47Z</time>
      </trkpt>
      <trkpt lat="45.94295" lon="4.82465">
        <ele>264</ele>
        <time>2018-04-05T10:42:48Z</time>
      </trkpt>
      <trkpt lat="45.94295" lon="4.82457">
        <ele>264</ele>
        <time>2018-04-05T10:42:49Z</time>
      </trkpt>
      <trkpt lat="45.94294" lon="4.82448">
        <ele>264</ele>
        <time>2018-04-05T10:42:50Z</time>
      </trkpt>
      <trkpt lat="45.94294" lon="4.8244">
        <ele>264</ele>
        <time>2018-04-05T10:42:51Z</time>
      </trkpt>
      <trkpt lat="45.94294" lon="4.82433">
        <ele>264</ele>
        <time>2018-04-05T10:42:52Z</time>
      </trkpt>
      <trkpt lat="45.94293" lon="4.82425">
        <ele>264</ele>
        <time>2018-04-05T10:42:53Z</time>
      </trkpt>
      <trkpt lat="45.94293" lon="4.82417">
        <ele>264</ele>
        <time>2018-04-05T10:42:54Z</time>
      </trkpt>
      <trkpt lat="45.94292" lon="4.82409">
        <ele>264</ele>
        <time>2018-04-05T10:42:55Z</time>
      </trkpt>
      <trkpt lat="45.94292" lon="4.82401">
        <ele>264</ele>
        <time>2018-04-05T10:42:56Z</time>
      </trkpt>
      <trkpt lat="45.94292" lon="4.82393">
        <ele>264</ele>
        <time>2018-04-05T10:42:57Z</time>
      </trkpt>
      <trkpt lat="45.94291" lon="4.82385">
        <ele>264</ele>
        <time>2018-04-05T10:42:58Z</time>
      </trkpt>
      <trkpt lat="45.94289" lon="4.82375">
        <ele>264</ele>
        <time>2018-04-05T10:42:59Z</time>
      </trkpt>
      <trkpt lat="45.94289" lon="4.82367">
        <ele>264</ele>
        <time>2018-04-05T10:43:00Z</time>
      </trkpt>
      <trkpt lat="45.94288" lon="4.82359">
        <ele>264</ele>
        <time>2018-04-05T10:43:01Z</time>
      </trkpt>
      <trkpt lat="45.94288" lon="4.82351">
        <ele>264</ele>
        <time>2018-04-05T10:43:02Z</time>
      </trkpt>
      <trkpt lat="45.94287" lon="4.82343">
        <ele>264</ele>
        <time>2018-04-05T10:43:03Z</time>
      </trkpt>
      <trkpt lat="45.94285" lon="4.82335">
        <ele>264</ele>
        <time>2018-04-05T10:43:04Z</time>
      </trkpt>
      <trkpt lat="45.94285" lon="4.82327">
        <ele>265</ele>
        <time>2018-04-05T10:43:05Z</time>
      </trkpt>
      <trkpt lat="45.94284" lon="4.82319">
        <ele>265</ele>
        <time>2018-04-05T10:43:06Z</time>
      </trkpt>
      <trkpt lat="45.94284" lon="4.82311">
        <ele>265</ele>
        <time>2018-04-05T10:43:07Z</time>
      </trkpt>
      <trkpt lat="45.94284" lon="4.82304">
        <ele>265</ele>
        <time>2018-04-05T10:43:08Z</time>
      </trkpt>
      <trkpt lat="45.94283" lon="4.82296">
        <ele>265</ele>
        <time>2018-04-05T10:43:09Z</time>
      </trkpt>
      <trkpt lat="45.94283" lon="4.82288">
        <ele>265</ele>
        <time>2018-04-05T10:43:10Z</time>
      </trkpt>
      <trkpt lat="45.94283" lon="4.82281">
        <ele>265</ele>
        <time>2018-04-05T10:43:11Z</time>
      </trkpt>
      <trkpt lat="45.94282" lon="4.82274">
        <ele>265</ele>
        <time>2018-04-05T10:43:12Z</time>
      </trkpt>
      <trkpt lat="45.94281" lon="4.82266">
        <ele>265</ele>
        <time>2018-04-05T10:43:13Z</time>
      </trkpt>
      <trkpt lat="45.94281" lon="4.82258">
        <ele>265</ele>
        <time>2018-04-05T10:43:14Z</time>
      </trkpt>
      <trkpt lat="45.9428" lon="4.8225">
        <ele>264</ele>
        <time>2018-04-05T10:43:15Z</time>
      </trkpt>
      <trkpt lat="45.9428" lon="4.82243">
        <ele>264</ele>
        <time>2018-04-05T10:43:16Z</time>
      </trkpt>
      <trkpt lat="45.94279" lon="4.82234">
        <ele>264</ele>
        <time>2018-04-05T10:43:17Z</time>
      </trkpt>
      <trkpt lat="45.9428" lon="4.82226">
        <ele>264</ele>
        <time>2018-04-05T10:43:18Z</time>
      </trkpt>
      <trkpt lat="45.9428" lon="4.82218">
        <ele>264</ele>
        <time>2018-04-05T10:43:19Z</time>
      </trkpt>
      <trkpt lat="45.9428" lon="4.8221">
        <ele>264</ele>
        <time>2018-04-05T10:43:20Z</time>
      </trkpt>
      <trkpt lat="45.9428" lon="4.82202">
        <ele>264</ele>
        <time>2018-04-05T10:43:21Z</time>
      </trkpt>
      <trkpt lat="45.94279" lon="4.82195">
        <ele>264</ele>
        <time>2018-04-05T10:43:22Z</time>
      </trkpt>
      <trkpt lat="45.94278" lon="4.82188">
        <ele>264</ele>
        <time>2018-04-05T10:43:23Z</time>
      </trkpt>
      <trkpt lat="45.94276" lon="4.82182">
        <ele>264</ele>
        <time>2018-04-05T10:43:24Z</time>
      </trkpt>
      <trkpt lat="45.94275" lon="4.82176">
        <ele>264</ele>
        <time>2018-04-05T10:43:25Z</time>
      </trkpt>
      <trkpt lat="45.94274" lon="4.82169">
        <ele>264</ele>
        <time>2018-04-05T10:43:26Z</time>
      </trkpt>
      <trkpt lat="45.94273" lon="4.8216">
        <ele>263</ele>
        <time>2018-04-05T10:43:27Z</time>
      </trkpt>
      <trkpt lat="45.94272" lon="4.82152">
        <ele>263</ele>
        <time>2018-04-05T10:43:28Z</time>
      </trkpt>
      <trkpt lat="45.9427" lon="4.82144">
        <ele>263</ele>
        <time>2018-04-05T10:43:29Z</time>
      </trkpt>
      <trkpt lat="45.94268" lon="4.82137">
        <ele>263</ele>
        <time>2018-04-05T10:43:30Z</time>
      </trkpt>
      <trkpt lat="45.94267" lon="4.8213">
        <ele>263</ele>
        <time>2018-04-05T10:43:31Z</time>
      </trkpt>
      <trkpt lat="45.94265" lon="4.82123">
        <ele>263</ele>
        <time>2018-04-05T10:43:32Z</time>
      </trkpt>
      <trkpt lat="45.94264" lon="4.82115">
        <ele>263</ele>
        <time>2018-04-05T10:43:33Z</time>
      </trkpt>
      <trkpt lat="45.94262" lon="4.8211">
        <ele>263</ele>
        <time>2018-04-05T10:43:34Z</time>
      </trkpt>
      <trkpt lat="45.9426" lon="4.82103">
        <ele>262</ele>
        <time>2018-04-05T10:43:35Z</time>
      </trkpt>
      <trkpt lat="45.94258" lon="4.82095">
        <ele>262</ele>
        <time>2018-04-05T10:43:36Z</time>
      </trkpt>
      <trkpt lat="45.94256" lon="4.82088">
        <ele>262</ele>
        <time>2018-04-05T10:43:37Z</time>
      </trkpt>
      <trkpt lat="45.94256" lon="4.82081">
        <ele>262</ele>
        <time>2018-04-05T10:43:38Z</time>
      </trkpt>
      <trkpt lat="45.94254" lon="4.82073">
        <ele>262</ele>
        <time>2018-04-05T10:43:39Z</time>
      </trkpt>
      <trkpt lat="45.94254" lon="4.82066">
        <ele>262</ele>
        <time>2018-04-05T10:43:40Z</time>
      </trkpt>
      <trkpt lat="45.94252" lon="4.8206">
        <ele>262</ele>
        <time>2018-04-05T10:43:41Z</time>
      </trkpt>
      <trkpt lat="45.94251" lon="4.82053">
        <ele>262</ele>
        <time>2018-04-05T10:43:42Z</time>
      </trkpt>
      <trkpt lat="45.9425" lon="4.82046">
        <ele>262</ele>
        <time>2018-04-05T10:43:43Z</time>
      </trkpt>
      <trkpt lat="45.94249" lon="4.82038">
        <ele>263</ele>
        <time>2018-04-05T10:43:44Z</time>
      </trkpt>
      <trkpt lat="45.94248" lon="4.82031">
        <ele>263</ele>
        <time>2018-04-05T10:43:45Z</time>
      </trkpt>
      <trkpt lat="45.94247" lon="4.82023">
        <ele>263</ele>
        <time>2018-04-05T10:43:46Z</time>
      </trkpt>
      <trkpt lat="45.94246" lon="4.82016">
        <ele>263</ele>
        <time>2018-04-05T10:43:47Z</time>
      </trkpt>
      <trkpt lat="45.94245" lon="4.82009">
        <ele>263</ele>
        <time>2018-04-05T10:43:48Z</time>
      </trkpt>
      <trkpt lat="45.94244" lon="4.82001">
        <ele>262</ele>
        <time>2018-04-05T10:43:49Z</time>
      </trkpt>
      <trkpt lat="45.94243" lon="4.81994">
        <ele>263</ele>
        <time>2018-04-05T10:43:50Z</time>
      </trkpt>
      <trkpt lat="45.94242" lon="4.81986">
        <ele>263</ele>
        <time>2018-04-05T10:43:51Z</time>
      </trkpt>
      <trkpt lat="45.9424" lon="4.8198">
        <ele>263</ele>
        <time>2018-04-05T10:43:52Z</time>
      </trkpt>
      <trkpt lat="45.94239" lon="4.81973">
        <ele>263</ele>
        <time>2018-04-05T10:43:53Z</time>
      </trkpt>
      <trkpt lat="45.94238" lon="4.81967">
        <ele>264</ele>
        <time>2018-04-05T10:43:54Z</time>
      </trkpt>
      <trkpt lat="45.94236" lon="4.81961">
        <ele>264</ele>
        <time>2018-04-05T10:43:55Z</time>
      </trkpt>
      <trkpt lat="45.94235" lon="4.81954">
        <ele>264</ele>
        <time>2018-04-05T10:43:56Z</time>
      </trkpt>
      <trkpt lat="45.94233" lon="4.81947">
        <ele>264</ele>
        <time>2018-04-05T10:43:57Z</time>
      </trkpt>
      <trkpt lat="45.94231" lon="4.81942">
        <ele>264</ele>
        <time>2018-04-05T10:43:58Z</time>
      </trkpt>
      <trkpt lat="45.9423" lon="4.81935">
        <ele>264</ele>
        <time>2018-04-05T10:43:59Z</time>
      </trkpt>
      <trkpt lat="45.94228" lon="4.81929">
        <ele>264</ele>
        <time>2018-04-05T10:44:00Z</time>
      </trkpt>
      <trkpt lat="45.94225" lon="4.81918">
        <ele>264</ele>
        <time>2018-04-05T10:44:02Z</time>
      </trkpt>
      <trkpt lat="45.94224" lon="4.81911">
        <ele>264</ele>
        <time>2018-04-05T10:44:03Z</time>
      </trkpt>
      <trkpt lat="45.94222" lon="4.81904">
        <ele>264</ele>
        <time>2018-04-05T10:44:04Z</time>
      </trkpt>
      <trkpt lat="45.94221" lon="4.81898">
        <ele>265</ele>
        <time>2018-04-05T10:44:05Z</time>
      </trkpt>
      <trkpt lat="45.9422" lon="4.81891">
        <ele>265</ele>
        <time>2018-04-05T10:44:06Z</time>
      </trkpt>
      <trkpt lat="45.94218" lon="4.81884">
        <ele>265</ele>
        <time>2018-04-05T10:44:07Z</time>
      </trkpt>
      <trkpt lat="45.94217" lon="4.81876">
        <ele>265</ele>
        <time>2018-04-05T10:44:08Z</time>
      </trkpt>
      <trkpt lat="45.94215" lon="4.81869">
        <ele>265</ele>
        <time>2018-04-05T10:44:09Z</time>
      </trkpt>
      <trkpt lat="45.94214" lon="4.81862">
        <ele>265</ele>
        <time>2018-04-05T10:44:10Z</time>
      </trkpt>
      <trkpt lat="45.94213" lon="4.81856">
        <ele>265</ele>
        <time>2018-04-05T10:44:11Z</time>
      </trkpt>
      <trkpt lat="45.94212" lon="4.81848">
        <ele>265</ele>
        <time>2018-04-05T10:44:12Z</time>
      </trkpt>
      <trkpt lat="45.94209" lon="4.81839">
        <ele>265</ele>
        <time>2018-04-05T10:44:13Z</time>
      </trkpt>
      <trkpt lat="45.94208" lon="4.81832">
        <ele>266</ele>
        <time>2018-04-05T10:44:14Z</time>
      </trkpt>
      <trkpt lat="45.94206" lon="4.81826">
        <ele>266</ele>
        <time>2018-04-05T10:44:15Z</time>
      </trkpt>
      <trkpt lat="45.94205" lon="4.81818">
        <ele>266</ele>
        <time>2018-04-05T10:44:16Z</time>
      </trkpt>
      <trkpt lat="45.94203" lon="4.81811">
        <ele>266</ele>
        <time>2018-04-05T10:44:17Z</time>
      </trkpt>
      <trkpt lat="45.94205" lon="4.81804">
        <ele>266</ele>
        <time>2018-04-05T10:44:18Z</time>
      </trkpt>
      <trkpt lat="45.94206" lon="4.81797">
        <ele>266</ele>
        <time>2018-04-05T10:44:19Z</time>
      </trkpt>
      <trkpt lat="45.94206" lon="4.8179">
        <ele>266</ele>
        <time>2018-04-05T10:44:20Z</time>
      </trkpt>
      <trkpt lat="45.94207" lon="4.81783">
        <ele>265</ele>
        <time>2018-04-05T10:44:21Z</time>
      </trkpt>
      <trkpt lat="45.94209" lon="4.81775">
        <ele>265</ele>
        <time>2018-04-05T10:44:22Z</time>
      </trkpt>
      <trkpt lat="45.94211" lon="4.81768">
        <ele>265</ele>
        <time>2018-04-05T10:44:23Z</time>
      </trkpt>
      <trkpt lat="45.94213" lon="4.81761">
        <ele>265</ele>
        <time>2018-04-05T10:44:24Z</time>
      </trkpt>
      <trkpt lat="45.94216" lon="4.81755">
        <ele>265</ele>
        <time>2018-04-05T10:44:25Z</time>
      </trkpt>
      <trkpt lat="45.94219" lon="4.81748">
        <ele>265</ele>
        <time>2018-04-05T10:44:26Z</time>
      </trkpt>
      <trkpt lat="45.94222" lon="4.81742">
        <ele>265</ele>
        <time>2018-04-05T10:44:27Z</time>
      </trkpt>
      <trkpt lat="45.94224" lon="4.81736">
        <ele>265</ele>
        <time>2018-04-05T10:44:28Z</time>
      </trkpt>
      <trkpt lat="45.94225" lon="4.81729">
        <ele>265</ele>
        <time>2018-04-05T10:44:29Z</time>
      </trkpt>
      <trkpt lat="45.94224" lon="4.81723">
        <ele>265</ele>
        <time>2018-04-05T10:44:30Z</time>
      </trkpt>
      <trkpt lat="45.94222" lon="4.81715">
        <ele>266</ele>
        <time>2018-04-05T10:44:31Z</time>
      </trkpt>
      <trkpt lat="45.94219" lon="4.81709">
        <ele>266</ele>
        <time>2018-04-05T10:44:32Z</time>
      </trkpt>
      <trkpt lat="45.94214" lon="4.81706">
        <ele>266</ele>
        <time>2018-04-05T10:44:33Z</time>
      </trkpt>
      <trkpt lat="45.94209" lon="4.81703">
        <ele>266</ele>
        <time>2018-04-05T10:44:34Z</time>
      </trkpt>
      <trkpt lat="45.94204" lon="4.81701">
        <ele>266</ele>
        <time>2018-04-05T10:44:35Z</time>
      </trkpt>
      <trkpt lat="45.942" lon="4.81699">
        <ele>267</ele>
        <time>2018-04-05T10:44:36Z</time>
      </trkpt>
      <trkpt lat="45.94194" lon="4.81696">
        <ele>267</ele>
        <time>2018-04-05T10:44:37Z</time>
      </trkpt>
      <trkpt lat="45.9419" lon="4.81692">
        <ele>267</ele>
        <time>2018-04-05T10:44:38Z</time>
      </trkpt>
      <trkpt lat="45.94186" lon="4.81685">
        <ele>267</ele>
        <time>2018-04-05T10:44:39Z</time>
      </trkpt>
      <trkpt lat="45.94182" lon="4.81677">
        <ele>268</ele>
        <time>2018-04-05T10:44:40Z</time>
      </trkpt>
      <trkpt lat="45.94179" lon="4.81669">
        <ele>268</ele>
        <time>2018-04-05T10:44:41Z</time>
      </trkpt>
      <trkpt lat="45.94177" lon="4.8166">
        <ele>268</ele>
        <time>2018-04-05T10:44:42Z</time>
      </trkpt>
      <trkpt lat="45.94175" lon="4.81651">
        <ele>268</ele>
        <time>2018-04-05T10:44:43Z</time>
      </trkpt>
      <trkpt lat="45.94173" lon="4.81641">
        <ele>268</ele>
        <time>2018-04-05T10:44:44Z</time>
      </trkpt>
      <trkpt lat="45.94171" lon="4.81631">
        <ele>267</ele>
        <time>2018-04-05T10:44:45Z</time>
      </trkpt>
      <trkpt lat="45.94169" lon="4.81621">
        <ele>267</ele>
        <time>2018-04-05T10:44:46Z</time>
      </trkpt>
      <trkpt lat="45.94167" lon="4.81612">
        <ele>267</ele>
        <time>2018-04-05T10:44:47Z</time>
      </trkpt>
      <trkpt lat="45.94165" lon="4.81602">
        <ele>267</ele>
        <time>2018-04-05T10:44:48Z</time>
      </trkpt>
      <trkpt lat="45.94162" lon="4.81592">
        <ele>267</ele>
        <time>2018-04-05T10:44:49Z</time>
      </trkpt>
      <trkpt lat="45.94161" lon="4.81582">
        <ele>266</ele>
        <time>2018-04-05T10:44:50Z</time>
      </trkpt>
      <trkpt lat="45.9416" lon="4.81571">
        <ele>266</ele>
        <time>2018-04-05T10:44:51Z</time>
      </trkpt>
      <trkpt lat="45.9416" lon="4.8156">
        <ele>265</ele>
        <time>2018-04-05T10:44:52Z</time>
      </trkpt>
      <trkpt lat="45.94159" lon="4.8155">
        <ele>264</ele>
        <time>2018-04-05T10:44:53Z</time>
      </trkpt>
      <trkpt lat="45.94158" lon="4.81538">
        <ele>264</ele>
        <time>2018-04-05T10:44:54Z</time>
      </trkpt>
      <trkpt lat="45.94158" lon="4.81527">
        <ele>264</ele>
        <time>2018-04-05T10:44:55Z</time>
      </trkpt>
      <trkpt lat="45.94157" lon="4.81517">
        <ele>263</ele>
        <time>2018-04-05T10:44:56Z</time>
      </trkpt>
      <trkpt lat="45.94158" lon="4.81503">
        <ele>263</ele>
        <time>2018-04-05T10:44:57Z</time>
      </trkpt>
      <trkpt lat="45.9416" lon="4.81492">
        <ele>261</ele>
        <time>2018-04-05T10:44:58Z</time>
      </trkpt>
      <trkpt lat="45.94161" lon="4.81481">
        <ele>259</ele>
        <time>2018-04-05T10:44:59Z</time>
      </trkpt>
      <trkpt lat="45.94161" lon="4.81469">
        <ele>258</ele>
        <time>2018-04-05T10:45:00Z</time>
      </trkpt>
      <trkpt lat="45.94164" lon="4.81458">
        <ele>257</ele>
        <time>2018-04-05T10:45:01Z</time>
      </trkpt>
      <trkpt lat="45.94166" lon="4.81446">
        <ele>257</ele>
        <time>2018-04-05T10:45:02Z</time>
      </trkpt>
      <trkpt lat="45.94166" lon="4.81432">
        <ele>256</ele>
        <time>2018-04-05T10:45:03Z</time>
      </trkpt>
      <trkpt lat="45.94168" lon="4.8142">
        <ele>257</ele>
        <time>2018-04-05T10:45:04Z</time>
      </trkpt>
      <trkpt lat="45.9417" lon="4.81409">
        <ele>257</ele>
        <time>2018-04-05T10:45:05Z</time>
      </trkpt>
      <trkpt lat="45.94172" lon="4.81396">
        <ele>258</ele>
        <time>2018-04-05T10:45:06Z</time>
      </trkpt>
      <trkpt lat="45.94172" lon="4.81384">
        <ele>258</ele>
        <time>2018-04-05T10:45:07Z</time>
      </trkpt>
      <trkpt lat="45.94173" lon="4.81372">
        <ele>258</ele>
        <time>2018-04-05T10:45:08Z</time>
      </trkpt>
      <trkpt lat="45.94174" lon="4.8136">
        <ele>257</ele>
        <time>2018-04-05T10:45:09Z</time>
      </trkpt>
      <trkpt lat="45.94175" lon="4.81346">
        <ele>256</ele>
        <time>2018-04-05T10:45:10Z</time>
      </trkpt>
      <trkpt lat="45.94178" lon="4.81334">
        <ele>255</ele>
        <time>2018-04-05T10:45:11Z</time>
      </trkpt>
      <trkpt lat="45.94178" lon="4.81321">
        <ele>255</ele>
        <time>2018-04-05T10:45:12Z</time>
      </trkpt>
      <trkpt lat="45.94177" lon="4.81309">
        <ele>256</ele>
        <time>2018-04-05T10:45:13Z</time>
      </trkpt>
      <trkpt lat="45.94177" lon="4.81296">
        <ele>256</ele>
        <time>2018-04-05T10:45:14Z</time>
      </trkpt>
      <trkpt lat="45.94177" lon="4.81281">
        <ele>255</ele>
        <time>2018-04-05T10:45:15Z</time>
      </trkpt>
      <trkpt lat="45.94174" lon="4.81271">
        <ele>254</ele>
        <time>2018-04-05T10:45:16Z</time>
      </trkpt>
      <trkpt lat="45.94173" lon="4.81259">
        <ele>253</ele>
        <time>2018-04-05T10:45:17Z</time>
      </trkpt>
      <trkpt lat="45.94171" lon="4.81245">
        <ele>251</ele>
        <time>2018-04-05T10:45:18Z</time>
      </trkpt>
      <trkpt lat="45.94168" lon="4.8123">
        <ele>253</ele>
        <time>2018-04-05T10:45:19Z</time>
      </trkpt>
      <trkpt lat="45.94166" lon="4.81217">
        <ele>245</ele>
        <time>2018-04-05T10:45:20Z</time>
      </trkpt>
      <trkpt lat="45.94162" lon="4.81203">
        <ele>245</ele>
        <time>2018-04-05T10:45:21Z</time>
      </trkpt>
      <trkpt lat="45.94156" lon="4.81193">
        <ele>245</ele>
        <time>2018-04-05T10:45:22Z</time>
      </trkpt>
      <trkpt lat="45.94152" lon="4.8118">
        <ele>245</ele>
        <time>2018-04-05T10:45:23Z</time>
      </trkpt>
      <trkpt lat="45.94144" lon="4.81164">
        <ele>245</ele>
        <time>2018-04-05T10:45:24Z</time>
      </trkpt>
      <trkpt lat="45.94138" lon="4.81151">
        <ele>244</ele>
        <time>2018-04-05T10:45:25Z</time>
      </trkpt>
      <trkpt lat="45.94134" lon="4.8114">
        <ele>244</ele>
        <time>2018-04-05T10:45:26Z</time>
      </trkpt>
      <trkpt lat="45.94128" lon="4.81129">
        <ele>243</ele>
        <time>2018-04-05T10:45:27Z</time>
      </trkpt>
      <trkpt lat="45.94121" lon="4.81118">
        <ele>243</ele>
        <time>2018-04-05T10:45:28Z</time>
      </trkpt>
      <trkpt lat="45.94115" lon="4.81106">
        <ele>243</ele>
        <time>2018-04-05T10:45:29Z</time>
      </trkpt>
      <trkpt lat="45.94109" lon="4.81095">
        <ele>242</ele>
        <time>2018-04-05T10:45:30Z</time>
      </trkpt>
      <trkpt lat="45.94102" lon="4.81084">
        <ele>241</ele>
        <time>2018-04-05T10:45:31Z</time>
      </trkpt>
      <trkpt lat="45.94097" lon="4.81072">
        <ele>242</ele>
        <time>2018-04-05T10:45:32Z</time>
      </trkpt>
      <trkpt lat="45.94091" lon="4.81059">
        <ele>243</ele>
        <time>2018-04-05T10:45:33Z</time>
      </trkpt>
      <trkpt lat="45.94087" lon="4.81046">
        <ele>243</ele>
        <time>2018-04-05T10:45:34Z</time>
      </trkpt>
      <trkpt lat="45.94083" lon="4.81032">
        <ele>234</ele>
        <time>2018-04-05T10:45:35Z</time>
      </trkpt>
      <trkpt lat="45.94079" lon="4.81018">
        <ele>235</ele>
        <time>2018-04-05T10:45:36Z</time>
      </trkpt>
      <trkpt lat="45.94075" lon="4.81003">
        <ele>237</ele>
        <time>2018-04-05T10:45:37Z</time>
      </trkpt>
      <trkpt lat="45.94072" lon="4.80989">
        <ele>235</ele>
        <time>2018-04-05T10:45:38Z</time>
      </trkpt>
      <trkpt lat="45.9407" lon="4.80974">
        <ele>233</ele>
        <time>2018-04-05T10:45:39Z</time>
      </trkpt>
      <trkpt lat="45.94068" lon="4.80959">
        <ele>232</ele>
        <time>2018-04-05T10:45:40Z</time>
      </trkpt>
      <trkpt lat="45.94066" lon="4.80945">
        <ele>232</ele>
        <time>2018-04-05T10:45:41Z</time>
      </trkpt>
      <trkpt lat="45.94065" lon="4.80931">
        <ele>233</ele>
        <time>2018-04-05T10:45:42Z</time>
      </trkpt>
      <trkpt lat="45.94065" lon="4.80918">
        <ele>234</ele>
        <time>2018-04-05T10:45:43Z</time>
      </trkpt>
      <trkpt lat="45.94064" lon="4.80903">
        <ele>232</ele>
        <time>2018-04-05T10:45:44Z</time>
      </trkpt>
      <trkpt lat="45.94062" lon="4.8089">
        <ele>231</ele>
        <time>2018-04-05T10:45:45Z</time>
      </trkpt>
      <trkpt lat="45.9406" lon="4.80876">
        <ele>231</ele>
        <time>2018-04-05T10:45:46Z</time>
      </trkpt>
      <trkpt lat="45.94059" lon="4.80861">
        <ele>231</ele>
        <time>2018-04-05T10:45:47Z</time>
      </trkpt>
      <trkpt lat="45.94059" lon="4.80847">
        <ele>232</ele>
        <time>2018-04-05T10:45:48Z</time>
      </trkpt>
      <trkpt lat="45.94056" lon="4.80833">
        <ele>231</ele>
        <time>2018-04-05T10:45:49Z</time>
      </trkpt>
      <trkpt lat="45.94053" lon="4.80819">
        <ele>230</ele>
        <time>2018-04-05T10:45:50Z</time>
      </trkpt>
      <trkpt lat="45.94052" lon="4.80805">
        <ele>230</ele>
        <time>2018-04-05T10:45:51Z</time>
      </trkpt>
      <trkpt lat="45.94049" lon="4.8079">
        <ele>229</ele>
        <time>2018-04-05T10:45:52Z</time>
      </trkpt>
      <trkpt lat="45.94047" lon="4.80775">
        <ele>229</ele>
        <time>2018-04-05T10:45:53Z</time>
      </trkpt>
      <trkpt lat="45.94045" lon="4.80761">
        <ele>228</ele>
        <time>2018-04-05T10:45:54Z</time>
      </trkpt>
      <trkpt lat="45.94043" lon="4.80748">
        <ele>227</ele>
        <time>2018-04-05T10:45:55Z</time>
      </trkpt>
      <trkpt lat="45.94041" lon="4.80734">
        <ele>227</ele>
        <time>2018-04-05T10:45:56Z</time>
      </trkpt>
      <trkpt lat="45.9404" lon="4.80721">
        <ele>227</ele>
        <time>2018-04-05T10:45:57Z</time>
      </trkpt>
      <trkpt lat="45.94038" lon="4.80706">
        <ele>226</ele>
        <time>2018-04-05T10:45:58Z</time>
      </trkpt>
      <trkpt lat="45.94037" lon="4.80693">
        <ele>226</ele>
        <time>2018-04-05T10:45:59Z</time>
      </trkpt>
      <trkpt lat="45.94035" lon="4.80678">
        <ele>225</ele>
        <time>2018-04-05T10:46:00Z</time>
      </trkpt>
      <trkpt lat="45.94034" lon="4.80663">
        <ele>225</ele>
        <time>2018-04-05T10:46:01Z</time>
      </trkpt>
      <trkpt lat="45.94032" lon="4.80648">
        <ele>225</ele>
        <time>2018-04-05T10:46:02Z</time>
      </trkpt>
      <trkpt lat="45.94029" lon="4.80633">
        <ele>225</ele>
        <time>2018-04-05T10:46:03Z</time>
      </trkpt>
      <trkpt lat="45.94027" lon="4.80618">
        <ele>225</ele>
        <time>2018-04-05T10:46:04Z</time>
      </trkpt>
      <trkpt lat="45.94027" lon="4.80603">
        <ele>225</ele>
        <time>2018-04-05T10:46:05Z</time>
      </trkpt>
      <trkpt lat="45.94025" lon="4.80588">
        <ele>224</ele>
        <time>2018-04-05T10:46:06Z</time>
      </trkpt>
      <trkpt lat="45.94025" lon="4.80574">
        <ele>224</ele>
        <time>2018-04-05T10:46:07Z</time>
      </trkpt>
      <trkpt lat="45.94025" lon="4.80559">
        <ele>225</ele>
        <time>2018-04-05T10:46:08Z</time>
      </trkpt>
      <trkpt lat="45.94024" lon="4.80544">
        <ele>225</ele>
        <time>2018-04-05T10:46:09Z</time>
      </trkpt>
      <trkpt lat="45.94024" lon="4.80529">
        <ele>225</ele>
        <time>2018-04-05T10:46:10Z</time>
      </trkpt>
      <trkpt lat="45.94022" lon="4.80514">
        <ele>224</ele>
        <time>2018-04-05T10:46:11Z</time>
      </trkpt>
      <trkpt lat="45.94023" lon="4.80502">
        <ele>224</ele>
        <time>2018-04-05T10:46:12Z</time>
      </trkpt>
      <trkpt lat="45.94023" lon="4.80488">
        <ele>223</ele>
        <time>2018-04-05T10:46:13Z</time>
      </trkpt>
      <trkpt lat="45.94023" lon="4.80471">
        <ele>224</ele>
        <time>2018-04-05T10:46:14Z</time>
      </trkpt>
      <trkpt lat="45.94022" lon="4.80457">
        <ele>223</ele>
        <time>2018-04-05T10:46:15Z</time>
      </trkpt>
      <trkpt lat="45.9402" lon="4.80443">
        <ele>223</ele>
        <time>2018-04-05T10:46:16Z</time>
      </trkpt>
      <trkpt lat="45.94018" lon="4.80428">
        <ele>221</ele>
        <time>2018-04-05T10:46:17Z</time>
      </trkpt>
      <trkpt lat="45.94014" lon="4.80414">
        <ele>217</ele>
        <time>2018-04-05T10:46:18Z</time>
      </trkpt>
      <trkpt lat="45.9401" lon="4.80401">
        <ele>217</ele>
        <time>2018-04-05T10:46:19Z</time>
      </trkpt>
      <trkpt lat="45.94006" lon="4.80388">
        <ele>217</ele>
        <time>2018-04-05T10:46:20Z</time>
      </trkpt>
      <trkpt lat="45.94004" lon="4.80375">
        <ele>216</ele>
        <time>2018-04-05T10:46:21Z</time>
      </trkpt>
      <trkpt lat="45.94001" lon="4.80362">
        <ele>214</ele>
        <time>2018-04-05T10:46:22Z</time>
      </trkpt>
      <trkpt lat="45.93998" lon="4.8035">
        <ele>206</ele>
        <time>2018-04-05T10:46:23Z</time>
      </trkpt>
      <trkpt lat="45.93995" lon="4.80336">
        <ele>206</ele>
        <time>2018-04-05T10:46:24Z</time>
      </trkpt>
      <trkpt lat="45.93991" lon="4.80322">
        <ele>204</ele>
        <time>2018-04-05T10:46:25Z</time>
      </trkpt>
      <trkpt lat="45.93988" lon="4.80309">
        <ele>203</ele>
        <time>2018-04-05T10:46:26Z</time>
      </trkpt>
      <trkpt lat="45.93982" lon="4.80294">
        <ele>203</ele>
        <time>2018-04-05T10:46:27Z</time>
      </trkpt>
      <trkpt lat="45.93978" lon="4.8028">
        <ele>203</ele>
        <time>2018-04-05T10:46:28Z</time>
      </trkpt>
      <trkpt lat="45.93974" lon="4.80266">
        <ele>203</ele>
        <time>2018-04-05T10:46:29Z</time>
      </trkpt>
      <trkpt lat="45.9397" lon="4.80253">
        <ele>202</ele>
        <time>2018-04-05T10:46:30Z</time>
      </trkpt>
      <trkpt lat="45.93968" lon="4.8024">
        <ele>204</ele>
        <time>2018-04-05T10:46:31Z</time>
      </trkpt>
      <trkpt lat="45.93965" lon="4.80228">
        <ele>205</ele>
        <time>2018-04-05T10:46:32Z</time>
      </trkpt>
      <trkpt lat="45.93961" lon="4.80216">
        <ele>205</ele>
        <time>2018-04-05T10:46:33Z</time>
      </trkpt>
      <trkpt lat="45.93959" lon="4.80202">
        <ele>205</ele>
        <time>2018-04-05T10:46:34Z</time>
      </trkpt>
      <trkpt lat="45.93956" lon="4.80191">
        <ele>206</ele>
        <time>2018-04-05T10:46:35Z</time>
      </trkpt>
      <trkpt lat="45.93954" lon="4.8018">
        <ele>206</ele>
        <time>2018-04-05T10:46:36Z</time>
      </trkpt>
      <trkpt lat="45.93951" lon="4.80169">
        <ele>206</ele>
        <time>2018-04-05T10:46:37Z</time>
      </trkpt>
      <trkpt lat="45.93949" lon="4.80157">
        <ele>208</ele>
        <time>2018-04-05T10:46:38Z</time>
      </trkpt>
      <trkpt lat="45.93948" lon="4.80147">
        <ele>209</ele>
        <time>2018-04-05T10:46:39Z</time>
      </trkpt>
      <trkpt lat="45.93947" lon="4.80137">
        <ele>209</ele>
        <time>2018-04-05T10:46:40Z</time>
      </trkpt>
      <trkpt lat="45.93945" lon="4.80127">
        <ele>209</ele>
        <time>2018-04-05T10:46:41Z</time>
      </trkpt>
      <trkpt lat="45.93943" lon="4.80117">
        <ele>209</ele>
        <time>2018-04-05T10:46:42Z</time>
      </trkpt>
      <trkpt lat="45.93942" lon="4.80108">
        <ele>209</ele>
        <time>2018-04-05T10:46:43Z</time>
      </trkpt>
      <trkpt lat="45.93943" lon="4.80098">
        <ele>208</ele>
        <time>2018-04-05T10:46:44Z</time>
      </trkpt>
      <trkpt lat="45.93942" lon="4.8009">
        <ele>208</ele>
        <time>2018-04-05T10:46:45Z</time>
      </trkpt>
      <trkpt lat="45.93941" lon="4.8008">
        <ele>208</ele>
        <time>2018-04-05T10:46:46Z</time>
      </trkpt>
      <trkpt lat="45.93941" lon="4.80071">
        <ele>207</ele>
        <time>2018-04-05T10:46:47Z</time>
      </trkpt>
      <trkpt lat="45.93941" lon="4.80062">
        <ele>208</ele>
        <time>2018-04-05T10:46:48Z</time>
      </trkpt>
      <trkpt lat="45.93941" lon="4.80053">
        <ele>207</ele>
        <time>2018-04-05T10:46:49Z</time>
      </trkpt>
      <trkpt lat="45.93942" lon="4.80044">
        <ele>207</ele>
        <time>2018-04-05T10:46:50Z</time>
      </trkpt>
      <trkpt lat="45.93943" lon="4.80036">
        <ele>207</ele>
        <time>2018-04-05T10:46:51Z</time>
      </trkpt>
      <trkpt lat="45.93943" lon="4.80027">
        <ele>207</ele>
        <time>2018-04-05T10:46:52Z</time>
      </trkpt>
      <trkpt lat="45.93944" lon="4.80019">
        <ele>206</ele>
        <time>2018-04-05T10:46:53Z</time>
      </trkpt>
      <trkpt lat="45.93946" lon="4.8001">
        <ele>206</ele>
        <time>2018-04-05T10:46:54Z</time>
      </trkpt>
      <trkpt lat="45.93947" lon="4.80001">
        <ele>206</ele>
        <time>2018-04-05T10:46:55Z</time>
      </trkpt>
      <trkpt lat="45.93948" lon="4.79992">
        <ele>205</ele>
        <time>2018-04-05T10:46:56Z</time>
      </trkpt>
      <trkpt lat="45.93949" lon="4.79984">
        <ele>205</ele>
        <time>2018-04-05T10:46:57Z</time>
      </trkpt>
      <trkpt lat="45.9395" lon="4.79975">
        <ele>205</ele>
        <time>2018-04-05T10:46:58Z</time>
      </trkpt>
      <trkpt lat="45.93952" lon="4.79966">
        <ele>205</ele>
        <time>2018-04-05T10:46:59Z</time>
      </trkpt>
      <trkpt lat="45.93952" lon="4.79956">
        <ele>205</ele>
        <time>2018-04-05T10:47:00Z</time>
      </trkpt>
      <trkpt lat="45.93953" lon="4.79948">
        <ele>205</ele>
        <time>2018-04-05T10:47:01Z</time>
      </trkpt>
      <trkpt lat="45.93954" lon="4.7994">
        <ele>205</ele>
        <time>2018-04-05T10:47:02Z</time>
      </trkpt>
      <trkpt lat="45.93955" lon="4.7993">
        <ele>205</ele>
        <time>2018-04-05T10:47:03Z</time>
      </trkpt>
      <trkpt lat="45.93956" lon="4.79921">
        <ele>205</ele>
        <time>2018-04-05T10:47:04Z</time>
      </trkpt>
      <trkpt lat="45.93958" lon="4.79912">
        <ele>205</ele>
        <time>2018-04-05T10:47:05Z</time>
      </trkpt>
      <trkpt lat="45.93958" lon="4.79902">
        <ele>206</ele>
        <time>2018-04-05T10:47:06Z</time>
      </trkpt>
      <trkpt lat="45.93959" lon="4.79893">
        <ele>206</ele>
        <time>2018-04-05T10:47:07Z</time>
      </trkpt>
      <trkpt lat="45.9396" lon="4.79884">
        <ele>206</ele>
        <time>2018-04-05T10:47:08Z</time>
      </trkpt>
      <trkpt lat="45.93961" lon="4.79875">
        <ele>206</ele>
        <time>2018-04-05T10:47:09Z</time>
      </trkpt>
      <trkpt lat="45.93962" lon="4.79866">
        <ele>206</ele>
        <time>2018-04-05T10:47:10Z</time>
      </trkpt>
      <trkpt lat="45.93964" lon="4.79856">
        <ele>206</ele>
        <time>2018-04-05T10:47:11Z</time>
      </trkpt>
      <trkpt lat="45.93965" lon="4.79847">
        <ele>206</ele>
        <time>2018-04-05T10:47:12Z</time>
      </trkpt>
      <trkpt lat="45.93967" lon="4.79838">
        <ele>206</ele>
        <time>2018-04-05T10:47:13Z</time>
      </trkpt>
      <trkpt lat="45.93968" lon="4.7983">
        <ele>207</ele>
        <time>2018-04-05T10:47:14Z</time>
      </trkpt>
      <trkpt lat="45.9397" lon="4.79822">
        <ele>207</ele>
        <time>2018-04-05T10:47:15Z</time>
      </trkpt>
      <trkpt lat="45.93971" lon="4.79813">
        <ele>207</ele>
        <time>2018-04-05T10:47:16Z</time>
      </trkpt>
      <trkpt lat="45.93972" lon="4.79804">
        <ele>207</ele>
        <time>2018-04-05T10:47:17Z</time>
      </trkpt>
      <trkpt lat="45.93973" lon="4.79796">
        <ele>206</ele>
        <time>2018-04-05T10:47:18Z</time>
      </trkpt>
      <trkpt lat="45.93974" lon="4.79788">
        <ele>206</ele>
        <time>2018-04-05T10:47:19Z</time>
      </trkpt>
      <trkpt lat="45.93974" lon="4.7978">
        <ele>206</ele>
        <time>2018-04-05T10:47:20Z</time>
      </trkpt>
      <trkpt lat="45.93974" lon="4.79772">
        <ele>206</ele>
        <time>2018-04-05T10:47:21Z</time>
      </trkpt>
      <trkpt lat="45.93973" lon="4.79764">
        <ele>206</ele>
        <time>2018-04-05T10:47:22Z</time>
      </trkpt>
      <trkpt lat="45.93973" lon="4.79757">
        <ele>206</ele>
        <time>2018-04-05T10:47:23Z</time>
      </trkpt>
      <trkpt lat="45.93973" lon="4.79749">
        <ele>207</ele>
        <time>2018-04-05T10:47:24Z</time>
      </trkpt>
      <trkpt lat="45.93973" lon="4.79742">
        <ele>207</ele>
        <time>2018-04-05T10:47:25Z</time>
      </trkpt>
      <trkpt lat="45.93972" lon="4.79736">
        <ele>207</ele>
        <time>2018-04-05T10:47:26Z</time>
      </trkpt>
      <trkpt lat="45.93971" lon="4.7973">
        <ele>207</ele>
        <time>2018-04-05T10:47:27Z</time>
      </trkpt>
      <trkpt lat="45.9397" lon="4.79721">
        <ele>207</ele>
        <time>2018-04-05T10:47:28Z</time>
      </trkpt>
      <trkpt lat="45.9397" lon="4.79714">
        <ele>207</ele>
        <time>2018-04-05T10:47:29Z</time>
      </trkpt>
      <trkpt lat="45.93969" lon="4.79706">
        <ele>207</ele>
        <time>2018-04-05T10:47:30Z</time>
      </trkpt>
      <trkpt lat="45.93969" lon="4.79699">
        <ele>207</ele>
        <time>2018-04-05T10:47:31Z</time>
      </trkpt>
      <trkpt lat="45.93968" lon="4.7969">
        <ele>207</ele>
        <time>2018-04-05T10:47:32Z</time>
      </trkpt>
      <trkpt lat="45.93969" lon="4.79685">
        <ele>207</ele>
        <time>2018-04-05T10:47:33Z</time>
      </trkpt>
      <trkpt lat="45.93967" lon="4.79676">
        <ele>207</ele>
        <time>2018-04-05T10:47:34Z</time>
      </trkpt>
      <trkpt lat="45.93967" lon="4.79667">
        <ele>208</ele>
        <time>2018-04-05T10:47:35Z</time>
      </trkpt>
      <trkpt lat="45.93966" lon="4.79658">
        <ele>208</ele>
        <time>2018-04-05T10:47:36Z</time>
      </trkpt>
      <trkpt lat="45.93966" lon="4.79649">
        <ele>207</ele>
        <time>2018-04-05T10:47:37Z</time>
      </trkpt>
      <trkpt lat="45.93966" lon="4.79641">
        <ele>207</ele>
        <time>2018-04-05T10:47:38Z</time>
      </trkpt>
      <trkpt lat="45.93965" lon="4.79633">
        <ele>207</ele>
        <time>2018-04-05T10:47:39Z</time>
      </trkpt>
      <trkpt lat="45.93965" lon="4.79625">
        <ele>207</ele>
        <time>2018-04-05T10:47:40Z</time>
      </trkpt>
      <trkpt lat="45.93964" lon="4.79616">
        <ele>207</ele>
        <time>2018-04-05T10:47:41Z</time>
      </trkpt>
      <trkpt lat="45.93964" lon="4.79608">
        <ele>207</ele>
        <time>2018-04-05T10:47:42Z</time>
      </trkpt>
      <trkpt lat="45.93963" lon="4.79598">
        <ele>207</ele>
        <time>2018-04-05T10:47:43Z</time>
      </trkpt>
      <trkpt lat="45.93961" lon="4.79589">
        <ele>207</ele>
        <time>2018-04-05T10:47:44Z</time>
      </trkpt>
      <trkpt lat="45.93961" lon="4.79581">
        <ele>206</ele>
        <time>2018-04-05T10:47:45Z</time>
      </trkpt>
      <trkpt lat="45.9396" lon="4.79573">
        <ele>206</ele>
        <time>2018-04-05T10:47:46Z</time>
      </trkpt>
      <trkpt lat="45.9396" lon="4.79564">
        <ele>205</ele>
        <time>2018-04-05T10:47:47Z</time>
      </trkpt>
      <trkpt lat="45.93959" lon="4.79557">
        <ele>205</ele>
        <time>2018-04-05T10:47:48Z</time>
      </trkpt>
      <trkpt lat="45.93959" lon="4.79548">
        <ele>205</ele>
        <time>2018-04-05T10:47:49Z</time>
      </trkpt>
      <trkpt lat="45.93958" lon="4.79539">
        <ele>205</ele>
        <time>2018-04-05T10:47:50Z</time>
      </trkpt>
      <trkpt lat="45.93958" lon="4.79529">
        <ele>205</ele>
        <time>2018-04-05T10:47:51Z</time>
      </trkpt>
      <trkpt lat="45.93957" lon="4.79518">
        <ele>205</ele>
        <time>2018-04-05T10:47:52Z</time>
      </trkpt>
      <trkpt lat="45.93957" lon="4.79508">
        <ele>204</ele>
        <time>2018-04-05T10:47:53Z</time>
      </trkpt>
      <trkpt lat="45.93957" lon="4.79497">
        <ele>203</ele>
        <time>2018-04-05T10:47:54Z</time>
      </trkpt>
      <trkpt lat="45.93957" lon="4.79486">
        <ele>203</ele>
        <time>2018-04-05T10:47:55Z</time>
      </trkpt>
      <trkpt lat="45.93957" lon="4.79475">
        <ele>203</ele>
        <time>2018-04-05T10:47:56Z</time>
      </trkpt>
      <trkpt lat="45.93956" lon="4.79464">
        <ele>203</ele>
        <time>2018-04-05T10:47:57Z</time>
      </trkpt>
      <trkpt lat="45.93956" lon="4.79453">
        <ele>203</ele>
        <time>2018-04-05T10:47:58Z</time>
      </trkpt>
      <trkpt lat="45.93957" lon="4.79442">
        <ele>203</ele>
        <time>2018-04-05T10:47:59Z</time>
      </trkpt>
      <trkpt lat="45.93957" lon="4.79432">
        <ele>203</ele>
        <time>2018-04-05T10:48:00Z</time>
      </trkpt>
      <trkpt lat="45.93956" lon="4.7942">
        <ele>203</ele>
        <time>2018-04-05T10:48:01Z</time>
      </trkpt>
      <trkpt lat="45.93956" lon="4.79409">
        <ele>201</ele>
        <time>2018-04-05T10:48:02Z</time>
      </trkpt>
      <trkpt lat="45.93956" lon="4.79399">
        <ele>201</ele>
        <time>2018-04-05T10:48:03Z</time>
      </trkpt>
      <trkpt lat="45.93957" lon="4.79388">
        <ele>201</ele>
        <time>2018-04-05T10:48:04Z</time>
      </trkpt>
      <trkpt lat="45.93958" lon="4.79377">
        <ele>201</ele>
        <time>2018-04-05T10:48:05Z</time>
      </trkpt>
      <trkpt lat="45.93957" lon="4.79365">
        <ele>201</ele>
        <time>2018-04-05T10:48:06Z</time>
      </trkpt>
      <trkpt lat="45.93957" lon="4.79354">
        <ele>201</ele>
        <time>2018-04-05T10:48:07Z</time>
      </trkpt>
      <trkpt lat="45.93957" lon="4.79343">
        <ele>201</ele>
        <time>2018-04-05T10:48:08Z</time>
      </trkpt>
      <trkpt lat="45.93957" lon="4.79332">
        <ele>199</ele>
        <time>2018-04-05T10:48:09Z</time>
      </trkpt>
      <trkpt lat="45.93957" lon="4.7932">
        <ele>199</ele>
        <time>2018-04-05T10:48:10Z</time>
      </trkpt>
      <trkpt lat="45.93956" lon="4.79309">
        <ele>199</ele>
        <time>2018-04-05T10:48:11Z</time>
      </trkpt>
      <trkpt lat="45.93956" lon="4.79298">
        <ele>199</ele>
        <time>2018-04-05T10:48:12Z</time>
      </trkpt>
      <trkpt lat="45.93955" lon="4.79287">
        <ele>198</ele>
        <time>2018-04-05T10:48:13Z</time>
      </trkpt>
      <trkpt lat="45.93955" lon="4.79276">
        <ele>198</ele>
        <time>2018-04-05T10:48:14Z</time>
      </trkpt>
      <trkpt lat="45.93955" lon="4.79265">
        <ele>198</ele>
        <time>2018-04-05T10:48:15Z</time>
      </trkpt>
      <trkpt lat="45.93956" lon="4.79255">
        <ele>198</ele>
        <time>2018-04-05T10:48:16Z</time>
      </trkpt>
      <trkpt lat="45.93956" lon="4.79243">
        <ele>197</ele>
        <time>2018-04-05T10:48:17Z</time>
      </trkpt>
      <trkpt lat="45.93955" lon="4.79231">
        <ele>197</ele>
        <time>2018-04-05T10:48:18Z</time>
      </trkpt>
      <trkpt lat="45.93955" lon="4.79221">
        <ele>197</ele>
        <time>2018-04-05T10:48:19Z</time>
      </trkpt>
      <trkpt lat="45.93954" lon="4.79209">
        <ele>197</ele>
        <time>2018-04-05T10:48:20Z</time>
      </trkpt>
      <trkpt lat="45.93953" lon="4.79199">
        <ele>197</ele>
        <time>2018-04-05T10:48:21Z</time>
      </trkpt>
      <trkpt lat="45.93953" lon="4.79188">
        <ele>197</ele>
        <time>2018-04-05T10:48:22Z</time>
      </trkpt>
      <trkpt lat="45.93952" lon="4.79177">
        <ele>197</ele>
        <time>2018-04-05T10:48:23Z</time>
      </trkpt>
      <trkpt lat="45.93952" lon="4.79167">
        <ele>197</ele>
        <time>2018-04-05T10:48:24Z</time>
      </trkpt>
      <trkpt lat="45.93954" lon="4.79156">
        <ele>197</ele>
        <time>2018-04-05T10:48:25Z</time>
      </trkpt>
      <trkpt lat="45.93953" lon="4.79144">
        <ele>197</ele>
        <time>2018-04-05T10:48:26Z</time>
      </trkpt>
      <trkpt lat="45.93952" lon="4.79133">
        <ele>197</ele>
        <time>2018-04-05T10:48:27Z</time>
      </trkpt>
      <trkpt lat="45.93952" lon="4.79122">
        <ele>197</ele>
        <time>2018-04-05T10:48:28Z</time>
      </trkpt>
      <trkpt lat="45.93951" lon="4.79111">
        <ele>197</ele>
        <time>2018-04-05T10:48:29Z</time>
      </trkpt>
      <trkpt lat="45.9395" lon="4.791">
        <ele>197</ele>
        <time>2018-04-05T10:48:30Z</time>
      </trkpt>
      <trkpt lat="45.9395" lon="4.79089">
        <ele>196</ele>
        <time>2018-04-05T10:48:31Z</time>
      </trkpt>
      <trkpt lat="45.93951" lon="4.79079">
        <ele>196</ele>
        <time>2018-04-05T10:48:32Z</time>
      </trkpt>
      <trkpt lat="45.9395" lon="4.79068">
        <ele>196</ele>
        <time>2018-04-05T10:48:33Z</time>
      </trkpt>
      <trkpt lat="45.9395" lon="4.79058">
        <ele>196</ele>
        <time>2018-04-05T10:48:34Z</time>
      </trkpt>
      <trkpt lat="45.93949" lon="4.79048">
        <ele>196</ele>
        <time>2018-04-05T10:48:35Z</time>
      </trkpt>
      <trkpt lat="45.93949" lon="4.79038">
        <ele>196</ele>
        <time>2018-04-05T10:48:36Z</time>
      </trkpt>
      <trkpt lat="45.93948" lon="4.79028">
        <ele>195</ele>
        <time>2018-04-05T10:48:37Z</time>
      </trkpt>
      <trkpt lat="45.93948" lon="4.79018">
        <ele>195</ele>
        <time>2018-04-05T10:48:38Z</time>
      </trkpt>
      <trkpt lat="45.93947" lon="4.79009">
        <ele>195</ele>
        <time>2018-04-05T10:48:39Z</time>
      </trkpt>
      <trkpt lat="45.93946" lon="4.78999">
        <ele>194</ele>
        <time>2018-04-05T10:48:40Z</time>
      </trkpt>
      <trkpt lat="45.93945" lon="4.78989">
        <ele>194</ele>
        <time>2018-04-05T10:48:41Z</time>
      </trkpt>
      <trkpt lat="45.93944" lon="4.78979">
        <ele>194</ele>
        <time>2018-04-05T10:48:42Z</time>
      </trkpt>
      <trkpt lat="45.93944" lon="4.78968">
        <ele>194</ele>
        <time>2018-04-05T10:48:43Z</time>
      </trkpt>
      <trkpt lat="45.93945" lon="4.78959">
        <ele>194</ele>
        <time>2018-04-05T10:48:44Z</time>
      </trkpt>
      <trkpt lat="45.93945" lon="4.78948">
        <ele>194</ele>
        <time>2018-04-05T10:48:45Z</time>
      </trkpt>
      <trkpt lat="45.93945" lon="4.78939">
        <ele>194</ele>
        <time>2018-04-05T10:48:46Z</time>
      </trkpt>
      <trkpt lat="45.93945" lon="4.78929">
        <ele>194</ele>
        <time>2018-04-05T10:48:47Z</time>
      </trkpt>
      <trkpt lat="45.93943" lon="4.78918">
        <ele>193</ele>
        <time>2018-04-05T10:48:48Z</time>
      </trkpt>
      <trkpt lat="45.93943" lon="4.78908">
        <ele>193</ele>
        <time>2018-04-05T10:48:49Z</time>
      </trkpt>
      <trkpt lat="45.93942" lon="4.78899">
        <ele>193</ele>
        <time>2018-04-05T10:48:50Z</time>
      </trkpt>
      <trkpt lat="45.93941" lon="4.7889">
        <ele>193</ele>
        <time>2018-04-05T10:48:51Z</time>
      </trkpt>
      <trkpt lat="45.9394" lon="4.7888">
        <ele>194</ele>
        <time>2018-04-05T10:48:52Z</time>
      </trkpt>
      <trkpt lat="45.93939" lon="4.78871">
        <ele>194</ele>
        <time>2018-04-05T10:48:53Z</time>
      </trkpt>
      <trkpt lat="45.93939" lon="4.78862">
        <ele>194</ele>
        <time>2018-04-05T10:48:54Z</time>
      </trkpt>
      <trkpt lat="45.93935" lon="4.7885">
        <ele>193</ele>
        <time>2018-04-05T10:48:55Z</time>
      </trkpt>
      <trkpt lat="45.93934" lon="4.78841">
        <ele>193</ele>
        <time>2018-04-05T10:48:56Z</time>
      </trkpt>
      <trkpt lat="45.93935" lon="4.78833">
        <ele>193</ele>
        <time>2018-04-05T10:48:57Z</time>
      </trkpt>
      <trkpt lat="45.93935" lon="4.78825">
        <ele>193</ele>
        <time>2018-04-05T10:48:58Z</time>
      </trkpt>
      <trkpt lat="45.93935" lon="4.78816">
        <ele>194</ele>
        <time>2018-04-05T10:48:59Z</time>
      </trkpt>
      <trkpt lat="45.93935" lon="4.78807">
        <ele>194</ele>
        <time>2018-04-05T10:49:00Z</time>
      </trkpt>
      <trkpt lat="45.93935" lon="4.78798">
        <ele>194</ele>
        <time>2018-04-05T10:49:01Z</time>
      </trkpt>
      <trkpt lat="45.93934" lon="4.78791">
        <ele>194</ele>
        <time>2018-04-05T10:49:02Z</time>
      </trkpt>
      <trkpt lat="45.93934" lon="4.78782">
        <ele>194</ele>
        <time>2018-04-05T10:49:03Z</time>
      </trkpt>
      <trkpt lat="45.93934" lon="4.78775">
        <ele>193</ele>
        <time>2018-04-05T10:49:04Z</time>
      </trkpt>
      <trkpt lat="45.93935" lon="4.78766">
        <ele>193</ele>
        <time>2018-04-05T10:49:05Z</time>
      </trkpt>
      <trkpt lat="45.93935" lon="4.78758">
        <ele>193</ele>
        <time>2018-04-05T10:49:06Z</time>
      </trkpt>
      <trkpt lat="45.93935" lon="4.7875">
        <ele>193</ele>
        <time>2018-04-05T10:49:07Z</time>
      </trkpt>
      <trkpt lat="45.93936" lon="4.78742">
        <ele>193</ele>
        <time>2018-04-05T10:49:08Z</time>
      </trkpt>
      <trkpt lat="45.93936" lon="4.78734">
        <ele>193</ele>
        <time>2018-04-05T10:49:09Z</time>
      </trkpt>
      <trkpt lat="45.93935" lon="4.78726">
        <ele>194</ele>
        <time>2018-04-05T10:49:10Z</time>
      </trkpt>
      <trkpt lat="45.93935" lon="4.78717">
        <ele>194</ele>
        <time>2018-04-05T10:49:11Z</time>
      </trkpt>
      <trkpt lat="45.93935" lon="4.78708">
        <ele>194</ele>
        <time>2018-04-05T10:49:12Z</time>
      </trkpt>
      <trkpt lat="45.93935" lon="4.78699">
        <ele>194</ele>
        <time>2018-04-05T10:49:13Z</time>
      </trkpt>
      <trkpt lat="45.93934" lon="4.78691">
        <ele>194</ele>
        <time>2018-04-05T10:49:14Z</time>
      </trkpt>
      <trkpt lat="45.93935" lon="4.78683">
        <ele>193</ele>
        <time>2018-04-05T10:49:15Z</time>
      </trkpt>
      <trkpt lat="45.93935" lon="4.78675">
        <ele>193</ele>
        <time>2018-04-05T10:49:16Z</time>
      </trkpt>
      <trkpt lat="45.93934" lon="4.78666">
        <ele>194</ele>
        <time>2018-04-05T10:49:17Z</time>
      </trkpt>
      <trkpt lat="45.93935" lon="4.78658">
        <ele>194</ele>
        <time>2018-04-05T10:49:18Z</time>
      </trkpt>
      <trkpt lat="45.93936" lon="4.7865">
        <ele>194</ele>
        <time>2018-04-05T10:49:19Z</time>
      </trkpt>
      <trkpt lat="45.93936" lon="4.78641">
        <ele>195</ele>
        <time>2018-04-05T10:49:20Z</time>
      </trkpt>
      <trkpt lat="45.93936" lon="4.78633">
        <ele>195</ele>
        <time>2018-04-05T10:49:21Z</time>
      </trkpt>
      <trkpt lat="45.93936" lon="4.78625">
        <ele>195</ele>
        <time>2018-04-05T10:49:22Z</time>
      </trkpt>
      <trkpt lat="45.93935" lon="4.78617">
        <ele>196</ele>
        <time>2018-04-05T10:49:23Z</time>
      </trkpt>
      <trkpt lat="45.93935" lon="4.78609">
        <ele>195</ele>
        <time>2018-04-05T10:49:24Z</time>
      </trkpt>
      <trkpt lat="45.93935" lon="4.78602">
        <ele>195</ele>
        <time>2018-04-05T10:49:25Z</time>
      </trkpt>
      <trkpt lat="45.93935" lon="4.78595">
        <ele>195</ele>
        <time>2018-04-05T10:49:26Z</time>
      </trkpt>
      <trkpt lat="45.93935" lon="4.78588">
        <ele>195</ele>
        <time>2018-04-05T10:49:27Z</time>
      </trkpt>
      <trkpt lat="45.93935" lon="4.78581">
        <ele>196</ele>
        <time>2018-04-05T10:49:28Z</time>
      </trkpt>
      <trkpt lat="45.93935" lon="4.78574">
        <ele>196</ele>
        <time>2018-04-05T10:49:29Z</time>
      </trkpt>
      <trkpt lat="45.93934" lon="4.78567">
        <ele>196</ele>
        <time>2018-04-05T10:49:30Z</time>
      </trkpt>
      <trkpt lat="45.93931" lon="4.78555">
        <ele>197</ele>
        <time>2018-04-05T10:49:32Z</time>
      </trkpt>
      <trkpt lat="45.93931" lon="4.78549">
        <ele>197</ele>
        <time>2018-04-05T10:49:33Z</time>
      </trkpt>
      <trkpt lat="45.93933" lon="4.78537">
        <ele>197</ele>
        <time>2018-04-05T10:49:35Z</time>
      </trkpt>
      <trkpt lat="45.93933" lon="4.78531">
        <ele>197</ele>
        <time>2018-04-05T10:49:36Z</time>
      </trkpt>
      <trkpt lat="45.93933" lon="4.78524">
        <ele>197</ele>
        <time>2018-04-05T10:49:37Z</time>
      </trkpt>
      <trkpt lat="45.93934" lon="4.78518">
        <ele>197</ele>
        <time>2018-04-05T10:49:38Z</time>
      </trkpt>
      <trkpt lat="45.93936" lon="4.78506">
        <ele>197</ele>
        <time>2018-04-05T10:49:40Z</time>
      </trkpt>
      <trkpt lat="45.93938" lon="4.785">
        <ele>197</ele>
        <time>2018-04-05T10:49:41Z</time>
      </trkpt>
      <trkpt lat="45.93939" lon="4.78494">
        <ele>197</ele>
        <time>2018-04-05T10:49:42Z</time>
      </trkpt>
      <trkpt lat="45.9394" lon="4.78487">
        <ele>197</ele>
        <time>2018-04-05T10:49:43Z</time>
      </trkpt>
      <trkpt lat="45.93941" lon="4.7848">
        <ele>197</ele>
        <time>2018-04-05T10:49:44Z</time>
      </trkpt>
      <trkpt lat="45.93942" lon="4.78473">
        <ele>197</ele>
        <time>2018-04-05T10:49:45Z</time>
      </trkpt>
      <trkpt lat="45.93943" lon="4.78466">
        <ele>197</ele>
        <time>2018-04-05T10:49:46Z</time>
      </trkpt>
      <trkpt lat="45.93943" lon="4.7846">
        <ele>197</ele>
        <time>2018-04-05T10:49:47Z</time>
      </trkpt>
      <trkpt lat="45.93945" lon="4.78447">
        <ele>197</ele>
        <time>2018-04-05T10:49:49Z</time>
      </trkpt>
      <trkpt lat="45.93946" lon="4.7844">
        <ele>197</ele>
        <time>2018-04-05T10:49:50Z</time>
      </trkpt>
      <trkpt lat="45.93947" lon="4.78434">
        <ele>197</ele>
        <time>2018-04-05T10:49:51Z</time>
      </trkpt>
      <trkpt lat="45.93947" lon="4.78426">
        <ele>197</ele>
        <time>2018-04-05T10:49:52Z</time>
      </trkpt>
      <trkpt lat="45.93948" lon="4.7842">
        <ele>197</ele>
        <time>2018-04-05T10:49:53Z</time>
      </trkpt>
      <trkpt lat="45.9395" lon="4.78412">
        <ele>196</ele>
        <time>2018-04-05T10:49:54Z</time>
      </trkpt>
      <trkpt lat="45.93951" lon="4.78405">
        <ele>196</ele>
        <time>2018-04-05T10:49:55Z</time>
      </trkpt>
      <trkpt lat="45.93952" lon="4.78397">
        <ele>196</ele>
        <time>2018-04-05T10:49:56Z</time>
      </trkpt>
      <trkpt lat="45.93953" lon="4.78388">
        <ele>196</ele>
        <time>2018-04-05T10:49:57Z</time>
      </trkpt>
      <trkpt lat="45.93954" lon="4.78381">
        <ele>196</ele>
        <time>2018-04-05T10:49:58Z</time>
      </trkpt>
      <trkpt lat="45.93955" lon="4.78374">
        <ele>196</ele>
        <time>2018-04-05T10:49:59Z</time>
      </trkpt>
      <trkpt lat="45.93956" lon="4.78367">
        <ele>196</ele>
        <time>2018-04-05T10:50:00Z</time>
      </trkpt>
      <trkpt lat="45.93957" lon="4.7836">
        <ele>196</ele>
        <time>2018-04-05T10:50:01Z</time>
      </trkpt>
      <trkpt lat="45.93958" lon="4.78353">
        <ele>196</ele>
        <time>2018-04-05T10:50:02Z</time>
      </trkpt>
      <trkpt lat="45.93959" lon="4.78346">
        <ele>196</ele>
        <time>2018-04-05T10:50:03Z</time>
      </trkpt>
      <trkpt lat="45.93959" lon="4.78339">
        <ele>196</ele>
        <time>2018-04-05T10:50:04Z</time>
      </trkpt>
      <trkpt lat="45.9396" lon="4.78332">
        <ele>195</ele>
        <time>2018-04-05T10:50:05Z</time>
      </trkpt>
      <trkpt lat="45.93961" lon="4.78325">
        <ele>195</ele>
        <time>2018-04-05T10:50:06Z</time>
      </trkpt>
      <trkpt lat="45.93963" lon="4.78314">
        <ele>196</ele>
        <time>2018-04-05T10:50:08Z</time>
      </trkpt>
      <trkpt lat="45.93964" lon="4.78308">
        <ele>196</ele>
        <time>2018-04-05T10:50:09Z</time>
      </trkpt>
      <trkpt lat="45.93966" lon="4.783">
        <ele>196</ele>
        <time>2018-04-05T10:50:10Z</time>
      </trkpt>
      <trkpt lat="45.93967" lon="4.78293">
        <ele>196</ele>
        <time>2018-04-05T10:50:11Z</time>
      </trkpt>
      <trkpt lat="45.93967" lon="4.78286">
        <ele>195</ele>
        <time>2018-04-05T10:50:12Z</time>
      </trkpt>
      <trkpt lat="45.93968" lon="4.7828">
        <ele>196</ele>
        <time>2018-04-05T10:50:13Z</time>
      </trkpt>
      <trkpt lat="45.93969" lon="4.78273">
        <ele>196</ele>
        <time>2018-04-05T10:50:14Z</time>
      </trkpt>
      <trkpt lat="45.9397" lon="4.78266">
        <ele>196</ele>
        <time>2018-04-05T10:50:15Z</time>
      </trkpt>
      <trkpt lat="45.9397" lon="4.78259">
        <ele>196</ele>
        <time>2018-04-05T10:50:16Z</time>
      </trkpt>
      <trkpt lat="45.93971" lon="4.78252">
        <ele>196</ele>
        <time>2018-04-05T10:50:17Z</time>
      </trkpt>
      <trkpt lat="45.93972" lon="4.78245">
        <ele>196</ele>
        <time>2018-04-05T10:50:18Z</time>
      </trkpt>
      <trkpt lat="45.93973" lon="4.78238">
        <ele>196</ele>
        <time>2018-04-05T10:50:19Z</time>
      </trkpt>
      <trkpt lat="45.93974" lon="4.78231">
        <ele>196</ele>
        <time>2018-04-05T10:50:20Z</time>
      </trkpt>
      <trkpt lat="45.93974" lon="4.78225">
        <ele>196</ele>
        <time>2018-04-05T10:50:21Z</time>
      </trkpt>
      <trkpt lat="45.93977" lon="4.78213">
        <ele>197</ele>
        <time>2018-04-05T10:50:23Z</time>
      </trkpt>
      <trkpt lat="45.93977" lon="4.78208">
        <ele>197</ele>
        <time>2018-04-05T10:50:24Z</time>
      </trkpt>
      <trkpt lat="45.93979" lon="4.78196">
        <ele>197</ele>
        <time>2018-04-05T10:50:26Z</time>
      </trkpt>
      <trkpt lat="45.93982" lon="4.78191">
        <ele>197</ele>
        <time>2018-04-05T10:50:27Z</time>
      </trkpt>
      <trkpt lat="45.93985" lon="4.7818">
        <ele>198</ele>
        <time>2018-04-05T10:50:30Z</time>
      </trkpt>
      <trkpt lat="45.93989" lon="4.78172">
        <ele>199</ele>
        <time>2018-04-05T10:50:31Z</time>
      </trkpt>
      <trkpt lat="45.93994" lon="4.78162">
        <ele>200</ele>
        <time>2018-04-05T10:50:35Z</time>
      </trkpt>
      <trkpt lat="45.93996" lon="4.78151">
        <ele>199</ele>
        <time>2018-04-05T10:50:36Z</time>
      </trkpt>
      <trkpt lat="45.93996" lon="4.78139">
        <ele>198</ele>
        <time>2018-04-05T10:50:38Z</time>
      </trkpt>
      <trkpt lat="45.93997" lon="4.78133">
        <ele>198</ele>
        <time>2018-04-05T10:50:39Z</time>
      </trkpt>
      <trkpt lat="45.93999" lon="4.78121">
        <ele>197</ele>
        <time>2018-04-05T10:50:41Z</time>
      </trkpt>
      <trkpt lat="45.94" lon="4.78114">
        <ele>197</ele>
        <time>2018-04-05T10:50:42Z</time>
      </trkpt>
      <trkpt lat="45.94002" lon="4.78106">
        <ele>202</ele>
        <time>2018-04-05T10:50:43Z</time>
      </trkpt>
      <trkpt lat="45.94002" lon="4.78099">
        <ele>201</ele>
        <time>2018-04-05T10:50:44Z</time>
      </trkpt>
      <trkpt lat="45.94002" lon="4.78092">
        <ele>201</ele>
        <time>2018-04-05T10:50:45Z</time>
      </trkpt>
      <trkpt lat="45.94004" lon="4.78084">
        <ele>200</ele>
        <time>2018-04-05T10:50:46Z</time>
      </trkpt>
      <trkpt lat="45.94005" lon="4.78076">
        <ele>200</ele>
        <time>2018-04-05T10:50:47Z</time>
      </trkpt>
      <trkpt lat="45.94006" lon="4.78069">
        <ele>201</ele>
        <time>2018-04-05T10:50:48Z</time>
      </trkpt>
      <trkpt lat="45.94008" lon="4.78061">
        <ele>201</ele>
        <time>2018-04-05T10:50:49Z</time>
      </trkpt>
      <trkpt lat="45.9401" lon="4.78054">
        <ele>201</ele>
        <time>2018-04-05T10:50:50Z</time>
      </trkpt>
      <trkpt lat="45.94011" lon="4.78047">
        <ele>201</ele>
        <time>2018-04-05T10:50:51Z</time>
      </trkpt>
      <trkpt lat="45.94013" lon="4.78041">
        <ele>201</ele>
        <time>2018-04-05T10:50:52Z</time>
      </trkpt>
      <trkpt lat="45.94014" lon="4.78034">
        <ele>201</ele>
        <time>2018-04-05T10:50:53Z</time>
      </trkpt>
      <trkpt lat="45.94015" lon="4.78027">
        <ele>201</ele>
        <time>2018-04-05T10:50:54Z</time>
      </trkpt>
      <trkpt lat="45.94016" lon="4.78021">
        <ele>201</ele>
        <time>2018-04-05T10:50:55Z</time>
      </trkpt>
      <trkpt lat="45.94018" lon="4.78014">
        <ele>200</ele>
        <time>2018-04-05T10:50:56Z</time>
      </trkpt>
      <trkpt lat="45.9402" lon="4.78008">
        <ele>200</ele>
        <time>2018-04-05T10:50:57Z</time>
      </trkpt>
      <trkpt lat="45.9402" lon="4.78001">
        <ele>200</ele>
        <time>2018-04-05T10:50:58Z</time>
      </trkpt>
      <trkpt lat="45.94021" lon="4.77994">
        <ele>199</ele>
        <time>2018-04-05T10:50:59Z</time>
      </trkpt>
      <trkpt lat="45.94022" lon="4.77987">
        <ele>200</ele>
        <time>2018-04-05T10:51:00Z</time>
      </trkpt>
      <trkpt lat="45.94023" lon="4.77979">
        <ele>200</ele>
        <time>2018-04-05T10:51:01Z</time>
      </trkpt>
      <trkpt lat="45.94024" lon="4.77972">
        <ele>200</ele>
        <time>2018-04-05T10:51:02Z</time>
      </trkpt>
      <trkpt lat="45.94025" lon="4.77965">
        <ele>200</ele>
        <time>2018-04-05T10:51:03Z</time>
      </trkpt>
      <trkpt lat="45.94026" lon="4.77957">
        <ele>200</ele>
        <time>2018-04-05T10:51:04Z</time>
      </trkpt>
      <trkpt lat="45.94028" lon="4.77948">
        <ele>200</ele>
        <time>2018-04-05T10:51:05Z</time>
      </trkpt>
      <trkpt lat="45.94029" lon="4.77942">
        <ele>200</ele>
        <time>2018-04-05T10:51:06Z</time>
      </trkpt>
      <trkpt lat="45.94029" lon="4.77929">
        <ele>200</ele>
        <time>2018-04-05T10:51:08Z</time>
      </trkpt>
      <trkpt lat="45.94025" lon="4.77924">
        <ele>199</ele>
        <time>2018-04-05T10:51:09Z</time>
      </trkpt>
      <trkpt lat="45.9402" lon="4.77921">
        <ele>198</ele>
        <time>2018-04-05T10:51:10Z</time>
      </trkpt>
      <trkpt lat="45.94013" lon="4.77922">
        <ele>197</ele>
        <time>2018-04-05T10:51:11Z</time>
      </trkpt>
      <trkpt lat="45.94007" lon="4.77923">
        <ele>196</ele>
        <time>2018-04-05T10:51:12Z</time>
      </trkpt>
      <trkpt lat="45.94" lon="4.77926">
        <ele>196</ele>
        <time>2018-04-05T10:51:13Z</time>
      </trkpt>
      <trkpt lat="45.93993" lon="4.7793">
        <ele>192</ele>
        <time>2018-04-05T10:51:14Z</time>
      </trkpt>
      <trkpt lat="45.93985" lon="4.77935">
        <ele>192</ele>
        <time>2018-04-05T10:51:15Z</time>
      </trkpt>
      <trkpt lat="45.93977" lon="4.77939">
        <ele>191</ele>
        <time>2018-04-05T10:51:16Z</time>
      </trkpt>
      <trkpt lat="45.9397" lon="4.77944">
        <ele>191</ele>
        <time>2018-04-05T10:51:17Z</time>
      </trkpt>
      <trkpt lat="45.93962" lon="4.77949">
        <ele>190</ele>
        <time>2018-04-05T10:51:18Z</time>
      </trkpt>
      <trkpt lat="45.93955" lon="4.77955">
        <ele>190</ele>
        <time>2018-04-05T10:51:19Z</time>
      </trkpt>
      <trkpt lat="45.93948" lon="4.77959">
        <ele>189</ele>
        <time>2018-04-05T10:51:20Z</time>
      </trkpt>
      <trkpt lat="45.93941" lon="4.77964">
        <ele>189</ele>
        <time>2018-04-05T10:51:21Z</time>
      </trkpt>
      <trkpt lat="45.93934" lon="4.77968">
        <ele>189</ele>
        <time>2018-04-05T10:51:22Z</time>
      </trkpt>
      <trkpt lat="45.93927" lon="4.77973">
        <ele>188</ele>
        <time>2018-04-05T10:51:23Z</time>
      </trkpt>
      <trkpt lat="45.93921" lon="4.77976">
        <ele>188</ele>
        <time>2018-04-05T10:51:24Z</time>
      </trkpt>
      <trkpt lat="45.93913" lon="4.7798">
        <ele>182</ele>
        <time>2018-04-05T10:51:25Z</time>
      </trkpt>
      <trkpt lat="45.93908" lon="4.77985">
        <ele>183</ele>
        <time>2018-04-05T10:51:26Z</time>
      </trkpt>
      <trkpt lat="45.93901" lon="4.7799">
        <ele>182</ele>
        <time>2018-04-05T10:51:27Z</time>
      </trkpt>
      <trkpt lat="45.93895" lon="4.77996">
        <ele>182</ele>
        <time>2018-04-05T10:51:28Z</time>
      </trkpt>
      <trkpt lat="45.9389" lon="4.78003">
        <ele>184</ele>
        <time>2018-04-05T10:51:29Z</time>
      </trkpt>
      <trkpt lat="45.93885" lon="4.78009">
        <ele>184</ele>
        <time>2018-04-05T10:51:30Z</time>
      </trkpt>
      <trkpt lat="45.93881" lon="4.78013">
        <ele>184</ele>
        <time>2018-04-05T10:51:31Z</time>
      </trkpt>
      <trkpt lat="45.93874" lon="4.78013">
        <ele>183</ele>
        <time>2018-04-05T10:51:32Z</time>
      </trkpt>
      <trkpt lat="45.93869" lon="4.78009">
        <ele>183</ele>
        <time>2018-04-05T10:51:33Z</time>
      </trkpt>
      <trkpt lat="45.93864" lon="4.78004">
        <ele>183</ele>
        <time>2018-04-05T10:51:34Z</time>
      </trkpt>
      <trkpt lat="45.93858" lon="4.77999">
        <ele>179</ele>
        <time>2018-04-05T10:51:35Z</time>
      </trkpt>
      <trkpt lat="45.93852" lon="4.77994">
        <ele>179</ele>
        <time>2018-04-05T10:51:36Z</time>
      </trkpt>
      <trkpt lat="45.93847" lon="4.77991">
        <ele>179</ele>
        <time>2018-04-05T10:51:37Z</time>
      </trkpt>
      <trkpt lat="45.93842" lon="4.77985">
        <ele>178</ele>
        <time>2018-04-05T10:51:38Z</time>
      </trkpt>
      <trkpt lat="45.93838" lon="4.7798">
        <ele>178</ele>
        <time>2018-04-05T10:51:39Z</time>
      </trkpt>
      <trkpt lat="45.93834" lon="4.77974">
        <ele>178</ele>
        <time>2018-04-05T10:51:40Z</time>
      </trkpt>
      <trkpt lat="45.9383" lon="4.77969">
        <ele>172</ele>
        <time>2018-04-05T10:51:41Z</time>
      </trkpt>
      <trkpt lat="45.93826" lon="4.77963">
        <ele>171</ele>
        <time>2018-04-05T10:51:42Z</time>
      </trkpt>
      <trkpt lat="45.93822" lon="4.77958">
        <ele>170</ele>
        <time>2018-04-05T10:51:43Z</time>
      </trkpt>
      <trkpt lat="45.93818" lon="4.77952">
        <ele>170</ele>
        <time>2018-04-05T10:51:44Z</time>
      </trkpt>
      <trkpt lat="45.93814" lon="4.77947">
        <ele>169</ele>
        <time>2018-04-05T10:51:45Z</time>
      </trkpt>
      <trkpt lat="45.9381" lon="4.77942">
        <ele>169</ele>
        <time>2018-04-05T10:51:46Z</time>
      </trkpt>
      <trkpt lat="45.93806" lon="4.77936">
        <ele>169</ele>
        <time>2018-04-05T10:51:47Z</time>
      </trkpt>
      <trkpt lat="45.93802" lon="4.77932">
        <ele>168</ele>
        <time>2018-04-05T10:51:48Z</time>
      </trkpt>
      <trkpt lat="45.93799" lon="4.77927">
        <ele>168</ele>
        <time>2018-04-05T10:51:49Z</time>
      </trkpt>
      <trkpt lat="45.93795" lon="4.77923">
        <ele>168</ele>
        <time>2018-04-05T10:51:50Z</time>
      </trkpt>
      <trkpt lat="45.93792" lon="4.77918">
        <ele>168</ele>
        <time>2018-04-05T10:51:51Z</time>
      </trkpt>
      <trkpt lat="45.93788" lon="4.77913">
        <ele>166</ele>
        <time>2018-04-05T10:51:52Z</time>
      </trkpt>
      <trkpt lat="45.93784" lon="4.77908">
        <ele>166</ele>
        <time>2018-04-05T10:51:53Z</time>
      </trkpt>
      <trkpt lat="45.9378" lon="4.77904">
        <ele>166</ele>
        <time>2018-04-05T10:51:54Z</time>
      </trkpt>
      <trkpt lat="45.93776" lon="4.77899">
        <ele>166</ele>
        <time>2018-04-05T10:51:55Z</time>
      </trkpt>
      <trkpt lat="45.93772" lon="4.77894">
        <ele>166</ele>
        <time>2018-04-05T10:51:56Z</time>
      </trkpt>
      <trkpt lat="45.93768" lon="4.77889">
        <ele>166</ele>
        <time>2018-04-05T10:51:57Z</time>
      </trkpt>
      <trkpt lat="45.93764" lon="4.77884">
        <ele>166</ele>
        <time>2018-04-05T10:51:58Z</time>
      </trkpt>
      <trkpt lat="45.9376" lon="4.77879">
        <ele>166</ele>
        <time>2018-04-05T10:51:59Z</time>
      </trkpt>
      <trkpt lat="45.93756" lon="4.77873">
        <ele>166</ele>
        <time>2018-04-05T10:52:00Z</time>
      </trkpt>
      <trkpt lat="45.93752" lon="4.77869">
        <ele>166</ele>
        <time>2018-04-05T10:52:01Z</time>
      </trkpt>
      <trkpt lat="45.93748" lon="4.77863">
        <ele>167</ele>
        <time>2018-04-05T10:52:02Z</time>
      </trkpt>
      <trkpt lat="45.93744" lon="4.77859">
        <ele>167</ele>
        <time>2018-04-05T10:52:03Z</time>
      </trkpt>
      <trkpt lat="45.9374" lon="4.77853">
        <ele>167</ele>
        <time>2018-04-05T10:52:04Z</time>
      </trkpt>
      <trkpt lat="45.93736" lon="4.77848">
        <ele>167</ele>
        <time>2018-04-05T10:52:05Z</time>
      </trkpt>
      <trkpt lat="45.93732" lon="4.77842">
        <ele>167</ele>
        <time>2018-04-05T10:52:06Z</time>
      </trkpt>
      <trkpt lat="45.93728" lon="4.77837">
        <ele>167</ele>
        <time>2018-04-05T10:52:07Z</time>
      </trkpt>
      <trkpt lat="45.93724" lon="4.77832">
        <ele>168</ele>
        <time>2018-04-05T10:52:08Z</time>
      </trkpt>
      <trkpt lat="45.9372" lon="4.77826">
        <ele>168</ele>
        <time>2018-04-05T10:52:09Z</time>
      </trkpt>
      <trkpt lat="45.93716" lon="4.7782">
        <ele>169</ele>
        <time>2018-04-05T10:52:10Z</time>
      </trkpt>
      <trkpt lat="45.93711" lon="4.77814">
        <ele>169</ele>
        <time>2018-04-05T10:52:11Z</time>
      </trkpt>
      <trkpt lat="45.93707" lon="4.77808">
        <ele>169</ele>
        <time>2018-04-05T10:52:12Z</time>
      </trkpt>
      <trkpt lat="45.93702" lon="4.77801">
        <ele>169</ele>
        <time>2018-04-05T10:52:13Z</time>
      </trkpt>
      <trkpt lat="45.93697" lon="4.77795">
        <ele>169</ele>
        <time>2018-04-05T10:52:14Z</time>
      </trkpt>
      <trkpt lat="45.93692" lon="4.77789">
        <ele>170</ele>
        <time>2018-04-05T10:52:15Z</time>
      </trkpt>
      <trkpt lat="45.93687" lon="4.77782">
        <ele>170</ele>
        <time>2018-04-05T10:52:16Z</time>
      </trkpt>
      <trkpt lat="45.93683" lon="4.77776">
        <ele>170</ele>
        <time>2018-04-05T10:52:17Z</time>
      </trkpt>
      <trkpt lat="45.93678" lon="4.77769">
        <ele>170</ele>
        <time>2018-04-05T10:52:18Z</time>
      </trkpt>
      <trkpt lat="45.93673" lon="4.77762">
        <ele>170</ele>
        <time>2018-04-05T10:52:19Z</time>
      </trkpt>
      <trkpt lat="45.93669" lon="4.77754">
        <ele>171</ele>
        <time>2018-04-05T10:52:20Z</time>
      </trkpt>
      <trkpt lat="45.93663" lon="4.77747">
        <ele>171</ele>
        <time>2018-04-05T10:52:21Z</time>
      </trkpt>
      <trkpt lat="45.93658" lon="4.77739">
        <ele>170</ele>
        <time>2018-04-05T10:52:22Z</time>
      </trkpt>
      <trkpt lat="45.93653" lon="4.77731">
        <ele>170</ele>
        <time>2018-04-05T10:52:23Z</time>
      </trkpt>
      <trkpt lat="45.93648" lon="4.77721">
        <ele>170</ele>
        <time>2018-04-05T10:52:24Z</time>
      </trkpt>
      <trkpt lat="45.93643" lon="4.77713">
        <ele>170</ele>
        <time>2018-04-05T10:52:25Z</time>
      </trkpt>
      <trkpt lat="45.93638" lon="4.77703">
        <ele>170</ele>
        <time>2018-04-05T10:52:26Z</time>
      </trkpt>
      <trkpt lat="45.93633" lon="4.77693">
        <ele>169</ele>
        <time>2018-04-05T10:52:27Z</time>
      </trkpt>
      <trkpt lat="45.93628" lon="4.77683">
        <ele>169</ele>
        <time>2018-04-05T10:52:28Z</time>
      </trkpt>
      <trkpt lat="45.93623" lon="4.77674">
        <ele>169</ele>
        <time>2018-04-05T10:52:29Z</time>
      </trkpt>
      <trkpt lat="45.93618" lon="4.77664">
        <ele>169</ele>
        <time>2018-04-05T10:52:30Z</time>
      </trkpt>
      <trkpt lat="45.93614" lon="4.77653">
        <ele>169</ele>
        <time>2018-04-05T10:52:31Z</time>
      </trkpt>
      <trkpt lat="45.93609" lon="4.77644">
        <ele>169</ele>
        <time>2018-04-05T10:52:32Z</time>
      </trkpt>
      <trkpt lat="45.93606" lon="4.77634">
        <ele>169</ele>
        <time>2018-04-05T10:52:33Z</time>
      </trkpt>
      <trkpt lat="45.93602" lon="4.77625">
        <ele>170</ele>
        <time>2018-04-05T10:52:34Z</time>
      </trkpt>
      <trkpt lat="45.93598" lon="4.77617">
        <ele>170</ele>
        <time>2018-04-05T10:52:35Z</time>
      </trkpt>
      <trkpt lat="45.93595" lon="4.77608">
        <ele>170</ele>
        <time>2018-04-05T10:52:36Z</time>
      </trkpt>
      <trkpt lat="45.93592" lon="4.776">
        <ele>170</ele>
        <time>2018-04-05T10:52:37Z</time>
      </trkpt>
      <trkpt lat="45.93588" lon="4.7759">
        <ele>170</ele>
        <time>2018-04-05T10:52:38Z</time>
      </trkpt>
      <trkpt lat="45.93585" lon="4.77582">
        <ele>170</ele>
        <time>2018-04-05T10:52:39Z</time>
      </trkpt>
      <trkpt lat="45.93583" lon="4.77573">
        <ele>170</ele>
        <time>2018-04-05T10:52:40Z</time>
      </trkpt>
      <trkpt lat="45.9358" lon="4.77566">
        <ele>170</ele>
        <time>2018-04-05T10:52:41Z</time>
      </trkpt>
      <trkpt lat="45.93578" lon="4.77558">
        <ele>169</ele>
        <time>2018-04-05T10:52:42Z</time>
      </trkpt>
      <trkpt lat="45.93576" lon="4.7755">
        <ele>169</ele>
        <time>2018-04-05T10:52:43Z</time>
      </trkpt>
      <trkpt lat="45.93574" lon="4.77542">
        <ele>169</ele>
        <time>2018-04-05T10:52:44Z</time>
      </trkpt>
      <trkpt lat="45.93572" lon="4.77535">
        <ele>169</ele>
        <time>2018-04-05T10:52:45Z</time>
      </trkpt>
      <trkpt lat="45.9357" lon="4.77528">
        <ele>169</ele>
        <time>2018-04-05T10:52:46Z</time>
      </trkpt>
      <trkpt lat="45.93569" lon="4.7752">
        <ele>169</ele>
        <time>2018-04-05T10:52:47Z</time>
      </trkpt>
      <trkpt lat="45.93567" lon="4.77512">
        <ele>169</ele>
        <time>2018-04-05T10:52:48Z</time>
      </trkpt>
      <trkpt lat="45.93565" lon="4.77505">
        <ele>169</ele>
        <time>2018-04-05T10:52:49Z</time>
      </trkpt>
      <trkpt lat="45.93564" lon="4.77497">
        <ele>169</ele>
        <time>2018-04-05T10:52:50Z</time>
      </trkpt>
      <trkpt lat="45.93562" lon="4.77489">
        <ele>169</ele>
        <time>2018-04-05T10:52:51Z</time>
      </trkpt>
      <trkpt lat="45.93562" lon="4.77481">
        <ele>169</ele>
        <time>2018-04-05T10:52:52Z</time>
      </trkpt>
      <trkpt lat="45.9356" lon="4.77473">
        <ele>169</ele>
        <time>2018-04-05T10:52:53Z</time>
      </trkpt>
      <trkpt lat="45.93558" lon="4.77465">
        <ele>169</ele>
        <time>2018-04-05T10:52:54Z</time>
      </trkpt>
      <trkpt lat="45.93558" lon="4.77459">
        <ele>169</ele>
        <time>2018-04-05T10:52:55Z</time>
      </trkpt>
      <trkpt lat="45.93555" lon="4.77451">
        <ele>169</ele>
        <time>2018-04-05T10:52:56Z</time>
      </trkpt>
      <trkpt lat="45.93552" lon="4.77444">
        <ele>169</ele>
        <time>2018-04-05T10:52:57Z</time>
      </trkpt>
      <trkpt lat="45.9355" lon="4.77435">
        <ele>169</ele>
        <time>2018-04-05T10:52:58Z</time>
      </trkpt>
      <trkpt lat="45.93549" lon="4.77427">
        <ele>170</ele>
        <time>2018-04-05T10:52:59Z</time>
      </trkpt>
      <trkpt lat="45.93547" lon="4.77419">
        <ele>170</ele>
        <time>2018-04-05T10:53:00Z</time>
      </trkpt>
      <trkpt lat="45.93545" lon="4.7741">
        <ele>170</ele>
        <time>2018-04-05T10:53:01Z</time>
      </trkpt>
      <trkpt lat="45.93543" lon="4.77401">
        <ele>170</ele>
        <time>2018-04-05T10:53:02Z</time>
      </trkpt>
      <trkpt lat="45.9354" lon="4.77393">
        <ele>170</ele>
        <time>2018-04-05T10:53:03Z</time>
      </trkpt>
      <trkpt lat="45.93538" lon="4.77386">
        <ele>170</ele>
        <time>2018-04-05T10:53:04Z</time>
      </trkpt>
      <trkpt lat="45.93537" lon="4.77377">
        <ele>170</ele>
        <time>2018-04-05T10:53:05Z</time>
      </trkpt>
      <trkpt lat="45.93536" lon="4.7737">
        <ele>170</ele>
        <time>2018-04-05T10:53:06Z</time>
      </trkpt>
      <trkpt lat="45.93535" lon="4.77363">
        <ele>170</ele>
        <time>2018-04-05T10:53:07Z</time>
      </trkpt>
      <trkpt lat="45.93533" lon="4.77355">
        <ele>170</ele>
        <time>2018-04-05T10:53:08Z</time>
      </trkpt>
      <trkpt lat="45.9353" lon="4.77345">
        <ele>170</ele>
        <time>2018-04-05T10:53:09Z</time>
      </trkpt>
      <trkpt lat="45.93528" lon="4.77338">
        <ele>170</ele>
        <time>2018-04-05T10:53:10Z</time>
      </trkpt>
      <trkpt lat="45.93526" lon="4.7733">
        <ele>170</ele>
        <time>2018-04-05T10:53:11Z</time>
      </trkpt>
      <trkpt lat="45.93525" lon="4.77323">
        <ele>170</ele>
        <time>2018-04-05T10:53:12Z</time>
      </trkpt>
      <trkpt lat="45.93523" lon="4.77316">
        <ele>170</ele>
        <time>2018-04-05T10:53:13Z</time>
      </trkpt>
      <trkpt lat="45.93522" lon="4.77309">
        <ele>170</ele>
        <time>2018-04-05T10:53:14Z</time>
      </trkpt>
      <trkpt lat="45.93519" lon="4.77301">
        <ele>170</ele>
        <time>2018-04-05T10:53:15Z</time>
      </trkpt>
      <trkpt lat="45.93518" lon="4.77292">
        <ele>170</ele>
        <time>2018-04-05T10:53:16Z</time>
      </trkpt>
      <trkpt lat="45.93516" lon="4.77283">
        <ele>170</ele>
        <time>2018-04-05T10:53:17Z</time>
      </trkpt>
      <trkpt lat="45.93514" lon="4.77276">
        <ele>170</ele>
        <time>2018-04-05T10:53:18Z</time>
      </trkpt>
      <trkpt lat="45.93512" lon="4.77269">
        <ele>170</ele>
        <time>2018-04-05T10:53:19Z</time>
      </trkpt>
      <trkpt lat="45.93512" lon="4.77262">
        <ele>170</ele>
        <time>2018-04-05T10:53:20Z</time>
      </trkpt>
      <trkpt lat="45.9351" lon="4.77254">
        <ele>170</ele>
        <time>2018-04-05T10:53:21Z</time>
      </trkpt>
      <trkpt lat="45.93508" lon="4.77247">
        <ele>170</ele>
        <time>2018-04-05T10:53:22Z</time>
      </trkpt>
      <trkpt lat="45.93506" lon="4.7724">
        <ele>169</ele>
        <time>2018-04-05T10:53:23Z</time>
      </trkpt>
      <trkpt lat="45.93506" lon="4.77232">
        <ele>169</ele>
        <time>2018-04-05T10:53:24Z</time>
      </trkpt>
      <trkpt lat="45.93505" lon="4.77225">
        <ele>169</ele>
        <time>2018-04-05T10:53:25Z</time>
      </trkpt>
      <trkpt lat="45.93503" lon="4.77218">
        <ele>169</ele>
        <time>2018-04-05T10:53:26Z</time>
      </trkpt>
      <trkpt lat="45.935" lon="4.7721">
        <ele>169</ele>
        <time>2018-04-05T10:53:27Z</time>
      </trkpt>
      <trkpt lat="45.93498" lon="4.77203">
        <ele>169</ele>
        <time>2018-04-05T10:53:28Z</time>
      </trkpt>
      <trkpt lat="45.93496" lon="4.77196">
        <ele>169</ele>
        <time>2018-04-05T10:53:29Z</time>
      </trkpt>
      <trkpt lat="45.93494" lon="4.77189">
        <ele>169</ele>
        <time>2018-04-05T10:53:30Z</time>
      </trkpt>
      <trkpt lat="45.93492" lon="4.77182">
        <ele>169</ele>
        <time>2018-04-05T10:53:31Z</time>
      </trkpt>
      <trkpt lat="45.93491" lon="4.77173">
        <ele>169</ele>
        <time>2018-04-05T10:53:32Z</time>
      </trkpt>
      <trkpt lat="45.93489" lon="4.77165">
        <ele>169</ele>
        <time>2018-04-05T10:53:33Z</time>
      </trkpt>
      <trkpt lat="45.93488" lon="4.77157">
        <ele>169</ele>
        <time>2018-04-05T10:53:34Z</time>
      </trkpt>
      <trkpt lat="45.93486" lon="4.7715">
        <ele>169</ele>
        <time>2018-04-05T10:53:35Z</time>
      </trkpt>
      <trkpt lat="45.93483" lon="4.77143">
        <ele>169</ele>
        <time>2018-04-05T10:53:36Z</time>
      </trkpt>
      <trkpt lat="45.93482" lon="4.77135">
        <ele>169</ele>
        <time>2018-04-05T10:53:37Z</time>
      </trkpt>
      <trkpt lat="45.93481" lon="4.77127">
        <ele>169</ele>
        <time>2018-04-05T10:53:38Z</time>
      </trkpt>
      <trkpt lat="45.9348" lon="4.7712">
        <ele>169</ele>
        <time>2018-04-05T10:53:39Z</time>
      </trkpt>
      <trkpt lat="45.93479" lon="4.77113">
        <ele>169</ele>
        <time>2018-04-05T10:53:40Z</time>
      </trkpt>
      <trkpt lat="45.93478" lon="4.77105">
        <ele>169</ele>
        <time>2018-04-05T10:53:41Z</time>
      </trkpt>
      <trkpt lat="45.93476" lon="4.77097">
        <ele>169</ele>
        <time>2018-04-05T10:53:42Z</time>
      </trkpt>
      <trkpt lat="45.93474" lon="4.77089">
        <ele>169</ele>
        <time>2018-04-05T10:53:43Z</time>
      </trkpt>
      <trkpt lat="45.93473" lon="4.7708">
        <ele>170</ele>
        <time>2018-04-05T10:53:44Z</time>
      </trkpt>
      <trkpt lat="45.93471" lon="4.77072">
        <ele>170</ele>
        <time>2018-04-05T10:53:45Z</time>
      </trkpt>
      <trkpt lat="45.93469" lon="4.77063">
        <ele>170</ele>
        <time>2018-04-05T10:53:46Z</time>
      </trkpt>
      <trkpt lat="45.93467" lon="4.77055">
        <ele>170</ele>
        <time>2018-04-05T10:53:47Z</time>
      </trkpt>
      <trkpt lat="45.93466" lon="4.77046">
        <ele>170</ele>
        <time>2018-04-05T10:53:48Z</time>
      </trkpt>
      <trkpt lat="45.93465" lon="4.77038">
        <ele>170</ele>
        <time>2018-04-05T10:53:49Z</time>
      </trkpt>
      <trkpt lat="45.93464" lon="4.77029">
        <ele>170</ele>
        <time>2018-04-05T10:53:50Z</time>
      </trkpt>
      <trkpt lat="45.93463" lon="4.77019">
        <ele>170</ele>
        <time>2018-04-05T10:53:51Z</time>
      </trkpt>
      <trkpt lat="45.93461" lon="4.77011">
        <ele>170</ele>
        <time>2018-04-05T10:53:52Z</time>
      </trkpt>
      <trkpt lat="45.9346" lon="4.77002">
        <ele>170</ele>
        <time>2018-04-05T10:53:53Z</time>
      </trkpt>
      <trkpt lat="45.93459" lon="4.76994">
        <ele>170</ele>
        <time>2018-04-05T10:53:54Z</time>
      </trkpt>
      <trkpt lat="45.93458" lon="4.76985">
        <ele>170</ele>
        <time>2018-04-05T10:53:55Z</time>
      </trkpt>
      <trkpt lat="45.93456" lon="4.76977">
        <ele>170</ele>
        <time>2018-04-05T10:53:56Z</time>
      </trkpt>
      <trkpt lat="45.93455" lon="4.76968">
        <ele>170</ele>
        <time>2018-04-05T10:53:57Z</time>
      </trkpt>
      <trkpt lat="45.93453" lon="4.76959">
        <ele>170</ele>
        <time>2018-04-05T10:53:58Z</time>
      </trkpt>
      <trkpt lat="45.93452" lon="4.76951">
        <ele>170</ele>
        <time>2018-04-05T10:53:59Z</time>
      </trkpt>
      <trkpt lat="45.93451" lon="4.76944">
        <ele>170</ele>
        <time>2018-04-05T10:54:00Z</time>
      </trkpt>
      <trkpt lat="45.9345" lon="4.76936">
        <ele>170</ele>
        <time>2018-04-05T10:54:01Z</time>
      </trkpt>
      <trkpt lat="45.93449" lon="4.76928">
        <ele>170</ele>
        <time>2018-04-05T10:54:02Z</time>
      </trkpt>
      <trkpt lat="45.93447" lon="4.76919">
        <ele>170</ele>
        <time>2018-04-05T10:54:03Z</time>
      </trkpt>
      <trkpt lat="45.93446" lon="4.76912">
        <ele>170</ele>
        <time>2018-04-05T10:54:04Z</time>
      </trkpt>
      <trkpt lat="45.93445" lon="4.76904">
        <ele>170</ele>
        <time>2018-04-05T10:54:05Z</time>
      </trkpt>
      <trkpt lat="45.93442" lon="4.76896">
        <ele>170</ele>
        <time>2018-04-05T10:54:06Z</time>
      </trkpt>
      <trkpt lat="45.93441" lon="4.76888">
        <ele>170</ele>
        <time>2018-04-05T10:54:07Z</time>
      </trkpt>
      <trkpt lat="45.93438" lon="4.76881">
        <ele>171</ele>
        <time>2018-04-05T10:54:08Z</time>
      </trkpt>
      <trkpt lat="45.93436" lon="4.76873">
        <ele>171</ele>
        <time>2018-04-05T10:54:09Z</time>
      </trkpt>
      <trkpt lat="45.93434" lon="4.76866">
        <ele>171</ele>
        <time>2018-04-05T10:54:10Z</time>
      </trkpt>
      <trkpt lat="45.9343" lon="4.7686">
        <ele>171</ele>
        <time>2018-04-05T10:54:11Z</time>
      </trkpt>
      <trkpt lat="45.93428" lon="4.76853">
        <ele>171</ele>
        <time>2018-04-05T10:54:12Z</time>
      </trkpt>
      <trkpt lat="45.93424" lon="4.76846">
        <ele>171</ele>
        <time>2018-04-05T10:54:13Z</time>
      </trkpt>
      <trkpt lat="45.93421" lon="4.7684">
        <ele>172</ele>
        <time>2018-04-05T10:54:14Z</time>
      </trkpt>
      <trkpt lat="45.93418" lon="4.76833">
        <ele>172</ele>
        <time>2018-04-05T10:54:15Z</time>
      </trkpt>
      <trkpt lat="45.93414" lon="4.76826">
        <ele>172</ele>
        <time>2018-04-05T10:54:16Z</time>
      </trkpt>
      <trkpt lat="45.9341" lon="4.7682">
        <ele>172</ele>
        <time>2018-04-05T10:54:17Z</time>
      </trkpt>
      <trkpt lat="45.93406" lon="4.76813">
        <ele>172</ele>
        <time>2018-04-05T10:54:18Z</time>
      </trkpt>
      <trkpt lat="45.93403" lon="4.76807">
        <ele>172</ele>
        <time>2018-04-05T10:54:19Z</time>
      </trkpt>
      <trkpt lat="45.93399" lon="4.76802">
        <ele>172</ele>
        <time>2018-04-05T10:54:20Z</time>
      </trkpt>
      <trkpt lat="45.93396" lon="4.76797">
        <ele>172</ele>
        <time>2018-04-05T10:54:21Z</time>
      </trkpt>
      <trkpt lat="45.93391" lon="4.76791">
        <ele>172</ele>
        <time>2018-04-05T10:54:22Z</time>
      </trkpt>
      <trkpt lat="45.93386" lon="4.76785">
        <ele>172</ele>
        <time>2018-04-05T10:54:23Z</time>
      </trkpt>
      <trkpt lat="45.93382" lon="4.7678">
        <ele>172</ele>
        <time>2018-04-05T10:54:24Z</time>
      </trkpt>
      <trkpt lat="45.93377" lon="4.76776">
        <ele>172</ele>
        <time>2018-04-05T10:54:25Z</time>
      </trkpt>
      <trkpt lat="45.93372" lon="4.76772">
        <ele>172</ele>
        <time>2018-04-05T10:54:26Z</time>
      </trkpt>
      <trkpt lat="45.93367" lon="4.76768">
        <ele>172</ele>
        <time>2018-04-05T10:54:27Z</time>
      </trkpt>
      <trkpt lat="45.93363" lon="4.76764">
        <ele>172</ele>
        <time>2018-04-05T10:54:28Z</time>
      </trkpt>
      <trkpt lat="45.93359" lon="4.76759">
        <ele>172</ele>
        <time>2018-04-05T10:54:29Z</time>
      </trkpt>
      <trkpt lat="45.93353" lon="4.76755">
        <ele>172</ele>
        <time>2018-04-05T10:54:30Z</time>
      </trkpt>
      <trkpt lat="45.93348" lon="4.76751">
        <ele>172</ele>
        <time>2018-04-05T10:54:31Z</time>
      </trkpt>
      <trkpt lat="45.93344" lon="4.76746">
        <ele>173</ele>
        <time>2018-04-05T10:54:32Z</time>
      </trkpt>
      <trkpt lat="45.9334" lon="4.76743">
        <ele>173</ele>
        <time>2018-04-05T10:54:33Z</time>
      </trkpt>
      <trkpt lat="45.93335" lon="4.76737">
        <ele>172</ele>
        <time>2018-04-05T10:54:34Z</time>
      </trkpt>
      <trkpt lat="45.9333" lon="4.76733">
        <ele>172</ele>
        <time>2018-04-05T10:54:35Z</time>
      </trkpt>
      <trkpt lat="45.93325" lon="4.76729">
        <ele>172</ele>
        <time>2018-04-05T10:54:36Z</time>
      </trkpt>
      <trkpt lat="45.93321" lon="4.76725">
        <ele>172</ele>
        <time>2018-04-05T10:54:37Z</time>
      </trkpt>
      <trkpt lat="45.93316" lon="4.7672">
        <ele>172</ele>
        <time>2018-04-05T10:54:38Z</time>
      </trkpt>
      <trkpt lat="45.93311" lon="4.76716">
        <ele>172</ele>
        <time>2018-04-05T10:54:39Z</time>
      </trkpt>
      <trkpt lat="45.93306" lon="4.76712">
        <ele>172</ele>
        <time>2018-04-05T10:54:40Z</time>
      </trkpt>
      <trkpt lat="45.93302" lon="4.76707">
        <ele>172</ele>
        <time>2018-04-05T10:54:41Z</time>
      </trkpt>
      <trkpt lat="45.93298" lon="4.76702">
        <ele>172</ele>
        <time>2018-04-05T10:54:42Z</time>
      </trkpt>
      <trkpt lat="45.93295" lon="4.76698">
        <ele>172</ele>
        <time>2018-04-05T10:54:43Z</time>
      </trkpt>
      <trkpt lat="45.93287" lon="4.7669">
        <ele>172</ele>
        <time>2018-04-05T10:54:45Z</time>
      </trkpt>
      <trkpt lat="45.93283" lon="4.76686">
        <ele>172</ele>
        <time>2018-04-05T10:54:46Z</time>
      </trkpt>
      <trkpt lat="45.93275" lon="4.76679">
        <ele>172</ele>
        <time>2018-04-05T10:54:48Z</time>
      </trkpt>
      <trkpt lat="45.93271" lon="4.76675">
        <ele>172</ele>
        <time>2018-04-05T10:54:49Z</time>
      </trkpt>
      <trkpt lat="45.93267" lon="4.7667">
        <ele>172</ele>
        <time>2018-04-05T10:54:50Z</time>
      </trkpt>
      <trkpt lat="45.93263" lon="4.76665">
        <ele>171</ele>
        <time>2018-04-05T10:54:51Z</time>
      </trkpt>
      <trkpt lat="45.93259" lon="4.76661">
        <ele>171</ele>
        <time>2018-04-05T10:54:52Z</time>
      </trkpt>
      <trkpt lat="45.93255" lon="4.76657">
        <ele>171</ele>
        <time>2018-04-05T10:54:53Z</time>
      </trkpt>
      <trkpt lat="45.93251" lon="4.76653">
        <ele>171</ele>
        <time>2018-04-05T10:54:54Z</time>
      </trkpt>
      <trkpt lat="45.93247" lon="4.76648">
        <ele>171</ele>
        <time>2018-04-05T10:54:55Z</time>
      </trkpt>
      <trkpt lat="45.93242" lon="4.76643">
        <ele>171</ele>
        <time>2018-04-05T10:54:56Z</time>
      </trkpt>
      <trkpt lat="45.93239" lon="4.76639">
        <ele>171</ele>
        <time>2018-04-05T10:54:57Z</time>
      </trkpt>
      <trkpt lat="45.93235" lon="4.76635">
        <ele>171</ele>
        <time>2018-04-05T10:54:58Z</time>
      </trkpt>
      <trkpt lat="45.9323" lon="4.76631">
        <ele>170</ele>
        <time>2018-04-05T10:54:59Z</time>
      </trkpt>
      <trkpt lat="45.93226" lon="4.76626">
        <ele>170</ele>
        <time>2018-04-05T10:55:00Z</time>
      </trkpt>
      <trkpt lat="45.93221" lon="4.76622">
        <ele>170</ele>
        <time>2018-04-05T10:55:01Z</time>
      </trkpt>
      <trkpt lat="45.93218" lon="4.76618">
        <ele>170</ele>
        <time>2018-04-05T10:55:02Z</time>
      </trkpt>
      <trkpt lat="45.93213" lon="4.76614">
        <ele>170</ele>
        <time>2018-04-05T10:55:03Z</time>
      </trkpt>
      <trkpt lat="45.93209" lon="4.7661">
        <ele>170</ele>
        <time>2018-04-05T10:55:04Z</time>
      </trkpt>
      <trkpt lat="45.93204" lon="4.76605">
        <ele>170</ele>
        <time>2018-04-05T10:55:05Z</time>
      </trkpt>
      <trkpt lat="45.93199" lon="4.76601">
        <ele>170</ele>
        <time>2018-04-05T10:55:06Z</time>
      </trkpt>
      <trkpt lat="45.93194" lon="4.76597">
        <ele>170</ele>
        <time>2018-04-05T10:55:07Z</time>
      </trkpt>
      <trkpt lat="45.93191" lon="4.76592">
        <ele>170</ele>
        <time>2018-04-05T10:55:08Z</time>
      </trkpt>
      <trkpt lat="45.93187" lon="4.76589">
        <ele>171</ele>
        <time>2018-04-05T10:55:09Z</time>
      </trkpt>
      <trkpt lat="45.93182" lon="4.76584">
        <ele>171</ele>
        <time>2018-04-05T10:55:10Z</time>
      </trkpt>
      <trkpt lat="45.93178" lon="4.7658">
        <ele>170</ele>
        <time>2018-04-05T10:55:11Z</time>
      </trkpt>
      <trkpt lat="45.93175" lon="4.76576">
        <ele>170</ele>
        <time>2018-04-05T10:55:12Z</time>
      </trkpt>
      <trkpt lat="45.93171" lon="4.76572">
        <ele>170</ele>
        <time>2018-04-05T10:55:13Z</time>
      </trkpt>
      <trkpt lat="45.93166" lon="4.76568">
        <ele>170</ele>
        <time>2018-04-05T10:55:14Z</time>
      </trkpt>
      <trkpt lat="45.93162" lon="4.76564">
        <ele>170</ele>
        <time>2018-04-05T10:55:15Z</time>
      </trkpt>
      <trkpt lat="45.93155" lon="4.76556">
        <ele>170</ele>
        <time>2018-04-05T10:55:17Z</time>
      </trkpt>
      <trkpt lat="45.9315" lon="4.76551">
        <ele>170</ele>
        <time>2018-04-05T10:55:18Z</time>
      </trkpt>
      <trkpt lat="45.93146" lon="4.76547">
        <ele>170</ele>
        <time>2018-04-05T10:55:19Z</time>
      </trkpt>
      <trkpt lat="45.93141" lon="4.76543">
        <ele>170</ele>
        <time>2018-04-05T10:55:20Z</time>
      </trkpt>
      <trkpt lat="45.93138" lon="4.76539">
        <ele>170</ele>
        <time>2018-04-05T10:55:21Z</time>
      </trkpt>
      <trkpt lat="45.93132" lon="4.76535">
        <ele>170</ele>
        <time>2018-04-05T10:55:22Z</time>
      </trkpt>
      <trkpt lat="45.93129" lon="4.7653">
        <ele>170</ele>
        <time>2018-04-05T10:55:23Z</time>
      </trkpt>
      <trkpt lat="45.93124" lon="4.76525">
        <ele>170</ele>
        <time>2018-04-05T10:55:24Z</time>
      </trkpt>
      <trkpt lat="45.93119" lon="4.7652">
        <ele>170</ele>
        <time>2018-04-05T10:55:25Z</time>
      </trkpt>
      <trkpt lat="45.93115" lon="4.76515">
        <ele>170</ele>
        <time>2018-04-05T10:55:26Z</time>
      </trkpt>
      <trkpt lat="45.93111" lon="4.7651">
        <ele>170</ele>
        <time>2018-04-05T10:55:27Z</time>
      </trkpt>
      <trkpt lat="45.93106" lon="4.76505">
        <ele>170</ele>
        <time>2018-04-05T10:55:28Z</time>
      </trkpt>
      <trkpt lat="45.93102" lon="4.765">
        <ele>169</ele>
        <time>2018-04-05T10:55:29Z</time>
      </trkpt>
      <trkpt lat="45.93098" lon="4.76496">
        <ele>170</ele>
        <time>2018-04-05T10:55:30Z</time>
      </trkpt>
      <trkpt lat="45.93093" lon="4.76492">
        <ele>170</ele>
        <time>2018-04-05T10:55:31Z</time>
      </trkpt>
      <trkpt lat="45.93089" lon="4.76486">
        <ele>170</ele>
        <time>2018-04-05T10:55:32Z</time>
      </trkpt>
      <trkpt lat="45.93085" lon="4.76482">
        <ele>169</ele>
        <time>2018-04-05T10:55:33Z</time>
      </trkpt>
      <trkpt lat="45.93081" lon="4.76478">
        <ele>169</ele>
        <time>2018-04-05T10:55:34Z</time>
      </trkpt>
      <trkpt lat="45.93076" lon="4.76474">
        <ele>169</ele>
        <time>2018-04-05T10:55:35Z</time>
      </trkpt>
      <trkpt lat="45.9307" lon="4.76469">
        <ele>169</ele>
        <time>2018-04-05T10:55:36Z</time>
      </trkpt>
      <trkpt lat="45.93063" lon="4.76461">
        <ele>169</ele>
        <time>2018-04-05T10:55:38Z</time>
      </trkpt>
      <trkpt lat="45.93059" lon="4.76458">
        <ele>169</ele>
        <time>2018-04-05T10:55:39Z</time>
      </trkpt>
      <trkpt lat="45.93054" lon="4.76455">
        <ele>169</ele>
        <time>2018-04-05T10:55:40Z</time>
      </trkpt>
      <trkpt lat="45.93051" lon="4.7645">
        <ele>169</ele>
        <time>2018-04-05T10:55:41Z</time>
      </trkpt>
      <trkpt lat="45.93048" lon="4.76447">
        <ele>169</ele>
        <time>2018-04-05T10:55:42Z</time>
      </trkpt>
      <trkpt lat="45.93043" lon="4.76443">
        <ele>169</ele>
        <time>2018-04-05T10:55:43Z</time>
      </trkpt>
      <trkpt lat="45.93039" lon="4.76439">
        <ele>169</ele>
        <time>2018-04-05T10:55:44Z</time>
      </trkpt>
      <trkpt lat="45.93034" lon="4.76436">
        <ele>169</ele>
        <time>2018-04-05T10:55:45Z</time>
      </trkpt>
      <trkpt lat="45.9303" lon="4.76431">
        <ele>169</ele>
        <time>2018-04-05T10:55:46Z</time>
      </trkpt>
      <trkpt lat="45.93026" lon="4.76427">
        <ele>169</ele>
        <time>2018-04-05T10:55:47Z</time>
      </trkpt>
      <trkpt lat="45.93022" lon="4.76423">
        <ele>169</ele>
        <time>2018-04-05T10:55:48Z</time>
      </trkpt>
      <trkpt lat="45.93017" lon="4.76419">
        <ele>169</ele>
        <time>2018-04-05T10:55:49Z</time>
      </trkpt>
      <trkpt lat="45.93013" lon="4.76415">
        <ele>169</ele>
        <time>2018-04-05T10:55:50Z</time>
      </trkpt>
      <trkpt lat="45.93009" lon="4.76411">
        <ele>169</ele>
        <time>2018-04-05T10:55:51Z</time>
      </trkpt>
      <trkpt lat="45.93005" lon="4.76407">
        <ele>169</ele>
        <time>2018-04-05T10:55:52Z</time>
      </trkpt>
      <trkpt lat="45.93001" lon="4.76403">
        <ele>169</ele>
        <time>2018-04-05T10:55:53Z</time>
      </trkpt>
      <trkpt lat="45.92996" lon="4.76399">
        <ele>169</ele>
        <time>2018-04-05T10:55:54Z</time>
      </trkpt>
      <trkpt lat="45.92992" lon="4.76394">
        <ele>169</ele>
        <time>2018-04-05T10:55:55Z</time>
      </trkpt>
      <trkpt lat="45.92987" lon="4.7639">
        <ele>169</ele>
        <time>2018-04-05T10:55:56Z</time>
      </trkpt>
      <trkpt lat="45.92983" lon="4.76386">
        <ele>169</ele>
        <time>2018-04-05T10:55:57Z</time>
      </trkpt>
      <trkpt lat="45.92977" lon="4.76378">
        <ele>169</ele>
        <time>2018-04-05T10:55:59Z</time>
      </trkpt>
      <trkpt lat="45.92972" lon="4.76372">
        <ele>169</ele>
        <time>2018-04-05T10:56:00Z</time>
      </trkpt>
      <trkpt lat="45.92968" lon="4.76368">
        <ele>169</ele>
        <time>2018-04-05T10:56:01Z</time>
      </trkpt>
      <trkpt lat="45.92963" lon="4.76363">
        <ele>169</ele>
        <time>2018-04-05T10:56:02Z</time>
      </trkpt>
      <trkpt lat="45.9296" lon="4.76359">
        <ele>169</ele>
        <time>2018-04-05T10:56:03Z</time>
      </trkpt>
      <trkpt lat="45.92955" lon="4.76355">
        <ele>169</ele>
        <time>2018-04-05T10:56:04Z</time>
      </trkpt>
      <trkpt lat="45.92951" lon="4.7635">
        <ele>169</ele>
        <time>2018-04-05T10:56:05Z</time>
      </trkpt>
      <trkpt lat="45.92947" lon="4.76346">
        <ele>169</ele>
        <time>2018-04-05T10:56:06Z</time>
      </trkpt>
      <trkpt lat="45.92943" lon="4.76343">
        <ele>169</ele>
        <time>2018-04-05T10:56:07Z</time>
      </trkpt>
      <trkpt lat="45.92938" lon="4.76339">
        <ele>169</ele>
        <time>2018-04-05T10:56:08Z</time>
      </trkpt>
      <trkpt lat="45.92933" lon="4.76334">
        <ele>169</ele>
        <time>2018-04-05T10:56:09Z</time>
      </trkpt>
      <trkpt lat="45.92929" lon="4.7633">
        <ele>169</ele>
        <time>2018-04-05T10:56:10Z</time>
      </trkpt>
      <trkpt lat="45.92925" lon="4.76326">
        <ele>169</ele>
        <time>2018-04-05T10:56:11Z</time>
      </trkpt>
      <trkpt lat="45.92921" lon="4.76322">
        <ele>169</ele>
        <time>2018-04-05T10:56:12Z</time>
      </trkpt>
      <trkpt lat="45.92916" lon="4.76318">
        <ele>169</ele>
        <time>2018-04-05T10:56:13Z</time>
      </trkpt>
      <trkpt lat="45.92912" lon="4.76314">
        <ele>169</ele>
        <time>2018-04-05T10:56:14Z</time>
      </trkpt>
      <trkpt lat="45.92907" lon="4.7631">
        <ele>169</ele>
        <time>2018-04-05T10:56:15Z</time>
      </trkpt>
      <trkpt lat="45.92902" lon="4.76304">
        <ele>169</ele>
        <time>2018-04-05T10:56:16Z</time>
      </trkpt>
      <trkpt lat="45.92898" lon="4.76299">
        <ele>169</ele>
        <time>2018-04-05T10:56:17Z</time>
      </trkpt>
      <trkpt lat="45.92895" lon="4.76294">
        <ele>169</ele>
        <time>2018-04-05T10:56:18Z</time>
      </trkpt>
      <trkpt lat="45.9289" lon="4.7629">
        <ele>169</ele>
        <time>2018-04-05T10:56:19Z</time>
      </trkpt>
      <trkpt lat="45.92885" lon="4.76286">
        <ele>169</ele>
        <time>2018-04-05T10:56:20Z</time>
      </trkpt>
      <trkpt lat="45.92881" lon="4.76282">
        <ele>169</ele>
        <time>2018-04-05T10:56:21Z</time>
      </trkpt>
      <trkpt lat="45.92876" lon="4.76277">
        <ele>169</ele>
        <time>2018-04-05T10:56:22Z</time>
      </trkpt>
      <trkpt lat="45.92872" lon="4.76271">
        <ele>169</ele>
        <time>2018-04-05T10:56:23Z</time>
      </trkpt>
      <trkpt lat="45.92867" lon="4.76268">
        <ele>169</ele>
        <time>2018-04-05T10:56:24Z</time>
      </trkpt>
      <trkpt lat="45.92863" lon="4.76263">
        <ele>169</ele>
        <time>2018-04-05T10:56:25Z</time>
      </trkpt>
      <trkpt lat="45.92859" lon="4.7626">
        <ele>169</ele>
        <time>2018-04-05T10:56:26Z</time>
      </trkpt>
      <trkpt lat="45.92852" lon="4.76252">
        <ele>169</ele>
        <time>2018-04-05T10:56:28Z</time>
      </trkpt>
      <trkpt lat="45.92848" lon="4.76248">
        <ele>169</ele>
        <time>2018-04-05T10:56:29Z</time>
      </trkpt>
      <trkpt lat="45.9284" lon="4.76241">
        <ele>169</ele>
        <time>2018-04-05T10:56:31Z</time>
      </trkpt>
      <trkpt lat="45.92836" lon="4.76237">
        <ele>169</ele>
        <time>2018-04-05T10:56:32Z</time>
      </trkpt>
      <trkpt lat="45.92832" lon="4.76232">
        <ele>168</ele>
        <time>2018-04-05T10:56:33Z</time>
      </trkpt>
      <trkpt lat="45.92827" lon="4.76228">
        <ele>168</ele>
        <time>2018-04-05T10:56:34Z</time>
      </trkpt>
      <trkpt lat="45.92822" lon="4.76224">
        <ele>168</ele>
        <time>2018-04-05T10:56:35Z</time>
      </trkpt>
      <trkpt lat="45.92818" lon="4.76221">
        <ele>168</ele>
        <time>2018-04-05T10:56:36Z</time>
      </trkpt>
      <trkpt lat="45.92814" lon="4.76217">
        <ele>168</ele>
        <time>2018-04-05T10:56:37Z</time>
      </trkpt>
      <trkpt lat="45.92809" lon="4.76212">
        <ele>168</ele>
        <time>2018-04-05T10:56:38Z</time>
      </trkpt>
      <trkpt lat="45.92804" lon="4.76208">
        <ele>168</ele>
        <time>2018-04-05T10:56:39Z</time>
      </trkpt>
      <trkpt lat="45.928" lon="4.76203">
        <ele>168</ele>
        <time>2018-04-05T10:56:40Z</time>
      </trkpt>
      <trkpt lat="45.92795" lon="4.76199">
        <ele>168</ele>
        <time>2018-04-05T10:56:41Z</time>
      </trkpt>
      <trkpt lat="45.9279" lon="4.76195">
        <ele>168</ele>
        <time>2018-04-05T10:56:42Z</time>
      </trkpt>
      <trkpt lat="45.92786" lon="4.7619">
        <ele>168</ele>
        <time>2018-04-05T10:56:43Z</time>
      </trkpt>
      <trkpt lat="45.92782" lon="4.76186">
        <ele>168</ele>
        <time>2018-04-05T10:56:44Z</time>
      </trkpt>
      <trkpt lat="45.92777" lon="4.7618">
        <ele>167</ele>
        <time>2018-04-05T10:56:45Z</time>
      </trkpt>
      <trkpt lat="45.92773" lon="4.76176">
        <ele>167</ele>
        <time>2018-04-05T10:56:46Z</time>
      </trkpt>
      <trkpt lat="45.92768" lon="4.76173">
        <ele>167</ele>
        <time>2018-04-05T10:56:47Z</time>
      </trkpt>
      <trkpt lat="45.92764" lon="4.76169">
        <ele>167</ele>
        <time>2018-04-05T10:56:48Z</time>
      </trkpt>
      <trkpt lat="45.92759" lon="4.76164">
        <ele>167</ele>
        <time>2018-04-05T10:56:49Z</time>
      </trkpt>
      <trkpt lat="45.92754" lon="4.7616">
        <ele>167</ele>
        <time>2018-04-05T10:56:50Z</time>
      </trkpt>
      <trkpt lat="45.92749" lon="4.76155">
        <ele>168</ele>
        <time>2018-04-05T10:56:51Z</time>
      </trkpt>
      <trkpt lat="45.92743" lon="4.76151">
        <ele>168</ele>
        <time>2018-04-05T10:56:52Z</time>
      </trkpt>
      <trkpt lat="45.92738" lon="4.76147">
        <ele>168</ele>
        <time>2018-04-05T10:56:53Z</time>
      </trkpt>
      <trkpt lat="45.92733" lon="4.76145">
        <ele>168</ele>
        <time>2018-04-05T10:56:54Z</time>
      </trkpt>
      <trkpt lat="45.92728" lon="4.76142">
        <ele>168</ele>
        <time>2018-04-05T10:56:55Z</time>
      </trkpt>
      <trkpt lat="45.92723" lon="4.76138">
        <ele>168</ele>
        <time>2018-04-05T10:56:56Z</time>
      </trkpt>
      <trkpt lat="45.92718" lon="4.76133">
        <ele>168</ele>
        <time>2018-04-05T10:56:57Z</time>
      </trkpt>
      <trkpt lat="45.92713" lon="4.7613">
        <ele>168</ele>
        <time>2018-04-05T10:56:58Z</time>
      </trkpt>
      <trkpt lat="45.92708" lon="4.76128">
        <ele>169</ele>
        <time>2018-04-05T10:56:59Z</time>
      </trkpt>
      <trkpt lat="45.92703" lon="4.76124">
        <ele>169</ele>
        <time>2018-04-05T10:57:00Z</time>
      </trkpt>
      <trkpt lat="45.92699" lon="4.76121">
        <ele>169</ele>
        <time>2018-04-05T10:57:01Z</time>
      </trkpt>
      <trkpt lat="45.92694" lon="4.76118">
        <ele>169</ele>
        <time>2018-04-05T10:57:02Z</time>
      </trkpt>
      <trkpt lat="45.92687" lon="4.76112">
        <ele>169</ele>
        <time>2018-04-05T10:57:04Z</time>
      </trkpt>
      <trkpt lat="45.92683" lon="4.76108">
        <ele>169</ele>
        <time>2018-04-05T10:57:05Z</time>
      </trkpt>
      <trkpt lat="45.92679" lon="4.76105">
        <ele>169</ele>
        <time>2018-04-05T10:57:06Z</time>
      </trkpt>
      <trkpt lat="45.92674" lon="4.76101">
        <ele>169</ele>
        <time>2018-04-05T10:57:07Z</time>
      </trkpt>
      <trkpt lat="45.92667" lon="4.76094">
        <ele>170</ele>
        <time>2018-04-05T10:57:09Z</time>
      </trkpt>
      <trkpt lat="45.92663" lon="4.76091">
        <ele>170</ele>
        <time>2018-04-05T10:57:10Z</time>
      </trkpt>
      <trkpt lat="45.92655" lon="4.76085">
        <ele>170</ele>
        <time>2018-04-05T10:57:12Z</time>
      </trkpt>
      <trkpt lat="45.92651" lon="4.76081">
        <ele>170</ele>
        <time>2018-04-05T10:57:13Z</time>
      </trkpt>
      <trkpt lat="45.92644" lon="4.76076">
        <ele>170</ele>
        <time>2018-04-05T10:57:15Z</time>
      </trkpt>
      <trkpt lat="45.92641" lon="4.76075">
        <ele>170</ele>
        <time>2018-04-05T10:57:16Z</time>
      </trkpt>
      <trkpt lat="45.92634" lon="4.7607">
        <ele>170</ele>
        <time>2018-04-05T10:57:18Z</time>
      </trkpt>
      <trkpt lat="45.92631" lon="4.76067">
        <ele>170</ele>
        <time>2018-04-05T10:57:19Z</time>
      </trkpt>
      <trkpt lat="45.92624" lon="4.76062">
        <ele>171</ele>
        <time>2018-04-05T10:57:21Z</time>
      </trkpt>
      <trkpt lat="45.9262" lon="4.76059">
        <ele>171</ele>
        <time>2018-04-05T10:57:22Z</time>
      </trkpt>
      <trkpt lat="45.92613" lon="4.76055">
        <ele>171</ele>
        <time>2018-04-05T10:57:24Z</time>
      </trkpt>
      <trkpt lat="45.92609" lon="4.76052">
        <ele>171</ele>
        <time>2018-04-05T10:57:25Z</time>
      </trkpt>
      <trkpt lat="45.92603" lon="4.76047">
        <ele>171</ele>
        <time>2018-04-05T10:57:27Z</time>
      </trkpt>
      <trkpt lat="45.92599" lon="4.76045">
        <ele>171</ele>
        <time>2018-04-05T10:57:28Z</time>
      </trkpt>
      <trkpt lat="45.92593" lon="4.76039">
        <ele>171</ele>
        <time>2018-04-05T10:57:30Z</time>
      </trkpt>
      <trkpt lat="45.92589" lon="4.76036">
        <ele>171</ele>
        <time>2018-04-05T10:57:31Z</time>
      </trkpt>
      <trkpt lat="45.92582" lon="4.7603">
        <ele>172</ele>
        <time>2018-04-05T10:57:33Z</time>
      </trkpt>
      <trkpt lat="45.92578" lon="4.76027">
        <ele>172</ele>
        <time>2018-04-05T10:57:34Z</time>
      </trkpt>
      <trkpt lat="45.9257" lon="4.76022">
        <ele>172</ele>
        <time>2018-04-05T10:57:36Z</time>
      </trkpt>
      <trkpt lat="45.92567" lon="4.76023">
        <ele>172</ele>
        <time>2018-04-05T10:57:37Z</time>
      </trkpt>
      <trkpt lat="45.92562" lon="4.7602">
        <ele>172</ele>
        <time>2018-04-05T10:57:38Z</time>
      </trkpt>
      <trkpt lat="45.92558" lon="4.76018">
        <ele>172</ele>
        <time>2018-04-05T10:57:39Z</time>
      </trkpt>
      <trkpt lat="45.92554" lon="4.76014">
        <ele>172</ele>
        <time>2018-04-05T10:57:40Z</time>
      </trkpt>
      <trkpt lat="45.92549" lon="4.76012">
        <ele>172</ele>
        <time>2018-04-05T10:57:41Z</time>
      </trkpt>
      <trkpt lat="45.92545" lon="4.76008">
        <ele>172</ele>
        <time>2018-04-05T10:57:42Z</time>
      </trkpt>
      <trkpt lat="45.92541" lon="4.76005">
        <ele>172</ele>
        <time>2018-04-05T10:57:43Z</time>
      </trkpt>
      <trkpt lat="45.92537" lon="4.76002">
        <ele>172</ele>
        <time>2018-04-05T10:57:44Z</time>
      </trkpt>
      <trkpt lat="45.92533" lon="4.75998">
        <ele>172</ele>
        <time>2018-04-05T10:57:45Z</time>
      </trkpt>
      <trkpt lat="45.92528" lon="4.75995">
        <ele>172</ele>
        <time>2018-04-05T10:57:46Z</time>
      </trkpt>
      <trkpt lat="45.92524" lon="4.75992">
        <ele>172</ele>
        <time>2018-04-05T10:57:47Z</time>
      </trkpt>
      <trkpt lat="45.9252" lon="4.75989">
        <ele>172</ele>
        <time>2018-04-05T10:57:48Z</time>
      </trkpt>
      <trkpt lat="45.92516" lon="4.75987">
        <ele>172</ele>
        <time>2018-04-05T10:57:49Z</time>
      </trkpt>
      <trkpt lat="45.92512" lon="4.75983">
        <ele>172</ele>
        <time>2018-04-05T10:57:50Z</time>
      </trkpt>
      <trkpt lat="45.92507" lon="4.75978">
        <ele>172</ele>
        <time>2018-04-05T10:57:51Z</time>
      </trkpt>
      <trkpt lat="45.92503" lon="4.75976">
        <ele>172</ele>
        <time>2018-04-05T10:57:52Z</time>
      </trkpt>
      <trkpt lat="45.92498" lon="4.75973">
        <ele>172</ele>
        <time>2018-04-05T10:57:53Z</time>
      </trkpt>
      <trkpt lat="45.92493" lon="4.75969">
        <ele>172</ele>
        <time>2018-04-05T10:57:54Z</time>
      </trkpt>
      <trkpt lat="45.92489" lon="4.75967">
        <ele>172</ele>
        <time>2018-04-05T10:57:55Z</time>
      </trkpt>
      <trkpt lat="45.92484" lon="4.75962">
        <ele>172</ele>
        <time>2018-04-05T10:57:56Z</time>
      </trkpt>
      <trkpt lat="45.92479" lon="4.75958">
        <ele>172</ele>
        <time>2018-04-05T10:57:57Z</time>
      </trkpt>
      <trkpt lat="45.92475" lon="4.75954">
        <ele>172</ele>
        <time>2018-04-05T10:57:58Z</time>
      </trkpt>
      <trkpt lat="45.92471" lon="4.75952">
        <ele>172</ele>
        <time>2018-04-05T10:57:59Z</time>
      </trkpt>
      <trkpt lat="45.92466" lon="4.75949">
        <ele>172</ele>
        <time>2018-04-05T10:58:00Z</time>
      </trkpt>
      <trkpt lat="45.92461" lon="4.75945">
        <ele>172</ele>
        <time>2018-04-05T10:58:01Z</time>
      </trkpt>
      <trkpt lat="45.92457" lon="4.75942">
        <ele>172</ele>
        <time>2018-04-05T10:58:02Z</time>
      </trkpt>
      <trkpt lat="45.92451" lon="4.75939">
        <ele>172</ele>
        <time>2018-04-05T10:58:03Z</time>
      </trkpt>
      <trkpt lat="45.92446" lon="4.75934">
        <ele>172</ele>
        <time>2018-04-05T10:58:04Z</time>
      </trkpt>
      <trkpt lat="45.9244" lon="4.7593">
        <ele>172</ele>
        <time>2018-04-05T10:58:05Z</time>
      </trkpt>
      <trkpt lat="45.92434" lon="4.75926">
        <ele>172</ele>
        <time>2018-04-05T10:58:06Z</time>
      </trkpt>
      <trkpt lat="45.92429" lon="4.75923">
        <ele>172</ele>
        <time>2018-04-05T10:58:07Z</time>
      </trkpt>
      <trkpt lat="45.92424" lon="4.7592">
        <ele>172</ele>
        <time>2018-04-05T10:58:08Z</time>
      </trkpt>
      <trkpt lat="45.92418" lon="4.75916">
        <ele>172</ele>
        <time>2018-04-05T10:58:09Z</time>
      </trkpt>
      <trkpt lat="45.92412" lon="4.75912">
        <ele>172</ele>
        <time>2018-04-05T10:58:10Z</time>
      </trkpt>
      <trkpt lat="45.92406" lon="4.75909">
        <ele>172</ele>
        <time>2018-04-05T10:58:11Z</time>
      </trkpt>
      <trkpt lat="45.92401" lon="4.75904">
        <ele>173</ele>
        <time>2018-04-05T10:58:12Z</time>
      </trkpt>
      <trkpt lat="45.92395" lon="4.759">
        <ele>173</ele>
        <time>2018-04-05T10:58:13Z</time>
      </trkpt>
      <trkpt lat="45.92389" lon="4.75897">
        <ele>173</ele>
        <time>2018-04-05T10:58:14Z</time>
      </trkpt>
      <trkpt lat="45.92383" lon="4.75893">
        <ele>173</ele>
        <time>2018-04-05T10:58:15Z</time>
      </trkpt>
      <trkpt lat="45.92378" lon="4.75889">
        <ele>173</ele>
        <time>2018-04-05T10:58:16Z</time>
      </trkpt>
      <trkpt lat="45.92372" lon="4.75886">
        <ele>173</ele>
        <time>2018-04-05T10:58:17Z</time>
      </trkpt>
      <trkpt lat="45.92367" lon="4.75883">
        <ele>173</ele>
        <time>2018-04-05T10:58:18Z</time>
      </trkpt>
      <trkpt lat="45.92362" lon="4.7588">
        <ele>173</ele>
        <time>2018-04-05T10:58:19Z</time>
      </trkpt>
      <trkpt lat="45.92357" lon="4.75877">
        <ele>173</ele>
        <time>2018-04-05T10:58:20Z</time>
      </trkpt>
      <trkpt lat="45.92352" lon="4.75874">
        <ele>173</ele>
        <time>2018-04-05T10:58:21Z</time>
      </trkpt>
      <trkpt lat="45.92347" lon="4.75871">
        <ele>173</ele>
        <time>2018-04-05T10:58:22Z</time>
      </trkpt>
      <trkpt lat="45.92341" lon="4.75867">
        <ele>173</ele>
        <time>2018-04-05T10:58:23Z</time>
      </trkpt>
      <trkpt lat="45.92336" lon="4.75864">
        <ele>173</ele>
        <time>2018-04-05T10:58:24Z</time>
      </trkpt>
      <trkpt lat="45.92333" lon="4.75861">
        <ele>173</ele>
        <time>2018-04-05T10:58:25Z</time>
      </trkpt>
      <trkpt lat="45.92328" lon="4.75859">
        <ele>173</ele>
        <time>2018-04-05T10:58:26Z</time>
      </trkpt>
      <trkpt lat="45.92324" lon="4.75856">
        <ele>174</ele>
        <time>2018-04-05T10:58:27Z</time>
      </trkpt>
      <trkpt lat="45.92319" lon="4.75853">
        <ele>174</ele>
        <time>2018-04-05T10:58:28Z</time>
      </trkpt>
      <trkpt lat="45.92315" lon="4.7585">
        <ele>174</ele>
        <time>2018-04-05T10:58:29Z</time>
      </trkpt>
      <trkpt lat="45.92307" lon="4.75845">
        <ele>173</ele>
        <time>2018-04-05T10:58:31Z</time>
      </trkpt>
      <trkpt lat="45.92303" lon="4.75842">
        <ele>173</ele>
        <time>2018-04-05T10:58:32Z</time>
      </trkpt>
      <trkpt lat="45.92298" lon="4.75838">
        <ele>173</ele>
        <time>2018-04-05T10:58:33Z</time>
      </trkpt>
      <trkpt lat="45.92293" lon="4.75835">
        <ele>173</ele>
        <time>2018-04-05T10:58:34Z</time>
      </trkpt>
      <trkpt lat="45.92289" lon="4.75833">
        <ele>174</ele>
        <time>2018-04-05T10:58:35Z</time>
      </trkpt>
      <trkpt lat="45.92284" lon="4.7583">
        <ele>174</ele>
        <time>2018-04-05T10:58:36Z</time>
      </trkpt>
      <trkpt lat="45.9228" lon="4.75826">
        <ele>174</ele>
        <time>2018-04-05T10:58:37Z</time>
      </trkpt>
      <trkpt lat="45.92276" lon="4.75822">
        <ele>174</ele>
        <time>2018-04-05T10:58:38Z</time>
      </trkpt>
      <trkpt lat="45.92272" lon="4.75818">
        <ele>174</ele>
        <time>2018-04-05T10:58:39Z</time>
      </trkpt>
      <trkpt lat="45.92268" lon="4.75814">
        <ele>174</ele>
        <time>2018-04-05T10:58:40Z</time>
      </trkpt>
      <trkpt lat="45.92266" lon="4.75809">
        <ele>174</ele>
        <time>2018-04-05T10:58:41Z</time>
      </trkpt>
      <trkpt lat="45.92263" lon="4.75803">
        <ele>174</ele>
        <time>2018-04-05T10:58:42Z</time>
      </trkpt>
      <trkpt lat="45.9226" lon="4.75798">
        <ele>174</ele>
        <time>2018-04-05T10:58:43Z</time>
      </trkpt>
      <trkpt lat="45.92259" lon="4.75791">
        <ele>174</ele>
        <time>2018-04-05T10:58:44Z</time>
      </trkpt>
      <trkpt lat="45.92257" lon="4.75779">
        <ele>174</ele>
        <time>2018-04-05T10:58:46Z</time>
      </trkpt>
      <trkpt lat="45.92255" lon="4.75772">
        <ele>174</ele>
        <time>2018-04-05T10:58:47Z</time>
      </trkpt>
      <trkpt lat="45.92254" lon="4.75765">
        <ele>174</ele>
        <time>2018-04-05T10:58:48Z</time>
      </trkpt>
      <trkpt lat="45.92253" lon="4.75758">
        <ele>174</ele>
        <time>2018-04-05T10:58:49Z</time>
      </trkpt>
      <trkpt lat="45.92252" lon="4.75751">
        <ele>174</ele>
        <time>2018-04-05T10:58:50Z</time>
      </trkpt>
      <trkpt lat="45.92251" lon="4.75743">
        <ele>174</ele>
        <time>2018-04-05T10:58:51Z</time>
      </trkpt>
      <trkpt lat="45.9225" lon="4.75736">
        <ele>174</ele>
        <time>2018-04-05T10:58:52Z</time>
      </trkpt>
      <trkpt lat="45.92248" lon="4.75728">
        <ele>174</ele>
        <time>2018-04-05T10:58:53Z</time>
      </trkpt>
      <trkpt lat="45.92245" lon="4.75721">
        <ele>174</ele>
        <time>2018-04-05T10:58:54Z</time>
      </trkpt>
      <trkpt lat="45.92242" lon="4.75714">
        <ele>174</ele>
        <time>2018-04-05T10:58:55Z</time>
      </trkpt>
      <trkpt lat="45.92238" lon="4.75708">
        <ele>174</ele>
        <time>2018-04-05T10:58:56Z</time>
      </trkpt>
      <trkpt lat="45.92235" lon="4.75702">
        <ele>174</ele>
        <time>2018-04-05T10:58:57Z</time>
      </trkpt>
      <trkpt lat="45.9223" lon="4.75698">
        <ele>174</ele>
        <time>2018-04-05T10:58:58Z</time>
      </trkpt>
      <trkpt lat="45.92225" lon="4.75692">
        <ele>174</ele>
        <time>2018-04-05T10:58:59Z</time>
      </trkpt>
      <trkpt lat="45.92221" lon="4.75688">
        <ele>174</ele>
        <time>2018-04-05T10:59:00Z</time>
      </trkpt>
      <trkpt lat="45.92217" lon="4.75684">
        <ele>174</ele>
        <time>2018-04-05T10:59:01Z</time>
      </trkpt>
      <trkpt lat="45.92213" lon="4.75678">
        <ele>174</ele>
        <time>2018-04-05T10:59:02Z</time>
      </trkpt>
      <trkpt lat="45.92208" lon="4.75673">
        <ele>174</ele>
        <time>2018-04-05T10:59:03Z</time>
      </trkpt>
      <trkpt lat="45.92203" lon="4.75669">
        <ele>174</ele>
        <time>2018-04-05T10:59:04Z</time>
      </trkpt>
      <trkpt lat="45.92198" lon="4.75664">
        <ele>174</ele>
        <time>2018-04-05T10:59:05Z</time>
      </trkpt>
      <trkpt lat="45.92194" lon="4.7566">
        <ele>174</ele>
        <time>2018-04-05T10:59:06Z</time>
      </trkpt>
      <trkpt lat="45.92189" lon="4.75655">
        <ele>174</ele>
        <time>2018-04-05T10:59:07Z</time>
      </trkpt>
      <trkpt lat="45.92184" lon="4.7565">
        <ele>174</ele>
        <time>2018-04-05T10:59:08Z</time>
      </trkpt>
      <trkpt lat="45.9218" lon="4.75646">
        <ele>174</ele>
        <time>2018-04-05T10:59:09Z</time>
      </trkpt>
      <trkpt lat="45.92175" lon="4.75642">
        <ele>174</ele>
        <time>2018-04-05T10:59:10Z</time>
      </trkpt>
      <trkpt lat="45.92171" lon="4.75638">
        <ele>174</ele>
        <time>2018-04-05T10:59:11Z</time>
      </trkpt>
      <trkpt lat="45.92166" lon="4.75633">
        <ele>174</ele>
        <time>2018-04-05T10:59:12Z</time>
      </trkpt>
      <trkpt lat="45.92161" lon="4.75628">
        <ele>174</ele>
        <time>2018-04-05T10:59:13Z</time>
      </trkpt>
      <trkpt lat="45.92156" lon="4.75623">
        <ele>174</ele>
        <time>2018-04-05T10:59:14Z</time>
      </trkpt>
      <trkpt lat="45.92151" lon="4.75619">
        <ele>174</ele>
        <time>2018-04-05T10:59:15Z</time>
      </trkpt>
      <trkpt lat="45.92146" lon="4.75614">
        <ele>174</ele>
        <time>2018-04-05T10:59:16Z</time>
      </trkpt>
      <trkpt lat="45.92141" lon="4.75609">
        <ele>174</ele>
        <time>2018-04-05T10:59:17Z</time>
      </trkpt>
      <trkpt lat="45.92137" lon="4.75604">
        <ele>174</ele>
        <time>2018-04-05T10:59:18Z</time>
      </trkpt>
      <trkpt lat="45.92133" lon="4.756">
        <ele>174</ele>
        <time>2018-04-05T10:59:19Z</time>
      </trkpt>
      <trkpt lat="45.92129" lon="4.75596">
        <ele>174</ele>
        <time>2018-04-05T10:59:20Z</time>
      </trkpt>
      <trkpt lat="45.92125" lon="4.75591">
        <ele>174</ele>
        <time>2018-04-05T10:59:21Z</time>
      </trkpt>
      <trkpt lat="45.92119" lon="4.75582">
        <ele>174</ele>
        <time>2018-04-05T10:59:23Z</time>
      </trkpt>
      <trkpt lat="45.92117" lon="4.75577">
        <ele>174</ele>
        <time>2018-04-05T10:59:24Z</time>
      </trkpt>
      <trkpt lat="45.92117" lon="4.75567">
        <ele>174</ele>
        <time>2018-04-05T10:59:26Z</time>
      </trkpt>
      <trkpt lat="45.92118" lon="4.75563">
        <ele>174</ele>
        <time>2018-04-05T10:59:27Z</time>
      </trkpt>
      <trkpt lat="45.92123" lon="4.75553">
        <ele>174</ele>
        <time>2018-04-05T10:59:29Z</time>
      </trkpt>
      <trkpt lat="45.92125" lon="4.75548">
        <ele>174</ele>
        <time>2018-04-05T10:59:30Z</time>
      </trkpt>
      <trkpt lat="45.92127" lon="4.75542">
        <ele>174</ele>
        <time>2018-04-05T10:59:31Z</time>
      </trkpt>
      <trkpt lat="45.9213" lon="4.75536">
        <ele>174</ele>
        <time>2018-04-05T10:59:32Z</time>
      </trkpt>
      <trkpt lat="45.92133" lon="4.7553">
        <ele>174</ele>
        <time>2018-04-05T10:59:33Z</time>
      </trkpt>
      <trkpt lat="45.92136" lon="4.75525">
        <ele>174</ele>
        <time>2018-04-05T10:59:34Z</time>
      </trkpt>
      <trkpt lat="45.92139" lon="4.7552">
        <ele>174</ele>
        <time>2018-04-05T10:59:35Z</time>
      </trkpt>
      <trkpt lat="45.92142" lon="4.75514">
        <ele>174</ele>
        <time>2018-04-05T10:59:36Z</time>
      </trkpt>
      <trkpt lat="45.92144" lon="4.75509">
        <ele>175</ele>
        <time>2018-04-05T10:59:37Z</time>
      </trkpt>
      <trkpt lat="45.92147" lon="4.75504">
        <ele>175</ele>
        <time>2018-04-05T10:59:38Z</time>
      </trkpt>
      <trkpt lat="45.9215" lon="4.75497">
        <ele>175</ele>
        <time>2018-04-05T10:59:39Z</time>
      </trkpt>
      <trkpt lat="45.92152" lon="4.75492">
        <ele>175</ele>
        <time>2018-04-05T10:59:40Z</time>
      </trkpt>
      <trkpt lat="45.92154" lon="4.75486">
        <ele>176</ele>
        <time>2018-04-05T10:59:41Z</time>
      </trkpt>
      <trkpt lat="45.92156" lon="4.75479">
        <ele>176</ele>
        <time>2018-04-05T10:59:42Z</time>
      </trkpt>
      <trkpt lat="45.92158" lon="4.75473">
        <ele>176</ele>
        <time>2018-04-05T10:59:43Z</time>
      </trkpt>
      <trkpt lat="45.92161" lon="4.75468">
        <ele>176</ele>
        <time>2018-04-05T10:59:44Z</time>
      </trkpt>
      <trkpt lat="45.92163" lon="4.75462">
        <ele>176</ele>
        <time>2018-04-05T10:59:45Z</time>
      </trkpt>
      <trkpt lat="45.92166" lon="4.75456">
        <ele>176</ele>
        <time>2018-04-05T10:59:46Z</time>
      </trkpt>
      <trkpt lat="45.92167" lon="4.75449">
        <ele>176</ele>
        <time>2018-04-05T10:59:47Z</time>
      </trkpt>
      <trkpt lat="45.9217" lon="4.75443">
        <ele>176</ele>
        <time>2018-04-05T10:59:48Z</time>
      </trkpt>
      <trkpt lat="45.92172" lon="4.75437">
        <ele>177</ele>
        <time>2018-04-05T10:59:49Z</time>
      </trkpt>
      <trkpt lat="45.92175" lon="4.75431">
        <ele>177</ele>
        <time>2018-04-05T10:59:50Z</time>
      </trkpt>
      <trkpt lat="45.92177" lon="4.75424">
        <ele>177</ele>
        <time>2018-04-05T10:59:51Z</time>
      </trkpt>
      <trkpt lat="45.92179" lon="4.75418">
        <ele>177</ele>
        <time>2018-04-05T10:59:52Z</time>
      </trkpt>
      <trkpt lat="45.92182" lon="4.75412">
        <ele>177</ele>
        <time>2018-04-05T10:59:53Z</time>
      </trkpt>
      <trkpt lat="45.92185" lon="4.75405">
        <ele>177</ele>
        <time>2018-04-05T10:59:54Z</time>
      </trkpt>
      <trkpt lat="45.92187" lon="4.75399">
        <ele>177</ele>
        <time>2018-04-05T10:59:55Z</time>
      </trkpt>
      <trkpt lat="45.9219" lon="4.75393">
        <ele>177</ele>
        <time>2018-04-05T10:59:56Z</time>
      </trkpt>
      <trkpt lat="45.92192" lon="4.75388">
        <ele>177</ele>
        <time>2018-04-05T10:59:57Z</time>
      </trkpt>
      <trkpt lat="45.92195" lon="4.75382">
        <ele>177</ele>
        <time>2018-04-05T10:59:58Z</time>
      </trkpt>
      <trkpt lat="45.92198" lon="4.75375">
        <ele>177</ele>
        <time>2018-04-05T10:59:59Z</time>
      </trkpt>
      <trkpt lat="45.922" lon="4.75369">
        <ele>177</ele>
        <time>2018-04-05T11:00:00Z</time>
      </trkpt>
      <trkpt lat="45.92203" lon="4.75363">
        <ele>177</ele>
        <time>2018-04-05T11:00:01Z</time>
      </trkpt>
      <trkpt lat="45.92205" lon="4.75357">
        <ele>177</ele>
        <time>2018-04-05T11:00:02Z</time>
      </trkpt>
      <trkpt lat="45.92207" lon="4.75351">
        <ele>177</ele>
        <time>2018-04-05T11:00:03Z</time>
      </trkpt>
      <trkpt lat="45.92208" lon="4.75344">
        <ele>177</ele>
        <time>2018-04-05T11:00:04Z</time>
      </trkpt>
      <trkpt lat="45.92209" lon="4.75336">
        <ele>177</ele>
        <time>2018-04-05T11:00:05Z</time>
      </trkpt>
      <trkpt lat="45.9221" lon="4.75329">
        <ele>176</ele>
        <time>2018-04-05T11:00:06Z</time>
      </trkpt>
      <trkpt lat="45.92212" lon="4.75321">
        <ele>176</ele>
        <time>2018-04-05T11:00:07Z</time>
      </trkpt>
      <trkpt lat="45.92212" lon="4.75313">
        <ele>176</ele>
        <time>2018-04-05T11:00:08Z</time>
      </trkpt>
      <trkpt lat="45.92213" lon="4.75305">
        <ele>176</ele>
        <time>2018-04-05T11:00:09Z</time>
      </trkpt>
      <trkpt lat="45.92214" lon="4.75297">
        <ele>176</ele>
        <time>2018-04-05T11:00:10Z</time>
      </trkpt>
      <trkpt lat="45.92214" lon="4.75289">
        <ele>176</ele>
        <time>2018-04-05T11:00:11Z</time>
      </trkpt>
      <trkpt lat="45.92214" lon="4.7528">
        <ele>176</ele>
        <time>2018-04-05T11:00:12Z</time>
      </trkpt>
      <trkpt lat="45.92214" lon="4.75271">
        <ele>176</ele>
        <time>2018-04-05T11:00:13Z</time>
      </trkpt>
      <trkpt lat="45.92214" lon="4.75263">
        <ele>176</ele>
        <time>2018-04-05T11:00:14Z</time>
      </trkpt>
      <trkpt lat="45.92214" lon="4.75254">
        <ele>175</ele>
        <time>2018-04-05T11:00:15Z</time>
      </trkpt>
      <trkpt lat="45.92215" lon="4.75245">
        <ele>175</ele>
        <time>2018-04-05T11:00:16Z</time>
      </trkpt>
      <trkpt lat="45.92216" lon="4.75236">
        <ele>175</ele>
        <time>2018-04-05T11:00:17Z</time>
      </trkpt>
      <trkpt lat="45.92215" lon="4.75226">
        <ele>175</ele>
        <time>2018-04-05T11:00:18Z</time>
      </trkpt>
      <trkpt lat="45.92217" lon="4.75216">
        <ele>175</ele>
        <time>2018-04-05T11:00:19Z</time>
      </trkpt>
      <trkpt lat="45.92218" lon="4.75208">
        <ele>175</ele>
        <time>2018-04-05T11:00:20Z</time>
      </trkpt>
      <trkpt lat="45.9222" lon="4.75199">
        <ele>175</ele>
        <time>2018-04-05T11:00:21Z</time>
      </trkpt>
      <trkpt lat="45.92222" lon="4.7519">
        <ele>175</ele>
        <time>2018-04-05T11:00:22Z</time>
      </trkpt>
      <trkpt lat="45.92224" lon="4.75182">
        <ele>175</ele>
        <time>2018-04-05T11:00:23Z</time>
      </trkpt>
      <trkpt lat="45.92227" lon="4.75173">
        <ele>175</ele>
        <time>2018-04-05T11:00:24Z</time>
      </trkpt>
      <trkpt lat="45.9223" lon="4.75165">
        <ele>174</ele>
        <time>2018-04-05T11:00:25Z</time>
      </trkpt>
      <trkpt lat="45.92233" lon="4.75157">
        <ele>174</ele>
        <time>2018-04-05T11:00:26Z</time>
      </trkpt>
      <trkpt lat="45.92237" lon="4.7515">
        <ele>174</ele>
        <time>2018-04-05T11:00:27Z</time>
      </trkpt>
      <trkpt lat="45.9224" lon="4.75144">
        <ele>174</ele>
        <time>2018-04-05T11:00:28Z</time>
      </trkpt>
      <trkpt lat="45.92244" lon="4.75138">
        <ele>174</ele>
        <time>2018-04-05T11:00:29Z</time>
      </trkpt>
      <trkpt lat="45.92249" lon="4.75131">
        <ele>174</ele>
        <time>2018-04-05T11:00:30Z</time>
      </trkpt>
      <trkpt lat="45.92254" lon="4.75125">
        <ele>174</ele>
        <time>2018-04-05T11:00:31Z</time>
      </trkpt>
      <trkpt lat="45.92259" lon="4.75118">
        <ele>174</ele>
        <time>2018-04-05T11:00:32Z</time>
      </trkpt>
      <trkpt lat="45.92265" lon="4.75114">
        <ele>174</ele>
        <time>2018-04-05T11:00:33Z</time>
      </trkpt>
      <trkpt lat="45.92271" lon="4.7511">
        <ele>174</ele>
        <time>2018-04-05T11:00:34Z</time>
      </trkpt>
      <trkpt lat="45.92278" lon="4.75105">
        <ele>174</ele>
        <time>2018-04-05T11:00:35Z</time>
      </trkpt>
      <trkpt lat="45.92283" lon="4.751">
        <ele>173</ele>
        <time>2018-04-05T11:00:36Z</time>
      </trkpt>
      <trkpt lat="45.92288" lon="4.75096">
        <ele>173</ele>
        <time>2018-04-05T11:00:37Z</time>
      </trkpt>
      <trkpt lat="45.92293" lon="4.75091">
        <ele>173</ele>
        <time>2018-04-05T11:00:38Z</time>
      </trkpt>
      <trkpt lat="45.92298" lon="4.75085">
        <ele>173</ele>
        <time>2018-04-05T11:00:39Z</time>
      </trkpt>
      <trkpt lat="45.92303" lon="4.7508">
        <ele>172</ele>
        <time>2018-04-05T11:00:40Z</time>
      </trkpt>
      <trkpt lat="45.92307" lon="4.75074">
        <ele>172</ele>
        <time>2018-04-05T11:00:41Z</time>
      </trkpt>
      <trkpt lat="45.92311" lon="4.75067">
        <ele>172</ele>
        <time>2018-04-05T11:00:42Z</time>
      </trkpt>
      <trkpt lat="45.92316" lon="4.75062">
        <ele>172</ele>
        <time>2018-04-05T11:00:43Z</time>
      </trkpt>
      <trkpt lat="45.9232" lon="4.75054">
        <ele>172</ele>
        <time>2018-04-05T11:00:44Z</time>
      </trkpt>
      <trkpt lat="45.92324" lon="4.75048">
        <ele>172</ele>
        <time>2018-04-05T11:00:45Z</time>
      </trkpt>
      <trkpt lat="45.92327" lon="4.7504">
        <ele>171</ele>
        <time>2018-04-05T11:00:46Z</time>
      </trkpt>
      <trkpt lat="45.9233" lon="4.75034">
        <ele>171</ele>
        <time>2018-04-05T11:00:47Z</time>
      </trkpt>
      <trkpt lat="45.92333" lon="4.75027">
        <ele>171</ele>
        <time>2018-04-05T11:00:48Z</time>
      </trkpt>
      <trkpt lat="45.92337" lon="4.75021">
        <ele>170</ele>
        <time>2018-04-05T11:00:49Z</time>
      </trkpt>
      <trkpt lat="45.9234" lon="4.75014">
        <ele>170</ele>
        <time>2018-04-05T11:00:50Z</time>
      </trkpt>
      <trkpt lat="45.92342" lon="4.75006">
        <ele>170</ele>
        <time>2018-04-05T11:00:51Z</time>
      </trkpt>
      <trkpt lat="45.92344" lon="4.75001">
        <ele>170</ele>
        <time>2018-04-05T11:00:52Z</time>
      </trkpt>
      <trkpt lat="45.92348" lon="4.74995">
        <ele>170</ele>
        <time>2018-04-05T11:00:53Z</time>
      </trkpt>
      <trkpt lat="45.9235" lon="4.74989">
        <ele>170</ele>
        <time>2018-04-05T11:00:54Z</time>
      </trkpt>
      <trkpt lat="45.92351" lon="4.74983">
        <ele>170</ele>
        <time>2018-04-05T11:00:55Z</time>
      </trkpt>
      <trkpt lat="45.92354" lon="4.74976">
        <ele>170</ele>
        <time>2018-04-05T11:00:56Z</time>
      </trkpt>
      <trkpt lat="45.92356" lon="4.74969">
        <ele>170</ele>
        <time>2018-04-05T11:00:57Z</time>
      </trkpt>
      <trkpt lat="45.92359" lon="4.74962">
        <ele>170</ele>
        <time>2018-04-05T11:00:58Z</time>
      </trkpt>
      <trkpt lat="45.92361" lon="4.74955">
        <ele>170</ele>
        <time>2018-04-05T11:00:59Z</time>
      </trkpt>
      <trkpt lat="45.92364" lon="4.74949">
        <ele>170</ele>
        <time>2018-04-05T11:01:00Z</time>
      </trkpt>
      <trkpt lat="45.92368" lon="4.74942">
        <ele>170</ele>
        <time>2018-04-05T11:01:01Z</time>
      </trkpt>
      <trkpt lat="45.9237" lon="4.74934">
        <ele>170</ele>
        <time>2018-04-05T11:01:02Z</time>
      </trkpt>
      <trkpt lat="45.92373" lon="4.74928">
        <ele>170</ele>
        <time>2018-04-05T11:01:03Z</time>
      </trkpt>
      <trkpt lat="45.92376" lon="4.7492">
        <ele>170</ele>
        <time>2018-04-05T11:01:04Z</time>
      </trkpt>
      <trkpt lat="45.92378" lon="4.74914">
        <ele>171</ele>
        <time>2018-04-05T11:01:05Z</time>
      </trkpt>
      <trkpt lat="45.9238" lon="4.74906">
        <ele>171</ele>
        <time>2018-04-05T11:01:06Z</time>
      </trkpt>
      <trkpt lat="45.92381" lon="4.749">
        <ele>171</ele>
        <time>2018-04-05T11:01:07Z</time>
      </trkpt>
      <trkpt lat="45.92383" lon="4.74894">
        <ele>171</ele>
        <time>2018-04-05T11:01:08Z</time>
      </trkpt>
      <trkpt lat="45.92385" lon="4.74887">
        <ele>171</ele>
        <time>2018-04-05T11:01:09Z</time>
      </trkpt>
      <trkpt lat="45.92387" lon="4.74881">
        <ele>171</ele>
        <time>2018-04-05T11:01:10Z</time>
      </trkpt>
      <trkpt lat="45.92389" lon="4.74874">
        <ele>171</ele>
        <time>2018-04-05T11:01:11Z</time>
      </trkpt>
      <trkpt lat="45.92392" lon="4.74867">
        <ele>171</ele>
        <time>2018-04-05T11:01:12Z</time>
      </trkpt>
      <trkpt lat="45.92394" lon="4.74861">
        <ele>171</ele>
        <time>2018-04-05T11:01:13Z</time>
      </trkpt>
      <trkpt lat="45.92396" lon="4.74855">
        <ele>171</ele>
        <time>2018-04-05T11:01:14Z</time>
      </trkpt>
      <trkpt lat="45.92398" lon="4.74849">
        <ele>171</ele>
        <time>2018-04-05T11:01:15Z</time>
      </trkpt>
      <trkpt lat="45.924" lon="4.74843">
        <ele>171</ele>
        <time>2018-04-05T11:01:16Z</time>
      </trkpt>
      <trkpt lat="45.92402" lon="4.74837">
        <ele>171</ele>
        <time>2018-04-05T11:01:17Z</time>
      </trkpt>
      <trkpt lat="45.92403" lon="4.7483">
        <ele>171</ele>
        <time>2018-04-05T11:01:18Z</time>
      </trkpt>
      <trkpt lat="45.92406" lon="4.74823">
        <ele>171</ele>
        <time>2018-04-05T11:01:19Z</time>
      </trkpt>
      <trkpt lat="45.92408" lon="4.74817">
        <ele>171</ele>
        <time>2018-04-05T11:01:20Z</time>
      </trkpt>
      <trkpt lat="45.92409" lon="4.74809">
        <ele>171</ele>
        <time>2018-04-05T11:01:21Z</time>
      </trkpt>
      <trkpt lat="45.9241" lon="4.74803">
        <ele>171</ele>
        <time>2018-04-05T11:01:22Z</time>
      </trkpt>
      <trkpt lat="45.92412" lon="4.74795">
        <ele>171</ele>
        <time>2018-04-05T11:01:23Z</time>
      </trkpt>
      <trkpt lat="45.92413" lon="4.74787">
        <ele>171</ele>
        <time>2018-04-05T11:01:24Z</time>
      </trkpt>
      <trkpt lat="45.92414" lon="4.7478">
        <ele>171</ele>
        <time>2018-04-05T11:01:25Z</time>
      </trkpt>
      <trkpt lat="45.92416" lon="4.74773">
        <ele>172</ele>
        <time>2018-04-05T11:01:26Z</time>
      </trkpt>
      <trkpt lat="45.92418" lon="4.74767">
        <ele>171</ele>
        <time>2018-04-05T11:01:27Z</time>
      </trkpt>
      <trkpt lat="45.92419" lon="4.74761">
        <ele>171</ele>
        <time>2018-04-05T11:01:28Z</time>
      </trkpt>
      <trkpt lat="45.92422" lon="4.74753">
        <ele>172</ele>
        <time>2018-04-05T11:01:29Z</time>
      </trkpt>
      <trkpt lat="45.92423" lon="4.74746">
        <ele>172</ele>
        <time>2018-04-05T11:01:30Z</time>
      </trkpt>
      <trkpt lat="45.92425" lon="4.7474">
        <ele>171</ele>
        <time>2018-04-05T11:01:31Z</time>
      </trkpt>
      <trkpt lat="45.92427" lon="4.74733">
        <ele>171</ele>
        <time>2018-04-05T11:01:32Z</time>
      </trkpt>
      <trkpt lat="45.92429" lon="4.74727">
        <ele>171</ele>
        <time>2018-04-05T11:01:33Z</time>
      </trkpt>
      <trkpt lat="45.92432" lon="4.74721">
        <ele>171</ele>
        <time>2018-04-05T11:01:34Z</time>
      </trkpt>
      <trkpt lat="45.92434" lon="4.74714">
        <ele>171</ele>
        <time>2018-04-05T11:01:35Z</time>
      </trkpt>
      <trkpt lat="45.92437" lon="4.74708">
        <ele>171</ele>
        <time>2018-04-05T11:01:36Z</time>
      </trkpt>
      <trkpt lat="45.92439" lon="4.74701">
        <ele>171</ele>
        <time>2018-04-05T11:01:37Z</time>
      </trkpt>
      <trkpt lat="45.92442" lon="4.74694">
        <ele>171</ele>
        <time>2018-04-05T11:01:38Z</time>
      </trkpt>
      <trkpt lat="45.92444" lon="4.74687">
        <ele>171</ele>
        <time>2018-04-05T11:01:39Z</time>
      </trkpt>
      <trkpt lat="45.92447" lon="4.74681">
        <ele>171</ele>
        <time>2018-04-05T11:01:40Z</time>
      </trkpt>
      <trkpt lat="45.9245" lon="4.74676">
        <ele>171</ele>
        <time>2018-04-05T11:01:41Z</time>
      </trkpt>
      <trkpt lat="45.92453" lon="4.7467">
        <ele>171</ele>
        <time>2018-04-05T11:01:42Z</time>
      </trkpt>
      <trkpt lat="45.92456" lon="4.74665">
        <ele>171</ele>
        <time>2018-04-05T11:01:43Z</time>
      </trkpt>
      <trkpt lat="45.92458" lon="4.7466">
        <ele>171</ele>
        <time>2018-04-05T11:01:44Z</time>
      </trkpt>
      <trkpt lat="45.92464" lon="4.74649">
        <ele>171</ele>
        <time>2018-04-05T11:01:46Z</time>
      </trkpt>
      <trkpt lat="45.92466" lon="4.74644">
        <ele>171</ele>
        <time>2018-04-05T11:01:47Z</time>
      </trkpt>
      <trkpt lat="45.9247" lon="4.74639">
        <ele>171</ele>
        <time>2018-04-05T11:01:48Z</time>
      </trkpt>
      <trkpt lat="45.92475" lon="4.74633">
        <ele>171</ele>
        <time>2018-04-05T11:01:49Z</time>
      </trkpt>
      <trkpt lat="45.9248" lon="4.74627">
        <ele>171</ele>
        <time>2018-04-05T11:01:50Z</time>
      </trkpt>
      <trkpt lat="45.92483" lon="4.74622">
        <ele>171</ele>
        <time>2018-04-05T11:01:51Z</time>
      </trkpt>
      <trkpt lat="45.92487" lon="4.74617">
        <ele>171</ele>
        <time>2018-04-05T11:01:52Z</time>
      </trkpt>
      <trkpt lat="45.92492" lon="4.74611">
        <ele>171</ele>
        <time>2018-04-05T11:01:53Z</time>
      </trkpt>
      <trkpt lat="45.92497" lon="4.74607">
        <ele>171</ele>
        <time>2018-04-05T11:01:54Z</time>
      </trkpt>
      <trkpt lat="45.92501" lon="4.74601">
        <ele>171</ele>
        <time>2018-04-05T11:01:55Z</time>
      </trkpt>
      <trkpt lat="45.92506" lon="4.74595">
        <ele>171</ele>
        <time>2018-04-05T11:01:56Z</time>
      </trkpt>
      <trkpt lat="45.92511" lon="4.74591">
        <ele>171</ele>
        <time>2018-04-05T11:01:57Z</time>
      </trkpt>
      <trkpt lat="45.92516" lon="4.74586">
        <ele>171</ele>
        <time>2018-04-05T11:01:58Z</time>
      </trkpt>
      <trkpt lat="45.92519" lon="4.74581">
        <ele>171</ele>
        <time>2018-04-05T11:01:59Z</time>
      </trkpt>
      <trkpt lat="45.92523" lon="4.74575">
        <ele>171</ele>
        <time>2018-04-05T11:02:00Z</time>
      </trkpt>
      <trkpt lat="45.92528" lon="4.74571">
        <ele>171</ele>
        <time>2018-04-05T11:02:01Z</time>
      </trkpt>
      <trkpt lat="45.92532" lon="4.74566">
        <ele>171</ele>
        <time>2018-04-05T11:02:02Z</time>
      </trkpt>
      <trkpt lat="45.92536" lon="4.7456">
        <ele>171</ele>
        <time>2018-04-05T11:02:03Z</time>
      </trkpt>
      <trkpt lat="45.9254" lon="4.74555">
        <ele>171</ele>
        <time>2018-04-05T11:02:04Z</time>
      </trkpt>
      <trkpt lat="45.92544" lon="4.74549">
        <ele>170</ele>
        <time>2018-04-05T11:02:05Z</time>
      </trkpt>
      <trkpt lat="45.92547" lon="4.74542">
        <ele>170</ele>
        <time>2018-04-05T11:02:06Z</time>
      </trkpt>
      <trkpt lat="45.92551" lon="4.74535">
        <ele>170</ele>
        <time>2018-04-05T11:02:07Z</time>
      </trkpt>
      <trkpt lat="45.92554" lon="4.74529">
        <ele>170</ele>
        <time>2018-04-05T11:02:08Z</time>
      </trkpt>
      <trkpt lat="45.92558" lon="4.74523">
        <ele>170</ele>
        <time>2018-04-05T11:02:09Z</time>
      </trkpt>
      <trkpt lat="45.92561" lon="4.74517">
        <ele>170</ele>
        <time>2018-04-05T11:02:10Z</time>
      </trkpt>
      <trkpt lat="45.92564" lon="4.74511">
        <ele>170</ele>
        <time>2018-04-05T11:02:11Z</time>
      </trkpt>
      <trkpt lat="45.92567" lon="4.74506">
        <ele>170</ele>
        <time>2018-04-05T11:02:12Z</time>
      </trkpt>
      <trkpt lat="45.92571" lon="4.74499">
        <ele>170</ele>
        <time>2018-04-05T11:02:13Z</time>
      </trkpt>
      <trkpt lat="45.92573" lon="4.74494">
        <ele>170</ele>
        <time>2018-04-05T11:02:14Z</time>
      </trkpt>
      <trkpt lat="45.92576" lon="4.74487">
        <ele>170</ele>
        <time>2018-04-05T11:02:15Z</time>
      </trkpt>
      <trkpt lat="45.9258" lon="4.74481">
        <ele>170</ele>
        <time>2018-04-05T11:02:16Z</time>
      </trkpt>
      <trkpt lat="45.92582" lon="4.74477">
        <ele>170</ele>
        <time>2018-04-05T11:02:17Z</time>
      </trkpt>
      <trkpt lat="45.92585" lon="4.74472">
        <ele>170</ele>
        <time>2018-04-05T11:02:18Z</time>
      </trkpt>
      <trkpt lat="45.92588" lon="4.74466">
        <ele>170</ele>
        <time>2018-04-05T11:02:19Z</time>
      </trkpt>
      <trkpt lat="45.92592" lon="4.7446">
        <ele>170</ele>
        <time>2018-04-05T11:02:20Z</time>
      </trkpt>
      <trkpt lat="45.92596" lon="4.74454">
        <ele>170</ele>
        <time>2018-04-05T11:02:21Z</time>
      </trkpt>
      <trkpt lat="45.92599" lon="4.74449">
        <ele>170</ele>
        <time>2018-04-05T11:02:22Z</time>
      </trkpt>
      <trkpt lat="45.92602" lon="4.74443">
        <ele>170</ele>
        <time>2018-04-05T11:02:23Z</time>
      </trkpt>
      <trkpt lat="45.92605" lon="4.74436">
        <ele>170</ele>
        <time>2018-04-05T11:02:24Z</time>
      </trkpt>
      <trkpt lat="45.92608" lon="4.74431">
        <ele>170</ele>
        <time>2018-04-05T11:02:25Z</time>
      </trkpt>
      <trkpt lat="45.9261" lon="4.74425">
        <ele>170</ele>
        <time>2018-04-05T11:02:26Z</time>
      </trkpt>
      <trkpt lat="45.92614" lon="4.74419">
        <ele>170</ele>
        <time>2018-04-05T11:02:27Z</time>
      </trkpt>
      <trkpt lat="45.92617" lon="4.74413">
        <ele>170</ele>
        <time>2018-04-05T11:02:28Z</time>
      </trkpt>
      <trkpt lat="45.9262" lon="4.74406">
        <ele>170</ele>
        <time>2018-04-05T11:02:29Z</time>
      </trkpt>
      <trkpt lat="45.92623" lon="4.744">
        <ele>170</ele>
        <time>2018-04-05T11:02:30Z</time>
      </trkpt>
      <trkpt lat="45.92626" lon="4.74394">
        <ele>170</ele>
        <time>2018-04-05T11:02:31Z</time>
      </trkpt>
      <trkpt lat="45.92629" lon="4.74388">
        <ele>170</ele>
        <time>2018-04-05T11:02:32Z</time>
      </trkpt>
      <trkpt lat="45.92633" lon="4.74382">
        <ele>170</ele>
        <time>2018-04-05T11:02:33Z</time>
      </trkpt>
      <trkpt lat="45.92637" lon="4.74376">
        <ele>170</ele>
        <time>2018-04-05T11:02:34Z</time>
      </trkpt>
      <trkpt lat="45.9264" lon="4.74371">
        <ele>171</ele>
        <time>2018-04-05T11:02:35Z</time>
      </trkpt>
      <trkpt lat="45.92643" lon="4.74365">
        <ele>171</ele>
        <time>2018-04-05T11:02:36Z</time>
      </trkpt>
      <trkpt lat="45.92646" lon="4.7436">
        <ele>171</ele>
        <time>2018-04-05T11:02:37Z</time>
      </trkpt>
      <trkpt lat="45.9265" lon="4.74354">
        <ele>171</ele>
        <time>2018-04-05T11:02:38Z</time>
      </trkpt>
      <trkpt lat="45.92652" lon="4.74348">
        <ele>171</ele>
        <time>2018-04-05T11:02:39Z</time>
      </trkpt>
      <trkpt lat="45.92655" lon="4.74342">
        <ele>171</ele>
        <time>2018-04-05T11:02:40Z</time>
      </trkpt>
      <trkpt lat="45.9266" lon="4.74336">
        <ele>171</ele>
        <time>2018-04-05T11:02:41Z</time>
      </trkpt>
      <trkpt lat="45.92663" lon="4.74329">
        <ele>171</ele>
        <time>2018-04-05T11:02:42Z</time>
      </trkpt>
      <trkpt lat="45.92665" lon="4.74323">
        <ele>171</ele>
        <time>2018-04-05T11:02:43Z</time>
      </trkpt>
      <trkpt lat="45.92667" lon="4.74317">
        <ele>171</ele>
        <time>2018-04-05T11:02:44Z</time>
      </trkpt>
      <trkpt lat="45.92671" lon="4.74312">
        <ele>171</ele>
        <time>2018-04-05T11:02:45Z</time>
      </trkpt>
      <trkpt lat="45.92674" lon="4.74307">
        <ele>171</ele>
        <time>2018-04-05T11:02:46Z</time>
      </trkpt>
      <trkpt lat="45.92677" lon="4.74299">
        <ele>171</ele>
        <time>2018-04-05T11:02:47Z</time>
      </trkpt>
      <trkpt lat="45.9268" lon="4.74294">
        <ele>171</ele>
        <time>2018-04-05T11:02:48Z</time>
      </trkpt>
      <trkpt lat="45.92684" lon="4.74288">
        <ele>171</ele>
        <time>2018-04-05T11:02:49Z</time>
      </trkpt>
      <trkpt lat="45.92688" lon="4.74282">
        <ele>171</ele>
        <time>2018-04-05T11:02:50Z</time>
      </trkpt>
      <trkpt lat="45.9269" lon="4.74277">
        <ele>171</ele>
        <time>2018-04-05T11:02:51Z</time>
      </trkpt>
      <trkpt lat="45.92693" lon="4.74271">
        <ele>171</ele>
        <time>2018-04-05T11:02:52Z</time>
      </trkpt>
      <trkpt lat="45.92696" lon="4.74267">
        <ele>171</ele>
        <time>2018-04-05T11:02:53Z</time>
      </trkpt>
      <trkpt lat="45.92698" lon="4.74261">
        <ele>171</ele>
        <time>2018-04-05T11:02:54Z</time>
      </trkpt>
      <trkpt lat="45.92701" lon="4.74256">
        <ele>171</ele>
        <time>2018-04-05T11:02:55Z</time>
      </trkpt>
      <trkpt lat="45.92704" lon="4.74251">
        <ele>171</ele>
        <time>2018-04-05T11:02:56Z</time>
      </trkpt>
      <trkpt lat="45.92707" lon="4.74245">
        <ele>171</ele>
        <time>2018-04-05T11:02:57Z</time>
      </trkpt>
      <trkpt lat="45.92711" lon="4.7424">
        <ele>171</ele>
        <time>2018-04-05T11:02:58Z</time>
      </trkpt>
      <trkpt lat="45.92714" lon="4.74235">
        <ele>171</ele>
        <time>2018-04-05T11:02:59Z</time>
      </trkpt>
      <trkpt lat="45.92717" lon="4.74231">
        <ele>171</ele>
        <time>2018-04-05T11:03:00Z</time>
      </trkpt>
      <trkpt lat="45.92721" lon="4.74226">
        <ele>171</ele>
        <time>2018-04-05T11:03:01Z</time>
      </trkpt>
      <trkpt lat="45.92724" lon="4.74222">
        <ele>171</ele>
        <time>2018-04-05T11:03:02Z</time>
      </trkpt>
      <trkpt lat="45.92728" lon="4.74217">
        <ele>171</ele>
        <time>2018-04-05T11:03:03Z</time>
      </trkpt>
      <trkpt lat="45.92732" lon="4.74211">
        <ele>171</ele>
        <time>2018-04-05T11:03:04Z</time>
      </trkpt>
      <trkpt lat="45.92736" lon="4.74206">
        <ele>171</ele>
        <time>2018-04-05T11:03:05Z</time>
      </trkpt>
      <trkpt lat="45.9274" lon="4.74201">
        <ele>171</ele>
        <time>2018-04-05T11:03:06Z</time>
      </trkpt>
      <trkpt lat="45.92744" lon="4.74195">
        <ele>171</ele>
        <time>2018-04-05T11:03:07Z</time>
      </trkpt>
      <trkpt lat="45.92748" lon="4.7419">
        <ele>172</ele>
        <time>2018-04-05T11:03:08Z</time>
      </trkpt>
      <trkpt lat="45.92753" lon="4.74186">
        <ele>172</ele>
        <time>2018-04-05T11:03:09Z</time>
      </trkpt>
      <trkpt lat="45.92757" lon="4.74181">
        <ele>172</ele>
        <time>2018-04-05T11:03:10Z</time>
      </trkpt>
      <trkpt lat="45.92762" lon="4.74175">
        <ele>172</ele>
        <time>2018-04-05T11:03:11Z</time>
      </trkpt>
      <trkpt lat="45.92767" lon="4.74169">
        <ele>172</ele>
        <time>2018-04-05T11:03:12Z</time>
      </trkpt>
      <trkpt lat="45.92771" lon="4.74165">
        <ele>172</ele>
        <time>2018-04-05T11:03:13Z</time>
      </trkpt>
      <trkpt lat="45.92775" lon="4.7416">
        <ele>172</ele>
        <time>2018-04-05T11:03:14Z</time>
      </trkpt>
      <trkpt lat="45.92779" lon="4.74156">
        <ele>172</ele>
        <time>2018-04-05T11:03:15Z</time>
      </trkpt>
      <trkpt lat="45.92784" lon="4.74151">
        <ele>172</ele>
        <time>2018-04-05T11:03:16Z</time>
      </trkpt>
      <trkpt lat="45.92788" lon="4.74146">
        <ele>172</ele>
        <time>2018-04-05T11:03:17Z</time>
      </trkpt>
      <trkpt lat="45.92793" lon="4.74142">
        <ele>172</ele>
        <time>2018-04-05T11:03:18Z</time>
      </trkpt>
      <trkpt lat="45.92798" lon="4.74138">
        <ele>172</ele>
        <time>2018-04-05T11:03:19Z</time>
      </trkpt>
      <trkpt lat="45.92802" lon="4.74133">
        <ele>172</ele>
        <time>2018-04-05T11:03:20Z</time>
      </trkpt>
      <trkpt lat="45.92806" lon="4.74127">
        <ele>172</ele>
        <time>2018-04-05T11:03:21Z</time>
      </trkpt>
      <trkpt lat="45.92809" lon="4.74123">
        <ele>172</ele>
        <time>2018-04-05T11:03:22Z</time>
      </trkpt>
      <trkpt lat="45.92813" lon="4.74118">
        <ele>172</ele>
        <time>2018-04-05T11:03:23Z</time>
      </trkpt>
      <trkpt lat="45.92817" lon="4.74113">
        <ele>172</ele>
        <time>2018-04-05T11:03:24Z</time>
      </trkpt>
      <trkpt lat="45.92822" lon="4.74109">
        <ele>171</ele>
        <time>2018-04-05T11:03:25Z</time>
      </trkpt>
      <trkpt lat="45.92826" lon="4.74104">
        <ele>171</ele>
        <time>2018-04-05T11:03:26Z</time>
      </trkpt>
      <trkpt lat="45.9283" lon="4.74098">
        <ele>171</ele>
        <time>2018-04-05T11:03:27Z</time>
      </trkpt>
      <trkpt lat="45.92834" lon="4.74094">
        <ele>171</ele>
        <time>2018-04-05T11:03:28Z</time>
      </trkpt>
      <trkpt lat="45.92839" lon="4.74088">
        <ele>171</ele>
        <time>2018-04-05T11:03:29Z</time>
      </trkpt>
      <trkpt lat="45.92844" lon="4.74083">
        <ele>171</ele>
        <time>2018-04-05T11:03:30Z</time>
      </trkpt>
      <trkpt lat="45.92849" lon="4.74077">
        <ele>172</ele>
        <time>2018-04-05T11:03:31Z</time>
      </trkpt>
      <trkpt lat="45.92853" lon="4.74071">
        <ele>172</ele>
        <time>2018-04-05T11:03:32Z</time>
      </trkpt>
      <trkpt lat="45.92858" lon="4.74065">
        <ele>172</ele>
        <time>2018-04-05T11:03:33Z</time>
      </trkpt>
      <trkpt lat="45.92863" lon="4.7406">
        <ele>172</ele>
        <time>2018-04-05T11:03:34Z</time>
      </trkpt>
      <trkpt lat="45.92867" lon="4.74056">
        <ele>172</ele>
        <time>2018-04-05T11:03:35Z</time>
      </trkpt>
      <trkpt lat="45.92871" lon="4.74051">
        <ele>172</ele>
        <time>2018-04-05T11:03:36Z</time>
      </trkpt>
      <trkpt lat="45.92875" lon="4.74048">
        <ele>172</ele>
        <time>2018-04-05T11:03:37Z</time>
      </trkpt>
      <trkpt lat="45.9288" lon="4.74046">
        <ele>172</ele>
        <time>2018-04-05T11:03:38Z</time>
      </trkpt>
      <trkpt lat="45.92884" lon="4.74044">
        <ele>172</ele>
        <time>2018-04-05T11:03:39Z</time>
      </trkpt>
      <trkpt lat="45.92889" lon="4.74045">
        <ele>172</ele>
        <time>2018-04-05T11:03:40Z</time>
      </trkpt>
      <trkpt lat="45.92893" lon="4.74046">
        <ele>172</ele>
        <time>2018-04-05T11:03:41Z</time>
      </trkpt>
      <trkpt lat="45.92898" lon="4.74048">
        <ele>172</ele>
        <time>2018-04-05T11:03:42Z</time>
      </trkpt>
      <trkpt lat="45.92903" lon="4.74047">
        <ele>172</ele>
        <time>2018-04-05T11:03:43Z</time>
      </trkpt>
      <trkpt lat="45.92908" lon="4.74045">
        <ele>172</ele>
        <time>2018-04-05T11:03:44Z</time>
      </trkpt>
      <trkpt lat="45.92912" lon="4.74042">
        <ele>172</ele>
        <time>2018-04-05T11:03:45Z</time>
      </trkpt>
      <trkpt lat="45.92916" lon="4.74037">
        <ele>172</ele>
        <time>2018-04-05T11:03:46Z</time>
      </trkpt>
      <trkpt lat="45.92919" lon="4.74031">
        <ele>172</ele>
        <time>2018-04-05T11:03:47Z</time>
      </trkpt>
      <trkpt lat="45.9292" lon="4.74024">
        <ele>172</ele>
        <time>2018-04-05T11:03:48Z</time>
      </trkpt>
      <trkpt lat="45.92921" lon="4.74018">
        <ele>172</ele>
        <time>2018-04-05T11:03:49Z</time>
      </trkpt>
      <trkpt lat="45.92919" lon="4.74012">
        <ele>172</ele>
        <time>2018-04-05T11:03:50Z</time>
      </trkpt>
      <trkpt lat="45.92917" lon="4.74004">
        <ele>172</ele>
        <time>2018-04-05T11:03:51Z</time>
      </trkpt>
      <trkpt lat="45.92915" lon="4.73998">
        <ele>172</ele>
        <time>2018-04-05T11:03:52Z</time>
      </trkpt>
      <trkpt lat="45.92912" lon="4.73993">
        <ele>172</ele>
        <time>2018-04-05T11:03:53Z</time>
      </trkpt>
      <trkpt lat="45.92908" lon="4.73987">
        <ele>172</ele>
        <time>2018-04-05T11:03:54Z</time>
      </trkpt>
      <trkpt lat="45.92902" lon="4.73984">
        <ele>172</ele>
        <time>2018-04-05T11:03:55Z</time>
      </trkpt>
      <trkpt lat="45.92897" lon="4.73981">
        <ele>172</ele>
        <time>2018-04-05T11:03:56Z</time>
      </trkpt>
      <trkpt lat="45.92894" lon="4.73976">
        <ele>172</ele>
        <time>2018-04-05T11:03:57Z</time>
      </trkpt>
      <trkpt lat="45.9289" lon="4.7397">
        <ele>172</ele>
        <time>2018-04-05T11:03:58Z</time>
      </trkpt>
      <trkpt lat="45.92888" lon="4.73964">
        <ele>172</ele>
        <time>2018-04-05T11:03:59Z</time>
      </trkpt>
      <trkpt lat="45.92887" lon="4.73955">
        <ele>172</ele>
        <time>2018-04-05T11:04:00Z</time>
      </trkpt>
      <trkpt lat="45.92887" lon="4.73948">
        <ele>172</ele>
        <time>2018-04-05T11:04:01Z</time>
      </trkpt>
      <trkpt lat="45.92886" lon="4.7394">
        <ele>172</ele>
        <time>2018-04-05T11:04:02Z</time>
      </trkpt>
      <trkpt lat="45.92887" lon="4.73932">
        <ele>172</ele>
        <time>2018-04-05T11:04:03Z</time>
      </trkpt>
      <trkpt lat="45.92886" lon="4.73923">
        <ele>172</ele>
        <time>2018-04-05T11:04:04Z</time>
      </trkpt>
      <trkpt lat="45.92885" lon="4.73915">
        <ele>173</ele>
        <time>2018-04-05T11:04:05Z</time>
      </trkpt>
      <trkpt lat="45.92884" lon="4.73908">
        <ele>173</ele>
        <time>2018-04-05T11:04:06Z</time>
      </trkpt>
      <trkpt lat="45.92883" lon="4.739">
        <ele>173</ele>
        <time>2018-04-05T11:04:07Z</time>
      </trkpt>
      <trkpt lat="45.92882" lon="4.73892">
        <ele>173</ele>
        <time>2018-04-05T11:04:08Z</time>
      </trkpt>
      <trkpt lat="45.92881" lon="4.73885">
        <ele>173</ele>
        <time>2018-04-05T11:04:09Z</time>
      </trkpt>
      <trkpt lat="45.92879" lon="4.73878">
        <ele>173</ele>
        <time>2018-04-05T11:04:10Z</time>
      </trkpt>
      <trkpt lat="45.92877" lon="4.7387">
        <ele>173</ele>
        <time>2018-04-05T11:04:11Z</time>
      </trkpt>
      <trkpt lat="45.92875" lon="4.73863">
        <ele>173</ele>
        <time>2018-04-05T11:04:12Z</time>
      </trkpt>
      <trkpt lat="45.92873" lon="4.73856">
        <ele>173</ele>
        <time>2018-04-05T11:04:13Z</time>
      </trkpt>
      <trkpt lat="45.92871" lon="4.73847">
        <ele>173</ele>
        <time>2018-04-05T11:04:14Z</time>
      </trkpt>
      <trkpt lat="45.9287" lon="4.73839">
        <ele>173</ele>
        <time>2018-04-05T11:04:15Z</time>
      </trkpt>
      <trkpt lat="45.9287" lon="4.73831">
        <ele>173</ele>
        <time>2018-04-05T11:04:16Z</time>
      </trkpt>
      <trkpt lat="45.92868" lon="4.73822">
        <ele>173</ele>
        <time>2018-04-05T11:04:17Z</time>
      </trkpt>
      <trkpt lat="45.92867" lon="4.73815">
        <ele>173</ele>
        <time>2018-04-05T11:04:18Z</time>
      </trkpt>
      <trkpt lat="45.92864" lon="4.73809">
        <ele>173</ele>
        <time>2018-04-05T11:04:19Z</time>
      </trkpt>
      <trkpt lat="45.92859" lon="4.73802">
        <ele>173</ele>
        <time>2018-04-05T11:04:20Z</time>
      </trkpt>
      <trkpt lat="45.92855" lon="4.73797">
        <ele>173</ele>
        <time>2018-04-05T11:04:21Z</time>
      </trkpt>
      <trkpt lat="45.92851" lon="4.73792">
        <ele>173</ele>
        <time>2018-04-05T11:04:22Z</time>
      </trkpt>
      <trkpt lat="45.92845" lon="4.73789">
        <ele>173</ele>
        <time>2018-04-05T11:04:23Z</time>
      </trkpt>
      <trkpt lat="45.9284" lon="4.73786">
        <ele>173</ele>
        <time>2018-04-05T11:04:24Z</time>
      </trkpt>
      <trkpt lat="45.92836" lon="4.73781">
        <ele>173</ele>
        <time>2018-04-05T11:04:25Z</time>
      </trkpt>
      <trkpt lat="45.92831" lon="4.73776">
        <ele>173</ele>
        <time>2018-04-05T11:04:26Z</time>
      </trkpt>
      <trkpt lat="45.92826" lon="4.73774">
        <ele>173</ele>
        <time>2018-04-05T11:04:27Z</time>
      </trkpt>
      <trkpt lat="45.92818" lon="4.7377">
        <ele>173</ele>
        <time>2018-04-05T11:04:29Z</time>
      </trkpt>
      <trkpt lat="45.92813" lon="4.73766">
        <ele>173</ele>
        <time>2018-04-05T11:04:30Z</time>
      </trkpt>
      <trkpt lat="45.92805" lon="4.73762">
        <ele>173</ele>
        <time>2018-04-05T11:04:32Z</time>
      </trkpt>
      <trkpt lat="45.92801" lon="4.73759">
        <ele>173</ele>
        <time>2018-04-05T11:04:33Z</time>
      </trkpt>
      <trkpt lat="45.92793" lon="4.73755">
        <ele>173</ele>
        <time>2018-04-05T11:04:35Z</time>
      </trkpt>
      <trkpt lat="45.92788" lon="4.73752">
        <ele>173</ele>
        <time>2018-04-05T11:04:36Z</time>
      </trkpt>
      <trkpt lat="45.92783" lon="4.73747">
        <ele>172</ele>
        <time>2018-04-05T11:04:38Z</time>
      </trkpt>
      <trkpt lat="45.9278" lon="4.73741">
        <ele>172</ele>
        <time>2018-04-05T11:04:39Z</time>
      </trkpt>
      <trkpt lat="45.92777" lon="4.73736">
        <ele>172</ele>
        <time>2018-04-05T11:04:40Z</time>
      </trkpt>
      <trkpt lat="45.92773" lon="4.73732">
        <ele>172</ele>
        <time>2018-04-05T11:04:41Z</time>
      </trkpt>
      <trkpt lat="45.92769" lon="4.73728">
        <ele>172</ele>
        <time>2018-04-05T11:04:42Z</time>
      </trkpt>
      <trkpt lat="45.92764" lon="4.73726">
        <ele>172</ele>
        <time>2018-04-05T11:04:43Z</time>
      </trkpt>
      <trkpt lat="45.92759" lon="4.73723">
        <ele>172</ele>
        <time>2018-04-05T11:04:44Z</time>
      </trkpt>
      <trkpt lat="45.92753" lon="4.73721">
        <ele>172</ele>
        <time>2018-04-05T11:04:45Z</time>
      </trkpt>
      <trkpt lat="45.92749" lon="4.7372">
        <ele>173</ele>
        <time>2018-04-05T11:04:46Z</time>
      </trkpt>
      <trkpt lat="45.92744" lon="4.73719">
        <ele>173</ele>
        <time>2018-04-05T11:04:47Z</time>
      </trkpt>
      <trkpt lat="45.92739" lon="4.73717">
        <ele>173</ele>
        <time>2018-04-05T11:04:48Z</time>
      </trkpt>
      <trkpt lat="45.92735" lon="4.73715">
        <ele>173</ele>
        <time>2018-04-05T11:04:49Z</time>
      </trkpt>
      <trkpt lat="45.9273" lon="4.73714">
        <ele>173</ele>
        <time>2018-04-05T11:04:50Z</time>
      </trkpt>
      <trkpt lat="45.92725" lon="4.73714">
        <ele>173</ele>
        <time>2018-04-05T11:04:51Z</time>
      </trkpt>
      <trkpt lat="45.9272" lon="4.73712">
        <ele>173</ele>
        <time>2018-04-05T11:04:52Z</time>
      </trkpt>
      <trkpt lat="45.92716" lon="4.73712">
        <ele>173</ele>
        <time>2018-04-05T11:04:53Z</time>
      </trkpt>
      <trkpt lat="45.92711" lon="4.73711">
        <ele>173</ele>
        <time>2018-04-05T11:04:54Z</time>
      </trkpt>
      <trkpt lat="45.92706" lon="4.7371">
        <ele>173</ele>
        <time>2018-04-05T11:04:55Z</time>
      </trkpt>
      <trkpt lat="45.92702" lon="4.7371">
        <ele>173</ele>
        <time>2018-04-05T11:04:56Z</time>
      </trkpt>
      <trkpt lat="45.92697" lon="4.73709">
        <ele>173</ele>
        <time>2018-04-05T11:04:57Z</time>
      </trkpt>
      <trkpt lat="45.92692" lon="4.73709">
        <ele>173</ele>
        <time>2018-04-05T11:04:58Z</time>
      </trkpt>
      <trkpt lat="45.92687" lon="4.73708">
        <ele>173</ele>
        <time>2018-04-05T11:04:59Z</time>
      </trkpt>
      <trkpt lat="45.92683" lon="4.73707">
        <ele>173</ele>
        <time>2018-04-05T11:05:00Z</time>
      </trkpt>
      <trkpt lat="45.92677" lon="4.73705">
        <ele>173</ele>
        <time>2018-04-05T11:05:01Z</time>
      </trkpt>
      <trkpt lat="45.92669" lon="4.73702">
        <ele>174</ele>
        <time>2018-04-05T11:05:03Z</time>
      </trkpt>
      <trkpt lat="45.92666" lon="4.73699">
        <ele>173</ele>
        <time>2018-04-05T11:05:04Z</time>
      </trkpt>
      <trkpt lat="45.92662" lon="4.73697">
        <ele>173</ele>
        <time>2018-04-05T11:05:05Z</time>
      </trkpt>
      <trkpt lat="45.92657" lon="4.73694">
        <ele>173</ele>
        <time>2018-04-05T11:05:06Z</time>
      </trkpt>
      <trkpt lat="45.92654" lon="4.7369">
        <ele>173</ele>
        <time>2018-04-05T11:05:07Z</time>
      </trkpt>
      <trkpt lat="45.9265" lon="4.73686">
        <ele>173</ele>
        <time>2018-04-05T11:05:08Z</time>
      </trkpt>
      <trkpt lat="45.92646" lon="4.73682">
        <ele>173</ele>
        <time>2018-04-05T11:05:09Z</time>
      </trkpt>
      <trkpt lat="45.92643" lon="4.73676">
        <ele>173</ele>
        <time>2018-04-05T11:05:10Z</time>
      </trkpt>
      <trkpt lat="45.9264" lon="4.73671">
        <ele>173</ele>
        <time>2018-04-05T11:05:11Z</time>
      </trkpt>
      <trkpt lat="45.92636" lon="4.73666">
        <ele>173</ele>
        <time>2018-04-05T11:05:12Z</time>
      </trkpt>
      <trkpt lat="45.92633" lon="4.7366">
        <ele>173</ele>
        <time>2018-04-05T11:05:13Z</time>
      </trkpt>
      <trkpt lat="45.92631" lon="4.73654">
        <ele>173</ele>
        <time>2018-04-05T11:05:14Z</time>
      </trkpt>
      <trkpt lat="45.92627" lon="4.73648">
        <ele>173</ele>
        <time>2018-04-05T11:05:15Z</time>
      </trkpt>
      <trkpt lat="45.92624" lon="4.73642">
        <ele>173</ele>
        <time>2018-04-05T11:05:16Z</time>
      </trkpt>
      <trkpt lat="45.92621" lon="4.73637">
        <ele>173</ele>
        <time>2018-04-05T11:05:17Z</time>
      </trkpt>
      <trkpt lat="45.92617" lon="4.73633">
        <ele>173</ele>
        <time>2018-04-05T11:05:18Z</time>
      </trkpt>
      <trkpt lat="45.92612" lon="4.73629">
        <ele>173</ele>
        <time>2018-04-05T11:05:19Z</time>
      </trkpt>
      <trkpt lat="45.92606" lon="4.73625">
        <ele>173</ele>
        <time>2018-04-05T11:05:20Z</time>
      </trkpt>
      <trkpt lat="45.926" lon="4.73623">
        <ele>173</ele>
        <time>2018-04-05T11:05:21Z</time>
      </trkpt>
      <trkpt lat="45.92596" lon="4.73622">
        <ele>173</ele>
        <time>2018-04-05T11:05:22Z</time>
      </trkpt>
      <trkpt lat="45.92591" lon="4.73622">
        <ele>173</ele>
        <time>2018-04-05T11:05:23Z</time>
      </trkpt>
      <trkpt lat="45.92586" lon="4.73624">
        <ele>172</ele>
        <time>2018-04-05T11:05:24Z</time>
      </trkpt>
      <trkpt lat="45.9258" lon="4.73625">
        <ele>173</ele>
        <time>2018-04-05T11:05:25Z</time>
      </trkpt>
      <trkpt lat="45.92575" lon="4.73626">
        <ele>173</ele>
        <time>2018-04-05T11:05:26Z</time>
      </trkpt>
      <trkpt lat="45.9257" lon="4.73627">
        <ele>173</ele>
        <time>2018-04-05T11:05:27Z</time>
      </trkpt>
      <trkpt lat="45.92565" lon="4.73629">
        <ele>173</ele>
        <time>2018-04-05T11:05:28Z</time>
      </trkpt>
      <trkpt lat="45.9256" lon="4.73631">
        <ele>173</ele>
        <time>2018-04-05T11:05:29Z</time>
      </trkpt>
      <trkpt lat="45.92556" lon="4.73631">
        <ele>173</ele>
        <time>2018-04-05T11:05:30Z</time>
      </trkpt>
      <trkpt lat="45.92551" lon="4.73632">
        <ele>173</ele>
        <time>2018-04-05T11:05:31Z</time>
      </trkpt>
      <trkpt lat="45.92546" lon="4.73633">
        <ele>173</ele>
        <time>2018-04-05T11:05:32Z</time>
      </trkpt>
      <trkpt lat="45.92541" lon="4.73636">
        <ele>173</ele>
        <time>2018-04-05T11:05:33Z</time>
      </trkpt>
      <trkpt lat="45.92536" lon="4.73635">
        <ele>173</ele>
        <time>2018-04-05T11:05:34Z</time>
      </trkpt>
      <trkpt lat="45.92531" lon="4.73633">
        <ele>173</ele>
        <time>2018-04-05T11:05:35Z</time>
      </trkpt>
      <trkpt lat="45.92527" lon="4.73635">
        <ele>173</ele>
        <time>2018-04-05T11:05:36Z</time>
      </trkpt>
      <trkpt lat="45.92519" lon="4.73636">
        <ele>173</ele>
        <time>2018-04-05T11:05:38Z</time>
      </trkpt>
      <trkpt lat="45.92514" lon="4.73636">
        <ele>173</ele>
        <time>2018-04-05T11:05:39Z</time>
      </trkpt>
      <trkpt lat="45.92505" lon="4.73636">
        <ele>174</ele>
        <time>2018-04-05T11:05:41Z</time>
      </trkpt>
      <trkpt lat="45.92501" lon="4.73636">
        <ele>174</ele>
        <time>2018-04-05T11:05:42Z</time>
      </trkpt>
      <trkpt lat="45.92493" lon="4.73636">
        <ele>174</ele>
        <time>2018-04-05T11:05:44Z</time>
      </trkpt>
      <trkpt lat="45.92488" lon="4.73636">
        <ele>174</ele>
        <time>2018-04-05T11:05:45Z</time>
      </trkpt>
      <trkpt lat="45.9248" lon="4.73637">
        <ele>174</ele>
        <time>2018-04-05T11:05:47Z</time>
      </trkpt>
      <trkpt lat="45.92476" lon="4.73638">
        <ele>174</ele>
        <time>2018-04-05T11:05:48Z</time>
      </trkpt>
      <trkpt lat="45.92469" lon="4.73644">
        <ele>174</ele>
        <time>2018-04-05T11:05:50Z</time>
      </trkpt>
      <trkpt lat="45.92466" lon="4.73648">
        <ele>174</ele>
        <time>2018-04-05T11:05:51Z</time>
      </trkpt>
      <trkpt lat="45.92464" lon="4.73661">
        <ele>174</ele>
        <time>2018-04-05T11:05:53Z</time>
      </trkpt>
      <trkpt lat="45.92464" lon="4.73667">
        <ele>174</ele>
        <time>2018-04-05T11:05:54Z</time>
      </trkpt>
      <trkpt lat="45.92465" lon="4.73679">
        <ele>174</ele>
        <time>2018-04-05T11:05:56Z</time>
      </trkpt>
      <trkpt lat="45.92465" lon="4.73686">
        <ele>174</ele>
        <time>2018-04-05T11:05:57Z</time>
      </trkpt>
      <trkpt lat="45.92465" lon="4.73697">
        <ele>174</ele>
        <time>2018-04-05T11:06:00Z</time>
      </trkpt>
      <trkpt lat="45.92464" lon="4.737">
        <ele>174</ele>
        <time>2018-04-05T11:06:01Z</time>
      </trkpt>
      <trkpt lat="45.92458" lon="4.73708">
        <ele>174</ele>
        <time>2018-04-05T11:06:48.073Z</time>
      </trkpt>
    </trkseg>
  </trk>
</gpx>